<?xml version='1.0' encoding='UTF-8'?><gpx version="1.1" creator="JPX - https://github.com/jenetics/jpx" xmlns="http://www.topografix.com/GPX/1/1"><trk><trkseg><trkpt lat="40.8938555" lon="14.2878331"><ele>80.0</ele><time>2026-04-04T06:59:08.728Z</time></trkpt><trkpt lat="40.8938507" lon="14.2877492"><ele>80.0</ele><time>2026-04-04T06:59:27.105Z</time></trkpt><trkpt lat="40.8936883" lon="14.2871"><ele>80.0</ele><time>2026-04-04T06:59:39.008Z</time></trkpt><trkpt lat="40.89366" lon="14.2869933"><ele>80.0</ele><time>2026-04-04T06:59:41.008Z</time></trkpt><trkpt lat="40.8936633" lon="14.2868683"><ele>80.0</ele><time>2026-04-04T06:59:43.007Z</time></trkpt><trkpt lat="40.8936367" lon="14.28674"><ele>80.0</ele><time>2026-04-04T06:59:45.009Z</time></trkpt><trkpt lat="40.8936017" lon="14.2866433"><ele>80.0</ele><time>2026-04-04T06:59:47.006Z</time></trkpt><trkpt lat="40.8935733" lon="14.286545"><ele>80.0</ele><time>2026-04-04T06:59:49.009Z</time></trkpt><trkpt lat="40.8935433" lon="14.2864417"><ele>80.16666666666667</ele><time>2026-04-04T06:59:51.007Z</time></trkpt><trkpt lat="40.893515" lon="14.2863367"><ele>80.33333333333334</ele><time>2026-04-04T06:59:53.009Z</time></trkpt><trkpt lat="40.893475" lon="14.2862383"><ele>80.5</ele><time>2026-04-04T06:59:55.009Z</time></trkpt><trkpt lat="40.8934583" lon="14.286135"><ele>80.66666666666667</ele><time>2026-04-04T06:59:57.009Z</time></trkpt><trkpt lat="40.893545" lon="14.2860833"><ele>80.83333333333333</ele><time>2026-04-04T07:00:00.009Z</time></trkpt><trkpt lat="40.8936367" lon="14.2860917"><ele>81.0</ele><time>2026-04-04T07:00:02.008Z</time></trkpt><trkpt lat="40.8937283" lon="14.2860983"><ele>81.0</ele><time>2026-04-04T07:00:04.008Z</time></trkpt><trkpt lat="40.893825" lon="14.2861117"><ele>81.0</ele><time>2026-04-04T07:00:06.008Z</time></trkpt><trkpt lat="40.89392" lon="14.2861283"><ele>81.0</ele><time>2026-04-04T07:00:08.008Z</time></trkpt><trkpt lat="40.89402" lon="14.2861267"><ele>81.0</ele><time>2026-04-04T07:00:10.009Z</time></trkpt><trkpt lat="40.8941117" lon="14.286135"><ele>81.0</ele><time>2026-04-04T07:00:12.008Z</time></trkpt><trkpt lat="40.8942133" lon="14.2861567"><ele>80.8</ele><time>2026-04-04T07:00:14.009Z</time></trkpt><trkpt lat="40.8943217" lon="14.286155"><ele>80.6</ele><time>2026-04-04T07:00:16.01Z</time></trkpt><trkpt lat="40.8944217" lon="14.286175"><ele>80.4</ele><time>2026-04-04T07:00:18.011Z</time></trkpt><trkpt lat="40.894525" lon="14.2862083"><ele>80.2</ele><time>2026-04-04T07:00:20.009Z</time></trkpt><trkpt lat="40.8946233" lon="14.28623"><ele>80.0</ele><time>2026-04-04T07:00:22.007Z</time></trkpt><trkpt lat="40.8947167" lon="14.2862583"><ele>80.0</ele><time>2026-04-04T07:00:24.009Z</time></trkpt><trkpt lat="40.8948067" lon="14.286285"><ele>80.0</ele><time>2026-04-04T07:00:26.01Z</time></trkpt><trkpt lat="40.89492" lon="14.2862867"><ele>80.0</ele><time>2026-04-04T07:00:28.009Z</time></trkpt><trkpt lat="40.8950283" lon="14.2862933"><ele>80.0</ele><time>2026-04-04T07:00:30.01Z</time></trkpt><trkpt lat="40.895145" lon="14.2863067"><ele>80.0</ele><time>2026-04-04T07:00:32.009Z</time></trkpt><trkpt lat="40.895245" lon="14.28631"><ele>79.6</ele><time>2026-04-04T07:00:34.007Z</time></trkpt><trkpt lat="40.8953483" lon="14.286315"><ele>79.2</ele><time>2026-04-04T07:00:36.01Z</time></trkpt><trkpt lat="40.8954467" lon="14.2863183"><ele>78.8</ele><time>2026-04-04T07:00:38.01Z</time></trkpt><trkpt lat="40.8955483" lon="14.2863217"><ele>78.4</ele><time>2026-04-04T07:00:40.009Z</time></trkpt><trkpt lat="40.8956433" lon="14.28633"><ele>78.0</ele><time>2026-04-04T07:00:42.01Z</time></trkpt><trkpt lat="40.8957333" lon="14.2863433"><ele>78.0</ele><time>2026-04-04T07:00:44.009Z</time></trkpt><trkpt lat="40.8958233" lon="14.2863533"><ele>78.0</ele><time>2026-04-04T07:00:46.009Z</time></trkpt><trkpt lat="40.895915" lon="14.28636"><ele>78.0</ele><time>2026-04-04T07:00:48.01Z</time></trkpt><trkpt lat="40.89601" lon="14.2863683"><ele>78.0</ele><time>2026-04-04T07:00:50.01Z</time></trkpt><trkpt lat="40.8961083" lon="14.28637"><ele>78.0</ele><time>2026-04-04T07:00:52.009Z</time></trkpt><trkpt lat="40.896205" lon="14.2863917"><ele>78.33333333333333</ele><time>2026-04-04T07:00:54.01Z</time></trkpt><trkpt lat="40.8962967" lon="14.2864267"><ele>78.66666666666667</ele><time>2026-04-04T07:00:56.011Z</time></trkpt><trkpt lat="40.8963833" lon="14.2864633"><ele>79.0</ele><time>2026-04-04T07:00:58.007Z</time></trkpt><trkpt lat="40.89647" lon="14.286495"><ele>79.33333333333334</ele><time>2026-04-04T07:01:00.008Z</time></trkpt><trkpt lat="40.8965533" lon="14.28652"><ele>79.66666666666667</ele><time>2026-04-04T07:01:02.009Z</time></trkpt><trkpt lat="40.8966167" lon="14.2865233"><ele>80.0</ele><time>2026-04-04T07:01:04.007Z</time></trkpt><trkpt lat="40.896685" lon="14.286475"><ele>80.0</ele><time>2026-04-04T07:01:07.01Z</time></trkpt><trkpt lat="40.8967483" lon="14.28641"><ele>80.0</ele><time>2026-04-04T07:01:10.009Z</time></trkpt><trkpt lat="40.8968" lon="14.2863617"><ele>80.0</ele><time>2026-04-04T07:01:12.008Z</time></trkpt><trkpt lat="40.8968633" lon="14.2863067"><ele>80.0</ele><time>2026-04-04T07:01:13.009Z</time></trkpt><trkpt lat="40.8969167" lon="14.2862217"><ele>80.0</ele><time>2026-04-04T07:01:15.009Z</time></trkpt><trkpt lat="40.896965" lon="14.286135"><ele>80.0</ele><time>2026-04-04T07:01:17.009Z</time></trkpt><trkpt lat="40.89702" lon="14.2860383"><ele>80.2</ele><time>2026-04-04T07:01:19.008Z</time></trkpt><trkpt lat="40.8970717" lon="14.2859633"><ele>80.4</ele><time>2026-04-04T07:01:21.008Z</time></trkpt><trkpt lat="40.89712" lon="14.285875"><ele>80.6</ele><time>2026-04-04T07:01:23.008Z</time></trkpt><trkpt lat="40.8971667" lon="14.2857817"><ele>80.8</ele><time>2026-04-04T07:01:25.009Z</time></trkpt><trkpt lat="40.897225" lon="14.285675"><ele>81.0</ele><time>2026-04-04T07:01:27.01Z</time></trkpt><trkpt lat="40.8972933" lon="14.285565"><ele>81.0</ele><time>2026-04-04T07:01:29.01Z</time></trkpt><trkpt lat="40.8973717" lon="14.2854567"><ele>81.0</ele><time>2026-04-04T07:01:31.009Z</time></trkpt><trkpt lat="40.8974417" lon="14.2853333"><ele>81.0</ele><time>2026-04-04T07:01:33.008Z</time></trkpt><trkpt lat="40.8975067" lon="14.2852317"><ele>81.0</ele><time>2026-04-04T07:01:35.009Z</time></trkpt><trkpt lat="40.8975733" lon="14.2851383"><ele>81.0</ele><time>2026-04-04T07:01:37.008Z</time></trkpt><trkpt lat="40.8976317" lon="14.28505"><ele>80.83333333333333</ele><time>2026-04-04T07:01:39.009Z</time></trkpt><trkpt lat="40.8976917" lon="14.2849667"><ele>80.66666666666667</ele><time>2026-04-04T07:01:41.009Z</time></trkpt><trkpt lat="40.897755" lon="14.2848617"><ele>80.5</ele><time>2026-04-04T07:01:43.009Z</time></trkpt><trkpt lat="40.8978083" lon="14.2847817"><ele>80.33333333333334</ele><time>2026-04-04T07:01:45.009Z</time></trkpt><trkpt lat="40.8978533" lon="14.28472"><ele>80.16666666666667</ele><time>2026-04-04T07:01:47.008Z</time></trkpt><trkpt lat="40.8979317" lon="14.2846467"><ele>80.0</ele><time>2026-04-04T07:01:50.01Z</time></trkpt><trkpt lat="40.8979917" lon="14.2845933"><ele>80.0</ele><time>2026-04-04T07:01:52.007Z</time></trkpt><trkpt lat="40.8980833" lon="14.2845867"><ele>80.0</ele><time>2026-04-04T07:01:55.009Z</time></trkpt><trkpt lat="40.8981567" lon="14.2846483"><ele>80.0</ele><time>2026-04-04T07:01:57.01Z</time></trkpt><trkpt lat="40.89822" lon="14.28472"><ele>80.0</ele><time>2026-04-04T07:01:59.009Z</time></trkpt><trkpt lat="40.8982867" lon="14.2848"><ele>80.0</ele><time>2026-04-04T07:02:01.009Z</time></trkpt><trkpt lat="40.8983567" lon="14.2848883"><ele>80.0</ele><time>2026-04-04T07:02:03.008Z</time></trkpt><trkpt lat="40.898425" lon="14.2849867"><ele>80.6</ele><time>2026-04-04T07:02:05.009Z</time></trkpt><trkpt lat="40.8985033" lon="14.28505"><ele>81.2</ele><time>2026-04-04T07:02:07.009Z</time></trkpt><trkpt lat="40.8985683" lon="14.285115"><ele>81.80000000000001</ele><time>2026-04-04T07:02:09.01Z</time></trkpt><trkpt lat="40.8986467" lon="14.2851883"><ele>82.4</ele><time>2026-04-04T07:02:11.009Z</time></trkpt><trkpt lat="40.898735" lon="14.285255"><ele>83.0</ele><time>2026-04-04T07:02:13.01Z</time></trkpt><trkpt lat="40.8988217" lon="14.2853333"><ele>83.0</ele><time>2026-04-04T07:02:15.008Z</time></trkpt><trkpt lat="40.8989117" lon="14.28538"><ele>83.0</ele><time>2026-04-04T07:02:17.008Z</time></trkpt><trkpt lat="40.89901" lon="14.2854117"><ele>83.0</ele><time>2026-04-04T07:02:19.009Z</time></trkpt><trkpt lat="40.8990933" lon="14.2854517"><ele>83.0</ele><time>2026-04-04T07:02:21.009Z</time></trkpt><trkpt lat="40.89917" lon="14.28551"><ele>83.0</ele><time>2026-04-04T07:02:23.01Z</time></trkpt><trkpt lat="40.8992583" lon="14.2855683"><ele>83.25</ele><time>2026-04-04T07:02:25.008Z</time></trkpt><trkpt lat="40.8993433" lon="14.2856283"><ele>83.5</ele><time>2026-04-04T07:02:27.009Z</time></trkpt><trkpt lat="40.8994567" lon="14.285675"><ele>83.75</ele><time>2026-04-04T07:02:29.01Z</time></trkpt><trkpt lat="40.89958" lon="14.2857167"><ele>84.0</ele><time>2026-04-04T07:02:31.009Z</time></trkpt><trkpt lat="40.899685" lon="14.2857717"><ele>84.0</ele><time>2026-04-04T07:02:33.009Z</time></trkpt><trkpt lat="40.8997967" lon="14.2858217"><ele>84.0</ele><time>2026-04-04T07:02:35.007Z</time></trkpt><trkpt lat="40.8998933" lon="14.2858867"><ele>84.0</ele><time>2026-04-04T07:02:37.009Z</time></trkpt><trkpt lat="40.8999833" lon="14.2859567"><ele>84.0</ele><time>2026-04-04T07:02:39.011Z</time></trkpt><trkpt lat="40.9000717" lon="14.2860083"><ele>84.0</ele><time>2026-04-04T07:02:41.008Z</time></trkpt><trkpt lat="40.9001717" lon="14.2860283"><ele>84.4</ele><time>2026-04-04T07:02:43.009Z</time></trkpt><trkpt lat="40.9002717" lon="14.2860517"><ele>84.80000000000001</ele><time>2026-04-04T07:02:45.008Z</time></trkpt><trkpt lat="40.9003683" lon="14.286075"><ele>85.19999999999999</ele><time>2026-04-04T07:02:47.008Z</time></trkpt><trkpt lat="40.9004667" lon="14.28608"><ele>85.6</ele><time>2026-04-04T07:02:49.009Z</time></trkpt><trkpt lat="40.900575" lon="14.28607"><ele>86.0</ele><time>2026-04-04T07:02:51.008Z</time></trkpt><trkpt lat="40.9006867" lon="14.286065"><ele>86.0</ele><time>2026-04-04T07:02:53.009Z</time></trkpt><trkpt lat="40.9007917" lon="14.2860583"><ele>86.0</ele><time>2026-04-04T07:02:55.008Z</time></trkpt><trkpt lat="40.9008983" lon="14.2860417"><ele>86.0</ele><time>2026-04-04T07:02:57.007Z</time></trkpt><trkpt lat="40.9009967" lon="14.2860017"><ele>86.0</ele><time>2026-04-04T07:02:59.007Z</time></trkpt><trkpt lat="40.9011067" lon="14.28596"><ele>86.0</ele><time>2026-04-04T07:03:01.009Z</time></trkpt><trkpt lat="40.9012133" lon="14.2859217"><ele>85.8</ele><time>2026-04-04T07:03:03.008Z</time></trkpt><trkpt lat="40.9013083" lon="14.2858717"><ele>85.6</ele><time>2026-04-04T07:03:05.009Z</time></trkpt><trkpt lat="40.9014" lon="14.2858133"><ele>85.4</ele><time>2026-04-04T07:03:07.009Z</time></trkpt><trkpt lat="40.9015033" lon="14.2857783"><ele>85.2</ele><time>2026-04-04T07:03:09.01Z</time></trkpt><trkpt lat="40.901605" lon="14.2857467"><ele>85.0</ele><time>2026-04-04T07:03:11.009Z</time></trkpt><trkpt lat="40.9017083" lon="14.2857083"><ele>85.25</ele><time>2026-04-04T07:03:13.009Z</time></trkpt><trkpt lat="40.9018133" lon="14.28566"><ele>85.5</ele><time>2026-04-04T07:03:15.007Z</time></trkpt><trkpt lat="40.9019183" lon="14.285635"><ele>85.75</ele><time>2026-04-04T07:03:17.008Z</time></trkpt><trkpt lat="40.9020417" lon="14.2856233"><ele>86.0</ele><time>2026-04-04T07:03:19.007Z</time></trkpt><trkpt lat="40.902155" lon="14.2856017"><ele>86.0</ele><time>2026-04-04T07:03:21.007Z</time></trkpt><trkpt lat="40.9022717" lon="14.2855983"><ele>86.0</ele><time>2026-04-04T07:03:23.008Z</time></trkpt><trkpt lat="40.90239" lon="14.2855967"><ele>86.0</ele><time>2026-04-04T07:03:25.009Z</time></trkpt><trkpt lat="40.9025033" lon="14.285575"><ele>86.0</ele><time>2026-04-04T07:03:27.006Z</time></trkpt><trkpt lat="40.9026183" lon="14.2855433"><ele>85.6</ele><time>2026-04-04T07:03:29.008Z</time></trkpt><trkpt lat="40.9027333" lon="14.2855233"><ele>85.19999999999999</ele><time>2026-04-04T07:03:31.009Z</time></trkpt><trkpt lat="40.90285" lon="14.2854917"><ele>84.80000000000001</ele><time>2026-04-04T07:03:33.008Z</time></trkpt><trkpt lat="40.9029633" lon="14.2854183"><ele>84.4</ele><time>2026-04-04T07:03:35.008Z</time></trkpt><trkpt lat="40.9030233" lon="14.2853917"><ele>84.0</ele><time>2026-04-04T07:03:36.01Z</time></trkpt><trkpt lat="40.9030917" lon="14.2853767"><ele>84.0</ele><time>2026-04-04T07:03:37.009Z</time></trkpt><trkpt lat="40.9031683" lon="14.2853517"><ele>84.0</ele><time>2026-04-04T07:03:38.01Z</time></trkpt><trkpt lat="40.903235" lon="14.2853317"><ele>84.0</ele><time>2026-04-04T07:03:39.009Z</time></trkpt><trkpt lat="40.9033467" lon="14.28527"><ele>84.0</ele><time>2026-04-04T07:03:41.009Z</time></trkpt><trkpt lat="40.9034083" lon="14.2852467"><ele>84.0</ele><time>2026-04-04T07:03:42.01Z</time></trkpt><trkpt lat="40.9035283" lon="14.2852233"><ele>83.2</ele><time>2026-04-04T07:03:44.01Z</time></trkpt><trkpt lat="40.9036433" lon="14.2851917"><ele>82.4</ele><time>2026-04-04T07:03:46.009Z</time></trkpt><trkpt lat="40.9037067" lon="14.285175"><ele>81.6</ele><time>2026-04-04T07:03:47.01Z</time></trkpt><trkpt lat="40.9038283" lon="14.2851317"><ele>80.8</ele><time>2026-04-04T07:03:49.008Z</time></trkpt><trkpt lat="40.90396" lon="14.28509"><ele>80.0</ele><time>2026-04-04T07:03:51.009Z</time></trkpt><trkpt lat="40.9040383" lon="14.2850883"><ele>80.0</ele><time>2026-04-04T07:03:52.008Z</time></trkpt><trkpt lat="40.9041133" lon="14.2850733"><ele>80.0</ele><time>2026-04-04T07:03:53.012Z</time></trkpt><trkpt lat="40.90419" lon="14.2850817"><ele>80.0</ele><time>2026-04-04T07:03:54.008Z</time></trkpt><trkpt lat="40.9042567" lon="14.28508"><ele>80.0</ele><time>2026-04-04T07:03:55.011Z</time></trkpt><trkpt lat="40.904325" lon="14.2850667"><ele>80.0</ele><time>2026-04-04T07:03:56.008Z</time></trkpt><trkpt lat="40.9043933" lon="14.285055"><ele>80.0</ele><time>2026-04-04T07:03:57.008Z</time></trkpt><trkpt lat="40.90446" lon="14.2850467"><ele>80.0</ele><time>2026-04-04T07:03:58.009Z</time></trkpt><trkpt lat="40.9045267" lon="14.28503"><ele>79.83333333333334</ele><time>2026-04-04T07:03:59.008Z</time></trkpt><trkpt lat="40.9046467" lon="14.2849967"><ele>79.66666666666667</ele><time>2026-04-04T07:04:01.008Z</time></trkpt><trkpt lat="40.90471" lon="14.2849783"><ele>79.5</ele><time>2026-04-04T07:04:02.008Z</time></trkpt><trkpt lat="40.904775" lon="14.28496"><ele>79.33333333333333</ele><time>2026-04-04T07:04:03.009Z</time></trkpt><trkpt lat="40.9048433" lon="14.2849417"><ele>79.16666666666666</ele><time>2026-04-04T07:04:04.009Z</time></trkpt><trkpt lat="40.9049117" lon="14.2849217"><ele>79.0</ele><time>2026-04-04T07:04:05.009Z</time></trkpt><trkpt lat="40.9049733" lon="14.284895"><ele>79.0</ele><time>2026-04-04T07:04:06.008Z</time></trkpt><trkpt lat="40.90504" lon="14.2848717"><ele>79.0</ele><time>2026-04-04T07:04:07.009Z</time></trkpt><trkpt lat="40.9051083" lon="14.2848483"><ele>79.0</ele><time>2026-04-04T07:04:08.009Z</time></trkpt><trkpt lat="40.9051717" lon="14.2848283"><ele>79.0</ele><time>2026-04-04T07:04:09.009Z</time></trkpt><trkpt lat="40.9052367" lon="14.2848117"><ele>79.0</ele><time>2026-04-04T07:04:10.009Z</time></trkpt><trkpt lat="40.9053017" lon="14.2847933"><ele>79.0</ele><time>2026-04-04T07:04:11.01Z</time></trkpt><trkpt lat="40.9054283" lon="14.2847667"><ele>79.0</ele><time>2026-04-04T07:04:13.01Z</time></trkpt><trkpt lat="40.905495" lon="14.2847517"><ele>79.0</ele><time>2026-04-04T07:04:14.008Z</time></trkpt><trkpt lat="40.90556" lon="14.2847383"><ele>79.0</ele><time>2026-04-04T07:04:15.009Z</time></trkpt><trkpt lat="40.9056267" lon="14.284745"><ele>79.0</ele><time>2026-04-04T07:04:16.009Z</time></trkpt><trkpt lat="40.9056917" lon="14.2847583"><ele>79.0</ele><time>2026-04-04T07:04:17.009Z</time></trkpt><trkpt lat="40.905755" lon="14.2847617"><ele>79.0</ele><time>2026-04-04T07:04:18.01Z</time></trkpt><trkpt lat="40.905875" lon="14.2847683"><ele>78.83333333333333</ele><time>2026-04-04T07:04:20.008Z</time></trkpt><trkpt lat="40.9059383" lon="14.284785"><ele>78.66666666666666</ele><time>2026-04-04T07:04:21.008Z</time></trkpt><trkpt lat="40.9060033" lon="14.2848017"><ele>78.5</ele><time>2026-04-04T07:04:22.009Z</time></trkpt><trkpt lat="40.9060683" lon="14.284815"><ele>78.33333333333333</ele><time>2026-04-04T07:04:23.009Z</time></trkpt><trkpt lat="40.9061333" lon="14.284825"><ele>78.16666666666667</ele><time>2026-04-04T07:04:24.008Z</time></trkpt><trkpt lat="40.9061967" lon="14.2848383"><ele>78.0</ele><time>2026-04-04T07:04:25.009Z</time></trkpt><trkpt lat="40.906325" lon="14.2848683"><ele>78.0</ele><time>2026-04-04T07:04:27.009Z</time></trkpt><trkpt lat="40.90639" lon="14.2848867"><ele>78.0</ele><time>2026-04-04T07:04:28.01Z</time></trkpt><trkpt lat="40.9065133" lon="14.2849383"><ele>78.0</ele><time>2026-04-04T07:04:30.013Z</time></trkpt><trkpt lat="40.9066267" lon="14.2849883"><ele>78.0</ele><time>2026-04-04T07:04:32.01Z</time></trkpt><trkpt lat="40.90674" lon="14.2850583"><ele>78.0</ele><time>2026-04-04T07:04:34.009Z</time></trkpt><trkpt lat="40.90685" lon="14.2851367"><ele>77.42857142857143</ele><time>2026-04-04T07:04:36.01Z</time></trkpt><trkpt lat="40.906905" lon="14.2851817"><ele>76.85714285714285</ele><time>2026-04-04T07:04:37.01Z</time></trkpt><trkpt lat="40.90696" lon="14.2852267"><ele>76.28571428571428</ele><time>2026-04-04T07:04:38.01Z</time></trkpt><trkpt lat="40.9070167" lon="14.28527"><ele>75.71428571428572</ele><time>2026-04-04T07:04:39.01Z</time></trkpt><trkpt lat="40.9070733" lon="14.285315"><ele>75.14285714285714</ele><time>2026-04-04T07:04:40.009Z</time></trkpt><trkpt lat="40.9071283" lon="14.2853583"><ele>74.57142857142857</ele><time>2026-04-04T07:04:41.01Z</time></trkpt><trkpt lat="40.907185" lon="14.285405"><ele>74.0</ele><time>2026-04-04T07:04:42.009Z</time></trkpt><trkpt lat="40.90724" lon="14.2854533"><ele>74.0</ele><time>2026-04-04T07:04:43.01Z</time></trkpt><trkpt lat="40.907295" lon="14.2854967"><ele>74.0</ele><time>2026-04-04T07:04:44.011Z</time></trkpt><trkpt lat="40.9073517" lon="14.2855383"><ele>74.0</ele><time>2026-04-04T07:04:45.01Z</time></trkpt><trkpt lat="40.9074033" lon="14.2855883"><ele>74.0</ele><time>2026-04-04T07:04:46.008Z</time></trkpt><trkpt lat="40.9074567" lon="14.2856333"><ele>74.0</ele><time>2026-04-04T07:04:47.009Z</time></trkpt><trkpt lat="40.9075117" lon="14.2856817"><ele>74.0</ele><time>2026-04-04T07:04:48.011Z</time></trkpt><trkpt lat="40.90757" lon="14.2857283"><ele>74.0</ele><time>2026-04-04T07:04:49.01Z</time></trkpt><trkpt lat="40.9076317" lon="14.285775"><ele>73.16666666666667</ele><time>2026-04-04T07:04:50.01Z</time></trkpt><trkpt lat="40.9076933" lon="14.2858233"><ele>72.33333333333334</ele><time>2026-04-04T07:04:51.009Z</time></trkpt><trkpt lat="40.9077567" lon="14.2858733"><ele>71.5</ele><time>2026-04-04T07:04:52.009Z</time></trkpt><trkpt lat="40.9078183" lon="14.285925"><ele>70.66666666666667</ele><time>2026-04-04T07:04:53.011Z</time></trkpt><trkpt lat="40.9078833" lon="14.2859817"><ele>69.83333333333333</ele><time>2026-04-04T07:04:54.009Z</time></trkpt><trkpt lat="40.90795" lon="14.2860383"><ele>69.0</ele><time>2026-04-04T07:04:55.01Z</time></trkpt><trkpt lat="40.9080167" lon="14.2860933"><ele>69.0</ele><time>2026-04-04T07:04:56.01Z</time></trkpt><trkpt lat="40.90808" lon="14.2861533"><ele>69.0</ele><time>2026-04-04T07:04:57.01Z</time></trkpt><trkpt lat="40.908145" lon="14.2862117"><ele>69.0</ele><time>2026-04-04T07:04:58.01Z</time></trkpt><trkpt lat="40.9082117" lon="14.2862667"><ele>69.0</ele><time>2026-04-04T07:04:59.01Z</time></trkpt><trkpt lat="40.9082783" lon="14.286325"><ele>69.0</ele><time>2026-04-04T07:05:00.009Z</time></trkpt><trkpt lat="40.9083483" lon="14.2863817"><ele>69.0</ele><time>2026-04-04T07:05:01.011Z</time></trkpt><trkpt lat="40.9084217" lon="14.28643"><ele>69.16666666666667</ele><time>2026-04-04T07:05:02.011Z</time></trkpt><trkpt lat="40.9084883" lon="14.2864867"><ele>69.33333333333333</ele><time>2026-04-04T07:05:03.009Z</time></trkpt><trkpt lat="40.9085567" lon="14.286545"><ele>69.5</ele><time>2026-04-04T07:05:04.009Z</time></trkpt><trkpt lat="40.90863" lon="14.2866033"><ele>69.66666666666666</ele><time>2026-04-04T07:05:05.01Z</time></trkpt><trkpt lat="40.9087033" lon="14.2866633"><ele>69.83333333333333</ele><time>2026-04-04T07:05:06.011Z</time></trkpt><trkpt lat="40.9087767" lon="14.2867233"><ele>70.0</ele><time>2026-04-04T07:05:07.011Z</time></trkpt><trkpt lat="40.90885" lon="14.2867833"><ele>70.0</ele><time>2026-04-04T07:05:08.009Z</time></trkpt><trkpt lat="40.9089217" lon="14.2868433"><ele>70.0</ele><time>2026-04-04T07:05:09.011Z</time></trkpt><trkpt lat="40.9089917" lon="14.286905"><ele>70.0</ele><time>2026-04-04T07:05:10.01Z</time></trkpt><trkpt lat="40.9090633" lon="14.2869667"><ele>70.0</ele><time>2026-04-04T07:05:11.009Z</time></trkpt><trkpt lat="40.90913" lon="14.2870317"><ele>70.0</ele><time>2026-04-04T07:05:12.01Z</time></trkpt><trkpt lat="40.9091967" lon="14.2870967"><ele>70.0</ele><time>2026-04-04T07:05:13.01Z</time></trkpt><trkpt lat="40.9092667" lon="14.2871567"><ele>69.83333333333333</ele><time>2026-04-04T07:05:14.01Z</time></trkpt><trkpt lat="40.909335" lon="14.2872183"><ele>69.66666666666666</ele><time>2026-04-04T07:05:15.01Z</time></trkpt><trkpt lat="40.9094083" lon="14.2872817"><ele>69.5</ele><time>2026-04-04T07:05:16.011Z</time></trkpt><trkpt lat="40.90948" lon="14.2873517"><ele>69.33333333333333</ele><time>2026-04-04T07:05:17.01Z</time></trkpt><trkpt lat="40.9095583" lon="14.28741"><ele>69.16666666666667</ele><time>2026-04-04T07:05:18.011Z</time></trkpt><trkpt lat="40.909635" lon="14.2874683"><ele>69.0</ele><time>2026-04-04T07:05:19.008Z</time></trkpt><trkpt lat="40.9097133" lon="14.287525"><ele>68.83333333333333</ele><time>2026-04-04T07:05:20.01Z</time></trkpt><trkpt lat="40.90979" lon="14.2875817"><ele>68.66666666666667</ele><time>2026-04-04T07:05:21.011Z</time></trkpt><trkpt lat="40.9098667" lon="14.287635"><ele>68.5</ele><time>2026-04-04T07:05:22.009Z</time></trkpt><trkpt lat="40.9099433" lon="14.2876917"><ele>68.33333333333334</ele><time>2026-04-04T07:05:23.009Z</time></trkpt><trkpt lat="40.9100183" lon="14.2877517"><ele>68.16666666666667</ele><time>2026-04-04T07:05:24.01Z</time></trkpt><trkpt lat="40.910095" lon="14.28781"><ele>68.0</ele><time>2026-04-04T07:05:25.011Z</time></trkpt><trkpt lat="40.91017" lon="14.2878583"><ele>67.5</ele><time>2026-04-04T07:05:26.008Z</time></trkpt><trkpt lat="40.9102367" lon="14.2879033"><ele>67.0</ele><time>2026-04-04T07:05:27.009Z</time></trkpt><trkpt lat="40.9103033" lon="14.287955"><ele>66.5</ele><time>2026-04-04T07:05:28.009Z</time></trkpt><trkpt lat="40.9103683" lon="14.288015"><ele>66.0</ele><time>2026-04-04T07:05:29.01Z</time></trkpt><trkpt lat="40.9104267" lon="14.2880817"><ele>65.5</ele><time>2026-04-04T07:05:30.01Z</time></trkpt><trkpt lat="40.9104883" lon="14.2881483"><ele>65.0</ele><time>2026-04-04T07:05:31.01Z</time></trkpt><trkpt lat="40.910555" lon="14.2882083"><ele>65.0</ele><time>2026-04-04T07:05:32.009Z</time></trkpt><trkpt lat="40.9106283" lon="14.2882633"><ele>65.0</ele><time>2026-04-04T07:05:33.009Z</time></trkpt><trkpt lat="40.9107" lon="14.2883167"><ele>65.0</ele><time>2026-04-04T07:05:34.008Z</time></trkpt><trkpt lat="40.9107733" lon="14.28837"><ele>65.0</ele><time>2026-04-04T07:05:35.011Z</time></trkpt><trkpt lat="40.910845" lon="14.2884267"><ele>65.0</ele><time>2026-04-04T07:05:36.01Z</time></trkpt><trkpt lat="40.9109183" lon="14.288485"><ele>65.0</ele><time>2026-04-04T07:05:37.01Z</time></trkpt><trkpt lat="40.9109917" lon="14.288545"><ele>64.6</ele><time>2026-04-04T07:05:38.011Z</time></trkpt><trkpt lat="40.9110667" lon="14.2886067"><ele>64.2</ele><time>2026-04-04T07:05:39.008Z</time></trkpt><trkpt lat="40.9111433" lon="14.28867"><ele>63.8</ele><time>2026-04-04T07:05:40.009Z</time></trkpt><trkpt lat="40.9112217" lon="14.2887333"><ele>63.4</ele><time>2026-04-04T07:05:41.01Z</time></trkpt><trkpt lat="40.9113" lon="14.2887983"><ele>63.0</ele><time>2026-04-04T07:05:42.009Z</time></trkpt><trkpt lat="40.91138" lon="14.28886"><ele>63.0</ele><time>2026-04-04T07:05:43.008Z</time></trkpt><trkpt lat="40.9114567" lon="14.28892"><ele>63.0</ele><time>2026-04-04T07:05:44.01Z</time></trkpt><trkpt lat="40.911525" lon="14.28897"><ele>63.0</ele><time>2026-04-04T07:05:45.009Z</time></trkpt><trkpt lat="40.91159" lon="14.289015"><ele>63.0</ele><time>2026-04-04T07:05:46.009Z</time></trkpt><trkpt lat="40.9116567" lon="14.28906"><ele>63.0</ele><time>2026-04-04T07:05:47.01Z</time></trkpt><trkpt lat="40.9117233" lon="14.2891133"><ele>63.0</ele><time>2026-04-04T07:05:48.01Z</time></trkpt><trkpt lat="40.91179" lon="14.2891717"><ele>63.0</ele><time>2026-04-04T07:05:49.008Z</time></trkpt><trkpt lat="40.911855" lon="14.2892317"><ele>63.0</ele><time>2026-04-04T07:05:50.01Z</time></trkpt><trkpt lat="40.911925" lon="14.2892983"><ele>63.0</ele><time>2026-04-04T07:05:51.009Z</time></trkpt><trkpt lat="40.9119967" lon="14.2893667"><ele>63.0</ele><time>2026-04-04T07:05:52.009Z</time></trkpt><trkpt lat="40.9120717" lon="14.289435"><ele>63.0</ele><time>2026-04-04T07:05:53.01Z</time></trkpt><trkpt lat="40.9121467" lon="14.2895017"><ele>63.0</ele><time>2026-04-04T07:05:54.01Z</time></trkpt><trkpt lat="40.9122233" lon="14.2895667"><ele>63.0</ele><time>2026-04-04T07:05:55.01Z</time></trkpt><trkpt lat="40.912295" lon="14.2896333"><ele>63.0</ele><time>2026-04-04T07:05:56.01Z</time></trkpt><trkpt lat="40.912365" lon="14.289695"><ele>63.0</ele><time>2026-04-04T07:05:57.01Z</time></trkpt><trkpt lat="40.9124383" lon="14.289755"><ele>63.0</ele><time>2026-04-04T07:05:58.009Z</time></trkpt><trkpt lat="40.9125117" lon="14.2898167"><ele>63.0</ele><time>2026-04-04T07:05:59.01Z</time></trkpt><trkpt lat="40.9125833" lon="14.28986"><ele>63.0</ele><time>2026-04-04T07:06:00.01Z</time></trkpt><trkpt lat="40.912655" lon="14.2899083"><ele>63.0</ele><time>2026-04-04T07:06:01.01Z</time></trkpt><trkpt lat="40.912725" lon="14.2899633"><ele>63.0</ele><time>2026-04-04T07:06:02.011Z</time></trkpt><trkpt lat="40.9127983" lon="14.2900167"><ele>63.0</ele><time>2026-04-04T07:06:03.01Z</time></trkpt><trkpt lat="40.9128717" lon="14.2900717"><ele>63.0</ele><time>2026-04-04T07:06:04.01Z</time></trkpt><trkpt lat="40.912945" lon="14.2901217"><ele>63.0</ele><time>2026-04-04T07:06:05.01Z</time></trkpt><trkpt lat="40.9130183" lon="14.2901717"><ele>63.0</ele><time>2026-04-04T07:06:06.01Z</time></trkpt><trkpt lat="40.9130933" lon="14.290215"><ele>63.0</ele><time>2026-04-04T07:06:07.01Z</time></trkpt><trkpt lat="40.9131667" lon="14.2902583"><ele>63.0</ele><time>2026-04-04T07:06:08.011Z</time></trkpt><trkpt lat="40.9132383" lon="14.290305"><ele>63.0</ele><time>2026-04-04T07:06:09.009Z</time></trkpt><trkpt lat="40.9133133" lon="14.29034"><ele>63.0</ele><time>2026-04-04T07:06:10.01Z</time></trkpt><trkpt lat="40.91339" lon="14.2903767"><ele>63.0</ele><time>2026-04-04T07:06:11.011Z</time></trkpt><trkpt lat="40.913465" lon="14.29041"><ele>63.0</ele><time>2026-04-04T07:06:12.01Z</time></trkpt><trkpt lat="40.9135417" lon="14.290445"><ele>62.833333333333336</ele><time>2026-04-04T07:06:13.01Z</time></trkpt><trkpt lat="40.9136183" lon="14.2904767"><ele>62.66666666666667</ele><time>2026-04-04T07:06:14.012Z</time></trkpt><trkpt lat="40.9136917" lon="14.290505"><ele>62.5</ele><time>2026-04-04T07:06:15.009Z</time></trkpt><trkpt lat="40.91377" lon="14.2905267"><ele>62.333333333333336</ele><time>2026-04-04T07:06:16.011Z</time></trkpt><trkpt lat="40.9138483" lon="14.2905483"><ele>62.16666666666667</ele><time>2026-04-04T07:06:17.011Z</time></trkpt><trkpt lat="40.913925" lon="14.2905717"><ele>62.0</ele><time>2026-04-04T07:06:18.009Z</time></trkpt><trkpt lat="40.914" lon="14.2905967"><ele>61.50000000000001</ele><time>2026-04-04T07:06:19.01Z</time></trkpt><trkpt lat="40.9140783" lon="14.2906167"><ele>61.0</ele><time>2026-04-04T07:06:20.01Z</time></trkpt><trkpt lat="40.9141517" lon="14.2906317"><ele>60.5</ele><time>2026-04-04T07:06:21.01Z</time></trkpt><trkpt lat="40.914225" lon="14.2906433"><ele>60.0</ele><time>2026-04-04T07:06:22.009Z</time></trkpt><trkpt lat="40.9143017" lon="14.2906483"><ele>59.50000000000001</ele><time>2026-04-04T07:06:23.009Z</time></trkpt><trkpt lat="40.9143783" lon="14.2906533"><ele>59.0</ele><time>2026-04-04T07:06:24.01Z</time></trkpt><trkpt lat="40.9144533" lon="14.2906567"><ele>59.00000000000001</ele><time>2026-04-04T07:06:25.01Z</time></trkpt><trkpt lat="40.91453" lon="14.2906533"><ele>59.0</ele><time>2026-04-04T07:06:26.01Z</time></trkpt><trkpt lat="40.9146067" lon="14.2906467"><ele>59.0</ele><time>2026-04-04T07:06:27.01Z</time></trkpt><trkpt lat="40.91468" lon="14.2906417"><ele>59.0</ele><time>2026-04-04T07:06:28.008Z</time></trkpt><trkpt lat="40.9147567" lon="14.2906367"><ele>59.00000000000001</ele><time>2026-04-04T07:06:29.008Z</time></trkpt><trkpt lat="40.9148367" lon="14.29063"><ele>59.0</ele><time>2026-04-04T07:06:30.011Z</time></trkpt><trkpt lat="40.91491" lon="14.2906283"><ele>59.00000000000001</ele><time>2026-04-04T07:06:31.009Z</time></trkpt><trkpt lat="40.9149883" lon="14.2906267"><ele>59.0</ele><time>2026-04-04T07:06:32.011Z</time></trkpt><trkpt lat="40.9150683" lon="14.2906183"><ele>59.0</ele><time>2026-04-04T07:06:33.012Z</time></trkpt><trkpt lat="40.9151483" lon="14.2906117"><ele>59.0</ele><time>2026-04-04T07:06:34.01Z</time></trkpt><trkpt lat="40.9152267" lon="14.2906083"><ele>59.00000000000001</ele><time>2026-04-04T07:06:35.009Z</time></trkpt><trkpt lat="40.915305" lon="14.2906017"><ele>59.0</ele><time>2026-04-04T07:06:36.01Z</time></trkpt><trkpt lat="40.9153817" lon="14.290595"><ele>59.00000000000001</ele><time>2026-04-04T07:06:37.01Z</time></trkpt><trkpt lat="40.91546" lon="14.2905933"><ele>59.0</ele><time>2026-04-04T07:06:38.01Z</time></trkpt><trkpt lat="40.915535" lon="14.290595"><ele>59.0</ele><time>2026-04-04T07:06:39.009Z</time></trkpt><trkpt lat="40.9156067" lon="14.2905967"><ele>59.0</ele><time>2026-04-04T07:06:40.009Z</time></trkpt><trkpt lat="40.9156833" lon="14.290605"><ele>59.00000000000001</ele><time>2026-04-04T07:06:41.011Z</time></trkpt><trkpt lat="40.9157567" lon="14.29061"><ele>59.0</ele><time>2026-04-04T07:06:42.01Z</time></trkpt><trkpt lat="40.915835" lon="14.29062"><ele>58.71428571428571</ele><time>2026-04-04T07:06:43.009Z</time></trkpt><trkpt lat="40.9159083" lon="14.29063"><ele>58.42857142857143</ele><time>2026-04-04T07:06:44.011Z</time></trkpt><trkpt lat="40.9159817" lon="14.290645"><ele>58.14285714285714</ele><time>2026-04-04T07:06:45.011Z</time></trkpt><trkpt lat="40.91605" lon="14.2906683"><ele>57.857142857142854</ele><time>2026-04-04T07:06:46.011Z</time></trkpt><trkpt lat="40.9161183" lon="14.2907"><ele>57.57142857142857</ele><time>2026-04-04T07:06:47.011Z</time></trkpt><trkpt lat="40.9161883" lon="14.2907383"><ele>57.285714285714285</ele><time>2026-04-04T07:06:48.009Z</time></trkpt><trkpt lat="40.9162617" lon="14.290775"><ele>57.0</ele><time>2026-04-04T07:06:49.009Z</time></trkpt><trkpt lat="40.9163333" lon="14.29081"><ele>57.0</ele><time>2026-04-04T07:06:50.011Z</time></trkpt><trkpt lat="40.916405" lon="14.29085"><ele>57.0</ele><time>2026-04-04T07:06:51.011Z</time></trkpt><trkpt lat="40.9164767" lon="14.29089"><ele>57.0</ele><time>2026-04-04T07:06:52.008Z</time></trkpt><trkpt lat="40.91655" lon="14.2909267"><ele>57.0</ele><time>2026-04-04T07:06:53.009Z</time></trkpt><trkpt lat="40.91662" lon="14.2909667"><ele>57.0</ele><time>2026-04-04T07:06:54.01Z</time></trkpt><trkpt lat="40.9166933" lon="14.2910083"><ele>57.0</ele><time>2026-04-04T07:06:55.01Z</time></trkpt><trkpt lat="40.916765" lon="14.2910533"><ele>57.0</ele><time>2026-04-04T07:06:56.011Z</time></trkpt><trkpt lat="40.916835" lon="14.2910967"><ele>57.0</ele><time>2026-04-04T07:06:57.009Z</time></trkpt><trkpt lat="40.9169067" lon="14.2911383"><ele>57.0</ele><time>2026-04-04T07:06:58.008Z</time></trkpt><trkpt lat="40.91698" lon="14.2911833"><ele>57.0</ele><time>2026-04-04T07:06:59.009Z</time></trkpt><trkpt lat="40.9170517" lon="14.2912283"><ele>57.0</ele><time>2026-04-04T07:07:00.008Z</time></trkpt><trkpt lat="40.9171217" lon="14.2912683"><ele>57.0</ele><time>2026-04-04T07:07:01.01Z</time></trkpt><trkpt lat="40.9171917" lon="14.29131"><ele>57.0</ele><time>2026-04-04T07:07:02.009Z</time></trkpt><trkpt lat="40.91726" lon="14.2913567"><ele>57.0</ele><time>2026-04-04T07:07:03.009Z</time></trkpt><trkpt lat="40.9173267" lon="14.2914033"><ele>57.0</ele><time>2026-04-04T07:07:04.01Z</time></trkpt><trkpt lat="40.917395" lon="14.29145"><ele>57.0</ele><time>2026-04-04T07:07:05.009Z</time></trkpt><trkpt lat="40.91746" lon="14.2915"><ele>57.0</ele><time>2026-04-04T07:07:06.01Z</time></trkpt><trkpt lat="40.9175317" lon="14.2915467"><ele>57.0</ele><time>2026-04-04T07:07:07.01Z</time></trkpt><trkpt lat="40.9176033" lon="14.29159"><ele>56.666666666666664</ele><time>2026-04-04T07:07:08.009Z</time></trkpt><trkpt lat="40.9176783" lon="14.291635"><ele>56.33333333333333</ele><time>2026-04-04T07:07:09.01Z</time></trkpt><trkpt lat="40.9177483" lon="14.2916783"><ele>56.0</ele><time>2026-04-04T07:07:10.009Z</time></trkpt><trkpt lat="40.9178183" lon="14.291725"><ele>55.666666666666664</ele><time>2026-04-04T07:07:11.009Z</time></trkpt><trkpt lat="40.9178883" lon="14.2917717"><ele>55.33333333333333</ele><time>2026-04-04T07:07:12.009Z</time></trkpt><trkpt lat="40.9179583" lon="14.2918167"><ele>55.0</ele><time>2026-04-04T07:07:13.011Z</time></trkpt><trkpt lat="40.9180317" lon="14.2918533"><ele>54.99999999999999</ele><time>2026-04-04T07:07:14.01Z</time></trkpt><trkpt lat="40.918105" lon="14.2918883"><ele>55.0</ele><time>2026-04-04T07:07:15.011Z</time></trkpt><trkpt lat="40.91818" lon="14.2919233"><ele>55.0</ele><time>2026-04-04T07:07:16.01Z</time></trkpt><trkpt lat="40.9182567" lon="14.2919567"><ele>55.0</ele><time>2026-04-04T07:07:17.011Z</time></trkpt><trkpt lat="40.918335" lon="14.29199"><ele>54.99999999999999</ele><time>2026-04-04T07:07:18.011Z</time></trkpt><trkpt lat="40.9184117" lon="14.292025"><ele>55.0</ele><time>2026-04-04T07:07:19.011Z</time></trkpt><trkpt lat="40.918485" lon="14.292055"><ele>54.99999999999999</ele><time>2026-04-04T07:07:20.009Z</time></trkpt><trkpt lat="40.91856" lon="14.292085"><ele>55.0</ele><time>2026-04-04T07:07:21.009Z</time></trkpt><trkpt lat="40.9186333" lon="14.292115"><ele>55.0</ele><time>2026-04-04T07:07:22.011Z</time></trkpt><trkpt lat="40.9187067" lon="14.2921467"><ele>55.0</ele><time>2026-04-04T07:07:23.009Z</time></trkpt><trkpt lat="40.9187833" lon="14.2921767"><ele>54.99999999999999</ele><time>2026-04-04T07:07:24.01Z</time></trkpt><trkpt lat="40.9188583" lon="14.2922083"><ele>55.0</ele><time>2026-04-04T07:07:25.009Z</time></trkpt><trkpt lat="40.91893" lon="14.2922417"><ele>54.99999999999999</ele><time>2026-04-04T07:07:26.01Z</time></trkpt><trkpt lat="40.9190033" lon="14.2922717"><ele>55.0</ele><time>2026-04-04T07:07:27.009Z</time></trkpt><trkpt lat="40.9190767" lon="14.2922983"><ele>55.0</ele><time>2026-04-04T07:07:28.01Z</time></trkpt><trkpt lat="40.9191483" lon="14.2923267"><ele>55.0</ele><time>2026-04-04T07:07:29.008Z</time></trkpt><trkpt lat="40.9192217" lon="14.2923517"><ele>54.99999999999999</ele><time>2026-04-04T07:07:30.01Z</time></trkpt><trkpt lat="40.9192983" lon="14.2923917"><ele>55.0</ele><time>2026-04-04T07:07:31.01Z</time></trkpt><trkpt lat="40.9193733" lon="14.29243"><ele>54.666666666666664</ele><time>2026-04-04T07:07:32.01Z</time></trkpt><trkpt lat="40.9194417" lon="14.292475"><ele>54.33333333333333</ele><time>2026-04-04T07:07:33.009Z</time></trkpt><trkpt lat="40.91951" lon="14.29252"><ele>54.0</ele><time>2026-04-04T07:07:34.01Z</time></trkpt><trkpt lat="40.9195767" lon="14.29257"><ele>53.66666666666667</ele><time>2026-04-04T07:07:35.009Z</time></trkpt><trkpt lat="40.9196383" lon="14.29263"><ele>53.333333333333336</ele><time>2026-04-04T07:07:36.01Z</time></trkpt><trkpt lat="40.9197" lon="14.29269"><ele>53.0</ele><time>2026-04-04T07:07:37.009Z</time></trkpt><trkpt lat="40.919765" lon="14.29275"><ele>53.0</ele><time>2026-04-04T07:07:38.011Z</time></trkpt><trkpt lat="40.9198283" lon="14.2928117"><ele>53.0</ele><time>2026-04-04T07:07:39.009Z</time></trkpt><trkpt lat="40.9198883" lon="14.2928783"><ele>53.0</ele><time>2026-04-04T07:07:40.01Z</time></trkpt><trkpt lat="40.9199367" lon="14.2929567"><ele>53.0</ele><time>2026-04-04T07:07:41.009Z</time></trkpt><trkpt lat="40.9199717" lon="14.29304"><ele>53.0</ele><time>2026-04-04T07:07:42.009Z</time></trkpt><trkpt lat="40.9199883" lon="14.2931267"><ele>53.0</ele><time>2026-04-04T07:07:43.009Z</time></trkpt><trkpt lat="40.9200017" lon="14.29321"><ele>53.0</ele><time>2026-04-04T07:07:44.009Z</time></trkpt><trkpt lat="40.9200267" lon="14.2932867"><ele>53.0</ele><time>2026-04-04T07:07:45.009Z</time></trkpt><trkpt lat="40.92007" lon="14.2933483"><ele>53.0</ele><time>2026-04-04T07:07:46.009Z</time></trkpt><trkpt lat="40.92013" lon="14.2933917"><ele>53.0</ele><time>2026-04-04T07:07:47.011Z</time></trkpt><trkpt lat="40.9201967" lon="14.2934133"><ele>53.0</ele><time>2026-04-04T07:07:48.009Z</time></trkpt><trkpt lat="40.9202683" lon="14.2934217"><ele>53.0</ele><time>2026-04-04T07:07:49.01Z</time></trkpt><trkpt lat="40.9203433" lon="14.2934367"><ele>53.0</ele><time>2026-04-04T07:07:50.009Z</time></trkpt><trkpt lat="40.9204167" lon="14.293465"><ele>53.0</ele><time>2026-04-04T07:07:51.011Z</time></trkpt><trkpt lat="40.9204867" lon="14.29351"><ele>53.00000000000001</ele><time>2026-04-04T07:07:52.008Z</time></trkpt><trkpt lat="40.920555" lon="14.2935717"><ele>53.0</ele><time>2026-04-04T07:07:53.012Z</time></trkpt><trkpt lat="40.9206267" lon="14.2936267"><ele>53.0</ele><time>2026-04-04T07:07:54.008Z</time></trkpt><trkpt lat="40.9206983" lon="14.293685"><ele>53.0</ele><time>2026-04-04T07:07:55.01Z</time></trkpt><trkpt lat="40.92077" lon="14.293735"><ele>53.00000000000001</ele><time>2026-04-04T07:07:56.009Z</time></trkpt><trkpt lat="40.9208467" lon="14.2937817"><ele>53.0</ele><time>2026-04-04T07:07:57.009Z</time></trkpt><trkpt lat="40.9209217" lon="14.293825"><ele>52.833333333333336</ele><time>2026-04-04T07:07:58.009Z</time></trkpt><trkpt lat="40.921" lon="14.2938633"><ele>52.66666666666667</ele><time>2026-04-04T07:07:59.01Z</time></trkpt><trkpt lat="40.92108" lon="14.2939017"><ele>52.5</ele><time>2026-04-04T07:08:00.012Z</time></trkpt><trkpt lat="40.9211583" lon="14.29394"><ele>52.33333333333333</ele><time>2026-04-04T07:08:01.011Z</time></trkpt><trkpt lat="40.9212367" lon="14.293975"><ele>52.166666666666664</ele><time>2026-04-04T07:08:02.011Z</time></trkpt><trkpt lat="40.9213167" lon="14.2940083"><ele>52.0</ele><time>2026-04-04T07:08:03.011Z</time></trkpt><trkpt lat="40.9214" lon="14.2940433"><ele>51.99999999999999</ele><time>2026-04-04T07:08:04.011Z</time></trkpt><trkpt lat="40.9214817" lon="14.29408"><ele>52.0</ele><time>2026-04-04T07:08:05.01Z</time></trkpt><trkpt lat="40.9215633" lon="14.294115"><ele>52.0</ele><time>2026-04-04T07:08:06.008Z</time></trkpt><trkpt lat="40.9216467" lon="14.29415"><ele>52.0</ele><time>2026-04-04T07:08:07.009Z</time></trkpt><trkpt lat="40.9217317" lon="14.294185"><ele>51.99999999999999</ele><time>2026-04-04T07:08:08.009Z</time></trkpt><trkpt lat="40.9218133" lon="14.2942167"><ele>52.0</ele><time>2026-04-04T07:08:09.01Z</time></trkpt><trkpt lat="40.921895" lon="14.29425"><ele>51.83333333333333</ele><time>2026-04-04T07:08:10.01Z</time></trkpt><trkpt lat="40.9219783" lon="14.294285"><ele>51.666666666666664</ele><time>2026-04-04T07:08:11.01Z</time></trkpt><trkpt lat="40.92206" lon="14.29432"><ele>51.5</ele><time>2026-04-04T07:08:12.009Z</time></trkpt><trkpt lat="40.92214" lon="14.2943517"><ele>51.33333333333333</ele><time>2026-04-04T07:08:13.01Z</time></trkpt><trkpt lat="40.92222" lon="14.294385"><ele>51.166666666666664</ele><time>2026-04-04T07:08:14.009Z</time></trkpt><trkpt lat="40.922305" lon="14.29442"><ele>51.0</ele><time>2026-04-04T07:08:15.009Z</time></trkpt><trkpt lat="40.9223883" lon="14.2944567"><ele>51.0</ele><time>2026-04-04T07:08:16.009Z</time></trkpt><trkpt lat="40.9224683" lon="14.294495"><ele>51.0</ele><time>2026-04-04T07:08:17.009Z</time></trkpt><trkpt lat="40.9225433" lon="14.2945417"><ele>51.0</ele><time>2026-04-04T07:08:18.011Z</time></trkpt><trkpt lat="40.9226167" lon="14.2945983"><ele>51.0</ele><time>2026-04-04T07:08:19.009Z</time></trkpt><trkpt lat="40.9226883" lon="14.294665"><ele>51.0</ele><time>2026-04-04T07:08:20.009Z</time></trkpt><trkpt lat="40.9227517" lon="14.2947433"><ele>51.0</ele><time>2026-04-04T07:08:21.011Z</time></trkpt><trkpt lat="40.9228117" lon="14.29483"><ele>50.833333333333336</ele><time>2026-04-04T07:08:22.008Z</time></trkpt><trkpt lat="40.9228667" lon="14.2949183"><ele>50.66666666666667</ele><time>2026-04-04T07:08:23.01Z</time></trkpt><trkpt lat="40.9229217" lon="14.2950067"><ele>50.5</ele><time>2026-04-04T07:08:24.01Z</time></trkpt><trkpt lat="40.9229767" lon="14.295095"><ele>50.333333333333336</ele><time>2026-04-04T07:08:25.009Z</time></trkpt><trkpt lat="40.92303" lon="14.2951867"><ele>50.16666666666667</ele><time>2026-04-04T07:08:26.01Z</time></trkpt><trkpt lat="40.9230833" lon="14.295275"><ele>50.0</ele><time>2026-04-04T07:08:27.009Z</time></trkpt><trkpt lat="40.9231333" lon="14.295365"><ele>50.00000000000001</ele><time>2026-04-04T07:08:28.009Z</time></trkpt><trkpt lat="40.9231833" lon="14.2954583"><ele>50.0</ele><time>2026-04-04T07:08:29.01Z</time></trkpt><trkpt lat="40.9232317" lon="14.2955517"><ele>50.0</ele><time>2026-04-04T07:08:30.01Z</time></trkpt><trkpt lat="40.923285" lon="14.2956417"><ele>50.0</ele><time>2026-04-04T07:08:31.011Z</time></trkpt><trkpt lat="40.9233367" lon="14.2957283"><ele>50.00000000000001</ele><time>2026-04-04T07:08:32.009Z</time></trkpt><trkpt lat="40.92339" lon="14.2958183"><ele>50.0</ele><time>2026-04-04T07:08:33.007Z</time></trkpt><trkpt lat="40.9234433" lon="14.2959067"><ele>49.50000000000001</ele><time>2026-04-04T07:08:34.008Z</time></trkpt><trkpt lat="40.9234967" lon="14.2959967"><ele>49.0</ele><time>2026-04-04T07:08:35.009Z</time></trkpt><trkpt lat="40.9235483" lon="14.2960833"><ele>48.5</ele><time>2026-04-04T07:08:36.008Z</time></trkpt><trkpt lat="40.9236" lon="14.2961733"><ele>48.0</ele><time>2026-04-04T07:08:37.008Z</time></trkpt><trkpt lat="40.9236517" lon="14.2962633"><ele>47.5</ele><time>2026-04-04T07:08:38.009Z</time></trkpt><trkpt lat="40.9236967" lon="14.2963483"><ele>47.0</ele><time>2026-04-04T07:08:39.009Z</time></trkpt><trkpt lat="40.923745" lon="14.296435"><ele>47.0</ele><time>2026-04-04T07:08:40.01Z</time></trkpt><trkpt lat="40.9237933" lon="14.2965183"><ele>47.0</ele><time>2026-04-04T07:08:41.011Z</time></trkpt><trkpt lat="40.9238417" lon="14.2965983"><ele>47.0</ele><time>2026-04-04T07:08:42.009Z</time></trkpt><trkpt lat="40.923895" lon="14.2966817"><ele>47.0</ele><time>2026-04-04T07:08:43.007Z</time></trkpt><trkpt lat="40.923945" lon="14.29676"><ele>47.0</ele><time>2026-04-04T07:08:44.008Z</time></trkpt><trkpt lat="40.9239983" lon="14.2968417"><ele>47.0</ele><time>2026-04-04T07:08:45.009Z</time></trkpt><trkpt lat="40.9240483" lon="14.2969233"><ele>47.0</ele><time>2026-04-04T07:08:46.007Z</time></trkpt><trkpt lat="40.9240933" lon="14.2970067"><ele>47.0</ele><time>2026-04-04T07:08:47.01Z</time></trkpt><trkpt lat="40.9241417" lon="14.2970883"><ele>47.0</ele><time>2026-04-04T07:08:48.008Z</time></trkpt><trkpt lat="40.9241933" lon="14.2971717"><ele>47.0</ele><time>2026-04-04T07:08:49.009Z</time></trkpt><trkpt lat="40.9242433" lon="14.2972567"><ele>47.0</ele><time>2026-04-04T07:08:50.009Z</time></trkpt><trkpt lat="40.9242933" lon="14.2973433"><ele>47.0</ele><time>2026-04-04T07:08:51.01Z</time></trkpt><trkpt lat="40.9243483" lon="14.29743"><ele>46.83333333333333</ele><time>2026-04-04T07:08:52.011Z</time></trkpt><trkpt lat="40.9244" lon="14.2975167"><ele>46.666666666666664</ele><time>2026-04-04T07:08:53.011Z</time></trkpt><trkpt lat="40.9244533" lon="14.2976"><ele>46.5</ele><time>2026-04-04T07:08:54.01Z</time></trkpt><trkpt lat="40.9245067" lon="14.2976783"><ele>46.333333333333336</ele><time>2026-04-04T07:08:55.011Z</time></trkpt><trkpt lat="40.9245583" lon="14.2977583"><ele>46.16666666666667</ele><time>2026-04-04T07:08:56.009Z</time></trkpt><trkpt lat="40.924605" lon="14.2978433"><ele>46.0</ele><time>2026-04-04T07:08:57.011Z</time></trkpt><trkpt lat="40.9246517" lon="14.2979217"><ele>46.0</ele><time>2026-04-04T07:08:58.011Z</time></trkpt><trkpt lat="40.9247" lon="14.2979933"><ele>46.0</ele><time>2026-04-04T07:08:59.009Z</time></trkpt><trkpt lat="40.924755" lon="14.298065"><ele>46.0</ele><time>2026-04-04T07:09:00.009Z</time></trkpt><trkpt lat="40.92481" lon="14.298135"><ele>46.0</ele><time>2026-04-04T07:09:01.009Z</time></trkpt><trkpt lat="40.92487" lon="14.2982017"><ele>46.0</ele><time>2026-04-04T07:09:02.01Z</time></trkpt><trkpt lat="40.92493" lon="14.2982667"><ele>46.0</ele><time>2026-04-04T07:09:03.009Z</time></trkpt><trkpt lat="40.9249917" lon="14.298325"><ele>46.0</ele><time>2026-04-04T07:09:04.011Z</time></trkpt><trkpt lat="40.9250567" lon="14.2983817"><ele>46.0</ele><time>2026-04-04T07:09:05.01Z</time></trkpt><trkpt lat="40.92512" lon="14.298435"><ele>46.0</ele><time>2026-04-04T07:09:06.011Z</time></trkpt><trkpt lat="40.925185" lon="14.2984883"><ele>46.0</ele><time>2026-04-04T07:09:07.011Z</time></trkpt><trkpt lat="40.9252517" lon="14.2985383"><ele>46.0</ele><time>2026-04-04T07:09:08.009Z</time></trkpt><trkpt lat="40.92532" lon="14.29858"><ele>46.0</ele><time>2026-04-04T07:09:09.01Z</time></trkpt><trkpt lat="40.92539" lon="14.2986133"><ele>46.16666666666667</ele><time>2026-04-04T07:09:10.01Z</time></trkpt><trkpt lat="40.9254633" lon="14.2986383"><ele>46.333333333333336</ele><time>2026-04-04T07:09:11.011Z</time></trkpt><trkpt lat="40.9255367" lon="14.2986533"><ele>46.5</ele><time>2026-04-04T07:09:12.008Z</time></trkpt><trkpt lat="40.92561" lon="14.298665"><ele>46.666666666666664</ele><time>2026-04-04T07:09:13.01Z</time></trkpt><trkpt lat="40.9256867" lon="14.2986783"><ele>46.83333333333333</ele><time>2026-04-04T07:09:14.01Z</time></trkpt><trkpt lat="40.9257633" lon="14.2986883"><ele>47.0</ele><time>2026-04-04T07:09:15.012Z</time></trkpt><trkpt lat="40.92584" lon="14.2986933"><ele>46.666666666666664</ele><time>2026-04-04T07:09:16.008Z</time></trkpt><trkpt lat="40.925915" lon="14.2987017"><ele>46.33333333333333</ele><time>2026-04-04T07:09:17.008Z</time></trkpt><trkpt lat="40.92599" lon="14.2987117"><ele>46.0</ele><time>2026-04-04T07:09:18.01Z</time></trkpt><trkpt lat="40.9260617" lon="14.29871"><ele>45.666666666666664</ele><time>2026-04-04T07:09:19.01Z</time></trkpt><trkpt lat="40.92614" lon="14.29871"><ele>45.333333333333336</ele><time>2026-04-04T07:09:20.012Z</time></trkpt><trkpt lat="40.926215" lon="14.29871"><ele>45.0</ele><time>2026-04-04T07:09:21.009Z</time></trkpt><trkpt lat="40.9262917" lon="14.2987133"><ele>45.0</ele><time>2026-04-04T07:09:22.01Z</time></trkpt><trkpt lat="40.9263733" lon="14.2987133"><ele>45.0</ele><time>2026-04-04T07:09:23.009Z</time></trkpt><trkpt lat="40.926445" lon="14.298695"><ele>45.0</ele><time>2026-04-04T07:09:24.01Z</time></trkpt><trkpt lat="40.9265233" lon="14.29869"><ele>45.0</ele><time>2026-04-04T07:09:25.01Z</time></trkpt><trkpt lat="40.9265983" lon="14.2986967"><ele>45.0</ele><time>2026-04-04T07:09:26.009Z</time></trkpt><trkpt lat="40.9266733" lon="14.2987067"><ele>45.0</ele><time>2026-04-04T07:09:27.009Z</time></trkpt><trkpt lat="40.9267533" lon="14.298705"><ele>44.714285714285715</ele><time>2026-04-04T07:09:28.009Z</time></trkpt><trkpt lat="40.9268267" lon="14.2987"><ele>44.42857142857143</ele><time>2026-04-04T07:09:29.01Z</time></trkpt><trkpt lat="40.9269033" lon="14.2986967"><ele>44.142857142857146</ele><time>2026-04-04T07:09:30.009Z</time></trkpt><trkpt lat="40.9269817" lon="14.2986817"><ele>43.85714285714286</ele><time>2026-04-04T07:09:31.009Z</time></trkpt><trkpt lat="40.9270583" lon="14.2986717"><ele>43.57142857142857</ele><time>2026-04-04T07:09:32.011Z</time></trkpt><trkpt lat="40.9271333" lon="14.29867"><ele>43.28571428571429</ele><time>2026-04-04T07:09:33.009Z</time></trkpt><trkpt lat="40.9271983" lon="14.2986867"><ele>43.0</ele><time>2026-04-04T07:09:34.01Z</time></trkpt><trkpt lat="40.9272683" lon="14.2986983"><ele>43.00000000000001</ele><time>2026-04-04T07:09:35.007Z</time></trkpt><trkpt lat="40.9273367" lon="14.298705"><ele>43.0</ele><time>2026-04-04T07:09:36.01Z</time></trkpt><trkpt lat="40.92741" lon="14.2986867"><ele>43.0</ele><time>2026-04-04T07:09:37.012Z</time></trkpt><trkpt lat="40.9274833" lon="14.2986567"><ele>43.0</ele><time>2026-04-04T07:09:38.009Z</time></trkpt><trkpt lat="40.9275567" lon="14.2986267"><ele>43.0</ele><time>2026-04-04T07:09:39.007Z</time></trkpt><trkpt lat="40.9276317" lon="14.2986067"><ele>43.00000000000001</ele><time>2026-04-04T07:09:40.011Z</time></trkpt><trkpt lat="40.9277067" lon="14.29859"><ele>43.0</ele><time>2026-04-04T07:09:41.009Z</time></trkpt><trkpt lat="40.9277833" lon="14.298575"><ele>43.0</ele><time>2026-04-04T07:09:42.011Z</time></trkpt><trkpt lat="40.92786" lon="14.2985617"><ele>43.0</ele><time>2026-04-04T07:09:43.008Z</time></trkpt><trkpt lat="40.9279367" lon="14.2985533"><ele>43.0</ele><time>2026-04-04T07:09:44.01Z</time></trkpt><trkpt lat="40.928015" lon="14.2985467"><ele>43.0</ele><time>2026-04-04T07:09:45.01Z</time></trkpt><trkpt lat="40.928095" lon="14.2985367"><ele>43.0</ele><time>2026-04-04T07:09:46.007Z</time></trkpt><trkpt lat="40.9281733" lon="14.2985283"><ele>43.0</ele><time>2026-04-04T07:09:47.007Z</time></trkpt><trkpt lat="40.9282517" lon="14.2985183"><ele>43.0</ele><time>2026-04-04T07:09:48.01Z</time></trkpt><trkpt lat="40.9283333" lon="14.2985"><ele>43.0</ele><time>2026-04-04T07:09:49.007Z</time></trkpt><trkpt lat="40.9284133" lon="14.2984917"><ele>43.0</ele><time>2026-04-04T07:09:50.009Z</time></trkpt><trkpt lat="40.9284933" lon="14.2984833"><ele>43.0</ele><time>2026-04-04T07:09:51.008Z</time></trkpt><trkpt lat="40.928575" lon="14.2984717"><ele>43.0</ele><time>2026-04-04T07:09:52.009Z</time></trkpt><trkpt lat="40.9286567" lon="14.298455"><ele>43.0</ele><time>2026-04-04T07:09:53.009Z</time></trkpt><trkpt lat="40.9287383" lon="14.2984367"><ele>42.833333333333336</ele><time>2026-04-04T07:09:54.01Z</time></trkpt><trkpt lat="40.928815" lon="14.2984217"><ele>42.66666666666667</ele><time>2026-04-04T07:09:55.009Z</time></trkpt><trkpt lat="40.9289" lon="14.2984017"><ele>42.5</ele><time>2026-04-04T07:09:56.009Z</time></trkpt><trkpt lat="40.9289833" lon="14.2983883"><ele>42.333333333333336</ele><time>2026-04-04T07:09:57.009Z</time></trkpt><trkpt lat="40.929065" lon="14.2983767"><ele>42.166666666666664</ele><time>2026-04-04T07:09:58.007Z</time></trkpt><trkpt lat="40.9291467" lon="14.2983633"><ele>42.0</ele><time>2026-04-04T07:09:59.011Z</time></trkpt><trkpt lat="40.929225" lon="14.2983517"><ele>42.0</ele><time>2026-04-04T07:10:00.008Z</time></trkpt><trkpt lat="40.9293033" lon="14.29834"><ele>42.0</ele><time>2026-04-04T07:10:01.009Z</time></trkpt><trkpt lat="40.929385" lon="14.29833"><ele>42.0</ele><time>2026-04-04T07:10:02.009Z</time></trkpt><trkpt lat="40.929465" lon="14.2983183"><ele>42.0</ele><time>2026-04-04T07:10:03.009Z</time></trkpt><trkpt lat="40.9295483" lon="14.2983133"><ele>42.0</ele><time>2026-04-04T07:10:04.009Z</time></trkpt><trkpt lat="40.9296333" lon="14.2983117"><ele>42.0</ele><time>2026-04-04T07:10:05.009Z</time></trkpt><trkpt lat="40.929715" lon="14.2983233"><ele>42.0</ele><time>2026-04-04T07:10:06.009Z</time></trkpt><trkpt lat="40.9297967" lon="14.2983483"><ele>42.0</ele><time>2026-04-04T07:10:07.01Z</time></trkpt><trkpt lat="40.9298733" lon="14.2983867"><ele>42.0</ele><time>2026-04-04T07:10:08.009Z</time></trkpt><trkpt lat="40.9299467" lon="14.2984367"><ele>42.0</ele><time>2026-04-04T07:10:09.009Z</time></trkpt><trkpt lat="40.9300133" lon="14.2985033"><ele>42.0</ele><time>2026-04-04T07:10:10.008Z</time></trkpt><trkpt lat="40.9300767" lon="14.298575"><ele>42.0</ele><time>2026-04-04T07:10:11.01Z</time></trkpt><trkpt lat="40.930135" lon="14.2986533"><ele>42.0</ele><time>2026-04-04T07:10:12.008Z</time></trkpt><trkpt lat="40.9301917" lon="14.298735"><ele>42.0</ele><time>2026-04-04T07:10:13.009Z</time></trkpt><trkpt lat="40.9302483" lon="14.2988083"><ele>42.0</ele><time>2026-04-04T07:10:14.009Z</time></trkpt><trkpt lat="40.930305" lon="14.2988817"><ele>42.0</ele><time>2026-04-04T07:10:15.009Z</time></trkpt><trkpt lat="40.9303633" lon="14.2989567"><ele>42.0</ele><time>2026-04-04T07:10:16.009Z</time></trkpt><trkpt lat="40.9304217" lon="14.2990283"><ele>42.0</ele><time>2026-04-04T07:10:17.009Z</time></trkpt><trkpt lat="40.9304783" lon="14.2991"><ele>41.666666666666664</ele><time>2026-04-04T07:10:18.009Z</time></trkpt><trkpt lat="40.9305333" lon="14.2991767"><ele>41.333333333333336</ele><time>2026-04-04T07:10:19.008Z</time></trkpt><trkpt lat="40.93059" lon="14.29925"><ele>41.0</ele><time>2026-04-04T07:10:20.012Z</time></trkpt><trkpt lat="40.9306517" lon="14.299325"><ele>40.66666666666667</ele><time>2026-04-04T07:10:21.009Z</time></trkpt><trkpt lat="40.9307133" lon="14.2994"><ele>40.333333333333336</ele><time>2026-04-04T07:10:22.008Z</time></trkpt><trkpt lat="40.93077" lon="14.2994783"><ele>40.0</ele><time>2026-04-04T07:10:23.01Z</time></trkpt><trkpt lat="40.930825" lon="14.2995617"><ele>40.0</ele><time>2026-04-04T07:10:24.01Z</time></trkpt><trkpt lat="40.9308817" lon="14.2996483"><ele>40.0</ele><time>2026-04-04T07:10:25.009Z</time></trkpt><trkpt lat="40.9309383" lon="14.2997317"><ele>40.0</ele><time>2026-04-04T07:10:26.012Z</time></trkpt><trkpt lat="40.930995" lon="14.29981"><ele>40.0</ele><time>2026-04-04T07:10:27.01Z</time></trkpt><trkpt lat="40.93105" lon="14.2998883"><ele>40.0</ele><time>2026-04-04T07:10:28.009Z</time></trkpt><trkpt lat="40.9311067" lon="14.2999633"><ele>40.0</ele><time>2026-04-04T07:10:29.009Z</time></trkpt><trkpt lat="40.9311633" lon="14.30004"><ele>40.0</ele><time>2026-04-04T07:10:30.009Z</time></trkpt><trkpt lat="40.93122" lon="14.3001167"><ele>40.0</ele><time>2026-04-04T07:10:31.009Z</time></trkpt><trkpt lat="40.931275" lon="14.3001983"><ele>40.0</ele><time>2026-04-04T07:10:32.008Z</time></trkpt><trkpt lat="40.9313317" lon="14.30028"><ele>40.0</ele><time>2026-04-04T07:10:33.008Z</time></trkpt><trkpt lat="40.9313867" lon="14.3003617"><ele>40.0</ele><time>2026-04-04T07:10:34.009Z</time></trkpt><trkpt lat="40.931445" lon="14.30044"><ele>40.0</ele><time>2026-04-04T07:10:35.011Z</time></trkpt><trkpt lat="40.9315" lon="14.3005217"><ele>40.0</ele><time>2026-04-04T07:10:36.011Z</time></trkpt><trkpt lat="40.9315567" lon="14.300605"><ele>40.0</ele><time>2026-04-04T07:10:37.008Z</time></trkpt><trkpt lat="40.9316117" lon="14.3006867"><ele>40.0</ele><time>2026-04-04T07:10:38.01Z</time></trkpt><trkpt lat="40.931665" lon="14.300765"><ele>40.0</ele><time>2026-04-04T07:10:39.009Z</time></trkpt><trkpt lat="40.931725" lon="14.3008417"><ele>40.0</ele><time>2026-04-04T07:10:40.008Z</time></trkpt><trkpt lat="40.931785" lon="14.300915"><ele>40.0</ele><time>2026-04-04T07:10:41.008Z</time></trkpt><trkpt lat="40.9318467" lon="14.3009817"><ele>40.0</ele><time>2026-04-04T07:10:42.01Z</time></trkpt><trkpt lat="40.93191" lon="14.3010417"><ele>40.0</ele><time>2026-04-04T07:10:43.008Z</time></trkpt><trkpt lat="40.9319767" lon="14.301095"><ele>40.0</ele><time>2026-04-04T07:10:44.008Z</time></trkpt><trkpt lat="40.9320467" lon="14.3011383"><ele>40.0</ele><time>2026-04-04T07:10:45.01Z</time></trkpt><trkpt lat="40.9321233" lon="14.3011717"><ele>40.0</ele><time>2026-04-04T07:10:46.007Z</time></trkpt><trkpt lat="40.9321983" lon="14.3011967"><ele>40.0</ele><time>2026-04-04T07:10:47.009Z</time></trkpt><trkpt lat="40.9322733" lon="14.3012067"><ele>40.0</ele><time>2026-04-04T07:10:48.009Z</time></trkpt><trkpt lat="40.9323483" lon="14.3012117"><ele>40.0</ele><time>2026-04-04T07:10:49.009Z</time></trkpt><trkpt lat="40.932425" lon="14.3012233"><ele>40.0</ele><time>2026-04-04T07:10:50.009Z</time></trkpt><trkpt lat="40.9325" lon="14.3012283"><ele>40.0</ele><time>2026-04-04T07:10:51.007Z</time></trkpt><trkpt lat="40.9325767" lon="14.3012333"><ele>40.0</ele><time>2026-04-04T07:10:52.009Z</time></trkpt><trkpt lat="40.932655" lon="14.3012317"><ele>40.0</ele><time>2026-04-04T07:10:53.009Z</time></trkpt><trkpt lat="40.9327317" lon="14.301235"><ele>39.833333333333336</ele><time>2026-04-04T07:10:54.009Z</time></trkpt><trkpt lat="40.9328083" lon="14.3012367"><ele>39.66666666666667</ele><time>2026-04-04T07:10:55.009Z</time></trkpt><trkpt lat="40.9328883" lon="14.30124"><ele>39.5</ele><time>2026-04-04T07:10:56.009Z</time></trkpt><trkpt lat="40.9329683" lon="14.3012417"><ele>39.333333333333336</ele><time>2026-04-04T07:10:57.01Z</time></trkpt><trkpt lat="40.9330483" lon="14.3012433"><ele>39.166666666666664</ele><time>2026-04-04T07:10:58.01Z</time></trkpt><trkpt lat="40.9331267" lon="14.301245"><ele>39.0</ele><time>2026-04-04T07:10:59.009Z</time></trkpt><trkpt lat="40.9332067" lon="14.3012467"><ele>39.0</ele><time>2026-04-04T07:11:00.011Z</time></trkpt><trkpt lat="40.9332883" lon="14.30125"><ele>39.0</ele><time>2026-04-04T07:11:01.009Z</time></trkpt><trkpt lat="40.9333683" lon="14.30126"><ele>39.0</ele><time>2026-04-04T07:11:02.01Z</time></trkpt><trkpt lat="40.9334467" lon="14.3012767"><ele>39.0</ele><time>2026-04-04T07:11:03.009Z</time></trkpt><trkpt lat="40.9335233" lon="14.3013067"><ele>39.0</ele><time>2026-04-04T07:11:04.008Z</time></trkpt><trkpt lat="40.9335967" lon="14.3013467"><ele>39.0</ele><time>2026-04-04T07:11:05.009Z</time></trkpt><trkpt lat="40.93366" lon="14.3014033"><ele>38.85714285714286</ele><time>2026-04-04T07:11:06.01Z</time></trkpt><trkpt lat="40.9337267" lon="14.3014583"><ele>38.71428571428571</ele><time>2026-04-04T07:11:07.009Z</time></trkpt><trkpt lat="40.93379" lon="14.3014983"><ele>38.57142857142857</ele><time>2026-04-04T07:11:08.009Z</time></trkpt><trkpt lat="40.9338533" lon="14.3015133"><ele>38.42857142857143</ele><time>2026-04-04T07:11:09.009Z</time></trkpt><trkpt lat="40.9339167" lon="14.3014917"><ele>38.28571428571429</ele><time>2026-04-04T07:11:10.01Z</time></trkpt><trkpt lat="40.9339767" lon="14.3014433"><ele>38.14285714285714</ele><time>2026-04-04T07:11:11.008Z</time></trkpt><trkpt lat="40.9340367" lon="14.3013867"><ele>38.0</ele><time>2026-04-04T07:11:12.009Z</time></trkpt><trkpt lat="40.9341" lon="14.3013433"><ele>38.166666666666664</ele><time>2026-04-04T07:11:13.008Z</time></trkpt><trkpt lat="40.9341667" lon="14.3013083"><ele>38.33333333333333</ele><time>2026-04-04T07:11:14.009Z</time></trkpt><trkpt lat="40.93424" lon="14.3012817"><ele>38.5</ele><time>2026-04-04T07:11:15.009Z</time></trkpt><trkpt lat="40.9343233" lon="14.3012633"><ele>38.666666666666664</ele><time>2026-04-04T07:11:16.009Z</time></trkpt><trkpt lat="40.9344133" lon="14.3012567"><ele>38.833333333333336</ele><time>2026-04-04T07:11:17.009Z</time></trkpt><trkpt lat="40.9344933" lon="14.301255"><ele>39.0</ele><time>2026-04-04T07:11:18.01Z</time></trkpt><trkpt lat="40.9345717" lon="14.3012583"><ele>39.0</ele><time>2026-04-04T07:11:19.009Z</time></trkpt><trkpt lat="40.93465" lon="14.3012533"><ele>39.0</ele><time>2026-04-04T07:11:20.008Z</time></trkpt><trkpt lat="40.9347283" lon="14.3012467"><ele>39.0</ele><time>2026-04-04T07:11:21.008Z</time></trkpt><trkpt lat="40.9348067" lon="14.3012417"><ele>39.0</ele><time>2026-04-04T07:11:22.01Z</time></trkpt><trkpt lat="40.934885" lon="14.3012433"><ele>39.0</ele><time>2026-04-04T07:11:23.01Z</time></trkpt><trkpt lat="40.9349617" lon="14.3012467"><ele>39.0</ele><time>2026-04-04T07:11:24.011Z</time></trkpt><trkpt lat="40.9350383" lon="14.3012533"><ele>38.666666666666664</ele><time>2026-04-04T07:11:25.009Z</time></trkpt><trkpt lat="40.9351333" lon="14.3012467"><ele>38.333333333333336</ele><time>2026-04-04T07:11:26.009Z</time></trkpt><trkpt lat="40.9352183" lon="14.3012567"><ele>38.0</ele><time>2026-04-04T07:11:27.01Z</time></trkpt><trkpt lat="40.9352983" lon="14.3012667"><ele>37.66666666666667</ele><time>2026-04-04T07:11:28.007Z</time></trkpt><trkpt lat="40.9353767" lon="14.30127"><ele>37.333333333333336</ele><time>2026-04-04T07:11:29.009Z</time></trkpt><trkpt lat="40.935455" lon="14.3012683"><ele>37.0</ele><time>2026-04-04T07:11:30.008Z</time></trkpt><trkpt lat="40.93553" lon="14.3012667"><ele>37.0</ele><time>2026-04-04T07:11:31.007Z</time></trkpt><trkpt lat="40.9356067" lon="14.30126"><ele>37.0</ele><time>2026-04-04T07:11:32.008Z</time></trkpt><trkpt lat="40.9356833" lon="14.30126"><ele>37.0</ele><time>2026-04-04T07:11:33.009Z</time></trkpt><trkpt lat="40.9357583" lon="14.30126"><ele>37.0</ele><time>2026-04-04T07:11:34.01Z</time></trkpt><trkpt lat="40.9358367" lon="14.3012533"><ele>37.0</ele><time>2026-04-04T07:11:35.008Z</time></trkpt><trkpt lat="40.935915" lon="14.3012417"><ele>37.0</ele><time>2026-04-04T07:11:36.01Z</time></trkpt><trkpt lat="40.93599" lon="14.3012317"><ele>37.0</ele><time>2026-04-04T07:11:37.009Z</time></trkpt><trkpt lat="40.93607" lon="14.3012183"><ele>37.0</ele><time>2026-04-04T07:11:38.009Z</time></trkpt><trkpt lat="40.9361483" lon="14.3012017"><ele>37.0</ele><time>2026-04-04T07:11:39.009Z</time></trkpt><trkpt lat="40.936225" lon="14.30118"><ele>37.0</ele><time>2026-04-04T07:11:40.009Z</time></trkpt><trkpt lat="40.9363017" lon="14.3011583"><ele>37.0</ele><time>2026-04-04T07:11:41.01Z</time></trkpt><trkpt lat="40.9363767" lon="14.3011417"><ele>37.0</ele><time>2026-04-04T07:11:42.009Z</time></trkpt><trkpt lat="40.9364467" lon="14.30113"><ele>37.0</ele><time>2026-04-04T07:11:43.012Z</time></trkpt><trkpt lat="40.936515" lon="14.3011217"><ele>37.0</ele><time>2026-04-04T07:11:44.008Z</time></trkpt><trkpt lat="40.936585" lon="14.3011117"><ele>37.0</ele><time>2026-04-04T07:11:45.011Z</time></trkpt><trkpt lat="40.936655" lon="14.3010983"><ele>37.0</ele><time>2026-04-04T07:11:46.009Z</time></trkpt><trkpt lat="40.9367267" lon="14.30109"><ele>37.0</ele><time>2026-04-04T07:11:47.007Z</time></trkpt><trkpt lat="40.9367983" lon="14.30108"><ele>37.0</ele><time>2026-04-04T07:11:48.01Z</time></trkpt><trkpt lat="40.9368733" lon="14.301065"><ele>37.0</ele><time>2026-04-04T07:11:49.01Z</time></trkpt><trkpt lat="40.9369483" lon="14.3010517"><ele>37.0</ele><time>2026-04-04T07:11:50.008Z</time></trkpt><trkpt lat="40.937025" lon="14.301035"><ele>37.0</ele><time>2026-04-04T07:11:51.01Z</time></trkpt><trkpt lat="40.9371" lon="14.3010233"><ele>37.0</ele><time>2026-04-04T07:11:52.008Z</time></trkpt><trkpt lat="40.9371733" lon="14.3010117"><ele>37.0</ele><time>2026-04-04T07:11:53.009Z</time></trkpt><trkpt lat="40.937245" lon="14.3010017"><ele>37.0</ele><time>2026-04-04T07:11:54.009Z</time></trkpt><trkpt lat="40.9373133" lon="14.3009867"><ele>37.0</ele><time>2026-04-04T07:11:55.01Z</time></trkpt><trkpt lat="40.93738" lon="14.30097"><ele>37.0</ele><time>2026-04-04T07:11:56.009Z</time></trkpt><trkpt lat="40.9374467" lon="14.3009517"><ele>37.0</ele><time>2026-04-04T07:11:57.009Z</time></trkpt><trkpt lat="40.937515" lon="14.3009333"><ele>37.0</ele><time>2026-04-04T07:11:58.009Z</time></trkpt><trkpt lat="40.9375783" lon="14.30092"><ele>37.0</ele><time>2026-04-04T07:11:59.011Z</time></trkpt><trkpt lat="40.9376433" lon="14.3009083"><ele>37.0</ele><time>2026-04-04T07:12:00.011Z</time></trkpt><trkpt lat="40.9377083" lon="14.3008917"><ele>37.0</ele><time>2026-04-04T07:12:01.012Z</time></trkpt><trkpt lat="40.9377733" lon="14.30088"><ele>37.0</ele><time>2026-04-04T07:12:02.009Z</time></trkpt><trkpt lat="40.9378817" lon="14.3008533"><ele>37.0</ele><time>2026-04-04T07:12:04.012Z</time></trkpt><trkpt lat="40.9379567" lon="14.3008083"><ele>37.0</ele><time>2026-04-04T07:12:06.007Z</time></trkpt><trkpt lat="40.9380417" lon="14.3007633"><ele>37.0</ele><time>2026-04-04T07:12:08.01Z</time></trkpt><trkpt lat="40.93814" lon="14.3007333"><ele>37.0</ele><time>2026-04-04T07:12:10.007Z</time></trkpt><trkpt lat="40.9382467" lon="14.3006917"><ele>37.0</ele><time>2026-04-04T07:12:12.011Z</time></trkpt><trkpt lat="40.93834" lon="14.300625"><ele>37.0</ele><time>2026-04-04T07:12:14.011Z</time></trkpt><trkpt lat="40.93842" lon="14.3005617"><ele>37.0</ele><time>2026-04-04T07:12:16.009Z</time></trkpt><trkpt lat="40.9385167" lon="14.300505"><ele>37.0</ele><time>2026-04-04T07:12:18.009Z</time></trkpt><trkpt lat="40.9386267" lon="14.300435"><ele>37.0</ele><time>2026-04-04T07:12:20.008Z</time></trkpt><trkpt lat="40.938685" lon="14.3003983"><ele>37.0</ele><time>2026-04-04T07:12:21.009Z</time></trkpt><trkpt lat="40.9387433" lon="14.3003583"><ele>37.0</ele><time>2026-04-04T07:12:22.009Z</time></trkpt><trkpt lat="40.938805" lon="14.3003167"><ele>37.0</ele><time>2026-04-04T07:12:23.009Z</time></trkpt><trkpt lat="40.93887" lon="14.3002667"><ele>37.0</ele><time>2026-04-04T07:12:24.012Z</time></trkpt><trkpt lat="40.9389367" lon="14.300225"><ele>37.0</ele><time>2026-04-04T07:12:25.011Z</time></trkpt><trkpt lat="40.9390067" lon="14.3001833"><ele>37.0</ele><time>2026-04-04T07:12:26.012Z</time></trkpt><trkpt lat="40.939075" lon="14.3001383"><ele>37.0</ele><time>2026-04-04T07:12:27.011Z</time></trkpt><trkpt lat="40.93914" lon="14.3001017"><ele>37.0</ele><time>2026-04-04T07:12:28.011Z</time></trkpt><trkpt lat="40.9392033" lon="14.300065"><ele>37.0</ele><time>2026-04-04T07:12:29.009Z</time></trkpt><trkpt lat="40.9392767" lon="14.3000267"><ele>37.0</ele><time>2026-04-04T07:12:30.011Z</time></trkpt><trkpt lat="40.9393483" lon="14.299985"><ele>36.833333333333336</ele><time>2026-04-04T07:12:31.011Z</time></trkpt><trkpt lat="40.9394167" lon="14.2999367"><ele>36.66666666666667</ele><time>2026-04-04T07:12:32.01Z</time></trkpt><trkpt lat="40.9394883" lon="14.29989"><ele>36.5</ele><time>2026-04-04T07:12:33.012Z</time></trkpt><trkpt lat="40.9395567" lon="14.2998483"><ele>36.333333333333336</ele><time>2026-04-04T07:12:34.009Z</time></trkpt><trkpt lat="40.9396217" lon="14.2998067"><ele>36.166666666666664</ele><time>2026-04-04T07:12:35.01Z</time></trkpt><trkpt lat="40.93968" lon="14.29977"><ele>36.0</ele><time>2026-04-04T07:12:36.013Z</time></trkpt><trkpt lat="40.93979" lon="14.29971"><ele>36.0</ele><time>2026-04-04T07:12:38.011Z</time></trkpt><trkpt lat="40.9398483" lon="14.2996783"><ele>36.0</ele><time>2026-04-04T07:12:39.011Z</time></trkpt><trkpt lat="40.9399067" lon="14.2996467"><ele>36.0</ele><time>2026-04-04T07:12:40.009Z</time></trkpt><trkpt lat="40.9399667" lon="14.29962"><ele>36.0</ele><time>2026-04-04T07:12:41.009Z</time></trkpt><trkpt lat="40.940075" lon="14.2995817"><ele>36.0</ele><time>2026-04-04T07:12:43.009Z</time></trkpt><trkpt lat="40.940185" lon="14.2995467"><ele>36.0</ele><time>2026-04-04T07:12:45.009Z</time></trkpt><trkpt lat="40.9403017" lon="14.2995217"><ele>36.2</ele><time>2026-04-04T07:12:47.01Z</time></trkpt><trkpt lat="40.9404133" lon="14.2994783"><ele>36.400000000000006</ele><time>2026-04-04T07:12:49.011Z</time></trkpt><trkpt lat="40.9405217" lon="14.2994483"><ele>36.6</ele><time>2026-04-04T07:12:51.009Z</time></trkpt><trkpt lat="40.9406167" lon="14.29942"><ele>36.800000000000004</ele><time>2026-04-04T07:12:53.009Z</time></trkpt><trkpt lat="40.9407017" lon="14.299395"><ele>37.0</ele><time>2026-04-04T07:12:55.009Z</time></trkpt><trkpt lat="40.9407867" lon="14.2993517"><ele>37.0</ele><time>2026-04-04T07:12:57.008Z</time></trkpt><trkpt lat="40.9408767" lon="14.2992967"><ele>37.0</ele><time>2026-04-04T07:12:59.009Z</time></trkpt><trkpt lat="40.9409817" lon="14.2992683"><ele>37.0</ele><time>2026-04-04T07:13:01.007Z</time></trkpt><trkpt lat="40.9410917" lon="14.2992317"><ele>37.0</ele><time>2026-04-04T07:13:03.009Z</time></trkpt><trkpt lat="40.9411967" lon="14.299195"><ele>37.0</ele><time>2026-04-04T07:13:05.011Z</time></trkpt><trkpt lat="40.941305" lon="14.2991783"><ele>37.0</ele><time>2026-04-04T07:13:07.009Z</time></trkpt><trkpt lat="40.9414233" lon="14.29916"><ele>37.0</ele><time>2026-04-04T07:13:09.009Z</time></trkpt><trkpt lat="40.941545" lon="14.2991333"><ele>37.0</ele><time>2026-04-04T07:13:11.01Z</time></trkpt><trkpt lat="40.9416583" lon="14.2991133"><ele>37.0</ele><time>2026-04-04T07:13:13.009Z</time></trkpt><trkpt lat="40.941765" lon="14.2990983"><ele>36.833333333333336</ele><time>2026-04-04T07:13:15.009Z</time></trkpt><trkpt lat="40.94188" lon="14.29909"><ele>36.66666666666667</ele><time>2026-04-04T07:13:17.01Z</time></trkpt><trkpt lat="40.9420033" lon="14.29907"><ele>36.5</ele><time>2026-04-04T07:13:19.009Z</time></trkpt><trkpt lat="40.94207" lon="14.2990633"><ele>36.333333333333336</ele><time>2026-04-04T07:13:20.01Z</time></trkpt><trkpt lat="40.9421383" lon="14.2990583"><ele>36.166666666666664</ele><time>2026-04-04T07:13:21.009Z</time></trkpt><trkpt lat="40.9422083" lon="14.2990583"><ele>36.0</ele><time>2026-04-04T07:13:22.011Z</time></trkpt><trkpt lat="40.942275" lon="14.299055"><ele>36.00000000000001</ele><time>2026-04-04T07:13:23.009Z</time></trkpt><trkpt lat="40.9423433" lon="14.299055"><ele>36.0</ele><time>2026-04-04T07:13:24.01Z</time></trkpt><trkpt lat="40.9424117" lon="14.2990517"><ele>36.0</ele><time>2026-04-04T07:13:25.009Z</time></trkpt><trkpt lat="40.9424833" lon="14.29905"><ele>36.0</ele><time>2026-04-04T07:13:26.009Z</time></trkpt><trkpt lat="40.942555" lon="14.2990517"><ele>36.0</ele><time>2026-04-04T07:13:27.009Z</time></trkpt><trkpt lat="40.9426267" lon="14.2990533"><ele>36.00000000000001</ele><time>2026-04-04T07:13:28.01Z</time></trkpt><trkpt lat="40.9427" lon="14.2990567"><ele>36.0</ele><time>2026-04-04T07:13:29.009Z</time></trkpt><trkpt lat="40.9427733" lon="14.299055"><ele>35.714285714285715</ele><time>2026-04-04T07:13:30.01Z</time></trkpt><trkpt lat="40.9428483" lon="14.299055"><ele>35.42857142857143</ele><time>2026-04-04T07:13:31.009Z</time></trkpt><trkpt lat="40.9429233" lon="14.2990533"><ele>35.14285714285714</ele><time>2026-04-04T07:13:32.01Z</time></trkpt><trkpt lat="40.942995" lon="14.2990533"><ele>34.85714285714286</ele><time>2026-04-04T07:13:33.011Z</time></trkpt><trkpt lat="40.94307" lon="14.2990533"><ele>34.57142857142857</ele><time>2026-04-04T07:13:34.008Z</time></trkpt><trkpt lat="40.9431433" lon="14.299055"><ele>34.285714285714285</ele><time>2026-04-04T07:13:35.009Z</time></trkpt><trkpt lat="40.9432183" lon="14.2990567"><ele>34.0</ele><time>2026-04-04T07:13:36.011Z</time></trkpt><trkpt lat="40.9433" lon="14.2990583"><ele>34.0</ele><time>2026-04-04T07:13:37.009Z</time></trkpt><trkpt lat="40.94338" lon="14.299065"><ele>34.0</ele><time>2026-04-04T07:13:38.009Z</time></trkpt><trkpt lat="40.9434567" lon="14.29907"><ele>34.0</ele><time>2026-04-04T07:13:39.01Z</time></trkpt><trkpt lat="40.943535" lon="14.2990817"><ele>34.0</ele><time>2026-04-04T07:13:40.009Z</time></trkpt><trkpt lat="40.9436133" lon="14.2991217"><ele>34.0</ele><time>2026-04-04T07:13:41.009Z</time></trkpt><trkpt lat="40.9436883" lon="14.2991483"><ele>34.0</ele><time>2026-04-04T07:13:42.01Z</time></trkpt><trkpt lat="40.943765" lon="14.2991617"><ele>33.857142857142854</ele><time>2026-04-04T07:13:43.009Z</time></trkpt><trkpt lat="40.9438417" lon="14.299175"><ele>33.714285714285715</ele><time>2026-04-04T07:13:44.012Z</time></trkpt><trkpt lat="40.9439183" lon="14.2991867"><ele>33.57142857142857</ele><time>2026-04-04T07:13:45.01Z</time></trkpt><trkpt lat="40.9439917" lon="14.2991967"><ele>33.42857142857143</ele><time>2026-04-04T07:13:46.012Z</time></trkpt><trkpt lat="40.9440683" lon="14.29921"><ele>33.285714285714285</ele><time>2026-04-04T07:13:47.011Z</time></trkpt><trkpt lat="40.9441383" lon="14.2992317"><ele>33.14285714285714</ele><time>2026-04-04T07:13:48.007Z</time></trkpt><trkpt lat="40.9442067" lon="14.2992583"><ele>33.0</ele><time>2026-04-04T07:13:49.008Z</time></trkpt><trkpt lat="40.9442733" lon="14.29929"><ele>33.0</ele><time>2026-04-04T07:13:50.007Z</time></trkpt><trkpt lat="40.9443383" lon="14.2993183"><ele>33.0</ele><time>2026-04-04T07:13:51.01Z</time></trkpt><trkpt lat="40.9444033" lon="14.29933"><ele>33.0</ele><time>2026-04-04T07:13:52.009Z</time></trkpt><trkpt lat="40.9444683" lon="14.2993217"><ele>33.0</ele><time>2026-04-04T07:13:53.008Z</time></trkpt><trkpt lat="40.944535" lon="14.2993033"><ele>33.0</ele><time>2026-04-04T07:13:54.013Z</time></trkpt><trkpt lat="40.9446033" lon="14.2992917"><ele>33.0</ele><time>2026-04-04T07:13:55.01Z</time></trkpt><trkpt lat="40.9446733" lon="14.29929"><ele>33.0</ele><time>2026-04-04T07:13:56.009Z</time></trkpt><trkpt lat="40.9447467" lon="14.2993017"><ele>33.0</ele><time>2026-04-04T07:13:57.008Z</time></trkpt><trkpt lat="40.94482" lon="14.29932"><ele>33.0</ele><time>2026-04-04T07:13:58.01Z</time></trkpt><trkpt lat="40.944895" lon="14.2993383"><ele>33.0</ele><time>2026-04-04T07:13:59.009Z</time></trkpt><trkpt lat="40.944965" lon="14.2993533"><ele>33.0</ele><time>2026-04-04T07:14:00.011Z</time></trkpt><trkpt lat="40.9450367" lon="14.2993683"><ele>33.0</ele><time>2026-04-04T07:14:01.01Z</time></trkpt><trkpt lat="40.9451117" lon="14.299385"><ele>33.0</ele><time>2026-04-04T07:14:02.009Z</time></trkpt><trkpt lat="40.9451833" lon="14.2993983"><ele>33.0</ele><time>2026-04-04T07:14:03.01Z</time></trkpt><trkpt lat="40.9452583" lon="14.2994117"><ele>33.0</ele><time>2026-04-04T07:14:04.009Z</time></trkpt><trkpt lat="40.9453333" lon="14.2994267"><ele>33.0</ele><time>2026-04-04T07:14:05.009Z</time></trkpt><trkpt lat="40.94541" lon="14.2994417"><ele>33.0</ele><time>2026-04-04T07:14:06.009Z</time></trkpt><trkpt lat="40.945485" lon="14.2994583"><ele>33.0</ele><time>2026-04-04T07:14:07.011Z</time></trkpt><trkpt lat="40.9455617" lon="14.299475"><ele>33.0</ele><time>2026-04-04T07:14:08.009Z</time></trkpt><trkpt lat="40.9456383" lon="14.2994883"><ele>33.0</ele><time>2026-04-04T07:14:09.008Z</time></trkpt><trkpt lat="40.9457117" lon="14.299505"><ele>33.0</ele><time>2026-04-04T07:14:10.009Z</time></trkpt><trkpt lat="40.9457867" lon="14.29952"><ele>33.0</ele><time>2026-04-04T07:14:11.009Z</time></trkpt><trkpt lat="40.9458633" lon="14.2995333"><ele>33.0</ele><time>2026-04-04T07:14:12.01Z</time></trkpt><trkpt lat="40.9459367" lon="14.2995517"><ele>33.0</ele><time>2026-04-04T07:14:13.011Z</time></trkpt><trkpt lat="40.946015" lon="14.2995683"><ele>33.0</ele><time>2026-04-04T07:14:14.009Z</time></trkpt><trkpt lat="40.9460867" lon="14.2995867"><ele>33.0</ele><time>2026-04-04T07:14:15.009Z</time></trkpt><trkpt lat="40.9461567" lon="14.2995983"><ele>32.857142857142854</ele><time>2026-04-04T07:14:16.007Z</time></trkpt><trkpt lat="40.94623" lon="14.29961"><ele>32.714285714285715</ele><time>2026-04-04T07:14:17.009Z</time></trkpt><trkpt lat="40.9462967" lon="14.2996317"><ele>32.57142857142857</ele><time>2026-04-04T07:14:18.009Z</time></trkpt><trkpt lat="40.9463633" lon="14.2996667"><ele>32.42857142857143</ele><time>2026-04-04T07:14:19.008Z</time></trkpt><trkpt lat="40.9464217" lon="14.2997183"><ele>32.285714285714285</ele><time>2026-04-04T07:14:20.01Z</time></trkpt><trkpt lat="40.9464717" lon="14.2997833"><ele>32.14285714285714</ele><time>2026-04-04T07:14:21.008Z</time></trkpt><trkpt lat="40.94651" lon="14.2998633"><ele>32.0</ele><time>2026-04-04T07:14:22.008Z</time></trkpt><trkpt lat="40.9465433" lon="14.2999483"><ele>32.0</ele><time>2026-04-04T07:14:23.008Z</time></trkpt><trkpt lat="40.9465733" lon="14.3000333"><ele>31.999999999999996</ele><time>2026-04-04T07:14:24.011Z</time></trkpt><trkpt lat="40.9466067" lon="14.30012"><ele>32.0</ele><time>2026-04-04T07:14:25.009Z</time></trkpt><trkpt lat="40.946635" lon="14.3002033"><ele>32.0</ele><time>2026-04-04T07:14:26.01Z</time></trkpt><trkpt lat="40.946665" lon="14.3002867"><ele>31.999999999999996</ele><time>2026-04-04T07:14:27.008Z</time></trkpt><trkpt lat="40.9466983" lon="14.30037"><ele>32.0</ele><time>2026-04-04T07:14:28.007Z</time></trkpt><trkpt lat="40.9467317" lon="14.30045"><ele>32.0</ele><time>2026-04-04T07:14:29.009Z</time></trkpt><trkpt lat="40.9467617" lon="14.3005367"><ele>31.857142857142854</ele><time>2026-04-04T07:14:30.009Z</time></trkpt><trkpt lat="40.94679" lon="14.3006233"><ele>31.71428571428571</ele><time>2026-04-04T07:14:31.009Z</time></trkpt><trkpt lat="40.9468217" lon="14.3007083"><ele>31.57142857142857</ele><time>2026-04-04T07:14:32.009Z</time></trkpt><trkpt lat="40.9468533" lon="14.3007933"><ele>31.42857142857143</ele><time>2026-04-04T07:14:33.008Z</time></trkpt><trkpt lat="40.9468867" lon="14.30088"><ele>31.28571428571429</ele><time>2026-04-04T07:14:34.007Z</time></trkpt><trkpt lat="40.9469217" lon="14.3009683"><ele>31.142857142857146</ele><time>2026-04-04T07:14:35.009Z</time></trkpt><trkpt lat="40.9469533" lon="14.3010567"><ele>31.0</ele><time>2026-04-04T07:14:36.008Z</time></trkpt><trkpt lat="40.94698" lon="14.301145"><ele>31.0</ele><time>2026-04-04T07:14:37.009Z</time></trkpt><trkpt lat="40.94701" lon="14.3012317"><ele>31.000000000000004</ele><time>2026-04-04T07:14:38.009Z</time></trkpt><trkpt lat="40.9470433" lon="14.3013183"><ele>31.0</ele><time>2026-04-04T07:14:39.009Z</time></trkpt><trkpt lat="40.947075" lon="14.3014033"><ele>31.0</ele><time>2026-04-04T07:14:40.009Z</time></trkpt><trkpt lat="40.9471083" lon="14.3014917"><ele>31.000000000000004</ele><time>2026-04-04T07:14:41.008Z</time></trkpt><trkpt lat="40.9471417" lon="14.301575"><ele>31.0</ele><time>2026-04-04T07:14:42.01Z</time></trkpt><trkpt lat="40.947175" lon="14.30166"><ele>31.0</ele><time>2026-04-04T07:14:43.009Z</time></trkpt><trkpt lat="40.9472167" lon="14.301745"><ele>31.166666666666668</ele><time>2026-04-04T07:14:44.008Z</time></trkpt><trkpt lat="40.9472567" lon="14.3018267"><ele>31.333333333333336</ele><time>2026-04-04T07:14:45.007Z</time></trkpt><trkpt lat="40.9473033" lon="14.3019017"><ele>31.5</ele><time>2026-04-04T07:14:46.008Z</time></trkpt><trkpt lat="40.9473467" lon="14.3019717"><ele>31.666666666666664</ele><time>2026-04-04T07:14:47.009Z</time></trkpt><trkpt lat="40.9473817" lon="14.3020433"><ele>31.833333333333332</ele><time>2026-04-04T07:14:48.007Z</time></trkpt><trkpt lat="40.9474517" lon="14.3021717"><ele>32.0</ele><time>2026-04-04T07:14:50.011Z</time></trkpt><trkpt lat="40.9475483" lon="14.3022117"><ele>32.0</ele><time>2026-04-04T07:14:52.008Z</time></trkpt><trkpt lat="40.9476117" lon="14.3022083"><ele>31.999999999999996</ele><time>2026-04-04T07:14:53.009Z</time></trkpt><trkpt lat="40.94768" lon="14.3022067"><ele>32.0</ele><time>2026-04-04T07:14:54.01Z</time></trkpt><trkpt lat="40.94775" lon="14.3022083"><ele>32.0</ele><time>2026-04-04T07:14:55.009Z</time></trkpt><trkpt lat="40.94782" lon="14.3022183"><ele>31.999999999999996</ele><time>2026-04-04T07:14:56.009Z</time></trkpt><trkpt lat="40.94789" lon="14.30223"><ele>32.0</ele><time>2026-04-04T07:14:57.007Z</time></trkpt><trkpt lat="40.9479617" lon="14.3022433"><ele>32.0</ele><time>2026-04-04T07:14:58.007Z</time></trkpt><trkpt lat="40.9480283" lon="14.3022567"><ele>32.0</ele><time>2026-04-04T07:14:59.008Z</time></trkpt><trkpt lat="40.948135" lon="14.302285"><ele>32.0</ele><time>2026-04-04T07:15:01.01Z</time></trkpt><trkpt lat="40.9482283" lon="14.3023083"><ele>32.0</ele><time>2026-04-04T07:15:03.009Z</time></trkpt><trkpt lat="40.9483283" lon="14.302325"><ele>32.0</ele><time>2026-04-04T07:15:05.011Z</time></trkpt><trkpt lat="40.948435" lon="14.3023433"><ele>32.0</ele><time>2026-04-04T07:15:07.011Z</time></trkpt><trkpt lat="40.9485383" lon="14.3023617"><ele>31.8</ele><time>2026-04-04T07:15:09.009Z</time></trkpt><trkpt lat="40.9486233" lon="14.3023717"><ele>31.6</ele><time>2026-04-04T07:15:11.011Z</time></trkpt><trkpt lat="40.948715" lon="14.3023867"><ele>31.400000000000002</ele><time>2026-04-04T07:15:13.008Z</time></trkpt><trkpt lat="40.94881" lon="14.3024067"><ele>31.200000000000003</ele><time>2026-04-04T07:15:15.01Z</time></trkpt><trkpt lat="40.9489083" lon="14.3024267"><ele>31.0</ele><time>2026-04-04T07:15:17.009Z</time></trkpt><trkpt lat="40.9490067" lon="14.302465"><ele>31.0</ele><time>2026-04-04T07:15:19.007Z</time></trkpt><trkpt lat="40.94907" lon="14.3024917"><ele>31.0</ele><time>2026-04-04T07:15:21.008Z</time></trkpt><trkpt lat="40.9491617" lon="14.3025233"><ele>31.0</ele><time>2026-04-04T07:15:24.009Z</time></trkpt><trkpt lat="40.9492467" lon="14.3025433"><ele>31.0</ele><time>2026-04-04T07:15:26.009Z</time></trkpt><trkpt lat="40.9493433" lon="14.3025733"><ele>31.0</ele><time>2026-04-04T07:15:28.008Z</time></trkpt><trkpt lat="40.9494583" lon="14.302595"><ele>31.333333333333336</ele><time>2026-04-04T07:15:30.009Z</time></trkpt><trkpt lat="40.9495783" lon="14.3026167"><ele>31.666666666666668</ele><time>2026-04-04T07:15:32.007Z</time></trkpt><trkpt lat="40.9496417" lon="14.3026317"><ele>32.0</ele><time>2026-04-04T07:15:33.008Z</time></trkpt><trkpt lat="40.949705" lon="14.3026417"><ele>32.333333333333336</ele><time>2026-04-04T07:15:34.011Z</time></trkpt><trkpt lat="40.9497683" lon="14.3026533"><ele>32.666666666666664</ele><time>2026-04-04T07:15:35.01Z</time></trkpt><trkpt lat="40.9498317" lon="14.3026667"><ele>33.0</ele><time>2026-04-04T07:15:36.01Z</time></trkpt><trkpt lat="40.9499517" lon="14.302685"><ele>32.8</ele><time>2026-04-04T07:15:38.008Z</time></trkpt><trkpt lat="40.950065" lon="14.3027033"><ele>32.599999999999994</ele><time>2026-04-04T07:15:40.007Z</time></trkpt><trkpt lat="40.95017" lon="14.3027217"><ele>32.400000000000006</ele><time>2026-04-04T07:15:42.01Z</time></trkpt><trkpt lat="40.95027" lon="14.3027533"><ele>32.2</ele><time>2026-04-04T07:15:44.009Z</time></trkpt><trkpt lat="40.9503767" lon="14.3027783"><ele>32.0</ele><time>2026-04-04T07:15:46.009Z</time></trkpt><trkpt lat="40.950495" lon="14.3027967"><ele>32.0</ele><time>2026-04-04T07:15:48.008Z</time></trkpt><trkpt lat="40.9506133" lon="14.30282"><ele>32.0</ele><time>2026-04-04T07:15:50.007Z</time></trkpt><trkpt lat="40.950735" lon="14.3028483"><ele>32.0</ele><time>2026-04-04T07:15:52.008Z</time></trkpt><trkpt lat="40.950855" lon="14.3028767"><ele>32.0</ele><time>2026-04-04T07:15:54.009Z</time></trkpt><trkpt lat="40.9509767" lon="14.3029017"><ele>31.25</ele><time>2026-04-04T07:15:56.008Z</time></trkpt><trkpt lat="40.951095" lon="14.3029233"><ele>30.5</ele><time>2026-04-04T07:15:58.007Z</time></trkpt><trkpt lat="40.95121" lon="14.3029467"><ele>29.75</ele><time>2026-04-04T07:16:00.009Z</time></trkpt><trkpt lat="40.9513217" lon="14.3029717"><ele>29.0</ele><time>2026-04-04T07:16:02.008Z</time></trkpt><trkpt lat="40.9514217" lon="14.303005"><ele>29.0</ele><time>2026-04-04T07:16:04.009Z</time></trkpt><trkpt lat="40.9514967" lon="14.3030317"><ele>29.0</ele><time>2026-04-04T07:16:06.009Z</time></trkpt><trkpt lat="40.95157" lon="14.3030567"><ele>29.0</ele><time>2026-04-04T07:16:08.008Z</time></trkpt><trkpt lat="40.951665" lon="14.30308"><ele>29.0</ele><time>2026-04-04T07:16:10.008Z</time></trkpt><trkpt lat="40.9517667" lon="14.3030917"><ele>29.0</ele><time>2026-04-04T07:16:12.009Z</time></trkpt><trkpt lat="40.9518767" lon="14.30312"><ele>29.166666666666664</ele><time>2026-04-04T07:16:14.009Z</time></trkpt><trkpt lat="40.9519833" lon="14.3031433"><ele>29.333333333333332</ele><time>2026-04-04T07:16:16.007Z</time></trkpt><trkpt lat="40.95208" lon="14.3031683"><ele>29.5</ele><time>2026-04-04T07:16:18.009Z</time></trkpt><trkpt lat="40.95216" lon="14.303195"><ele>29.666666666666664</ele><time>2026-04-04T07:16:20.009Z</time></trkpt><trkpt lat="40.9522267" lon="14.3032133"><ele>29.833333333333332</ele><time>2026-04-04T07:16:22.009Z</time></trkpt><trkpt lat="40.9522983" lon="14.3032383"><ele>30.0</ele><time>2026-04-04T07:16:24.009Z</time></trkpt><trkpt lat="40.9523917" lon="14.3032667"><ele>30.0</ele><time>2026-04-04T07:16:26.009Z</time></trkpt><trkpt lat="40.9524983" lon="14.3032967"><ele>30.0</ele><time>2026-04-04T07:16:28.009Z</time></trkpt><trkpt lat="40.9526233" lon="14.3033333"><ele>30.0</ele><time>2026-04-04T07:16:30.008Z</time></trkpt><trkpt lat="40.95269" lon="14.303345"><ele>30.0</ele><time>2026-04-04T07:16:31.009Z</time></trkpt><trkpt lat="40.952755" lon="14.3033683"><ele>30.0</ele><time>2026-04-04T07:16:32.009Z</time></trkpt><trkpt lat="40.9528217" lon="14.3033833"><ele>30.0</ele><time>2026-04-04T07:16:33.009Z</time></trkpt><trkpt lat="40.9528867" lon="14.3034067"><ele>29.714285714285715</ele><time>2026-04-04T07:16:34.009Z</time></trkpt><trkpt lat="40.95295" lon="14.3034283"><ele>29.428571428571427</ele><time>2026-04-04T07:16:35.008Z</time></trkpt><trkpt lat="40.9530167" lon="14.3034517"><ele>29.142857142857142</ele><time>2026-04-04T07:16:36.011Z</time></trkpt><trkpt lat="40.9530867" lon="14.3034733"><ele>28.857142857142858</ele><time>2026-04-04T07:16:37.009Z</time></trkpt><trkpt lat="40.9531533" lon="14.3034967"><ele>28.57142857142857</ele><time>2026-04-04T07:16:38.01Z</time></trkpt><trkpt lat="40.95322" lon="14.3035117"><ele>28.285714285714285</ele><time>2026-04-04T07:16:39.01Z</time></trkpt><trkpt lat="40.9532933" lon="14.30353"><ele>28.0</ele><time>2026-04-04T07:16:40.009Z</time></trkpt><trkpt lat="40.953365" lon="14.3035467"><ele>28.42857142857143</ele><time>2026-04-04T07:16:41.01Z</time></trkpt><trkpt lat="40.9534317" lon="14.3035667"><ele>28.857142857142858</ele><time>2026-04-04T07:16:42.009Z</time></trkpt><trkpt lat="40.9534983" lon="14.3035867"><ele>29.285714285714285</ele><time>2026-04-04T07:16:43.01Z</time></trkpt><trkpt lat="40.9535617" lon="14.3036167"><ele>29.714285714285715</ele><time>2026-04-04T07:16:44.01Z</time></trkpt><trkpt lat="40.9536283" lon="14.303645"><ele>30.142857142857146</ele><time>2026-04-04T07:16:45.009Z</time></trkpt><trkpt lat="40.9536983" lon="14.3036833"><ele>30.571428571428573</ele><time>2026-04-04T07:16:46.009Z</time></trkpt><trkpt lat="40.9537667" lon="14.3037217"><ele>31.0</ele><time>2026-04-04T07:16:47.008Z</time></trkpt><trkpt lat="40.953835" lon="14.303755"><ele>31.0</ele><time>2026-04-04T07:16:48.01Z</time></trkpt><trkpt lat="40.9539017" lon="14.30379"><ele>31.000000000000004</ele><time>2026-04-04T07:16:49.009Z</time></trkpt><trkpt lat="40.9539733" lon="14.303825"><ele>31.0</ele><time>2026-04-04T07:16:50.01Z</time></trkpt><trkpt lat="40.9540417" lon="14.3038583"><ele>31.0</ele><time>2026-04-04T07:16:51.009Z</time></trkpt><trkpt lat="40.95411" lon="14.303885"><ele>31.000000000000004</ele><time>2026-04-04T07:16:52.011Z</time></trkpt><trkpt lat="40.95418" lon="14.3039117"><ele>31.0</ele><time>2026-04-04T07:16:53.008Z</time></trkpt><trkpt lat="40.954255" lon="14.30393"><ele>31.0</ele><time>2026-04-04T07:16:54.009Z</time></trkpt><trkpt lat="40.9543283" lon="14.3039533"><ele>30.571428571428573</ele><time>2026-04-04T07:16:55.01Z</time></trkpt><trkpt lat="40.954405" lon="14.30397"><ele>30.142857142857146</ele><time>2026-04-04T07:16:56.009Z</time></trkpt><trkpt lat="40.9544767" lon="14.3039867"><ele>29.714285714285715</ele><time>2026-04-04T07:16:57.009Z</time></trkpt><trkpt lat="40.9545483" lon="14.3040033"><ele>29.285714285714285</ele><time>2026-04-04T07:16:58.01Z</time></trkpt><trkpt lat="40.9546183" lon="14.3040217"><ele>28.857142857142858</ele><time>2026-04-04T07:16:59.008Z</time></trkpt><trkpt lat="40.95469" lon="14.30404"><ele>28.42857142857143</ele><time>2026-04-04T07:17:00.011Z</time></trkpt><trkpt lat="40.9547583" lon="14.3040617"><ele>28.0</ele><time>2026-04-04T07:17:01.01Z</time></trkpt><trkpt lat="40.954825" lon="14.3040867"><ele>28.000000000000004</ele><time>2026-04-04T07:17:02.01Z</time></trkpt><trkpt lat="40.9548933" lon="14.3041133"><ele>28.0</ele><time>2026-04-04T07:17:03.009Z</time></trkpt><trkpt lat="40.9549617" lon="14.3041433"><ele>28.0</ele><time>2026-04-04T07:17:04.009Z</time></trkpt><trkpt lat="40.9550283" lon="14.3041683"><ele>28.0</ele><time>2026-04-04T07:17:05.01Z</time></trkpt><trkpt lat="40.9550917" lon="14.3041983"><ele>28.000000000000004</ele><time>2026-04-04T07:17:06.009Z</time></trkpt><trkpt lat="40.9552117" lon="14.3042483"><ele>28.0</ele><time>2026-04-04T07:17:08.008Z</time></trkpt><trkpt lat="40.9553233" lon="14.3042983"><ele>28.0</ele><time>2026-04-04T07:17:10.007Z</time></trkpt><trkpt lat="40.9553867" lon="14.3043433"><ele>27.999999999999996</ele><time>2026-04-04T07:17:11.009Z</time></trkpt><trkpt lat="40.9555067" lon="14.304385"><ele>27.999999999999996</ele><time>2026-04-04T07:17:13.009Z</time></trkpt><trkpt lat="40.9556267" lon="14.3044233"><ele>28.0</ele><time>2026-04-04T07:17:15.009Z</time></trkpt><trkpt lat="40.95569" lon="14.3044433"><ele>28.0</ele><time>2026-04-04T07:17:16.012Z</time></trkpt><trkpt lat="40.955755" lon="14.3044633"><ele>28.000000000000004</ele><time>2026-04-04T07:17:17.009Z</time></trkpt><trkpt lat="40.9558167" lon="14.3044867"><ele>28.0</ele><time>2026-04-04T07:17:18.01Z</time></trkpt><trkpt lat="40.95593" lon="14.304515"><ele>28.0</ele><time>2026-04-04T07:17:20.01Z</time></trkpt><trkpt lat="40.9560067" lon="14.304535"><ele>28.0</ele><time>2026-04-04T07:17:22.011Z</time></trkpt><trkpt lat="40.9560983" lon="14.3045683"><ele>28.000000000000004</ele><time>2026-04-04T07:17:25.009Z</time></trkpt><trkpt lat="40.9561683" lon="14.304595"><ele>28.0</ele><time>2026-04-04T07:17:27.009Z</time></trkpt><trkpt lat="40.9562517" lon="14.304625"><ele>28.166666666666668</ele><time>2026-04-04T07:17:29.009Z</time></trkpt><trkpt lat="40.9563417" lon="14.3046467"><ele>28.333333333333336</ele><time>2026-04-04T07:17:31.009Z</time></trkpt><trkpt lat="40.956435" lon="14.30467"><ele>28.5</ele><time>2026-04-04T07:17:33.009Z</time></trkpt><trkpt lat="40.9565217" lon="14.3046983"><ele>28.666666666666664</ele><time>2026-04-04T07:17:35.009Z</time></trkpt><trkpt lat="40.9565917" lon="14.304715"><ele>28.833333333333332</ele><time>2026-04-04T07:17:37.009Z</time></trkpt><trkpt lat="40.9566633" lon="14.3047467"><ele>29.0</ele><time>2026-04-04T07:17:40.01Z</time></trkpt><trkpt lat="40.956745" lon="14.304795"><ele>28.999999999999996</ele><time>2026-04-04T07:17:43.009Z</time></trkpt><trkpt lat="40.9568217" lon="14.3048433"><ele>29.0</ele><time>2026-04-04T07:17:45.008Z</time></trkpt><trkpt lat="40.9569183" lon="14.304935"><ele>29.0</ele><time>2026-04-04T07:17:47.008Z</time></trkpt><trkpt lat="40.95697" lon="14.30499"><ele>29.0</ele><time>2026-04-04T07:17:48.009Z</time></trkpt><trkpt lat="40.9570267" lon="14.3050517"><ele>28.999999999999996</ele><time>2026-04-04T07:17:49.009Z</time></trkpt><trkpt lat="40.9570883" lon="14.30511"><ele>29.0</ele><time>2026-04-04T07:17:50.009Z</time></trkpt><trkpt lat="40.9571533" lon="14.30517"><ele>28.999999999999996</ele><time>2026-04-04T07:17:51.007Z</time></trkpt><trkpt lat="40.957215" lon="14.3052317"><ele>29.0</ele><time>2026-04-04T07:17:52.008Z</time></trkpt><trkpt lat="40.95728" lon="14.3052967"><ele>29.0</ele><time>2026-04-04T07:17:53.008Z</time></trkpt><trkpt lat="40.957345" lon="14.305355"><ele>29.0</ele><time>2026-04-04T07:17:54.009Z</time></trkpt><trkpt lat="40.95741" lon="14.3054133"><ele>28.999999999999996</ele><time>2026-04-04T07:17:55.01Z</time></trkpt><trkpt lat="40.95747" lon="14.3054717"><ele>29.0</ele><time>2026-04-04T07:17:56.01Z</time></trkpt><trkpt lat="40.957535" lon="14.3055283"><ele>28.999999999999996</ele><time>2026-04-04T07:17:57.009Z</time></trkpt><trkpt lat="40.9575967" lon="14.305585"><ele>29.0</ele><time>2026-04-04T07:17:58.009Z</time></trkpt><trkpt lat="40.957655" lon="14.305645"><ele>29.0</ele><time>2026-04-04T07:17:59.008Z</time></trkpt><trkpt lat="40.957715" lon="14.305705"><ele>29.0</ele><time>2026-04-04T07:18:00.009Z</time></trkpt><trkpt lat="40.9577767" lon="14.30577"><ele>28.999999999999996</ele><time>2026-04-04T07:18:01.01Z</time></trkpt><trkpt lat="40.9578383" lon="14.3058367"><ele>29.0</ele><time>2026-04-04T07:18:02.009Z</time></trkpt><trkpt lat="40.9579" lon="14.305895"><ele>28.999999999999996</ele><time>2026-04-04T07:18:03.008Z</time></trkpt><trkpt lat="40.95796" lon="14.3059567"><ele>29.0</ele><time>2026-04-04T07:18:04.009Z</time></trkpt><trkpt lat="40.9580233" lon="14.3060183"><ele>29.0</ele><time>2026-04-04T07:18:05.011Z</time></trkpt><trkpt lat="40.9580883" lon="14.3060767"><ele>29.0</ele><time>2026-04-04T07:18:06.01Z</time></trkpt><trkpt lat="40.9581467" lon="14.3061317"><ele>28.999999999999996</ele><time>2026-04-04T07:18:07.009Z</time></trkpt><trkpt lat="40.9581967" lon="14.3061933"><ele>29.0</ele><time>2026-04-04T07:18:08.009Z</time></trkpt><trkpt lat="40.9582467" lon="14.30627"><ele>29.000000000000004</ele><time>2026-04-04T07:18:09.009Z</time></trkpt><trkpt lat="40.9583017" lon="14.30634"><ele>29.0</ele><time>2026-04-04T07:18:10.009Z</time></trkpt><trkpt lat="40.9583567" lon="14.3064033"><ele>29.000000000000004</ele><time>2026-04-04T07:18:11.009Z</time></trkpt><trkpt lat="40.9584133" lon="14.3064617"><ele>29.000000000000004</ele><time>2026-04-04T07:18:12.009Z</time></trkpt><trkpt lat="40.9584683" lon="14.3065117"><ele>29.0</ele><time>2026-04-04T07:18:13.009Z</time></trkpt><trkpt lat="40.958525" lon="14.3065683"><ele>29.000000000000004</ele><time>2026-04-04T07:18:14.009Z</time></trkpt><trkpt lat="40.9585817" lon="14.3066167"><ele>29.000000000000004</ele><time>2026-04-04T07:18:15.01Z</time></trkpt><trkpt lat="40.95865" lon="14.3066517"><ele>28.85714285714286</ele><time>2026-04-04T07:18:16.008Z</time></trkpt><trkpt lat="40.9587167" lon="14.3066983"><ele>28.714285714285715</ele><time>2026-04-04T07:18:17.008Z</time></trkpt><trkpt lat="40.9587883" lon="14.3067317"><ele>28.571428571428573</ele><time>2026-04-04T07:18:18.007Z</time></trkpt><trkpt lat="40.9588567" lon="14.30676"><ele>28.42857142857143</ele><time>2026-04-04T07:18:19.008Z</time></trkpt><trkpt lat="40.9589233" lon="14.3067883"><ele>28.285714285714285</ele><time>2026-04-04T07:18:20.008Z</time></trkpt><trkpt lat="40.95899" lon="14.30681"><ele>28.142857142857142</ele><time>2026-04-04T07:18:21.008Z</time></trkpt><trkpt lat="40.9590517" lon="14.3068283"><ele>28.0</ele><time>2026-04-04T07:18:22.007Z</time></trkpt><trkpt lat="40.9591167" lon="14.3068467"><ele>28.000000000000004</ele><time>2026-04-04T07:18:23.007Z</time></trkpt><trkpt lat="40.9591817" lon="14.3068583"><ele>28.0</ele><time>2026-04-04T07:18:24.009Z</time></trkpt><trkpt lat="40.9592483" lon="14.3068667"><ele>28.0</ele><time>2026-04-04T07:18:25.008Z</time></trkpt><trkpt lat="40.9593117" lon="14.3068633"><ele>28.0</ele><time>2026-04-04T07:18:26.008Z</time></trkpt><trkpt lat="40.959375" lon="14.30686"><ele>28.000000000000004</ele><time>2026-04-04T07:18:27.009Z</time></trkpt><trkpt lat="40.9594933" lon="14.30688"><ele>28.0</ele><time>2026-04-04T07:18:29.009Z</time></trkpt><trkpt lat="40.9596033" lon="14.3069217"><ele>27.714285714285715</ele><time>2026-04-04T07:18:31.007Z</time></trkpt><trkpt lat="40.959665" lon="14.30694"><ele>27.42857142857143</ele><time>2026-04-04T07:18:32.011Z</time></trkpt><trkpt lat="40.9597283" lon="14.3069567"><ele>27.142857142857142</ele><time>2026-04-04T07:18:33.009Z</time></trkpt><trkpt lat="40.9597933" lon="14.3069717"><ele>26.857142857142858</ele><time>2026-04-04T07:18:34.008Z</time></trkpt><trkpt lat="40.9598583" lon="14.306985"><ele>26.571428571428573</ele><time>2026-04-04T07:18:35.009Z</time></trkpt><trkpt lat="40.9599267" lon="14.307"><ele>26.285714285714285</ele><time>2026-04-04T07:18:36.008Z</time></trkpt><trkpt lat="40.959995" lon="14.307015"><ele>26.0</ele><time>2026-04-04T07:18:37.01Z</time></trkpt><trkpt lat="40.9600617" lon="14.3070317"><ele>26.0</ele><time>2026-04-04T07:18:38.009Z</time></trkpt><trkpt lat="40.96013" lon="14.3070433"><ele>26.0</ele><time>2026-04-04T07:18:39.008Z</time></trkpt><trkpt lat="40.9601983" lon="14.3070583"><ele>26.0</ele><time>2026-04-04T07:18:40.007Z</time></trkpt><trkpt lat="40.9602667" lon="14.307075"><ele>26.0</ele><time>2026-04-04T07:18:41.009Z</time></trkpt><trkpt lat="40.9603317" lon="14.3070933"><ele>26.0</ele><time>2026-04-04T07:18:42.009Z</time></trkpt><trkpt lat="40.9603967" lon="14.3071067"><ele>26.0</ele><time>2026-04-04T07:18:43.009Z</time></trkpt><trkpt lat="40.9604583" lon="14.3071317"><ele>26.0</ele><time>2026-04-04T07:18:44.009Z</time></trkpt><trkpt lat="40.9605683" lon="14.3072067"><ele>26.0</ele><time>2026-04-04T07:18:46.007Z</time></trkpt><trkpt lat="40.9606783" lon="14.30728"><ele>26.0</ele><time>2026-04-04T07:18:48.01Z</time></trkpt><trkpt lat="40.9607817" lon="14.307305"><ele>26.0</ele><time>2026-04-04T07:18:50.007Z</time></trkpt><trkpt lat="40.9608617" lon="14.30729"><ele>26.0</ele><time>2026-04-04T07:18:52.007Z</time></trkpt><trkpt lat="40.9609567" lon="14.3072917"><ele>26.0</ele><time>2026-04-04T07:18:54.007Z</time></trkpt><trkpt lat="40.9610667" lon="14.3073033"><ele>26.200000000000003</ele><time>2026-04-04T07:18:56.01Z</time></trkpt><trkpt lat="40.961175" lon="14.3073117"><ele>26.400000000000002</ele><time>2026-04-04T07:18:58.009Z</time></trkpt><trkpt lat="40.9612933" lon="14.307335"><ele>26.6</ele><time>2026-04-04T07:19:00.008Z</time></trkpt><trkpt lat="40.96142" lon="14.30736"><ele>26.8</ele><time>2026-04-04T07:19:02.008Z</time></trkpt><trkpt lat="40.96149" lon="14.3073683"><ele>27.0</ele><time>2026-04-04T07:19:03.009Z</time></trkpt><trkpt lat="40.9615567" lon="14.307365"><ele>27.0</ele><time>2026-04-04T07:19:04.009Z</time></trkpt><trkpt lat="40.96162" lon="14.3073633"><ele>27.0</ele><time>2026-04-04T07:19:05.009Z</time></trkpt><trkpt lat="40.9616867" lon="14.3073633"><ele>27.0</ele><time>2026-04-04T07:19:06.01Z</time></trkpt><trkpt lat="40.9617517" lon="14.307365"><ele>27.0</ele><time>2026-04-04T07:19:07.01Z</time></trkpt><trkpt lat="40.961815" lon="14.3073717"><ele>27.0</ele><time>2026-04-04T07:19:08.008Z</time></trkpt><trkpt lat="40.9618817" lon="14.307375"><ele>27.0</ele><time>2026-04-04T07:19:09.009Z</time></trkpt><trkpt lat="40.961945" lon="14.3073767"><ele>27.0</ele><time>2026-04-04T07:19:10.008Z</time></trkpt><trkpt lat="40.962065" lon="14.3073683"><ele>27.0</ele><time>2026-04-04T07:19:12.01Z</time></trkpt><trkpt lat="40.9621283" lon="14.30737"><ele>27.0</ele><time>2026-04-04T07:19:13.008Z</time></trkpt><trkpt lat="40.9621917" lon="14.3073717"><ele>27.0</ele><time>2026-04-04T07:19:14.009Z</time></trkpt><trkpt lat="40.962255" lon="14.3073633"><ele>27.0</ele><time>2026-04-04T07:19:15.009Z</time></trkpt><trkpt lat="40.96232" lon="14.3073567"><ele>27.0</ele><time>2026-04-04T07:19:16.007Z</time></trkpt><trkpt lat="40.9624467" lon="14.307335"><ele>27.0</ele><time>2026-04-04T07:19:18.009Z</time></trkpt><trkpt lat="40.9625117" lon="14.307325"><ele>27.0</ele><time>2026-04-04T07:19:19.007Z</time></trkpt><trkpt lat="40.9625767" lon="14.3073133"><ele>26.833333333333332</ele><time>2026-04-04T07:19:20.009Z</time></trkpt><trkpt lat="40.9626417" lon="14.3073033"><ele>26.666666666666664</ele><time>2026-04-04T07:19:21.009Z</time></trkpt><trkpt lat="40.96271" lon="14.3072967"><ele>26.5</ele><time>2026-04-04T07:19:22.01Z</time></trkpt><trkpt lat="40.96278" lon="14.3072867"><ele>26.333333333333332</ele><time>2026-04-04T07:19:23.009Z</time></trkpt><trkpt lat="40.9628467" lon="14.307275"><ele>26.166666666666664</ele><time>2026-04-04T07:19:24.009Z</time></trkpt><trkpt lat="40.9629717" lon="14.3072633"><ele>26.0</ele><time>2026-04-04T07:19:26.008Z</time></trkpt><trkpt lat="40.9630367" lon="14.3072567"><ele>26.0</ele><time>2026-04-04T07:19:27.009Z</time></trkpt><trkpt lat="40.963105" lon="14.3072517"><ele>26.0</ele><time>2026-04-04T07:19:28.007Z</time></trkpt><trkpt lat="40.963175" lon="14.3072483"><ele>26.0</ele><time>2026-04-04T07:19:29.01Z</time></trkpt><trkpt lat="40.9632467" lon="14.307245"><ele>26.0</ele><time>2026-04-04T07:19:30.009Z</time></trkpt><trkpt lat="40.9633183" lon="14.30724"><ele>26.0</ele><time>2026-04-04T07:19:31.009Z</time></trkpt><trkpt lat="40.9633917" lon="14.307235"><ele>26.0</ele><time>2026-04-04T07:19:32.01Z</time></trkpt><trkpt lat="40.963465" lon="14.307225"><ele>26.0</ele><time>2026-04-04T07:19:33.009Z</time></trkpt><trkpt lat="40.9635383" lon="14.3072167"><ele>25.57142857142857</ele><time>2026-04-04T07:19:34.007Z</time></trkpt><trkpt lat="40.9636083" lon="14.30721"><ele>25.142857142857146</ele><time>2026-04-04T07:19:35.009Z</time></trkpt><trkpt lat="40.96368" lon="14.3072017"><ele>24.714285714285715</ele><time>2026-04-04T07:19:36.01Z</time></trkpt><trkpt lat="40.96375" lon="14.307195"><ele>24.285714285714285</ele><time>2026-04-04T07:19:37.009Z</time></trkpt><trkpt lat="40.9638217" lon="14.3071883"><ele>23.857142857142854</ele><time>2026-04-04T07:19:38.01Z</time></trkpt><trkpt lat="40.9638917" lon="14.307185"><ele>23.42857142857143</ele><time>2026-04-04T07:19:39.008Z</time></trkpt><trkpt lat="40.9639617" lon="14.3071783"><ele>23.0</ele><time>2026-04-04T07:19:40.009Z</time></trkpt><trkpt lat="40.964035" lon="14.3071683"><ele>23.0</ele><time>2026-04-04T07:19:41.009Z</time></trkpt><trkpt lat="40.9641067" lon="14.3071617"><ele>23.0</ele><time>2026-04-04T07:19:42.008Z</time></trkpt><trkpt lat="40.9641783" lon="14.3071567"><ele>23.0</ele><time>2026-04-04T07:19:43.009Z</time></trkpt><trkpt lat="40.9642483" lon="14.3071517"><ele>23.0</ele><time>2026-04-04T07:19:44.009Z</time></trkpt><trkpt lat="40.9643167" lon="14.307145"><ele>23.0</ele><time>2026-04-04T07:19:45.008Z</time></trkpt><trkpt lat="40.9643833" lon="14.3071383"><ele>23.0</ele><time>2026-04-04T07:19:46.008Z</time></trkpt><trkpt lat="40.9644533" lon="14.30713"><ele>23.0</ele><time>2026-04-04T07:19:47.008Z</time></trkpt><trkpt lat="40.9645233" lon="14.307125"><ele>23.28571428571429</ele><time>2026-04-04T07:19:48.007Z</time></trkpt><trkpt lat="40.9645917" lon="14.3071133"><ele>23.57142857142857</ele><time>2026-04-04T07:19:49.008Z</time></trkpt><trkpt lat="40.96466" lon="14.3071"><ele>23.857142857142858</ele><time>2026-04-04T07:19:50.007Z</time></trkpt><trkpt lat="40.9647267" lon="14.3070917"><ele>24.142857142857146</ele><time>2026-04-04T07:19:51.009Z</time></trkpt><trkpt lat="40.9647933" lon="14.307085"><ele>24.42857142857143</ele><time>2026-04-04T07:19:52.009Z</time></trkpt><trkpt lat="40.9648583" lon="14.3070733"><ele>24.714285714285715</ele><time>2026-04-04T07:19:53.01Z</time></trkpt><trkpt lat="40.964925" lon="14.3070583"><ele>25.0</ele><time>2026-04-04T07:19:54.008Z</time></trkpt><trkpt lat="40.96499" lon="14.30704"><ele>25.000000000000004</ele><time>2026-04-04T07:19:55.008Z</time></trkpt><trkpt lat="40.9650567" lon="14.3070233"><ele>25.0</ele><time>2026-04-04T07:19:56.009Z</time></trkpt><trkpt lat="40.9651217" lon="14.3070033"><ele>25.0</ele><time>2026-04-04T07:19:57.008Z</time></trkpt><trkpt lat="40.9651917" lon="14.3069867"><ele>25.0</ele><time>2026-04-04T07:19:58.008Z</time></trkpt><trkpt lat="40.9652633" lon="14.3069717"><ele>25.0</ele><time>2026-04-04T07:19:59.008Z</time></trkpt><trkpt lat="40.9653317" lon="14.3069617"><ele>25.000000000000004</ele><time>2026-04-04T07:20:00.009Z</time></trkpt><trkpt lat="40.9653983" lon="14.3069533"><ele>25.0</ele><time>2026-04-04T07:20:01.009Z</time></trkpt><trkpt lat="40.965465" lon="14.30694"><ele>25.000000000000004</ele><time>2026-04-04T07:20:02.008Z</time></trkpt><trkpt lat="40.9655333" lon="14.306925"><ele>25.0</ele><time>2026-04-04T07:20:03.009Z</time></trkpt><trkpt lat="40.9656017" lon="14.3069167"><ele>25.0</ele><time>2026-04-04T07:20:04.01Z</time></trkpt><trkpt lat="40.96567" lon="14.3069217"><ele>25.0</ele><time>2026-04-04T07:20:05.01Z</time></trkpt><trkpt lat="40.9657383" lon="14.3069367"><ele>25.0</ele><time>2026-04-04T07:20:06.007Z</time></trkpt><trkpt lat="40.9658033" lon="14.30695"><ele>25.000000000000004</ele><time>2026-04-04T07:20:07.01Z</time></trkpt><trkpt lat="40.96587" lon="14.306965"><ele>25.0</ele><time>2026-04-04T07:20:08.01Z</time></trkpt><trkpt lat="40.965935" lon="14.3069833"><ele>25.0</ele><time>2026-04-04T07:20:09.009Z</time></trkpt><trkpt lat="40.9659983" lon="14.3070033"><ele>25.0</ele><time>2026-04-04T07:20:10.009Z</time></trkpt><trkpt lat="40.9661117" lon="14.30705"><ele>25.0</ele><time>2026-04-04T07:20:12.008Z</time></trkpt><trkpt lat="40.96622" lon="14.3071"><ele>25.0</ele><time>2026-04-04T07:20:14.008Z</time></trkpt><trkpt lat="40.9663267" lon="14.3071517"><ele>25.0</ele><time>2026-04-04T07:20:16.009Z</time></trkpt><trkpt lat="40.9664417" lon="14.3072"><ele>25.0</ele><time>2026-04-04T07:20:18.007Z</time></trkpt><trkpt lat="40.9665517" lon="14.30726"><ele>25.0</ele><time>2026-04-04T07:20:20.009Z</time></trkpt><trkpt lat="40.9666633" lon="14.3073217"><ele>25.0</ele><time>2026-04-04T07:20:22.008Z</time></trkpt><trkpt lat="40.96678" lon="14.3073883"><ele>25.0</ele><time>2026-04-04T07:20:24.011Z</time></trkpt><trkpt lat="40.9668417" lon="14.30742"><ele>25.0</ele><time>2026-04-04T07:20:25.007Z</time></trkpt><trkpt lat="40.9669033" lon="14.3074483"><ele>24.833333333333336</ele><time>2026-04-04T07:20:26.006Z</time></trkpt><trkpt lat="40.966965" lon="14.30748"><ele>24.666666666666668</ele><time>2026-04-04T07:20:27.008Z</time></trkpt><trkpt lat="40.967025" lon="14.307515"><ele>24.5</ele><time>2026-04-04T07:20:28.007Z</time></trkpt><trkpt lat="40.967085" lon="14.3075467"><ele>24.333333333333336</ele><time>2026-04-04T07:20:29.008Z</time></trkpt><trkpt lat="40.9671467" lon="14.307575"><ele>24.166666666666668</ele><time>2026-04-04T07:20:30.008Z</time></trkpt><trkpt lat="40.9672617" lon="14.3076267"><ele>24.0</ele><time>2026-04-04T07:20:32.01Z</time></trkpt><trkpt lat="40.9673767" lon="14.30767"><ele>24.0</ele><time>2026-04-04T07:20:34.007Z</time></trkpt><trkpt lat="40.9674933" lon="14.3077233"><ele>24.0</ele><time>2026-04-04T07:20:36.007Z</time></trkpt><trkpt lat="40.9676117" lon="14.3077783"><ele>24.0</ele><time>2026-04-04T07:20:38.007Z</time></trkpt><trkpt lat="40.967675" lon="14.307805"><ele>24.0</ele><time>2026-04-04T07:20:39.009Z</time></trkpt><trkpt lat="40.9677367" lon="14.3078333"><ele>24.0</ele><time>2026-04-04T07:20:40.009Z</time></trkpt><trkpt lat="40.9677983" lon="14.3078667"><ele>24.0</ele><time>2026-04-04T07:20:41.009Z</time></trkpt><trkpt lat="40.967865" lon="14.3078983"><ele>24.285714285714285</ele><time>2026-04-04T07:20:42.009Z</time></trkpt><trkpt lat="40.9679317" lon="14.30793"><ele>24.57142857142857</ele><time>2026-04-04T07:20:43.009Z</time></trkpt><trkpt lat="40.968" lon="14.3079567"><ele>24.857142857142854</ele><time>2026-04-04T07:20:44.009Z</time></trkpt><trkpt lat="40.9680667" lon="14.307985"><ele>25.142857142857142</ele><time>2026-04-04T07:20:45.009Z</time></trkpt><trkpt lat="40.96813" lon="14.3080133"><ele>25.42857142857143</ele><time>2026-04-04T07:20:46.007Z</time></trkpt><trkpt lat="40.9681933" lon="14.3080417"><ele>25.71428571428571</ele><time>2026-04-04T07:20:47.008Z</time></trkpt><trkpt lat="40.9682567" lon="14.308065"><ele>26.0</ele><time>2026-04-04T07:20:48.008Z</time></trkpt><trkpt lat="40.96832" lon="14.3080917"><ele>25.857142857142858</ele><time>2026-04-04T07:20:49.007Z</time></trkpt><trkpt lat="40.9683867" lon="14.3081167"><ele>25.714285714285715</ele><time>2026-04-04T07:20:50.007Z</time></trkpt><trkpt lat="40.96845" lon="14.3081383"><ele>25.571428571428573</ele><time>2026-04-04T07:20:51.007Z</time></trkpt><trkpt lat="40.9685167" lon="14.3081567"><ele>25.42857142857143</ele><time>2026-04-04T07:20:52.008Z</time></trkpt><trkpt lat="40.968585" lon="14.308175"><ele>25.285714285714285</ele><time>2026-04-04T07:20:53.008Z</time></trkpt><trkpt lat="40.9686517" lon="14.3081983"><ele>25.142857142857146</ele><time>2026-04-04T07:20:54.012Z</time></trkpt><trkpt lat="40.9687183" lon="14.3082167"><ele>25.0</ele><time>2026-04-04T07:20:55.01Z</time></trkpt><trkpt lat="40.9687867" lon="14.30823"><ele>25.000000000000004</ele><time>2026-04-04T07:20:56.01Z</time></trkpt><trkpt lat="40.968855" lon="14.3082433"><ele>25.0</ele><time>2026-04-04T07:20:57.007Z</time></trkpt><trkpt lat="40.96893" lon="14.3082567"><ele>25.0</ele><time>2026-04-04T07:20:58.008Z</time></trkpt><trkpt lat="40.9690017" lon="14.30827"><ele>25.0</ele><time>2026-04-04T07:20:59.011Z</time></trkpt><trkpt lat="40.9690767" lon="14.30828"><ele>25.0</ele><time>2026-04-04T07:21:00.008Z</time></trkpt><trkpt lat="40.9691517" lon="14.3082867"><ele>25.000000000000004</ele><time>2026-04-04T07:21:01.006Z</time></trkpt><trkpt lat="40.9692267" lon="14.3082867"><ele>25.0</ele><time>2026-04-04T07:21:02.007Z</time></trkpt><trkpt lat="40.9693" lon="14.3082917"><ele>24.857142857142858</ele><time>2026-04-04T07:21:03.008Z</time></trkpt><trkpt lat="40.9693767" lon="14.3082983"><ele>24.714285714285715</ele><time>2026-04-04T07:21:04.008Z</time></trkpt><trkpt lat="40.9694483" lon="14.3083083"><ele>24.57142857142857</ele><time>2026-04-04T07:21:05.008Z</time></trkpt><trkpt lat="40.96952" lon="14.3083167"><ele>24.42857142857143</ele><time>2026-04-04T07:21:06.008Z</time></trkpt><trkpt lat="40.9695933" lon="14.3083233"><ele>24.285714285714285</ele><time>2026-04-04T07:21:07.007Z</time></trkpt><trkpt lat="40.9696633" lon="14.3083233"><ele>24.142857142857142</ele><time>2026-04-04T07:21:08.007Z</time></trkpt><trkpt lat="40.9697317" lon="14.308325"><ele>24.0</ele><time>2026-04-04T07:21:09.007Z</time></trkpt><trkpt lat="40.9698033" lon="14.3083283"><ele>23.999999999999996</ele><time>2026-04-04T07:21:10.009Z</time></trkpt><trkpt lat="40.96987" lon="14.30833"><ele>24.0</ele><time>2026-04-04T07:21:11.007Z</time></trkpt><trkpt lat="40.9699433" lon="14.3083383"><ele>24.0</ele><time>2026-04-04T07:21:12.008Z</time></trkpt><trkpt lat="40.9700133" lon="14.3083483"><ele>24.0</ele><time>2026-04-04T07:21:13.007Z</time></trkpt><trkpt lat="40.9700817" lon="14.3083583"><ele>24.0</ele><time>2026-04-04T07:21:14.007Z</time></trkpt><trkpt lat="40.9701533" lon="14.308365"><ele>23.999999999999996</ele><time>2026-04-04T07:21:15.007Z</time></trkpt><trkpt lat="40.9702233" lon="14.3083733"><ele>24.0</ele><time>2026-04-04T07:21:16.009Z</time></trkpt><trkpt lat="40.970295" lon="14.30838"><ele>23.857142857142854</ele><time>2026-04-04T07:21:17.007Z</time></trkpt><trkpt lat="40.9703667" lon="14.3083867"><ele>23.714285714285715</ele><time>2026-04-04T07:21:18.007Z</time></trkpt><trkpt lat="40.970435" lon="14.3083917"><ele>23.57142857142857</ele><time>2026-04-04T07:21:19.007Z</time></trkpt><trkpt lat="40.9705017" lon="14.308405"><ele>23.428571428571427</ele><time>2026-04-04T07:21:20.008Z</time></trkpt><trkpt lat="40.97057" lon="14.3084233"><ele>23.285714285714285</ele><time>2026-04-04T07:21:21.008Z</time></trkpt><trkpt lat="40.97064" lon="14.3084467"><ele>23.142857142857142</ele><time>2026-04-04T07:21:22.007Z</time></trkpt><trkpt lat="40.9707067" lon="14.308475"><ele>23.0</ele><time>2026-04-04T07:21:23.008Z</time></trkpt><trkpt lat="40.9707783" lon="14.3085017"><ele>23.0</ele><time>2026-04-04T07:21:24.007Z</time></trkpt><trkpt lat="40.9708417" lon="14.3085433"><ele>23.0</ele><time>2026-04-04T07:21:25.009Z</time></trkpt><trkpt lat="40.97091" lon="14.3085833"><ele>23.0</ele><time>2026-04-04T07:21:26.01Z</time></trkpt><trkpt lat="40.9709767" lon="14.3086267"><ele>23.0</ele><time>2026-04-04T07:21:27.007Z</time></trkpt><trkpt lat="40.971045" lon="14.3086717"><ele>23.0</ele><time>2026-04-04T07:21:28.01Z</time></trkpt><trkpt lat="40.9711117" lon="14.3087183"><ele>23.0</ele><time>2026-04-04T07:21:29.009Z</time></trkpt><trkpt lat="40.971175" lon="14.3087633"><ele>23.0</ele><time>2026-04-04T07:21:30.007Z</time></trkpt><trkpt lat="40.9712383" lon="14.3088083"><ele>23.0</ele><time>2026-04-04T07:21:31.007Z</time></trkpt><trkpt lat="40.9713" lon="14.30885"><ele>23.0</ele><time>2026-04-04T07:21:32.009Z</time></trkpt><trkpt lat="40.971365" lon="14.3088917"><ele>23.0</ele><time>2026-04-04T07:21:33.008Z</time></trkpt><trkpt lat="40.97143" lon="14.308935"><ele>23.0</ele><time>2026-04-04T07:21:34.007Z</time></trkpt><trkpt lat="40.971495" lon="14.3089783"><ele>23.0</ele><time>2026-04-04T07:21:35.01Z</time></trkpt><trkpt lat="40.97156" lon="14.3090167"><ele>23.0</ele><time>2026-04-04T07:21:36.009Z</time></trkpt><trkpt lat="40.971625" lon="14.3090583"><ele>23.0</ele><time>2026-04-04T07:21:37.01Z</time></trkpt><trkpt lat="40.9716933" lon="14.3091017"><ele>23.0</ele><time>2026-04-04T07:21:38.009Z</time></trkpt><trkpt lat="40.9717633" lon="14.3091433"><ele>23.0</ele><time>2026-04-04T07:21:39.01Z</time></trkpt><trkpt lat="40.9718317" lon="14.3091817"><ele>23.0</ele><time>2026-04-04T07:21:40.01Z</time></trkpt><trkpt lat="40.9718983" lon="14.30922"><ele>23.0</ele><time>2026-04-04T07:21:41.008Z</time></trkpt><trkpt lat="40.9719683" lon="14.3092533"><ele>23.0</ele><time>2026-04-04T07:21:42.009Z</time></trkpt><trkpt lat="40.9720433" lon="14.3092833"><ele>23.0</ele><time>2026-04-04T07:21:43.007Z</time></trkpt><trkpt lat="40.972115" lon="14.309315"><ele>23.0</ele><time>2026-04-04T07:21:44.008Z</time></trkpt><trkpt lat="40.9721833" lon="14.3093433"><ele>23.0</ele><time>2026-04-04T07:21:45.01Z</time></trkpt><trkpt lat="40.972255" lon="14.3093733"><ele>23.0</ele><time>2026-04-04T07:21:46.01Z</time></trkpt><trkpt lat="40.97233" lon="14.3093983"><ele>23.0</ele><time>2026-04-04T07:21:47.007Z</time></trkpt><trkpt lat="40.9724033" lon="14.30942"><ele>23.0</ele><time>2026-04-04T07:21:48.009Z</time></trkpt><trkpt lat="40.9724767" lon="14.3094467"><ele>23.0</ele><time>2026-04-04T07:21:49.008Z</time></trkpt><trkpt lat="40.97255" lon="14.3094733"><ele>22.833333333333336</ele><time>2026-04-04T07:21:50.009Z</time></trkpt><trkpt lat="40.9726233" lon="14.3095033"><ele>22.666666666666668</ele><time>2026-04-04T07:21:51.008Z</time></trkpt><trkpt lat="40.9726983" lon="14.3095333"><ele>22.5</ele><time>2026-04-04T07:21:52.008Z</time></trkpt><trkpt lat="40.9727733" lon="14.3095617"><ele>22.333333333333332</ele><time>2026-04-04T07:21:53.009Z</time></trkpt><trkpt lat="40.9728483" lon="14.3095883"><ele>22.166666666666664</ele><time>2026-04-04T07:21:54.009Z</time></trkpt><trkpt lat="40.9729217" lon="14.3096167"><ele>22.0</ele><time>2026-04-04T07:21:55.009Z</time></trkpt><trkpt lat="40.9729967" lon="14.309645"><ele>22.0</ele><time>2026-04-04T07:21:56.008Z</time></trkpt><trkpt lat="40.97307" lon="14.3096717"><ele>22.0</ele><time>2026-04-04T07:21:57.008Z</time></trkpt><trkpt lat="40.973145" lon="14.3097"><ele>22.0</ele><time>2026-04-04T07:21:58.007Z</time></trkpt><trkpt lat="40.973215" lon="14.3097233"><ele>22.0</ele><time>2026-04-04T07:21:59.009Z</time></trkpt><trkpt lat="40.9732817" lon="14.309745"><ele>22.0</ele><time>2026-04-04T07:22:00.011Z</time></trkpt><trkpt lat="40.97335" lon="14.3097717"><ele>22.0</ele><time>2026-04-04T07:22:01.007Z</time></trkpt><trkpt lat="40.9734183" lon="14.3097983"><ele>22.0</ele><time>2026-04-04T07:22:02.011Z</time></trkpt><trkpt lat="40.9734867" lon="14.309825"><ele>22.0</ele><time>2026-04-04T07:22:03.009Z</time></trkpt><trkpt lat="40.9735583" lon="14.30985"><ele>22.0</ele><time>2026-04-04T07:22:04.007Z</time></trkpt><trkpt lat="40.9736267" lon="14.3098633"><ele>22.0</ele><time>2026-04-04T07:22:05.008Z</time></trkpt><trkpt lat="40.9737" lon="14.30987"><ele>22.0</ele><time>2026-04-04T07:22:06.009Z</time></trkpt><trkpt lat="40.973775" lon="14.3098767"><ele>22.0</ele><time>2026-04-04T07:22:07.01Z</time></trkpt><trkpt lat="40.9738433" lon="14.3098883"><ele>22.0</ele><time>2026-04-04T07:22:08.011Z</time></trkpt><trkpt lat="40.97392" lon="14.3098917"><ele>22.0</ele><time>2026-04-04T07:22:09.008Z</time></trkpt><trkpt lat="40.9739967" lon="14.3098883"><ele>22.0</ele><time>2026-04-04T07:22:10.01Z</time></trkpt><trkpt lat="40.974065" lon="14.30989"><ele>22.0</ele><time>2026-04-04T07:22:11.01Z</time></trkpt><trkpt lat="40.9741383" lon="14.3098867"><ele>22.0</ele><time>2026-04-04T07:22:12.011Z</time></trkpt><trkpt lat="40.9742133" lon="14.3098833"><ele>22.0</ele><time>2026-04-04T07:22:13.01Z</time></trkpt><trkpt lat="40.974285" lon="14.3098833"><ele>22.0</ele><time>2026-04-04T07:22:14.012Z</time></trkpt><trkpt lat="40.9743583" lon="14.3098767"><ele>22.0</ele><time>2026-04-04T07:22:15.009Z</time></trkpt><trkpt lat="40.9744317" lon="14.30987"><ele>22.0</ele><time>2026-04-04T07:22:16.01Z</time></trkpt><trkpt lat="40.9745033" lon="14.309865"><ele>22.0</ele><time>2026-04-04T07:22:17.01Z</time></trkpt><trkpt lat="40.97458" lon="14.3098667"><ele>22.0</ele><time>2026-04-04T07:22:18.01Z</time></trkpt><trkpt lat="40.9746583" lon="14.3098683"><ele>22.0</ele><time>2026-04-04T07:22:19.011Z</time></trkpt><trkpt lat="40.974735" lon="14.3098667"><ele>22.0</ele><time>2026-04-04T07:22:20.01Z</time></trkpt><trkpt lat="40.97481" lon="14.3098667"><ele>22.0</ele><time>2026-04-04T07:22:21.01Z</time></trkpt><trkpt lat="40.974885" lon="14.3098667"><ele>22.0</ele><time>2026-04-04T07:22:22.01Z</time></trkpt><trkpt lat="40.97496" lon="14.3098633"><ele>22.0</ele><time>2026-04-04T07:22:23.01Z</time></trkpt><trkpt lat="40.9750333" lon="14.3098617"><ele>22.0</ele><time>2026-04-04T07:22:24.01Z</time></trkpt><trkpt lat="40.9751067" lon="14.3098617"><ele>22.0</ele><time>2026-04-04T07:22:25.01Z</time></trkpt><trkpt lat="40.9751767" lon="14.3098583"><ele>22.0</ele><time>2026-04-04T07:22:26.007Z</time></trkpt><trkpt lat="40.975245" lon="14.3098533"><ele>22.0</ele><time>2026-04-04T07:22:27.011Z</time></trkpt><trkpt lat="40.975315" lon="14.309845"><ele>22.0</ele><time>2026-04-04T07:22:28.011Z</time></trkpt><trkpt lat="40.975385" lon="14.3098317"><ele>22.0</ele><time>2026-04-04T07:22:29.012Z</time></trkpt><trkpt lat="40.9754533" lon="14.3098167"><ele>22.0</ele><time>2026-04-04T07:22:30.01Z</time></trkpt><trkpt lat="40.9755217" lon="14.3098033"><ele>22.0</ele><time>2026-04-04T07:22:31.01Z</time></trkpt><trkpt lat="40.9755883" lon="14.30978"><ele>22.0</ele><time>2026-04-04T07:22:32.01Z</time></trkpt><trkpt lat="40.9756583" lon="14.309755"><ele>22.0</ele><time>2026-04-04T07:22:33.01Z</time></trkpt><trkpt lat="40.9757217" lon="14.3097233"><ele>22.0</ele><time>2026-04-04T07:22:34.01Z</time></trkpt><trkpt lat="40.9757883" lon="14.3096883"><ele>22.0</ele><time>2026-04-04T07:22:35.011Z</time></trkpt><trkpt lat="40.975855" lon="14.309655"><ele>22.0</ele><time>2026-04-04T07:22:36.012Z</time></trkpt><trkpt lat="40.975925" lon="14.30962"><ele>22.0</ele><time>2026-04-04T07:22:37.01Z</time></trkpt><trkpt lat="40.975995" lon="14.309585"><ele>22.0</ele><time>2026-04-04T07:22:38.009Z</time></trkpt><trkpt lat="40.9760633" lon="14.30955"><ele>22.0</ele><time>2026-04-04T07:22:39.008Z</time></trkpt><trkpt lat="40.9761333" lon="14.3095117"><ele>22.0</ele><time>2026-04-04T07:22:40.007Z</time></trkpt><trkpt lat="40.9762" lon="14.3094733"><ele>22.0</ele><time>2026-04-04T07:22:41.009Z</time></trkpt><trkpt lat="40.9762683" lon="14.3094417"><ele>22.0</ele><time>2026-04-04T07:22:42.009Z</time></trkpt><trkpt lat="40.9763367" lon="14.309405"><ele>22.0</ele><time>2026-04-04T07:22:43.009Z</time></trkpt><trkpt lat="40.9764033" lon="14.3093617"><ele>22.0</ele><time>2026-04-04T07:22:44.009Z</time></trkpt><trkpt lat="40.9764667" lon="14.3093233"><ele>22.0</ele><time>2026-04-04T07:22:45.008Z</time></trkpt><trkpt lat="40.9765317" lon="14.3092833"><ele>22.0</ele><time>2026-04-04T07:22:46.01Z</time></trkpt><trkpt lat="40.9765967" lon="14.309245"><ele>22.0</ele><time>2026-04-04T07:22:47.007Z</time></trkpt><trkpt lat="40.9766633" lon="14.309205"><ele>22.0</ele><time>2026-04-04T07:22:48.009Z</time></trkpt><trkpt lat="40.97673" lon="14.3091667"><ele>22.0</ele><time>2026-04-04T07:22:49.007Z</time></trkpt><trkpt lat="40.9767983" lon="14.30913"><ele>22.0</ele><time>2026-04-04T07:22:50.007Z</time></trkpt><trkpt lat="40.976865" lon="14.3091"><ele>21.714285714285715</ele><time>2026-04-04T07:22:51.008Z</time></trkpt><trkpt lat="40.976935" lon="14.3090733"><ele>21.428571428571427</ele><time>2026-04-04T07:22:52.009Z</time></trkpt><trkpt lat="40.9770067" lon="14.3090517"><ele>21.142857142857142</ele><time>2026-04-04T07:22:53.009Z</time></trkpt><trkpt lat="40.9770783" lon="14.3090383"><ele>20.857142857142858</ele><time>2026-04-04T07:22:54.009Z</time></trkpt><trkpt lat="40.9771517" lon="14.3090317"><ele>20.571428571428573</ele><time>2026-04-04T07:22:55.008Z</time></trkpt><trkpt lat="40.9772267" lon="14.30904"><ele>20.285714285714285</ele><time>2026-04-04T07:22:56.011Z</time></trkpt><trkpt lat="40.9772967" lon="14.309065"><ele>20.0</ele><time>2026-04-04T07:22:57.01Z</time></trkpt><trkpt lat="40.9773683" lon="14.3090967"><ele>20.0</ele><time>2026-04-04T07:22:58.01Z</time></trkpt><trkpt lat="40.9774333" lon="14.309145"><ele>20.0</ele><time>2026-04-04T07:22:59.01Z</time></trkpt><trkpt lat="40.9775" lon="14.3091967"><ele>20.0</ele><time>2026-04-04T07:23:00.009Z</time></trkpt><trkpt lat="40.9775617" lon="14.3092567"><ele>20.0</ele><time>2026-04-04T07:23:01.009Z</time></trkpt><trkpt lat="40.9776167" lon="14.3093233"><ele>20.0</ele><time>2026-04-04T07:23:02.007Z</time></trkpt><trkpt lat="40.9776717" lon="14.309395"><ele>20.0</ele><time>2026-04-04T07:23:03.009Z</time></trkpt><trkpt lat="40.9777267" lon="14.3094617"><ele>20.0</ele><time>2026-04-04T07:23:04.008Z</time></trkpt><trkpt lat="40.9777817" lon="14.3095283"><ele>20.0</ele><time>2026-04-04T07:23:05.008Z</time></trkpt><trkpt lat="40.9778383" lon="14.309595"><ele>20.0</ele><time>2026-04-04T07:23:06.009Z</time></trkpt><trkpt lat="40.9778933" lon="14.3096617"><ele>20.0</ele><time>2026-04-04T07:23:07.009Z</time></trkpt><trkpt lat="40.9779483" lon="14.30973"><ele>20.0</ele><time>2026-04-04T07:23:08.01Z</time></trkpt><trkpt lat="40.978005" lon="14.309795"><ele>20.0</ele><time>2026-04-04T07:23:09.007Z</time></trkpt><trkpt lat="40.97806" lon="14.30986"><ele>20.0</ele><time>2026-04-04T07:23:10.007Z</time></trkpt><trkpt lat="40.978115" lon="14.309925"><ele>20.0</ele><time>2026-04-04T07:23:11.008Z</time></trkpt><trkpt lat="40.9781733" lon="14.3099867"><ele>20.0</ele><time>2026-04-04T07:23:12.008Z</time></trkpt><trkpt lat="40.9782333" lon="14.3100483"><ele>20.0</ele><time>2026-04-04T07:23:13.008Z</time></trkpt><trkpt lat="40.9782917" lon="14.3101083"><ele>20.0</ele><time>2026-04-04T07:23:14.007Z</time></trkpt><trkpt lat="40.9783533" lon="14.3101667"><ele>20.0</ele><time>2026-04-04T07:23:15.008Z</time></trkpt><trkpt lat="40.978415" lon="14.3102267"><ele>20.0</ele><time>2026-04-04T07:23:16.009Z</time></trkpt><trkpt lat="40.9784767" lon="14.3102883"><ele>20.0</ele><time>2026-04-04T07:23:17.008Z</time></trkpt><trkpt lat="40.9785383" lon="14.3103483"><ele>20.0</ele><time>2026-04-04T07:23:18.009Z</time></trkpt><trkpt lat="40.978605" lon="14.3104083"><ele>20.0</ele><time>2026-04-04T07:23:19.008Z</time></trkpt><trkpt lat="40.97867" lon="14.3104683"><ele>20.0</ele><time>2026-04-04T07:23:20.008Z</time></trkpt><trkpt lat="40.9787317" lon="14.3105283"><ele>20.0</ele><time>2026-04-04T07:23:21.009Z</time></trkpt><trkpt lat="40.9787933" lon="14.3105867"><ele>20.0</ele><time>2026-04-04T07:23:22.008Z</time></trkpt><trkpt lat="40.9788567" lon="14.3106433"><ele>20.142857142857142</ele><time>2026-04-04T07:23:23.008Z</time></trkpt><trkpt lat="40.97892" lon="14.3107017"><ele>20.285714285714285</ele><time>2026-04-04T07:23:24.008Z</time></trkpt><trkpt lat="40.97898" lon="14.31076"><ele>20.42857142857143</ele><time>2026-04-04T07:23:25.008Z</time></trkpt><trkpt lat="40.9790417" lon="14.3108167"><ele>20.57142857142857</ele><time>2026-04-04T07:23:26.008Z</time></trkpt><trkpt lat="40.9791" lon="14.3108783"><ele>20.714285714285715</ele><time>2026-04-04T07:23:27.009Z</time></trkpt><trkpt lat="40.9791633" lon="14.3109333"><ele>20.857142857142858</ele><time>2026-04-04T07:23:28.008Z</time></trkpt><trkpt lat="40.979225" lon="14.3109833"><ele>21.0</ele><time>2026-04-04T07:23:29.007Z</time></trkpt><trkpt lat="40.9792867" lon="14.3110367"><ele>21.0</ele><time>2026-04-04T07:23:30.008Z</time></trkpt><trkpt lat="40.97935" lon="14.3110917"><ele>21.0</ele><time>2026-04-04T07:23:31.008Z</time></trkpt><trkpt lat="40.9794117" lon="14.3111467"><ele>21.0</ele><time>2026-04-04T07:23:32.007Z</time></trkpt><trkpt lat="40.97947" lon="14.3112017"><ele>21.0</ele><time>2026-04-04T07:23:33.007Z</time></trkpt><trkpt lat="40.9795317" lon="14.3112533"><ele>21.0</ele><time>2026-04-04T07:23:34.008Z</time></trkpt><trkpt lat="40.9795933" lon="14.3113067"><ele>21.0</ele><time>2026-04-04T07:23:35.01Z</time></trkpt><trkpt lat="40.9796533" lon="14.311355"><ele>21.0</ele><time>2026-04-04T07:23:36.01Z</time></trkpt><trkpt lat="40.9797167" lon="14.3114067"><ele>21.0</ele><time>2026-04-04T07:23:37.007Z</time></trkpt><trkpt lat="40.9797783" lon="14.311455"><ele>21.0</ele><time>2026-04-04T07:23:38.007Z</time></trkpt><trkpt lat="40.97984" lon="14.3115067"><ele>21.0</ele><time>2026-04-04T07:23:39.008Z</time></trkpt><trkpt lat="40.9799017" lon="14.311555"><ele>21.0</ele><time>2026-04-04T07:23:40.007Z</time></trkpt><trkpt lat="40.9799633" lon="14.311605"><ele>21.0</ele><time>2026-04-04T07:23:41.007Z</time></trkpt><trkpt lat="40.9800267" lon="14.3116533"><ele>21.0</ele><time>2026-04-04T07:23:42.008Z</time></trkpt><trkpt lat="40.9800883" lon="14.3117"><ele>21.0</ele><time>2026-04-04T07:23:43.008Z</time></trkpt><trkpt lat="40.9801517" lon="14.311745"><ele>21.285714285714285</ele><time>2026-04-04T07:23:44.008Z</time></trkpt><trkpt lat="40.980215" lon="14.31179"><ele>21.57142857142857</ele><time>2026-04-04T07:23:45.008Z</time></trkpt><trkpt lat="40.9802817" lon="14.3118367"><ele>21.857142857142858</ele><time>2026-04-04T07:23:46.009Z</time></trkpt><trkpt lat="40.980345" lon="14.31188"><ele>22.142857142857142</ele><time>2026-04-04T07:23:47.009Z</time></trkpt><trkpt lat="40.9804133" lon="14.3119217"><ele>22.428571428571427</ele><time>2026-04-04T07:23:48.01Z</time></trkpt><trkpt lat="40.9804783" lon="14.3119617"><ele>22.714285714285715</ele><time>2026-04-04T07:23:49.009Z</time></trkpt><trkpt lat="40.9805433" lon="14.3120033"><ele>23.0</ele><time>2026-04-04T07:23:50.008Z</time></trkpt><trkpt lat="40.98061" lon="14.3120433"><ele>23.0</ele><time>2026-04-04T07:23:51.009Z</time></trkpt><trkpt lat="40.9806783" lon="14.3120817"><ele>23.0</ele><time>2026-04-04T07:23:52.008Z</time></trkpt><trkpt lat="40.980745" lon="14.3121217"><ele>23.0</ele><time>2026-04-04T07:23:53.008Z</time></trkpt><trkpt lat="40.9808117" lon="14.3121583"><ele>23.0</ele><time>2026-04-04T07:23:54.008Z</time></trkpt><trkpt lat="40.9808783" lon="14.3121933"><ele>23.0</ele><time>2026-04-04T07:23:55.008Z</time></trkpt><trkpt lat="40.980945" lon="14.31223"><ele>23.0</ele><time>2026-04-04T07:23:56.007Z</time></trkpt><trkpt lat="40.9810133" lon="14.312265"><ele>23.0</ele><time>2026-04-04T07:23:57.009Z</time></trkpt><trkpt lat="40.9810767" lon="14.3122983"><ele>22.714285714285715</ele><time>2026-04-04T07:23:58.008Z</time></trkpt><trkpt lat="40.9811417" lon="14.31233"><ele>22.428571428571427</ele><time>2026-04-04T07:23:59.008Z</time></trkpt><trkpt lat="40.9812067" lon="14.3123633"><ele>22.142857142857142</ele><time>2026-04-04T07:24:00.008Z</time></trkpt><trkpt lat="40.981275" lon="14.312395"><ele>21.857142857142858</ele><time>2026-04-04T07:24:01.008Z</time></trkpt><trkpt lat="40.9813433" lon="14.3124267"><ele>21.57142857142857</ele><time>2026-04-04T07:24:02.007Z</time></trkpt><trkpt lat="40.9814083" lon="14.3124583"><ele>21.285714285714285</ele><time>2026-04-04T07:24:03.009Z</time></trkpt><trkpt lat="40.9814767" lon="14.3124833"><ele>21.0</ele><time>2026-04-04T07:24:04.01Z</time></trkpt><trkpt lat="40.981545" lon="14.3125033"><ele>21.0</ele><time>2026-04-04T07:24:05.009Z</time></trkpt><trkpt lat="40.981615" lon="14.3125167"><ele>21.0</ele><time>2026-04-04T07:24:06.011Z</time></trkpt><trkpt lat="40.981685" lon="14.312525"><ele>21.0</ele><time>2026-04-04T07:24:07.01Z</time></trkpt><trkpt lat="40.981755" lon="14.3125333"><ele>21.0</ele><time>2026-04-04T07:24:08.01Z</time></trkpt><trkpt lat="40.981825" lon="14.3125417"><ele>21.0</ele><time>2026-04-04T07:24:09.009Z</time></trkpt><trkpt lat="40.9818983" lon="14.3125433"><ele>21.0</ele><time>2026-04-04T07:24:10.01Z</time></trkpt><trkpt lat="40.981975" lon="14.3125433"><ele>21.0</ele><time>2026-04-04T07:24:11.01Z</time></trkpt><trkpt lat="40.982055" lon="14.3125417"><ele>20.833333333333332</ele><time>2026-04-04T07:24:12.01Z</time></trkpt><trkpt lat="40.9821317" lon="14.31254"><ele>20.666666666666668</ele><time>2026-04-04T07:24:13.01Z</time></trkpt><trkpt lat="40.98221" lon="14.312535"><ele>20.5</ele><time>2026-04-04T07:24:14.01Z</time></trkpt><trkpt lat="40.9822867" lon="14.3125317"><ele>20.333333333333336</ele><time>2026-04-04T07:24:15.01Z</time></trkpt><trkpt lat="40.982365" lon="14.3125317"><ele>20.166666666666668</ele><time>2026-04-04T07:24:16.007Z</time></trkpt><trkpt lat="40.9824433" lon="14.3125283"><ele>20.0</ele><time>2026-04-04T07:24:17.007Z</time></trkpt><trkpt lat="40.98252" lon="14.3125283"><ele>20.0</ele><time>2026-04-04T07:24:18.008Z</time></trkpt><trkpt lat="40.9825983" lon="14.3125283"><ele>20.0</ele><time>2026-04-04T07:24:19.008Z</time></trkpt><trkpt lat="40.982675" lon="14.31253"><ele>20.0</ele><time>2026-04-04T07:24:20.01Z</time></trkpt><trkpt lat="40.982755" lon="14.3125317"><ele>20.0</ele><time>2026-04-04T07:24:21.008Z</time></trkpt><trkpt lat="40.9828383" lon="14.3125283"><ele>20.0</ele><time>2026-04-04T07:24:22.008Z</time></trkpt><trkpt lat="40.9829183" lon="14.3125267"><ele>20.0</ele><time>2026-04-04T07:24:23.007Z</time></trkpt><trkpt lat="40.9829983" lon="14.3125233"><ele>20.0</ele><time>2026-04-04T07:24:24.011Z</time></trkpt><trkpt lat="40.98308" lon="14.3125183"><ele>20.0</ele><time>2026-04-04T07:24:25.011Z</time></trkpt><trkpt lat="40.98316" lon="14.31251"><ele>20.0</ele><time>2026-04-04T07:24:26.011Z</time></trkpt><trkpt lat="40.9832383" lon="14.31249"><ele>20.0</ele><time>2026-04-04T07:24:27.01Z</time></trkpt><trkpt lat="40.9833133" lon="14.3124617"><ele>20.0</ele><time>2026-04-04T07:24:28.01Z</time></trkpt><trkpt lat="40.98339" lon="14.31243"><ele>20.0</ele><time>2026-04-04T07:24:29.01Z</time></trkpt><trkpt lat="40.9834617" lon="14.3123917"><ele>20.0</ele><time>2026-04-04T07:24:30.01Z</time></trkpt><trkpt lat="40.983535" lon="14.3123517"><ele>20.0</ele><time>2026-04-04T07:24:31.01Z</time></trkpt><trkpt lat="40.9836117" lon="14.31231"><ele>20.0</ele><time>2026-04-04T07:24:32.01Z</time></trkpt><trkpt lat="40.9836867" lon="14.3122683"><ele>20.0</ele><time>2026-04-04T07:24:33.011Z</time></trkpt><trkpt lat="40.9837617" lon="14.3122317"><ele>20.0</ele><time>2026-04-04T07:24:34.01Z</time></trkpt><trkpt lat="40.9838383" lon="14.3121933"><ele>20.0</ele><time>2026-04-04T07:24:35.009Z</time></trkpt><trkpt lat="40.983915" lon="14.3121567"><ele>20.0</ele><time>2026-04-04T07:24:36.008Z</time></trkpt><trkpt lat="40.98399" lon="14.3121183"><ele>20.0</ele><time>2026-04-04T07:24:37.01Z</time></trkpt><trkpt lat="40.9840717" lon="14.3120783"><ele>20.0</ele><time>2026-04-04T07:24:38.012Z</time></trkpt><trkpt lat="40.98415" lon="14.31204"><ele>20.0</ele><time>2026-04-04T07:24:39.01Z</time></trkpt><trkpt lat="40.9842283" lon="14.3119983"><ele>20.0</ele><time>2026-04-04T07:24:40.011Z</time></trkpt><trkpt lat="40.984305" lon="14.3119583"><ele>20.0</ele><time>2026-04-04T07:24:41.009Z</time></trkpt><trkpt lat="40.984385" lon="14.3119167"><ele>20.166666666666668</ele><time>2026-04-04T07:24:42.011Z</time></trkpt><trkpt lat="40.9844617" lon="14.3118783"><ele>20.333333333333336</ele><time>2026-04-04T07:24:43.007Z</time></trkpt><trkpt lat="40.98454" lon="14.31184"><ele>20.5</ele><time>2026-04-04T07:24:44.01Z</time></trkpt><trkpt lat="40.9846183" lon="14.3118017"><ele>20.666666666666668</ele><time>2026-04-04T07:24:45.01Z</time></trkpt><trkpt lat="40.9846967" lon="14.3117583"><ele>20.833333333333332</ele><time>2026-04-04T07:24:46.01Z</time></trkpt><trkpt lat="40.9847767" lon="14.3117183"><ele>21.0</ele><time>2026-04-04T07:24:47.007Z</time></trkpt><trkpt lat="40.984855" lon="14.31168"><ele>21.0</ele><time>2026-04-04T07:24:48.01Z</time></trkpt><trkpt lat="40.9849333" lon="14.3116433"><ele>21.0</ele><time>2026-04-04T07:24:49.008Z</time></trkpt><trkpt lat="40.9850133" lon="14.3116117"><ele>21.0</ele><time>2026-04-04T07:24:50.009Z</time></trkpt><trkpt lat="40.985095" lon="14.311585"><ele>21.0</ele><time>2026-04-04T07:24:51.007Z</time></trkpt><trkpt lat="40.9851783" lon="14.3115683"><ele>21.0</ele><time>2026-04-04T07:24:52.007Z</time></trkpt><trkpt lat="40.9852617" lon="14.3115617"><ele>21.0</ele><time>2026-04-04T07:24:53.01Z</time></trkpt><trkpt lat="40.985345" lon="14.3115583"><ele>20.833333333333332</ele><time>2026-04-04T07:24:54.011Z</time></trkpt><trkpt lat="40.9854283" lon="14.3115633"><ele>20.666666666666668</ele><time>2026-04-04T07:24:55.01Z</time></trkpt><trkpt lat="40.9855067" lon="14.31158"><ele>20.5</ele><time>2026-04-04T07:24:56.01Z</time></trkpt><trkpt lat="40.9855883" lon="14.311595"><ele>20.333333333333336</ele><time>2026-04-04T07:24:57.012Z</time></trkpt><trkpt lat="40.98567" lon="14.31161"><ele>20.166666666666668</ele><time>2026-04-04T07:24:58.01Z</time></trkpt><trkpt lat="40.98575" lon="14.3116233"><ele>20.0</ele><time>2026-04-04T07:24:59.01Z</time></trkpt><trkpt lat="40.98583" lon="14.3116383"><ele>20.0</ele><time>2026-04-04T07:25:00.011Z</time></trkpt><trkpt lat="40.9859067" lon="14.3116533"><ele>20.0</ele><time>2026-04-04T07:25:01.01Z</time></trkpt><trkpt lat="40.9859867" lon="14.3116667"><ele>20.0</ele><time>2026-04-04T07:25:02.01Z</time></trkpt><trkpt lat="40.98607" lon="14.3116817"><ele>20.0</ele><time>2026-04-04T07:25:03.01Z</time></trkpt><trkpt lat="40.9861517" lon="14.3116967"><ele>20.0</ele><time>2026-04-04T07:25:04.01Z</time></trkpt><trkpt lat="40.9862283" lon="14.31171"><ele>20.0</ele><time>2026-04-04T07:25:05.009Z</time></trkpt><trkpt lat="40.9863033" lon="14.3117233"><ele>20.0</ele><time>2026-04-04T07:25:06.01Z</time></trkpt><trkpt lat="40.9863767" lon="14.3117367"><ele>20.0</ele><time>2026-04-04T07:25:07.009Z</time></trkpt><trkpt lat="40.98645" lon="14.3117517"><ele>20.0</ele><time>2026-04-04T07:25:08.009Z</time></trkpt><trkpt lat="40.986525" lon="14.311765"><ele>20.0</ele><time>2026-04-04T07:25:09.01Z</time></trkpt><trkpt lat="40.9865983" lon="14.3117783"><ele>20.0</ele><time>2026-04-04T07:25:10.01Z</time></trkpt><trkpt lat="40.98667" lon="14.31179"><ele>20.0</ele><time>2026-04-04T07:25:11.01Z</time></trkpt><trkpt lat="40.9867417" lon="14.3118017"><ele>20.0</ele><time>2026-04-04T07:25:12.01Z</time></trkpt><trkpt lat="40.9868117" lon="14.3118167"><ele>20.0</ele><time>2026-04-04T07:25:13.01Z</time></trkpt><trkpt lat="40.986885" lon="14.311835"><ele>20.0</ele><time>2026-04-04T07:25:14.008Z</time></trkpt><trkpt lat="40.9869533" lon="14.3118633"><ele>20.0</ele><time>2026-04-04T07:25:15.01Z</time></trkpt><trkpt lat="40.9870217" lon="14.3119"><ele>20.0</ele><time>2026-04-04T07:25:16.01Z</time></trkpt><trkpt lat="40.98709" lon="14.3119467"><ele>20.0</ele><time>2026-04-04T07:25:17.007Z</time></trkpt><trkpt lat="40.9871583" lon="14.311995"><ele>20.0</ele><time>2026-04-04T07:25:18.008Z</time></trkpt><trkpt lat="40.9872217" lon="14.3120467"><ele>20.0</ele><time>2026-04-04T07:25:19.008Z</time></trkpt><trkpt lat="40.9872833" lon="14.3121033"><ele>20.0</ele><time>2026-04-04T07:25:20.008Z</time></trkpt><trkpt lat="40.9873433" lon="14.3121617"><ele>20.0</ele><time>2026-04-04T07:25:21.008Z</time></trkpt><trkpt lat="40.987405" lon="14.3122217"><ele>20.0</ele><time>2026-04-04T07:25:22.008Z</time></trkpt><trkpt lat="40.987465" lon="14.3122867"><ele>20.0</ele><time>2026-04-04T07:25:23.008Z</time></trkpt><trkpt lat="40.987525" lon="14.3123483"><ele>20.0</ele><time>2026-04-04T07:25:24.008Z</time></trkpt><trkpt lat="40.987585" lon="14.3124083"><ele>20.0</ele><time>2026-04-04T07:25:25.009Z</time></trkpt><trkpt lat="40.987645" lon="14.312465"><ele>19.857142857142858</ele><time>2026-04-04T07:25:26.009Z</time></trkpt><trkpt lat="40.987705" lon="14.3125233"><ele>19.714285714285715</ele><time>2026-04-04T07:25:27.009Z</time></trkpt><trkpt lat="40.9877633" lon="14.312585"><ele>19.57142857142857</ele><time>2026-04-04T07:25:28.011Z</time></trkpt><trkpt lat="40.9878183" lon="14.3126467"><ele>19.42857142857143</ele><time>2026-04-04T07:25:29.011Z</time></trkpt><trkpt lat="40.9878767" lon="14.3127083"><ele>19.28571428571429</ele><time>2026-04-04T07:25:30.006Z</time></trkpt><trkpt lat="40.9879367" lon="14.3127633"><ele>19.142857142857142</ele><time>2026-04-04T07:25:31.008Z</time></trkpt><trkpt lat="40.9879917" lon="14.3128233"><ele>19.0</ele><time>2026-04-04T07:25:32.008Z</time></trkpt><trkpt lat="40.9880483" lon="14.3128883"><ele>19.0</ele><time>2026-04-04T07:25:33.008Z</time></trkpt><trkpt lat="40.9881067" lon="14.3129517"><ele>19.0</ele><time>2026-04-04T07:25:34.008Z</time></trkpt><trkpt lat="40.98817" lon="14.3130167"><ele>19.0</ele><time>2026-04-04T07:25:35.008Z</time></trkpt><trkpt lat="40.9882317" lon="14.3130767"><ele>19.0</ele><time>2026-04-04T07:25:36.01Z</time></trkpt><trkpt lat="40.9882967" lon="14.3131383"><ele>19.0</ele><time>2026-04-04T07:25:37.007Z</time></trkpt><trkpt lat="40.98836" lon="14.3131983"><ele>19.0</ele><time>2026-04-04T07:25:38.01Z</time></trkpt><trkpt lat="40.98842" lon="14.313255"><ele>19.285714285714285</ele><time>2026-04-04T07:25:39.008Z</time></trkpt><trkpt lat="40.98848" lon="14.31331"><ele>19.571428571428573</ele><time>2026-04-04T07:25:40.007Z</time></trkpt><trkpt lat="40.9885433" lon="14.3133717"><ele>19.857142857142858</ele><time>2026-04-04T07:25:41.008Z</time></trkpt><trkpt lat="40.9886017" lon="14.313435"><ele>20.142857142857142</ele><time>2026-04-04T07:25:42.01Z</time></trkpt><trkpt lat="40.9886583" lon="14.3134933"><ele>20.42857142857143</ele><time>2026-04-04T07:25:43.01Z</time></trkpt><trkpt lat="40.9887183" lon="14.3135533"><ele>20.714285714285715</ele><time>2026-04-04T07:25:44.007Z</time></trkpt><trkpt lat="40.9887783" lon="14.3136133"><ele>21.0</ele><time>2026-04-04T07:25:45.007Z</time></trkpt><trkpt lat="40.9888383" lon="14.3136717"><ele>21.0</ele><time>2026-04-04T07:25:46.007Z</time></trkpt><trkpt lat="40.9888983" lon="14.31373"><ele>21.0</ele><time>2026-04-04T07:25:47.009Z</time></trkpt><trkpt lat="40.9889583" lon="14.3137883"><ele>21.0</ele><time>2026-04-04T07:25:48.007Z</time></trkpt><trkpt lat="40.9890167" lon="14.3138483"><ele>21.0</ele><time>2026-04-04T07:25:49.01Z</time></trkpt><trkpt lat="40.989075" lon="14.3139067"><ele>21.0</ele><time>2026-04-04T07:25:50.01Z</time></trkpt><trkpt lat="40.9891333" lon="14.3139683"><ele>21.0</ele><time>2026-04-04T07:25:51.008Z</time></trkpt><trkpt lat="40.9891917" lon="14.31403"><ele>21.0</ele><time>2026-04-04T07:25:52.006Z</time></trkpt><trkpt lat="40.9892533" lon="14.3140917"><ele>21.0</ele><time>2026-04-04T07:25:53.007Z</time></trkpt><trkpt lat="40.9893117" lon="14.3141517"><ele>21.0</ele><time>2026-04-04T07:25:54.008Z</time></trkpt><trkpt lat="40.9893683" lon="14.3142117"><ele>21.0</ele><time>2026-04-04T07:25:55.008Z</time></trkpt><trkpt lat="40.989425" lon="14.3142717"><ele>21.0</ele><time>2026-04-04T07:25:56.008Z</time></trkpt><trkpt lat="40.9894817" lon="14.3143283"><ele>21.0</ele><time>2026-04-04T07:25:57.009Z</time></trkpt><trkpt lat="40.9895383" lon="14.3143867"><ele>21.0</ele><time>2026-04-04T07:25:58.007Z</time></trkpt><trkpt lat="40.989595" lon="14.314445"><ele>21.0</ele><time>2026-04-04T07:25:59.008Z</time></trkpt><trkpt lat="40.98965" lon="14.3145033"><ele>21.0</ele><time>2026-04-04T07:26:00.007Z</time></trkpt><trkpt lat="40.9897083" lon="14.3145617"><ele>21.0</ele><time>2026-04-04T07:26:01.008Z</time></trkpt><trkpt lat="40.989765" lon="14.31462"><ele>21.0</ele><time>2026-04-04T07:26:02.01Z</time></trkpt><trkpt lat="40.9898233" lon="14.3146817"><ele>21.0</ele><time>2026-04-04T07:26:03.01Z</time></trkpt><trkpt lat="40.9898833" lon="14.3147433"><ele>21.0</ele><time>2026-04-04T07:26:04.006Z</time></trkpt><trkpt lat="40.989945" lon="14.3148067"><ele>21.0</ele><time>2026-04-04T07:26:05.01Z</time></trkpt><trkpt lat="40.9900083" lon="14.3148683"><ele>20.833333333333332</ele><time>2026-04-04T07:26:06.01Z</time></trkpt><trkpt lat="40.9900733" lon="14.314935"><ele>20.666666666666668</ele><time>2026-04-04T07:26:07.008Z</time></trkpt><trkpt lat="40.990135" lon="14.315"><ele>20.5</ele><time>2026-04-04T07:26:08.008Z</time></trkpt><trkpt lat="40.9902017" lon="14.315065"><ele>20.333333333333336</ele><time>2026-04-04T07:26:09.01Z</time></trkpt><trkpt lat="40.9902667" lon="14.3151283"><ele>20.166666666666668</ele><time>2026-04-04T07:26:10.01Z</time></trkpt><trkpt lat="40.990335" lon="14.3151933"><ele>20.0</ele><time>2026-04-04T07:26:11.01Z</time></trkpt><trkpt lat="40.9904" lon="14.3152517"><ele>20.0</ele><time>2026-04-04T07:26:12.01Z</time></trkpt><trkpt lat="40.99046" lon="14.3153083"><ele>20.0</ele><time>2026-04-04T07:26:13.008Z</time></trkpt><trkpt lat="40.9905183" lon="14.3153633"><ele>20.0</ele><time>2026-04-04T07:26:14.01Z</time></trkpt><trkpt lat="40.9905833" lon="14.3154317"><ele>20.0</ele><time>2026-04-04T07:26:15.008Z</time></trkpt><trkpt lat="40.990635" lon="14.3154983"><ele>20.0</ele><time>2026-04-04T07:26:16.009Z</time></trkpt><trkpt lat="40.9906883" lon="14.31556"><ele>20.0</ele><time>2026-04-04T07:26:17.008Z</time></trkpt><trkpt lat="40.990735" lon="14.3156267"><ele>20.0</ele><time>2026-04-04T07:26:18.009Z</time></trkpt><trkpt lat="40.9907767" lon="14.3156917"><ele>19.833333333333336</ele><time>2026-04-04T07:26:19.008Z</time></trkpt><trkpt lat="40.9908617" lon="14.3158083"><ele>19.666666666666668</ele><time>2026-04-04T07:26:21.008Z</time></trkpt><trkpt lat="40.9909533" lon="14.3159133"><ele>19.5</ele><time>2026-04-04T07:26:23.007Z</time></trkpt><trkpt lat="40.991005" lon="14.3159633"><ele>19.333333333333332</ele><time>2026-04-04T07:26:24.01Z</time></trkpt><trkpt lat="40.9910567" lon="14.316015"><ele>19.166666666666664</ele><time>2026-04-04T07:26:25.007Z</time></trkpt><trkpt lat="40.99111" lon="14.3160667"><ele>19.0</ele><time>2026-04-04T07:26:26.01Z</time></trkpt><trkpt lat="40.991165" lon="14.3161183"><ele>19.0</ele><time>2026-04-04T07:26:27.01Z</time></trkpt><trkpt lat="40.9912183" lon="14.3161717"><ele>19.0</ele><time>2026-04-04T07:26:28.01Z</time></trkpt><trkpt lat="40.9912717" lon="14.3162267"><ele>19.0</ele><time>2026-04-04T07:26:29.008Z</time></trkpt><trkpt lat="40.9913233" lon="14.3162817"><ele>19.0</ele><time>2026-04-04T07:26:30.011Z</time></trkpt><trkpt lat="40.99138" lon="14.3163367"><ele>19.0</ele><time>2026-04-04T07:26:31.01Z</time></trkpt><trkpt lat="40.9914383" lon="14.3163917"><ele>19.0</ele><time>2026-04-04T07:26:32.01Z</time></trkpt><trkpt lat="40.991495" lon="14.31645"><ele>19.0</ele><time>2026-04-04T07:26:33.008Z</time></trkpt><trkpt lat="40.9915517" lon="14.3165067"><ele>19.142857142857142</ele><time>2026-04-04T07:26:34.007Z</time></trkpt><trkpt lat="40.9916117" lon="14.3165633"><ele>19.28571428571429</ele><time>2026-04-04T07:26:35.01Z</time></trkpt><trkpt lat="40.9916683" lon="14.31662"><ele>19.42857142857143</ele><time>2026-04-04T07:26:36.01Z</time></trkpt><trkpt lat="40.991725" lon="14.3166767"><ele>19.57142857142857</ele><time>2026-04-04T07:26:37.007Z</time></trkpt><trkpt lat="40.99178" lon="14.3167333"><ele>19.714285714285715</ele><time>2026-04-04T07:26:38.011Z</time></trkpt><trkpt lat="40.9918367" lon="14.3167883"><ele>19.857142857142858</ele><time>2026-04-04T07:26:39.007Z</time></trkpt><trkpt lat="40.99189" lon="14.31684"><ele>20.0</ele><time>2026-04-04T07:26:40.009Z</time></trkpt><trkpt lat="40.9919433" lon="14.3168917"><ele>20.0</ele><time>2026-04-04T07:26:41.011Z</time></trkpt><trkpt lat="40.992" lon="14.3169433"><ele>20.0</ele><time>2026-04-04T07:26:42.008Z</time></trkpt><trkpt lat="40.9920583" lon="14.3169933"><ele>20.0</ele><time>2026-04-04T07:26:43.007Z</time></trkpt><trkpt lat="40.992115" lon="14.317045"><ele>20.0</ele><time>2026-04-04T07:26:44.01Z</time></trkpt><trkpt lat="40.9921717" lon="14.3171017"><ele>20.0</ele><time>2026-04-04T07:26:45.007Z</time></trkpt><trkpt lat="40.9922283" lon="14.3171567"><ele>20.0</ele><time>2026-04-04T07:26:46.006Z</time></trkpt><trkpt lat="40.9922883" lon="14.3172117"><ele>20.0</ele><time>2026-04-04T07:26:47.008Z</time></trkpt><trkpt lat="40.992345" lon="14.317265"><ele>19.857142857142858</ele><time>2026-04-04T07:26:48.009Z</time></trkpt><trkpt lat="40.9924" lon="14.31732"><ele>19.714285714285715</ele><time>2026-04-04T07:26:49.008Z</time></trkpt><trkpt lat="40.9924567" lon="14.317375"><ele>19.57142857142857</ele><time>2026-04-04T07:26:50.009Z</time></trkpt><trkpt lat="40.992515" lon="14.3174267"><ele>19.42857142857143</ele><time>2026-04-04T07:26:51.009Z</time></trkpt><trkpt lat="40.9925733" lon="14.3174767"><ele>19.28571428571429</ele><time>2026-04-04T07:26:52.007Z</time></trkpt><trkpt lat="40.9926283" lon="14.317525"><ele>19.142857142857142</ele><time>2026-04-04T07:26:53.008Z</time></trkpt><trkpt lat="40.992685" lon="14.3175683"><ele>19.0</ele><time>2026-04-04T07:26:54.008Z</time></trkpt><trkpt lat="40.992745" lon="14.3176083"><ele>19.0</ele><time>2026-04-04T07:26:55.009Z</time></trkpt><trkpt lat="40.9928083" lon="14.3176467"><ele>19.0</ele><time>2026-04-04T07:26:56.011Z</time></trkpt><trkpt lat="40.992875" lon="14.3176783"><ele>19.0</ele><time>2026-04-04T07:26:57.008Z</time></trkpt><trkpt lat="40.9929433" lon="14.3177083"><ele>19.0</ele><time>2026-04-04T07:26:58.009Z</time></trkpt><trkpt lat="40.993015" lon="14.31773"><ele>19.0</ele><time>2026-04-04T07:26:59.007Z</time></trkpt><trkpt lat="40.9930867" lon="14.317745"><ele>19.0</ele><time>2026-04-04T07:27:00.008Z</time></trkpt><trkpt lat="40.9931633" lon="14.31776"><ele>19.0</ele><time>2026-04-04T07:27:01.009Z</time></trkpt><trkpt lat="40.9932383" lon="14.3177767"><ele>19.0</ele><time>2026-04-04T07:27:02.008Z</time></trkpt><trkpt lat="40.9933167" lon="14.3177917"><ele>19.0</ele><time>2026-04-04T07:27:03.009Z</time></trkpt><trkpt lat="40.9933983" lon="14.317805"><ele>19.0</ele><time>2026-04-04T07:27:04.008Z</time></trkpt><trkpt lat="40.9934767" lon="14.317815"><ele>19.0</ele><time>2026-04-04T07:27:05.008Z</time></trkpt><trkpt lat="40.993555" lon="14.3178217"><ele>19.0</ele><time>2026-04-04T07:27:06.009Z</time></trkpt><trkpt lat="40.9936333" lon="14.3178267"><ele>19.0</ele><time>2026-04-04T07:27:07.008Z</time></trkpt><trkpt lat="40.99371" lon="14.317835"><ele>19.0</ele><time>2026-04-04T07:27:08.008Z</time></trkpt><trkpt lat="40.9937883" lon="14.3178433"><ele>19.0</ele><time>2026-04-04T07:27:09.008Z</time></trkpt><trkpt lat="40.993865" lon="14.3178517"><ele>19.0</ele><time>2026-04-04T07:27:10.008Z</time></trkpt><trkpt lat="40.99394" lon="14.3178583"><ele>19.0</ele><time>2026-04-04T07:27:11.008Z</time></trkpt><trkpt lat="40.994015" lon="14.3178633"><ele>19.0</ele><time>2026-04-04T07:27:12.008Z</time></trkpt><trkpt lat="40.99409" lon="14.3178717"><ele>19.0</ele><time>2026-04-04T07:27:13.007Z</time></trkpt><trkpt lat="40.994165" lon="14.3178817"><ele>19.0</ele><time>2026-04-04T07:27:14.009Z</time></trkpt><trkpt lat="40.9942417" lon="14.31789"><ele>19.0</ele><time>2026-04-04T07:27:15.01Z</time></trkpt><trkpt lat="40.99432" lon="14.3178967"><ele>19.0</ele><time>2026-04-04T07:27:16.01Z</time></trkpt><trkpt lat="40.994395" lon="14.317905"><ele>19.0</ele><time>2026-04-04T07:27:17.011Z</time></trkpt><trkpt lat="40.9944683" lon="14.3179133"><ele>19.0</ele><time>2026-04-04T07:27:18.008Z</time></trkpt><trkpt lat="40.9945383" lon="14.3179217"><ele>19.0</ele><time>2026-04-04T07:27:19.007Z</time></trkpt><trkpt lat="40.99461" lon="14.3179283"><ele>19.0</ele><time>2026-04-04T07:27:20.008Z</time></trkpt><trkpt lat="40.9946817" lon="14.3179367"><ele>19.0</ele><time>2026-04-04T07:27:21.009Z</time></trkpt><trkpt lat="40.9947567" lon="14.3179433"><ele>19.0</ele><time>2026-04-04T07:27:22.009Z</time></trkpt><trkpt lat="40.99483" lon="14.3179517"><ele>19.0</ele><time>2026-04-04T07:27:23.009Z</time></trkpt><trkpt lat="40.9949033" lon="14.31796"><ele>19.0</ele><time>2026-04-04T07:27:24.008Z</time></trkpt><trkpt lat="40.9949783" lon="14.3179683"><ele>19.0</ele><time>2026-04-04T07:27:25.008Z</time></trkpt><trkpt lat="40.9950517" lon="14.3179767"><ele>19.0</ele><time>2026-04-04T07:27:26.009Z</time></trkpt><trkpt lat="40.995125" lon="14.317985"><ele>19.0</ele><time>2026-04-04T07:27:27.009Z</time></trkpt><trkpt lat="40.9951983" lon="14.3179933"><ele>19.0</ele><time>2026-04-04T07:27:28.008Z</time></trkpt><trkpt lat="40.9952733" lon="14.3180017"><ele>19.0</ele><time>2026-04-04T07:27:29.008Z</time></trkpt><trkpt lat="40.9953467" lon="14.31801"><ele>19.0</ele><time>2026-04-04T07:27:30.011Z</time></trkpt><trkpt lat="40.9954217" lon="14.3180183"><ele>19.0</ele><time>2026-04-04T07:27:31.01Z</time></trkpt><trkpt lat="40.9954933" lon="14.3180267"><ele>19.0</ele><time>2026-04-04T07:27:32.01Z</time></trkpt><trkpt lat="40.995565" lon="14.3180367"><ele>19.0</ele><time>2026-04-04T07:27:33.01Z</time></trkpt><trkpt lat="40.9956367" lon="14.3180417"><ele>19.0</ele><time>2026-04-04T07:27:34.01Z</time></trkpt><trkpt lat="40.99571" lon="14.3180467"><ele>19.0</ele><time>2026-04-04T07:27:35.01Z</time></trkpt><trkpt lat="40.995785" lon="14.3180533"><ele>19.0</ele><time>2026-04-04T07:27:36.011Z</time></trkpt><trkpt lat="40.9958567" lon="14.318065"><ele>19.0</ele><time>2026-04-04T07:27:37.01Z</time></trkpt><trkpt lat="40.99593" lon="14.3180733"><ele>19.0</ele><time>2026-04-04T07:27:38.011Z</time></trkpt><trkpt lat="40.9960033" lon="14.31808"><ele>19.0</ele><time>2026-04-04T07:27:39.01Z</time></trkpt><trkpt lat="40.9960783" lon="14.3180867"><ele>19.0</ele><time>2026-04-04T07:27:40.01Z</time></trkpt><trkpt lat="40.996155" lon="14.3180933"><ele>19.0</ele><time>2026-04-04T07:27:41.01Z</time></trkpt><trkpt lat="40.9962317" lon="14.3181"><ele>19.166666666666664</ele><time>2026-04-04T07:27:42.01Z</time></trkpt><trkpt lat="40.9963083" lon="14.3181067"><ele>19.333333333333332</ele><time>2026-04-04T07:27:43.011Z</time></trkpt><trkpt lat="40.996385" lon="14.3181133"><ele>19.5</ele><time>2026-04-04T07:27:44.01Z</time></trkpt><trkpt lat="40.9964583" lon="14.3181217"><ele>19.666666666666668</ele><time>2026-04-04T07:27:45.01Z</time></trkpt><trkpt lat="40.996535" lon="14.3181317"><ele>19.833333333333336</ele><time>2026-04-04T07:27:46.01Z</time></trkpt><trkpt lat="40.9966117" lon="14.3181417"><ele>20.0</ele><time>2026-04-04T07:27:47.01Z</time></trkpt><trkpt lat="40.99669" lon="14.3181517"><ele>20.166666666666668</ele><time>2026-04-04T07:27:48.007Z</time></trkpt><trkpt lat="40.99677" lon="14.31816"><ele>20.333333333333336</ele><time>2026-04-04T07:27:49.007Z</time></trkpt><trkpt lat="40.9968483" lon="14.3181683"><ele>20.5</ele><time>2026-04-04T07:27:50.009Z</time></trkpt><trkpt lat="40.9969267" lon="14.3181767"><ele>20.666666666666668</ele><time>2026-04-04T07:27:51.01Z</time></trkpt><trkpt lat="40.997005" lon="14.3181867"><ele>20.833333333333332</ele><time>2026-04-04T07:27:52.007Z</time></trkpt><trkpt lat="40.9970817" lon="14.3181983"><ele>21.0</ele><time>2026-04-04T07:27:53.008Z</time></trkpt><trkpt lat="40.9971567" lon="14.31821"><ele>21.0</ele><time>2026-04-04T07:27:54.009Z</time></trkpt><trkpt lat="40.9972317" lon="14.3182183"><ele>21.0</ele><time>2026-04-04T07:27:55.009Z</time></trkpt><trkpt lat="40.9973067" lon="14.318225"><ele>21.0</ele><time>2026-04-04T07:27:56.008Z</time></trkpt><trkpt lat="40.9973833" lon="14.3182333"><ele>21.0</ele><time>2026-04-04T07:27:57.009Z</time></trkpt><trkpt lat="40.9974583" lon="14.3182417"><ele>21.0</ele><time>2026-04-04T07:27:58.008Z</time></trkpt><trkpt lat="40.997535" lon="14.3182517"><ele>21.0</ele><time>2026-04-04T07:27:59.01Z</time></trkpt><trkpt lat="40.99761" lon="14.3182583"><ele>20.857142857142858</ele><time>2026-04-04T07:28:00.007Z</time></trkpt><trkpt lat="40.9976833" lon="14.3182617"><ele>20.714285714285715</ele><time>2026-04-04T07:28:01.01Z</time></trkpt><trkpt lat="40.997755" lon="14.31827"><ele>20.57142857142857</ele><time>2026-04-04T07:28:02.011Z</time></trkpt><trkpt lat="40.99783" lon="14.3182783"><ele>20.42857142857143</ele><time>2026-04-04T07:28:03.01Z</time></trkpt><trkpt lat="40.9979067" lon="14.3182867"><ele>20.285714285714285</ele><time>2026-04-04T07:28:04.01Z</time></trkpt><trkpt lat="40.9979817" lon="14.3182917"><ele>20.142857142857142</ele><time>2026-04-04T07:28:05.008Z</time></trkpt><trkpt lat="40.9980583" lon="14.3182933"><ele>20.0</ele><time>2026-04-04T07:28:06.01Z</time></trkpt><trkpt lat="40.9981383" lon="14.318295"><ele>20.0</ele><time>2026-04-04T07:28:07.01Z</time></trkpt><trkpt lat="40.9982167" lon="14.3183017"><ele>20.0</ele><time>2026-04-04T07:28:08.01Z</time></trkpt><trkpt lat="40.998295" lon="14.3183083"><ele>20.0</ele><time>2026-04-04T07:28:09.01Z</time></trkpt><trkpt lat="40.9983717" lon="14.318315"><ele>20.0</ele><time>2026-04-04T07:28:10.01Z</time></trkpt><trkpt lat="40.99845" lon="14.3183267"><ele>20.0</ele><time>2026-04-04T07:28:11.01Z</time></trkpt><trkpt lat="40.99853" lon="14.318335"><ele>20.0</ele><time>2026-04-04T07:28:12.01Z</time></trkpt><trkpt lat="40.9986067" lon="14.3183467"><ele>20.166666666666668</ele><time>2026-04-04T07:28:13.01Z</time></trkpt><trkpt lat="40.9986833" lon="14.3183583"><ele>20.333333333333336</ele><time>2026-04-04T07:28:14.01Z</time></trkpt><trkpt lat="40.99876" lon="14.3183667"><ele>20.5</ele><time>2026-04-04T07:28:15.011Z</time></trkpt><trkpt lat="40.998835" lon="14.3183733"><ele>20.666666666666668</ele><time>2026-04-04T07:28:16.01Z</time></trkpt><trkpt lat="40.9989083" lon="14.3183833"><ele>20.833333333333332</ele><time>2026-04-04T07:28:17.01Z</time></trkpt><trkpt lat="40.998985" lon="14.318395"><ele>21.0</ele><time>2026-04-04T07:28:18.006Z</time></trkpt><trkpt lat="40.9990617" lon="14.3184067"><ele>21.0</ele><time>2026-04-04T07:28:19.008Z</time></trkpt><trkpt lat="40.99914" lon="14.3184167"><ele>21.0</ele><time>2026-04-04T07:28:20.008Z</time></trkpt><trkpt lat="40.9992167" lon="14.3184233"><ele>21.0</ele><time>2026-04-04T07:28:21.008Z</time></trkpt><trkpt lat="40.9992933" lon="14.318425"><ele>21.0</ele><time>2026-04-04T07:28:22.008Z</time></trkpt><trkpt lat="40.9993717" lon="14.31843"><ele>21.0</ele><time>2026-04-04T07:28:23.008Z</time></trkpt><trkpt lat="40.9994517" lon="14.3184383"><ele>21.0</ele><time>2026-04-04T07:28:24.007Z</time></trkpt><trkpt lat="40.9995283" lon="14.3184483"><ele>21.0</ele><time>2026-04-04T07:28:25.007Z</time></trkpt><trkpt lat="40.9996067" lon="14.3184567"><ele>21.0</ele><time>2026-04-04T07:28:26.008Z</time></trkpt><trkpt lat="40.9996833" lon="14.3184667"><ele>21.0</ele><time>2026-04-04T07:28:27.008Z</time></trkpt><trkpt lat="40.99976" lon="14.3184733"><ele>21.0</ele><time>2026-04-04T07:28:28.008Z</time></trkpt><trkpt lat="40.9998383" lon="14.3184817"><ele>21.0</ele><time>2026-04-04T07:28:29.008Z</time></trkpt><trkpt lat="40.9999183" lon="14.3184883"><ele>21.0</ele><time>2026-04-04T07:28:30.01Z</time></trkpt><trkpt lat="40.999995" lon="14.3184917"><ele>21.0</ele><time>2026-04-04T07:28:31.009Z</time></trkpt><trkpt lat="41.00007" lon="14.3184967"><ele>21.0</ele><time>2026-04-04T07:28:32.01Z</time></trkpt><trkpt lat="41.0001517" lon="14.3185083"><ele>21.0</ele><time>2026-04-04T07:28:33.01Z</time></trkpt><trkpt lat="41.0002283" lon="14.318515"><ele>21.0</ele><time>2026-04-04T07:28:34.009Z</time></trkpt><trkpt lat="41.000305" lon="14.3185233"><ele>21.0</ele><time>2026-04-04T07:28:35.01Z</time></trkpt><trkpt lat="41.0003833" lon="14.31853"><ele>21.0</ele><time>2026-04-04T07:28:36.011Z</time></trkpt><trkpt lat="41.0004633" lon="14.3185367"><ele>21.0</ele><time>2026-04-04T07:28:37.011Z</time></trkpt><trkpt lat="41.0005367" lon="14.3185417"><ele>21.0</ele><time>2026-04-04T07:28:38.007Z</time></trkpt><trkpt lat="41.0006083" lon="14.31855"><ele>21.0</ele><time>2026-04-04T07:28:39.011Z</time></trkpt><trkpt lat="41.0006783" lon="14.3185583"><ele>21.0</ele><time>2026-04-04T07:28:40.01Z</time></trkpt><trkpt lat="41.000745" lon="14.3185667"><ele>21.0</ele><time>2026-04-04T07:28:41.01Z</time></trkpt><trkpt lat="41.0008167" lon="14.3185717"><ele>21.0</ele><time>2026-04-04T07:28:42.011Z</time></trkpt><trkpt lat="41.0008867" lon="14.3185767"><ele>21.0</ele><time>2026-04-04T07:28:43.01Z</time></trkpt><trkpt lat="41.0009617" lon="14.318585"><ele>21.0</ele><time>2026-04-04T07:28:44.01Z</time></trkpt><trkpt lat="41.001035" lon="14.318595"><ele>21.0</ele><time>2026-04-04T07:28:45.011Z</time></trkpt><trkpt lat="41.0011083" lon="14.3186083"><ele>21.0</ele><time>2026-04-04T07:28:46.01Z</time></trkpt><trkpt lat="41.0011783" lon="14.3186283"><ele>21.0</ele><time>2026-04-04T07:28:47.007Z</time></trkpt><trkpt lat="41.0012467" lon="14.31866"><ele>21.0</ele><time>2026-04-04T07:28:48.01Z</time></trkpt><trkpt lat="41.00131" lon="14.3187017"><ele>21.0</ele><time>2026-04-04T07:28:49.007Z</time></trkpt><trkpt lat="41.0013717" lon="14.3187517"><ele>21.0</ele><time>2026-04-04T07:28:50.007Z</time></trkpt><trkpt lat="41.0014267" lon="14.318805"><ele>21.0</ele><time>2026-04-04T07:28:51.007Z</time></trkpt><trkpt lat="41.0014733" lon="14.3188733"><ele>21.0</ele><time>2026-04-04T07:28:52.007Z</time></trkpt><trkpt lat="41.0015217" lon="14.3189367"><ele>21.0</ele><time>2026-04-04T07:28:53.007Z</time></trkpt><trkpt lat="41.0015733" lon="14.31901"><ele>21.0</ele><time>2026-04-04T07:28:54.007Z</time></trkpt><trkpt lat="41.0016233" lon="14.3190817"><ele>21.0</ele><time>2026-04-04T07:28:55.006Z</time></trkpt><trkpt lat="41.00168" lon="14.31914"><ele>21.0</ele><time>2026-04-04T07:28:56.008Z</time></trkpt><trkpt lat="41.00174" lon="14.319175"><ele>21.0</ele><time>2026-04-04T07:28:57.007Z</time></trkpt><trkpt lat="41.00186" lon="14.31915"><ele>21.0</ele><time>2026-04-04T07:28:59.009Z</time></trkpt><trkpt lat="41.0019567" lon="14.3190383"><ele>21.0</ele><time>2026-04-04T07:29:01.006Z</time></trkpt><trkpt lat="41.0020033" lon="14.318975"><ele>21.0</ele><time>2026-04-04T07:29:02.006Z</time></trkpt><trkpt lat="41.0020567" lon="14.3189183"><ele>21.0</ele><time>2026-04-04T07:29:03.007Z</time></trkpt><trkpt lat="41.0021133" lon="14.318865"><ele>21.0</ele><time>2026-04-04T07:29:04.009Z</time></trkpt><trkpt lat="41.0021767" lon="14.3188283"><ele>21.0</ele><time>2026-04-04T07:29:05.009Z</time></trkpt><trkpt lat="41.0022433" lon="14.3188067"><ele>21.0</ele><time>2026-04-04T07:29:06.009Z</time></trkpt><trkpt lat="41.0023117" lon="14.3187917"><ele>21.0</ele><time>2026-04-04T07:29:07.01Z</time></trkpt><trkpt lat="41.0023767" lon="14.318785"><ele>21.0</ele><time>2026-04-04T07:29:08.01Z</time></trkpt><trkpt lat="41.0024433" lon="14.3187817"><ele>21.0</ele><time>2026-04-04T07:29:09.01Z</time></trkpt><trkpt lat="41.0025133" lon="14.3187817"><ele>21.0</ele><time>2026-04-04T07:29:10.01Z</time></trkpt><trkpt lat="41.0025817" lon="14.3187867"><ele>21.0</ele><time>2026-04-04T07:29:11.01Z</time></trkpt><trkpt lat="41.0026517" lon="14.318795"><ele>21.0</ele><time>2026-04-04T07:29:12.011Z</time></trkpt><trkpt lat="41.00272" lon="14.3188033"><ele>21.142857142857142</ele><time>2026-04-04T07:29:13.01Z</time></trkpt><trkpt lat="41.0027883" lon="14.3188083"><ele>21.285714285714285</ele><time>2026-04-04T07:29:14.01Z</time></trkpt><trkpt lat="41.0028583" lon="14.318815"><ele>21.42857142857143</ele><time>2026-04-04T07:29:15.011Z</time></trkpt><trkpt lat="41.002925" lon="14.3188267"><ele>21.57142857142857</ele><time>2026-04-04T07:29:16.01Z</time></trkpt><trkpt lat="41.0029917" lon="14.3188383"><ele>21.714285714285715</ele><time>2026-04-04T07:29:17.008Z</time></trkpt><trkpt lat="41.0030617" lon="14.3188517"><ele>21.857142857142858</ele><time>2026-04-04T07:29:18.008Z</time></trkpt><trkpt lat="41.00313" lon="14.3188633"><ele>22.0</ele><time>2026-04-04T07:29:19.008Z</time></trkpt><trkpt lat="41.0032" lon="14.3188733"><ele>22.0</ele><time>2026-04-04T07:29:20.007Z</time></trkpt><trkpt lat="41.00327" lon="14.318885"><ele>22.0</ele><time>2026-04-04T07:29:21.007Z</time></trkpt><trkpt lat="41.00334" lon="14.318895"><ele>22.0</ele><time>2026-04-04T07:29:22.008Z</time></trkpt><trkpt lat="41.00341" lon="14.318905"><ele>22.0</ele><time>2026-04-04T07:29:23.009Z</time></trkpt><trkpt lat="41.0034783" lon="14.3189167"><ele>22.0</ele><time>2026-04-04T07:29:24.013Z</time></trkpt><trkpt lat="41.003545" lon="14.3189283"><ele>22.0</ele><time>2026-04-04T07:29:25.01Z</time></trkpt><trkpt lat="41.0036133" lon="14.3189383"><ele>22.0</ele><time>2026-04-04T07:29:26.01Z</time></trkpt><trkpt lat="41.0036783" lon="14.3189517"><ele>22.142857142857142</ele><time>2026-04-04T07:29:27.009Z</time></trkpt><trkpt lat="41.0037467" lon="14.318965"><ele>22.285714285714285</ele><time>2026-04-04T07:29:28.011Z</time></trkpt><trkpt lat="41.0038183" lon="14.3189767"><ele>22.42857142857143</ele><time>2026-04-04T07:29:29.007Z</time></trkpt><trkpt lat="41.00389" lon="14.3189867"><ele>22.57142857142857</ele><time>2026-04-04T07:29:30.01Z</time></trkpt><trkpt lat="41.0039617" lon="14.3189983"><ele>22.71428571428571</ele><time>2026-04-04T07:29:31.01Z</time></trkpt><trkpt lat="41.0040317" lon="14.3190167"><ele>22.857142857142858</ele><time>2026-04-04T07:29:32.01Z</time></trkpt><trkpt lat="41.0041033" lon="14.3190333"><ele>23.0</ele><time>2026-04-04T07:29:33.01Z</time></trkpt><trkpt lat="41.004175" lon="14.31905"><ele>23.0</ele><time>2026-04-04T07:29:34.01Z</time></trkpt><trkpt lat="41.004245" lon="14.3190717"><ele>23.0</ele><time>2026-04-04T07:29:35.011Z</time></trkpt><trkpt lat="41.004315" lon="14.3190883"><ele>23.0</ele><time>2026-04-04T07:29:36.01Z</time></trkpt><trkpt lat="41.004385" lon="14.319105"><ele>23.0</ele><time>2026-04-04T07:29:37.01Z</time></trkpt><trkpt lat="41.004455" lon="14.3191233"><ele>23.0</ele><time>2026-04-04T07:29:38.01Z</time></trkpt><trkpt lat="41.0045283" lon="14.319145"><ele>23.0</ele><time>2026-04-04T07:29:39.009Z</time></trkpt><trkpt lat="41.0046" lon="14.3191683"><ele>23.0</ele><time>2026-04-04T07:29:40.01Z</time></trkpt><trkpt lat="41.0046717" lon="14.3191917"><ele>23.0</ele><time>2026-04-04T07:29:41.01Z</time></trkpt><trkpt lat="41.0047417" lon="14.319215"><ele>23.0</ele><time>2026-04-04T07:29:42.01Z</time></trkpt><trkpt lat="41.0048117" lon="14.3192367"><ele>23.0</ele><time>2026-04-04T07:29:43.01Z</time></trkpt><trkpt lat="41.0048833" lon="14.3192617"><ele>23.0</ele><time>2026-04-04T07:29:44.011Z</time></trkpt><trkpt lat="41.004955" lon="14.3192883"><ele>23.0</ele><time>2026-04-04T07:29:45.01Z</time></trkpt><trkpt lat="41.00503" lon="14.319315"><ele>23.0</ele><time>2026-04-04T07:29:46.01Z</time></trkpt><trkpt lat="41.0051033" lon="14.3193433"><ele>23.0</ele><time>2026-04-04T07:29:47.008Z</time></trkpt><trkpt lat="41.0051783" lon="14.31937"><ele>22.833333333333336</ele><time>2026-04-04T07:29:48.009Z</time></trkpt><trkpt lat="41.0052517" lon="14.3193983"><ele>22.666666666666668</ele><time>2026-04-04T07:29:49.008Z</time></trkpt><trkpt lat="41.005325" lon="14.31943"><ele>22.5</ele><time>2026-04-04T07:29:50.008Z</time></trkpt><trkpt lat="41.0053967" lon="14.319465"><ele>22.333333333333332</ele><time>2026-04-04T07:29:51.009Z</time></trkpt><trkpt lat="41.0054667" lon="14.3195017"><ele>22.166666666666664</ele><time>2026-04-04T07:29:52.008Z</time></trkpt><trkpt lat="41.0055367" lon="14.3195367"><ele>22.0</ele><time>2026-04-04T07:29:53.009Z</time></trkpt><trkpt lat="41.0056083" lon="14.3195667"><ele>22.0</ele><time>2026-04-04T07:29:54.009Z</time></trkpt><trkpt lat="41.0056817" lon="14.3195933"><ele>22.0</ele><time>2026-04-04T07:29:55.008Z</time></trkpt><trkpt lat="41.0057533" lon="14.31962"><ele>22.0</ele><time>2026-04-04T07:29:56.01Z</time></trkpt><trkpt lat="41.0058233" lon="14.3196483"><ele>22.0</ele><time>2026-04-04T07:29:57.008Z</time></trkpt><trkpt lat="41.0059" lon="14.3196683"><ele>22.0</ele><time>2026-04-04T07:29:58.01Z</time></trkpt><trkpt lat="41.00597" lon="14.319695"><ele>22.0</ele><time>2026-04-04T07:29:59.007Z</time></trkpt><trkpt lat="41.0060417" lon="14.31972"><ele>22.0</ele><time>2026-04-04T07:30:00.012Z</time></trkpt><trkpt lat="41.006115" lon="14.3197433"><ele>22.166666666666664</ele><time>2026-04-04T07:30:01.01Z</time></trkpt><trkpt lat="41.00619" lon="14.31977"><ele>22.333333333333332</ele><time>2026-04-04T07:30:02.007Z</time></trkpt><trkpt lat="41.0062617" lon="14.3197967"><ele>22.5</ele><time>2026-04-04T07:30:03.007Z</time></trkpt><trkpt lat="41.00633" lon="14.319825"><ele>22.666666666666668</ele><time>2026-04-04T07:30:04.011Z</time></trkpt><trkpt lat="41.0064033" lon="14.3198517"><ele>22.833333333333336</ele><time>2026-04-04T07:30:05.008Z</time></trkpt><trkpt lat="41.0064767" lon="14.3198733"><ele>23.0</ele><time>2026-04-04T07:30:06.009Z</time></trkpt><trkpt lat="41.00655" lon="14.3198983"><ele>23.0</ele><time>2026-04-04T07:30:07.01Z</time></trkpt><trkpt lat="41.0066233" lon="14.319925"><ele>23.0</ele><time>2026-04-04T07:30:08.011Z</time></trkpt><trkpt lat="41.0066967" lon="14.3199533"><ele>23.0</ele><time>2026-04-04T07:30:09.012Z</time></trkpt><trkpt lat="41.0067717" lon="14.3199783"><ele>23.0</ele><time>2026-04-04T07:30:10.007Z</time></trkpt><trkpt lat="41.006845" lon="14.3200067"><ele>23.0</ele><time>2026-04-04T07:30:11.01Z</time></trkpt><trkpt lat="41.0069183" lon="14.320035"><ele>23.0</ele><time>2026-04-04T07:30:12.01Z</time></trkpt><trkpt lat="41.0069883" lon="14.3200617"><ele>22.833333333333336</ele><time>2026-04-04T07:30:13.007Z</time></trkpt><trkpt lat="41.0070567" lon="14.3200883"><ele>22.666666666666668</ele><time>2026-04-04T07:30:14.007Z</time></trkpt><trkpt lat="41.0071317" lon="14.3201133"><ele>22.5</ele><time>2026-04-04T07:30:15.01Z</time></trkpt><trkpt lat="41.007205" lon="14.32014"><ele>22.333333333333332</ele><time>2026-04-04T07:30:16.007Z</time></trkpt><trkpt lat="41.0072817" lon="14.3201683"><ele>22.166666666666664</ele><time>2026-04-04T07:30:17.009Z</time></trkpt><trkpt lat="41.0073567" lon="14.32019"><ele>22.0</ele><time>2026-04-04T07:30:18.01Z</time></trkpt><trkpt lat="41.007435" lon="14.32021"><ele>21.833333333333332</ele><time>2026-04-04T07:30:19.011Z</time></trkpt><trkpt lat="41.0075167" lon="14.3202317"><ele>21.666666666666664</ele><time>2026-04-04T07:30:20.01Z</time></trkpt><trkpt lat="41.0075917" lon="14.320255"><ele>21.5</ele><time>2026-04-04T07:30:21.01Z</time></trkpt><trkpt lat="41.0076633" lon="14.3202783"><ele>21.333333333333332</ele><time>2026-04-04T07:30:22.01Z</time></trkpt><trkpt lat="41.0077367" lon="14.3203"><ele>21.166666666666668</ele><time>2026-04-04T07:30:23.007Z</time></trkpt><trkpt lat="41.0078117" lon="14.3203217"><ele>21.0</ele><time>2026-04-04T07:30:24.012Z</time></trkpt><trkpt lat="41.0078867" lon="14.3203433"><ele>21.0</ele><time>2026-04-04T07:30:25.007Z</time></trkpt><trkpt lat="41.0079617" lon="14.3203667"><ele>21.0</ele><time>2026-04-04T07:30:26.009Z</time></trkpt><trkpt lat="41.008035" lon="14.3204"><ele>21.0</ele><time>2026-04-04T07:30:27.01Z</time></trkpt><trkpt lat="41.0081067" lon="14.32043"><ele>21.0</ele><time>2026-04-04T07:30:28.01Z</time></trkpt><trkpt lat="41.00818" lon="14.3204583"><ele>21.0</ele><time>2026-04-04T07:30:29.01Z</time></trkpt><trkpt lat="41.0082517" lon="14.3204883"><ele>21.0</ele><time>2026-04-04T07:30:30.008Z</time></trkpt><trkpt lat="41.0083233" lon="14.32052"><ele>20.833333333333332</ele><time>2026-04-04T07:30:31.011Z</time></trkpt><trkpt lat="41.0083967" lon="14.320545"><ele>20.666666666666668</ele><time>2026-04-04T07:30:32.008Z</time></trkpt><trkpt lat="41.00847" lon="14.320575"><ele>20.5</ele><time>2026-04-04T07:30:33.01Z</time></trkpt><trkpt lat="41.0085467" lon="14.3206033"><ele>20.333333333333336</ele><time>2026-04-04T07:30:34.009Z</time></trkpt><trkpt lat="41.0086217" lon="14.3206283"><ele>20.166666666666668</ele><time>2026-04-04T07:30:35.008Z</time></trkpt><trkpt lat="41.008695" lon="14.32065"><ele>20.0</ele><time>2026-04-04T07:30:36.009Z</time></trkpt><trkpt lat="41.0087683" lon="14.3206733"><ele>20.285714285714285</ele><time>2026-04-04T07:30:37.011Z</time></trkpt><trkpt lat="41.0088367" lon="14.3206983"><ele>20.571428571428573</ele><time>2026-04-04T07:30:38.01Z</time></trkpt><trkpt lat="41.0089067" lon="14.3207217"><ele>20.857142857142858</ele><time>2026-04-04T07:30:39.008Z</time></trkpt><trkpt lat="41.0089767" lon="14.320745"><ele>21.142857142857142</ele><time>2026-04-04T07:30:40.01Z</time></trkpt><trkpt lat="41.00905" lon="14.3207683"><ele>21.428571428571427</ele><time>2026-04-04T07:30:41.01Z</time></trkpt><trkpt lat="41.009125" lon="14.3207917"><ele>21.714285714285715</ele><time>2026-04-04T07:30:42.011Z</time></trkpt><trkpt lat="41.009195" lon="14.320815"><ele>22.0</ele><time>2026-04-04T07:30:43.009Z</time></trkpt><trkpt lat="41.009265" lon="14.32084"><ele>22.166666666666664</ele><time>2026-04-04T07:30:44.01Z</time></trkpt><trkpt lat="41.0093367" lon="14.32087"><ele>22.333333333333332</ele><time>2026-04-04T07:30:45.011Z</time></trkpt><trkpt lat="41.0094083" lon="14.3209"><ele>22.5</ele><time>2026-04-04T07:30:46.008Z</time></trkpt><trkpt lat="41.00948" lon="14.3209267"><ele>22.666666666666668</ele><time>2026-04-04T07:30:47.009Z</time></trkpt><trkpt lat="41.009555" lon="14.3209517"><ele>22.833333333333336</ele><time>2026-04-04T07:30:48.011Z</time></trkpt><trkpt lat="41.0096283" lon="14.3209833"><ele>23.0</ele><time>2026-04-04T07:30:49.007Z</time></trkpt><trkpt lat="41.0097017" lon="14.3210083"><ele>23.0</ele><time>2026-04-04T07:30:50.008Z</time></trkpt><trkpt lat="41.0097733" lon="14.321035"><ele>23.0</ele><time>2026-04-04T07:30:51.007Z</time></trkpt><trkpt lat="41.0098483" lon="14.3210567"><ele>23.0</ele><time>2026-04-04T07:30:52.007Z</time></trkpt><trkpt lat="41.0099217" lon="14.32108"><ele>23.0</ele><time>2026-04-04T07:30:53.008Z</time></trkpt><trkpt lat="41.0099967" lon="14.3211083"><ele>23.0</ele><time>2026-04-04T07:30:54.01Z</time></trkpt><trkpt lat="41.01007" lon="14.321135"><ele>23.0</ele><time>2026-04-04T07:30:55.007Z</time></trkpt><trkpt lat="41.0101433" lon="14.3211567"><ele>22.857142857142858</ele><time>2026-04-04T07:30:56.009Z</time></trkpt><trkpt lat="41.0102183" lon="14.321175"><ele>22.71428571428571</ele><time>2026-04-04T07:30:57.009Z</time></trkpt><trkpt lat="41.0102917" lon="14.3211933"><ele>22.57142857142857</ele><time>2026-04-04T07:30:58.007Z</time></trkpt><trkpt lat="41.0103633" lon="14.3212133"><ele>22.42857142857143</ele><time>2026-04-04T07:30:59.009Z</time></trkpt><trkpt lat="41.0104333" lon="14.3212367"><ele>22.285714285714285</ele><time>2026-04-04T07:31:00.008Z</time></trkpt><trkpt lat="41.0105017" lon="14.3212583"><ele>22.142857142857142</ele><time>2026-04-04T07:31:01.01Z</time></trkpt><trkpt lat="41.0105683" lon="14.3212833"><ele>22.0</ele><time>2026-04-04T07:31:02.008Z</time></trkpt><trkpt lat="41.0106333" lon="14.32131"><ele>22.0</ele><time>2026-04-04T07:31:03.008Z</time></trkpt><trkpt lat="41.0106967" lon="14.3213367"><ele>22.0</ele><time>2026-04-04T07:31:04.007Z</time></trkpt><trkpt lat="41.0107567" lon="14.3213683"><ele>22.0</ele><time>2026-04-04T07:31:05.01Z</time></trkpt><trkpt lat="41.010815" lon="14.3214"><ele>22.0</ele><time>2026-04-04T07:31:06.011Z</time></trkpt><trkpt lat="41.0109233" lon="14.3214733"><ele>22.0</ele><time>2026-04-04T07:31:08.009Z</time></trkpt><trkpt lat="41.011035" lon="14.3215433"><ele>22.0</ele><time>2026-04-04T07:31:10.007Z</time></trkpt><trkpt lat="41.01115" lon="14.3216183"><ele>22.166666666666664</ele><time>2026-04-04T07:31:12.011Z</time></trkpt><trkpt lat="41.0112083" lon="14.321665"><ele>22.333333333333332</ele><time>2026-04-04T07:31:13.01Z</time></trkpt><trkpt lat="41.0112633" lon="14.3217167"><ele>22.5</ele><time>2026-04-04T07:31:14.01Z</time></trkpt><trkpt lat="41.0113183" lon="14.32177"><ele>22.666666666666668</ele><time>2026-04-04T07:31:15.008Z</time></trkpt><trkpt lat="41.0113733" lon="14.321825"><ele>22.833333333333336</ele><time>2026-04-04T07:31:16.011Z</time></trkpt><trkpt lat="41.0114233" lon="14.3218817"><ele>23.0</ele><time>2026-04-04T07:31:17.01Z</time></trkpt><trkpt lat="41.0115217" lon="14.32199"><ele>23.0</ele><time>2026-04-04T07:31:19.01Z</time></trkpt><trkpt lat="41.0115717" lon="14.3220483"><ele>23.0</ele><time>2026-04-04T07:31:20.009Z</time></trkpt><trkpt lat="41.01167" lon="14.322155"><ele>23.0</ele><time>2026-04-04T07:31:22.011Z</time></trkpt><trkpt lat="41.0117183" lon="14.32221"><ele>23.0</ele><time>2026-04-04T07:31:23.011Z</time></trkpt><trkpt lat="41.0117683" lon="14.3222683"><ele>23.0</ele><time>2026-04-04T07:31:24.01Z</time></trkpt><trkpt lat="41.0118617" lon="14.3223767"><ele>23.0</ele><time>2026-04-04T07:31:26.01Z</time></trkpt><trkpt lat="41.011955" lon="14.3224833"><ele>23.28571428571429</ele><time>2026-04-04T07:31:28.011Z</time></trkpt><trkpt lat="41.0120017" lon="14.3225417"><ele>23.57142857142857</ele><time>2026-04-04T07:31:29.009Z</time></trkpt><trkpt lat="41.0120517" lon="14.3225983"><ele>23.857142857142858</ele><time>2026-04-04T07:31:30.007Z</time></trkpt><trkpt lat="41.0121033" lon="14.322655"><ele>24.142857142857146</ele><time>2026-04-04T07:31:31.008Z</time></trkpt><trkpt lat="41.0121533" lon="14.3227167"><ele>24.42857142857143</ele><time>2026-04-04T07:31:32.008Z</time></trkpt><trkpt lat="41.0122067" lon="14.3227783"><ele>24.714285714285715</ele><time>2026-04-04T07:31:33.01Z</time></trkpt><trkpt lat="41.0122617" lon="14.32284"><ele>25.0</ele><time>2026-04-04T07:31:34.01Z</time></trkpt><trkpt lat="41.012315" lon="14.3229017"><ele>25.000000000000004</ele><time>2026-04-04T07:31:35.01Z</time></trkpt><trkpt lat="41.01237" lon="14.3229633"><ele>25.0</ele><time>2026-04-04T07:31:36.011Z</time></trkpt><trkpt lat="41.012425" lon="14.323025"><ele>25.0</ele><time>2026-04-04T07:31:37.007Z</time></trkpt><trkpt lat="41.0124817" lon="14.3230883"><ele>25.0</ele><time>2026-04-04T07:31:38.01Z</time></trkpt><trkpt lat="41.0125367" lon="14.323155"><ele>25.0</ele><time>2026-04-04T07:31:39.008Z</time></trkpt><trkpt lat="41.0125917" lon="14.3232183"><ele>25.000000000000004</ele><time>2026-04-04T07:31:40.01Z</time></trkpt><trkpt lat="41.0126467" lon="14.3232817"><ele>25.0</ele><time>2026-04-04T07:31:41.008Z</time></trkpt><trkpt lat="41.012705" lon="14.323345"><ele>25.142857142857146</ele><time>2026-04-04T07:31:42.01Z</time></trkpt><trkpt lat="41.01276" lon="14.3234067"><ele>25.285714285714285</ele><time>2026-04-04T07:31:43.01Z</time></trkpt><trkpt lat="41.012815" lon="14.3234683"><ele>25.42857142857143</ele><time>2026-04-04T07:31:44.01Z</time></trkpt><trkpt lat="41.0128683" lon="14.3235267"><ele>25.571428571428573</ele><time>2026-04-04T07:31:45.008Z</time></trkpt><trkpt lat="41.012925" lon="14.323585"><ele>25.714285714285715</ele><time>2026-04-04T07:31:46.008Z</time></trkpt><trkpt lat="41.012985" lon="14.3236467"><ele>25.857142857142858</ele><time>2026-04-04T07:31:47.008Z</time></trkpt><trkpt lat="41.0130417" lon="14.3237117"><ele>26.0</ele><time>2026-04-04T07:31:48.006Z</time></trkpt><trkpt lat="41.0131033" lon="14.3237817"><ele>25.999999999999996</ele><time>2026-04-04T07:31:49.007Z</time></trkpt><trkpt lat="41.01316" lon="14.3238533"><ele>26.0</ele><time>2026-04-04T07:31:50.008Z</time></trkpt><trkpt lat="41.013215" lon="14.3239317"><ele>26.0</ele><time>2026-04-04T07:31:51.009Z</time></trkpt><trkpt lat="41.0132733" lon="14.3240067"><ele>26.0</ele><time>2026-04-04T07:31:52.009Z</time></trkpt><trkpt lat="41.013325" lon="14.3240867"><ele>25.999999999999996</ele><time>2026-04-04T07:31:53.008Z</time></trkpt><trkpt lat="41.0133717" lon="14.324175"><ele>26.0</ele><time>2026-04-04T07:31:54.01Z</time></trkpt><trkpt lat="41.013415" lon="14.3242683"><ele>25.833333333333332</ele><time>2026-04-04T07:31:55.008Z</time></trkpt><trkpt lat="41.0134583" lon="14.3243633"><ele>25.666666666666664</ele><time>2026-04-04T07:31:56.009Z</time></trkpt><trkpt lat="41.0134967" lon="14.3244617"><ele>25.5</ele><time>2026-04-04T07:31:57.008Z</time></trkpt><trkpt lat="41.0135317" lon="14.32456"><ele>25.333333333333336</ele><time>2026-04-04T07:31:58.01Z</time></trkpt><trkpt lat="41.0135633" lon="14.32466"><ele>25.166666666666668</ele><time>2026-04-04T07:31:59.007Z</time></trkpt><trkpt lat="41.013595" lon="14.32476"><ele>25.0</ele><time>2026-04-04T07:32:00.008Z</time></trkpt><trkpt lat="41.01362" lon="14.3248583"><ele>24.666666666666668</ele><time>2026-04-04T07:32:01.006Z</time></trkpt><trkpt lat="41.0136483" lon="14.324955"><ele>24.333333333333336</ele><time>2026-04-04T07:32:02.007Z</time></trkpt><trkpt lat="41.0136767" lon="14.3250517"><ele>24.0</ele><time>2026-04-04T07:32:03.009Z</time></trkpt><trkpt lat="41.0137067" lon="14.325145"><ele>23.666666666666668</ele><time>2026-04-04T07:32:04.007Z</time></trkpt><trkpt lat="41.0137367" lon="14.32524"><ele>23.333333333333336</ele><time>2026-04-04T07:32:05.008Z</time></trkpt><trkpt lat="41.013765" lon="14.3253333"><ele>23.0</ele><time>2026-04-04T07:32:06.009Z</time></trkpt><trkpt lat="41.01379" lon="14.3254283"><ele>23.0</ele><time>2026-04-04T07:32:07.009Z</time></trkpt><trkpt lat="41.0138233" lon="14.325525"><ele>23.0</ele><time>2026-04-04T07:32:08.011Z</time></trkpt><trkpt lat="41.01386" lon="14.3256217"><ele>23.0</ele><time>2026-04-04T07:32:09.008Z</time></trkpt><trkpt lat="41.0138967" lon="14.3257167"><ele>23.0</ele><time>2026-04-04T07:32:10.008Z</time></trkpt><trkpt lat="41.0139367" lon="14.32581"><ele>23.0</ele><time>2026-04-04T07:32:11.007Z</time></trkpt><trkpt lat="41.01398" lon="14.3259017"><ele>23.0</ele><time>2026-04-04T07:32:12.011Z</time></trkpt><trkpt lat="41.014025" lon="14.325995"><ele>23.0</ele><time>2026-04-04T07:32:13.009Z</time></trkpt><trkpt lat="41.01407" lon="14.32609"><ele>23.0</ele><time>2026-04-04T07:32:14.01Z</time></trkpt><trkpt lat="41.0141167" lon="14.3261783"><ele>23.0</ele><time>2026-04-04T07:32:15.009Z</time></trkpt><trkpt lat="41.0141617" lon="14.3262767"><ele>23.0</ele><time>2026-04-04T07:32:16.008Z</time></trkpt><trkpt lat="41.01422" lon="14.3263633"><ele>23.0</ele><time>2026-04-04T07:32:17.01Z</time></trkpt><trkpt lat="41.0142767" lon="14.3264483"><ele>23.0</ele><time>2026-04-04T07:32:18.01Z</time></trkpt><trkpt lat="41.0143417" lon="14.32653"><ele>23.0</ele><time>2026-04-04T07:32:19.007Z</time></trkpt><trkpt lat="41.0144117" lon="14.3266117"><ele>23.0</ele><time>2026-04-04T07:32:20.007Z</time></trkpt><trkpt lat="41.0144833" lon="14.32669"><ele>23.0</ele><time>2026-04-04T07:32:21.008Z</time></trkpt><trkpt lat="41.0145567" lon="14.32677"><ele>23.0</ele><time>2026-04-04T07:32:22.007Z</time></trkpt><trkpt lat="41.0146267" lon="14.326845"><ele>23.0</ele><time>2026-04-04T07:32:23.01Z</time></trkpt><trkpt lat="41.0147033" lon="14.3269117"><ele>23.0</ele><time>2026-04-04T07:32:24.01Z</time></trkpt><trkpt lat="41.0147833" lon="14.3269683"><ele>23.0</ele><time>2026-04-04T07:32:25.01Z</time></trkpt><trkpt lat="41.0148633" lon="14.3270217"><ele>23.0</ele><time>2026-04-04T07:32:26.009Z</time></trkpt><trkpt lat="41.0149433" lon="14.3270733"><ele>23.0</ele><time>2026-04-04T07:32:27.01Z</time></trkpt><trkpt lat="41.0150217" lon="14.3271267"><ele>23.0</ele><time>2026-04-04T07:32:28.01Z</time></trkpt><trkpt lat="41.0150967" lon="14.3271817"><ele>23.0</ele><time>2026-04-04T07:32:29.01Z</time></trkpt><trkpt lat="41.0151733" lon="14.3272417"><ele>23.0</ele><time>2026-04-04T07:32:30.006Z</time></trkpt><trkpt lat="41.015245" lon="14.3273033"><ele>23.0</ele><time>2026-04-04T07:32:31.01Z</time></trkpt><trkpt lat="41.0153167" lon="14.327375"><ele>23.0</ele><time>2026-04-04T07:32:32.01Z</time></trkpt><trkpt lat="41.015375" lon="14.3274583"><ele>23.0</ele><time>2026-04-04T07:32:33.008Z</time></trkpt><trkpt lat="41.015425" lon="14.32755"><ele>23.0</ele><time>2026-04-04T07:32:34.008Z</time></trkpt><trkpt lat="41.015465" lon="14.3276483"><ele>23.0</ele><time>2026-04-04T07:32:35.01Z</time></trkpt><trkpt lat="41.0154983" lon="14.3277517"><ele>23.0</ele><time>2026-04-04T07:32:36.01Z</time></trkpt><trkpt lat="41.015525" lon="14.3278583"><ele>23.0</ele><time>2026-04-04T07:32:37.009Z</time></trkpt><trkpt lat="41.0155417" lon="14.3279683"><ele>23.0</ele><time>2026-04-04T07:32:38.01Z</time></trkpt><trkpt lat="41.0155517" lon="14.3280767"><ele>23.0</ele><time>2026-04-04T07:32:39.008Z</time></trkpt><trkpt lat="41.015555" lon="14.3281883"><ele>23.0</ele><time>2026-04-04T07:32:40.01Z</time></trkpt><trkpt lat="41.0155533" lon="14.3283"><ele>23.0</ele><time>2026-04-04T07:32:41.01Z</time></trkpt><trkpt lat="41.015545" lon="14.3284083"><ele>23.166666666666668</ele><time>2026-04-04T07:32:42.01Z</time></trkpt><trkpt lat="41.0155383" lon="14.328515"><ele>23.333333333333336</ele><time>2026-04-04T07:32:43.011Z</time></trkpt><trkpt lat="41.01553" lon="14.3286233"><ele>23.5</ele><time>2026-04-04T07:32:44.008Z</time></trkpt><trkpt lat="41.015525" lon="14.3287267"><ele>23.666666666666668</ele><time>2026-04-04T07:32:45.009Z</time></trkpt><trkpt lat="41.0155183" lon="14.3288317"><ele>23.833333333333332</ele><time>2026-04-04T07:32:46.01Z</time></trkpt><trkpt lat="41.0155117" lon="14.3289383"><ele>24.0</ele><time>2026-04-04T07:32:47.008Z</time></trkpt><trkpt lat="41.0155067" lon="14.329045"><ele>23.666666666666668</ele><time>2026-04-04T07:32:48.011Z</time></trkpt><trkpt lat="41.0155033" lon="14.32915"><ele>23.333333333333332</ele><time>2026-04-04T07:32:49.011Z</time></trkpt><trkpt lat="41.0154983" lon="14.329255"><ele>23.0</ele><time>2026-04-04T07:32:50.011Z</time></trkpt><trkpt lat="41.0154933" lon="14.3293583"><ele>22.666666666666664</ele><time>2026-04-04T07:32:51.01Z</time></trkpt><trkpt lat="41.0154917" lon="14.3294617"><ele>22.333333333333332</ele><time>2026-04-04T07:32:52.01Z</time></trkpt><trkpt lat="41.0154867" lon="14.3295667"><ele>22.0</ele><time>2026-04-04T07:32:53.011Z</time></trkpt><trkpt lat="41.01548" lon="14.32967"><ele>22.0</ele><time>2026-04-04T07:32:54.007Z</time></trkpt><trkpt lat="41.0154767" lon="14.329775"><ele>22.0</ele><time>2026-04-04T07:32:55.008Z</time></trkpt><trkpt lat="41.0154717" lon="14.3298783"><ele>22.0</ele><time>2026-04-04T07:32:56.009Z</time></trkpt><trkpt lat="41.0154683" lon="14.3299817"><ele>22.0</ele><time>2026-04-04T07:32:57.008Z</time></trkpt><trkpt lat="41.015465" lon="14.330085"><ele>22.0</ele><time>2026-04-04T07:32:58.007Z</time></trkpt><trkpt lat="41.0154633" lon="14.33019"><ele>22.0</ele><time>2026-04-04T07:32:59.009Z</time></trkpt><trkpt lat="41.0154667" lon="14.330295"><ele>22.0</ele><time>2026-04-04T07:33:00.009Z</time></trkpt><trkpt lat="41.01547" lon="14.3304017"><ele>22.0</ele><time>2026-04-04T07:33:01.008Z</time></trkpt><trkpt lat="41.0154733" lon="14.33051"><ele>22.0</ele><time>2026-04-04T07:33:02.008Z</time></trkpt><trkpt lat="41.0154783" lon="14.330615"><ele>22.0</ele><time>2026-04-04T07:33:03.009Z</time></trkpt><trkpt lat="41.0154833" lon="14.3307167"><ele>22.0</ele><time>2026-04-04T07:33:04.008Z</time></trkpt><trkpt lat="41.0154867" lon="14.33082"><ele>22.0</ele><time>2026-04-04T07:33:05.009Z</time></trkpt><trkpt lat="41.0154917" lon="14.3309217"><ele>22.285714285714285</ele><time>2026-04-04T07:33:06.009Z</time></trkpt><trkpt lat="41.0154933" lon="14.3310217"><ele>22.57142857142857</ele><time>2026-04-04T07:33:07.008Z</time></trkpt><trkpt lat="41.0154967" lon="14.3311183"><ele>22.857142857142854</ele><time>2026-04-04T07:33:08.009Z</time></trkpt><trkpt lat="41.0155017" lon="14.33121"><ele>23.142857142857142</ele><time>2026-04-04T07:33:09.008Z</time></trkpt><trkpt lat="41.0155083" lon="14.3313017"><ele>23.428571428571427</ele><time>2026-04-04T07:33:10.009Z</time></trkpt><trkpt lat="41.01551" lon="14.331395"><ele>23.71428571428571</ele><time>2026-04-04T07:33:11.01Z</time></trkpt><trkpt lat="41.0155133" lon="14.3314883"><ele>24.0</ele><time>2026-04-04T07:33:12.01Z</time></trkpt><trkpt lat="41.0155167" lon="14.3315783"><ele>23.999999999999996</ele><time>2026-04-04T07:33:13.008Z</time></trkpt><trkpt lat="41.0155217" lon="14.33167"><ele>24.0</ele><time>2026-04-04T07:33:14.011Z</time></trkpt><trkpt lat="41.0155267" lon="14.3317583"><ele>24.0</ele><time>2026-04-04T07:33:15.01Z</time></trkpt><trkpt lat="41.0155333" lon="14.3318467"><ele>24.0</ele><time>2026-04-04T07:33:16.01Z</time></trkpt><trkpt lat="41.01554" lon="14.3319367"><ele>24.0</ele><time>2026-04-04T07:33:17.01Z</time></trkpt><trkpt lat="41.015545" lon="14.332025"><ele>23.999999999999996</ele><time>2026-04-04T07:33:18.01Z</time></trkpt><trkpt lat="41.0155517" lon="14.3321133"><ele>24.0</ele><time>2026-04-04T07:33:19.01Z</time></trkpt><trkpt lat="41.0155617" lon="14.3322017"><ele>23.428571428571427</ele><time>2026-04-04T07:33:20.009Z</time></trkpt><trkpt lat="41.0155717" lon="14.3322917"><ele>22.857142857142858</ele><time>2026-04-04T07:33:21.01Z</time></trkpt><trkpt lat="41.0155817" lon="14.3323767"><ele>22.285714285714285</ele><time>2026-04-04T07:33:22.01Z</time></trkpt><trkpt lat="41.0155917" lon="14.332465"><ele>21.714285714285715</ele><time>2026-04-04T07:33:23.009Z</time></trkpt><trkpt lat="41.0156033" lon="14.3325517"><ele>21.142857142857142</ele><time>2026-04-04T07:33:24.011Z</time></trkpt><trkpt lat="41.0156117" lon="14.3326417"><ele>20.57142857142857</ele><time>2026-04-04T07:33:25.01Z</time></trkpt><trkpt lat="41.0156217" lon="14.3327317"><ele>20.0</ele><time>2026-04-04T07:33:26.01Z</time></trkpt><trkpt lat="41.0156317" lon="14.33282"><ele>20.0</ele><time>2026-04-04T07:33:27.01Z</time></trkpt><trkpt lat="41.0156433" lon="14.3329033"><ele>20.0</ele><time>2026-04-04T07:33:28.01Z</time></trkpt><trkpt lat="41.0156533" lon="14.3329917"><ele>20.0</ele><time>2026-04-04T07:33:29.01Z</time></trkpt><trkpt lat="41.015665" lon="14.3330817"><ele>20.0</ele><time>2026-04-04T07:33:30.01Z</time></trkpt><trkpt lat="41.0156783" lon="14.333165"><ele>20.0</ele><time>2026-04-04T07:33:31.01Z</time></trkpt><trkpt lat="41.0156883" lon="14.3332517"><ele>20.0</ele><time>2026-04-04T07:33:32.01Z</time></trkpt><trkpt lat="41.0156983" lon="14.33334"><ele>20.0</ele><time>2026-04-04T07:33:33.01Z</time></trkpt><trkpt lat="41.0157083" lon="14.333425"><ele>20.142857142857142</ele><time>2026-04-04T07:33:34.01Z</time></trkpt><trkpt lat="41.0157183" lon="14.3335133"><ele>20.285714285714285</ele><time>2026-04-04T07:33:35.007Z</time></trkpt><trkpt lat="41.01573" lon="14.3336"><ele>20.42857142857143</ele><time>2026-04-04T07:33:36.01Z</time></trkpt><trkpt lat="41.0157417" lon="14.3336867"><ele>20.57142857142857</ele><time>2026-04-04T07:33:37.01Z</time></trkpt><trkpt lat="41.0157517" lon="14.333775"><ele>20.714285714285715</ele><time>2026-04-04T07:33:38.01Z</time></trkpt><trkpt lat="41.0157633" lon="14.3338617"><ele>20.857142857142858</ele><time>2026-04-04T07:33:39.01Z</time></trkpt><trkpt lat="41.015775" lon="14.33395"><ele>21.0</ele><time>2026-04-04T07:33:40.006Z</time></trkpt><trkpt lat="41.0157833" lon="14.3340367"><ele>21.142857142857142</ele><time>2026-04-04T07:33:41.009Z</time></trkpt><trkpt lat="41.0157933" lon="14.3341267"><ele>21.285714285714285</ele><time>2026-04-04T07:33:42.008Z</time></trkpt><trkpt lat="41.0158033" lon="14.334215"><ele>21.42857142857143</ele><time>2026-04-04T07:33:43.007Z</time></trkpt><trkpt lat="41.0158167" lon="14.3343"><ele>21.57142857142857</ele><time>2026-04-04T07:33:44.007Z</time></trkpt><trkpt lat="41.01583" lon="14.3343867"><ele>21.714285714285715</ele><time>2026-04-04T07:33:45.01Z</time></trkpt><trkpt lat="41.0158467" lon="14.3344717"><ele>21.857142857142858</ele><time>2026-04-04T07:33:46.01Z</time></trkpt><trkpt lat="41.0158583" lon="14.334555"><ele>22.0</ele><time>2026-04-04T07:33:47.007Z</time></trkpt><trkpt lat="41.01588" lon="14.3347133"><ele>22.75</ele><time>2026-04-04T07:33:49.007Z</time></trkpt><trkpt lat="41.0159133" lon="14.3348717"><ele>23.5</ele><time>2026-04-04T07:33:51.009Z</time></trkpt><trkpt lat="41.0159517" lon="14.335025"><ele>24.25</ele><time>2026-04-04T07:33:53.008Z</time></trkpt><trkpt lat="41.0159967" lon="14.3351767"><ele>25.0</ele><time>2026-04-04T07:33:55.007Z</time></trkpt><trkpt lat="41.01604" lon="14.3353233"><ele>25.0</ele><time>2026-04-04T07:33:57.008Z</time></trkpt><trkpt lat="41.016085" lon="14.3354683"><ele>25.0</ele><time>2026-04-04T07:33:59.007Z</time></trkpt><trkpt lat="41.0161317" lon="14.3356167"><ele>25.0</ele><time>2026-04-04T07:34:01.01Z</time></trkpt><trkpt lat="41.0161567" lon="14.3356933"><ele>25.0</ele><time>2026-04-04T07:34:02.01Z</time></trkpt><trkpt lat="41.016205" lon="14.3358433"><ele>25.0</ele><time>2026-04-04T07:34:04.009Z</time></trkpt><trkpt lat="41.01625" lon="14.3359967"><ele>24.75</ele><time>2026-04-04T07:34:06.008Z</time></trkpt><trkpt lat="41.0162967" lon="14.3361467"><ele>24.5</ele><time>2026-04-04T07:34:08.009Z</time></trkpt><trkpt lat="41.016345" lon="14.3362933"><ele>24.25</ele><time>2026-04-04T07:34:10.01Z</time></trkpt><trkpt lat="41.0163867" lon="14.3364267"><ele>24.0</ele><time>2026-04-04T07:34:12.008Z</time></trkpt><trkpt lat="41.0164333" lon="14.3365517"><ele>24.0</ele><time>2026-04-04T07:34:14.01Z</time></trkpt><trkpt lat="41.0164783" lon="14.3366883"><ele>24.0</ele><time>2026-04-04T07:34:16.01Z</time></trkpt><trkpt lat="41.016525" lon="14.3368317"><ele>24.0</ele><time>2026-04-04T07:34:18.009Z</time></trkpt><trkpt lat="41.0165667" lon="14.33698"><ele>24.0</ele><time>2026-04-04T07:34:20.008Z</time></trkpt><trkpt lat="41.0166133" lon="14.3371283"><ele>24.0</ele><time>2026-04-04T07:34:22.007Z</time></trkpt><trkpt lat="41.016655" lon="14.3372783"><ele>24.0</ele><time>2026-04-04T07:34:24.011Z</time></trkpt><trkpt lat="41.0166767" lon="14.3374383"><ele>24.0</ele><time>2026-04-04T07:34:26.008Z</time></trkpt><trkpt lat="41.0166817" lon="14.3375983"><ele>24.0</ele><time>2026-04-04T07:34:28.007Z</time></trkpt><trkpt lat="41.0166983" lon="14.337755"><ele>24.0</ele><time>2026-04-04T07:34:30.009Z</time></trkpt><trkpt lat="41.016765" lon="14.3378867"><ele>24.0</ele><time>2026-04-04T07:34:32.009Z</time></trkpt><trkpt lat="41.0168483" lon="14.33799"><ele>24.0</ele><time>2026-04-04T07:34:34.01Z</time></trkpt><trkpt lat="41.0169183" lon="14.3381083"><ele>24.0</ele><time>2026-04-04T07:34:36.007Z</time></trkpt><trkpt lat="41.0169783" lon="14.3382367"><ele>24.5</ele><time>2026-04-04T07:34:38.01Z</time></trkpt><trkpt lat="41.017035" lon="14.3383617"><ele>25.0</ele><time>2026-04-04T07:34:40.01Z</time></trkpt><trkpt lat="41.017085" lon="14.3384883"><ele>25.5</ele><time>2026-04-04T07:34:42.009Z</time></trkpt><trkpt lat="41.01714" lon="14.338625"><ele>26.0</ele><time>2026-04-04T07:34:44.009Z</time></trkpt><trkpt lat="41.017185" lon="14.3387667"><ele>26.0</ele><time>2026-04-04T07:34:46.01Z</time></trkpt><trkpt lat="41.01723" lon="14.3389133"><ele>26.0</ele><time>2026-04-04T07:34:48.009Z</time></trkpt><trkpt lat="41.01728" lon="14.3390583"><ele>26.0</ele><time>2026-04-04T07:34:50.009Z</time></trkpt><trkpt lat="41.0173283" lon="14.339205"><ele>26.0</ele><time>2026-04-04T07:34:52.008Z</time></trkpt><trkpt lat="41.0173767" lon="14.339355"><ele>26.0</ele><time>2026-04-04T07:34:54.01Z</time></trkpt><trkpt lat="41.0174217" lon="14.3394983"><ele>26.0</ele><time>2026-04-04T07:34:56.009Z</time></trkpt><trkpt lat="41.01747" lon="14.3396417"><ele>26.0</ele><time>2026-04-04T07:34:58.009Z</time></trkpt><trkpt lat="41.01752" lon="14.3397917"><ele>26.0</ele><time>2026-04-04T07:35:00.011Z</time></trkpt><trkpt lat="41.0175667" lon="14.33994"><ele>26.166666666666664</ele><time>2026-04-04T07:35:02.011Z</time></trkpt><trkpt lat="41.01759" lon="14.3400183"><ele>26.333333333333332</ele><time>2026-04-04T07:35:03.007Z</time></trkpt><trkpt lat="41.0176333" lon="14.340175"><ele>26.5</ele><time>2026-04-04T07:35:05.011Z</time></trkpt><trkpt lat="41.0176833" lon="14.3403317"><ele>26.666666666666664</ele><time>2026-04-04T07:35:07.01Z</time></trkpt><trkpt lat="41.0177083" lon="14.34041"><ele>26.833333333333332</ele><time>2026-04-04T07:35:08.011Z</time></trkpt><trkpt lat="41.017735" lon="14.3404867"><ele>27.0</ele><time>2026-04-04T07:35:09.01Z</time></trkpt><trkpt lat="41.01776" lon="14.3405633"><ele>27.0</ele><time>2026-04-04T07:35:10.01Z</time></trkpt><trkpt lat="41.01779" lon="14.3406417"><ele>27.0</ele><time>2026-04-04T07:35:11.01Z</time></trkpt><trkpt lat="41.0178133" lon="14.34072"><ele>27.0</ele><time>2026-04-04T07:35:12.009Z</time></trkpt><trkpt lat="41.0178367" lon="14.3407983"><ele>27.0</ele><time>2026-04-04T07:35:13.01Z</time></trkpt><trkpt lat="41.01786" lon="14.3408783"><ele>27.0</ele><time>2026-04-04T07:35:14.01Z</time></trkpt><trkpt lat="41.0178817" lon="14.3409583"><ele>27.0</ele><time>2026-04-04T07:35:15.01Z</time></trkpt><trkpt lat="41.01791" lon="14.3410367"><ele>27.0</ele><time>2026-04-04T07:35:16.01Z</time></trkpt><trkpt lat="41.0179383" lon="14.3411167"><ele>27.0</ele><time>2026-04-04T07:35:17.009Z</time></trkpt><trkpt lat="41.01796" lon="14.3411967"><ele>27.000000000000004</ele><time>2026-04-04T07:35:18.009Z</time></trkpt><trkpt lat="41.0179817" lon="14.3412767"><ele>27.000000000000004</ele><time>2026-04-04T07:35:19.007Z</time></trkpt><trkpt lat="41.0180233" lon="14.3414283"><ele>27.0</ele><time>2026-04-04T07:35:21.009Z</time></trkpt><trkpt lat="41.0180567" lon="14.3415883"><ele>27.0</ele><time>2026-04-04T07:35:23.009Z</time></trkpt><trkpt lat="41.0180717" lon="14.3417533"><ele>27.0</ele><time>2026-04-04T07:35:25.008Z</time></trkpt><trkpt lat="41.0181067" lon="14.34191"><ele>27.0</ele><time>2026-04-04T07:35:27.009Z</time></trkpt><trkpt lat="41.0181783" lon="14.3420433"><ele>27.0</ele><time>2026-04-04T07:35:29.009Z</time></trkpt><trkpt lat="41.0182667" lon="14.3421533"><ele>27.0</ele><time>2026-04-04T07:35:31.01Z</time></trkpt><trkpt lat="41.0183467" lon="14.3422617"><ele>27.5</ele><time>2026-04-04T07:35:33.01Z</time></trkpt><trkpt lat="41.018395" lon="14.342395"><ele>28.0</ele><time>2026-04-04T07:35:35.011Z</time></trkpt><trkpt lat="41.018435" lon="14.3425333"><ele>28.5</ele><time>2026-04-04T07:35:37.01Z</time></trkpt><trkpt lat="41.01848" lon="14.3426817"><ele>29.0</ele><time>2026-04-04T07:35:39.01Z</time></trkpt><trkpt lat="41.0185183" lon="14.3428267"><ele>29.0</ele><time>2026-04-04T07:35:41.01Z</time></trkpt><trkpt lat="41.01856" lon="14.342975"><ele>29.0</ele><time>2026-04-04T07:35:43.01Z</time></trkpt><trkpt lat="41.0186017" lon="14.3431167"><ele>29.0</ele><time>2026-04-04T07:35:45.01Z</time></trkpt><trkpt lat="41.01864" lon="14.3432583"><ele>29.0</ele><time>2026-04-04T07:35:47.007Z</time></trkpt><trkpt lat="41.0186833" lon="14.3433983"><ele>29.0</ele><time>2026-04-04T07:35:49.007Z</time></trkpt><trkpt lat="41.0187267" lon="14.343535"><ele>29.0</ele><time>2026-04-04T07:35:51.009Z</time></trkpt><trkpt lat="41.01877" lon="14.3436717"><ele>29.0</ele><time>2026-04-04T07:35:53.008Z</time></trkpt><trkpt lat="41.018815" lon="14.3438167"><ele>29.0</ele><time>2026-04-04T07:35:55.01Z</time></trkpt><trkpt lat="41.0188633" lon="14.3439633"><ele>29.0</ele><time>2026-04-04T07:35:57.01Z</time></trkpt><trkpt lat="41.0189083" lon="14.34411"><ele>29.0</ele><time>2026-04-04T07:35:59.01Z</time></trkpt><trkpt lat="41.0189533" lon="14.3442633"><ele>29.0</ele><time>2026-04-04T07:36:01.01Z</time></trkpt><trkpt lat="41.018995" lon="14.344415"><ele>29.0</ele><time>2026-04-04T07:36:03.01Z</time></trkpt><trkpt lat="41.0190383" lon="14.3445583"><ele>29.0</ele><time>2026-04-04T07:36:05.01Z</time></trkpt><trkpt lat="41.0190817" lon="14.344695"><ele>29.0</ele><time>2026-04-04T07:36:07.01Z</time></trkpt><trkpt lat="41.0191267" lon="14.3448367"><ele>29.0</ele><time>2026-04-04T07:36:09.007Z</time></trkpt><trkpt lat="41.019175" lon="14.3449783"><ele>29.0</ele><time>2026-04-04T07:36:11.01Z</time></trkpt><trkpt lat="41.0192183" lon="14.3451217"><ele>29.75</ele><time>2026-04-04T07:36:13.007Z</time></trkpt><trkpt lat="41.0192617" lon="14.3452683"><ele>30.5</ele><time>2026-04-04T07:36:15.011Z</time></trkpt><trkpt lat="41.0193067" lon="14.3454133"><ele>31.25</ele><time>2026-04-04T07:36:17.008Z</time></trkpt><trkpt lat="41.0193517" lon="14.3455583"><ele>32.0</ele><time>2026-04-04T07:36:19.008Z</time></trkpt><trkpt lat="41.0193933" lon="14.3456967"><ele>32.0</ele><time>2026-04-04T07:36:21.008Z</time></trkpt><trkpt lat="41.0194367" lon="14.3458417"><ele>32.0</ele><time>2026-04-04T07:36:23.007Z</time></trkpt><trkpt lat="41.0194817" lon="14.3459917"><ele>32.0</ele><time>2026-04-04T07:36:25.008Z</time></trkpt><trkpt lat="41.01953" lon="14.3461417"><ele>32.0</ele><time>2026-04-04T07:36:27.007Z</time></trkpt><trkpt lat="41.0195783" lon="14.3462933"><ele>32.0</ele><time>2026-04-04T07:36:29.01Z</time></trkpt><trkpt lat="41.0196267" lon="14.34644"><ele>32.0</ele><time>2026-04-04T07:36:31.008Z</time></trkpt><trkpt lat="41.0196517" lon="14.3465167"><ele>32.0</ele><time>2026-04-04T07:36:32.008Z</time></trkpt><trkpt lat="41.0196983" lon="14.3466717"><ele>32.0</ele><time>2026-04-04T07:36:34.008Z</time></trkpt><trkpt lat="41.01972" lon="14.3467517"><ele>32.0</ele><time>2026-04-04T07:36:35.009Z</time></trkpt><trkpt lat="41.0197633" lon="14.3469083"><ele>31.999999999999996</ele><time>2026-04-04T07:36:37.011Z</time></trkpt><trkpt lat="41.0197833" lon="14.3469917"><ele>32.0</ele><time>2026-04-04T07:36:38.011Z</time></trkpt><trkpt lat="41.0198067" lon="14.3470717"><ele>32.0</ele><time>2026-04-04T07:36:39.009Z</time></trkpt><trkpt lat="41.0198533" lon="14.3472283"><ele>32.0</ele><time>2026-04-04T07:36:41.007Z</time></trkpt><trkpt lat="41.0199017" lon="14.34738"><ele>31.999999999999996</ele><time>2026-04-04T07:36:43.009Z</time></trkpt><trkpt lat="41.0199267" lon="14.3474617"><ele>32.0</ele><time>2026-04-04T07:36:44.01Z</time></trkpt><trkpt lat="41.0199533" lon="14.347545"><ele>32.0</ele><time>2026-04-04T07:36:45.01Z</time></trkpt><trkpt lat="41.0199783" lon="14.3476233"><ele>31.999999999999996</ele><time>2026-04-04T07:36:46.01Z</time></trkpt><trkpt lat="41.0200067" lon="14.347705"><ele>32.0</ele><time>2026-04-04T07:36:47.007Z</time></trkpt><trkpt lat="41.0200333" lon="14.347785"><ele>32.0</ele><time>2026-04-04T07:36:48.01Z</time></trkpt><trkpt lat="41.0200617" lon="14.3478667"><ele>31.999999999999996</ele><time>2026-04-04T07:36:49.008Z</time></trkpt><trkpt lat="41.0200867" lon="14.3479467"><ele>32.0</ele><time>2026-04-04T07:36:50.008Z</time></trkpt><trkpt lat="41.0201117" lon="14.348025"><ele>32.0</ele><time>2026-04-04T07:36:51.009Z</time></trkpt><trkpt lat="41.02016" lon="14.3481783"><ele>32.14285714285714</ele><time>2026-04-04T07:36:53.009Z</time></trkpt><trkpt lat="41.020185" lon="14.3482567"><ele>32.285714285714285</ele><time>2026-04-04T07:36:54.011Z</time></trkpt><trkpt lat="41.02021" lon="14.348335"><ele>32.42857142857143</ele><time>2026-04-04T07:36:55.009Z</time></trkpt><trkpt lat="41.020235" lon="14.348415"><ele>32.57142857142857</ele><time>2026-04-04T07:36:56.008Z</time></trkpt><trkpt lat="41.02026" lon="14.3484967"><ele>32.714285714285715</ele><time>2026-04-04T07:36:57.007Z</time></trkpt><trkpt lat="41.020285" lon="14.3485767"><ele>32.857142857142854</ele><time>2026-04-04T07:36:58.007Z</time></trkpt><trkpt lat="41.02031" lon="14.348655"><ele>33.0</ele><time>2026-04-04T07:36:59.008Z</time></trkpt><trkpt lat="41.020335" lon="14.348735"><ele>33.0</ele><time>2026-04-04T07:37:00.008Z</time></trkpt><trkpt lat="41.0203583" lon="14.348815"><ele>33.0</ele><time>2026-04-04T07:37:01.008Z</time></trkpt><trkpt lat="41.0203833" lon="14.348895"><ele>33.0</ele><time>2026-04-04T07:37:02.008Z</time></trkpt><trkpt lat="41.02041" lon="14.3489767"><ele>33.0</ele><time>2026-04-04T07:37:03.008Z</time></trkpt><trkpt lat="41.0204367" lon="14.34906"><ele>33.0</ele><time>2026-04-04T07:37:04.009Z</time></trkpt><trkpt lat="41.0204633" lon="14.3491433"><ele>33.0</ele><time>2026-04-04T07:37:05.007Z</time></trkpt><trkpt lat="41.02049" lon="14.3492233"><ele>33.0</ele><time>2026-04-04T07:37:06.008Z</time></trkpt><trkpt lat="41.020515" lon="14.3493067"><ele>33.0</ele><time>2026-04-04T07:37:07.009Z</time></trkpt><trkpt lat="41.0205383" lon="14.34939"><ele>33.0</ele><time>2026-04-04T07:37:08.008Z</time></trkpt><trkpt lat="41.020565" lon="14.3494717"><ele>33.0</ele><time>2026-04-04T07:37:09.008Z</time></trkpt><trkpt lat="41.0205917" lon="14.3495533"><ele>33.0</ele><time>2026-04-04T07:37:10.008Z</time></trkpt><trkpt lat="41.0206167" lon="14.349635"><ele>33.0</ele><time>2026-04-04T07:37:11.009Z</time></trkpt><trkpt lat="41.02064" lon="14.349715"><ele>33.0</ele><time>2026-04-04T07:37:12.009Z</time></trkpt><trkpt lat="41.0206633" lon="14.349795"><ele>33.0</ele><time>2026-04-04T07:37:13.008Z</time></trkpt><trkpt lat="41.0206883" lon="14.349875"><ele>33.0</ele><time>2026-04-04T07:37:14.008Z</time></trkpt><trkpt lat="41.020715" lon="14.3499533"><ele>33.0</ele><time>2026-04-04T07:37:15.01Z</time></trkpt><trkpt lat="41.02074" lon="14.3500317"><ele>33.0</ele><time>2026-04-04T07:37:16.01Z</time></trkpt><trkpt lat="41.0207633" lon="14.3501117"><ele>33.0</ele><time>2026-04-04T07:37:17.007Z</time></trkpt><trkpt lat="41.020785" lon="14.3501967"><ele>33.0</ele><time>2026-04-04T07:37:18.009Z</time></trkpt><trkpt lat="41.0208083" lon="14.3502767"><ele>33.0</ele><time>2026-04-04T07:37:19.008Z</time></trkpt><trkpt lat="41.0208317" lon="14.3503583"><ele>33.0</ele><time>2026-04-04T07:37:20.008Z</time></trkpt><trkpt lat="41.0208533" lon="14.3504383"><ele>33.0</ele><time>2026-04-04T07:37:21.007Z</time></trkpt><trkpt lat="41.0208767" lon="14.3505183"><ele>33.0</ele><time>2026-04-04T07:37:22.007Z</time></trkpt><trkpt lat="41.0209" lon="14.3505983"><ele>33.0</ele><time>2026-04-04T07:37:23.008Z</time></trkpt><trkpt lat="41.0209233" lon="14.3506783"><ele>33.0</ele><time>2026-04-04T07:37:24.01Z</time></trkpt><trkpt lat="41.0209433" lon="14.35076"><ele>33.0</ele><time>2026-04-04T07:37:25.009Z</time></trkpt><trkpt lat="41.0209667" lon="14.35084"><ele>33.0</ele><time>2026-04-04T07:37:26.01Z</time></trkpt><trkpt lat="41.02099" lon="14.3509217"><ele>33.0</ele><time>2026-04-04T07:37:27.01Z</time></trkpt><trkpt lat="41.0210133" lon="14.351"><ele>33.0</ele><time>2026-04-04T07:37:28.01Z</time></trkpt><trkpt lat="41.0210617" lon="14.35115"><ele>33.0</ele><time>2026-04-04T07:37:30.01Z</time></trkpt><trkpt lat="41.0210867" lon="14.3512267"><ele>33.0</ele><time>2026-04-04T07:37:31.009Z</time></trkpt><trkpt lat="41.0211117" lon="14.35131"><ele>33.0</ele><time>2026-04-04T07:37:32.011Z</time></trkpt><trkpt lat="41.021135" lon="14.35139"><ele>33.0</ele><time>2026-04-04T07:37:33.011Z</time></trkpt><trkpt lat="41.02118" lon="14.351545"><ele>33.0</ele><time>2026-04-04T07:37:35.007Z</time></trkpt><trkpt lat="41.02123" lon="14.3516933"><ele>33.14285714285714</ele><time>2026-04-04T07:37:37.009Z</time></trkpt><trkpt lat="41.0212517" lon="14.351775"><ele>33.285714285714285</ele><time>2026-04-04T07:37:38.01Z</time></trkpt><trkpt lat="41.0212767" lon="14.3518583"><ele>33.42857142857143</ele><time>2026-04-04T07:37:39.01Z</time></trkpt><trkpt lat="41.0213" lon="14.3519367"><ele>33.57142857142857</ele><time>2026-04-04T07:37:40.009Z</time></trkpt><trkpt lat="41.0213267" lon="14.3520167"><ele>33.714285714285715</ele><time>2026-04-04T07:37:41.01Z</time></trkpt><trkpt lat="41.0213533" lon="14.352095"><ele>33.857142857142854</ele><time>2026-04-04T07:37:42.01Z</time></trkpt><trkpt lat="41.02138" lon="14.3521783"><ele>34.0</ele><time>2026-04-04T07:37:43.009Z</time></trkpt><trkpt lat="41.02141" lon="14.3522567"><ele>33.99999999999999</ele><time>2026-04-04T07:37:44.01Z</time></trkpt><trkpt lat="41.0214433" lon="14.3523367"><ele>34.0</ele><time>2026-04-04T07:37:45.01Z</time></trkpt><trkpt lat="41.0214733" lon="14.35242"><ele>34.0</ele><time>2026-04-04T07:37:46.01Z</time></trkpt><trkpt lat="41.0214983" lon="14.35251"><ele>34.0</ele><time>2026-04-04T07:37:47.01Z</time></trkpt><trkpt lat="41.0215233" lon="14.3525933"><ele>34.0</ele><time>2026-04-04T07:37:48.01Z</time></trkpt><trkpt lat="41.0215467" lon="14.3526717"><ele>33.99999999999999</ele><time>2026-04-04T07:37:49.01Z</time></trkpt><trkpt lat="41.02157" lon="14.352755"><ele>34.0</ele><time>2026-04-04T07:37:50.01Z</time></trkpt><trkpt lat="41.0215917" lon="14.35284"><ele>33.99999999999999</ele><time>2026-04-04T07:37:51.01Z</time></trkpt><trkpt lat="41.021615" lon="14.352925"><ele>34.0</ele><time>2026-04-04T07:37:52.01Z</time></trkpt><trkpt lat="41.02164" lon="14.3530117"><ele>34.0</ele><time>2026-04-04T07:37:53.01Z</time></trkpt><trkpt lat="41.0216633" lon="14.3530917"><ele>34.0</ele><time>2026-04-04T07:37:54.006Z</time></trkpt><trkpt lat="41.0216883" lon="14.3531733"><ele>34.0</ele><time>2026-04-04T07:37:55.01Z</time></trkpt><trkpt lat="41.0217117" lon="14.3532583"><ele>33.99999999999999</ele><time>2026-04-04T07:37:56.01Z</time></trkpt><trkpt lat="41.0217333" lon="14.3533417"><ele>34.0</ele><time>2026-04-04T07:37:57.01Z</time></trkpt><trkpt lat="41.0217567" lon="14.35342"><ele>34.0</ele><time>2026-04-04T07:37:58.01Z</time></trkpt><trkpt lat="41.02178" lon="14.3534983"><ele>34.0</ele><time>2026-04-04T07:37:59.01Z</time></trkpt><trkpt lat="41.0218233" lon="14.353655"><ele>34.0</ele><time>2026-04-04T07:38:01.009Z</time></trkpt><trkpt lat="41.02187" lon="14.353805"><ele>34.0</ele><time>2026-04-04T07:38:03.009Z</time></trkpt><trkpt lat="41.0219167" lon="14.3539617"><ele>34.0</ele><time>2026-04-04T07:38:05.009Z</time></trkpt><trkpt lat="41.0219417" lon="14.3540417"><ele>34.14285714285714</ele><time>2026-04-04T07:38:06.007Z</time></trkpt><trkpt lat="41.021965" lon="14.354125"><ele>34.285714285714285</ele><time>2026-04-04T07:38:07.009Z</time></trkpt><trkpt lat="41.0219883" lon="14.354205"><ele>34.42857142857143</ele><time>2026-04-04T07:38:08.008Z</time></trkpt><trkpt lat="41.0220117" lon="14.3542867"><ele>34.57142857142857</ele><time>2026-04-04T07:38:09.008Z</time></trkpt><trkpt lat="41.0220317" lon="14.35437"><ele>34.714285714285715</ele><time>2026-04-04T07:38:10.009Z</time></trkpt><trkpt lat="41.022055" lon="14.3544517"><ele>34.857142857142854</ele><time>2026-04-04T07:38:11.009Z</time></trkpt><trkpt lat="41.0220767" lon="14.354535"><ele>35.0</ele><time>2026-04-04T07:38:12.008Z</time></trkpt><trkpt lat="41.0221" lon="14.35462"><ele>35.0</ele><time>2026-04-04T07:38:13.007Z</time></trkpt><trkpt lat="41.022125" lon="14.3547033"><ele>35.0</ele><time>2026-04-04T07:38:14.008Z</time></trkpt><trkpt lat="41.02215" lon="14.3547883"><ele>35.0</ele><time>2026-04-04T07:38:15.01Z</time></trkpt><trkpt lat="41.0221733" lon="14.3548717"><ele>35.0</ele><time>2026-04-04T07:38:16.01Z</time></trkpt><trkpt lat="41.0221983" lon="14.3549567"><ele>35.0</ele><time>2026-04-04T07:38:17.011Z</time></trkpt><trkpt lat="41.0222217" lon="14.35504"><ele>35.0</ele><time>2026-04-04T07:38:18.011Z</time></trkpt><trkpt lat="41.022245" lon="14.3551233"><ele>35.0</ele><time>2026-04-04T07:38:19.009Z</time></trkpt><trkpt lat="41.02227" lon="14.355205"><ele>35.285714285714285</ele><time>2026-04-04T07:38:20.01Z</time></trkpt><trkpt lat="41.022295" lon="14.3552867"><ele>35.57142857142857</ele><time>2026-04-04T07:38:21.01Z</time></trkpt><trkpt lat="41.0223167" lon="14.355375"><ele>35.85714285714286</ele><time>2026-04-04T07:38:22.01Z</time></trkpt><trkpt lat="41.0223417" lon="14.3554617"><ele>36.14285714285714</ele><time>2026-04-04T07:38:23.01Z</time></trkpt><trkpt lat="41.0223683" lon="14.35555"><ele>36.42857142857143</ele><time>2026-04-04T07:38:24.01Z</time></trkpt><trkpt lat="41.0223933" lon="14.3556333"><ele>36.714285714285715</ele><time>2026-04-04T07:38:25.008Z</time></trkpt><trkpt lat="41.0224183" lon="14.355715"><ele>37.0</ele><time>2026-04-04T07:38:26.009Z</time></trkpt><trkpt lat="41.0224433" lon="14.355795"><ele>37.0</ele><time>2026-04-04T07:38:27.008Z</time></trkpt><trkpt lat="41.02247" lon="14.3558767"><ele>37.0</ele><time>2026-04-04T07:38:28.007Z</time></trkpt><trkpt lat="41.0224983" lon="14.35596"><ele>37.0</ele><time>2026-04-04T07:38:29.009Z</time></trkpt><trkpt lat="41.0225217" lon="14.3560467"><ele>37.0</ele><time>2026-04-04T07:38:30.008Z</time></trkpt><trkpt lat="41.0225483" lon="14.3561267"><ele>37.0</ele><time>2026-04-04T07:38:31.009Z</time></trkpt><trkpt lat="41.022575" lon="14.3562033"><ele>37.0</ele><time>2026-04-04T07:38:32.01Z</time></trkpt><trkpt lat="41.0226017" lon="14.356285"><ele>37.0</ele><time>2026-04-04T07:38:33.007Z</time></trkpt><trkpt lat="41.0226267" lon="14.3563633"><ele>36.85714285714286</ele><time>2026-04-04T07:38:34.008Z</time></trkpt><trkpt lat="41.0226517" lon="14.356445"><ele>36.714285714285715</ele><time>2026-04-04T07:38:35.008Z</time></trkpt><trkpt lat="41.0226733" lon="14.3565317"><ele>36.57142857142857</ele><time>2026-04-04T07:38:36.008Z</time></trkpt><trkpt lat="41.0226983" lon="14.3566133"><ele>36.42857142857143</ele><time>2026-04-04T07:38:37.008Z</time></trkpt><trkpt lat="41.0227217" lon="14.356695"><ele>36.285714285714285</ele><time>2026-04-04T07:38:38.009Z</time></trkpt><trkpt lat="41.0227467" lon="14.35678"><ele>36.142857142857146</ele><time>2026-04-04T07:38:39.01Z</time></trkpt><trkpt lat="41.0227733" lon="14.3568633"><ele>36.0</ele><time>2026-04-04T07:38:40.011Z</time></trkpt><trkpt lat="41.0227983" lon="14.356945"><ele>36.00000000000001</ele><time>2026-04-04T07:38:41.009Z</time></trkpt><trkpt lat="41.0228217" lon="14.357025"><ele>36.0</ele><time>2026-04-04T07:38:42.009Z</time></trkpt><trkpt lat="41.0228467" lon="14.3571083"><ele>36.0</ele><time>2026-04-04T07:38:43.009Z</time></trkpt><trkpt lat="41.02287" lon="14.3571883"><ele>36.0</ele><time>2026-04-04T07:38:44.01Z</time></trkpt><trkpt lat="41.0228917" lon="14.3572683"><ele>36.0</ele><time>2026-04-04T07:38:45.01Z</time></trkpt><trkpt lat="41.0229133" lon="14.35735"><ele>36.00000000000001</ele><time>2026-04-04T07:38:46.01Z</time></trkpt><trkpt lat="41.0229367" lon="14.35743"><ele>36.0</ele><time>2026-04-04T07:38:47.011Z</time></trkpt><trkpt lat="41.0229617" lon="14.35751"><ele>35.85714285714286</ele><time>2026-04-04T07:38:48.008Z</time></trkpt><trkpt lat="41.0229867" lon="14.3575933"><ele>35.714285714285715</ele><time>2026-04-04T07:38:49.01Z</time></trkpt><trkpt lat="41.0230117" lon="14.3576717"><ele>35.57142857142857</ele><time>2026-04-04T07:38:50.01Z</time></trkpt><trkpt lat="41.0230367" lon="14.35775"><ele>35.42857142857143</ele><time>2026-04-04T07:38:51.01Z</time></trkpt><trkpt lat="41.02306" lon="14.3578283"><ele>35.285714285714285</ele><time>2026-04-04T07:38:52.01Z</time></trkpt><trkpt lat="41.0230817" lon="14.3579067"><ele>35.142857142857146</ele><time>2026-04-04T07:38:53.01Z</time></trkpt><trkpt lat="41.023125" lon="14.358055"><ele>35.0</ele><time>2026-04-04T07:38:55.01Z</time></trkpt><trkpt lat="41.0231583" lon="14.3581983"><ele>35.0</ele><time>2026-04-04T07:38:57.011Z</time></trkpt><trkpt lat="41.02314" lon="14.3583433"><ele>35.0</ele><time>2026-04-04T07:38:59.009Z</time></trkpt><trkpt lat="41.0231267" lon="14.3584967"><ele>35.0</ele><time>2026-04-04T07:39:01.007Z</time></trkpt><trkpt lat="41.02315" lon="14.3586583"><ele>35.0</ele><time>2026-04-04T07:39:03.008Z</time></trkpt><trkpt lat="41.0231817" lon="14.358735"><ele>35.0</ele><time>2026-04-04T07:39:04.008Z</time></trkpt><trkpt lat="41.0232233" lon="14.3588067"><ele>35.285714285714285</ele><time>2026-04-04T07:39:05.009Z</time></trkpt><trkpt lat="41.0232733" lon="14.35887"><ele>35.57142857142857</ele><time>2026-04-04T07:39:06.008Z</time></trkpt><trkpt lat="41.0233283" lon="14.3589267"><ele>35.85714285714286</ele><time>2026-04-04T07:39:07.009Z</time></trkpt><trkpt lat="41.0233817" lon="14.3589867"><ele>36.14285714285714</ele><time>2026-04-04T07:39:08.01Z</time></trkpt><trkpt lat="41.0234217" lon="14.3590583"><ele>36.42857142857143</ele><time>2026-04-04T07:39:09.01Z</time></trkpt><trkpt lat="41.0234483" lon="14.35914"><ele>36.714285714285715</ele><time>2026-04-04T07:39:10.011Z</time></trkpt><trkpt lat="41.023475" lon="14.3592233"><ele>37.0</ele><time>2026-04-04T07:39:11.011Z</time></trkpt><trkpt lat="41.0235" lon="14.359305"><ele>37.285714285714285</ele><time>2026-04-04T07:39:12.01Z</time></trkpt><trkpt lat="41.0235217" lon="14.359385"><ele>37.57142857142857</ele><time>2026-04-04T07:39:13.009Z</time></trkpt><trkpt lat="41.023545" lon="14.3594633"><ele>37.85714285714286</ele><time>2026-04-04T07:39:14.011Z</time></trkpt><trkpt lat="41.0235683" lon="14.3595467"><ele>38.14285714285714</ele><time>2026-04-04T07:39:15.01Z</time></trkpt><trkpt lat="41.02359" lon="14.3596317"><ele>38.42857142857142</ele><time>2026-04-04T07:39:16.01Z</time></trkpt><trkpt lat="41.0236117" lon="14.3597117"><ele>38.714285714285715</ele><time>2026-04-04T07:39:17.008Z</time></trkpt><trkpt lat="41.0236367" lon="14.3597883"><ele>39.0</ele><time>2026-04-04T07:39:18.009Z</time></trkpt><trkpt lat="41.0236667" lon="14.3598633"><ele>39.2</ele><time>2026-04-04T07:39:19.009Z</time></trkpt><trkpt lat="41.0237117" lon="14.3600067"><ele>39.4</ele><time>2026-04-04T07:39:21.01Z</time></trkpt><trkpt lat="41.0237367" lon="14.36009"><ele>39.6</ele><time>2026-04-04T07:39:22.009Z</time></trkpt><trkpt lat="41.0237767" lon="14.3602433"><ele>39.8</ele><time>2026-04-04T07:39:24.009Z</time></trkpt><trkpt lat="41.0238183" lon="14.3603933"><ele>40.0</ele><time>2026-04-04T07:39:26.008Z</time></trkpt><trkpt lat="41.0238433" lon="14.36047"><ele>40.0</ele><time>2026-04-04T07:39:27.008Z</time></trkpt><trkpt lat="41.02387" lon="14.36055"><ele>40.0</ele><time>2026-04-04T07:39:28.009Z</time></trkpt><trkpt lat="41.0238967" lon="14.3606383"><ele>40.0</ele><time>2026-04-04T07:39:29.011Z</time></trkpt><trkpt lat="41.023925" lon="14.3607233"><ele>40.0</ele><time>2026-04-04T07:39:30.008Z</time></trkpt><trkpt lat="41.0239533" lon="14.360805"><ele>40.0</ele><time>2026-04-04T07:39:31.008Z</time></trkpt><trkpt lat="41.0239817" lon="14.360885"><ele>40.0</ele><time>2026-04-04T07:39:32.008Z</time></trkpt><trkpt lat="41.024005" lon="14.3609633"><ele>40.0</ele><time>2026-04-04T07:39:33.008Z</time></trkpt><trkpt lat="41.02403" lon="14.361045"><ele>40.0</ele><time>2026-04-04T07:39:34.007Z</time></trkpt><trkpt lat="41.0240733" lon="14.3612"><ele>40.0</ele><time>2026-04-04T07:39:36.008Z</time></trkpt><trkpt lat="41.0240967" lon="14.3612817"><ele>40.0</ele><time>2026-04-04T07:39:37.009Z</time></trkpt><trkpt lat="41.02412" lon="14.36136"><ele>40.0</ele><time>2026-04-04T07:39:38.007Z</time></trkpt><trkpt lat="41.0241667" lon="14.361515"><ele>40.0</ele><time>2026-04-04T07:39:40.007Z</time></trkpt><trkpt lat="41.02419" lon="14.3615933"><ele>40.0</ele><time>2026-04-04T07:39:41.007Z</time></trkpt><trkpt lat="41.0242117" lon="14.3616733"><ele>39.8</ele><time>2026-04-04T07:39:42.008Z</time></trkpt><trkpt lat="41.024235" lon="14.3617533"><ele>39.6</ele><time>2026-04-04T07:39:43.008Z</time></trkpt><trkpt lat="41.02426" lon="14.3618317"><ele>39.4</ele><time>2026-04-04T07:39:44.008Z</time></trkpt><trkpt lat="41.0242833" lon="14.361915"><ele>39.2</ele><time>2026-04-04T07:39:45.008Z</time></trkpt><trkpt lat="41.0243283" lon="14.36207"><ele>39.0</ele><time>2026-04-04T07:39:47.009Z</time></trkpt><trkpt lat="41.0243733" lon="14.36223"><ele>39.0</ele><time>2026-04-04T07:39:49.007Z</time></trkpt><trkpt lat="41.0243933" lon="14.36231"><ele>39.0</ele><time>2026-04-04T07:39:50.007Z</time></trkpt><trkpt lat="41.024435" lon="14.362465"><ele>39.0</ele><time>2026-04-04T07:39:52.007Z</time></trkpt><trkpt lat="41.0244817" lon="14.36262"><ele>39.0</ele><time>2026-04-04T07:39:54.007Z</time></trkpt><trkpt lat="41.0245067" lon="14.3626967"><ele>39.0</ele><time>2026-04-04T07:39:55.008Z</time></trkpt><trkpt lat="41.0245583" lon="14.3628483"><ele>39.0</ele><time>2026-04-04T07:39:57.007Z</time></trkpt><trkpt lat="41.0245817" lon="14.36293"><ele>39.0</ele><time>2026-04-04T07:39:58.009Z</time></trkpt><trkpt lat="41.02463" lon="14.3630817"><ele>39.0</ele><time>2026-04-04T07:40:00.009Z</time></trkpt><trkpt lat="41.0246783" lon="14.3632317"><ele>39.0</ele><time>2026-04-04T07:40:02.007Z</time></trkpt><trkpt lat="41.0247033" lon="14.36331"><ele>39.0</ele><time>2026-04-04T07:40:03.01Z</time></trkpt><trkpt lat="41.0247267" lon="14.36339"><ele>39.0</ele><time>2026-04-04T07:40:04.007Z</time></trkpt><trkpt lat="41.0247733" lon="14.3635467"><ele>39.2</ele><time>2026-04-04T07:40:06.008Z</time></trkpt><trkpt lat="41.0248217" lon="14.3637017"><ele>39.4</ele><time>2026-04-04T07:40:08.008Z</time></trkpt><trkpt lat="41.0248733" lon="14.3638517"><ele>39.6</ele><time>2026-04-04T07:40:10.008Z</time></trkpt><trkpt lat="41.0248983" lon="14.3639317"><ele>39.8</ele><time>2026-04-04T07:40:11.009Z</time></trkpt><trkpt lat="41.0249433" lon="14.3640867"><ele>40.0</ele><time>2026-04-04T07:40:13.008Z</time></trkpt><trkpt lat="41.02499" lon="14.364245"><ele>40.14285714285714</ele><time>2026-04-04T07:40:15.007Z</time></trkpt><trkpt lat="41.0250167" lon="14.3643233"><ele>40.285714285714285</ele><time>2026-04-04T07:40:16.01Z</time></trkpt><trkpt lat="41.0250417" lon="14.364405"><ele>40.42857142857143</ele><time>2026-04-04T07:40:17.009Z</time></trkpt><trkpt lat="41.0250667" lon="14.36449"><ele>40.57142857142857</ele><time>2026-04-04T07:40:18.008Z</time></trkpt><trkpt lat="41.0250933" lon="14.364575"><ele>40.714285714285715</ele><time>2026-04-04T07:40:19.008Z</time></trkpt><trkpt lat="41.0251183" lon="14.3646583"><ele>40.857142857142854</ele><time>2026-04-04T07:40:20.007Z</time></trkpt><trkpt lat="41.025145" lon="14.3647417"><ele>41.0</ele><time>2026-04-04T07:40:21.007Z</time></trkpt><trkpt lat="41.02517" lon="14.3648233"><ele>40.99999999999999</ele><time>2026-04-04T07:40:22.011Z</time></trkpt><trkpt lat="41.0251933" lon="14.3649067"><ele>41.0</ele><time>2026-04-04T07:40:23.008Z</time></trkpt><trkpt lat="41.02522" lon="14.36499"><ele>41.0</ele><time>2026-04-04T07:40:24.007Z</time></trkpt><trkpt lat="41.0252433" lon="14.365075"><ele>41.0</ele><time>2026-04-04T07:40:25.008Z</time></trkpt><trkpt lat="41.02527" lon="14.3651617"><ele>41.0</ele><time>2026-04-04T07:40:26.008Z</time></trkpt><trkpt lat="41.025295" lon="14.365245"><ele>40.99999999999999</ele><time>2026-04-04T07:40:27.007Z</time></trkpt><trkpt lat="41.02532" lon="14.3653333"><ele>41.0</ele><time>2026-04-04T07:40:28.007Z</time></trkpt><trkpt lat="41.025345" lon="14.3654167"><ele>40.99999999999999</ele><time>2026-04-04T07:40:29.009Z</time></trkpt><trkpt lat="41.02537" lon="14.3655"><ele>41.0</ele><time>2026-04-04T07:40:30.009Z</time></trkpt><trkpt lat="41.0253933" lon="14.3655817"><ele>41.0</ele><time>2026-04-04T07:40:31.009Z</time></trkpt><trkpt lat="41.02542" lon="14.3656633"><ele>41.0</ele><time>2026-04-04T07:40:32.006Z</time></trkpt><trkpt lat="41.0254467" lon="14.3657467"><ele>41.0</ele><time>2026-04-04T07:40:33.01Z</time></trkpt><trkpt lat="41.0254733" lon="14.3658283"><ele>40.99999999999999</ele><time>2026-04-04T07:40:34.009Z</time></trkpt><trkpt lat="41.0255" lon="14.365915"><ele>41.0</ele><time>2026-04-04T07:40:35.009Z</time></trkpt><trkpt lat="41.0255267" lon="14.3659983"><ele>40.99999999999999</ele><time>2026-04-04T07:40:36.009Z</time></trkpt><trkpt lat="41.0255517" lon="14.3660833"><ele>41.0</ele><time>2026-04-04T07:40:37.009Z</time></trkpt><trkpt lat="41.025575" lon="14.3661667"><ele>41.0</ele><time>2026-04-04T07:40:38.01Z</time></trkpt><trkpt lat="41.0256" lon="14.3662467"><ele>41.0</ele><time>2026-04-04T07:40:39.01Z</time></trkpt><trkpt lat="41.0256267" lon="14.366325"><ele>41.0</ele><time>2026-04-04T07:40:40.009Z</time></trkpt><trkpt lat="41.0256533" lon="14.3664117"><ele>40.99999999999999</ele><time>2026-04-04T07:40:41.007Z</time></trkpt><trkpt lat="41.0256833" lon="14.366495"><ele>41.0</ele><time>2026-04-04T07:40:42.011Z</time></trkpt><trkpt lat="41.0257083" lon="14.3665783"><ele>40.99999999999999</ele><time>2026-04-04T07:40:43.009Z</time></trkpt><trkpt lat="41.0257317" lon="14.3666633"><ele>41.0</ele><time>2026-04-04T07:40:44.01Z</time></trkpt><trkpt lat="41.0257533" lon="14.36675"><ele>41.0</ele><time>2026-04-04T07:40:45.008Z</time></trkpt><trkpt lat="41.0257733" lon="14.3668383"><ele>41.0</ele><time>2026-04-04T07:40:46.009Z</time></trkpt><trkpt lat="41.025795" lon="14.3669217"><ele>41.0</ele><time>2026-04-04T07:40:47.01Z</time></trkpt><trkpt lat="41.025815" lon="14.3670067"><ele>40.99999999999999</ele><time>2026-04-04T07:40:48.009Z</time></trkpt><trkpt lat="41.0258317" lon="14.36709"><ele>41.0</ele><time>2026-04-04T07:40:49.009Z</time></trkpt><trkpt lat="41.0258517" lon="14.3671767"><ele>41.14285714285714</ele><time>2026-04-04T07:40:50.007Z</time></trkpt><trkpt lat="41.02587" lon="14.3672617"><ele>41.285714285714285</ele><time>2026-04-04T07:40:51.008Z</time></trkpt><trkpt lat="41.0258867" lon="14.36735"><ele>41.42857142857143</ele><time>2026-04-04T07:40:52.008Z</time></trkpt><trkpt lat="41.025905" lon="14.3674367"><ele>41.57142857142857</ele><time>2026-04-04T07:40:53.008Z</time></trkpt><trkpt lat="41.02592" lon="14.3675233"><ele>41.714285714285715</ele><time>2026-04-04T07:40:54.008Z</time></trkpt><trkpt lat="41.025935" lon="14.36761"><ele>41.857142857142854</ele><time>2026-04-04T07:40:55.008Z</time></trkpt><trkpt lat="41.0259483" lon="14.3676983"><ele>42.0</ele><time>2026-04-04T07:40:56.007Z</time></trkpt><trkpt lat="41.0259617" lon="14.367785"><ele>42.0</ele><time>2026-04-04T07:40:57.008Z</time></trkpt><trkpt lat="41.0259717" lon="14.3678733"><ele>42.0</ele><time>2026-04-04T07:40:58.008Z</time></trkpt><trkpt lat="41.0259767" lon="14.3679667"><ele>42.0</ele><time>2026-04-04T07:40:59.01Z</time></trkpt><trkpt lat="41.0259767" lon="14.36806"><ele>42.0</ele><time>2026-04-04T07:41:00.009Z</time></trkpt><trkpt lat="41.0259733" lon="14.36815"><ele>42.0</ele><time>2026-04-04T07:41:01.009Z</time></trkpt><trkpt lat="41.0259683" lon="14.3682367"><ele>42.0</ele><time>2026-04-04T07:41:02.009Z</time></trkpt><trkpt lat="41.02596" lon="14.36832"><ele>42.0</ele><time>2026-04-04T07:41:03.01Z</time></trkpt><trkpt lat="41.0259467" lon="14.368405"><ele>42.0</ele><time>2026-04-04T07:41:04.01Z</time></trkpt><trkpt lat="41.02593" lon="14.3684933"><ele>42.0</ele><time>2026-04-04T07:41:05.01Z</time></trkpt><trkpt lat="41.0259133" lon="14.3685867"><ele>42.0</ele><time>2026-04-04T07:41:06.01Z</time></trkpt><trkpt lat="41.025895" lon="14.368675"><ele>42.0</ele><time>2026-04-04T07:41:07.009Z</time></trkpt><trkpt lat="41.0258783" lon="14.3687667"><ele>42.0</ele><time>2026-04-04T07:41:08.011Z</time></trkpt><trkpt lat="41.02586" lon="14.36886"><ele>42.0</ele><time>2026-04-04T07:41:09.01Z</time></trkpt><trkpt lat="41.025845" lon="14.368955"><ele>42.0</ele><time>2026-04-04T07:41:10.01Z</time></trkpt><trkpt lat="41.0258267" lon="14.3690517"><ele>42.0</ele><time>2026-04-04T07:41:11.01Z</time></trkpt><trkpt lat="41.0258067" lon="14.3691483"><ele>42.0</ele><time>2026-04-04T07:41:12.01Z</time></trkpt><trkpt lat="41.0257883" lon="14.3692467"><ele>42.0</ele><time>2026-04-04T07:41:13.01Z</time></trkpt><trkpt lat="41.02577" lon="14.3693417"><ele>42.0</ele><time>2026-04-04T07:41:14.01Z</time></trkpt><trkpt lat="41.0257533" lon="14.3694367"><ele>42.0</ele><time>2026-04-04T07:41:15.01Z</time></trkpt><trkpt lat="41.0257367" lon="14.369535"><ele>42.0</ele><time>2026-04-04T07:41:16.01Z</time></trkpt><trkpt lat="41.02572" lon="14.3696333"><ele>42.0</ele><time>2026-04-04T07:41:17.009Z</time></trkpt><trkpt lat="41.0256983" lon="14.3697317"><ele>42.0</ele><time>2026-04-04T07:41:18.009Z</time></trkpt><trkpt lat="41.0256783" lon="14.3698267"><ele>42.0</ele><time>2026-04-04T07:41:19.009Z</time></trkpt><trkpt lat="41.02566" lon="14.369925"><ele>42.0</ele><time>2026-04-04T07:41:20.008Z</time></trkpt><trkpt lat="41.0256433" lon="14.3700267"><ele>42.0</ele><time>2026-04-04T07:41:21.008Z</time></trkpt><trkpt lat="41.0256283" lon="14.3701267"><ele>42.0</ele><time>2026-04-04T07:41:22.009Z</time></trkpt><trkpt lat="41.0256133" lon="14.3702283"><ele>42.0</ele><time>2026-04-04T07:41:23.009Z</time></trkpt><trkpt lat="41.0255983" lon="14.3703317"><ele>42.0</ele><time>2026-04-04T07:41:24.011Z</time></trkpt><trkpt lat="41.025585" lon="14.3704367"><ele>42.0</ele><time>2026-04-04T07:41:25.01Z</time></trkpt><trkpt lat="41.0255683" lon="14.3705383"><ele>42.0</ele><time>2026-04-04T07:41:26.01Z</time></trkpt><trkpt lat="41.0255533" lon="14.370645"><ele>42.0</ele><time>2026-04-04T07:41:27.011Z</time></trkpt><trkpt lat="41.0255367" lon="14.3707517"><ele>42.0</ele><time>2026-04-04T07:41:28.011Z</time></trkpt><trkpt lat="41.0255167" lon="14.3708583"><ele>42.0</ele><time>2026-04-04T07:41:29.01Z</time></trkpt><trkpt lat="41.0254967" lon="14.3709633"><ele>42.0</ele><time>2026-04-04T07:41:30.01Z</time></trkpt><trkpt lat="41.0254783" lon="14.3710717"><ele>42.0</ele><time>2026-04-04T07:41:31.01Z</time></trkpt><trkpt lat="41.02546" lon="14.37118"><ele>42.0</ele><time>2026-04-04T07:41:32.011Z</time></trkpt><trkpt lat="41.02544" lon="14.3712817"><ele>42.0</ele><time>2026-04-04T07:41:33.01Z</time></trkpt><trkpt lat="41.0254183" lon="14.3713817"><ele>42.0</ele><time>2026-04-04T07:41:34.008Z</time></trkpt><trkpt lat="41.0254" lon="14.37148"><ele>42.333333333333336</ele><time>2026-04-04T07:41:35.011Z</time></trkpt><trkpt lat="41.0253833" lon="14.37158"><ele>42.666666666666664</ele><time>2026-04-04T07:41:36.01Z</time></trkpt><trkpt lat="41.0253633" lon="14.37168"><ele>43.0</ele><time>2026-04-04T07:41:37.011Z</time></trkpt><trkpt lat="41.0253433" lon="14.37178"><ele>43.33333333333333</ele><time>2026-04-04T07:41:38.01Z</time></trkpt><trkpt lat="41.0253233" lon="14.3718783"><ele>43.666666666666664</ele><time>2026-04-04T07:41:39.011Z</time></trkpt><trkpt lat="41.0253017" lon="14.37198"><ele>44.0</ele><time>2026-04-04T07:41:40.01Z</time></trkpt><trkpt lat="41.0252817" lon="14.3720833"><ele>44.0</ele><time>2026-04-04T07:41:41.011Z</time></trkpt><trkpt lat="41.02526" lon="14.3721833"><ele>44.0</ele><time>2026-04-04T07:41:42.01Z</time></trkpt><trkpt lat="41.0252333" lon="14.3722833"><ele>44.0</ele><time>2026-04-04T07:41:43.008Z</time></trkpt><trkpt lat="41.0252083" lon="14.3723817"><ele>44.0</ele><time>2026-04-04T07:41:44.01Z</time></trkpt><trkpt lat="41.0251833" lon="14.3724833"><ele>44.0</ele><time>2026-04-04T07:41:45.01Z</time></trkpt><trkpt lat="41.0251617" lon="14.372585"><ele>44.0</ele><time>2026-04-04T07:41:46.01Z</time></trkpt><trkpt lat="41.0251367" lon="14.372685"><ele>43.83333333333333</ele><time>2026-04-04T07:41:47.008Z</time></trkpt><trkpt lat="41.0251117" lon="14.37278"><ele>43.666666666666664</ele><time>2026-04-04T07:41:48.01Z</time></trkpt><trkpt lat="41.02509" lon="14.3728767"><ele>43.5</ele><time>2026-04-04T07:41:49.008Z</time></trkpt><trkpt lat="41.0250683" lon="14.37298"><ele>43.333333333333336</ele><time>2026-04-04T07:41:50.008Z</time></trkpt><trkpt lat="41.0250467" lon="14.3730767"><ele>43.16666666666667</ele><time>2026-04-04T07:41:51.008Z</time></trkpt><trkpt lat="41.025025" lon="14.373175"><ele>43.0</ele><time>2026-04-04T07:41:52.007Z</time></trkpt><trkpt lat="41.0250017" lon="14.37327"><ele>42.833333333333336</ele><time>2026-04-04T07:41:53.009Z</time></trkpt><trkpt lat="41.02498" lon="14.3733667"><ele>42.66666666666667</ele><time>2026-04-04T07:41:54.009Z</time></trkpt><trkpt lat="41.0249567" lon="14.3734633"><ele>42.5</ele><time>2026-04-04T07:41:55.01Z</time></trkpt><trkpt lat="41.0249333" lon="14.3735583"><ele>42.333333333333336</ele><time>2026-04-04T07:41:56.01Z</time></trkpt><trkpt lat="41.0249117" lon="14.3736533"><ele>42.166666666666664</ele><time>2026-04-04T07:41:57.009Z</time></trkpt><trkpt lat="41.0248917" lon="14.3737483"><ele>42.0</ele><time>2026-04-04T07:41:58.01Z</time></trkpt><trkpt lat="41.02487" lon="14.3738417"><ele>42.142857142857146</ele><time>2026-04-04T07:41:59.01Z</time></trkpt><trkpt lat="41.02485" lon="14.3739333"><ele>42.285714285714285</ele><time>2026-04-04T07:42:00.01Z</time></trkpt><trkpt lat="41.0248283" lon="14.3740233"><ele>42.42857142857143</ele><time>2026-04-04T07:42:01.01Z</time></trkpt><trkpt lat="41.0248083" lon="14.3741117"><ele>42.57142857142857</ele><time>2026-04-04T07:42:02.01Z</time></trkpt><trkpt lat="41.0247867" lon="14.3742017"><ele>42.714285714285715</ele><time>2026-04-04T07:42:03.01Z</time></trkpt><trkpt lat="41.0247617" lon="14.3742883"><ele>42.85714285714286</ele><time>2026-04-04T07:42:04.01Z</time></trkpt><trkpt lat="41.024725" lon="14.374365"><ele>43.0</ele><time>2026-04-04T07:42:05.007Z</time></trkpt><trkpt lat="41.02468" lon="14.3744283"><ele>43.00000000000001</ele><time>2026-04-04T07:42:06.01Z</time></trkpt><trkpt lat="41.0246433" lon="14.3745017"><ele>43.0</ele><time>2026-04-04T07:42:07.01Z</time></trkpt><trkpt lat="41.0246217" lon="14.374585"><ele>43.0</ele><time>2026-04-04T07:42:08.011Z</time></trkpt><trkpt lat="41.024615" lon="14.374675"><ele>43.0</ele><time>2026-04-04T07:42:09.01Z</time></trkpt><trkpt lat="41.02462" lon="14.374765"><ele>43.0</ele><time>2026-04-04T07:42:10.01Z</time></trkpt><trkpt lat="41.0246217" lon="14.3748583"><ele>43.00000000000001</ele><time>2026-04-04T07:42:11.01Z</time></trkpt><trkpt lat="41.0246167" lon="14.3749517"><ele>43.0</ele><time>2026-04-04T07:42:12.011Z</time></trkpt><trkpt lat="41.0246033" lon="14.375045"><ele>43.0</ele><time>2026-04-04T07:42:13.007Z</time></trkpt><trkpt lat="41.024585" lon="14.3751367"><ele>43.0</ele><time>2026-04-04T07:42:14.011Z</time></trkpt><trkpt lat="41.0245633" lon="14.3752267"><ele>43.0</ele><time>2026-04-04T07:42:15.01Z</time></trkpt><trkpt lat="41.0245417" lon="14.3753217"><ele>43.0</ele><time>2026-04-04T07:42:16.01Z</time></trkpt><trkpt lat="41.0245217" lon="14.3754183"><ele>43.0</ele><time>2026-04-04T07:42:17.009Z</time></trkpt><trkpt lat="41.0245017" lon="14.3755183"><ele>43.0</ele><time>2026-04-04T07:42:18.011Z</time></trkpt><trkpt lat="41.0244833" lon="14.37562"><ele>43.16666666666667</ele><time>2026-04-04T07:42:19.01Z</time></trkpt><trkpt lat="41.02446" lon="14.3757183"><ele>43.333333333333336</ele><time>2026-04-04T07:42:20.01Z</time></trkpt><trkpt lat="41.0244367" lon="14.375815"><ele>43.5</ele><time>2026-04-04T07:42:21.01Z</time></trkpt><trkpt lat="41.0244133" lon="14.3759117"><ele>43.666666666666664</ele><time>2026-04-04T07:42:22.01Z</time></trkpt><trkpt lat="41.0243917" lon="14.376015"><ele>43.83333333333333</ele><time>2026-04-04T07:42:23.008Z</time></trkpt><trkpt lat="41.0243717" lon="14.3761183"><ele>44.0</ele><time>2026-04-04T07:42:24.009Z</time></trkpt><trkpt lat="41.0243483" lon="14.3762217"><ele>44.0</ele><time>2026-04-04T07:42:25.01Z</time></trkpt><trkpt lat="41.024325" lon="14.3763283"><ele>44.0</ele><time>2026-04-04T07:42:26.007Z</time></trkpt><trkpt lat="41.024305" lon="14.3764367"><ele>44.0</ele><time>2026-04-04T07:42:27.01Z</time></trkpt><trkpt lat="41.0242817" lon="14.3765417"><ele>44.0</ele><time>2026-04-04T07:42:28.009Z</time></trkpt><trkpt lat="41.02426" lon="14.376645"><ele>44.0</ele><time>2026-04-04T07:42:29.009Z</time></trkpt><trkpt lat="41.0242367" lon="14.37675"><ele>44.0</ele><time>2026-04-04T07:42:30.008Z</time></trkpt><trkpt lat="41.0242133" lon="14.3768533"><ele>43.83333333333333</ele><time>2026-04-04T07:42:31.008Z</time></trkpt><trkpt lat="41.02419" lon="14.3769567"><ele>43.666666666666664</ele><time>2026-04-04T07:42:32.009Z</time></trkpt><trkpt lat="41.0241683" lon="14.377055"><ele>43.5</ele><time>2026-04-04T07:42:33.007Z</time></trkpt><trkpt lat="41.0241467" lon="14.3771567"><ele>43.333333333333336</ele><time>2026-04-04T07:42:34.007Z</time></trkpt><trkpt lat="41.0241233" lon="14.3772567"><ele>43.16666666666667</ele><time>2026-04-04T07:42:35.008Z</time></trkpt><trkpt lat="41.0241" lon="14.3773583"><ele>43.0</ele><time>2026-04-04T07:42:36.008Z</time></trkpt><trkpt lat="41.0240783" lon="14.3774583"><ele>42.833333333333336</ele><time>2026-04-04T07:42:37.01Z</time></trkpt><trkpt lat="41.0240567" lon="14.3775583"><ele>42.66666666666667</ele><time>2026-04-04T07:42:38.01Z</time></trkpt><trkpt lat="41.024035" lon="14.37766"><ele>42.5</ele><time>2026-04-04T07:42:39.01Z</time></trkpt><trkpt lat="41.0240133" lon="14.37776"><ele>42.333333333333336</ele><time>2026-04-04T07:42:40.01Z</time></trkpt><trkpt lat="41.0239933" lon="14.37786"><ele>42.166666666666664</ele><time>2026-04-04T07:42:41.01Z</time></trkpt><trkpt lat="41.0239733" lon="14.37796"><ele>42.0</ele><time>2026-04-04T07:42:42.007Z</time></trkpt><trkpt lat="41.02395" lon="14.37806"><ele>42.0</ele><time>2026-04-04T07:42:43.01Z</time></trkpt><trkpt lat="41.02393" lon="14.37816"><ele>42.0</ele><time>2026-04-04T07:42:44.011Z</time></trkpt><trkpt lat="41.0239117" lon="14.37826"><ele>42.0</ele><time>2026-04-04T07:42:45.011Z</time></trkpt><trkpt lat="41.0238917" lon="14.3783583"><ele>42.0</ele><time>2026-04-04T07:42:46.011Z</time></trkpt><trkpt lat="41.02387" lon="14.37846"><ele>42.0</ele><time>2026-04-04T07:42:47.01Z</time></trkpt><trkpt lat="41.0238483" lon="14.3785583"><ele>42.0</ele><time>2026-04-04T07:42:48.01Z</time></trkpt><trkpt lat="41.0238283" lon="14.3786583"><ele>42.0</ele><time>2026-04-04T07:42:49.007Z</time></trkpt><trkpt lat="41.0238083" lon="14.3787583"><ele>42.0</ele><time>2026-04-04T07:42:50.01Z</time></trkpt><trkpt lat="41.0237917" lon="14.378855"><ele>42.0</ele><time>2026-04-04T07:42:51.01Z</time></trkpt><trkpt lat="41.0237733" lon="14.3789517"><ele>42.0</ele><time>2026-04-04T07:42:52.007Z</time></trkpt><trkpt lat="41.023755" lon="14.37905"><ele>42.0</ele><time>2026-04-04T07:42:53.01Z</time></trkpt><trkpt lat="41.0237367" lon="14.3791467"><ele>42.0</ele><time>2026-04-04T07:42:54.012Z</time></trkpt><trkpt lat="41.0237167" lon="14.37924"><ele>42.0</ele><time>2026-04-04T07:42:55.01Z</time></trkpt><trkpt lat="41.023695" lon="14.379335"><ele>42.0</ele><time>2026-04-04T07:42:56.01Z</time></trkpt><trkpt lat="41.023675" lon="14.3794217"><ele>42.0</ele><time>2026-04-04T07:42:57.01Z</time></trkpt><trkpt lat="41.023655" lon="14.3795117"><ele>42.0</ele><time>2026-04-04T07:42:58.011Z</time></trkpt><trkpt lat="41.023635" lon="14.3796033"><ele>42.0</ele><time>2026-04-04T07:42:59.009Z</time></trkpt><trkpt lat="41.0236167" lon="14.379695"><ele>42.0</ele><time>2026-04-04T07:43:00.011Z</time></trkpt><trkpt lat="41.0236017" lon="14.37979"><ele>42.0</ele><time>2026-04-04T07:43:01.011Z</time></trkpt><trkpt lat="41.023585" lon="14.3798817"><ele>42.0</ele><time>2026-04-04T07:43:02.012Z</time></trkpt><trkpt lat="41.0235683" lon="14.3799717"><ele>42.0</ele><time>2026-04-04T07:43:03.01Z</time></trkpt><trkpt lat="41.0235533" lon="14.3800617"><ele>42.0</ele><time>2026-04-04T07:43:04.009Z</time></trkpt><trkpt lat="41.0235383" lon="14.3801567"><ele>42.0</ele><time>2026-04-04T07:43:05.01Z</time></trkpt><trkpt lat="41.0235267" lon="14.3802533"><ele>42.0</ele><time>2026-04-04T07:43:06.01Z</time></trkpt><trkpt lat="41.0235167" lon="14.3803483"><ele>42.0</ele><time>2026-04-04T07:43:07.011Z</time></trkpt><trkpt lat="41.0235067" lon="14.3804433"><ele>42.0</ele><time>2026-04-04T07:43:08.01Z</time></trkpt><trkpt lat="41.0235" lon="14.3805383"><ele>42.142857142857146</ele><time>2026-04-04T07:43:09.011Z</time></trkpt><trkpt lat="41.023495" lon="14.3806367"><ele>42.285714285714285</ele><time>2026-04-04T07:43:10.008Z</time></trkpt><trkpt lat="41.02349" lon="14.3807333"><ele>42.42857142857143</ele><time>2026-04-04T07:43:11.01Z</time></trkpt><trkpt lat="41.0234867" lon="14.3808283"><ele>42.57142857142857</ele><time>2026-04-04T07:43:12.01Z</time></trkpt><trkpt lat="41.0234867" lon="14.3809267"><ele>42.714285714285715</ele><time>2026-04-04T07:43:13.01Z</time></trkpt><trkpt lat="41.0234883" lon="14.3810267"><ele>42.85714285714286</ele><time>2026-04-04T07:43:14.01Z</time></trkpt><trkpt lat="41.0234917" lon="14.3811217"><ele>43.0</ele><time>2026-04-04T07:43:15.011Z</time></trkpt><trkpt lat="41.0234967" lon="14.3812183"><ele>43.00000000000001</ele><time>2026-04-04T07:43:16.01Z</time></trkpt><trkpt lat="41.023505" lon="14.3813167"><ele>43.0</ele><time>2026-04-04T07:43:17.01Z</time></trkpt><trkpt lat="41.0235133" lon="14.3814167"><ele>43.0</ele><time>2026-04-04T07:43:18.01Z</time></trkpt><trkpt lat="41.0235217" lon="14.3815167"><ele>43.0</ele><time>2026-04-04T07:43:19.008Z</time></trkpt><trkpt lat="41.0235283" lon="14.381615"><ele>43.0</ele><time>2026-04-04T07:43:20.011Z</time></trkpt><trkpt lat="41.02354" lon="14.3817117"><ele>43.00000000000001</ele><time>2026-04-04T07:43:21.01Z</time></trkpt><trkpt lat="41.02355" lon="14.3818083"><ele>43.0</ele><time>2026-04-04T07:43:22.01Z</time></trkpt><trkpt lat="41.023565" lon="14.3819067"><ele>43.333333333333336</ele><time>2026-04-04T07:43:23.01Z</time></trkpt><trkpt lat="41.0235783" lon="14.382005"><ele>43.66666666666667</ele><time>2026-04-04T07:43:24.01Z</time></trkpt><trkpt lat="41.0235933" lon="14.3821033"><ele>44.0</ele><time>2026-04-04T07:43:25.01Z</time></trkpt><trkpt lat="41.0236083" lon="14.3822017"><ele>44.333333333333336</ele><time>2026-04-04T07:43:26.01Z</time></trkpt><trkpt lat="41.023625" lon="14.3823017"><ele>44.666666666666664</ele><time>2026-04-04T07:43:27.01Z</time></trkpt><trkpt lat="41.0236417" lon="14.3823983"><ele>45.0</ele><time>2026-04-04T07:43:28.01Z</time></trkpt><trkpt lat="41.0236567" lon="14.3824967"><ele>45.0</ele><time>2026-04-04T07:43:29.011Z</time></trkpt><trkpt lat="41.0236717" lon="14.382595"><ele>45.0</ele><time>2026-04-04T07:43:30.01Z</time></trkpt><trkpt lat="41.0236867" lon="14.38269"><ele>45.0</ele><time>2026-04-04T07:43:31.007Z</time></trkpt><trkpt lat="41.0237033" lon="14.3827917"><ele>45.0</ele><time>2026-04-04T07:43:32.009Z</time></trkpt><trkpt lat="41.02372" lon="14.3828917"><ele>45.0</ele><time>2026-04-04T07:43:33.01Z</time></trkpt><trkpt lat="41.023735" lon="14.38299"><ele>45.0</ele><time>2026-04-04T07:43:34.01Z</time></trkpt><trkpt lat="41.02375" lon="14.38309"><ele>45.0</ele><time>2026-04-04T07:43:35.007Z</time></trkpt><trkpt lat="41.0237667" lon="14.3831917"><ele>45.0</ele><time>2026-04-04T07:43:36.01Z</time></trkpt><trkpt lat="41.0237833" lon="14.38329"><ele>45.0</ele><time>2026-04-04T07:43:37.008Z</time></trkpt><trkpt lat="41.0237983" lon="14.38339"><ele>45.0</ele><time>2026-04-04T07:43:38.011Z</time></trkpt><trkpt lat="41.023815" lon="14.38349"><ele>45.0</ele><time>2026-04-04T07:43:39.011Z</time></trkpt><trkpt lat="41.0238333" lon="14.38359"><ele>45.0</ele><time>2026-04-04T07:43:40.01Z</time></trkpt><trkpt lat="41.0238517" lon="14.3836933"><ele>45.0</ele><time>2026-04-04T07:43:41.01Z</time></trkpt><trkpt lat="41.02387" lon="14.3837967"><ele>45.0</ele><time>2026-04-04T07:43:42.01Z</time></trkpt><trkpt lat="41.0238883" lon="14.3838983"><ele>45.0</ele><time>2026-04-04T07:43:43.01Z</time></trkpt><trkpt lat="41.0239033" lon="14.384"><ele>45.0</ele><time>2026-04-04T07:43:44.01Z</time></trkpt><trkpt lat="41.02392" lon="14.3841033"><ele>45.0</ele><time>2026-04-04T07:43:45.008Z</time></trkpt><trkpt lat="41.0239383" lon="14.3842033"><ele>45.0</ele><time>2026-04-04T07:43:46.01Z</time></trkpt><trkpt lat="41.0239567" lon="14.3843033"><ele>45.0</ele><time>2026-04-04T07:43:47.009Z</time></trkpt><trkpt lat="41.023975" lon="14.384405"><ele>45.0</ele><time>2026-04-04T07:43:48.011Z</time></trkpt><trkpt lat="41.0239933" lon="14.3845033"><ele>45.0</ele><time>2026-04-04T07:43:49.01Z</time></trkpt><trkpt lat="41.0240117" lon="14.3846017"><ele>45.0</ele><time>2026-04-04T07:43:50.01Z</time></trkpt><trkpt lat="41.0240317" lon="14.3847"><ele>45.0</ele><time>2026-04-04T07:43:51.008Z</time></trkpt><trkpt lat="41.0240483" lon="14.3847983"><ele>45.0</ele><time>2026-04-04T07:43:52.01Z</time></trkpt><trkpt lat="41.0240617" lon="14.384895"><ele>45.166666666666664</ele><time>2026-04-04T07:43:53.01Z</time></trkpt><trkpt lat="41.0240783" lon="14.3849917"><ele>45.333333333333336</ele><time>2026-04-04T07:43:54.01Z</time></trkpt><trkpt lat="41.024095" lon="14.3850883"><ele>45.5</ele><time>2026-04-04T07:43:55.01Z</time></trkpt><trkpt lat="41.0241083" lon="14.3851867"><ele>45.66666666666667</ele><time>2026-04-04T07:43:56.011Z</time></trkpt><trkpt lat="41.0241233" lon="14.385285"><ele>45.833333333333336</ele><time>2026-04-04T07:43:57.01Z</time></trkpt><trkpt lat="41.02414" lon="14.3853833"><ele>46.0</ele><time>2026-04-04T07:43:58.011Z</time></trkpt><trkpt lat="41.0241567" lon="14.3854783"><ele>46.142857142857146</ele><time>2026-04-04T07:43:59.01Z</time></trkpt><trkpt lat="41.024175" lon="14.385575"><ele>46.285714285714285</ele><time>2026-04-04T07:44:00.011Z</time></trkpt><trkpt lat="41.0241917" lon="14.3856717"><ele>46.42857142857143</ele><time>2026-04-04T07:44:01.01Z</time></trkpt><trkpt lat="41.02421" lon="14.3857667"><ele>46.57142857142857</ele><time>2026-04-04T07:44:02.008Z</time></trkpt><trkpt lat="41.0242267" lon="14.3858583"><ele>46.71428571428571</ele><time>2026-04-04T07:44:03.011Z</time></trkpt><trkpt lat="41.0242417" lon="14.3859467"><ele>46.857142857142854</ele><time>2026-04-04T07:44:04.011Z</time></trkpt><trkpt lat="41.0242583" lon="14.38604"><ele>47.0</ele><time>2026-04-04T07:44:05.007Z</time></trkpt><trkpt lat="41.0242767" lon="14.386135"><ele>47.0</ele><time>2026-04-04T07:44:06.01Z</time></trkpt><trkpt lat="41.024295" lon="14.3862317"><ele>47.0</ele><time>2026-04-04T07:44:07.008Z</time></trkpt><trkpt lat="41.024315" lon="14.38633"><ele>47.0</ele><time>2026-04-04T07:44:08.009Z</time></trkpt><trkpt lat="41.0243317" lon="14.3864267"><ele>47.0</ele><time>2026-04-04T07:44:09.009Z</time></trkpt><trkpt lat="41.0243517" lon="14.3865283"><ele>47.0</ele><time>2026-04-04T07:44:10.008Z</time></trkpt><trkpt lat="41.0243717" lon="14.386625"><ele>47.0</ele><time>2026-04-04T07:44:11.011Z</time></trkpt><trkpt lat="41.0243933" lon="14.3867167"><ele>47.57142857142857</ele><time>2026-04-04T07:44:12.007Z</time></trkpt><trkpt lat="41.0244167" lon="14.38681"><ele>48.14285714285714</ele><time>2026-04-04T07:44:13.009Z</time></trkpt><trkpt lat="41.0244383" lon="14.386905"><ele>48.714285714285715</ele><time>2026-04-04T07:44:14.007Z</time></trkpt><trkpt lat="41.0244633" lon="14.3869967"><ele>49.285714285714285</ele><time>2026-04-04T07:44:15.008Z</time></trkpt><trkpt lat="41.0244933" lon="14.387085"><ele>49.85714285714286</ele><time>2026-04-04T07:44:16.007Z</time></trkpt><trkpt lat="41.0245283" lon="14.38717"><ele>50.42857142857143</ele><time>2026-04-04T07:44:17.01Z</time></trkpt><trkpt lat="41.0245633" lon="14.3872533"><ele>51.0</ele><time>2026-04-04T07:44:18.007Z</time></trkpt><trkpt lat="41.024595" lon="14.3873383"><ele>51.0</ele><time>2026-04-04T07:44:19.009Z</time></trkpt><trkpt lat="41.02463" lon="14.3874233"><ele>51.0</ele><time>2026-04-04T07:44:20.009Z</time></trkpt><trkpt lat="41.0246683" lon="14.3875067"><ele>51.0</ele><time>2026-04-04T07:44:21.01Z</time></trkpt><trkpt lat="41.0247083" lon="14.3875867"><ele>51.0</ele><time>2026-04-04T07:44:22.006Z</time></trkpt><trkpt lat="41.0247483" lon="14.387665"><ele>51.0</ele><time>2026-04-04T07:44:23.008Z</time></trkpt><trkpt lat="41.0247867" lon="14.3877417"><ele>51.0</ele><time>2026-04-04T07:44:24.009Z</time></trkpt><trkpt lat="41.0248267" lon="14.3878183"><ele>51.0</ele><time>2026-04-04T07:44:25.011Z</time></trkpt><trkpt lat="41.02487" lon="14.387895"><ele>51.0</ele><time>2026-04-04T07:44:26.008Z</time></trkpt><trkpt lat="41.0249133" lon="14.3879733"><ele>51.0</ele><time>2026-04-04T07:44:27.008Z</time></trkpt><trkpt lat="41.0249583" lon="14.3880467"><ele>51.0</ele><time>2026-04-04T07:44:28.008Z</time></trkpt><trkpt lat="41.0250067" lon="14.388115"><ele>51.0</ele><time>2026-04-04T07:44:29.009Z</time></trkpt><trkpt lat="41.025055" lon="14.3881817"><ele>51.0</ele><time>2026-04-04T07:44:30.009Z</time></trkpt><trkpt lat="41.0250983" lon="14.3882517"><ele>51.0</ele><time>2026-04-04T07:44:31.007Z</time></trkpt><trkpt lat="41.0251467" lon="14.3883217"><ele>51.0</ele><time>2026-04-04T07:44:32.007Z</time></trkpt><trkpt lat="41.0251983" lon="14.3883883"><ele>50.85714285714286</ele><time>2026-04-04T07:44:33.01Z</time></trkpt><trkpt lat="41.025245" lon="14.388455"><ele>50.714285714285715</ele><time>2026-04-04T07:44:34.009Z</time></trkpt><trkpt lat="41.0252917" lon="14.3885233"><ele>50.57142857142857</ele><time>2026-04-04T07:44:35.01Z</time></trkpt><trkpt lat="41.02534" lon="14.3885883"><ele>50.42857142857143</ele><time>2026-04-04T07:44:36.008Z</time></trkpt><trkpt lat="41.0253867" lon="14.3886533"><ele>50.285714285714285</ele><time>2026-04-04T07:44:37.009Z</time></trkpt><trkpt lat="41.025435" lon="14.3887117"><ele>50.142857142857146</ele><time>2026-04-04T07:44:38.009Z</time></trkpt><trkpt lat="41.0254817" lon="14.3887733"><ele>50.0</ele><time>2026-04-04T07:44:39.008Z</time></trkpt><trkpt lat="41.0255283" lon="14.388835"><ele>50.00000000000001</ele><time>2026-04-04T07:44:40.007Z</time></trkpt><trkpt lat="41.0255733" lon="14.3888967"><ele>50.0</ele><time>2026-04-04T07:44:41.009Z</time></trkpt><trkpt lat="41.0256183" lon="14.3889617"><ele>50.0</ele><time>2026-04-04T07:44:42.009Z</time></trkpt><trkpt lat="41.0256667" lon="14.3890233"><ele>50.0</ele><time>2026-04-04T07:44:43.007Z</time></trkpt><trkpt lat="41.0257133" lon="14.3890867"><ele>50.0</ele><time>2026-04-04T07:44:44.008Z</time></trkpt><trkpt lat="41.0257583" lon="14.3891517"><ele>50.00000000000001</ele><time>2026-04-04T07:44:45.009Z</time></trkpt><trkpt lat="41.0258033" lon="14.389215"><ele>50.0</ele><time>2026-04-04T07:44:46.007Z</time></trkpt><trkpt lat="41.0258517" lon="14.389275"><ele>50.00000000000001</ele><time>2026-04-04T07:44:47.011Z</time></trkpt><trkpt lat="41.0258983" lon="14.3893367"><ele>50.0</ele><time>2026-04-04T07:44:48.008Z</time></trkpt><trkpt lat="41.0259467" lon="14.3894017"><ele>50.0</ele><time>2026-04-04T07:44:49.008Z</time></trkpt><trkpt lat="41.025995" lon="14.3894633"><ele>50.0</ele><time>2026-04-04T07:44:50.009Z</time></trkpt><trkpt lat="41.0260433" lon="14.3895267"><ele>50.0</ele><time>2026-04-04T07:44:51.008Z</time></trkpt><trkpt lat="41.02609" lon="14.38959"><ele>50.00000000000001</ele><time>2026-04-04T07:44:52.007Z</time></trkpt><trkpt lat="41.0261367" lon="14.3896567"><ele>50.0</ele><time>2026-04-04T07:44:53.01Z</time></trkpt><trkpt lat="41.026185" lon="14.3897233"><ele>49.57142857142858</ele><time>2026-04-04T07:44:54.009Z</time></trkpt><trkpt lat="41.02623" lon="14.3897867"><ele>49.142857142857146</ele><time>2026-04-04T07:44:55.008Z</time></trkpt><trkpt lat="41.0262767" lon="14.3898483"><ele>48.714285714285715</ele><time>2026-04-04T07:44:56.011Z</time></trkpt><trkpt lat="41.0263233" lon="14.3899117"><ele>48.28571428571429</ele><time>2026-04-04T07:44:57.009Z</time></trkpt><trkpt lat="41.02637" lon="14.3899733"><ele>47.857142857142854</ele><time>2026-04-04T07:44:58.007Z</time></trkpt><trkpt lat="41.0264133" lon="14.3900367"><ele>47.42857142857143</ele><time>2026-04-04T07:44:59.01Z</time></trkpt><trkpt lat="41.02646" lon="14.390095"><ele>47.0</ele><time>2026-04-04T07:45:00.007Z</time></trkpt><trkpt lat="41.0265483" lon="14.390205"><ele>47.0</ele><time>2026-04-04T07:45:02.008Z</time></trkpt><trkpt lat="41.02663" lon="14.3903083"><ele>47.0</ele><time>2026-04-04T07:45:04.008Z</time></trkpt><trkpt lat="41.0267133" lon="14.390415"><ele>47.0</ele><time>2026-04-04T07:45:06.01Z</time></trkpt><trkpt lat="41.0267933" lon="14.390525"><ele>47.0</ele><time>2026-04-04T07:45:08.011Z</time></trkpt><trkpt lat="41.0268783" lon="14.3906367"><ele>47.6</ele><time>2026-04-04T07:45:10.009Z</time></trkpt><trkpt lat="41.0269633" lon="14.3907433"><ele>48.2</ele><time>2026-04-04T07:45:12.008Z</time></trkpt><trkpt lat="41.0270417" lon="14.3908533"><ele>48.8</ele><time>2026-04-04T07:45:14.011Z</time></trkpt><trkpt lat="41.0271233" lon="14.3909717"><ele>49.4</ele><time>2026-04-04T07:45:16.009Z</time></trkpt><trkpt lat="41.0271667" lon="14.3910333"><ele>50.0</ele><time>2026-04-04T07:45:17.009Z</time></trkpt><trkpt lat="41.027255" lon="14.3911433"><ele>50.0</ele><time>2026-04-04T07:45:19.009Z</time></trkpt><trkpt lat="41.0273433" lon="14.39126"><ele>50.0</ele><time>2026-04-04T07:45:21.009Z</time></trkpt><trkpt lat="41.02743" lon="14.391375"><ele>50.0</ele><time>2026-04-04T07:45:23.01Z</time></trkpt><trkpt lat="41.02751" lon="14.3914833"><ele>50.0</ele><time>2026-04-04T07:45:25.01Z</time></trkpt><trkpt lat="41.0275917" lon="14.391595"><ele>50.4</ele><time>2026-04-04T07:45:27.009Z</time></trkpt><trkpt lat="41.02767" lon="14.391705"><ele>50.8</ele><time>2026-04-04T07:45:29.009Z</time></trkpt><trkpt lat="41.0277517" lon="14.3918067"><ele>51.2</ele><time>2026-04-04T07:45:31.008Z</time></trkpt><trkpt lat="41.0278283" lon="14.3919017"><ele>51.6</ele><time>2026-04-04T07:45:33.008Z</time></trkpt><trkpt lat="41.0279" lon="14.391995"><ele>52.0</ele><time>2026-04-04T07:45:35.007Z</time></trkpt><trkpt lat="41.027975" lon="14.3920933"><ele>52.0</ele><time>2026-04-04T07:45:37.009Z</time></trkpt><trkpt lat="41.0280617" lon="14.3921867"><ele>52.0</ele><time>2026-04-04T07:45:39.008Z</time></trkpt><trkpt lat="41.0281617" lon="14.3922633"><ele>52.0</ele><time>2026-04-04T07:45:41.01Z</time></trkpt><trkpt lat="41.02827" lon="14.39231"><ele>52.0</ele><time>2026-04-04T07:45:43.009Z</time></trkpt><trkpt lat="41.0283833" lon="14.39237"><ele>52.49999999999999</ele><time>2026-04-04T07:45:45.007Z</time></trkpt><trkpt lat="41.02844" lon="14.3924067"><ele>53.0</ele><time>2026-04-04T07:45:46.007Z</time></trkpt><trkpt lat="41.0284967" lon="14.392445"><ele>53.5</ele><time>2026-04-04T07:45:47.008Z</time></trkpt><trkpt lat="41.0285533" lon="14.3924833"><ele>54.0</ele><time>2026-04-04T07:45:48.01Z</time></trkpt><trkpt lat="41.0286533" lon="14.3925733"><ele>54.49999999999999</ele><time>2026-04-04T07:45:50.01Z</time></trkpt><trkpt lat="41.0287183" lon="14.3926917"><ele>55.0</ele><time>2026-04-04T07:45:52.01Z</time></trkpt><trkpt lat="41.028715" lon="14.3928233"><ele>55.0</ele><time>2026-04-04T07:45:54.011Z</time></trkpt><trkpt lat="41.0287167" lon="14.3929617"><ele>55.0</ele><time>2026-04-04T07:45:56.011Z</time></trkpt><trkpt lat="41.0287633" lon="14.39309"><ele>55.0</ele><time>2026-04-04T07:45:58.01Z</time></trkpt><trkpt lat="41.0288367" lon="14.3932167"><ele>55.0</ele><time>2026-04-04T07:46:00.009Z</time></trkpt><trkpt lat="41.02889" lon="14.39336"><ele>55.0</ele><time>2026-04-04T07:46:02.01Z</time></trkpt><trkpt lat="41.0289217" lon="14.3935183"><ele>55.0</ele><time>2026-04-04T07:46:04.011Z</time></trkpt><trkpt lat="41.0289533" lon="14.39368"><ele>55.0</ele><time>2026-04-04T07:46:06.009Z</time></trkpt><trkpt lat="41.0289683" lon="14.3937617"><ele>55.0</ele><time>2026-04-04T07:46:07.011Z</time></trkpt><trkpt lat="41.0289983" lon="14.3939267"><ele>55.0</ele><time>2026-04-04T07:46:09.01Z</time></trkpt><trkpt lat="41.02901" lon="14.3940117"><ele>55.0</ele><time>2026-04-04T07:46:10.009Z</time></trkpt><trkpt lat="41.0290417" lon="14.3941717"><ele>55.0</ele><time>2026-04-04T07:46:12.008Z</time></trkpt><trkpt lat="41.02908" lon="14.39432"><ele>55.0</ele><time>2026-04-04T07:46:14.008Z</time></trkpt><trkpt lat="41.0291233" lon="14.394475"><ele>55.0</ele><time>2026-04-04T07:46:16.01Z</time></trkpt><trkpt lat="41.029165" lon="14.3946283"><ele>55.49999999999999</ele><time>2026-04-04T07:46:18.01Z</time></trkpt><trkpt lat="41.0292117" lon="14.3947817"><ele>56.0</ele><time>2026-04-04T07:46:20.01Z</time></trkpt><trkpt lat="41.029235" lon="14.39486"><ele>56.5</ele><time>2026-04-04T07:46:21.009Z</time></trkpt><trkpt lat="41.0292817" lon="14.395015"><ele>57.0</ele><time>2026-04-04T07:46:23.01Z</time></trkpt><trkpt lat="41.029305" lon="14.3950933"><ele>57.49999999999999</ele><time>2026-04-04T07:46:24.01Z</time></trkpt><trkpt lat="41.0293267" lon="14.395175"><ele>58.0</ele><time>2026-04-04T07:46:25.009Z</time></trkpt><trkpt lat="41.0293433" lon="14.3952567"><ele>58.00000000000001</ele><time>2026-04-04T07:46:26.011Z</time></trkpt><trkpt lat="41.02936" lon="14.3953433"><ele>58.0</ele><time>2026-04-04T07:46:27.012Z</time></trkpt><trkpt lat="41.02938" lon="14.3954233"><ele>58.00000000000001</ele><time>2026-04-04T07:46:28.011Z</time></trkpt><trkpt lat="41.0293983" lon="14.395505"><ele>58.00000000000001</ele><time>2026-04-04T07:46:29.01Z</time></trkpt><trkpt lat="41.0294133" lon="14.39559"><ele>58.0</ele><time>2026-04-04T07:46:30.01Z</time></trkpt><trkpt lat="41.02943" lon="14.3956733"><ele>58.00000000000001</ele><time>2026-04-04T07:46:31.01Z</time></trkpt><trkpt lat="41.029445" lon="14.395755"><ele>58.00000000000001</ele><time>2026-04-04T07:46:32.01Z</time></trkpt><trkpt lat="41.02946" lon="14.3958417"><ele>58.00000000000001</ele><time>2026-04-04T07:46:33.011Z</time></trkpt><trkpt lat="41.0294767" lon="14.3959267"><ele>58.0</ele><time>2026-04-04T07:46:34.01Z</time></trkpt><trkpt lat="41.0294917" lon="14.39601"><ele>58.00000000000001</ele><time>2026-04-04T07:46:35.011Z</time></trkpt><trkpt lat="41.0295067" lon="14.3961"><ele>58.00000000000001</ele><time>2026-04-04T07:46:36.011Z</time></trkpt><trkpt lat="41.0295233" lon="14.3961883"><ele>58.0</ele><time>2026-04-04T07:46:37.01Z</time></trkpt><trkpt lat="41.0295417" lon="14.396275"><ele>58.00000000000001</ele><time>2026-04-04T07:46:38.01Z</time></trkpt><trkpt lat="41.02956" lon="14.3963583"><ele>58.00000000000001</ele><time>2026-04-04T07:46:39.01Z</time></trkpt><trkpt lat="41.0295833" lon="14.39644"><ele>57.875</ele><time>2026-04-04T07:46:40.011Z</time></trkpt><trkpt lat="41.0296067" lon="14.39652"><ele>57.75</ele><time>2026-04-04T07:46:41.01Z</time></trkpt><trkpt lat="41.0296233" lon="14.3966017"><ele>57.625</ele><time>2026-04-04T07:46:42.01Z</time></trkpt><trkpt lat="41.02964" lon="14.3966833"><ele>57.5</ele><time>2026-04-04T07:46:43.009Z</time></trkpt><trkpt lat="41.029655" lon="14.396765"><ele>57.375</ele><time>2026-04-04T07:46:44.01Z</time></trkpt><trkpt lat="41.02967" lon="14.3968483"><ele>57.25</ele><time>2026-04-04T07:46:45.01Z</time></trkpt><trkpt lat="41.02969" lon="14.3969283"><ele>57.125</ele><time>2026-04-04T07:46:46.01Z</time></trkpt><trkpt lat="41.02971" lon="14.3970083"><ele>57.0</ele><time>2026-04-04T07:46:47.01Z</time></trkpt><trkpt lat="41.02973" lon="14.39709"><ele>56.833333333333336</ele><time>2026-04-04T07:46:48.008Z</time></trkpt><trkpt lat="41.02975" lon="14.3971717"><ele>56.66666666666667</ele><time>2026-04-04T07:46:49.009Z</time></trkpt><trkpt lat="41.02977" lon="14.3972517"><ele>56.5</ele><time>2026-04-04T07:46:50.009Z</time></trkpt><trkpt lat="41.02979" lon="14.397335"><ele>56.333333333333336</ele><time>2026-04-04T07:46:51.008Z</time></trkpt><trkpt lat="41.0298267" lon="14.397495"><ele>56.16666666666667</ele><time>2026-04-04T07:46:53.01Z</time></trkpt><trkpt lat="41.0298483" lon="14.3975767"><ele>56.0</ele><time>2026-04-04T07:46:54.011Z</time></trkpt><trkpt lat="41.02987" lon="14.39766"><ele>56.00000000000001</ele><time>2026-04-04T07:46:55.009Z</time></trkpt><trkpt lat="41.0298917" lon="14.397745"><ele>56.0</ele><time>2026-04-04T07:46:56.01Z</time></trkpt><trkpt lat="41.0299133" lon="14.3978283"><ele>56.0</ele><time>2026-04-04T07:46:57.009Z</time></trkpt><trkpt lat="41.02995" lon="14.3979933"><ele>56.0</ele><time>2026-04-04T07:46:59.01Z</time></trkpt><trkpt lat="41.0299683" lon="14.3980783"><ele>56.00000000000001</ele><time>2026-04-04T07:47:00.01Z</time></trkpt><trkpt lat="41.029985" lon="14.3981667"><ele>56.0</ele><time>2026-04-04T07:47:01.01Z</time></trkpt><trkpt lat="41.0300017" lon="14.3982567"><ele>56.42857142857143</ele><time>2026-04-04T07:47:02.01Z</time></trkpt><trkpt lat="41.03002" lon="14.398345"><ele>56.85714285714286</ele><time>2026-04-04T07:47:03.01Z</time></trkpt><trkpt lat="41.0300417" lon="14.3984283"><ele>57.285714285714285</ele><time>2026-04-04T07:47:04.01Z</time></trkpt><trkpt lat="41.03006" lon="14.3985117"><ele>57.714285714285715</ele><time>2026-04-04T07:47:05.01Z</time></trkpt><trkpt lat="41.03008" lon="14.398595"><ele>58.142857142857146</ele><time>2026-04-04T07:47:06.011Z</time></trkpt><trkpt lat="41.0301" lon="14.39868"><ele>58.57142857142857</ele><time>2026-04-04T07:47:07.01Z</time></trkpt><trkpt lat="41.03012" lon="14.3987617"><ele>59.0</ele><time>2026-04-04T07:47:08.012Z</time></trkpt><trkpt lat="41.0301383" lon="14.3988467"><ele>59.0</ele><time>2026-04-04T07:47:09.01Z</time></trkpt><trkpt lat="41.030155" lon="14.3989333"><ele>59.0</ele><time>2026-04-04T07:47:10.01Z</time></trkpt><trkpt lat="41.0301733" lon="14.39902"><ele>59.0</ele><time>2026-04-04T07:47:11.009Z</time></trkpt><trkpt lat="41.0301917" lon="14.399105"><ele>59.0</ele><time>2026-04-04T07:47:12.01Z</time></trkpt><trkpt lat="41.03021" lon="14.3991933"><ele>59.0</ele><time>2026-04-04T07:47:13.011Z</time></trkpt><trkpt lat="41.030225" lon="14.3992783"><ele>59.0</ele><time>2026-04-04T07:47:14.009Z</time></trkpt><trkpt lat="41.0302433" lon="14.3993667"><ele>59.0</ele><time>2026-04-04T07:47:15.01Z</time></trkpt><trkpt lat="41.0302617" lon="14.3994567"><ele>59.0</ele><time>2026-04-04T07:47:16.009Z</time></trkpt><trkpt lat="41.0302783" lon="14.3995433"><ele>59.0</ele><time>2026-04-04T07:47:17.009Z</time></trkpt><trkpt lat="41.0302933" lon="14.3996333"><ele>59.0</ele><time>2026-04-04T07:47:18.009Z</time></trkpt><trkpt lat="41.0303067" lon="14.3997233"><ele>59.0</ele><time>2026-04-04T07:47:19.008Z</time></trkpt><trkpt lat="41.0303183" lon="14.3998117"><ele>59.0</ele><time>2026-04-04T07:47:20.01Z</time></trkpt><trkpt lat="41.0303283" lon="14.3999"><ele>59.0</ele><time>2026-04-04T07:47:21.007Z</time></trkpt><trkpt lat="41.030335" lon="14.39999"><ele>59.0</ele><time>2026-04-04T07:47:22.01Z</time></trkpt><trkpt lat="41.03034" lon="14.4000817"><ele>59.0</ele><time>2026-04-04T07:47:23.009Z</time></trkpt><trkpt lat="41.0303433" lon="14.400175"><ele>59.0</ele><time>2026-04-04T07:47:24.011Z</time></trkpt><trkpt lat="41.0303433" lon="14.40027"><ele>59.0</ele><time>2026-04-04T07:47:25.011Z</time></trkpt><trkpt lat="41.0303417" lon="14.4003617"><ele>59.0</ele><time>2026-04-04T07:47:26.01Z</time></trkpt><trkpt lat="41.0303383" lon="14.4004533"><ele>59.0</ele><time>2026-04-04T07:47:27.01Z</time></trkpt><trkpt lat="41.0303317" lon="14.400545"><ele>59.0</ele><time>2026-04-04T07:47:28.01Z</time></trkpt><trkpt lat="41.0303233" lon="14.4006383"><ele>59.0</ele><time>2026-04-04T07:47:29.01Z</time></trkpt><trkpt lat="41.0303167" lon="14.4007283"><ele>59.14285714285714</ele><time>2026-04-04T07:47:30.01Z</time></trkpt><trkpt lat="41.0303083" lon="14.4008217"><ele>59.28571428571429</ele><time>2026-04-04T07:47:31.011Z</time></trkpt><trkpt lat="41.030295" lon="14.4009133"><ele>59.42857142857143</ele><time>2026-04-04T07:47:32.011Z</time></trkpt><trkpt lat="41.0302817" lon="14.4010083"><ele>59.57142857142857</ele><time>2026-04-04T07:47:33.009Z</time></trkpt><trkpt lat="41.030265" lon="14.4011033"><ele>59.71428571428571</ele><time>2026-04-04T07:47:34.011Z</time></trkpt><trkpt lat="41.03025" lon="14.4011983"><ele>59.85714285714286</ele><time>2026-04-04T07:47:35.01Z</time></trkpt><trkpt lat="41.030235" lon="14.40129"><ele>60.0</ele><time>2026-04-04T07:47:36.01Z</time></trkpt><trkpt lat="41.0302167" lon="14.4013867"><ele>60.0</ele><time>2026-04-04T07:47:37.011Z</time></trkpt><trkpt lat="41.0301933" lon="14.40148"><ele>60.0</ele><time>2026-04-04T07:47:38.01Z</time></trkpt><trkpt lat="41.0301717" lon="14.401575"><ele>60.0</ele><time>2026-04-04T07:47:39.01Z</time></trkpt><trkpt lat="41.03014" lon="14.4016617"><ele>60.0</ele><time>2026-04-04T07:47:40.011Z</time></trkpt><trkpt lat="41.0301083" lon="14.40175"><ele>60.0</ele><time>2026-04-04T07:47:41.01Z</time></trkpt><trkpt lat="41.030075" lon="14.401835"><ele>60.0</ele><time>2026-04-04T07:47:42.01Z</time></trkpt><trkpt lat="41.0300467" lon="14.4019233"><ele>60.0</ele><time>2026-04-04T07:47:43.01Z</time></trkpt><trkpt lat="41.0300167" lon="14.4020117"><ele>60.0</ele><time>2026-04-04T07:47:44.012Z</time></trkpt><trkpt lat="41.0299867" lon="14.4020967"><ele>60.0</ele><time>2026-04-04T07:47:45.011Z</time></trkpt><trkpt lat="41.0299567" lon="14.4021817"><ele>60.0</ele><time>2026-04-04T07:47:46.007Z</time></trkpt><trkpt lat="41.0299267" lon="14.40227"><ele>60.0</ele><time>2026-04-04T07:47:47.01Z</time></trkpt><trkpt lat="41.0298967" lon="14.4023567"><ele>60.0</ele><time>2026-04-04T07:47:48.009Z</time></trkpt><trkpt lat="41.0298667" lon="14.4024433"><ele>60.0</ele><time>2026-04-04T07:47:49.009Z</time></trkpt><trkpt lat="41.029835" lon="14.40253"><ele>60.0</ele><time>2026-04-04T07:47:50.007Z</time></trkpt><trkpt lat="41.029805" lon="14.4026167"><ele>59.833333333333336</ele><time>2026-04-04T07:47:51.006Z</time></trkpt><trkpt lat="41.029775" lon="14.4026983"><ele>59.66666666666667</ele><time>2026-04-04T07:47:52.008Z</time></trkpt><trkpt lat="41.0297483" lon="14.4027767"><ele>59.5</ele><time>2026-04-04T07:47:53.01Z</time></trkpt><trkpt lat="41.0297217" lon="14.4028533"><ele>59.333333333333336</ele><time>2026-04-04T07:47:54.011Z</time></trkpt><trkpt lat="41.02967" lon="14.4029967"><ele>59.16666666666667</ele><time>2026-04-04T07:47:56.01Z</time></trkpt><trkpt lat="41.0296217" lon="14.4031433"><ele>59.0</ele><time>2026-04-04T07:47:58.007Z</time></trkpt><trkpt lat="41.0295717" lon="14.4032883"><ele>59.0</ele><time>2026-04-04T07:48:00.01Z</time></trkpt><trkpt lat="41.0295433" lon="14.4033633"><ele>59.00000000000001</ele><time>2026-04-04T07:48:01.011Z</time></trkpt><trkpt lat="41.0294933" lon="14.4035083"><ele>59.00000000000001</ele><time>2026-04-04T07:48:03.01Z</time></trkpt><trkpt lat="41.0294433" lon="14.4036467"><ele>59.0</ele><time>2026-04-04T07:48:05.011Z</time></trkpt><trkpt lat="41.0293933" lon="14.403795"><ele>59.0</ele><time>2026-04-04T07:48:07.01Z</time></trkpt><trkpt lat="41.0293483" lon="14.403945"><ele>58.71428571428571</ele><time>2026-04-04T07:48:09.01Z</time></trkpt><trkpt lat="41.0293233" lon="14.4040233"><ele>58.42857142857143</ele><time>2026-04-04T07:48:10.011Z</time></trkpt><trkpt lat="41.0292983" lon="14.4041017"><ele>58.14285714285714</ele><time>2026-04-04T07:48:11.01Z</time></trkpt><trkpt lat="41.0292717" lon="14.40418"><ele>57.857142857142854</ele><time>2026-04-04T07:48:12.011Z</time></trkpt><trkpt lat="41.0292433" lon="14.4042567"><ele>57.57142857142857</ele><time>2026-04-04T07:48:13.012Z</time></trkpt><trkpt lat="41.0292133" lon="14.40434"><ele>57.285714285714285</ele><time>2026-04-04T07:48:14.011Z</time></trkpt><trkpt lat="41.0291833" lon="14.4044267"><ele>57.0</ele><time>2026-04-04T07:48:15.01Z</time></trkpt><trkpt lat="41.0291533" lon="14.4045117"><ele>56.833333333333336</ele><time>2026-04-04T07:48:16.01Z</time></trkpt><trkpt lat="41.0291217" lon="14.4046033"><ele>56.66666666666667</ele><time>2026-04-04T07:48:17.009Z</time></trkpt><trkpt lat="41.0290883" lon="14.404695"><ele>56.5</ele><time>2026-04-04T07:48:18.008Z</time></trkpt><trkpt lat="41.029055" lon="14.4047933"><ele>56.333333333333336</ele><time>2026-04-04T07:48:19.009Z</time></trkpt><trkpt lat="41.0290183" lon="14.40489"><ele>56.16666666666667</ele><time>2026-04-04T07:48:20.008Z</time></trkpt><trkpt lat="41.0289817" lon="14.4049883"><ele>56.0</ele><time>2026-04-04T07:48:21.01Z</time></trkpt><trkpt lat="41.0289467" lon="14.4050917"><ele>56.0</ele><time>2026-04-04T07:48:22.009Z</time></trkpt><trkpt lat="41.02891" lon="14.4052"><ele>55.99999999999999</ele><time>2026-04-04T07:48:23.008Z</time></trkpt><trkpt lat="41.0288667" lon="14.4053117"><ele>55.99999999999999</ele><time>2026-04-04T07:48:24.011Z</time></trkpt><trkpt lat="41.0288233" lon="14.4054233"><ele>56.0</ele><time>2026-04-04T07:48:25.011Z</time></trkpt><trkpt lat="41.0287783" lon="14.40554"><ele>56.0</ele><time>2026-04-04T07:48:26.012Z</time></trkpt><trkpt lat="41.0287333" lon="14.4056633"><ele>55.8</ele><time>2026-04-04T07:48:27.01Z</time></trkpt><trkpt lat="41.0286867" lon="14.4057883"><ele>55.599999999999994</ele><time>2026-04-04T07:48:28.012Z</time></trkpt><trkpt lat="41.02864" lon="14.4059167"><ele>55.4</ele><time>2026-04-04T07:48:29.011Z</time></trkpt><trkpt lat="41.0285917" lon="14.4060517"><ele>55.2</ele><time>2026-04-04T07:48:30.011Z</time></trkpt><trkpt lat="41.028545" lon="14.4061883"><ele>55.0</ele><time>2026-04-04T07:48:31.012Z</time></trkpt><trkpt lat="41.0285" lon="14.4063217"><ele>55.0</ele><time>2026-04-04T07:48:32.01Z</time></trkpt><trkpt lat="41.0284533" lon="14.4064567"><ele>55.0</ele><time>2026-04-04T07:48:33.01Z</time></trkpt><trkpt lat="41.028405" lon="14.4065883"><ele>55.0</ele><time>2026-04-04T07:48:34.01Z</time></trkpt><trkpt lat="41.0283633" lon="14.40672"><ele>55.0</ele><time>2026-04-04T07:48:35.01Z</time></trkpt><trkpt lat="41.02832" lon="14.406855"><ele>55.0</ele><time>2026-04-04T07:48:36.011Z</time></trkpt><trkpt lat="41.0282783" lon="14.4069867"><ele>54.4</ele><time>2026-04-04T07:48:37.008Z</time></trkpt><trkpt lat="41.0282383" lon="14.4071067"><ele>53.8</ele><time>2026-04-04T07:48:38.011Z</time></trkpt><trkpt lat="41.0281967" lon="14.4072167"><ele>53.2</ele><time>2026-04-04T07:48:39.01Z</time></trkpt><trkpt lat="41.028155" lon="14.4073267"><ele>52.6</ele><time>2026-04-04T07:48:40.011Z</time></trkpt><trkpt lat="41.0281183" lon="14.4074383"><ele>52.0</ele><time>2026-04-04T07:48:41.01Z</time></trkpt><trkpt lat="41.0280817" lon="14.40755"><ele>51.8</ele><time>2026-04-04T07:48:42.01Z</time></trkpt><trkpt lat="41.028045" lon="14.40766"><ele>51.6</ele><time>2026-04-04T07:48:43.01Z</time></trkpt><trkpt lat="41.028005" lon="14.4077683"><ele>51.4</ele><time>2026-04-04T07:48:44.011Z</time></trkpt><trkpt lat="41.027965" lon="14.40788"><ele>51.199999999999996</ele><time>2026-04-04T07:48:45.011Z</time></trkpt><trkpt lat="41.0279267" lon="14.40799"><ele>51.0</ele><time>2026-04-04T07:48:46.01Z</time></trkpt><trkpt lat="41.0278883" lon="14.4081033"><ele>51.0</ele><time>2026-04-04T07:48:47.009Z</time></trkpt><trkpt lat="41.0278533" lon="14.40822"><ele>51.0</ele><time>2026-04-04T07:48:48.009Z</time></trkpt><trkpt lat="41.0278167" lon="14.4083383"><ele>51.0</ele><time>2026-04-04T07:48:49.008Z</time></trkpt><trkpt lat="41.0277833" lon="14.4084583"><ele>51.0</ele><time>2026-04-04T07:48:50.009Z</time></trkpt><trkpt lat="41.0277517" lon="14.408585"><ele>51.0</ele><time>2026-04-04T07:48:51.008Z</time></trkpt><trkpt lat="41.0277217" lon="14.4087083"><ele>51.0</ele><time>2026-04-04T07:48:52.007Z</time></trkpt><trkpt lat="41.027695" lon="14.4088367"><ele>51.0</ele><time>2026-04-04T07:48:53.01Z</time></trkpt><trkpt lat="41.0276733" lon="14.408965"><ele>51.0</ele><time>2026-04-04T07:48:54.007Z</time></trkpt><trkpt lat="41.0276517" lon="14.4090933"><ele>51.0</ele><time>2026-04-04T07:48:55.007Z</time></trkpt><trkpt lat="41.02763" lon="14.4092183"><ele>51.0</ele><time>2026-04-04T07:48:56.007Z</time></trkpt><trkpt lat="41.0276083" lon="14.4093417"><ele>51.0</ele><time>2026-04-04T07:48:57.011Z</time></trkpt><trkpt lat="41.0275867" lon="14.4094683"><ele>51.0</ele><time>2026-04-04T07:48:58.007Z</time></trkpt><trkpt lat="41.02757" lon="14.409595"><ele>51.0</ele><time>2026-04-04T07:48:59.01Z</time></trkpt><trkpt lat="41.0275517" lon="14.4097183"><ele>51.0</ele><time>2026-04-04T07:49:00.011Z</time></trkpt><trkpt lat="41.027535" lon="14.4098417"><ele>51.0</ele><time>2026-04-04T07:49:01.01Z</time></trkpt><trkpt lat="41.0275183" lon="14.4099667"><ele>50.4</ele><time>2026-04-04T07:49:02.01Z</time></trkpt><trkpt lat="41.0275" lon="14.4100967"><ele>49.8</ele><time>2026-04-04T07:49:03.011Z</time></trkpt><trkpt lat="41.02748" lon="14.410225"><ele>49.199999999999996</ele><time>2026-04-04T07:49:04.011Z</time></trkpt><trkpt lat="41.02746" lon="14.4103533"><ele>48.599999999999994</ele><time>2026-04-04T07:49:05.01Z</time></trkpt><trkpt lat="41.0274433" lon="14.4104817"><ele>48.0</ele><time>2026-04-04T07:49:06.011Z</time></trkpt><trkpt lat="41.027425" lon="14.4106117"><ele>47.599999999999994</ele><time>2026-04-04T07:49:07.008Z</time></trkpt><trkpt lat="41.0274033" lon="14.4107367"><ele>47.199999999999996</ele><time>2026-04-04T07:49:08.01Z</time></trkpt><trkpt lat="41.02738" lon="14.41086"><ele>46.8</ele><time>2026-04-04T07:49:09.01Z</time></trkpt><trkpt lat="41.0273617" lon="14.4109817"><ele>46.4</ele><time>2026-04-04T07:49:10.011Z</time></trkpt><trkpt lat="41.027345" lon="14.411105"><ele>46.0</ele><time>2026-04-04T07:49:11.01Z</time></trkpt><trkpt lat="41.02733" lon="14.41123"><ele>46.16666666666667</ele><time>2026-04-04T07:49:12.01Z</time></trkpt><trkpt lat="41.0273133" lon="14.41135"><ele>46.333333333333336</ele><time>2026-04-04T07:49:13.01Z</time></trkpt><trkpt lat="41.027295" lon="14.4114683"><ele>46.5</ele><time>2026-04-04T07:49:14.011Z</time></trkpt><trkpt lat="41.0272767" lon="14.4115833"><ele>46.666666666666664</ele><time>2026-04-04T07:49:15.01Z</time></trkpt><trkpt lat="41.0272617" lon="14.4117"><ele>46.83333333333333</ele><time>2026-04-04T07:49:16.011Z</time></trkpt><trkpt lat="41.0272467" lon="14.4118117"><ele>47.0</ele><time>2026-04-04T07:49:17.01Z</time></trkpt><trkpt lat="41.0272317" lon="14.41192"><ele>47.0</ele><time>2026-04-04T07:49:18.009Z</time></trkpt><trkpt lat="41.0272167" lon="14.4120283"><ele>47.0</ele><time>2026-04-04T07:49:19.009Z</time></trkpt><trkpt lat="41.0271967" lon="14.4121317"><ele>47.0</ele><time>2026-04-04T07:49:20.008Z</time></trkpt><trkpt lat="41.0271783" lon="14.4122367"><ele>47.0</ele><time>2026-04-04T07:49:21.01Z</time></trkpt><trkpt lat="41.0271617" lon="14.41234"><ele>47.0</ele><time>2026-04-04T07:49:22.009Z</time></trkpt><trkpt lat="41.0271467" lon="14.4124417"><ele>47.0</ele><time>2026-04-04T07:49:23.009Z</time></trkpt><trkpt lat="41.027135" lon="14.4125433"><ele>47.0</ele><time>2026-04-04T07:49:24.01Z</time></trkpt><trkpt lat="41.0271217" lon="14.4126433"><ele>47.0</ele><time>2026-04-04T07:49:25.01Z</time></trkpt><trkpt lat="41.02711" lon="14.4127417"><ele>47.0</ele><time>2026-04-04T07:49:26.011Z</time></trkpt><trkpt lat="41.027095" lon="14.41284"><ele>47.0</ele><time>2026-04-04T07:49:27.012Z</time></trkpt><trkpt lat="41.0270783" lon="14.412935"><ele>47.0</ele><time>2026-04-04T07:49:28.009Z</time></trkpt><trkpt lat="41.0270633" lon="14.4130333"><ele>47.0</ele><time>2026-04-04T07:49:29.011Z</time></trkpt><trkpt lat="41.0270517" lon="14.41313"><ele>47.0</ele><time>2026-04-04T07:49:30.011Z</time></trkpt><trkpt lat="41.0270417" lon="14.413225"><ele>47.0</ele><time>2026-04-04T07:49:31.01Z</time></trkpt><trkpt lat="41.0270317" lon="14.41332"><ele>47.0</ele><time>2026-04-04T07:49:32.011Z</time></trkpt><trkpt lat="41.0270217" lon="14.413415"><ele>47.0</ele><time>2026-04-04T07:49:33.01Z</time></trkpt><trkpt lat="41.0270083" lon="14.4135117"><ele>47.0</ele><time>2026-04-04T07:49:34.011Z</time></trkpt><trkpt lat="41.026995" lon="14.4136067"><ele>47.0</ele><time>2026-04-04T07:49:35.01Z</time></trkpt><trkpt lat="41.0269783" lon="14.4137"><ele>47.0</ele><time>2026-04-04T07:49:36.011Z</time></trkpt><trkpt lat="41.0269633" lon="14.4137917"><ele>47.285714285714285</ele><time>2026-04-04T07:49:37.009Z</time></trkpt><trkpt lat="41.02695" lon="14.413885"><ele>47.57142857142857</ele><time>2026-04-04T07:49:38.011Z</time></trkpt><trkpt lat="41.0269383" lon="14.4139817"><ele>47.85714285714286</ele><time>2026-04-04T07:49:39.011Z</time></trkpt><trkpt lat="41.026925" lon="14.4140733"><ele>48.14285714285714</ele><time>2026-04-04T07:49:40.011Z</time></trkpt><trkpt lat="41.02691" lon="14.414165"><ele>48.42857142857143</ele><time>2026-04-04T07:49:41.011Z</time></trkpt><trkpt lat="41.026895" lon="14.414255"><ele>48.714285714285715</ele><time>2026-04-04T07:49:42.01Z</time></trkpt><trkpt lat="41.02688" lon="14.4143433"><ele>49.0</ele><time>2026-04-04T07:49:43.01Z</time></trkpt><trkpt lat="41.0268667" lon="14.414435"><ele>49.0</ele><time>2026-04-04T07:49:44.012Z</time></trkpt><trkpt lat="41.0268533" lon="14.41452"><ele>49.0</ele><time>2026-04-04T07:49:45.011Z</time></trkpt><trkpt lat="41.0268417" lon="14.4146067"><ele>49.0</ele><time>2026-04-04T07:49:46.01Z</time></trkpt><trkpt lat="41.0268267" lon="14.4146933"><ele>49.0</ele><time>2026-04-04T07:49:47.01Z</time></trkpt><trkpt lat="41.0268133" lon="14.41478"><ele>49.0</ele><time>2026-04-04T07:49:48.011Z</time></trkpt><trkpt lat="41.0268" lon="14.4148667"><ele>49.0</ele><time>2026-04-04T07:49:49.011Z</time></trkpt><trkpt lat="41.0267833" lon="14.4149567"><ele>49.0</ele><time>2026-04-04T07:49:50.011Z</time></trkpt><trkpt lat="41.02677" lon="14.4150517"><ele>49.0</ele><time>2026-04-04T07:49:51.011Z</time></trkpt><trkpt lat="41.0267567" lon="14.4151433"><ele>49.0</ele><time>2026-04-04T07:49:52.011Z</time></trkpt><trkpt lat="41.0267417" lon="14.4152367"><ele>49.0</ele><time>2026-04-04T07:49:53.01Z</time></trkpt><trkpt lat="41.02673" lon="14.4153283"><ele>49.0</ele><time>2026-04-04T07:49:54.009Z</time></trkpt><trkpt lat="41.0267183" lon="14.4154217"><ele>49.0</ele><time>2026-04-04T07:49:55.01Z</time></trkpt><trkpt lat="41.026705" lon="14.4155167"><ele>49.0</ele><time>2026-04-04T07:49:56.012Z</time></trkpt><trkpt lat="41.0266933" lon="14.4156083"><ele>49.0</ele><time>2026-04-04T07:49:57.011Z</time></trkpt><trkpt lat="41.02668" lon="14.4157033"><ele>48.857142857142854</ele><time>2026-04-04T07:49:58.011Z</time></trkpt><trkpt lat="41.0266667" lon="14.4157967"><ele>48.714285714285715</ele><time>2026-04-04T07:49:59.011Z</time></trkpt><trkpt lat="41.0266517" lon="14.4158917"><ele>48.57142857142857</ele><time>2026-04-04T07:50:00.011Z</time></trkpt><trkpt lat="41.0266383" lon="14.415985"><ele>48.42857142857143</ele><time>2026-04-04T07:50:01.011Z</time></trkpt><trkpt lat="41.0266233" lon="14.416075"><ele>48.285714285714285</ele><time>2026-04-04T07:50:02.011Z</time></trkpt><trkpt lat="41.0266117" lon="14.4161667"><ele>48.14285714285714</ele><time>2026-04-04T07:50:03.01Z</time></trkpt><trkpt lat="41.0265983" lon="14.41626"><ele>48.0</ele><time>2026-04-04T07:50:04.011Z</time></trkpt><trkpt lat="41.026585" lon="14.4163517"><ele>47.99999999999999</ele><time>2026-04-04T07:50:05.012Z</time></trkpt><trkpt lat="41.0265733" lon="14.4164383"><ele>48.0</ele><time>2026-04-04T07:50:06.01Z</time></trkpt><trkpt lat="41.0265633" lon="14.416525"><ele>48.0</ele><time>2026-04-04T07:50:07.011Z</time></trkpt><trkpt lat="41.0265517" lon="14.4166117"><ele>48.0</ele><time>2026-04-04T07:50:08.011Z</time></trkpt><trkpt lat="41.0265383" lon="14.4166983"><ele>48.0</ele><time>2026-04-04T07:50:09.01Z</time></trkpt><trkpt lat="41.026525" lon="14.4167833"><ele>47.99999999999999</ele><time>2026-04-04T07:50:10.011Z</time></trkpt><trkpt lat="41.0265117" lon="14.4168717"><ele>48.0</ele><time>2026-04-04T07:50:11.01Z</time></trkpt><trkpt lat="41.0265" lon="14.4169583"><ele>47.99999999999999</ele><time>2026-04-04T07:50:12.011Z</time></trkpt><trkpt lat="41.0264867" lon="14.4170433"><ele>48.0</ele><time>2026-04-04T07:50:13.011Z</time></trkpt><trkpt lat="41.0264733" lon="14.41713"><ele>48.0</ele><time>2026-04-04T07:50:14.012Z</time></trkpt><trkpt lat="41.0264583" lon="14.417215"><ele>48.0</ele><time>2026-04-04T07:50:15.012Z</time></trkpt><trkpt lat="41.0264483" lon="14.4173017"><ele>48.0</ele><time>2026-04-04T07:50:16.01Z</time></trkpt><trkpt lat="41.026435" lon="14.41739"><ele>47.99999999999999</ele><time>2026-04-04T07:50:17.011Z</time></trkpt><trkpt lat="41.0264233" lon="14.41748"><ele>48.0</ele><time>2026-04-04T07:50:18.012Z</time></trkpt><trkpt lat="41.0264117" lon="14.4175683"><ele>47.99999999999999</ele><time>2026-04-04T07:50:19.01Z</time></trkpt><trkpt lat="41.0263983" lon="14.4176567"><ele>48.0</ele><time>2026-04-04T07:50:20.012Z</time></trkpt><trkpt lat="41.0263867" lon="14.417745"><ele>48.0</ele><time>2026-04-04T07:50:21.011Z</time></trkpt><trkpt lat="41.026375" lon="14.4178317"><ele>48.0</ele><time>2026-04-04T07:50:22.011Z</time></trkpt><trkpt lat="41.026365" lon="14.4179183"><ele>48.0</ele><time>2026-04-04T07:50:23.012Z</time></trkpt><trkpt lat="41.0263533" lon="14.418005"><ele>47.99999999999999</ele><time>2026-04-04T07:50:24.013Z</time></trkpt><trkpt lat="41.02634" lon="14.41809"><ele>48.0</ele><time>2026-04-04T07:50:25.011Z</time></trkpt><trkpt lat="41.0263267" lon="14.4181717"><ele>48.0</ele><time>2026-04-04T07:50:26.012Z</time></trkpt><trkpt lat="41.026315" lon="14.41826"><ele>48.0</ele><time>2026-04-04T07:50:27.01Z</time></trkpt><trkpt lat="41.0263033" lon="14.418345"><ele>48.0</ele><time>2026-04-04T07:50:28.01Z</time></trkpt><trkpt lat="41.02629" lon="14.4184283"><ele>48.0</ele><time>2026-04-04T07:50:29.01Z</time></trkpt><trkpt lat="41.026275" lon="14.4185133"><ele>48.0</ele><time>2026-04-04T07:50:30.01Z</time></trkpt><trkpt lat="41.0262483" lon="14.4186733"><ele>48.0</ele><time>2026-04-04T07:50:32.011Z</time></trkpt><trkpt lat="41.026225" lon="14.41882"><ele>48.75</ele><time>2026-04-04T07:50:34.01Z</time></trkpt><trkpt lat="41.0262017" lon="14.41897"><ele>49.5</ele><time>2026-04-04T07:50:36.008Z</time></trkpt><trkpt lat="41.0261817" lon="14.4191183"><ele>50.25</ele><time>2026-04-04T07:50:38.01Z</time></trkpt><trkpt lat="41.0261583" lon="14.4192683"><ele>51.0</ele><time>2026-04-04T07:50:40.011Z</time></trkpt><trkpt lat="41.02614" lon="14.4194167"><ele>51.0</ele><time>2026-04-04T07:50:42.01Z</time></trkpt><trkpt lat="41.0261167" lon="14.4195683"><ele>51.0</ele><time>2026-04-04T07:50:44.01Z</time></trkpt><trkpt lat="41.026095" lon="14.41973"><ele>51.0</ele><time>2026-04-04T07:50:46.011Z</time></trkpt><trkpt lat="41.0260717" lon="14.4198833"><ele>51.0</ele><time>2026-04-04T07:50:48.011Z</time></trkpt><trkpt lat="41.0260483" lon="14.4200333"><ele>50.75</ele><time>2026-04-04T07:50:50.011Z</time></trkpt><trkpt lat="41.0260267" lon="14.4201833"><ele>50.5</ele><time>2026-04-04T07:50:52.011Z</time></trkpt><trkpt lat="41.0260067" lon="14.4203367"><ele>50.25</ele><time>2026-04-04T07:50:54.01Z</time></trkpt><trkpt lat="41.0259867" lon="14.4204817"><ele>50.0</ele><time>2026-04-04T07:50:56.008Z</time></trkpt><trkpt lat="41.0259667" lon="14.420625"><ele>50.75</ele><time>2026-04-04T07:50:58.011Z</time></trkpt><trkpt lat="41.02595" lon="14.42078"><ele>51.5</ele><time>2026-04-04T07:51:00.011Z</time></trkpt><trkpt lat="41.0259317" lon="14.4209333"><ele>52.25</ele><time>2026-04-04T07:51:02.011Z</time></trkpt><trkpt lat="41.025915" lon="14.4210833"><ele>53.0</ele><time>2026-04-04T07:51:04.011Z</time></trkpt><trkpt lat="41.0258933" lon="14.421235"><ele>53.0</ele><time>2026-04-04T07:51:06.008Z</time></trkpt><trkpt lat="41.0258717" lon="14.4213833"><ele>53.0</ele><time>2026-04-04T07:51:08.011Z</time></trkpt><trkpt lat="41.0258517" lon="14.4215417"><ele>53.0</ele><time>2026-04-04T07:51:10.011Z</time></trkpt><trkpt lat="41.0258267" lon="14.42168"><ele>53.0</ele><time>2026-04-04T07:51:12.01Z</time></trkpt><trkpt lat="41.025805" lon="14.42181"><ele>53.0</ele><time>2026-04-04T07:51:14.011Z</time></trkpt><trkpt lat="41.0257833" lon="14.42195"><ele>52.75</ele><time>2026-04-04T07:51:16.01Z</time></trkpt><trkpt lat="41.0257683" lon="14.4220983"><ele>52.5</ele><time>2026-04-04T07:51:18.008Z</time></trkpt><trkpt lat="41.02575" lon="14.4222517"><ele>52.25</ele><time>2026-04-04T07:51:20.01Z</time></trkpt><trkpt lat="41.0257283" lon="14.4223983"><ele>52.0</ele><time>2026-04-04T07:51:22.009Z</time></trkpt><trkpt lat="41.0256983" lon="14.4225483"><ele>51.8</ele><time>2026-04-04T07:51:24.01Z</time></trkpt><trkpt lat="41.0256717" lon="14.422695"><ele>51.6</ele><time>2026-04-04T07:51:26.011Z</time></trkpt><trkpt lat="41.0256533" lon="14.4228367"><ele>51.4</ele><time>2026-04-04T07:51:28.011Z</time></trkpt><trkpt lat="41.025625" lon="14.4229767"><ele>51.199999999999996</ele><time>2026-04-04T07:51:30.011Z</time></trkpt><trkpt lat="41.0256" lon="14.4231233"><ele>51.0</ele><time>2026-04-04T07:51:32.011Z</time></trkpt><trkpt lat="41.0255833" lon="14.4232733"><ele>51.4</ele><time>2026-04-04T07:51:34.011Z</time></trkpt><trkpt lat="41.025565" lon="14.4234167"><ele>51.8</ele><time>2026-04-04T07:51:36.011Z</time></trkpt><trkpt lat="41.025545" lon="14.42355"><ele>52.199999999999996</ele><time>2026-04-04T07:51:38.011Z</time></trkpt><trkpt lat="41.0255233" lon="14.4236867"><ele>52.599999999999994</ele><time>2026-04-04T07:51:40.01Z</time></trkpt><trkpt lat="41.02551" lon="14.4238183"><ele>53.0</ele><time>2026-04-04T07:51:42.011Z</time></trkpt><trkpt lat="41.0254917" lon="14.4239533"><ele>53.2</ele><time>2026-04-04T07:51:44.011Z</time></trkpt><trkpt lat="41.0254683" lon="14.424095"><ele>53.4</ele><time>2026-04-04T07:51:46.011Z</time></trkpt><trkpt lat="41.025445" lon="14.424235"><ele>53.60000000000001</ele><time>2026-04-04T07:51:48.007Z</time></trkpt><trkpt lat="41.0254283" lon="14.4243733"><ele>53.800000000000004</ele><time>2026-04-04T07:51:50.008Z</time></trkpt><trkpt lat="41.0254067" lon="14.4244983"><ele>54.0</ele><time>2026-04-04T07:51:52.008Z</time></trkpt><trkpt lat="41.02539" lon="14.4246233"><ele>54.2</ele><time>2026-04-04T07:51:54.008Z</time></trkpt><trkpt lat="41.025375" lon="14.424755"><ele>54.400000000000006</ele><time>2026-04-04T07:51:56.009Z</time></trkpt><trkpt lat="41.0253633" lon="14.4248833"><ele>54.6</ele><time>2026-04-04T07:51:58.008Z</time></trkpt><trkpt lat="41.02535" lon="14.4250117"><ele>54.8</ele><time>2026-04-04T07:52:00.009Z</time></trkpt><trkpt lat="41.025335" lon="14.4251317"><ele>55.0</ele><time>2026-04-04T07:52:02.008Z</time></trkpt><trkpt lat="41.0253117" lon="14.4252367"><ele>55.0</ele><time>2026-04-04T07:52:04.007Z</time></trkpt><trkpt lat="41.0252867" lon="14.425345"><ele>55.0</ele><time>2026-04-04T07:52:06.008Z</time></trkpt><trkpt lat="41.02527" lon="14.4254533"><ele>55.0</ele><time>2026-04-04T07:52:08.008Z</time></trkpt><trkpt lat="41.0252533" lon="14.425575"><ele>55.0</ele><time>2026-04-04T07:52:10.008Z</time></trkpt><trkpt lat="41.0252367" lon="14.4256983"><ele>55.0</ele><time>2026-04-04T07:52:12.008Z</time></trkpt><trkpt lat="41.02522" lon="14.42582"><ele>55.0</ele><time>2026-04-04T07:52:14.01Z</time></trkpt><trkpt lat="41.025205" lon="14.4259483"><ele>55.0</ele><time>2026-04-04T07:52:16.011Z</time></trkpt><trkpt lat="41.02518" lon="14.426075"><ele>55.0</ele><time>2026-04-04T07:52:18.009Z</time></trkpt><trkpt lat="41.0251633" lon="14.4262"><ele>55.0</ele><time>2026-04-04T07:52:20.01Z</time></trkpt><trkpt lat="41.0251433" lon="14.426325"><ele>55.0</ele><time>2026-04-04T07:52:22.009Z</time></trkpt><trkpt lat="41.025125" lon="14.426445"><ele>55.2</ele><time>2026-04-04T07:52:24.01Z</time></trkpt><trkpt lat="41.0251083" lon="14.4265633"><ele>55.4</ele><time>2026-04-04T07:52:26.009Z</time></trkpt><trkpt lat="41.0250883" lon="14.4266783"><ele>55.599999999999994</ele><time>2026-04-04T07:52:28.01Z</time></trkpt><trkpt lat="41.02507" lon="14.4267933"><ele>55.8</ele><time>2026-04-04T07:52:30.012Z</time></trkpt><trkpt lat="41.0250533" lon="14.4269133"><ele>56.0</ele><time>2026-04-04T07:52:32.01Z</time></trkpt><trkpt lat="41.0250333" lon="14.4270283"><ele>56.00000000000001</ele><time>2026-04-04T07:52:34.011Z</time></trkpt><trkpt lat="41.0250133" lon="14.4271433"><ele>56.0</ele><time>2026-04-04T07:52:36.011Z</time></trkpt><trkpt lat="41.0249967" lon="14.42726"><ele>56.0</ele><time>2026-04-04T07:52:38.01Z</time></trkpt><trkpt lat="41.0249833" lon="14.4273783"><ele>56.0</ele><time>2026-04-04T07:52:40.011Z</time></trkpt><trkpt lat="41.024965" lon="14.427495"><ele>56.00000000000001</ele><time>2026-04-04T07:52:42.008Z</time></trkpt><trkpt lat="41.02495" lon="14.4276117"><ele>56.0</ele><time>2026-04-04T07:52:44.012Z</time></trkpt><trkpt lat="41.0249367" lon="14.427715"><ele>56.16666666666667</ele><time>2026-04-04T07:52:46.009Z</time></trkpt><trkpt lat="41.0249167" lon="14.4278217"><ele>56.333333333333336</ele><time>2026-04-04T07:52:48.01Z</time></trkpt><trkpt lat="41.0248933" lon="14.427915"><ele>56.5</ele><time>2026-04-04T07:52:50.01Z</time></trkpt><trkpt lat="41.0248733" lon="14.428"><ele>56.66666666666667</ele><time>2026-04-04T07:52:52.011Z</time></trkpt><trkpt lat="41.0248583" lon="14.4280967"><ele>56.833333333333336</ele><time>2026-04-04T07:52:54.01Z</time></trkpt><trkpt lat="41.0248483" lon="14.428215"><ele>57.0</ele><time>2026-04-04T07:52:57.009Z</time></trkpt><trkpt lat="41.02484" lon="14.4283"><ele>57.5</ele><time>2026-04-04T07:52:59.011Z</time></trkpt><trkpt lat="41.024835" lon="14.4283883"><ele>58.0</ele><time>2026-04-04T07:53:01.009Z</time></trkpt><trkpt lat="41.02482" lon="14.42849"><ele>58.5</ele><time>2026-04-04T07:53:03.011Z</time></trkpt><trkpt lat="41.0248017" lon="14.428585"><ele>59.0</ele><time>2026-04-04T07:53:05.01Z</time></trkpt><trkpt lat="41.0247933" lon="14.4286883"><ele>59.5</ele><time>2026-04-04T07:53:07.011Z</time></trkpt><trkpt lat="41.0247817" lon="14.4287933"><ele>60.0</ele><time>2026-04-04T07:53:09.011Z</time></trkpt><trkpt lat="41.02477" lon="14.4288983"><ele>60.166666666666664</ele><time>2026-04-04T07:53:11.01Z</time></trkpt><trkpt lat="41.0247817" lon="14.4290083"><ele>60.33333333333333</ele><time>2026-04-04T07:53:13.011Z</time></trkpt><trkpt lat="41.0248367" lon="14.4290617"><ele>60.5</ele><time>2026-04-04T07:53:15.009Z</time></trkpt><trkpt lat="41.02491" lon="14.4290567"><ele>60.666666666666664</ele><time>2026-04-04T07:53:17.008Z</time></trkpt><trkpt lat="41.0249917" lon="14.4290533"><ele>60.83333333333333</ele><time>2026-04-04T07:53:19.011Z</time></trkpt><trkpt lat="41.025065" lon="14.429085"><ele>61.0</ele><time>2026-04-04T07:53:21.011Z</time></trkpt><trkpt lat="41.0251367" lon="14.4291283"><ele>60.99999999999999</ele><time>2026-04-04T07:53:23.011Z</time></trkpt><trkpt lat="41.0252183" lon="14.4291767"><ele>61.0</ele><time>2026-04-04T07:53:25.012Z</time></trkpt><trkpt lat="41.0252967" lon="14.4292117"><ele>61.0</ele><time>2026-04-04T07:53:27.009Z</time></trkpt><trkpt lat="41.02537" lon="14.4292433"><ele>61.0</ele><time>2026-04-04T07:53:29.009Z</time></trkpt><trkpt lat="41.0254433" lon="14.4292783"><ele>60.99999999999999</ele><time>2026-04-04T07:53:31.009Z</time></trkpt><trkpt lat="41.025525" lon="14.4293183"><ele>61.0</ele><time>2026-04-04T07:53:33.009Z</time></trkpt><trkpt lat="41.0256067" lon="14.4293533"><ele>60.99999999999999</ele><time>2026-04-04T07:53:35.009Z</time></trkpt><trkpt lat="41.0256867" lon="14.429395"><ele>61.0</ele><time>2026-04-04T07:53:37.011Z</time></trkpt><trkpt lat="41.025765" lon="14.42945"><ele>61.0</ele><time>2026-04-04T07:53:39.009Z</time></trkpt><trkpt lat="41.0258483" lon="14.4294917"><ele>61.0</ele><time>2026-04-04T07:53:41.01Z</time></trkpt><trkpt lat="41.0259283" lon="14.4295317"><ele>60.99999999999999</ele><time>2026-04-04T07:53:43.009Z</time></trkpt><trkpt lat="41.026" lon="14.42957"><ele>61.0</ele><time>2026-04-04T07:53:45.009Z</time></trkpt><trkpt lat="41.0260683" lon="14.4296133"><ele>61.33333333333333</ele><time>2026-04-04T07:53:47.009Z</time></trkpt><trkpt lat="41.0261367" lon="14.4296667"><ele>61.666666666666664</ele><time>2026-04-04T07:53:49.008Z</time></trkpt><trkpt lat="41.026185" lon="14.4297517"><ele>62.0</ele><time>2026-04-04T07:53:51.007Z</time></trkpt><trkpt lat="41.0262217" lon="14.429845"><ele>62.33333333333333</ele><time>2026-04-04T07:53:53.008Z</time></trkpt><trkpt lat="41.0262467" lon="14.4299483"><ele>62.666666666666664</ele><time>2026-04-04T07:53:55.009Z</time></trkpt><trkpt lat="41.02627" lon="14.43006"><ele>63.0</ele><time>2026-04-04T07:53:57.008Z</time></trkpt><trkpt lat="41.0262883" lon="14.430185"><ele>63.0</ele><time>2026-04-04T07:53:59.01Z</time></trkpt><trkpt lat="41.0262983" lon="14.430315"><ele>63.0</ele><time>2026-04-04T07:54:01.009Z</time></trkpt><trkpt lat="41.02629" lon="14.43045"><ele>63.0</ele><time>2026-04-04T07:54:03.01Z</time></trkpt><trkpt lat="41.0262767" lon="14.4305933"><ele>63.0</ele><time>2026-04-04T07:54:05.01Z</time></trkpt><trkpt lat="41.0262683" lon="14.4307383"><ele>63.0</ele><time>2026-04-04T07:54:07.007Z</time></trkpt><trkpt lat="41.0262617" lon="14.4308767"><ele>63.0</ele><time>2026-04-04T07:54:09.007Z</time></trkpt><trkpt lat="41.026265" lon="14.43102"><ele>63.0</ele><time>2026-04-04T07:54:11.012Z</time></trkpt><trkpt lat="41.0262767" lon="14.4311667"><ele>63.0</ele><time>2026-04-04T07:54:13.011Z</time></trkpt><trkpt lat="41.0262933" lon="14.4313167"><ele>63.0</ele><time>2026-04-04T07:54:15.012Z</time></trkpt><trkpt lat="41.0263067" lon="14.43146"><ele>63.0</ele><time>2026-04-04T07:54:17.01Z</time></trkpt><trkpt lat="41.026325" lon="14.4316067"><ele>63.0</ele><time>2026-04-04T07:54:19.007Z</time></trkpt><trkpt lat="41.0263383" lon="14.431755"><ele>63.0</ele><time>2026-04-04T07:54:21.011Z</time></trkpt><trkpt lat="41.0263517" lon="14.4319067"><ele>63.0</ele><time>2026-04-04T07:54:23.011Z</time></trkpt><trkpt lat="41.0263667" lon="14.43205"><ele>63.0</ele><time>2026-04-04T07:54:25.011Z</time></trkpt><trkpt lat="41.02638" lon="14.4321867"><ele>63.0</ele><time>2026-04-04T07:54:27.009Z</time></trkpt><trkpt lat="41.02639" lon="14.432325"><ele>63.0</ele><time>2026-04-04T07:54:29.008Z</time></trkpt><trkpt lat="41.0263933" lon="14.4324583"><ele>63.0</ele><time>2026-04-04T07:54:31.006Z</time></trkpt><trkpt lat="41.0263983" lon="14.4325933"><ele>63.0</ele><time>2026-04-04T07:54:33.006Z</time></trkpt><trkpt lat="41.026405" lon="14.4328"><ele>63.0</ele><time>2026-04-04T07:54:36.006Z</time></trkpt><trkpt lat="41.0264117" lon="14.4330033"><ele>63.0</ele><time>2026-04-04T07:54:39.02Z</time></trkpt><trkpt lat="41.0264267" lon="14.4332133"><ele>63.0</ele><time>2026-04-04T07:54:42.007Z</time></trkpt><trkpt lat="41.0264283" lon="14.4333483"><ele>63.0</ele><time>2026-04-04T07:54:44.007Z</time></trkpt><trkpt lat="41.026435" lon="14.43348"><ele>63.0</ele><time>2026-04-04T07:54:46.006Z</time></trkpt><trkpt lat="41.0264333" lon="14.4336217"><ele>63.0</ele><time>2026-04-04T07:54:48.006Z</time></trkpt><trkpt lat="41.0264183" lon="14.4337567"><ele>63.0</ele><time>2026-04-04T07:54:50.006Z</time></trkpt><trkpt lat="41.0264167" lon="14.433885"><ele>63.0</ele><time>2026-04-04T07:54:52.008Z</time></trkpt><trkpt lat="41.0264133" lon="14.43402"><ele>63.0</ele><time>2026-04-04T07:54:54.007Z</time></trkpt><trkpt lat="41.02641" lon="14.4341517"><ele>63.0</ele><time>2026-04-04T07:54:56.006Z</time></trkpt><trkpt lat="41.026395" lon="14.4342967"><ele>63.0</ele><time>2026-04-04T07:54:58.007Z</time></trkpt><trkpt lat="41.02639" lon="14.4344333"><ele>63.0</ele><time>2026-04-04T07:55:00.009Z</time></trkpt><trkpt lat="41.0263867" lon="14.4345683"><ele>63.0</ele><time>2026-04-04T07:55:02.006Z</time></trkpt><trkpt lat="41.0263883" lon="14.43471"><ele>63.0</ele><time>2026-04-04T07:55:04.006Z</time></trkpt><trkpt lat="41.0263983" lon="14.4348683"><ele>63.0</ele><time>2026-04-04T07:55:06.007Z</time></trkpt><trkpt lat="41.0264033" lon="14.4350183"><ele>62.8</ele><time>2026-04-04T07:55:08.006Z</time></trkpt><trkpt lat="41.0264083" lon="14.4351717"><ele>62.599999999999994</ele><time>2026-04-04T07:55:10.006Z</time></trkpt><trkpt lat="41.02641" lon="14.435325"><ele>62.400000000000006</ele><time>2026-04-04T07:55:12.008Z</time></trkpt><trkpt lat="41.0264117" lon="14.435465"><ele>62.2</ele><time>2026-04-04T07:55:14.007Z</time></trkpt><trkpt lat="41.0264083" lon="14.4355933"><ele>62.0</ele><time>2026-04-04T07:55:16.006Z</time></trkpt><trkpt lat="41.0264083" lon="14.4357033"><ele>62.00000000000001</ele><time>2026-04-04T07:55:18.008Z</time></trkpt><trkpt lat="41.026405" lon="14.4358133"><ele>62.0</ele><time>2026-04-04T07:55:20.007Z</time></trkpt><trkpt lat="41.0263967" lon="14.4359317"><ele>62.0</ele><time>2026-04-04T07:55:22.008Z</time></trkpt><trkpt lat="41.0263933" lon="14.43605"><ele>62.0</ele><time>2026-04-04T07:55:24.007Z</time></trkpt><trkpt lat="41.02639" lon="14.4361683"><ele>62.00000000000001</ele><time>2026-04-04T07:55:26.021Z</time></trkpt><trkpt lat="41.02639" lon="14.4362817"><ele>62.0</ele><time>2026-04-04T07:55:28.007Z</time></trkpt><trkpt lat="41.0263733" lon="14.4363917"><ele>62.00000000000001</ele><time>2026-04-04T07:55:30.007Z</time></trkpt><trkpt lat="41.0263717" lon="14.4364983"><ele>62.0</ele><time>2026-04-04T07:55:32.006Z</time></trkpt><trkpt lat="41.0263667" lon="14.4365967"><ele>62.0</ele><time>2026-04-04T07:55:34.008Z</time></trkpt><trkpt lat="41.02635" lon="14.4366817"><ele>62.0</ele><time>2026-04-04T07:55:36.007Z</time></trkpt><trkpt lat="41.0263383" lon="14.4368133"><ele>62.00000000000001</ele><time>2026-04-04T07:55:39.006Z</time></trkpt><trkpt lat="41.02633" lon="14.4369133"><ele>62.0</ele><time>2026-04-04T07:55:41.006Z</time></trkpt><trkpt lat="41.0263317" lon="14.437025"><ele>62.2</ele><time>2026-04-04T07:55:43.007Z</time></trkpt><trkpt lat="41.02632" lon="14.4371433"><ele>62.400000000000006</ele><time>2026-04-04T07:55:45.006Z</time></trkpt><trkpt lat="41.0263233" lon="14.437275"><ele>62.599999999999994</ele><time>2026-04-04T07:55:47.006Z</time></trkpt><trkpt lat="41.02632" lon="14.4374083"><ele>62.8</ele><time>2026-04-04T07:55:49.007Z</time></trkpt><trkpt lat="41.0263117" lon="14.4375517"><ele>63.0</ele><time>2026-04-04T07:55:51.006Z</time></trkpt><trkpt lat="41.0263117" lon="14.4376933"><ele>63.0</ele><time>2026-04-04T07:55:53.006Z</time></trkpt><trkpt lat="41.0263" lon="14.4378267"><ele>63.0</ele><time>2026-04-04T07:55:55.007Z</time></trkpt><trkpt lat="41.0262967" lon="14.437965"><ele>63.0</ele><time>2026-04-04T07:55:57.006Z</time></trkpt><trkpt lat="41.0262967" lon="14.4381117"><ele>63.0</ele><time>2026-04-04T07:55:59.008Z</time></trkpt><trkpt lat="41.0263083" lon="14.438265"><ele>63.0</ele><time>2026-04-04T07:56:01.006Z</time></trkpt><trkpt lat="41.02631" lon="14.4384183"><ele>63.0</ele><time>2026-04-04T07:56:03.006Z</time></trkpt><trkpt lat="41.0263133" lon="14.43858"><ele>63.0</ele><time>2026-04-04T07:56:05.006Z</time></trkpt><trkpt lat="41.0263083" lon="14.43873"><ele>63.0</ele><time>2026-04-04T07:56:07.007Z</time></trkpt><trkpt lat="41.0262967" lon="14.43888"><ele>63.0</ele><time>2026-04-04T07:56:09.007Z</time></trkpt><trkpt lat="41.02629" lon="14.43903"><ele>62.8</ele><time>2026-04-04T07:56:11.007Z</time></trkpt><trkpt lat="41.02629" lon="14.4391667"><ele>62.599999999999994</ele><time>2026-04-04T07:56:13.007Z</time></trkpt><trkpt lat="41.0262883" lon="14.4392983"><ele>62.400000000000006</ele><time>2026-04-04T07:56:15.007Z</time></trkpt><trkpt lat="41.0262817" lon="14.43942"><ele>62.2</ele><time>2026-04-04T07:56:17.006Z</time></trkpt><trkpt lat="41.0262733" lon="14.4395517"><ele>62.0</ele><time>2026-04-04T07:56:19.006Z</time></trkpt><trkpt lat="41.0262683" lon="14.4396867"><ele>62.0</ele><time>2026-04-04T07:56:21.006Z</time></trkpt><trkpt lat="41.026275" lon="14.4398383"><ele>62.0</ele><time>2026-04-04T07:56:23.006Z</time></trkpt><trkpt lat="41.0262817" lon="14.4399867"><ele>62.0</ele><time>2026-04-04T07:56:25.007Z</time></trkpt><trkpt lat="41.0262833" lon="14.4401383"><ele>62.0</ele><time>2026-04-04T07:56:27.006Z</time></trkpt><trkpt lat="41.0262967" lon="14.440285"><ele>62.0</ele><time>2026-04-04T07:56:29.007Z</time></trkpt><trkpt lat="41.026305" lon="14.4404367"><ele>62.0</ele><time>2026-04-04T07:56:31.007Z</time></trkpt><trkpt lat="41.0263267" lon="14.440575"><ele>62.0</ele><time>2026-04-04T07:56:33.006Z</time></trkpt><trkpt lat="41.0263417" lon="14.4407033"><ele>62.0</ele><time>2026-04-04T07:56:35.006Z</time></trkpt><trkpt lat="41.0263433" lon="14.4408283"><ele>62.0</ele><time>2026-04-04T07:56:37.006Z</time></trkpt><trkpt lat="41.0263517" lon="14.44096"><ele>62.400000000000006</ele><time>2026-04-04T07:56:39.006Z</time></trkpt><trkpt lat="41.026365" lon="14.4410833"><ele>62.800000000000004</ele><time>2026-04-04T07:56:41.006Z</time></trkpt><trkpt lat="41.0263783" lon="14.44121"><ele>63.2</ele><time>2026-04-04T07:56:43.007Z</time></trkpt><trkpt lat="41.02639" lon="14.44135"><ele>63.6</ele><time>2026-04-04T07:56:45.007Z</time></trkpt><trkpt lat="41.0264017" lon="14.4414933"><ele>64.0</ele><time>2026-04-04T07:56:47.006Z</time></trkpt><trkpt lat="41.026415" lon="14.4416417"><ele>64.0</ele><time>2026-04-04T07:56:49.007Z</time></trkpt><trkpt lat="41.0264183" lon="14.4417983"><ele>64.0</ele><time>2026-04-04T07:56:51.007Z</time></trkpt><trkpt lat="41.0264233" lon="14.4419467"><ele>64.0</ele><time>2026-04-04T07:56:53.007Z</time></trkpt><trkpt lat="41.0264317" lon="14.4420967"><ele>64.0</ele><time>2026-04-04T07:56:55.008Z</time></trkpt><trkpt lat="41.0264383" lon="14.4422417"><ele>63.800000000000004</ele><time>2026-04-04T07:56:57.006Z</time></trkpt><trkpt lat="41.026445" lon="14.4423733"><ele>63.60000000000001</ele><time>2026-04-04T07:56:59.006Z</time></trkpt><trkpt lat="41.0264583" lon="14.442505"><ele>63.4</ele><time>2026-04-04T07:57:01.008Z</time></trkpt><trkpt lat="41.0264633" lon="14.4426367"><ele>63.2</ele><time>2026-04-04T07:57:03.008Z</time></trkpt><trkpt lat="41.0264667" lon="14.4427617"><ele>63.0</ele><time>2026-04-04T07:57:05.007Z</time></trkpt><trkpt lat="41.0264717" lon="14.4428767"><ele>63.285714285714285</ele><time>2026-04-04T07:57:07.007Z</time></trkpt><trkpt lat="41.0264783" lon="14.4429933"><ele>63.57142857142857</ele><time>2026-04-04T07:57:09.006Z</time></trkpt><trkpt lat="41.026485" lon="14.443105"><ele>63.85714285714286</ele><time>2026-04-04T07:57:11.006Z</time></trkpt><trkpt lat="41.0264817" lon="14.4432017"><ele>64.14285714285714</ele><time>2026-04-04T07:57:13.007Z</time></trkpt><trkpt lat="41.0264683" lon="14.44329"><ele>64.42857142857143</ele><time>2026-04-04T07:57:15.007Z</time></trkpt><trkpt lat="41.0265067" lon="14.4433683"><ele>64.71428571428572</ele><time>2026-04-04T07:57:18.007Z</time></trkpt><trkpt lat="41.02657" lon="14.44337"><ele>65.0</ele><time>2026-04-04T07:57:20.007Z</time></trkpt><trkpt lat="41.026645" lon="14.443335"><ele>65.5</ele><time>2026-04-04T07:57:22.006Z</time></trkpt><trkpt lat="41.0267167" lon="14.44331"><ele>66.0</ele><time>2026-04-04T07:57:24.007Z</time></trkpt><trkpt lat="41.026785" lon="14.4432883"><ele>66.5</ele><time>2026-04-04T07:57:26.006Z</time></trkpt><trkpt lat="41.0268517" lon="14.4432733"><ele>67.0</ele><time>2026-04-04T07:57:28.007Z</time></trkpt><trkpt lat="41.0269333" lon="14.443235"><ele>67.5</ele><time>2026-04-04T07:57:30.007Z</time></trkpt><trkpt lat="41.027015" lon="14.4432017"><ele>68.0</ele><time>2026-04-04T07:57:32.007Z</time></trkpt><trkpt lat="41.027085" lon="14.4431783"><ele>68.0</ele><time>2026-04-04T07:57:34.007Z</time></trkpt><trkpt lat="41.0271683" lon="14.4431617"><ele>68.0</ele><time>2026-04-04T07:57:36.009Z</time></trkpt><trkpt lat="41.0272533" lon="14.44314"><ele>68.0</ele><time>2026-04-04T07:57:38.006Z</time></trkpt><trkpt lat="41.0273383" lon="14.4431117"><ele>68.0</ele><time>2026-04-04T07:57:40.006Z</time></trkpt><trkpt lat="41.0274267" lon="14.4430933"><ele>68.0</ele><time>2026-04-04T07:57:42.006Z</time></trkpt><trkpt lat="41.0275117" lon="14.44305"><ele>68.0</ele><time>2026-04-04T07:57:44.007Z</time></trkpt><trkpt lat="41.027585" lon="14.4430017"><ele>68.6</ele><time>2026-04-04T07:57:46.006Z</time></trkpt><trkpt lat="41.0276583" lon="14.4429483"><ele>69.19999999999999</ele><time>2026-04-04T07:57:48.008Z</time></trkpt><trkpt lat="41.0277167" lon="14.4429083"><ele>69.8</ele><time>2026-04-04T07:57:50.007Z</time></trkpt><trkpt lat="41.02778" lon="14.442795"><ele>70.39999999999999</ele><time>2026-04-04T07:57:52.006Z</time></trkpt><trkpt lat="41.027865" lon="14.4426967"><ele>71.0</ele><time>2026-04-04T07:57:54.007Z</time></trkpt><trkpt lat="41.0279517" lon="14.4426383"><ele>71.0</ele><time>2026-04-04T07:57:56.007Z</time></trkpt><trkpt lat="41.02803" lon="14.4426"><ele>71.0</ele><time>2026-04-04T07:57:58.006Z</time></trkpt><trkpt lat="41.0281017" lon="14.4425417"><ele>71.0</ele><time>2026-04-04T07:58:00.007Z</time></trkpt><trkpt lat="41.0281683" lon="14.4424867"><ele>71.0</ele><time>2026-04-04T07:58:02.006Z</time></trkpt><trkpt lat="41.0282517" lon="14.44245"><ele>71.0</ele><time>2026-04-04T07:58:04.006Z</time></trkpt><trkpt lat="41.0283283" lon="14.4424367"><ele>71.0</ele><time>2026-04-04T07:58:06.007Z</time></trkpt><trkpt lat="41.0283983" lon="14.4424533"><ele>72.0</ele><time>2026-04-04T07:58:08.007Z</time></trkpt><trkpt lat="41.02847" lon="14.4424733"><ele>73.0</ele><time>2026-04-04T07:58:11.007Z</time></trkpt><trkpt lat="41.028555" lon="14.4424467"><ele>74.0</ele><time>2026-04-04T07:58:14.007Z</time></trkpt><trkpt lat="41.028625" lon="14.4424083"><ele>75.0</ele><time>2026-04-04T07:58:16.007Z</time></trkpt><trkpt lat="41.0287067" lon="14.4423833"><ele>76.0</ele><time>2026-04-04T07:58:18.007Z</time></trkpt><trkpt lat="41.0287683" lon="14.442355"><ele>77.0</ele><time>2026-04-04T07:58:20.007Z</time></trkpt><trkpt lat="41.02885" lon="14.4423067"><ele>77.0</ele><time>2026-04-04T07:58:23.007Z</time></trkpt><trkpt lat="41.0289217" lon="14.4422333"><ele>77.0</ele><time>2026-04-04T07:58:26.007Z</time></trkpt><trkpt lat="41.0289767" lon="14.4421833"><ele>77.0</ele><time>2026-04-04T07:58:28.007Z</time></trkpt><trkpt lat="41.0290583" lon="14.4421283"><ele>77.0</ele><time>2026-04-04T07:58:31.006Z</time></trkpt><trkpt lat="41.0291183" lon="14.4420767"><ele>77.0</ele><time>2026-04-04T07:58:33.007Z</time></trkpt><trkpt lat="41.0291783" lon="14.442035"><ele>77.0</ele><time>2026-04-04T07:58:35.007Z</time></trkpt><trkpt lat="41.029245" lon="14.4419967"><ele>78.42857142857143</ele><time>2026-04-04T07:58:37.006Z</time></trkpt><trkpt lat="41.0293117" lon="14.441935"><ele>79.85714285714286</ele><time>2026-04-04T07:58:39.008Z</time></trkpt><trkpt lat="41.0293833" lon="14.4418667"><ele>81.28571428571428</ele><time>2026-04-04T07:58:42.008Z</time></trkpt><trkpt lat="41.0294467" lon="14.4418317"><ele>82.71428571428572</ele><time>2026-04-04T07:58:44.006Z</time></trkpt><trkpt lat="41.0295083" lon="14.4417983"><ele>84.14285714285714</ele><time>2026-04-04T07:58:46.006Z</time></trkpt><trkpt lat="41.029565" lon="14.4417417"><ele>85.57142857142857</ele><time>2026-04-04T07:58:48.023Z</time></trkpt><trkpt lat="41.0296167" lon="14.4416733"><ele>87.0</ele><time>2026-04-04T07:58:50.007Z</time></trkpt><trkpt lat="41.0296683" lon="14.4416017"><ele>87.0</ele><time>2026-04-04T07:58:52.006Z</time></trkpt><trkpt lat="41.0297267" lon="14.4415433"><ele>87.0</ele><time>2026-04-04T07:58:54.008Z</time></trkpt><trkpt lat="41.02979" lon="14.4414983"><ele>87.0</ele><time>2026-04-04T07:58:56.006Z</time></trkpt><trkpt lat="41.0298517" lon="14.441465"><ele>87.0</ele><time>2026-04-04T07:58:58.006Z</time></trkpt><trkpt lat="41.0299017" lon="14.4414133"><ele>87.0</ele><time>2026-04-04T07:59:00.007Z</time></trkpt><trkpt lat="41.0299667" lon="14.4413683"><ele>87.0</ele><time>2026-04-04T07:59:02.007Z</time></trkpt><trkpt lat="41.0300667" lon="14.4413433"><ele>87.0</ele><time>2026-04-04T07:59:05.007Z</time></trkpt><trkpt lat="41.03014" lon="14.4413567"><ele>87.0</ele><time>2026-04-04T07:59:07.007Z</time></trkpt><trkpt lat="41.0302133" lon="14.4413833"><ele>87.0</ele><time>2026-04-04T07:59:09.006Z</time></trkpt><trkpt lat="41.030275" lon="14.44143"><ele>87.0</ele><time>2026-04-04T07:59:11.006Z</time></trkpt><trkpt lat="41.0303383" lon="14.44148"><ele>87.0</ele><time>2026-04-04T07:59:13.007Z</time></trkpt><trkpt lat="41.030405" lon="14.44152"><ele>87.0</ele><time>2026-04-04T07:59:15.006Z</time></trkpt><trkpt lat="41.030465" lon="14.4415517"><ele>87.0</ele><time>2026-04-04T07:59:17.006Z</time></trkpt><trkpt lat="41.030545" lon="14.4415933"><ele>87.0</ele><time>2026-04-04T07:59:20.007Z</time></trkpt><trkpt lat="41.0306067" lon="14.4416117"><ele>87.0</ele><time>2026-04-04T07:59:22.006Z</time></trkpt><trkpt lat="41.030685" lon="14.4416567"><ele>87.0</ele><time>2026-04-04T07:59:25.007Z</time></trkpt><trkpt lat="41.0307617" lon="14.441715"><ele>87.0</ele><time>2026-04-04T07:59:27.007Z</time></trkpt><trkpt lat="41.0308567" lon="14.4417583"><ele>87.0</ele><time>2026-04-04T07:59:29.006Z</time></trkpt><trkpt lat="41.0309283" lon="14.4417817"><ele>87.0</ele><time>2026-04-04T07:59:31.006Z</time></trkpt><trkpt lat="41.0309933" lon="14.4417983"><ele>87.83333333333333</ele><time>2026-04-04T07:59:33.007Z</time></trkpt><trkpt lat="41.0310717" lon="14.44181"><ele>88.66666666666667</ele><time>2026-04-04T07:59:35.008Z</time></trkpt><trkpt lat="41.0311533" lon="14.441795"><ele>89.5</ele><time>2026-04-04T07:59:37.006Z</time></trkpt><trkpt lat="41.0312317" lon="14.4418033"><ele>90.33333333333334</ele><time>2026-04-04T07:59:39.006Z</time></trkpt><trkpt lat="41.03131" lon="14.441825"><ele>91.16666666666667</ele><time>2026-04-04T07:59:41.006Z</time></trkpt><trkpt lat="41.0313883" lon="14.4418367"><ele>92.0</ele><time>2026-04-04T07:59:43.006Z</time></trkpt><trkpt lat="41.0314617" lon="14.4418467"><ele>92.0</ele><time>2026-04-04T07:59:45.006Z</time></trkpt><trkpt lat="41.0315333" lon="14.44188"><ele>92.0</ele><time>2026-04-04T07:59:47.006Z</time></trkpt><trkpt lat="41.0316033" lon="14.4419249"><ele>92.0</ele><time>2026-04-04T07:59:49.072Z</time></trkpt><trkpt lat="41.0316771" lon="14.4419133"><ele>92.0</ele><time>2026-04-04T07:59:51.012Z</time></trkpt><trkpt lat="41.0317448" lon="14.4419384"><ele>92.0</ele><time>2026-04-04T07:59:53.127Z</time></trkpt><trkpt lat="41.0318221" lon="14.4419191"><ele>92.0</ele><time>2026-04-04T07:59:55.043Z</time></trkpt><trkpt lat="41.0319098" lon="14.4418919"><ele>92.83333333333334</ele><time>2026-04-04T07:59:57.094Z</time></trkpt><trkpt lat="41.0319811" lon="14.4418543"><ele>93.66666666666667</ele><time>2026-04-04T07:59:59.077Z</time></trkpt><trkpt lat="41.0320641" lon="14.4418216"><ele>94.5</ele><time>2026-04-04T08:00:01.095Z</time></trkpt><trkpt lat="41.0321616" lon="14.4418249"><ele>95.33333333333334</ele><time>2026-04-04T08:00:03.084Z</time></trkpt><trkpt lat="41.0322421" lon="14.4418401"><ele>96.16666666666667</ele><time>2026-04-04T08:00:05.028Z</time></trkpt><trkpt lat="41.0323261" lon="14.4418578"><ele>97.0</ele><time>2026-04-04T08:00:07.046Z</time></trkpt><trkpt lat="41.0324167" lon="14.4419"><ele>97.0</ele><time>2026-04-04T08:00:09.007Z</time></trkpt><trkpt lat="41.0324933" lon="14.4419533"><ele>97.0</ele><time>2026-04-04T08:00:11.009Z</time></trkpt><trkpt lat="41.0325717" lon="14.4420067"><ele>97.0</ele><time>2026-04-04T08:00:13.008Z</time></trkpt><trkpt lat="41.0326567" lon="14.44207"><ele>97.0</ele><time>2026-04-04T08:00:15.006Z</time></trkpt><trkpt lat="41.032745" lon="14.44214"><ele>97.0</ele><time>2026-04-04T08:00:17.006Z</time></trkpt><trkpt lat="41.0328133" lon="14.442205"><ele>97.00000000000001</ele><time>2026-04-04T08:00:19.006Z</time></trkpt><trkpt lat="41.0328933" lon="14.4422483"><ele>97.0</ele><time>2026-04-04T08:00:21.006Z</time></trkpt><trkpt lat="41.0329733" lon="14.4422733"><ele>97.0</ele><time>2026-04-04T08:00:23.006Z</time></trkpt><trkpt lat="41.0330433" lon="14.4422917"><ele>97.0</ele><time>2026-04-04T08:00:25.007Z</time></trkpt><trkpt lat="41.0331167" lon="14.4423017"><ele>97.00000000000001</ele><time>2026-04-04T08:00:27.007Z</time></trkpt><trkpt lat="41.0331983" lon="14.4423017"><ele>97.0</ele><time>2026-04-04T08:00:29.007Z</time></trkpt><trkpt lat="41.033275" lon="14.442305"><ele>97.50000000000001</ele><time>2026-04-04T08:00:31.006Z</time></trkpt><trkpt lat="41.033355" lon="14.4422983"><ele>98.0</ele><time>2026-04-04T08:00:33.007Z</time></trkpt><trkpt lat="41.0334433" lon="14.442285"><ele>98.5</ele><time>2026-04-04T08:00:35.018Z</time></trkpt><trkpt lat="41.0335133" lon="14.4422717"><ele>99.0</ele><time>2026-04-04T08:00:37.009Z</time></trkpt><trkpt lat="41.033585" lon="14.44227"><ele>99.50000000000001</ele><time>2026-04-04T08:00:39.016Z</time></trkpt><trkpt lat="41.03366" lon="14.4422767"><ele>100.0</ele><time>2026-04-04T08:00:41.006Z</time></trkpt><trkpt lat="41.03374" lon="14.4422567"><ele>100.00000000000001</ele><time>2026-04-04T08:00:43.006Z</time></trkpt><trkpt lat="41.0338133" lon="14.4422533"><ele>100.0</ele><time>2026-04-04T08:00:45.006Z</time></trkpt><trkpt lat="41.033885" lon="14.4422467"><ele>100.0</ele><time>2026-04-04T08:00:47.007Z</time></trkpt><trkpt lat="41.0339717" lon="14.44225"><ele>100.0</ele><time>2026-04-04T08:00:49.007Z</time></trkpt><trkpt lat="41.0340517" lon="14.4422517"><ele>100.00000000000001</ele><time>2026-04-04T08:00:51.007Z</time></trkpt><trkpt lat="41.03413" lon="14.442265"><ele>100.0</ele><time>2026-04-04T08:00:53.006Z</time></trkpt><trkpt lat="41.034205" lon="14.44229"><ele>100.50000000000001</ele><time>2026-04-04T08:00:55.007Z</time></trkpt><trkpt lat="41.0342833" lon="14.4423117"><ele>101.0</ele><time>2026-04-04T08:00:57.006Z</time></trkpt><trkpt lat="41.03436" lon="14.4423217"><ele>101.5</ele><time>2026-04-04T08:00:59.007Z</time></trkpt><trkpt lat="41.0344383" lon="14.4423267"><ele>102.0</ele><time>2026-04-04T08:01:01.01Z</time></trkpt><trkpt lat="41.0345133" lon="14.4423233"><ele>102.50000000000001</ele><time>2026-04-04T08:01:03.007Z</time></trkpt><trkpt lat="41.0345917" lon="14.4423117"><ele>103.0</ele><time>2026-04-04T08:01:05.008Z</time></trkpt><trkpt lat="41.0346717" lon="14.4423017"><ele>102.99999999999999</ele><time>2026-04-04T08:01:07.01Z</time></trkpt><trkpt lat="41.0347567" lon="14.4423"><ele>103.0</ele><time>2026-04-04T08:01:09.007Z</time></trkpt><trkpt lat="41.0348333" lon="14.4423267"><ele>103.0</ele><time>2026-04-04T08:01:11.006Z</time></trkpt><trkpt lat="41.0348883" lon="14.442385"><ele>103.0</ele><time>2026-04-04T08:01:13.009Z</time></trkpt><trkpt lat="41.03493" lon="14.4424583"><ele>103.0</ele><time>2026-04-04T08:01:15.006Z</time></trkpt><trkpt lat="41.0349783" lon="14.4425267"><ele>102.99999999999999</ele><time>2026-04-04T08:01:17.006Z</time></trkpt><trkpt lat="41.035025" lon="14.4425983"><ele>103.0</ele><time>2026-04-04T08:01:19.006Z</time></trkpt><trkpt lat="41.0350617" lon="14.44267"><ele>104.00000000000001</ele><time>2026-04-04T08:01:21.007Z</time></trkpt><trkpt lat="41.0350983" lon="14.4427383"><ele>105.0</ele><time>2026-04-04T08:01:23.007Z</time></trkpt><trkpt lat="41.03515" lon="14.442835"><ele>106.0</ele><time>2026-04-04T08:01:26.006Z</time></trkpt><trkpt lat="41.0351983" lon="14.4429133"><ele>107.0</ele><time>2026-04-04T08:01:29.007Z</time></trkpt><trkpt lat="41.0352533" lon="14.443"><ele>108.00000000000001</ele><time>2026-04-04T08:01:32.007Z</time></trkpt><trkpt lat="41.035285" lon="14.4431067"><ele>109.0</ele><time>2026-04-04T08:01:35.006Z</time></trkpt><trkpt lat="41.035325" lon="14.4432183"><ele>109.00000000000001</ele><time>2026-04-04T08:01:38.005Z</time></trkpt><trkpt lat="41.0353683" lon="14.44333"><ele>109.0</ele><time>2026-04-04T08:01:41.007Z</time></trkpt><trkpt lat="41.0354017" lon="14.443405"><ele>109.0</ele><time>2026-04-04T08:01:43.006Z</time></trkpt><trkpt lat="41.0354467" lon="14.4435117"><ele>109.0</ele><time>2026-04-04T08:01:46.006Z</time></trkpt><trkpt lat="41.035485" lon="14.44362"><ele>109.00000000000001</ele><time>2026-04-04T08:01:49.006Z</time></trkpt><trkpt lat="41.0355317" lon="14.4437317"><ele>109.0</ele><time>2026-04-04T08:01:52.006Z</time></trkpt><trkpt lat="41.03557" lon="14.4438117"><ele>109.00000000000001</ele><time>2026-04-04T08:01:54.005Z</time></trkpt><trkpt lat="41.0356067" lon="14.4438833"><ele>109.0</ele><time>2026-04-04T08:01:56.005Z</time></trkpt><trkpt lat="41.0356533" lon="14.4439867"><ele>109.0</ele><time>2026-04-04T08:01:59.005Z</time></trkpt><trkpt lat="41.0357017" lon="14.444095"><ele>109.0</ele><time>2026-04-04T08:02:02.005Z</time></trkpt><trkpt lat="41.0357317" lon="14.4441733"><ele>109.00000000000001</ele><time>2026-04-04T08:02:04.006Z</time></trkpt><trkpt lat="41.0357683" lon="14.4442667"><ele>109.0</ele><time>2026-04-04T08:02:07.006Z</time></trkpt><trkpt lat="41.0358117" lon="14.444375"><ele>110.28571428571429</ele><time>2026-04-04T08:02:10.007Z</time></trkpt><trkpt lat="41.0358433" lon="14.4444533"><ele>111.57142857142858</ele><time>2026-04-04T08:02:12.005Z</time></trkpt><trkpt lat="41.035875" lon="14.4445267"><ele>112.85714285714286</ele><time>2026-04-04T08:02:14.007Z</time></trkpt><trkpt lat="41.0358983" lon="14.444605"><ele>114.14285714285714</ele><time>2026-04-04T08:02:16.005Z</time></trkpt><trkpt lat="41.035935" lon="14.44468"><ele>115.42857142857143</ele><time>2026-04-04T08:02:18.006Z</time></trkpt><trkpt lat="41.0359733" lon="14.4447483"><ele>116.71428571428571</ele><time>2026-04-04T08:02:20.005Z</time></trkpt><trkpt lat="41.036015" lon="14.4448133"><ele>118.0</ele><time>2026-04-04T08:02:22.005Z</time></trkpt><trkpt lat="41.0360883" lon="14.4448733"><ele>118.00000000000001</ele><time>2026-04-04T08:02:25.005Z</time></trkpt><trkpt lat="41.0361667" lon="14.44488"><ele>118.0</ele><time>2026-04-04T08:02:28.006Z</time></trkpt><trkpt lat="41.036245" lon="14.4448367"><ele>118.0</ele><time>2026-04-04T08:02:31.006Z</time></trkpt><trkpt lat="41.0363117" lon="14.4447733"><ele>118.0</ele><time>2026-04-04T08:02:34.006Z</time></trkpt><trkpt lat="41.03637" lon="14.4447017"><ele>118.00000000000001</ele><time>2026-04-04T08:02:37.005Z</time></trkpt><trkpt lat="41.0364267" lon="14.4446217"><ele>118.0</ele><time>2026-04-04T08:02:40.007Z</time></trkpt><trkpt lat="41.0364817" lon="14.4445517"><ele>118.16666666666667</ele><time>2026-04-04T08:02:43.006Z</time></trkpt><trkpt lat="41.03653" lon="14.444465"><ele>118.33333333333334</ele><time>2026-04-04T08:02:46.005Z</time></trkpt><trkpt lat="41.0365783" lon="14.44438"><ele>118.5</ele><time>2026-04-04T08:02:49.006Z</time></trkpt><trkpt lat="41.036625" lon="14.4442983"><ele>118.66666666666666</ele><time>2026-04-04T08:02:52.006Z</time></trkpt><trkpt lat="41.036675" lon="14.4442083"><ele>118.83333333333333</ele><time>2026-04-04T08:02:55.006Z</time></trkpt><trkpt lat="41.0367217" lon="14.4441267"><ele>119.0</ele><time>2026-04-04T08:02:58.005Z</time></trkpt><trkpt lat="41.03678" lon="14.444035"><ele>120.49999999999999</ele><time>2026-04-04T08:03:01.007Z</time></trkpt><trkpt lat="41.0368367" lon="14.44397"><ele>122.0</ele><time>2026-04-04T08:03:04.005Z</time></trkpt><trkpt lat="41.0369017" lon="14.4438983"><ele>123.5</ele><time>2026-04-04T08:03:07.007Z</time></trkpt><trkpt lat="41.036975" lon="14.4438617"><ele>125.0</ele><time>2026-04-04T08:03:10.005Z</time></trkpt><trkpt lat="41.0370383" lon="14.44388"><ele>126.49999999999999</ele><time>2026-04-04T08:03:13.006Z</time></trkpt><trkpt lat="41.0370617" lon="14.443965"><ele>128.0</ele><time>2026-04-04T08:03:16.007Z</time></trkpt><trkpt lat="41.0370733" lon="14.444075"><ele>127.99999999999999</ele><time>2026-04-04T08:03:19.007Z</time></trkpt><trkpt lat="41.0370783" lon="14.44417"><ele>128.0</ele><time>2026-04-04T08:03:22.007Z</time></trkpt><trkpt lat="41.0370817" lon="14.4442633"><ele>128.0</ele><time>2026-04-04T08:03:25.006Z</time></trkpt><trkpt lat="41.03709" lon="14.4443833"><ele>128.0</ele><time>2026-04-04T08:03:28.011Z</time></trkpt><trkpt lat="41.0371017" lon="14.4444667"><ele>127.99999999999999</ele><time>2026-04-04T08:03:30.01Z</time></trkpt><trkpt lat="41.0371083" lon="14.4445567"><ele>128.0</ele><time>2026-04-04T08:03:32.009Z</time></trkpt><trkpt lat="41.0371217" lon="14.444675"><ele>128.28571428571428</ele><time>2026-04-04T08:03:35.007Z</time></trkpt><trkpt lat="41.037125" lon="14.4447933"><ele>128.57142857142856</ele><time>2026-04-04T08:03:38.006Z</time></trkpt><trkpt lat="41.0371267" lon="14.44488"><ele>128.85714285714286</ele><time>2026-04-04T08:03:40.006Z</time></trkpt><trkpt lat="41.0371367" lon="14.4449633"><ele>129.14285714285714</ele><time>2026-04-04T08:03:42.006Z</time></trkpt><trkpt lat="41.0371417" lon="14.4450467"><ele>129.42857142857144</ele><time>2026-04-04T08:03:44.005Z</time></trkpt><trkpt lat="41.037145" lon="14.4451367"><ele>129.71428571428572</ele><time>2026-04-04T08:03:46.007Z</time></trkpt><trkpt lat="41.0371367" lon="14.4452583"><ele>130.0</ele><time>2026-04-04T08:03:49.005Z</time></trkpt><trkpt lat="41.03712" lon="14.4453433"><ele>130.00000000000003</ele><time>2026-04-04T08:03:51.008Z</time></trkpt><trkpt lat="41.0370967" lon="14.44543"><ele>130.0</ele><time>2026-04-04T08:03:53.006Z</time></trkpt><trkpt lat="41.0370733" lon="14.4455233"><ele>130.0</ele><time>2026-04-04T08:03:55.007Z</time></trkpt><trkpt lat="41.0370483" lon="14.4456083"><ele>130.0</ele><time>2026-04-04T08:03:57.005Z</time></trkpt><trkpt lat="41.0370233" lon="14.445685"><ele>130.0</ele><time>2026-04-04T08:03:59.006Z</time></trkpt><trkpt lat="41.0369933" lon="14.445775"><ele>130.00000000000003</ele><time>2026-04-04T08:04:01.005Z</time></trkpt><trkpt lat="41.0369683" lon="14.4458633"><ele>130.0</ele><time>2026-04-04T08:04:03.007Z</time></trkpt><trkpt lat="41.0369433" lon="14.4459517"><ele>130.66666666666669</ele><time>2026-04-04T08:04:05.006Z</time></trkpt><trkpt lat="41.03692" lon="14.4460433"><ele>131.33333333333334</ele><time>2026-04-04T08:04:07.008Z</time></trkpt><trkpt lat="41.0369033" lon="14.4461267"><ele>132.0</ele><time>2026-04-04T08:04:09.005Z</time></trkpt><trkpt lat="41.0368883" lon="14.4462283"><ele>132.66666666666666</ele><time>2026-04-04T08:04:12.005Z</time></trkpt><trkpt lat="41.0369183" lon="14.44632"><ele>133.33333333333331</ele><time>2026-04-04T08:04:15.006Z</time></trkpt><trkpt lat="41.036995" lon="14.4463283"><ele>134.0</ele><time>2026-04-04T08:04:18.005Z</time></trkpt><trkpt lat="41.0370733" lon="14.4462917"><ele>134.0</ele><time>2026-04-04T08:04:21.006Z</time></trkpt><trkpt lat="41.037145" lon="14.44624"><ele>134.0</ele><time>2026-04-04T08:04:24.007Z</time></trkpt><trkpt lat="41.0372117" lon="14.446175"><ele>134.0</ele><time>2026-04-04T08:04:27.008Z</time></trkpt><trkpt lat="41.03729" lon="14.44612"><ele>134.0</ele><time>2026-04-04T08:04:30.006Z</time></trkpt><trkpt lat="41.0373617" lon="14.4460633"><ele>134.0</ele><time>2026-04-04T08:04:33.007Z</time></trkpt><trkpt lat="41.0374317" lon="14.4460067"><ele>134.0</ele><time>2026-04-04T08:04:36.007Z</time></trkpt><trkpt lat="41.0374967" lon="14.4459433"><ele>136.66666666666666</ele><time>2026-04-04T08:04:39.006Z</time></trkpt><trkpt lat="41.03757" lon="14.4458817"><ele>139.33333333333331</ele><time>2026-04-04T08:04:42.006Z</time></trkpt><trkpt lat="41.03764" lon="14.4458183"><ele>142.0</ele><time>2026-04-04T08:04:45.006Z</time></trkpt><trkpt lat="41.0377133" lon="14.4457533"><ele>144.66666666666666</ele><time>2026-04-04T08:04:48.007Z</time></trkpt><trkpt lat="41.0377783" lon="14.4456967"><ele>147.33333333333334</ele><time>2026-04-04T08:04:51.005Z</time></trkpt><trkpt lat="41.037855" lon="14.4456383"><ele>150.0</ele><time>2026-04-04T08:04:54.007Z</time></trkpt><trkpt lat="41.03793" lon="14.4455717"><ele>150.0</ele><time>2026-04-04T08:04:57.007Z</time></trkpt><trkpt lat="41.0379983" lon="14.4454983"><ele>150.0</ele><time>2026-04-04T08:05:00.007Z</time></trkpt><trkpt lat="41.0380533" lon="14.4454383"><ele>150.0</ele><time>2026-04-04T08:05:03.006Z</time></trkpt><trkpt lat="41.0381267" lon="14.4453767"><ele>150.0</ele><time>2026-04-04T08:05:06.006Z</time></trkpt><trkpt lat="41.0382017" lon="14.4453033"><ele>150.0</ele><time>2026-04-04T08:05:09.006Z</time></trkpt><trkpt lat="41.0382683" lon="14.445235"><ele>150.0</ele><time>2026-04-04T08:05:12.006Z</time></trkpt><trkpt lat="41.0383417" lon="14.44517"><ele>151.14285714285714</ele><time>2026-04-04T08:05:15.006Z</time></trkpt><trkpt lat="41.038405" lon="14.4451283"><ele>152.28571428571428</ele><time>2026-04-04T08:05:17.005Z</time></trkpt><trkpt lat="41.038465" lon="14.4450817"><ele>153.42857142857144</ele><time>2026-04-04T08:05:19.005Z</time></trkpt><trkpt lat="41.0385217" lon="14.4450433"><ele>154.57142857142856</ele><time>2026-04-04T08:05:21.006Z</time></trkpt><trkpt lat="41.0386033" lon="14.445"><ele>155.71428571428572</ele><time>2026-04-04T08:05:24.007Z</time></trkpt><trkpt lat="41.03866" lon="14.4449583"><ele>156.85714285714286</ele><time>2026-04-04T08:05:26.006Z</time></trkpt><trkpt lat="41.0387217" lon="14.4449283"><ele>158.0</ele><time>2026-04-04T08:05:28.006Z</time></trkpt><trkpt lat="41.038805" lon="14.4448783"><ele>158.0</ele><time>2026-04-04T08:05:31.006Z</time></trkpt><trkpt lat="41.0388817" lon="14.4448267"><ele>158.0</ele><time>2026-04-04T08:05:34.006Z</time></trkpt><trkpt lat="41.038955" lon="14.4447817"><ele>158.0</ele><time>2026-04-04T08:05:37.006Z</time></trkpt><trkpt lat="41.03902" lon="14.4447317"><ele>158.0</ele><time>2026-04-04T08:05:40.006Z</time></trkpt><trkpt lat="41.03909" lon="14.44468"><ele>158.0</ele><time>2026-04-04T08:05:43.006Z</time></trkpt><trkpt lat="41.0391667" lon="14.4446283"><ele>158.0</ele><time>2026-04-04T08:05:46.006Z</time></trkpt><trkpt lat="41.0392233" lon="14.44459"><ele>158.66666666666666</ele><time>2026-04-04T08:05:48.007Z</time></trkpt><trkpt lat="41.0392783" lon="14.4445417"><ele>159.33333333333331</ele><time>2026-04-04T08:05:50.006Z</time></trkpt><trkpt lat="41.0393617" lon="14.44448"><ele>160.0</ele><time>2026-04-04T08:05:53.007Z</time></trkpt><trkpt lat="41.039435" lon="14.4444117"><ele>160.66666666666666</ele><time>2026-04-04T08:05:56.008Z</time></trkpt><trkpt lat="41.0395083" lon="14.4443383"><ele>161.33333333333334</ele><time>2026-04-04T08:05:59.007Z</time></trkpt><trkpt lat="41.0395583" lon="14.4442767"><ele>162.0</ele><time>2026-04-04T08:06:01.006Z</time></trkpt><trkpt lat="41.0396167" lon="14.4442167"><ele>162.0</ele><time>2026-04-04T08:06:03.005Z</time></trkpt><trkpt lat="41.039675" lon="14.44415"><ele>162.0</ele><time>2026-04-04T08:06:05.006Z</time></trkpt><trkpt lat="41.0397333" lon="14.4440917"><ele>162.0</ele><time>2026-04-04T08:06:07.006Z</time></trkpt><trkpt lat="41.0397817" lon="14.444035"><ele>162.0</ele><time>2026-04-04T08:06:09.006Z</time></trkpt><trkpt lat="41.0398367" lon="14.443965"><ele>162.0</ele><time>2026-04-04T08:06:11.006Z</time></trkpt><trkpt lat="41.0399033" lon="14.4439017"><ele>162.0</ele><time>2026-04-04T08:06:13.007Z</time></trkpt><trkpt lat="41.0399633" lon="14.4438367"><ele>162.83333333333334</ele><time>2026-04-04T08:06:15.006Z</time></trkpt><trkpt lat="41.04002" lon="14.4437567"><ele>163.66666666666666</ele><time>2026-04-04T08:06:17.006Z</time></trkpt><trkpt lat="41.0400683" lon="14.4436633"><ele>164.5</ele><time>2026-04-04T08:06:19.006Z</time></trkpt><trkpt lat="41.0401083" lon="14.4435783"><ele>165.33333333333331</ele><time>2026-04-04T08:06:21.006Z</time></trkpt><trkpt lat="41.040145" lon="14.4434917"><ele>166.16666666666666</ele><time>2026-04-04T08:06:23.006Z</time></trkpt><trkpt lat="41.0401767" lon="14.4433933"><ele>167.0</ele><time>2026-04-04T08:06:25.007Z</time></trkpt><trkpt lat="41.0402067" lon="14.4432683"><ele>167.0</ele><time>2026-04-04T08:06:27.006Z</time></trkpt><trkpt lat="41.0402367" lon="14.44314"><ele>167.0</ele><time>2026-04-04T08:06:29.008Z</time></trkpt><trkpt lat="41.040285" lon="14.4430133"><ele>167.0</ele><time>2026-04-04T08:06:31.007Z</time></trkpt><trkpt lat="41.0403483" lon="14.4428917"><ele>167.0</ele><time>2026-04-04T08:06:33.007Z</time></trkpt><trkpt lat="41.0404283" lon="14.442765"><ele>167.0</ele><time>2026-04-04T08:06:35.006Z</time></trkpt><trkpt lat="41.0404867" lon="14.4426917"><ele>168.0</ele><time>2026-04-04T08:06:36.007Z</time></trkpt><trkpt lat="41.04054" lon="14.4426267"><ele>169.0</ele><time>2026-04-04T08:06:37.009Z</time></trkpt><trkpt lat="41.0406283" lon="14.44252"><ele>170.0</ele><time>2026-04-04T08:06:39.007Z</time></trkpt><trkpt lat="41.0407083" lon="14.4424133"><ele>171.0</ele><time>2026-04-04T08:06:41.007Z</time></trkpt><trkpt lat="41.0407833" lon="14.44231"><ele>172.0</ele><time>2026-04-04T08:06:43.006Z</time></trkpt><trkpt lat="41.0408517" lon="14.44221"><ele>170.66666666666669</ele><time>2026-04-04T08:06:45.011Z</time></trkpt><trkpt lat="41.0409267" lon="14.4421167"><ele>169.33333333333334</ele><time>2026-04-04T08:06:47.006Z</time></trkpt><trkpt lat="41.0409917" lon="14.44204"><ele>168.0</ele><time>2026-04-04T08:06:49.006Z</time></trkpt><trkpt lat="41.0410583" lon="14.4419683"><ele>166.66666666666666</ele><time>2026-04-04T08:06:51.006Z</time></trkpt><trkpt lat="41.0411283" lon="14.4419117"><ele>165.33333333333331</ele><time>2026-04-04T08:06:53.007Z</time></trkpt><trkpt lat="41.0411917" lon="14.441865"><ele>164.0</ele><time>2026-04-04T08:06:55.006Z</time></trkpt><trkpt lat="41.0412567" lon="14.4418233"><ele>163.99999999999997</ele><time>2026-04-04T08:06:57.008Z</time></trkpt><trkpt lat="41.0413233" lon="14.441785"><ele>164.0</ele><time>2026-04-04T08:06:59.006Z</time></trkpt><trkpt lat="41.041385" lon="14.4417467"><ele>164.0</ele><time>2026-04-04T08:07:01.006Z</time></trkpt><trkpt lat="41.041445" lon="14.44171"><ele>164.0</ele><time>2026-04-04T08:07:03.006Z</time></trkpt><trkpt lat="41.0415217" lon="14.4416617"><ele>164.0</ele><time>2026-04-04T08:07:06.007Z</time></trkpt><trkpt lat="41.0416033" lon="14.4416217"><ele>163.99999999999997</ele><time>2026-04-04T08:07:09.006Z</time></trkpt><trkpt lat="41.0416633" lon="14.4415817"><ele>164.0</ele><time>2026-04-04T08:07:11.007Z</time></trkpt><trkpt lat="41.04173" lon="14.44154"><ele>164.42857142857142</ele><time>2026-04-04T08:07:13.006Z</time></trkpt><trkpt lat="41.04179" lon="14.4414917"><ele>164.85714285714286</ele><time>2026-04-04T08:07:15.006Z</time></trkpt><trkpt lat="41.0418583" lon="14.44145"><ele>165.28571428571428</ele><time>2026-04-04T08:07:17.006Z</time></trkpt><trkpt lat="41.041925" lon="14.441405"><ele>165.71428571428572</ele><time>2026-04-04T08:07:19.008Z</time></trkpt><trkpt lat="41.0419833" lon="14.4413667"><ele>166.14285714285714</ele><time>2026-04-04T08:07:21.008Z</time></trkpt><trkpt lat="41.0420467" lon="14.441315"><ele>166.57142857142856</ele><time>2026-04-04T08:07:23.006Z</time></trkpt><trkpt lat="41.0421167" lon="14.44127"><ele>167.0</ele><time>2026-04-04T08:07:25.006Z</time></trkpt><trkpt lat="41.0421883" lon="14.4412217"><ele>167.0</ele><time>2026-04-04T08:07:27.007Z</time></trkpt><trkpt lat="41.0422483" lon="14.4411783"><ele>167.0</ele><time>2026-04-04T08:07:29.007Z</time></trkpt><trkpt lat="41.0423083" lon="14.4411383"><ele>167.0</ele><time>2026-04-04T08:07:31.006Z</time></trkpt><trkpt lat="41.0423783" lon="14.441095"><ele>167.0</ele><time>2026-04-04T08:07:33.007Z</time></trkpt><trkpt lat="41.0424533" lon="14.4410467"><ele>167.0</ele><time>2026-04-04T08:07:35.006Z</time></trkpt><trkpt lat="41.0425233" lon="14.4410083"><ele>167.0</ele><time>2026-04-04T08:07:37.008Z</time></trkpt><trkpt lat="41.0425867" lon="14.4409783"><ele>167.0</ele><time>2026-04-04T08:07:39.006Z</time></trkpt><trkpt lat="41.04265" lon="14.4409467"><ele>168.85714285714286</ele><time>2026-04-04T08:07:41.006Z</time></trkpt><trkpt lat="41.0427133" lon="14.4409083"><ele>170.71428571428572</ele><time>2026-04-04T08:07:43.008Z</time></trkpt><trkpt lat="41.042775" lon="14.4408717"><ele>172.57142857142856</ele><time>2026-04-04T08:07:45.006Z</time></trkpt><trkpt lat="41.04284" lon="14.440835"><ele>174.42857142857144</ele><time>2026-04-04T08:07:47.011Z</time></trkpt><trkpt lat="41.042905" lon="14.4408017"><ele>176.2857142857143</ele><time>2026-04-04T08:07:49.007Z</time></trkpt><trkpt lat="41.0429767" lon="14.4407667"><ele>178.14285714285714</ele><time>2026-04-04T08:07:51.006Z</time></trkpt><trkpt lat="41.0430467" lon="14.4407383"><ele>180.0</ele><time>2026-04-04T08:07:53.006Z</time></trkpt><trkpt lat="41.0431133" lon="14.44071"><ele>180.0</ele><time>2026-04-04T08:07:55.006Z</time></trkpt><trkpt lat="41.0431983" lon="14.440665"><ele>180.0</ele><time>2026-04-04T08:07:58.006Z</time></trkpt><trkpt lat="41.04326" lon="14.440635"><ele>180.0</ele><time>2026-04-04T08:08:00.007Z</time></trkpt><trkpt lat="41.0433233" lon="14.4406117"><ele>180.0</ele><time>2026-04-04T08:08:02.006Z</time></trkpt><trkpt lat="41.043395" lon="14.44059"><ele>180.0</ele><time>2026-04-04T08:08:04.007Z</time></trkpt><trkpt lat="41.0434633" lon="14.4405567"><ele>180.0</ele><time>2026-04-04T08:08:06.007Z</time></trkpt><trkpt lat="41.0435267" lon="14.4405433"><ele>180.0</ele><time>2026-04-04T08:08:08.008Z</time></trkpt><trkpt lat="41.0435917" lon="14.440535"><ele>182.0</ele><time>2026-04-04T08:08:10.006Z</time></trkpt><trkpt lat="41.0436817" lon="14.4405333"><ele>184.0</ele><time>2026-04-04T08:08:13.007Z</time></trkpt><trkpt lat="41.04377" lon="14.4405383"><ele>186.0</ele><time>2026-04-04T08:08:16.006Z</time></trkpt><trkpt lat="41.0438533" lon="14.4405383"><ele>188.0</ele><time>2026-04-04T08:08:19.007Z</time></trkpt><trkpt lat="41.04392" lon="14.440535"><ele>190.0</ele><time>2026-04-04T08:08:22.007Z</time></trkpt><trkpt lat="41.0439933" lon="14.4405383"><ele>192.0</ele><time>2026-04-04T08:08:25.006Z</time></trkpt><trkpt lat="41.04408" lon="14.44055"><ele>191.99999999999997</ele><time>2026-04-04T08:08:29.007Z</time></trkpt><trkpt lat="41.0441483" lon="14.4405467"><ele>192.0</ele><time>2026-04-04T08:08:32.007Z</time></trkpt><trkpt lat="41.0442267" lon="14.4405817"><ele>192.0</ele><time>2026-04-04T08:08:35.007Z</time></trkpt><trkpt lat="41.044255" lon="14.440665"><ele>192.0</ele><time>2026-04-04T08:08:38.007Z</time></trkpt><trkpt lat="41.0442" lon="14.4407167"><ele>192.0</ele><time>2026-04-04T08:08:44.008Z</time></trkpt><trkpt lat="41.0441333" lon="14.4406883"><ele>191.99999999999997</ele><time>2026-04-04T08:08:47.007Z</time></trkpt><trkpt lat="41.04406" lon="14.4406583"><ele>192.0</ele><time>2026-04-04T08:08:50.006Z</time></trkpt><trkpt lat="41.0439967" lon="14.4406667"><ele>192.0</ele><time>2026-04-04T08:08:52.006Z</time></trkpt><trkpt lat="41.0439033" lon="14.4406933"><ele>192.0</ele><time>2026-04-04T08:08:55.007Z</time></trkpt><trkpt lat="41.0438417" lon="14.4407217"><ele>192.0</ele><time>2026-04-04T08:08:57.008Z</time></trkpt><trkpt lat="41.0437667" lon="14.440765"><ele>192.0</ele><time>2026-04-04T08:08:59.008Z</time></trkpt><trkpt lat="41.0437067" lon="14.4408183"><ele>192.0</ele><time>2026-04-04T08:09:02.008Z</time></trkpt><trkpt lat="41.043635" lon="14.4408717"><ele>192.0</ele><time>2026-04-04T08:09:05.008Z</time></trkpt><trkpt lat="41.0435633" lon="14.4409283"><ele>192.0</ele><time>2026-04-04T08:09:08.009Z</time></trkpt><trkpt lat="41.0434817" lon="14.4409833"><ele>192.0</ele><time>2026-04-04T08:09:11.006Z</time></trkpt><trkpt lat="41.0434267" lon="14.4410267"><ele>192.0</ele><time>2026-04-04T08:09:13.007Z</time></trkpt><trkpt lat="41.0433783" lon="14.4410817"><ele>192.0</ele><time>2026-04-04T08:09:15.007Z</time></trkpt><trkpt lat="41.0433233" lon="14.44114"><ele>192.0</ele><time>2026-04-04T08:09:17.007Z</time></trkpt><trkpt lat="41.043245" lon="14.4412017"><ele>192.0</ele><time>2026-04-04T08:09:20.006Z</time></trkpt><trkpt lat="41.0431633" lon="14.4412583"><ele>193.5</ele><time>2026-04-04T08:09:23.008Z</time></trkpt><trkpt lat="41.0431033" lon="14.4413017"><ele>195.0</ele><time>2026-04-04T08:09:25.007Z</time></trkpt><trkpt lat="41.043035" lon="14.4413533"><ele>196.5</ele><time>2026-04-04T08:09:27.007Z</time></trkpt><trkpt lat="41.0429833" lon="14.4414083"><ele>198.0</ele><time>2026-04-04T08:09:29.007Z</time></trkpt><trkpt lat="41.0429183" lon="14.4414633"><ele>199.5</ele><time>2026-04-04T08:09:31.008Z</time></trkpt><trkpt lat="41.0428517" lon="14.4415233"><ele>201.0</ele><time>2026-04-04T08:09:33.007Z</time></trkpt><trkpt lat="41.0427783" lon="14.4415767"><ele>201.0</ele><time>2026-04-04T08:09:35.007Z</time></trkpt><trkpt lat="41.0426983" lon="14.4416317"><ele>201.0</ele><time>2026-04-04T08:09:37.008Z</time></trkpt><trkpt lat="41.04263" lon="14.4416883"><ele>201.0</ele><time>2026-04-04T08:09:39.007Z</time></trkpt><trkpt lat="41.042555" lon="14.4417533"><ele>201.0</ele><time>2026-04-04T08:09:41.008Z</time></trkpt><trkpt lat="41.04248" lon="14.441825"><ele>201.0</ele><time>2026-04-04T08:09:43.008Z</time></trkpt><trkpt lat="41.0424117" lon="14.4418833"><ele>201.0</ele><time>2026-04-04T08:09:45.01Z</time></trkpt><trkpt lat="41.0423367" lon="14.441955"><ele>200.33333333333334</ele><time>2026-04-04T08:09:47.007Z</time></trkpt><trkpt lat="41.04227" lon="14.4420217"><ele>199.66666666666669</ele><time>2026-04-04T08:09:49.006Z</time></trkpt><trkpt lat="41.0422" lon="14.442095"><ele>199.0</ele><time>2026-04-04T08:09:51.009Z</time></trkpt><trkpt lat="41.0421333" lon="14.442165"><ele>198.33333333333334</ele><time>2026-04-04T08:09:53.007Z</time></trkpt><trkpt lat="41.0420633" lon="14.4422333"><ele>197.66666666666669</ele><time>2026-04-04T08:09:55.005Z</time></trkpt><trkpt lat="41.041995" lon="14.4422983"><ele>197.0</ele><time>2026-04-04T08:09:57.006Z</time></trkpt><trkpt lat="41.0419317" lon="14.4423633"><ele>197.00000000000003</ele><time>2026-04-04T08:09:59.005Z</time></trkpt><trkpt lat="41.0418717" lon="14.4424283"><ele>197.0</ele><time>2026-04-04T08:10:01.007Z</time></trkpt><trkpt lat="41.0418067" lon="14.4424933"><ele>197.0</ele><time>2026-04-04T08:10:03.005Z</time></trkpt><trkpt lat="41.0417517" lon="14.4425583"><ele>197.0</ele><time>2026-04-04T08:10:05.005Z</time></trkpt><trkpt lat="41.0417067" lon="14.442635"><ele>197.00000000000003</ele><time>2026-04-04T08:10:07.005Z</time></trkpt><trkpt lat="41.0416633" lon="14.4427183"><ele>197.0</ele><time>2026-04-04T08:10:09.005Z</time></trkpt><trkpt lat="41.0416183" lon="14.4428117"><ele>195.00000000000003</ele><time>2026-04-04T08:10:11.005Z</time></trkpt><trkpt lat="41.0415817" lon="14.442905"><ele>193.0</ele><time>2026-04-04T08:10:13.006Z</time></trkpt><trkpt lat="41.0415467" lon="14.442995"><ele>191.0</ele><time>2026-04-04T08:10:15.005Z</time></trkpt><trkpt lat="41.0415117" lon="14.44308"><ele>189.0</ele><time>2026-04-04T08:10:17.006Z</time></trkpt><trkpt lat="41.0414817" lon="14.443175"><ele>187.0</ele><time>2026-04-04T08:10:19.006Z</time></trkpt><trkpt lat="41.041455" lon="14.44327"><ele>185.0</ele><time>2026-04-04T08:10:21.005Z</time></trkpt><trkpt lat="41.0414367" lon="14.4433733"><ele>185.0</ele><time>2026-04-04T08:10:23.005Z</time></trkpt><trkpt lat="41.0414117" lon="14.4434733"><ele>185.0</ele><time>2026-04-04T08:10:25.005Z</time></trkpt><trkpt lat="41.0413867" lon="14.4435733"><ele>185.0</ele><time>2026-04-04T08:10:27.005Z</time></trkpt><trkpt lat="41.041375" lon="14.4436817"><ele>185.0</ele><time>2026-04-04T08:10:29.005Z</time></trkpt><trkpt lat="41.041365" lon="14.443785"><ele>185.0</ele><time>2026-04-04T08:10:31.005Z</time></trkpt><trkpt lat="41.0413667" lon="14.4438867"><ele>185.0</ele><time>2026-04-04T08:10:33.006Z</time></trkpt><trkpt lat="41.0413717" lon="14.44399"><ele>185.7142857142857</ele><time>2026-04-04T08:10:35.008Z</time></trkpt><trkpt lat="41.0413733" lon="14.444095"><ele>186.42857142857142</ele><time>2026-04-04T08:10:37.006Z</time></trkpt><trkpt lat="41.0413817" lon="14.4441983"><ele>187.14285714285714</ele><time>2026-04-04T08:10:39.005Z</time></trkpt><trkpt lat="41.0413917" lon="14.444295"><ele>187.85714285714283</ele><time>2026-04-04T08:10:41.005Z</time></trkpt><trkpt lat="41.041405" lon="14.444385"><ele>188.57142857142858</ele><time>2026-04-04T08:10:43.005Z</time></trkpt><trkpt lat="41.04142" lon="14.44447"><ele>189.28571428571428</ele><time>2026-04-04T08:10:45.006Z</time></trkpt><trkpt lat="41.0414317" lon="14.4445633"><ele>190.0</ele><time>2026-04-04T08:10:47.006Z</time></trkpt><trkpt lat="41.04145" lon="14.4446683"><ele>190.5</ele><time>2026-04-04T08:10:49.006Z</time></trkpt><trkpt lat="41.04146" lon="14.4447717"><ele>191.0</ele><time>2026-04-04T08:10:51.006Z</time></trkpt><trkpt lat="41.0414767" lon="14.444875"><ele>191.5</ele><time>2026-04-04T08:10:53.007Z</time></trkpt><trkpt lat="41.0415267" lon="14.44493"><ele>192.0</ele><time>2026-04-04T08:10:55.005Z</time></trkpt><trkpt lat="41.0415983" lon="14.4449017"><ele>192.49999999999997</ele><time>2026-04-04T08:10:58.006Z</time></trkpt><trkpt lat="41.0415917" lon="14.4447917"><ele>193.0</ele><time>2026-04-04T08:11:01.006Z</time></trkpt><trkpt lat="41.0415567" lon="14.4446733"><ele>192.57142857142858</ele><time>2026-04-04T08:11:04.005Z</time></trkpt><trkpt lat="41.04154" lon="14.4445817"><ele>192.14285714285714</ele><time>2026-04-04T08:11:06.007Z</time></trkpt><trkpt lat="41.0415233" lon="14.444495"><ele>191.71428571428572</ele><time>2026-04-04T08:11:08.006Z</time></trkpt><trkpt lat="41.0415083" lon="14.4444083"><ele>191.28571428571428</ele><time>2026-04-04T08:11:10.006Z</time></trkpt><trkpt lat="41.041505" lon="14.4443067"><ele>190.85714285714286</ele><time>2026-04-04T08:11:12.006Z</time></trkpt><trkpt lat="41.0415133" lon="14.4442133"><ele>190.42857142857144</ele><time>2026-04-04T08:11:14.006Z</time></trkpt><trkpt lat="41.0415183" lon="14.4441133"><ele>190.0</ele><time>2026-04-04T08:11:16.005Z</time></trkpt><trkpt lat="41.0415283" lon="14.4440083"><ele>190.0</ele><time>2026-04-04T08:11:18.006Z</time></trkpt><trkpt lat="41.0415417" lon="14.4439017"><ele>190.0</ele><time>2026-04-04T08:11:20.007Z</time></trkpt><trkpt lat="41.0415667" lon="14.4438133"><ele>190.0</ele><time>2026-04-04T08:11:22.005Z</time></trkpt><trkpt lat="41.0415917" lon="14.443725"><ele>190.0</ele><time>2026-04-04T08:11:24.006Z</time></trkpt><trkpt lat="41.0416183" lon="14.4436417"><ele>190.0</ele><time>2026-04-04T08:11:26.007Z</time></trkpt><trkpt lat="41.0416483" lon="14.443555"><ele>190.0</ele><time>2026-04-04T08:11:28.005Z</time></trkpt><trkpt lat="41.0416833" lon="14.4434717"><ele>190.0</ele><time>2026-04-04T08:11:30.007Z</time></trkpt><trkpt lat="41.041725" lon="14.4434017"><ele>194.83333333333334</ele><time>2026-04-04T08:11:32.007Z</time></trkpt><trkpt lat="41.0417717" lon="14.44334"><ele>199.66666666666669</ele><time>2026-04-04T08:11:34.006Z</time></trkpt><trkpt lat="41.0418433" lon="14.4432533"><ele>204.5</ele><time>2026-04-04T08:11:37.007Z</time></trkpt><trkpt lat="41.0418917" lon="14.4431917"><ele>209.33333333333334</ele><time>2026-04-04T08:11:39.006Z</time></trkpt><trkpt lat="41.0419417" lon="14.4431383"><ele>214.16666666666666</ele><time>2026-04-04T08:11:41.006Z</time></trkpt><trkpt lat="41.0420117" lon="14.4430733"><ele>219.0</ele><time>2026-04-04T08:11:44.007Z</time></trkpt><trkpt lat="41.0420767" lon="14.4430083"><ele>220.0</ele><time>2026-04-04T08:11:47.005Z</time></trkpt><trkpt lat="41.042155" lon="14.44295"><ele>221.0</ele><time>2026-04-04T08:11:50.006Z</time></trkpt><trkpt lat="41.0422067" lon="14.4429017"><ele>222.0</ele><time>2026-04-04T08:11:52.005Z</time></trkpt><trkpt lat="41.0422867" lon="14.4428417"><ele>223.0</ele><time>2026-04-04T08:11:55.008Z</time></trkpt><trkpt lat="41.0423617" lon="14.4427867"><ele>224.0</ele><time>2026-04-04T08:11:58.008Z</time></trkpt><trkpt lat="41.0424317" lon="14.4427317"><ele>225.0</ele><time>2026-04-04T08:12:01.008Z</time></trkpt><trkpt lat="41.0425083" lon="14.4426683"><ele>225.0</ele><time>2026-04-04T08:12:04.008Z</time></trkpt><trkpt lat="41.0425767" lon="14.442615"><ele>225.0</ele><time>2026-04-04T08:12:07.009Z</time></trkpt><trkpt lat="41.0426433" lon="14.4425533"><ele>225.0</ele><time>2026-04-04T08:12:10.006Z</time></trkpt><trkpt lat="41.0427183" lon="14.4424967"><ele>225.0</ele><time>2026-04-04T08:12:13.006Z</time></trkpt><trkpt lat="41.0427933" lon="14.4424433"><ele>225.0</ele><time>2026-04-04T08:12:16.009Z</time></trkpt><trkpt lat="41.04287" lon="14.4423933"><ele>225.0</ele><time>2026-04-04T08:12:19.005Z</time></trkpt><trkpt lat="41.04295" lon="14.4423467"><ele>225.0</ele><time>2026-04-04T08:12:22.006Z</time></trkpt><trkpt lat="41.043035" lon="14.4423017"><ele>225.0</ele><time>2026-04-04T08:12:25.01Z</time></trkpt><trkpt lat="41.0430967" lon="14.4422833"><ele>225.0</ele><time>2026-04-04T08:12:27.007Z</time></trkpt><trkpt lat="41.0431683" lon="14.4422633"><ele>225.0</ele><time>2026-04-04T08:12:29.007Z</time></trkpt><trkpt lat="41.0432367" lon="14.4422417"><ele>225.0</ele><time>2026-04-04T08:12:31.006Z</time></trkpt><trkpt lat="41.0433017" lon="14.4422233"><ele>225.0</ele><time>2026-04-04T08:12:33.006Z</time></trkpt><trkpt lat="41.0433933" lon="14.4422033"><ele>224.14285714285717</ele><time>2026-04-04T08:12:36.007Z</time></trkpt><trkpt lat="41.04346" lon="14.4421833"><ele>223.28571428571428</ele><time>2026-04-04T08:12:38.007Z</time></trkpt><trkpt lat="41.0435233" lon="14.442165"><ele>222.42857142857144</ele><time>2026-04-04T08:12:40.006Z</time></trkpt><trkpt lat="41.0435917" lon="14.4421433"><ele>221.57142857142858</ele><time>2026-04-04T08:12:42.006Z</time></trkpt><trkpt lat="41.0436667" lon="14.4421183"><ele>220.71428571428572</ele><time>2026-04-04T08:12:44.007Z</time></trkpt><trkpt lat="41.043735" lon="14.4420933"><ele>219.85714285714286</ele><time>2026-04-04T08:12:46.006Z</time></trkpt><trkpt lat="41.0437967" lon="14.44207"><ele>219.0</ele><time>2026-04-04T08:12:48.007Z</time></trkpt><trkpt lat="41.043865" lon="14.4420617"><ele>219.0</ele><time>2026-04-04T08:12:50.006Z</time></trkpt><trkpt lat="41.0439333" lon="14.442065"><ele>219.0</ele><time>2026-04-04T08:12:52.006Z</time></trkpt><trkpt lat="41.044" lon="14.4420783"><ele>219.0</ele><time>2026-04-04T08:12:54.007Z</time></trkpt><trkpt lat="41.04407" lon="14.442085"><ele>219.0</ele><time>2026-04-04T08:12:56.006Z</time></trkpt><trkpt lat="41.0441367" lon="14.4420967"><ele>219.0</ele><time>2026-04-04T08:12:58.006Z</time></trkpt><trkpt lat="41.0442033" lon="14.4421283"><ele>219.0</ele><time>2026-04-04T08:13:00.006Z</time></trkpt><trkpt lat="41.0442717" lon="14.44217"><ele>219.0</ele><time>2026-04-04T08:13:02.006Z</time></trkpt><trkpt lat="41.0443317" lon="14.4422217"><ele>224.66666666666666</ele><time>2026-04-04T08:13:04.006Z</time></trkpt><trkpt lat="41.0443883" lon="14.4422867"><ele>230.33333333333331</ele><time>2026-04-04T08:13:06.006Z</time></trkpt><trkpt lat="41.04444" lon="14.44235"><ele>236.0</ele><time>2026-04-04T08:13:08.008Z</time></trkpt><trkpt lat="41.04449" lon="14.4424133"><ele>241.66666666666666</ele><time>2026-04-04T08:13:10.006Z</time></trkpt><trkpt lat="41.0445533" lon="14.4425033"><ele>247.33333333333331</ele><time>2026-04-04T08:13:13.006Z</time></trkpt><trkpt lat="41.0446067" lon="14.4425683"><ele>253.0</ele><time>2026-04-04T08:13:15.006Z</time></trkpt><trkpt lat="41.04467" lon="14.4426317"><ele>253.00000000000003</ele><time>2026-04-04T08:13:17.006Z</time></trkpt><trkpt lat="41.0447317" lon="14.442665"><ele>253.0</ele><time>2026-04-04T08:13:19.007Z</time></trkpt><trkpt lat="41.0448167" lon="14.4426933"><ele>253.00000000000003</ele><time>2026-04-04T08:13:22.006Z</time></trkpt><trkpt lat="41.0449" lon="14.4427333"><ele>253.00000000000003</ele><time>2026-04-04T08:13:25.006Z</time></trkpt><trkpt lat="41.0449617" lon="14.4427533"><ele>253.0</ele><time>2026-04-04T08:13:27.006Z</time></trkpt><trkpt lat="41.0450283" lon="14.4427717"><ele>253.00000000000003</ele><time>2026-04-04T08:13:29.006Z</time></trkpt><trkpt lat="41.045095" lon="14.4427867"><ele>253.00000000000003</ele><time>2026-04-04T08:13:31.006Z</time></trkpt><trkpt lat="41.0451583" lon="14.4427983"><ele>251.16666666666666</ele><time>2026-04-04T08:13:33.006Z</time></trkpt><trkpt lat="41.0452433" lon="14.4428333"><ele>249.33333333333331</ele><time>2026-04-04T08:13:36.007Z</time></trkpt><trkpt lat="41.0453233" lon="14.442865"><ele>247.5</ele><time>2026-04-04T08:13:39.006Z</time></trkpt><trkpt lat="41.04541" lon="14.4429067"><ele>245.66666666666669</ele><time>2026-04-04T08:13:42.006Z</time></trkpt><trkpt lat="41.0455" lon="14.4429433"><ele>243.83333333333334</ele><time>2026-04-04T08:13:45.006Z</time></trkpt><trkpt lat="41.04556" lon="14.44297"><ele>242.0</ele><time>2026-04-04T08:13:47.006Z</time></trkpt><trkpt lat="41.0456217" lon="14.4430033"><ele>246.0</ele><time>2026-04-04T08:13:49.008Z</time></trkpt><trkpt lat="41.045685" lon="14.4430367"><ele>249.99999999999997</ele><time>2026-04-04T08:13:51.007Z</time></trkpt><trkpt lat="41.0457483" lon="14.4430617"><ele>254.0</ele><time>2026-04-04T08:13:53.006Z</time></trkpt><trkpt lat="41.04582" lon="14.4430833"><ele>258.0</ele><time>2026-04-04T08:13:55.006Z</time></trkpt><trkpt lat="41.0458917" lon="14.44312"><ele>262.0</ele><time>2026-04-04T08:13:57.006Z</time></trkpt><trkpt lat="41.0459633" lon="14.4431533"><ele>266.0</ele><time>2026-04-04T08:13:59.006Z</time></trkpt><trkpt lat="41.0460367" lon="14.4431867"><ele>270.0</ele><time>2026-04-04T08:14:01.006Z</time></trkpt><trkpt lat="41.04611" lon="14.44323"><ele>270.0</ele><time>2026-04-04T08:14:03.006Z</time></trkpt><trkpt lat="41.0461783" lon="14.443275"><ele>270.0</ele><time>2026-04-04T08:14:05.006Z</time></trkpt><trkpt lat="41.0462417" lon="14.4433283"><ele>270.0</ele><time>2026-04-04T08:14:07.006Z</time></trkpt><trkpt lat="41.046315" lon="14.443385"><ele>270.0</ele><time>2026-04-04T08:14:09.006Z</time></trkpt><trkpt lat="41.046385" lon="14.443445"><ele>270.0</ele><time>2026-04-04T08:14:11.006Z</time></trkpt><trkpt lat="41.0464683" lon="14.44347"><ele>270.0</ele><time>2026-04-04T08:14:13.007Z</time></trkpt><trkpt lat="41.046535" lon="14.4434383"><ele>270.0</ele><time>2026-04-04T08:14:15.009Z</time></trkpt><trkpt lat="41.0465733" lon="14.4433383"><ele>270.0</ele><time>2026-04-04T08:14:18.007Z</time></trkpt><trkpt lat="41.046565" lon="14.443245"><ele>270.0</ele><time>2026-04-04T08:14:20.006Z</time></trkpt><trkpt lat="41.0465533" lon="14.4431383"><ele>270.0</ele><time>2026-04-04T08:14:22.006Z</time></trkpt><trkpt lat="41.0465367" lon="14.4430233"><ele>270.0</ele><time>2026-04-04T08:14:25.006Z</time></trkpt><trkpt lat="41.0465183" lon="14.4429333"><ele>270.0</ele><time>2026-04-04T08:14:27.006Z</time></trkpt><trkpt lat="41.0464817" lon="14.4428567"><ele>266.3333333333333</ele><time>2026-04-04T08:14:29.007Z</time></trkpt><trkpt lat="41.0464233" lon="14.4427567"><ele>262.6666666666667</ele><time>2026-04-04T08:14:32.006Z</time></trkpt><trkpt lat="41.0463817" lon="14.4426783"><ele>259.0</ele><time>2026-04-04T08:14:34.006Z</time></trkpt><trkpt lat="41.04633" lon="14.442605"><ele>255.33333333333334</ele><time>2026-04-04T08:14:36.009Z</time></trkpt><trkpt lat="41.0462933" lon="14.442525"><ele>251.66666666666669</ele><time>2026-04-04T08:14:38.007Z</time></trkpt><trkpt lat="41.0462683" lon="14.4424367"><ele>248.0</ele><time>2026-04-04T08:14:40.006Z</time></trkpt><trkpt lat="41.0462467" lon="14.4423483"><ele>248.00000000000003</ele><time>2026-04-04T08:14:42.006Z</time></trkpt><trkpt lat="41.046225" lon="14.4422583"><ele>248.0</ele><time>2026-04-04T08:14:44.007Z</time></trkpt><trkpt lat="41.0462017" lon="14.4421783"><ele>248.0</ele><time>2026-04-04T08:14:46.006Z</time></trkpt><trkpt lat="41.0461683" lon="14.4420617"><ele>248.0</ele><time>2026-04-04T08:14:49.006Z</time></trkpt><trkpt lat="41.0461417" lon="14.441945"><ele>248.00000000000003</ele><time>2026-04-04T08:14:52.006Z</time></trkpt><trkpt lat="41.0461267" lon="14.441835"><ele>248.0</ele><time>2026-04-04T08:14:55.006Z</time></trkpt><trkpt lat="41.0461317" lon="14.4417167"><ele>248.00000000000003</ele><time>2026-04-04T08:14:58.007Z</time></trkpt><trkpt lat="41.0461483" lon="14.441595"><ele>248.0</ele><time>2026-04-04T08:15:01.006Z</time></trkpt><trkpt lat="41.046175" lon="14.4414883"><ele>248.0</ele><time>2026-04-04T08:15:04.006Z</time></trkpt><trkpt lat="41.0462117" lon="14.4413967"><ele>248.0</ele><time>2026-04-04T08:15:07.006Z</time></trkpt><trkpt lat="41.0462567" lon="14.4413117"><ele>248.00000000000003</ele><time>2026-04-04T08:15:10.006Z</time></trkpt><trkpt lat="41.0463133" lon="14.4412417"><ele>248.0</ele><time>2026-04-04T08:15:13.007Z</time></trkpt><trkpt lat="41.0463783" lon="14.4411883"><ele>248.00000000000003</ele><time>2026-04-04T08:15:16.006Z</time></trkpt><trkpt lat="41.0464567" lon="14.4411433"><ele>248.0</ele><time>2026-04-04T08:15:19.006Z</time></trkpt><trkpt lat="41.046535" lon="14.441105"><ele>248.0</ele><time>2026-04-04T08:15:22.007Z</time></trkpt><trkpt lat="41.0466217" lon="14.441095"><ele>248.0</ele><time>2026-04-04T08:15:25.006Z</time></trkpt><trkpt lat="41.0467083" lon="14.4411117"><ele>248.00000000000003</ele><time>2026-04-04T08:15:28.006Z</time></trkpt><trkpt lat="41.0467683" lon="14.44114"><ele>248.0</ele><time>2026-04-04T08:15:30.006Z</time></trkpt><trkpt lat="41.0468483" lon="14.4411917"><ele>251.33333333333334</ele><time>2026-04-04T08:15:33.006Z</time></trkpt><trkpt lat="41.04693" lon="14.44124"><ele>254.66666666666669</ele><time>2026-04-04T08:15:36.006Z</time></trkpt><trkpt lat="41.0470017" lon="14.4412967"><ele>258.0</ele><time>2026-04-04T08:15:39.007Z</time></trkpt><trkpt lat="41.0470717" lon="14.4413567"><ele>261.3333333333333</ele><time>2026-04-04T08:15:42.009Z</time></trkpt><trkpt lat="41.0471417" lon="14.44143"><ele>264.66666666666663</ele><time>2026-04-04T08:15:45.006Z</time></trkpt><trkpt lat="41.0471983" lon="14.4415133"><ele>268.0</ele><time>2026-04-04T08:15:48.006Z</time></trkpt><trkpt lat="41.0471983" lon="14.4416033"><ele>270.3333333333333</ele><time>2026-04-04T08:15:51.006Z</time></trkpt><trkpt lat="41.04712" lon="14.441605"><ele>272.66666666666663</ele><time>2026-04-04T08:15:56.006Z</time></trkpt><trkpt lat="41.0470667" lon="14.4415467"><ele>275.0</ele><time>2026-04-04T08:15:58.006Z</time></trkpt><trkpt lat="41.047005" lon="14.4414867"><ele>277.3333333333333</ele><time>2026-04-04T08:16:00.007Z</time></trkpt><trkpt lat="41.0469333" lon="14.4414867"><ele>279.6666666666667</ele><time>2026-04-04T08:16:02.007Z</time></trkpt><trkpt lat="41.0468367" lon="14.441475"><ele>282.0</ele><time>2026-04-04T08:16:05.006Z</time></trkpt><trkpt lat="41.0467717" lon="14.4414833"><ele>282.0</ele><time>2026-04-04T08:16:07.007Z</time></trkpt><trkpt lat="41.046685" lon="14.44153"><ele>282.0</ele><time>2026-04-04T08:16:10.007Z</time></trkpt><trkpt lat="41.0466317" lon="14.4415767"><ele>282.0</ele><time>2026-04-04T08:16:12.007Z</time></trkpt><trkpt lat="41.04657" lon="14.441665"><ele>282.0</ele><time>2026-04-04T08:16:15.006Z</time></trkpt><trkpt lat="41.0465233" lon="14.4417717"><ele>282.0</ele><time>2026-04-04T08:16:18.006Z</time></trkpt><trkpt lat="41.0465083" lon="14.4418867"><ele>282.0</ele><time>2026-04-04T08:16:21.006Z</time></trkpt><trkpt lat="41.0465117" lon="14.4420083"><ele>282.3333333333333</ele><time>2026-04-04T08:16:24.006Z</time></trkpt><trkpt lat="41.046515" lon="14.4420917"><ele>282.6666666666667</ele><time>2026-04-04T08:16:26.005Z</time></trkpt><trkpt lat="41.046535" lon="14.4422017"><ele>283.0</ele><time>2026-04-04T08:16:29.006Z</time></trkpt><trkpt lat="41.04656" lon="14.4423217"><ele>283.33333333333337</ele><time>2026-04-04T08:16:32.007Z</time></trkpt><trkpt lat="41.0465817" lon="14.4424033"><ele>283.6666666666667</ele><time>2026-04-04T08:16:34.005Z</time></trkpt><trkpt lat="41.04661" lon="14.4424917"><ele>284.0</ele><time>2026-04-04T08:16:36.006Z</time></trkpt><trkpt lat="41.0466417" lon="14.4425867"><ele>284.0</ele><time>2026-04-04T08:16:38.007Z</time></trkpt><trkpt lat="41.0466717" lon="14.44268"><ele>284.0</ele><time>2026-04-04T08:16:40.006Z</time></trkpt><trkpt lat="41.0467" lon="14.4427683"><ele>284.0</ele><time>2026-04-04T08:16:42.007Z</time></trkpt><trkpt lat="41.04673" lon="14.4428467"><ele>284.0</ele><time>2026-04-04T08:16:44.007Z</time></trkpt><trkpt lat="41.0467617" lon="14.4429217"><ele>284.0</ele><time>2026-04-04T08:16:46.005Z</time></trkpt><trkpt lat="41.046795" lon="14.4430033"><ele>284.0</ele><time>2026-04-04T08:16:48.006Z</time></trkpt><trkpt lat="41.0468283" lon="14.4430833"><ele>284.0</ele><time>2026-04-04T08:16:50.006Z</time></trkpt><trkpt lat="41.0468667" lon="14.4431667"><ele>283.2857142857143</ele><time>2026-04-04T08:16:52.005Z</time></trkpt><trkpt lat="41.0469017" lon="14.44324"><ele>282.57142857142856</ele><time>2026-04-04T08:16:54.007Z</time></trkpt><trkpt lat="41.046925" lon="14.44333"><ele>281.85714285714283</ele><time>2026-04-04T08:16:56.01Z</time></trkpt><trkpt lat="41.0469533" lon="14.4434317"><ele>281.1428571428571</ele><time>2026-04-04T08:16:58.007Z</time></trkpt><trkpt lat="41.0469767" lon="14.443535"><ele>280.42857142857144</ele><time>2026-04-04T08:17:00.007Z</time></trkpt><trkpt lat="41.0469983" lon="14.443625"><ele>279.71428571428567</ele><time>2026-04-04T08:17:02.008Z</time></trkpt><trkpt lat="41.0470133" lon="14.4437217"><ele>279.0</ele><time>2026-04-04T08:17:04.007Z</time></trkpt><trkpt lat="41.0470333" lon="14.443825"><ele>281.2857142857143</ele><time>2026-04-04T08:17:06.006Z</time></trkpt><trkpt lat="41.0470467" lon="14.4439283"><ele>283.57142857142856</ele><time>2026-04-04T08:17:08.006Z</time></trkpt><trkpt lat="41.0470483" lon="14.44403"><ele>285.8571428571429</ele><time>2026-04-04T08:17:10.007Z</time></trkpt><trkpt lat="41.0470433" lon="14.4441267"><ele>288.1428571428571</ele><time>2026-04-04T08:17:12.007Z</time></trkpt><trkpt lat="41.04704" lon="14.4442233"><ele>290.42857142857144</ele><time>2026-04-04T08:17:14.006Z</time></trkpt><trkpt lat="41.0470283" lon="14.444315"><ele>292.7142857142857</ele><time>2026-04-04T08:17:16.005Z</time></trkpt><trkpt lat="41.047015" lon="14.44441"><ele>295.0</ele><time>2026-04-04T08:17:18.005Z</time></trkpt><trkpt lat="41.0470083" lon="14.4445033"><ele>295.0</ele><time>2026-04-04T08:17:20.005Z</time></trkpt><trkpt lat="41.0470067" lon="14.4446283"><ele>295.0</ele><time>2026-04-04T08:17:23.007Z</time></trkpt><trkpt lat="41.047005" lon="14.444715"><ele>295.0</ele><time>2026-04-04T08:17:25.005Z</time></trkpt><trkpt lat="41.047045" lon="14.4448117"><ele>295.0</ele><time>2026-04-04T08:17:28.006Z</time></trkpt><trkpt lat="41.047115" lon="14.4447933"><ele>295.0</ele><time>2026-04-04T08:17:31.006Z</time></trkpt><trkpt lat="41.0471567" lon="14.44469"><ele>295.0</ele><time>2026-04-04T08:17:34.006Z</time></trkpt><trkpt lat="41.0471617" lon="14.4445817"><ele>295.0</ele><time>2026-04-04T08:17:36.005Z</time></trkpt><trkpt lat="41.04716" lon="14.444465"><ele>295.0</ele><time>2026-04-04T08:17:38.007Z</time></trkpt><trkpt lat="41.047155" lon="14.44436"><ele>295.0</ele><time>2026-04-04T08:17:40.006Z</time></trkpt><trkpt lat="41.0471467" lon="14.4442317"><ele>295.0</ele><time>2026-04-04T08:17:42.006Z</time></trkpt><trkpt lat="41.0471433" lon="14.444095"><ele>295.0</ele><time>2026-04-04T08:17:44.008Z</time></trkpt><trkpt lat="41.0471517" lon="14.44399"><ele>295.0</ele><time>2026-04-04T08:17:46.006Z</time></trkpt><trkpt lat="41.047155" lon="14.4438917"><ele>291.8</ele><time>2026-04-04T08:17:48.006Z</time></trkpt><trkpt lat="41.04715" lon="14.4437917"><ele>288.6</ele><time>2026-04-04T08:17:50.009Z</time></trkpt><trkpt lat="41.04713" lon="14.4436817"><ele>285.4</ele><time>2026-04-04T08:17:52.006Z</time></trkpt><trkpt lat="41.0471033" lon="14.44355"><ele>282.2</ele><time>2026-04-04T08:17:54.006Z</time></trkpt><trkpt lat="41.0470767" lon="14.4434183"><ele>279.0</ele><time>2026-04-04T08:17:56.006Z</time></trkpt><trkpt lat="41.0470467" lon="14.4432883"><ele>279.0</ele><time>2026-04-04T08:17:58.006Z</time></trkpt><trkpt lat="41.047015" lon="14.4431567"><ele>279.0</ele><time>2026-04-04T08:18:00.006Z</time></trkpt><trkpt lat="41.0469883" lon="14.44304"><ele>279.0</ele><time>2026-04-04T08:18:02.006Z</time></trkpt><trkpt lat="41.0469583" lon="14.4429233"><ele>279.0</ele><time>2026-04-04T08:18:04.006Z</time></trkpt><trkpt lat="41.0469333" lon="14.442795"><ele>279.0</ele><time>2026-04-04T08:18:06.006Z</time></trkpt><trkpt lat="41.0469133" lon="14.44268"><ele>279.8333333333333</ele><time>2026-04-04T08:18:08.006Z</time></trkpt><trkpt lat="41.0468967" lon="14.4425667"><ele>280.6666666666667</ele><time>2026-04-04T08:18:10.006Z</time></trkpt><trkpt lat="41.04691" lon="14.4424567"><ele>281.5</ele><time>2026-04-04T08:18:12.006Z</time></trkpt><trkpt lat="41.0469433" lon="14.442365"><ele>282.33333333333337</ele><time>2026-04-04T08:18:14.007Z</time></trkpt><trkpt lat="41.0470033" lon="14.4423067"><ele>283.1666666666667</ele><time>2026-04-04T08:18:16.006Z</time></trkpt><trkpt lat="41.04707" lon="14.442275"><ele>284.0</ele><time>2026-04-04T08:18:18.006Z</time></trkpt><trkpt lat="41.04716" lon="14.4422833"><ele>284.0</ele><time>2026-04-04T08:18:21.007Z</time></trkpt><trkpt lat="41.0472483" lon="14.44231"><ele>284.0</ele><time>2026-04-04T08:18:24.007Z</time></trkpt><trkpt lat="41.0473317" lon="14.44234"><ele>284.0</ele><time>2026-04-04T08:18:27.007Z</time></trkpt><trkpt lat="41.0474083" lon="14.442375"><ele>284.0</ele><time>2026-04-04T08:18:30.008Z</time></trkpt><trkpt lat="41.04749" lon="14.4424233"><ele>284.0</ele><time>2026-04-04T08:18:33.009Z</time></trkpt><trkpt lat="41.0475617" lon="14.4424667"><ele>284.0</ele><time>2026-04-04T08:18:36.009Z</time></trkpt><trkpt lat="41.04763" lon="14.4425067"><ele>287.6666666666667</ele><time>2026-04-04T08:18:39.01Z</time></trkpt><trkpt lat="41.0477083" lon="14.442545"><ele>291.33333333333337</ele><time>2026-04-04T08:18:42.009Z</time></trkpt><trkpt lat="41.04779" lon="14.4425817"><ele>295.0</ele><time>2026-04-04T08:18:45.008Z</time></trkpt><trkpt lat="41.0478633" lon="14.44262"><ele>298.6666666666667</ele><time>2026-04-04T08:18:48.008Z</time></trkpt><trkpt lat="41.04794" lon="14.44266"><ele>302.3333333333333</ele><time>2026-04-04T08:18:51.008Z</time></trkpt><trkpt lat="41.04802" lon="14.4427083"><ele>306.0</ele><time>2026-04-04T08:18:54.008Z</time></trkpt><trkpt lat="41.048095" lon="14.4427483"><ele>306.0</ele><time>2026-04-04T08:18:57.013Z</time></trkpt><trkpt lat="41.0481683" lon="14.4428033"><ele>306.0</ele><time>2026-04-04T08:19:00.007Z</time></trkpt><trkpt lat="41.04824" lon="14.4428667"><ele>306.0</ele><time>2026-04-04T08:19:03.006Z</time></trkpt><trkpt lat="41.0483083" lon="14.442945"><ele>306.0</ele><time>2026-04-04T08:19:06.006Z</time></trkpt><trkpt lat="41.0483633" lon="14.4430283"><ele>306.0</ele><time>2026-04-04T08:19:09.006Z</time></trkpt><trkpt lat="41.0484217" lon="14.44309"><ele>306.0</ele><time>2026-04-04T08:19:12.006Z</time></trkpt><trkpt lat="41.0484817" lon="14.4431683"><ele>309.1666666666667</ele><time>2026-04-04T08:19:15.006Z</time></trkpt><trkpt lat="41.0485317" lon="14.443235"><ele>312.3333333333333</ele><time>2026-04-04T08:19:17.006Z</time></trkpt><trkpt lat="41.0485967" lon="14.4433167"><ele>315.5</ele><time>2026-04-04T08:19:20.007Z</time></trkpt><trkpt lat="41.048665" lon="14.443385"><ele>318.66666666666663</ele><time>2026-04-04T08:19:23.008Z</time></trkpt><trkpt lat="41.0487433" lon="14.4433767"><ele>321.8333333333333</ele><time>2026-04-04T08:19:28.006Z</time></trkpt><trkpt lat="41.0487783" lon="14.4432983"><ele>325.0</ele><time>2026-04-04T08:19:30.006Z</time></trkpt><trkpt lat="41.048775" lon="14.4431867"><ele>325.0</ele><time>2026-04-04T08:19:32.007Z</time></trkpt><trkpt lat="41.0487417" lon="14.4430867"><ele>325.0</ele><time>2026-04-04T08:19:34.006Z</time></trkpt><trkpt lat="41.048715" lon="14.443"><ele>325.0</ele><time>2026-04-04T08:19:36.008Z</time></trkpt><trkpt lat="41.0486933" lon="14.442905"><ele>325.0</ele><time>2026-04-04T08:19:38.006Z</time></trkpt><trkpt lat="41.0486767" lon="14.442795"><ele>325.0</ele><time>2026-04-04T08:19:40.006Z</time></trkpt><trkpt lat="41.0486683" lon="14.4426783"><ele>325.0</ele><time>2026-04-04T08:19:42.007Z</time></trkpt><trkpt lat="41.04866" lon="14.4425717"><ele>322.8333333333333</ele><time>2026-04-04T08:19:44.006Z</time></trkpt><trkpt lat="41.048645" lon="14.4424483"><ele>320.66666666666663</ele><time>2026-04-04T08:19:46.006Z</time></trkpt><trkpt lat="41.0486283" lon="14.4423317"><ele>318.5</ele><time>2026-04-04T08:19:48.009Z</time></trkpt><trkpt lat="41.0486117" lon="14.44222"><ele>316.3333333333333</ele><time>2026-04-04T08:19:50.007Z</time></trkpt><trkpt lat="41.0486017" lon="14.442105"><ele>314.1666666666667</ele><time>2026-04-04T08:19:52.005Z</time></trkpt><trkpt lat="41.048595" lon="14.4419917"><ele>312.0</ele><time>2026-04-04T08:19:54.009Z</time></trkpt><trkpt lat="41.0485833" lon="14.4418517"><ele>311.6666666666667</ele><time>2026-04-04T08:19:56.007Z</time></trkpt><trkpt lat="41.0485667" lon="14.4417033"><ele>311.3333333333333</ele><time>2026-04-04T08:19:58.008Z</time></trkpt><trkpt lat="41.048565" lon="14.4415833"><ele>311.0</ele><time>2026-04-04T08:20:00.007Z</time></trkpt><trkpt lat="41.0485567" lon="14.4414683"><ele>310.66666666666663</ele><time>2026-04-04T08:20:02.007Z</time></trkpt><trkpt lat="41.0485467" lon="14.44137"><ele>310.3333333333333</ele><time>2026-04-04T08:20:04.006Z</time></trkpt><trkpt lat="41.0485367" lon="14.4412783"><ele>310.0</ele><time>2026-04-04T08:20:06.006Z</time></trkpt><trkpt lat="41.0485317" lon="14.4411817"><ele>310.8333333333333</ele><time>2026-04-04T08:20:08.007Z</time></trkpt><trkpt lat="41.0485267" lon="14.4410883"><ele>311.66666666666663</ele><time>2026-04-04T08:20:10.006Z</time></trkpt><trkpt lat="41.0485233" lon="14.4409883"><ele>312.5</ele><time>2026-04-04T08:20:12.007Z</time></trkpt><trkpt lat="41.0485233" lon="14.4408817"><ele>313.3333333333333</ele><time>2026-04-04T08:20:14.006Z</time></trkpt><trkpt lat="41.04853" lon="14.4407717"><ele>314.1666666666667</ele><time>2026-04-04T08:20:16.007Z</time></trkpt><trkpt lat="41.048535" lon="14.4406633"><ele>315.0</ele><time>2026-04-04T08:20:18.007Z</time></trkpt><trkpt lat="41.0485567" lon="14.4405467"><ele>314.5</ele><time>2026-04-04T08:20:20.008Z</time></trkpt><trkpt lat="41.0485733" lon="14.4404267"><ele>314.0</ele><time>2026-04-04T08:20:22.008Z</time></trkpt><trkpt lat="41.0485933" lon="14.4403083"><ele>313.5</ele><time>2026-04-04T08:20:24.007Z</time></trkpt><trkpt lat="41.048615" lon="14.4402"><ele>313.0</ele><time>2026-04-04T08:20:26.007Z</time></trkpt><trkpt lat="41.0486383" lon="14.44009"><ele>312.5</ele><time>2026-04-04T08:20:28.007Z</time></trkpt><trkpt lat="41.0486733" lon="14.4399783"><ele>312.0</ele><time>2026-04-04T08:20:30.007Z</time></trkpt><trkpt lat="41.0487283" lon="14.4398567"><ele>312.0</ele><time>2026-04-04T08:20:32.007Z</time></trkpt><trkpt lat="41.0487883" lon="14.4397433"><ele>312.0</ele><time>2026-04-04T08:20:34.007Z</time></trkpt><trkpt lat="41.048845" lon="14.43963"><ele>312.0</ele><time>2026-04-04T08:20:36.007Z</time></trkpt><trkpt lat="41.048905" lon="14.439525"><ele>312.0</ele><time>2026-04-04T08:20:38.008Z</time></trkpt><trkpt lat="41.04896" lon="14.4394183"><ele>312.0</ele><time>2026-04-04T08:20:40.007Z</time></trkpt><trkpt lat="41.0490167" lon="14.4393067"><ele>309.6</ele><time>2026-04-04T08:20:42.007Z</time></trkpt><trkpt lat="41.049075" lon="14.4392033"><ele>307.2</ele><time>2026-04-04T08:20:44.008Z</time></trkpt><trkpt lat="41.04913" lon="14.439095"><ele>304.8</ele><time>2026-04-04T08:20:46.008Z</time></trkpt><trkpt lat="41.0491917" lon="14.4389917"><ele>302.4</ele><time>2026-04-04T08:20:48.008Z</time></trkpt><trkpt lat="41.0492617" lon="14.4389167"><ele>300.0</ele><time>2026-04-04T08:20:50.008Z</time></trkpt><trkpt lat="41.0493633" lon="14.4388783"><ele>304.4</ele><time>2026-04-04T08:20:52.006Z</time></trkpt><trkpt lat="41.0494783" lon="14.43886"><ele>308.8</ele><time>2026-04-04T08:20:54.008Z</time></trkpt><trkpt lat="41.04959" lon="14.438835"><ele>313.20000000000005</ele><time>2026-04-04T08:20:56.008Z</time></trkpt><trkpt lat="41.0496533" lon="14.438825"><ele>317.6</ele><time>2026-04-04T08:20:57.009Z</time></trkpt><trkpt lat="41.0497683" lon="14.4387933"><ele>322.0</ele><time>2026-04-04T08:20:59.007Z</time></trkpt><trkpt lat="41.0498717" lon="14.4387467"><ele>322.0</ele><time>2026-04-04T08:21:01.007Z</time></trkpt><trkpt lat="41.0499267" lon="14.4386633"><ele>322.0</ele><time>2026-04-04T08:21:03.009Z</time></trkpt><trkpt lat="41.049995" lon="14.438605"><ele>322.0</ele><time>2026-04-04T08:21:05.009Z</time></trkpt><trkpt lat="41.0500517" lon="14.438555"><ele>322.0</ele><time>2026-04-04T08:21:07.007Z</time></trkpt><trkpt lat="41.0501417" lon="14.4385033"><ele>322.0</ele><time>2026-04-04T08:21:10.007Z</time></trkpt><trkpt lat="41.0502117" lon="14.4385233"><ele>322.0</ele><time>2026-04-04T08:21:12.007Z</time></trkpt><trkpt lat="41.0502783" lon="14.4385533"><ele>323.8333333333333</ele><time>2026-04-04T08:21:14.009Z</time></trkpt><trkpt lat="41.0503567" lon="14.4385733"><ele>325.66666666666663</ele><time>2026-04-04T08:21:16.008Z</time></trkpt><trkpt lat="41.0504317" lon="14.4386033"><ele>327.5</ele><time>2026-04-04T08:21:18.007Z</time></trkpt><trkpt lat="41.0505017" lon="14.4386233"><ele>329.3333333333333</ele><time>2026-04-04T08:21:20.008Z</time></trkpt><trkpt lat="41.0505767" lon="14.4386467"><ele>331.1666666666667</ele><time>2026-04-04T08:21:22.007Z</time></trkpt><trkpt lat="41.0506517" lon="14.4386633"><ele>333.0</ele><time>2026-04-04T08:21:24.007Z</time></trkpt><trkpt lat="41.0507233" lon="14.4386917"><ele>333.0</ele><time>2026-04-04T08:21:26.01Z</time></trkpt><trkpt lat="41.0507867" lon="14.438715"><ele>333.0</ele><time>2026-04-04T08:21:28.008Z</time></trkpt><trkpt lat="41.050855" lon="14.43873"><ele>333.0</ele><time>2026-04-04T08:22:38.006Z</time></trkpt><trkpt lat="41.0509267" lon="14.43874"><ele>333.0</ele><time>2026-04-04T08:22:41.005Z</time></trkpt><trkpt lat="41.0510117" lon="14.4387733"><ele>333.0</ele><time>2026-04-04T08:22:44.006Z</time></trkpt><trkpt lat="41.0510783" lon="14.4388117"><ele>333.0</ele><time>2026-04-04T08:22:47.006Z</time></trkpt><trkpt lat="41.0511483" lon="14.4388833"><ele>333.8333333333333</ele><time>2026-04-04T08:22:50.006Z</time></trkpt><trkpt lat="41.0512017" lon="14.4389333"><ele>334.6666666666667</ele><time>2026-04-04T08:22:53.005Z</time></trkpt><trkpt lat="41.0512867" lon="14.4389267"><ele>335.5</ele><time>2026-04-04T08:22:57.006Z</time></trkpt><trkpt lat="41.0513633" lon="14.4389033"><ele>336.33333333333337</ele><time>2026-04-04T08:22:59.007Z</time></trkpt><trkpt lat="41.0514617" lon="14.4388783"><ele>337.1666666666667</ele><time>2026-04-04T08:23:01.006Z</time></trkpt><trkpt lat="41.0515317" lon="14.4388767"><ele>338.0</ele><time>2026-04-04T08:23:03.006Z</time></trkpt><trkpt lat="41.0515967" lon="14.4388833"><ele>338.7142857142857</ele><time>2026-04-04T08:23:05.006Z</time></trkpt><trkpt lat="41.0516767" lon="14.4388783"><ele>339.42857142857144</ele><time>2026-04-04T08:23:07.005Z</time></trkpt><trkpt lat="41.05174" lon="14.4388733"><ele>340.1428571428571</ele><time>2026-04-04T08:23:09.006Z</time></trkpt><trkpt lat="41.0518133" lon="14.4388667"><ele>340.8571428571429</ele><time>2026-04-04T08:23:11.006Z</time></trkpt><trkpt lat="41.05188" lon="14.4388617"><ele>341.57142857142856</ele><time>2026-04-04T08:23:13.005Z</time></trkpt><trkpt lat="41.051945" lon="14.438855"><ele>342.2857142857143</ele><time>2026-04-04T08:23:15.006Z</time></trkpt><trkpt lat="41.0520383" lon="14.438865"><ele>343.0</ele><time>2026-04-04T08:23:18.008Z</time></trkpt><trkpt lat="41.0521217" lon="14.4388983"><ele>343.0</ele><time>2026-04-04T08:23:21.007Z</time></trkpt><trkpt lat="41.0522033" lon="14.4389017"><ele>343.0</ele><time>2026-04-04T08:23:24.005Z</time></trkpt><trkpt lat="41.052305" lon="14.438915"><ele>343.0</ele><time>2026-04-04T08:23:27.006Z</time></trkpt><trkpt lat="41.05239" lon="14.4389283"><ele>343.0</ele><time>2026-04-04T08:23:30.007Z</time></trkpt><trkpt lat="41.0524533" lon="14.4389217"><ele>343.0</ele><time>2026-04-04T08:23:32.007Z</time></trkpt><trkpt lat="41.0525233" lon="14.4389033"><ele>343.0</ele><time>2026-04-04T08:23:34.006Z</time></trkpt><trkpt lat="41.0525867" lon="14.438905"><ele>344.3333333333333</ele><time>2026-04-04T08:23:36.008Z</time></trkpt><trkpt lat="41.0526733" lon="14.4388883"><ele>345.66666666666663</ele><time>2026-04-04T08:23:39.005Z</time></trkpt><trkpt lat="41.0527533" lon="14.4388833"><ele>347.0</ele><time>2026-04-04T08:23:42.006Z</time></trkpt><trkpt lat="41.0528383" lon="14.4388917"><ele>348.3333333333333</ele><time>2026-04-04T08:23:46.006Z</time></trkpt><trkpt lat="41.0529183" lon="14.438875"><ele>349.6666666666667</ele><time>2026-04-04T08:23:49.006Z</time></trkpt><trkpt lat="41.0530183" lon="14.4388767"><ele>351.0</ele><time>2026-04-04T08:23:52.006Z</time></trkpt><trkpt lat="41.0531" lon="14.4388867"><ele>351.0</ele><time>2026-04-04T08:23:55.006Z</time></trkpt><trkpt lat="41.0531817" lon="14.4388633"><ele>351.0</ele><time>2026-04-04T08:23:58.005Z</time></trkpt><trkpt lat="41.0533017" lon="14.4389433"><ele>351.0</ele><time>2026-04-04T08:25:07.005Z</time></trkpt><trkpt lat="41.0533883" lon="14.4389367"><ele>351.0</ele><time>2026-04-04T08:25:10.006Z</time></trkpt><trkpt lat="41.0534717" lon="14.4389167"><ele>351.0</ele><time>2026-04-04T08:25:12.006Z</time></trkpt><trkpt lat="41.0535883" lon="14.438885"><ele>351.8</ele><time>2026-04-04T08:25:14.007Z</time></trkpt><trkpt lat="41.0537117" lon="14.438845"><ele>352.6</ele><time>2026-04-04T08:25:16.007Z</time></trkpt><trkpt lat="41.05378" lon="14.438835"><ele>353.4</ele><time>2026-04-04T08:25:17.007Z</time></trkpt><trkpt lat="41.05385" lon="14.4388283"><ele>354.2</ele><time>2026-04-04T08:25:18.008Z</time></trkpt><trkpt lat="41.0539533" lon="14.4387933"><ele>355.0</ele><time>2026-04-04T08:25:19.006Z</time></trkpt><trkpt lat="41.0540383" lon="14.43878"><ele>353.8</ele><time>2026-04-04T08:25:20.006Z</time></trkpt><trkpt lat="41.0541317" lon="14.4387683"><ele>352.6</ele><time>2026-04-04T08:25:21.006Z</time></trkpt><trkpt lat="41.05423" lon="14.4387383"><ele>351.4</ele><time>2026-04-04T08:25:22.006Z</time></trkpt><trkpt lat="41.054325" lon="14.43872"><ele>350.2</ele><time>2026-04-04T08:25:23.006Z</time></trkpt><trkpt lat="41.0544267" lon="14.4386983"><ele>349.0</ele><time>2026-04-04T08:25:24.007Z</time></trkpt><trkpt lat="41.054525" lon="14.4386817"><ele>349.0</ele><time>2026-04-04T08:25:25.009Z</time></trkpt><trkpt lat="41.0546267" lon="14.4386733"><ele>349.0</ele><time>2026-04-04T08:25:26.007Z</time></trkpt><trkpt lat="41.0547333" lon="14.4386817"><ele>349.0</ele><time>2026-04-04T08:25:27.01Z</time></trkpt><trkpt lat="41.0548367" lon="14.4386883"><ele>349.0</ele><time>2026-04-04T08:25:28.006Z</time></trkpt><trkpt lat="41.054945" lon="14.4387083"><ele>349.0</ele><time>2026-04-04T08:25:29.006Z</time></trkpt><trkpt lat="41.055055" lon="14.4387317"><ele>349.4</ele><time>2026-04-04T08:25:30.006Z</time></trkpt><trkpt lat="41.0551633" lon="14.4387633"><ele>349.79999999999995</ele><time>2026-04-04T08:25:31.006Z</time></trkpt><trkpt lat="41.0552717" lon="14.4388017"><ele>350.20000000000005</ele><time>2026-04-04T08:25:32.007Z</time></trkpt><trkpt lat="41.0553733" lon="14.438845"><ele>350.6</ele><time>2026-04-04T08:25:33.007Z</time></trkpt><trkpt lat="41.0554683" lon="14.438905"><ele>351.0</ele><time>2026-04-04T08:25:34.008Z</time></trkpt><trkpt lat="41.055555" lon="14.438975"><ele>351.0</ele><time>2026-04-04T08:25:35.009Z</time></trkpt><trkpt lat="41.0556383" lon="14.43905"><ele>351.0</ele><time>2026-04-04T08:25:36.007Z</time></trkpt><trkpt lat="41.055715" lon="14.43913"><ele>351.0</ele><time>2026-04-04T08:25:37.007Z</time></trkpt><trkpt lat="41.0557917" lon="14.4392117"><ele>351.0</ele><time>2026-04-04T08:25:38.007Z</time></trkpt><trkpt lat="41.0558617" lon="14.4392833"><ele>351.0</ele><time>2026-04-04T08:25:39.006Z</time></trkpt><trkpt lat="41.055935" lon="14.439345"><ele>348.1666666666667</ele><time>2026-04-04T08:25:40.006Z</time></trkpt><trkpt lat="41.0560117" lon="14.4393933"><ele>345.3333333333333</ele><time>2026-04-04T08:25:41.007Z</time></trkpt><trkpt lat="41.0560917" lon="14.4394217"><ele>342.5</ele><time>2026-04-04T08:25:42.008Z</time></trkpt><trkpt lat="41.05618" lon="14.43943"><ele>339.66666666666663</ele><time>2026-04-04T08:25:43.007Z</time></trkpt><trkpt lat="41.05627" lon="14.4394233"><ele>336.8333333333333</ele><time>2026-04-04T08:25:44.007Z</time></trkpt><trkpt lat="41.056355" lon="14.4394067"><ele>334.0</ele><time>2026-04-04T08:25:45.007Z</time></trkpt><trkpt lat="41.0564433" lon="14.4393783"><ele>334.0</ele><time>2026-04-04T08:25:46.008Z</time></trkpt><trkpt lat="41.0565333" lon="14.4393433"><ele>334.0</ele><time>2026-04-04T08:25:47.008Z</time></trkpt><trkpt lat="41.0566267" lon="14.439295"><ele>334.0</ele><time>2026-04-04T08:25:48.006Z</time></trkpt><trkpt lat="41.0567183" lon="14.4392717"><ele>334.0</ele><time>2026-04-04T08:25:49.007Z</time></trkpt><trkpt lat="41.05682" lon="14.439245"><ele>334.0</ele><time>2026-04-04T08:25:50.006Z</time></trkpt><trkpt lat="41.0569183" lon="14.43924"><ele>331.4</ele><time>2026-04-04T08:25:51.006Z</time></trkpt><trkpt lat="41.05702" lon="14.4392283"><ele>328.79999999999995</ele><time>2026-04-04T08:25:52.006Z</time></trkpt><trkpt lat="41.0571217" lon="14.4392183"><ele>326.20000000000005</ele><time>2026-04-04T08:25:53.006Z</time></trkpt><trkpt lat="41.057225" lon="14.43921"><ele>323.6</ele><time>2026-04-04T08:25:54.01Z</time></trkpt><trkpt lat="41.057325" lon="14.4391983"><ele>321.0</ele><time>2026-04-04T08:25:55.008Z</time></trkpt><trkpt lat="41.05742" lon="14.4391983"><ele>320.2</ele><time>2026-04-04T08:25:56.007Z</time></trkpt><trkpt lat="41.057515" lon="14.4391883"><ele>319.40000000000003</ele><time>2026-04-04T08:25:57.009Z</time></trkpt><trkpt lat="41.0576183" lon="14.4391767"><ele>318.6</ele><time>2026-04-04T08:25:58.006Z</time></trkpt><trkpt lat="41.0577233" lon="14.4391717"><ele>317.8</ele><time>2026-04-04T08:25:59.01Z</time></trkpt><trkpt lat="41.057825" lon="14.4391617"><ele>317.0</ele><time>2026-04-04T08:26:00.008Z</time></trkpt><trkpt lat="41.0579267" lon="14.439155"><ele>317.0</ele><time>2026-04-04T08:26:01.007Z</time></trkpt><trkpt lat="41.05803" lon="14.4391567"><ele>317.0</ele><time>2026-04-04T08:26:02.007Z</time></trkpt><trkpt lat="41.0581317" lon="14.4391583"><ele>317.0</ele><time>2026-04-04T08:26:03.007Z</time></trkpt><trkpt lat="41.0582283" lon="14.4391617"><ele>317.0</ele><time>2026-04-04T08:26:04.006Z</time></trkpt><trkpt lat="41.0583283" lon="14.4391667"><ele>317.0</ele><time>2026-04-04T08:26:05.006Z</time></trkpt><trkpt lat="41.05843" lon="14.439175"><ele>316.6</ele><time>2026-04-04T08:26:06.006Z</time></trkpt><trkpt lat="41.0585333" lon="14.4391783"><ele>316.2</ele><time>2026-04-04T08:26:07.006Z</time></trkpt><trkpt lat="41.0586367" lon="14.4391783"><ele>315.8</ele><time>2026-04-04T08:26:08.006Z</time></trkpt><trkpt lat="41.0587417" lon="14.4391817"><ele>315.4</ele><time>2026-04-04T08:26:09.006Z</time></trkpt><trkpt lat="41.058845" lon="14.439185"><ele>315.0</ele><time>2026-04-04T08:26:10.006Z</time></trkpt><trkpt lat="41.0589517" lon="14.4391817"><ele>315.0</ele><time>2026-04-04T08:26:11.007Z</time></trkpt><trkpt lat="41.0590633" lon="14.4391767"><ele>315.0</ele><time>2026-04-04T08:26:12.008Z</time></trkpt><trkpt lat="41.059175" lon="14.4391683"><ele>315.0</ele><time>2026-04-04T08:26:13.01Z</time></trkpt><trkpt lat="41.0592867" lon="14.4391617"><ele>315.0</ele><time>2026-04-04T08:26:14.007Z</time></trkpt><trkpt lat="41.0593983" lon="14.4391483"><ele>315.0</ele><time>2026-04-04T08:26:15.007Z</time></trkpt><trkpt lat="41.0595117" lon="14.439135"><ele>314.5</ele><time>2026-04-04T08:26:16.007Z</time></trkpt><trkpt lat="41.059625" lon="14.4391217"><ele>314.0</ele><time>2026-04-04T08:26:17.007Z</time></trkpt><trkpt lat="41.05974" lon="14.4391133"><ele>313.5</ele><time>2026-04-04T08:26:18.008Z</time></trkpt><trkpt lat="41.0598567" lon="14.4391017"><ele>313.0</ele><time>2026-04-04T08:26:19.007Z</time></trkpt><trkpt lat="41.0599633" lon="14.4390917"><ele>312.6</ele><time>2026-04-04T08:26:20.008Z</time></trkpt><trkpt lat="41.0600683" lon="14.439085"><ele>312.20000000000005</ele><time>2026-04-04T08:26:21.007Z</time></trkpt><trkpt lat="41.0601717" lon="14.4390733"><ele>311.8</ele><time>2026-04-04T08:26:22.007Z</time></trkpt><trkpt lat="41.0602783" lon="14.439055"><ele>311.40000000000003</ele><time>2026-04-04T08:26:23.006Z</time></trkpt><trkpt lat="41.060385" lon="14.4390433"><ele>311.0</ele><time>2026-04-04T08:26:24.007Z</time></trkpt><trkpt lat="41.0604933" lon="14.4390417"><ele>311.0</ele><time>2026-04-04T08:26:25.01Z</time></trkpt><trkpt lat="41.0605933" lon="14.439045"><ele>311.0</ele><time>2026-04-04T08:26:26.01Z</time></trkpt><trkpt lat="41.0606833" lon="14.4390633"><ele>311.0</ele><time>2026-04-04T08:26:27.007Z</time></trkpt><trkpt lat="41.060765" lon="14.4390917"><ele>311.0</ele><time>2026-04-04T08:26:28.007Z</time></trkpt><trkpt lat="41.0608383" lon="14.4391283"><ele>311.0</ele><time>2026-04-04T08:26:29.007Z</time></trkpt><trkpt lat="41.0609083" lon="14.4391917"><ele>311.0</ele><time>2026-04-04T08:26:30.009Z</time></trkpt><trkpt lat="41.06097" lon="14.4392667"><ele>310.2</ele><time>2026-04-04T08:26:31.007Z</time></trkpt><trkpt lat="41.061025" lon="14.4393533"><ele>309.40000000000003</ele><time>2026-04-04T08:26:32.008Z</time></trkpt><trkpt lat="41.061085" lon="14.4394483"><ele>308.6</ele><time>2026-04-04T08:26:33.007Z</time></trkpt><trkpt lat="41.0611433" lon="14.4395467"><ele>307.8</ele><time>2026-04-04T08:26:34.006Z</time></trkpt><trkpt lat="41.0612" lon="14.439645"><ele>307.0</ele><time>2026-04-04T08:26:35.007Z</time></trkpt><trkpt lat="41.0612517" lon="14.43974"><ele>306.6</ele><time>2026-04-04T08:26:36.007Z</time></trkpt><trkpt lat="41.0613083" lon="14.4398267"><ele>306.2</ele><time>2026-04-04T08:26:37.006Z</time></trkpt><trkpt lat="41.0613633" lon="14.439925"><ele>305.8</ele><time>2026-04-04T08:26:38.007Z</time></trkpt><trkpt lat="41.0614133" lon="14.4400383"><ele>305.4</ele><time>2026-04-04T08:26:39.006Z</time></trkpt><trkpt lat="41.0614567" lon="14.440155"><ele>305.0</ele><time>2026-04-04T08:26:40.006Z</time></trkpt><trkpt lat="41.0614967" lon="14.4402667"><ele>305.0</ele><time>2026-04-04T08:26:41.009Z</time></trkpt><trkpt lat="41.0615217" lon="14.4403867"><ele>305.0</ele><time>2026-04-04T08:26:42.007Z</time></trkpt><trkpt lat="41.0615433" lon="14.4405033"><ele>305.0</ele><time>2026-04-04T08:26:43.007Z</time></trkpt><trkpt lat="41.06157" lon="14.4406217"><ele>305.0</ele><time>2026-04-04T08:26:44.007Z</time></trkpt><trkpt lat="41.061595" lon="14.4407383"><ele>305.0</ele><time>2026-04-04T08:26:45.007Z</time></trkpt><trkpt lat="41.0616183" lon="14.4408583"><ele>304.8</ele><time>2026-04-04T08:26:46.007Z</time></trkpt><trkpt lat="41.0616383" lon="14.4409867"><ele>304.6</ele><time>2026-04-04T08:26:47.008Z</time></trkpt><trkpt lat="41.0616483" lon="14.4411167"><ele>304.4</ele><time>2026-04-04T08:26:48.007Z</time></trkpt><trkpt lat="41.06166" lon="14.4412417"><ele>304.2</ele><time>2026-04-04T08:26:49.008Z</time></trkpt><trkpt lat="41.0616667" lon="14.44137"><ele>304.0</ele><time>2026-04-04T08:26:50.008Z</time></trkpt><trkpt lat="41.06168" lon="14.441495"><ele>303.5</ele><time>2026-04-04T08:26:51.008Z</time></trkpt><trkpt lat="41.0616883" lon="14.441615"><ele>303.0</ele><time>2026-04-04T08:26:52.006Z</time></trkpt><trkpt lat="41.061695" lon="14.4417317"><ele>302.5</ele><time>2026-04-04T08:26:53.008Z</time></trkpt><trkpt lat="41.061705" lon="14.441845"><ele>302.0</ele><time>2026-04-04T08:26:54.007Z</time></trkpt><trkpt lat="41.06172" lon="14.4419617"><ele>301.5</ele><time>2026-04-04T08:26:55.006Z</time></trkpt><trkpt lat="41.0617317" lon="14.4420733"><ele>301.0</ele><time>2026-04-04T08:26:56.007Z</time></trkpt><trkpt lat="41.061735" lon="14.4421867"><ele>300.0</ele><time>2026-04-04T08:26:57.01Z</time></trkpt><trkpt lat="41.06173" lon="14.4422983"><ele>299.0</ele><time>2026-04-04T08:26:58.009Z</time></trkpt><trkpt lat="41.06173" lon="14.4424083"><ele>298.0</ele><time>2026-04-04T08:26:59.007Z</time></trkpt><trkpt lat="41.0617383" lon="14.442515"><ele>297.0</ele><time>2026-04-04T08:27:00.008Z</time></trkpt><trkpt lat="41.061745" lon="14.4426233"><ele>296.0</ele><time>2026-04-04T08:27:01.013Z</time></trkpt><trkpt lat="41.0617567" lon="14.4427333"><ele>295.0</ele><time>2026-04-04T08:27:02.009Z</time></trkpt><trkpt lat="41.06177" lon="14.44284"><ele>295.0</ele><time>2026-04-04T08:27:03.008Z</time></trkpt><trkpt lat="41.0617883" lon="14.442945"><ele>295.0</ele><time>2026-04-04T08:27:04.008Z</time></trkpt><trkpt lat="41.0617983" lon="14.4430467"><ele>295.0</ele><time>2026-04-04T08:27:05.009Z</time></trkpt><trkpt lat="41.0618017" lon="14.44314"><ele>295.0</ele><time>2026-04-04T08:27:06.008Z</time></trkpt><trkpt lat="41.061815" lon="14.44324"><ele>295.0</ele><time>2026-04-04T08:27:07.008Z</time></trkpt><trkpt lat="41.0618233" lon="14.44334"><ele>295.0</ele><time>2026-04-04T08:27:08.007Z</time></trkpt><trkpt lat="41.061835" lon="14.44344"><ele>295.16666666666663</ele><time>2026-04-04T08:27:09.007Z</time></trkpt><trkpt lat="41.0618483" lon="14.4435433"><ele>295.3333333333333</ele><time>2026-04-04T08:27:10.008Z</time></trkpt><trkpt lat="41.06186" lon="14.4436467"><ele>295.5</ele><time>2026-04-04T08:27:11.009Z</time></trkpt><trkpt lat="41.0618733" lon="14.4437483"><ele>295.6666666666667</ele><time>2026-04-04T08:27:12.007Z</time></trkpt><trkpt lat="41.0618883" lon="14.44385"><ele>295.83333333333337</ele><time>2026-04-04T08:27:13.008Z</time></trkpt><trkpt lat="41.061905" lon="14.443945"><ele>296.0</ele><time>2026-04-04T08:27:14.006Z</time></trkpt><trkpt lat="41.0619083" lon="14.4440417"><ele>296.0</ele><time>2026-04-04T08:27:15.006Z</time></trkpt><trkpt lat="41.0619167" lon="14.4441417"><ele>296.0</ele><time>2026-04-04T08:27:16.007Z</time></trkpt><trkpt lat="41.0619283" lon="14.4442417"><ele>296.0</ele><time>2026-04-04T08:27:17.006Z</time></trkpt><trkpt lat="41.0619467" lon="14.4443417"><ele>296.0</ele><time>2026-04-04T08:27:18.007Z</time></trkpt><trkpt lat="41.061975" lon="14.44444"><ele>296.0</ele><time>2026-04-04T08:27:19.007Z</time></trkpt><trkpt lat="41.06201" lon="14.4445483"><ele>296.0</ele><time>2026-04-04T08:27:20.007Z</time></trkpt><trkpt lat="41.0620433" lon="14.4446583"><ele>296.0</ele><time>2026-04-04T08:27:21.008Z</time></trkpt><trkpt lat="41.0620717" lon="14.4447683"><ele>296.0</ele><time>2026-04-04T08:27:22.007Z</time></trkpt><trkpt lat="41.0621017" lon="14.4448633"><ele>296.0</ele><time>2026-04-04T08:27:23.006Z</time></trkpt><trkpt lat="41.06214" lon="14.4449583"><ele>296.0</ele><time>2026-04-04T08:27:24.007Z</time></trkpt><trkpt lat="41.0621733" lon="14.4450517"><ele>296.0</ele><time>2026-04-04T08:27:25.007Z</time></trkpt><trkpt lat="41.0622133" lon="14.4451183"><ele>296.0</ele><time>2026-04-04T08:27:26.006Z</time></trkpt><trkpt lat="41.06225" lon="14.4451933"><ele>296.0</ele><time>2026-04-04T08:27:27.006Z</time></trkpt><trkpt lat="41.0622833" lon="14.4452817"><ele>296.0</ele><time>2026-04-04T08:27:29.01Z</time></trkpt><trkpt lat="41.0623167" lon="14.4453717"><ele>296.0</ele><time>2026-04-04T08:27:33.007Z</time></trkpt><trkpt lat="41.0623633" lon="14.445455"><ele>296.0</ele><time>2026-04-04T08:27:36.007Z</time></trkpt><trkpt lat="41.0624033" lon="14.44554"><ele>296.0</ele><time>2026-04-04T08:27:38.007Z</time></trkpt><trkpt lat="41.0624667" lon="14.445625"><ele>296.0</ele><time>2026-04-04T08:27:40.007Z</time></trkpt><trkpt lat="41.0625233" lon="14.4457233"><ele>295.33333333333337</ele><time>2026-04-04T08:27:42.008Z</time></trkpt><trkpt lat="41.06256" lon="14.445815"><ele>294.6666666666667</ele><time>2026-04-04T08:27:44.007Z</time></trkpt><trkpt lat="41.0625917" lon="14.4459067"><ele>294.0</ele><time>2026-04-04T08:27:46.006Z</time></trkpt><trkpt lat="41.0626383" lon="14.4460133"><ele>293.3333333333333</ele><time>2026-04-04T08:27:48.007Z</time></trkpt><trkpt lat="41.0626883" lon="14.4461433"><ele>292.66666666666663</ele><time>2026-04-04T08:27:50.006Z</time></trkpt><trkpt lat="41.0627183" lon="14.4462233"><ele>292.0</ele><time>2026-04-04T08:27:51.009Z</time></trkpt><trkpt lat="41.062745" lon="14.4463067"><ele>291.8</ele><time>2026-04-04T08:27:52.008Z</time></trkpt><trkpt lat="41.0627933" lon="14.4464667"><ele>291.6</ele><time>2026-04-04T08:27:54.006Z</time></trkpt><trkpt lat="41.0628133" lon="14.4465533"><ele>291.40000000000003</ele><time>2026-04-04T08:27:55.007Z</time></trkpt><trkpt lat="41.0628267" lon="14.446635"><ele>291.2</ele><time>2026-04-04T08:27:56.006Z</time></trkpt><trkpt lat="41.0628433" lon="14.4467233"><ele>291.0</ele><time>2026-04-04T08:27:57.005Z</time></trkpt><trkpt lat="41.0628717" lon="14.4468833"><ele>291.0</ele><time>2026-04-04T08:27:59.006Z</time></trkpt><trkpt lat="41.0628817" lon="14.4469767"><ele>291.0</ele><time>2026-04-04T08:28:00.007Z</time></trkpt><trkpt lat="41.062895" lon="14.4470633"><ele>291.0</ele><time>2026-04-04T08:28:01.006Z</time></trkpt><trkpt lat="41.0629033" lon="14.4471533"><ele>291.0</ele><time>2026-04-04T08:28:02.007Z</time></trkpt><trkpt lat="41.0629067" lon="14.4472483"><ele>291.0</ele><time>2026-04-04T08:28:03.005Z</time></trkpt><trkpt lat="41.0629167" lon="14.4473417"><ele>291.0</ele><time>2026-04-04T08:28:04.006Z</time></trkpt><trkpt lat="41.062905" lon="14.447435"><ele>291.0</ele><time>2026-04-04T08:28:05.006Z</time></trkpt><trkpt lat="41.0629183" lon="14.4476017"><ele>290.85714285714283</ele><time>2026-04-04T08:28:07.006Z</time></trkpt><trkpt lat="41.062935" lon="14.4476867"><ele>290.71428571428567</ele><time>2026-04-04T08:28:08.006Z</time></trkpt><trkpt lat="41.0629567" lon="14.44777"><ele>290.57142857142856</ele><time>2026-04-04T08:28:09.005Z</time></trkpt><trkpt lat="41.0629783" lon="14.4478583"><ele>290.42857142857144</ele><time>2026-04-04T08:28:10.006Z</time></trkpt><trkpt lat="41.0630017" lon="14.44795"><ele>290.28571428571433</ele><time>2026-04-04T08:28:11.005Z</time></trkpt><trkpt lat="41.063025" lon="14.44804"><ele>290.14285714285717</ele><time>2026-04-04T08:28:12.006Z</time></trkpt><trkpt lat="41.0630533" lon="14.4481333"><ele>290.0</ele><time>2026-04-04T08:28:13.014Z</time></trkpt><trkpt lat="41.0630783" lon="14.4482267"><ele>289.83333333333337</ele><time>2026-04-04T08:28:14.007Z</time></trkpt><trkpt lat="41.063105" lon="14.4483167"><ele>289.6666666666667</ele><time>2026-04-04T08:28:15.008Z</time></trkpt><trkpt lat="41.0631333" lon="14.4484083"><ele>289.5</ele><time>2026-04-04T08:28:16.005Z</time></trkpt><trkpt lat="41.0631633" lon="14.4485"><ele>289.3333333333333</ele><time>2026-04-04T08:28:17.006Z</time></trkpt><trkpt lat="41.0631933" lon="14.4485933"><ele>289.16666666666663</ele><time>2026-04-04T08:28:18.006Z</time></trkpt><trkpt lat="41.0632267" lon="14.44869"><ele>289.0</ele><time>2026-04-04T08:28:19.005Z</time></trkpt><trkpt lat="41.0632633" lon="14.4487833"><ele>288.66666666666663</ele><time>2026-04-04T08:28:20.006Z</time></trkpt><trkpt lat="41.063295" lon="14.4488783"><ele>288.3333333333333</ele><time>2026-04-04T08:28:21.005Z</time></trkpt><trkpt lat="41.0633317" lon="14.4489733"><ele>288.0</ele><time>2026-04-04T08:28:22.005Z</time></trkpt><trkpt lat="41.0633667" lon="14.4490717"><ele>287.6666666666667</ele><time>2026-04-04T08:28:23.006Z</time></trkpt><trkpt lat="41.0633983" lon="14.44917"><ele>287.33333333333337</ele><time>2026-04-04T08:28:24.006Z</time></trkpt><trkpt lat="41.06343" lon="14.44927"><ele>287.0</ele><time>2026-04-04T08:28:25.006Z</time></trkpt><trkpt lat="41.0634567" lon="14.44937"><ele>287.0</ele><time>2026-04-04T08:28:26.006Z</time></trkpt><trkpt lat="41.0634833" lon="14.44947"><ele>287.0</ele><time>2026-04-04T08:28:27.009Z</time></trkpt><trkpt lat="41.0635133" lon="14.4495683"><ele>287.0</ele><time>2026-04-04T08:28:28.007Z</time></trkpt><trkpt lat="41.063545" lon="14.4496667"><ele>287.0</ele><time>2026-04-04T08:28:29.01Z</time></trkpt><trkpt lat="41.0635733" lon="14.4497667"><ele>287.0</ele><time>2026-04-04T08:28:30.008Z</time></trkpt><trkpt lat="41.0636017" lon="14.4498717"><ele>287.0</ele><time>2026-04-04T08:28:31.007Z</time></trkpt><trkpt lat="41.0636317" lon="14.449975"><ele>286.83333333333337</ele><time>2026-04-04T08:28:32.007Z</time></trkpt><trkpt lat="41.06366" lon="14.4500733"><ele>286.6666666666667</ele><time>2026-04-04T08:28:33.007Z</time></trkpt><trkpt lat="41.0636883" lon="14.4501683"><ele>286.5</ele><time>2026-04-04T08:28:34.007Z</time></trkpt><trkpt lat="41.063715" lon="14.4502683"><ele>286.3333333333333</ele><time>2026-04-04T08:28:35.006Z</time></trkpt><trkpt lat="41.0637417" lon="14.450365"><ele>286.16666666666663</ele><time>2026-04-04T08:28:36.008Z</time></trkpt><trkpt lat="41.06377" lon="14.450465"><ele>286.0</ele><time>2026-04-04T08:28:37.008Z</time></trkpt><trkpt lat="41.0637983" lon="14.4505633"><ele>286.0</ele><time>2026-04-04T08:28:38.008Z</time></trkpt><trkpt lat="41.06383" lon="14.4506617"><ele>286.0</ele><time>2026-04-04T08:28:39.009Z</time></trkpt><trkpt lat="41.0638617" lon="14.4507583"><ele>286.0</ele><time>2026-04-04T08:28:40.007Z</time></trkpt><trkpt lat="41.0638917" lon="14.4508533"><ele>286.0</ele><time>2026-04-04T08:28:41.009Z</time></trkpt><trkpt lat="41.06392" lon="14.4509517"><ele>286.0</ele><time>2026-04-04T08:28:42.01Z</time></trkpt><trkpt lat="41.063945" lon="14.45105"><ele>286.0</ele><time>2026-04-04T08:28:43.008Z</time></trkpt><trkpt lat="41.0639733" lon="14.4511467"><ele>285.99999999999994</ele><time>2026-04-04T08:28:44.007Z</time></trkpt><trkpt lat="41.064005" lon="14.4512417"><ele>286.0</ele><time>2026-04-04T08:28:45.01Z</time></trkpt><trkpt lat="41.0640333" lon="14.451335"><ele>286.0</ele><time>2026-04-04T08:28:46.007Z</time></trkpt><trkpt lat="41.06406" lon="14.451425"><ele>286.0</ele><time>2026-04-04T08:28:47.013Z</time></trkpt><trkpt lat="41.0640883" lon="14.4515117"><ele>286.0</ele><time>2026-04-04T08:28:48.009Z</time></trkpt><trkpt lat="41.0641133" lon="14.4516017"><ele>285.99999999999994</ele><time>2026-04-04T08:28:49.006Z</time></trkpt><trkpt lat="41.0641417" lon="14.4516917"><ele>286.0</ele><time>2026-04-04T08:28:50.007Z</time></trkpt><trkpt lat="41.06417" lon="14.4517833"><ele>285.71428571428567</ele><time>2026-04-04T08:28:51.01Z</time></trkpt><trkpt lat="41.0641933" lon="14.4518717"><ele>285.42857142857144</ele><time>2026-04-04T08:28:52.007Z</time></trkpt><trkpt lat="41.0642233" lon="14.451965"><ele>285.1428571428571</ele><time>2026-04-04T08:28:53.007Z</time></trkpt><trkpt lat="41.0642467" lon="14.4520583"><ele>284.85714285714283</ele><time>2026-04-04T08:28:54.011Z</time></trkpt><trkpt lat="41.0642733" lon="14.4521517"><ele>284.57142857142856</ele><time>2026-04-04T08:28:55.008Z</time></trkpt><trkpt lat="41.0643033" lon="14.4522433"><ele>284.2857142857143</ele><time>2026-04-04T08:28:56.008Z</time></trkpt><trkpt lat="41.0643283" lon="14.4523333"><ele>284.0</ele><time>2026-04-04T08:28:57.007Z</time></trkpt><trkpt lat="41.0643517" lon="14.4524233"><ele>284.0</ele><time>2026-04-04T08:28:58.007Z</time></trkpt><trkpt lat="41.064365" lon="14.4525133"><ele>284.0</ele><time>2026-04-04T08:28:59.007Z</time></trkpt><trkpt lat="41.0643783" lon="14.4526"><ele>284.0</ele><time>2026-04-04T08:29:00.015Z</time></trkpt><trkpt lat="41.064395" lon="14.4526867"><ele>284.0</ele><time>2026-04-04T08:29:01.008Z</time></trkpt><trkpt lat="41.0644133" lon="14.4527717"><ele>284.0</ele><time>2026-04-04T08:29:02.007Z</time></trkpt><trkpt lat="41.0644283" lon="14.45286"><ele>284.0</ele><time>2026-04-04T08:29:03.007Z</time></trkpt><trkpt lat="41.0644467" lon="14.4530083"><ele>283.5</ele><time>2026-04-04T08:29:05.008Z</time></trkpt><trkpt lat="41.06447" lon="14.4531633"><ele>283.0</ele><time>2026-04-04T08:29:07.007Z</time></trkpt><trkpt lat="41.0644867" lon="14.4533217"><ele>282.5</ele><time>2026-04-04T08:29:09.006Z</time></trkpt><trkpt lat="41.064505" lon="14.4534767"><ele>282.0</ele><time>2026-04-04T08:29:11.006Z</time></trkpt><trkpt lat="41.0645183" lon="14.4536367"><ele>282.0</ele><time>2026-04-04T08:29:13.008Z</time></trkpt><trkpt lat="41.06453" lon="14.45372"><ele>282.0</ele><time>2026-04-04T08:29:14.007Z</time></trkpt><trkpt lat="41.0645383" lon="14.4538033"><ele>282.0</ele><time>2026-04-04T08:29:15.006Z</time></trkpt><trkpt lat="41.064545" lon="14.4538867"><ele>282.0</ele><time>2026-04-04T08:29:16.007Z</time></trkpt><trkpt lat="41.064555" lon="14.4540483"><ele>282.0</ele><time>2026-04-04T08:29:18.008Z</time></trkpt><trkpt lat="41.064555" lon="14.4542117"><ele>282.0</ele><time>2026-04-04T08:29:20.007Z</time></trkpt><trkpt lat="41.0645633" lon="14.4543617"><ele>282.0</ele><time>2026-04-04T08:29:22.005Z</time></trkpt><trkpt lat="41.0645683" lon="14.454525"><ele>282.0</ele><time>2026-04-04T08:29:24.006Z</time></trkpt><trkpt lat="41.0645683" lon="14.45461"><ele>282.0</ele><time>2026-04-04T08:29:25.007Z</time></trkpt><trkpt lat="41.06457" lon="14.4547767"><ele>282.0</ele><time>2026-04-04T08:29:27.007Z</time></trkpt><trkpt lat="41.06457" lon="14.4549417"><ele>282.0</ele><time>2026-04-04T08:29:29.007Z</time></trkpt><trkpt lat="41.0645667" lon="14.4550267"><ele>282.0</ele><time>2026-04-04T08:29:30.006Z</time></trkpt><trkpt lat="41.0645617" lon="14.4551117"><ele>282.0</ele><time>2026-04-04T08:29:31.006Z</time></trkpt><trkpt lat="41.0645583" lon="14.4551983"><ele>282.0</ele><time>2026-04-04T08:29:32.006Z</time></trkpt><trkpt lat="41.0645483" lon="14.4552833"><ele>282.0</ele><time>2026-04-04T08:29:33.007Z</time></trkpt><trkpt lat="41.0645367" lon="14.4553683"><ele>282.0</ele><time>2026-04-04T08:29:34.006Z</time></trkpt><trkpt lat="41.0645267" lon="14.455455"><ele>282.0</ele><time>2026-04-04T08:29:35.006Z</time></trkpt><trkpt lat="41.0645183" lon="14.455545"><ele>282.0</ele><time>2026-04-04T08:29:36.006Z</time></trkpt><trkpt lat="41.0645067" lon="14.4556383"><ele>282.0</ele><time>2026-04-04T08:29:37.006Z</time></trkpt><trkpt lat="41.064495" lon="14.455735"><ele>282.0</ele><time>2026-04-04T08:29:38.006Z</time></trkpt><trkpt lat="41.0644867" lon="14.4558317"><ele>282.0</ele><time>2026-04-04T08:29:39.006Z</time></trkpt><trkpt lat="41.0644767" lon="14.45593"><ele>282.0</ele><time>2026-04-04T08:29:40.005Z</time></trkpt><trkpt lat="41.0644683" lon="14.4560317"><ele>282.0</ele><time>2026-04-04T08:29:41.006Z</time></trkpt><trkpt lat="41.0644583" lon="14.4561333"><ele>282.0</ele><time>2026-04-04T08:29:42.007Z</time></trkpt><trkpt lat="41.06445" lon="14.4562383"><ele>281.8333333333333</ele><time>2026-04-04T08:29:43.006Z</time></trkpt><trkpt lat="41.0644417" lon="14.456345"><ele>281.6666666666667</ele><time>2026-04-04T08:29:44.007Z</time></trkpt><trkpt lat="41.064435" lon="14.4564533"><ele>281.5</ele><time>2026-04-04T08:29:45.007Z</time></trkpt><trkpt lat="41.0644267" lon="14.4565617"><ele>281.33333333333337</ele><time>2026-04-04T08:29:46.007Z</time></trkpt><trkpt lat="41.0644167" lon="14.4566733"><ele>281.1666666666667</ele><time>2026-04-04T08:29:47.007Z</time></trkpt><trkpt lat="41.064405" lon="14.4567817"><ele>281.0</ele><time>2026-04-04T08:29:48.006Z</time></trkpt><trkpt lat="41.06439" lon="14.4568817"><ele>281.0</ele><time>2026-04-04T08:29:49.007Z</time></trkpt><trkpt lat="41.064365" lon="14.4569783"><ele>281.0</ele><time>2026-04-04T08:29:50.007Z</time></trkpt><trkpt lat="41.0643417" lon="14.4570717"><ele>281.0</ele><time>2026-04-04T08:29:51.006Z</time></trkpt><trkpt lat="41.0643017" lon="14.4571533"><ele>281.0</ele><time>2026-04-04T08:29:52.007Z</time></trkpt><trkpt lat="41.064255" lon="14.4572283"><ele>281.0</ele><time>2026-04-04T08:29:53.006Z</time></trkpt><trkpt lat="41.064195" lon="14.4572983"><ele>281.0</ele><time>2026-04-04T08:29:54.007Z</time></trkpt><trkpt lat="41.06414" lon="14.4573717"><ele>282.00000000000006</ele><time>2026-04-04T08:29:55.006Z</time></trkpt><trkpt lat="41.064095" lon="14.4574367"><ele>283.0</ele><time>2026-04-04T08:29:56.006Z</time></trkpt><trkpt lat="41.064045" lon="14.4575"><ele>284.0</ele><time>2026-04-04T08:29:57.006Z</time></trkpt><trkpt lat="41.0639967" lon="14.4575667"><ele>285.0</ele><time>2026-04-04T08:29:58.006Z</time></trkpt><trkpt lat="41.0639417" lon="14.4576217"><ele>286.0</ele><time>2026-04-04T08:29:59.005Z</time></trkpt><trkpt lat="41.06388" lon="14.4576667"><ele>287.00000000000006</ele><time>2026-04-04T08:30:00.007Z</time></trkpt><trkpt lat="41.0638217" lon="14.457705"><ele>288.0</ele><time>2026-04-04T08:30:01.005Z</time></trkpt><trkpt lat="41.063735" lon="14.4577933"><ele>288.0</ele><time>2026-04-04T08:30:03.007Z</time></trkpt><trkpt lat="41.0636967" lon="14.4579217"><ele>288.0</ele><time>2026-04-04T08:30:05.006Z</time></trkpt><trkpt lat="41.0636933" lon="14.458085"><ele>288.0</ele><time>2026-04-04T08:30:07.006Z</time></trkpt><trkpt lat="41.0637033" lon="14.45818"><ele>288.0</ele><time>2026-04-04T08:30:08.006Z</time></trkpt><trkpt lat="41.0637183" lon="14.4582783"><ele>288.0</ele><time>2026-04-04T08:30:09.007Z</time></trkpt><trkpt lat="41.0637383" lon="14.45838"><ele>288.1666666666667</ele><time>2026-04-04T08:30:10.006Z</time></trkpt><trkpt lat="41.0637567" lon="14.45848"><ele>288.3333333333333</ele><time>2026-04-04T08:30:11.007Z</time></trkpt><trkpt lat="41.063775" lon="14.45858"><ele>288.5</ele><time>2026-04-04T08:30:12.006Z</time></trkpt><trkpt lat="41.0637967" lon="14.458685"><ele>288.66666666666663</ele><time>2026-04-04T08:30:13.006Z</time></trkpt><trkpt lat="41.063815" lon="14.4587883"><ele>288.8333333333333</ele><time>2026-04-04T08:30:14.006Z</time></trkpt><trkpt lat="41.0638367" lon="14.4588933"><ele>289.0</ele><time>2026-04-04T08:30:15.006Z</time></trkpt><trkpt lat="41.0638583" lon="14.4590017"><ele>289.16666666666663</ele><time>2026-04-04T08:30:16.006Z</time></trkpt><trkpt lat="41.0638783" lon="14.4591167"><ele>289.3333333333333</ele><time>2026-04-04T08:30:17.006Z</time></trkpt><trkpt lat="41.0639" lon="14.4592283"><ele>289.5</ele><time>2026-04-04T08:30:18.008Z</time></trkpt><trkpt lat="41.0639183" lon="14.4593417"><ele>289.6666666666667</ele><time>2026-04-04T08:30:19.006Z</time></trkpt><trkpt lat="41.0639383" lon="14.4594533"><ele>289.83333333333337</ele><time>2026-04-04T08:30:20.007Z</time></trkpt><trkpt lat="41.063955" lon="14.4595667"><ele>290.0</ele><time>2026-04-04T08:30:21.009Z</time></trkpt><trkpt lat="41.06397" lon="14.4596783"><ele>290.1666666666667</ele><time>2026-04-04T08:30:22.009Z</time></trkpt><trkpt lat="41.0639867" lon="14.4597933"><ele>290.33333333333337</ele><time>2026-04-04T08:30:23.008Z</time></trkpt><trkpt lat="41.064005" lon="14.4599083"><ele>290.5</ele><time>2026-04-04T08:30:24.008Z</time></trkpt><trkpt lat="41.0640233" lon="14.4600217"><ele>290.6666666666667</ele><time>2026-04-04T08:30:25.008Z</time></trkpt><trkpt lat="41.0640433" lon="14.4601383"><ele>290.8333333333333</ele><time>2026-04-04T08:30:26.01Z</time></trkpt><trkpt lat="41.0640633" lon="14.460255"><ele>291.0</ele><time>2026-04-04T08:30:27.008Z</time></trkpt><trkpt lat="41.0640833" lon="14.4603733"><ele>290.8</ele><time>2026-04-04T08:30:28.009Z</time></trkpt><trkpt lat="41.06411" lon="14.4604967"><ele>290.6</ele><time>2026-04-04T08:30:29.008Z</time></trkpt><trkpt lat="41.0641333" lon="14.4606233"><ele>290.4</ele><time>2026-04-04T08:30:30.008Z</time></trkpt><trkpt lat="41.064155" lon="14.46075"><ele>290.2</ele><time>2026-04-04T08:30:31.007Z</time></trkpt><trkpt lat="41.06418" lon="14.460875"><ele>290.0</ele><time>2026-04-04T08:30:32.007Z</time></trkpt><trkpt lat="41.0642033" lon="14.4609933"><ele>288.1666666666667</ele><time>2026-04-04T08:30:33.007Z</time></trkpt><trkpt lat="41.064225" lon="14.46111"><ele>286.33333333333337</ele><time>2026-04-04T08:30:34.006Z</time></trkpt><trkpt lat="41.0642483" lon="14.4612267"><ele>284.5</ele><time>2026-04-04T08:30:35.006Z</time></trkpt><trkpt lat="41.0642717" lon="14.4613417"><ele>282.6666666666667</ele><time>2026-04-04T08:30:36.006Z</time></trkpt><trkpt lat="41.0642933" lon="14.461455"><ele>280.8333333333333</ele><time>2026-04-04T08:30:37.006Z</time></trkpt><trkpt lat="41.064315" lon="14.46157"><ele>279.0</ele><time>2026-04-04T08:30:38.006Z</time></trkpt><trkpt lat="41.064335" lon="14.461685"><ele>279.0</ele><time>2026-04-04T08:30:39.007Z</time></trkpt><trkpt lat="41.0643567" lon="14.4617983"><ele>279.0</ele><time>2026-04-04T08:30:40.007Z</time></trkpt><trkpt lat="41.0643767" lon="14.4619133"><ele>279.0</ele><time>2026-04-04T08:30:41.007Z</time></trkpt><trkpt lat="41.0643933" lon="14.4620267"><ele>279.0</ele><time>2026-04-04T08:30:42.006Z</time></trkpt><trkpt lat="41.064415" lon="14.46214"><ele>279.0</ele><time>2026-04-04T08:30:43.006Z</time></trkpt><trkpt lat="41.06444" lon="14.4622567"><ele>279.0</ele><time>2026-04-04T08:30:44.007Z</time></trkpt><trkpt lat="41.0644667" lon="14.4623683"><ele>279.6666666666667</ele><time>2026-04-04T08:30:45.007Z</time></trkpt><trkpt lat="41.0644967" lon="14.46248"><ele>280.3333333333333</ele><time>2026-04-04T08:30:46.006Z</time></trkpt><trkpt lat="41.0645283" lon="14.4625917"><ele>281.0</ele><time>2026-04-04T08:30:47.006Z</time></trkpt><trkpt lat="41.064555" lon="14.4627017"><ele>281.66666666666663</ele><time>2026-04-04T08:30:48.006Z</time></trkpt><trkpt lat="41.0645833" lon="14.46281"><ele>282.3333333333333</ele><time>2026-04-04T08:30:49.006Z</time></trkpt><trkpt lat="41.06461" lon="14.46292"><ele>283.0</ele><time>2026-04-04T08:30:50.008Z</time></trkpt><trkpt lat="41.0646383" lon="14.4630267"><ele>283.16666666666663</ele><time>2026-04-04T08:30:51.006Z</time></trkpt><trkpt lat="41.0646617" lon="14.4631333"><ele>283.3333333333333</ele><time>2026-04-04T08:30:52.007Z</time></trkpt><trkpt lat="41.0646867" lon="14.4632383"><ele>283.5</ele><time>2026-04-04T08:30:53.006Z</time></trkpt><trkpt lat="41.0647067" lon="14.4633483"><ele>283.6666666666667</ele><time>2026-04-04T08:30:54.01Z</time></trkpt><trkpt lat="41.0647267" lon="14.4634567"><ele>283.83333333333337</ele><time>2026-04-04T08:30:55.006Z</time></trkpt><trkpt lat="41.0647467" lon="14.4635633"><ele>284.0</ele><time>2026-04-04T08:30:56.007Z</time></trkpt><trkpt lat="41.0647683" lon="14.46367"><ele>284.0</ele><time>2026-04-04T08:30:57.006Z</time></trkpt><trkpt lat="41.0647917" lon="14.4637733"><ele>284.0</ele><time>2026-04-04T08:30:58.009Z</time></trkpt><trkpt lat="41.0648117" lon="14.4638767"><ele>284.0</ele><time>2026-04-04T08:30:59.006Z</time></trkpt><trkpt lat="41.0648333" lon="14.4639817"><ele>284.0</ele><time>2026-04-04T08:31:00.011Z</time></trkpt><trkpt lat="41.0648517" lon="14.4640867"><ele>284.0</ele><time>2026-04-04T08:31:01.007Z</time></trkpt><trkpt lat="41.0648683" lon="14.4641933"><ele>284.0</ele><time>2026-04-04T08:31:02.008Z</time></trkpt><trkpt lat="41.0648867" lon="14.4643033"><ele>284.1666666666667</ele><time>2026-04-04T08:31:03.006Z</time></trkpt><trkpt lat="41.0649017" lon="14.4644117"><ele>284.33333333333337</ele><time>2026-04-04T08:31:04.007Z</time></trkpt><trkpt lat="41.0649183" lon="14.464515"><ele>284.5</ele><time>2026-04-04T08:31:05.006Z</time></trkpt><trkpt lat="41.0649317" lon="14.4646167"><ele>284.6666666666667</ele><time>2026-04-04T08:31:06.007Z</time></trkpt><trkpt lat="41.0649433" lon="14.464725"><ele>284.8333333333333</ele><time>2026-04-04T08:31:07.006Z</time></trkpt><trkpt lat="41.0649533" lon="14.4648317"><ele>285.0</ele><time>2026-04-04T08:31:08.006Z</time></trkpt><trkpt lat="41.0649567" lon="14.4649367"><ele>282.3333333333333</ele><time>2026-04-04T08:31:09.006Z</time></trkpt><trkpt lat="41.0649583" lon="14.4650383"><ele>279.6666666666667</ele><time>2026-04-04T08:31:10.006Z</time></trkpt><trkpt lat="41.0649633" lon="14.4651433"><ele>277.0</ele><time>2026-04-04T08:31:11.006Z</time></trkpt><trkpt lat="41.0649667" lon="14.4652517"><ele>274.33333333333337</ele><time>2026-04-04T08:31:12.011Z</time></trkpt><trkpt lat="41.0649633" lon="14.4653567"><ele>271.6666666666667</ele><time>2026-04-04T08:31:13.006Z</time></trkpt><trkpt lat="41.0649667" lon="14.4654617"><ele>269.0</ele><time>2026-04-04T08:31:14.006Z</time></trkpt><trkpt lat="41.06496" lon="14.4655717"><ele>268.83333333333337</ele><time>2026-04-04T08:31:15.006Z</time></trkpt><trkpt lat="41.0649517" lon="14.4656817"><ele>268.6666666666667</ele><time>2026-04-04T08:31:16.008Z</time></trkpt><trkpt lat="41.06495" lon="14.4657933"><ele>268.5</ele><time>2026-04-04T08:31:17.008Z</time></trkpt><trkpt lat="41.0649433" lon="14.4659067"><ele>268.3333333333333</ele><time>2026-04-04T08:31:18.008Z</time></trkpt><trkpt lat="41.06494" lon="14.466015"><ele>268.16666666666663</ele><time>2026-04-04T08:31:19.008Z</time></trkpt><trkpt lat="41.0649433" lon="14.466125"><ele>268.0</ele><time>2026-04-04T08:31:20.008Z</time></trkpt><trkpt lat="41.0649483" lon="14.46623"><ele>267.8333333333333</ele><time>2026-04-04T08:31:21.007Z</time></trkpt><trkpt lat="41.064955" lon="14.4663383"><ele>267.66666666666663</ele><time>2026-04-04T08:31:22.006Z</time></trkpt><trkpt lat="41.0649633" lon="14.466465"><ele>267.5</ele><time>2026-04-04T08:31:23.007Z</time></trkpt><trkpt lat="41.0649717" lon="14.466585"><ele>267.3333333333333</ele><time>2026-04-04T08:31:24.006Z</time></trkpt><trkpt lat="41.0649817" lon="14.4667033"><ele>267.1666666666667</ele><time>2026-04-04T08:31:25.006Z</time></trkpt><trkpt lat="41.065" lon="14.4668167"><ele>267.0</ele><time>2026-04-04T08:31:26.008Z</time></trkpt><trkpt lat="41.0650283" lon="14.4669317"><ele>267.0</ele><time>2026-04-04T08:31:27.009Z</time></trkpt><trkpt lat="41.0650517" lon="14.4670417"><ele>267.0</ele><time>2026-04-04T08:31:28.006Z</time></trkpt><trkpt lat="41.065075" lon="14.4671567"><ele>267.0</ele><time>2026-04-04T08:31:29.011Z</time></trkpt><trkpt lat="41.065095" lon="14.4672667"><ele>267.0</ele><time>2026-04-04T08:31:30.006Z</time></trkpt><trkpt lat="41.06512" lon="14.4673717"><ele>267.0</ele><time>2026-04-04T08:31:31.006Z</time></trkpt><trkpt lat="41.0651417" lon="14.467485"><ele>267.0</ele><time>2026-04-04T08:31:32.007Z</time></trkpt><trkpt lat="41.0651617" lon="14.4675917"><ele>267.3333333333333</ele><time>2026-04-04T08:31:33.007Z</time></trkpt><trkpt lat="41.065185" lon="14.4676983"><ele>267.6666666666667</ele><time>2026-04-04T08:31:34.006Z</time></trkpt><trkpt lat="41.06521" lon="14.467805"><ele>268.0</ele><time>2026-04-04T08:31:35.007Z</time></trkpt><trkpt lat="41.06523" lon="14.4679083"><ele>268.33333333333337</ele><time>2026-04-04T08:31:36.009Z</time></trkpt><trkpt lat="41.0652467" lon="14.4680117"><ele>268.6666666666667</ele><time>2026-04-04T08:31:37.006Z</time></trkpt><trkpt lat="41.0652633" lon="14.4681167"><ele>269.0</ele><time>2026-04-04T08:31:38.006Z</time></trkpt><trkpt lat="41.0652783" lon="14.46822"><ele>269.1666666666667</ele><time>2026-04-04T08:31:39.006Z</time></trkpt><trkpt lat="41.0652933" lon="14.4683217"><ele>269.33333333333337</ele><time>2026-04-04T08:31:40.007Z</time></trkpt><trkpt lat="41.06531" lon="14.468425"><ele>269.5</ele><time>2026-04-04T08:31:41.006Z</time></trkpt><trkpt lat="41.0653283" lon="14.46853"><ele>269.6666666666667</ele><time>2026-04-04T08:31:42.007Z</time></trkpt><trkpt lat="41.065345" lon="14.4686383"><ele>269.8333333333333</ele><time>2026-04-04T08:31:43.007Z</time></trkpt><trkpt lat="41.065365" lon="14.468745"><ele>270.0</ele><time>2026-04-04T08:31:44.006Z</time></trkpt><trkpt lat="41.065385" lon="14.4688483"><ele>269.6666666666667</ele><time>2026-04-04T08:31:45.006Z</time></trkpt><trkpt lat="41.0654017" lon="14.4689517"><ele>269.3333333333333</ele><time>2026-04-04T08:31:46.006Z</time></trkpt><trkpt lat="41.0654217" lon="14.4690533"><ele>269.0</ele><time>2026-04-04T08:31:47.006Z</time></trkpt><trkpt lat="41.0654483" lon="14.4691517"><ele>268.66666666666663</ele><time>2026-04-04T08:31:48.008Z</time></trkpt><trkpt lat="41.0654733" lon="14.4692483"><ele>268.3333333333333</ele><time>2026-04-04T08:31:49.006Z</time></trkpt><trkpt lat="41.06549" lon="14.4693483"><ele>268.0</ele><time>2026-04-04T08:31:50.006Z</time></trkpt><trkpt lat="41.0655083" lon="14.4694467"><ele>268.0</ele><time>2026-04-04T08:31:51.006Z</time></trkpt><trkpt lat="41.06552" lon="14.4695367"><ele>268.0</ele><time>2026-04-04T08:31:52.006Z</time></trkpt><trkpt lat="41.0655317" lon="14.4696283"><ele>268.0</ele><time>2026-04-04T08:31:53.006Z</time></trkpt><trkpt lat="41.0655467" lon="14.469715"><ele>268.0</ele><time>2026-04-04T08:31:54.008Z</time></trkpt><trkpt lat="41.0655683" lon="14.4698"><ele>268.0</ele><time>2026-04-04T08:31:55.007Z</time></trkpt><trkpt lat="41.0655917" lon="14.4698817"><ele>268.0</ele><time>2026-04-04T08:31:56.006Z</time></trkpt><trkpt lat="41.0656183" lon="14.469965"><ele>268.0</ele><time>2026-04-04T08:31:57.006Z</time></trkpt><trkpt lat="41.065645" lon="14.470045"><ele>268.2</ele><time>2026-04-04T08:31:58.006Z</time></trkpt><trkpt lat="41.0656967" lon="14.4701933"><ele>268.4</ele><time>2026-04-04T08:32:00.008Z</time></trkpt><trkpt lat="41.0657233" lon="14.47027"><ele>268.59999999999997</ele><time>2026-04-04T08:32:01.006Z</time></trkpt><trkpt lat="41.0657483" lon="14.47035"><ele>268.8</ele><time>2026-04-04T08:32:02.007Z</time></trkpt><trkpt lat="41.0657883" lon="14.4705017"><ele>269.0</ele><time>2026-04-04T08:32:04.006Z</time></trkpt><trkpt lat="41.0658117" lon="14.470655"><ele>268.59999999999997</ele><time>2026-04-04T08:32:06.006Z</time></trkpt><trkpt lat="41.06585" lon="14.4708"><ele>268.2</ele><time>2026-04-04T08:32:08.007Z</time></trkpt><trkpt lat="41.06589" lon="14.47093"><ele>267.79999999999995</ele><time>2026-04-04T08:32:10.006Z</time></trkpt><trkpt lat="41.0659133" lon="14.4710617"><ele>267.4</ele><time>2026-04-04T08:32:12.007Z</time></trkpt><trkpt lat="41.06593" lon="14.4712017"><ele>267.0</ele><time>2026-04-04T08:32:14.006Z</time></trkpt><trkpt lat="41.06596" lon="14.4713433"><ele>267.0</ele><time>2026-04-04T08:32:16.006Z</time></trkpt><trkpt lat="41.0659983" lon="14.4714983"><ele>267.0</ele><time>2026-04-04T08:32:18.007Z</time></trkpt><trkpt lat="41.066035" lon="14.4716533"><ele>267.0</ele><time>2026-04-04T08:32:20.007Z</time></trkpt><trkpt lat="41.066065" lon="14.4718017"><ele>267.0</ele><time>2026-04-04T08:32:22.007Z</time></trkpt><trkpt lat="41.066095" lon="14.4719517"><ele>267.0</ele><time>2026-04-04T08:32:24.008Z</time></trkpt><trkpt lat="41.0661383" lon="14.4721033"><ele>267.0</ele><time>2026-04-04T08:32:26.008Z</time></trkpt><trkpt lat="41.0661633" lon="14.47218"><ele>267.0</ele><time>2026-04-04T08:32:27.007Z</time></trkpt><trkpt lat="41.0661983" lon="14.47226"><ele>267.0</ele><time>2026-04-04T08:32:28.007Z</time></trkpt><trkpt lat="41.066235" lon="14.4723433"><ele>267.0</ele><time>2026-04-04T08:32:29.007Z</time></trkpt><trkpt lat="41.066265" lon="14.472435"><ele>267.0</ele><time>2026-04-04T08:32:30.009Z</time></trkpt><trkpt lat="41.0663" lon="14.4725333"><ele>267.4</ele><time>2026-04-04T08:32:31.007Z</time></trkpt><trkpt lat="41.0663317" lon="14.472635"><ele>267.79999999999995</ele><time>2026-04-04T08:32:32.007Z</time></trkpt><trkpt lat="41.066365" lon="14.4727483"><ele>268.2</ele><time>2026-04-04T08:32:33.007Z</time></trkpt><trkpt lat="41.0664" lon="14.4728683"><ele>268.59999999999997</ele><time>2026-04-04T08:32:34.008Z</time></trkpt><trkpt lat="41.066435" lon="14.4729933"><ele>269.0</ele><time>2026-04-04T08:32:35.007Z</time></trkpt><trkpt lat="41.06647" lon="14.47312"><ele>269.0</ele><time>2026-04-04T08:32:36.009Z</time></trkpt><trkpt lat="41.066505" lon="14.4732417"><ele>269.0</ele><time>2026-04-04T08:32:37.006Z</time></trkpt><trkpt lat="41.06654" lon="14.4733633"><ele>269.0</ele><time>2026-04-04T08:32:38.007Z</time></trkpt><trkpt lat="41.0665767" lon="14.473475"><ele>269.0</ele><time>2026-04-04T08:32:39.009Z</time></trkpt><trkpt lat="41.0666117" lon="14.4735733"><ele>269.0</ele><time>2026-04-04T08:32:40.007Z</time></trkpt><trkpt lat="41.0666433" lon="14.47367"><ele>266.6666666666667</ele><time>2026-04-04T08:32:41.006Z</time></trkpt><trkpt lat="41.0666833" lon="14.47377"><ele>264.33333333333337</ele><time>2026-04-04T08:32:42.008Z</time></trkpt><trkpt lat="41.066715" lon="14.473875"><ele>262.0</ele><time>2026-04-04T08:32:43.006Z</time></trkpt><trkpt lat="41.0667417" lon="14.4739883"><ele>259.6666666666667</ele><time>2026-04-04T08:32:44.007Z</time></trkpt><trkpt lat="41.0667717" lon="14.4741033"><ele>257.3333333333333</ele><time>2026-04-04T08:32:45.006Z</time></trkpt><trkpt lat="41.0668033" lon="14.474225"><ele>255.0</ele><time>2026-04-04T08:32:46.008Z</time></trkpt><trkpt lat="41.066835" lon="14.47435"><ele>254.6</ele><time>2026-04-04T08:32:47.008Z</time></trkpt><trkpt lat="41.06686" lon="14.4744767"><ele>254.2</ele><time>2026-04-04T08:32:48.008Z</time></trkpt><trkpt lat="41.066885" lon="14.474605"><ele>253.8</ele><time>2026-04-04T08:32:49.008Z</time></trkpt><trkpt lat="41.066905" lon="14.474735"><ele>253.4</ele><time>2026-04-04T08:32:50.008Z</time></trkpt><trkpt lat="41.0669233" lon="14.4748717"><ele>253.0</ele><time>2026-04-04T08:32:51.008Z</time></trkpt><trkpt lat="41.066945" lon="14.47501"><ele>252.60000000000002</ele><time>2026-04-04T08:32:52.009Z</time></trkpt><trkpt lat="41.06697" lon="14.47514"><ele>252.20000000000002</ele><time>2026-04-04T08:32:53.007Z</time></trkpt><trkpt lat="41.0669983" lon="14.47527"><ele>251.8</ele><time>2026-04-04T08:32:54.01Z</time></trkpt><trkpt lat="41.06703" lon="14.4753967"><ele>251.4</ele><time>2026-04-04T08:32:55.009Z</time></trkpt><trkpt lat="41.0670633" lon="14.4755167"><ele>251.0</ele><time>2026-04-04T08:32:56.007Z</time></trkpt><trkpt lat="41.0670967" lon="14.4756267"><ele>251.00000000000003</ele><time>2026-04-04T08:32:57.007Z</time></trkpt><trkpt lat="41.0671317" lon="14.475735"><ele>251.0</ele><time>2026-04-04T08:32:58.007Z</time></trkpt><trkpt lat="41.06716" lon="14.47584"><ele>251.0</ele><time>2026-04-04T08:32:59.006Z</time></trkpt><trkpt lat="41.0671917" lon="14.4759433"><ele>251.0</ele><time>2026-04-04T08:33:00.007Z</time></trkpt><trkpt lat="41.0672233" lon="14.4760433"><ele>251.00000000000003</ele><time>2026-04-04T08:33:01.007Z</time></trkpt><trkpt lat="41.0672567" lon="14.4761317"><ele>251.0</ele><time>2026-04-04T08:33:02.008Z</time></trkpt><trkpt lat="41.0672867" lon="14.4762233"><ele>251.71428571428567</ele><time>2026-04-04T08:33:03.009Z</time></trkpt><trkpt lat="41.0673167" lon="14.476315"><ele>252.42857142857142</ele><time>2026-04-04T08:33:04.008Z</time></trkpt><trkpt lat="41.067345" lon="14.4764033"><ele>253.1428571428571</ele><time>2026-04-04T08:33:05.008Z</time></trkpt><trkpt lat="41.0673767" lon="14.4764917"><ele>253.85714285714283</ele><time>2026-04-04T08:33:06.007Z</time></trkpt><trkpt lat="41.0674017" lon="14.4765767"><ele>254.57142857142856</ele><time>2026-04-04T08:33:07.007Z</time></trkpt><trkpt lat="41.067425" lon="14.4766633"><ele>255.28571428571428</ele><time>2026-04-04T08:33:08.008Z</time></trkpt><trkpt lat="41.0674483" lon="14.4767483"><ele>256.0</ele><time>2026-04-04T08:33:09.007Z</time></trkpt><trkpt lat="41.0674733" lon="14.4768333"><ele>254.33333333333331</ele><time>2026-04-04T08:33:10.009Z</time></trkpt><trkpt lat="41.0675" lon="14.47692"><ele>252.66666666666666</ele><time>2026-04-04T08:33:11.009Z</time></trkpt><trkpt lat="41.06753" lon="14.477"><ele>251.0</ele><time>2026-04-04T08:33:12.008Z</time></trkpt><trkpt lat="41.06756" lon="14.4770817"><ele>249.33333333333331</ele><time>2026-04-04T08:33:13.008Z</time></trkpt><trkpt lat="41.0675967" lon="14.4771667"><ele>247.66666666666666</ele><time>2026-04-04T08:33:14.009Z</time></trkpt><trkpt lat="41.0676383" lon="14.4772617"><ele>246.0</ele><time>2026-04-04T08:33:15.008Z</time></trkpt><trkpt lat="41.06768" lon="14.4773633"><ele>246.0</ele><time>2026-04-04T08:33:16.007Z</time></trkpt><trkpt lat="41.0677233" lon="14.4774633"><ele>246.00000000000003</ele><time>2026-04-04T08:33:17.01Z</time></trkpt><trkpt lat="41.0677717" lon="14.4775667"><ele>246.00000000000003</ele><time>2026-04-04T08:33:18.009Z</time></trkpt><trkpt lat="41.0678217" lon="14.4776767"><ele>246.0</ele><time>2026-04-04T08:33:19.009Z</time></trkpt><trkpt lat="41.0678667" lon="14.47779"><ele>246.0</ele><time>2026-04-04T08:33:20.009Z</time></trkpt><trkpt lat="41.0679133" lon="14.47791"><ele>247.20000000000002</ele><time>2026-04-04T08:33:21.009Z</time></trkpt><trkpt lat="41.067965" lon="14.47803"><ele>248.40000000000003</ele><time>2026-04-04T08:33:22.01Z</time></trkpt><trkpt lat="41.06802" lon="14.4781517"><ele>249.6</ele><time>2026-04-04T08:33:23.01Z</time></trkpt><trkpt lat="41.0680733" lon="14.4782767"><ele>250.8</ele><time>2026-04-04T08:33:24.01Z</time></trkpt><trkpt lat="41.0681133" lon="14.4784067"><ele>252.0</ele><time>2026-04-04T08:33:25.011Z</time></trkpt><trkpt lat="41.0681533" lon="14.4785367"><ele>252.0</ele><time>2026-04-04T08:33:26.008Z</time></trkpt><trkpt lat="41.0681983" lon="14.478665"><ele>252.0</ele><time>2026-04-04T08:33:27.009Z</time></trkpt><trkpt lat="41.0682417" lon="14.4787983"><ele>252.0</ele><time>2026-04-04T08:33:28.012Z</time></trkpt><trkpt lat="41.068285" lon="14.4789333"><ele>252.0</ele><time>2026-04-04T08:33:29.01Z</time></trkpt><trkpt lat="41.0683333" lon="14.4790717"><ele>252.0</ele><time>2026-04-04T08:33:30.012Z</time></trkpt><trkpt lat="41.0683883" lon="14.4792067"><ele>248.75</ele><time>2026-04-04T08:33:31.01Z</time></trkpt><trkpt lat="41.06844" lon="14.4793433"><ele>245.5</ele><time>2026-04-04T08:33:32.01Z</time></trkpt><trkpt lat="41.0684833" lon="14.4794883"><ele>242.25</ele><time>2026-04-04T08:33:33.009Z</time></trkpt><trkpt lat="41.0685217" lon="14.479635"><ele>239.0</ele><time>2026-04-04T08:33:34.011Z</time></trkpt><trkpt lat="41.0685617" lon="14.479775"><ele>239.0</ele><time>2026-04-04T08:33:35.007Z</time></trkpt><trkpt lat="41.0686033" lon="14.4799133"><ele>239.0</ele><time>2026-04-04T08:33:36.012Z</time></trkpt><trkpt lat="41.0686433" lon="14.4800533"><ele>239.0</ele><time>2026-04-04T08:33:37.009Z</time></trkpt><trkpt lat="41.0686817" lon="14.480195"><ele>239.0</ele><time>2026-04-04T08:33:38.01Z</time></trkpt><trkpt lat="41.0687217" lon="14.4803383"><ele>241.79999999999998</ele><time>2026-04-04T08:33:39.01Z</time></trkpt><trkpt lat="41.068765" lon="14.48047"><ele>244.59999999999997</ele><time>2026-04-04T08:33:40.01Z</time></trkpt><trkpt lat="41.0688067" lon="14.48059"><ele>247.4</ele><time>2026-04-04T08:33:41.01Z</time></trkpt><trkpt lat="41.0688617" lon="14.4807017"><ele>250.2</ele><time>2026-04-04T08:33:42.01Z</time></trkpt><trkpt lat="41.0689233" lon="14.4807933"><ele>253.0</ele><time>2026-04-04T08:33:43.008Z</time></trkpt><trkpt lat="41.0689967" lon="14.4808717"><ele>253.0</ele><time>2026-04-04T08:33:44.01Z</time></trkpt><trkpt lat="41.0690767" lon="14.48094"><ele>253.0</ele><time>2026-04-04T08:33:45.009Z</time></trkpt><trkpt lat="41.069155" lon="14.4810117"><ele>253.0</ele><time>2026-04-04T08:33:46.009Z</time></trkpt><trkpt lat="41.06923" lon="14.4810833"><ele>253.0</ele><time>2026-04-04T08:33:47.01Z</time></trkpt><trkpt lat="41.0692983" lon="14.4811583"><ele>253.0</ele><time>2026-04-04T08:33:48.011Z</time></trkpt><trkpt lat="41.069365" lon="14.481235"><ele>250.49999999999997</ele><time>2026-04-04T08:33:49.01Z</time></trkpt><trkpt lat="41.06943" lon="14.4813167"><ele>248.0</ele><time>2026-04-04T08:33:50.009Z</time></trkpt><trkpt lat="41.0694867" lon="14.4814033"><ele>245.5</ele><time>2026-04-04T08:33:51.01Z</time></trkpt><trkpt lat="41.0695417" lon="14.4814933"><ele>243.0</ele><time>2026-04-04T08:33:52.009Z</time></trkpt><trkpt lat="41.0695917" lon="14.4815883"><ele>240.49999999999997</ele><time>2026-04-04T08:33:53.009Z</time></trkpt><trkpt lat="41.0696417" lon="14.4816883"><ele>238.0</ele><time>2026-04-04T08:33:54.009Z</time></trkpt><trkpt lat="41.0696867" lon="14.481795"><ele>238.0</ele><time>2026-04-04T08:33:55.009Z</time></trkpt><trkpt lat="41.06973" lon="14.4819017"><ele>238.0</ele><time>2026-04-04T08:33:56.008Z</time></trkpt><trkpt lat="41.0697733" lon="14.48201"><ele>238.0</ele><time>2026-04-04T08:33:57.011Z</time></trkpt><trkpt lat="41.0698067" lon="14.48212"><ele>238.0</ele><time>2026-04-04T08:33:58.009Z</time></trkpt><trkpt lat="41.069845" lon="14.48223"><ele>238.0</ele><time>2026-04-04T08:33:59.01Z</time></trkpt><trkpt lat="41.0698833" lon="14.4823467"><ele>238.8</ele><time>2026-04-04T08:34:00.011Z</time></trkpt><trkpt lat="41.0699217" lon="14.4824667"><ele>239.60000000000002</ele><time>2026-04-04T08:34:01.011Z</time></trkpt><trkpt lat="41.0699617" lon="14.4825833"><ele>240.39999999999998</ele><time>2026-04-04T08:34:02.01Z</time></trkpt><trkpt lat="41.0699933" lon="14.4826983"><ele>241.2</ele><time>2026-04-04T08:34:03.01Z</time></trkpt><trkpt lat="41.07002" lon="14.4828183"><ele>242.0</ele><time>2026-04-04T08:34:04.01Z</time></trkpt><trkpt lat="41.0700467" lon="14.482945"><ele>238.0</ele><time>2026-04-04T08:34:05.01Z</time></trkpt><trkpt lat="41.0700717" lon="14.4830667"><ele>234.0</ele><time>2026-04-04T08:34:06.01Z</time></trkpt><trkpt lat="41.07009" lon="14.48319"><ele>230.0</ele><time>2026-04-04T08:34:07.008Z</time></trkpt><trkpt lat="41.0701033" lon="14.483315"><ele>226.0</ele><time>2026-04-04T08:34:08.011Z</time></trkpt><trkpt lat="41.0701117" lon="14.4834367"><ele>222.0</ele><time>2026-04-04T08:34:09.01Z</time></trkpt><trkpt lat="41.0701067" lon="14.4835633"><ele>222.0</ele><time>2026-04-04T08:34:10.009Z</time></trkpt><trkpt lat="41.0701017" lon="14.483685"><ele>222.0</ele><time>2026-04-04T08:34:11.01Z</time></trkpt><trkpt lat="41.070095" lon="14.483805"><ele>222.0</ele><time>2026-04-04T08:34:12.011Z</time></trkpt><trkpt lat="41.0700833" lon="14.4839267"><ele>222.0</ele><time>2026-04-04T08:34:13.01Z</time></trkpt><trkpt lat="41.07008" lon="14.4840533"><ele>222.0</ele><time>2026-04-04T08:34:14.009Z</time></trkpt><trkpt lat="41.0700683" lon="14.48418"><ele>222.0</ele><time>2026-04-04T08:34:15.011Z</time></trkpt><trkpt lat="41.0700667" lon="14.4843017"><ele>222.0</ele><time>2026-04-04T08:34:16.007Z</time></trkpt><trkpt lat="41.0700683" lon="14.48442"><ele>222.0</ele><time>2026-04-04T08:34:17.01Z</time></trkpt><trkpt lat="41.0700667" lon="14.4845333"><ele>222.0</ele><time>2026-04-04T08:34:18.009Z</time></trkpt><trkpt lat="41.0700667" lon="14.4846483"><ele>222.0</ele><time>2026-04-04T08:34:19.01Z</time></trkpt><trkpt lat="41.0700617" lon="14.4847633"><ele>222.0</ele><time>2026-04-04T08:34:20.008Z</time></trkpt><trkpt lat="41.0700533" lon="14.484875"><ele>222.0</ele><time>2026-04-04T08:34:21.011Z</time></trkpt><trkpt lat="41.0700467" lon="14.4849867"><ele>222.0</ele><time>2026-04-04T08:34:22.01Z</time></trkpt><trkpt lat="41.07004" lon="14.4850983"><ele>222.0</ele><time>2026-04-04T08:34:23.011Z</time></trkpt><trkpt lat="41.070035" lon="14.4852133"><ele>222.0</ele><time>2026-04-04T08:34:24.01Z</time></trkpt><trkpt lat="41.0700283" lon="14.485325"><ele>222.0</ele><time>2026-04-04T08:34:25.011Z</time></trkpt><trkpt lat="41.0700217" lon="14.485435"><ele>222.0</ele><time>2026-04-04T08:34:26.008Z</time></trkpt><trkpt lat="41.070015" lon="14.4855483"><ele>221.5</ele><time>2026-04-04T08:34:27.011Z</time></trkpt><trkpt lat="41.0700117" lon="14.4856567"><ele>221.0</ele><time>2026-04-04T08:34:28.01Z</time></trkpt><trkpt lat="41.0700117" lon="14.485765"><ele>220.5</ele><time>2026-04-04T08:34:29.012Z</time></trkpt><trkpt lat="41.0700067" lon="14.485875"><ele>220.0</ele><time>2026-04-04T08:34:30.011Z</time></trkpt><trkpt lat="41.0700067" lon="14.4859817"><ele>219.5</ele><time>2026-04-04T08:34:31.011Z</time></trkpt><trkpt lat="41.070005" lon="14.4860917"><ele>219.0</ele><time>2026-04-04T08:34:32.011Z</time></trkpt><trkpt lat="41.0700083" lon="14.4862017"><ele>219.66666666666666</ele><time>2026-04-04T08:34:33.01Z</time></trkpt><trkpt lat="41.0700033" lon="14.4863117"><ele>220.33333333333331</ele><time>2026-04-04T08:34:34.009Z</time></trkpt><trkpt lat="41.0700067" lon="14.4864217"><ele>221.0</ele><time>2026-04-04T08:34:35.011Z</time></trkpt><trkpt lat="41.070015" lon="14.4865283"><ele>221.66666666666666</ele><time>2026-04-04T08:34:36.011Z</time></trkpt><trkpt lat="41.0700283" lon="14.48664"><ele>222.33333333333331</ele><time>2026-04-04T08:34:37.011Z</time></trkpt><trkpt lat="41.070045" lon="14.4867517"><ele>223.0</ele><time>2026-04-04T08:34:38.01Z</time></trkpt><trkpt lat="41.07006" lon="14.4868617"><ele>222.99999999999997</ele><time>2026-04-04T08:34:39.011Z</time></trkpt><trkpt lat="41.07008" lon="14.4869683"><ele>223.0</ele><time>2026-04-04T08:34:40.009Z</time></trkpt><trkpt lat="41.0700983" lon="14.4870767"><ele>223.0</ele><time>2026-04-04T08:34:41.01Z</time></trkpt><trkpt lat="41.0701233" lon="14.4871883"><ele>223.0</ele><time>2026-04-04T08:34:42.011Z</time></trkpt><trkpt lat="41.0701433" lon="14.4873033"><ele>222.99999999999997</ele><time>2026-04-04T08:34:43.011Z</time></trkpt><trkpt lat="41.0701633" lon="14.487415"><ele>223.0</ele><time>2026-04-04T08:34:44.011Z</time></trkpt><trkpt lat="41.070185" lon="14.4875267"><ele>223.66666666666666</ele><time>2026-04-04T08:34:45.011Z</time></trkpt><trkpt lat="41.070205" lon="14.4876367"><ele>224.33333333333331</ele><time>2026-04-04T08:34:46.009Z</time></trkpt><trkpt lat="41.0702283" lon="14.487745"><ele>225.0</ele><time>2026-04-04T08:34:47.011Z</time></trkpt><trkpt lat="41.070245" lon="14.487855"><ele>225.66666666666669</ele><time>2026-04-04T08:34:48.008Z</time></trkpt><trkpt lat="41.070265" lon="14.4879667"><ele>226.33333333333334</ele><time>2026-04-04T08:34:49.01Z</time></trkpt><trkpt lat="41.0702833" lon="14.4880733"><ele>227.0</ele><time>2026-04-04T08:34:50.01Z</time></trkpt><trkpt lat="41.0702983" lon="14.488185"><ele>227.00000000000003</ele><time>2026-04-04T08:34:51.01Z</time></trkpt><trkpt lat="41.0703183" lon="14.4882917"><ele>227.0</ele><time>2026-04-04T08:34:52.01Z</time></trkpt><trkpt lat="41.0703283" lon="14.4884"><ele>227.0</ele><time>2026-04-04T08:34:53.011Z</time></trkpt><trkpt lat="41.0703383" lon="14.48851"><ele>227.0</ele><time>2026-04-04T08:34:54.011Z</time></trkpt><trkpt lat="41.0703517" lon="14.4886167"><ele>227.00000000000003</ele><time>2026-04-04T08:34:55.01Z</time></trkpt><trkpt lat="41.0703683" lon="14.4887217"><ele>227.0</ele><time>2026-04-04T08:34:56.008Z</time></trkpt><trkpt lat="41.0703833" lon="14.4888283"><ele>226.33333333333334</ele><time>2026-04-04T08:34:57.01Z</time></trkpt><trkpt lat="41.0704" lon="14.4889333"><ele>225.66666666666669</ele><time>2026-04-04T08:34:58.008Z</time></trkpt><trkpt lat="41.0704183" lon="14.4890333"><ele>225.0</ele><time>2026-04-04T08:34:59.007Z</time></trkpt><trkpt lat="41.0704467" lon="14.4891333"><ele>224.33333333333331</ele><time>2026-04-04T08:35:00.006Z</time></trkpt><trkpt lat="41.0704767" lon="14.4892317"><ele>223.66666666666666</ele><time>2026-04-04T08:35:01.01Z</time></trkpt><trkpt lat="41.0705067" lon="14.48933"><ele>223.0</ele><time>2026-04-04T08:35:02.008Z</time></trkpt><trkpt lat="41.0705367" lon="14.4894267"><ele>222.99999999999997</ele><time>2026-04-04T08:35:03.008Z</time></trkpt><trkpt lat="41.0705717" lon="14.48952"><ele>223.0</ele><time>2026-04-04T08:35:04.007Z</time></trkpt><trkpt lat="41.0706033" lon="14.4896133"><ele>223.0</ele><time>2026-04-04T08:35:05.007Z</time></trkpt><trkpt lat="41.0706317" lon="14.489705"><ele>223.0</ele><time>2026-04-04T08:35:06.009Z</time></trkpt><trkpt lat="41.0706617" lon="14.4898"><ele>222.99999999999997</ele><time>2026-04-04T08:35:07.008Z</time></trkpt><trkpt lat="41.0706867" lon="14.4898917"><ele>223.0</ele><time>2026-04-04T08:35:08.007Z</time></trkpt><trkpt lat="41.07071" lon="14.489985"><ele>222.42857142857142</ele><time>2026-04-04T08:35:09.009Z</time></trkpt><trkpt lat="41.0707333" lon="14.4900733"><ele>221.85714285714283</ele><time>2026-04-04T08:35:10.007Z</time></trkpt><trkpt lat="41.0707617" lon="14.49016"><ele>221.28571428571428</ele><time>2026-04-04T08:35:11.009Z</time></trkpt><trkpt lat="41.0707867" lon="14.490245"><ele>220.71428571428572</ele><time>2026-04-04T08:35:12.01Z</time></trkpt><trkpt lat="41.0708183" lon="14.49033"><ele>220.14285714285714</ele><time>2026-04-04T08:35:13.009Z</time></trkpt><trkpt lat="41.0708467" lon="14.4904133"><ele>219.57142857142858</ele><time>2026-04-04T08:35:14.009Z</time></trkpt><trkpt lat="41.070875" lon="14.4904933"><ele>219.0</ele><time>2026-04-04T08:35:15.008Z</time></trkpt><trkpt lat="41.0709067" lon="14.4905717"><ele>217.83333333333334</ele><time>2026-04-04T08:35:16.009Z</time></trkpt><trkpt lat="41.0709417" lon="14.4906433"><ele>216.66666666666669</ele><time>2026-04-04T08:35:17.007Z</time></trkpt><trkpt lat="41.0709783" lon="14.4907167"><ele>215.5</ele><time>2026-04-04T08:35:18.008Z</time></trkpt><trkpt lat="41.0710183" lon="14.4907833"><ele>214.33333333333334</ele><time>2026-04-04T08:35:19.009Z</time></trkpt><trkpt lat="41.0710617" lon="14.4908467"><ele>213.16666666666669</ele><time>2026-04-04T08:35:20.01Z</time></trkpt><trkpt lat="41.0711067" lon="14.49091"><ele>212.0</ele><time>2026-04-04T08:35:21.009Z</time></trkpt><trkpt lat="41.0712033" lon="14.4910217"><ele>212.0</ele><time>2026-04-04T08:35:23.009Z</time></trkpt><trkpt lat="41.0712567" lon="14.4910717"><ele>212.0</ele><time>2026-04-04T08:35:24.008Z</time></trkpt><trkpt lat="41.071305" lon="14.4911283"><ele>212.0</ele><time>2026-04-04T08:35:25.008Z</time></trkpt><trkpt lat="41.071355" lon="14.4911933"><ele>212.0</ele><time>2026-04-04T08:35:26.008Z</time></trkpt><trkpt lat="41.0714067" lon="14.4912567"><ele>212.0</ele><time>2026-04-04T08:35:27.012Z</time></trkpt><trkpt lat="41.07146" lon="14.4913233"><ele>212.0</ele><time>2026-04-04T08:35:28.007Z</time></trkpt><trkpt lat="41.0715133" lon="14.4913933"><ele>212.0</ele><time>2026-04-04T08:35:29.009Z</time></trkpt><trkpt lat="41.0715717" lon="14.4914633"><ele>211.50000000000003</ele><time>2026-04-04T08:35:30.008Z</time></trkpt><trkpt lat="41.071635" lon="14.49153"><ele>211.0</ele><time>2026-04-04T08:35:31.009Z</time></trkpt><trkpt lat="41.0717017" lon="14.4915933"><ele>210.5</ele><time>2026-04-04T08:35:32.008Z</time></trkpt><trkpt lat="41.0717717" lon="14.49165"><ele>210.0</ele><time>2026-04-04T08:35:33.007Z</time></trkpt><trkpt lat="41.0718433" lon="14.491705"><ele>209.50000000000003</ele><time>2026-04-04T08:35:34.009Z</time></trkpt><trkpt lat="41.071915" lon="14.4917617"><ele>209.0</ele><time>2026-04-04T08:35:35.007Z</time></trkpt><trkpt lat="41.0719867" lon="14.4918233"><ele>209.00000000000003</ele><time>2026-04-04T08:35:36.01Z</time></trkpt><trkpt lat="41.0720567" lon="14.49189"><ele>209.0</ele><time>2026-04-04T08:35:37.007Z</time></trkpt><trkpt lat="41.0721283" lon="14.4919567"><ele>209.0</ele><time>2026-04-04T08:35:38.008Z</time></trkpt><trkpt lat="41.0722033" lon="14.49202"><ele>209.0</ele><time>2026-04-04T08:35:39.009Z</time></trkpt><trkpt lat="41.0722767" lon="14.4920833"><ele>209.00000000000003</ele><time>2026-04-04T08:35:40.007Z</time></trkpt><trkpt lat="41.0723517" lon="14.4921483"><ele>209.0</ele><time>2026-04-04T08:35:41.008Z</time></trkpt><trkpt lat="41.0724283" lon="14.4922083"><ele>208.33333333333334</ele><time>2026-04-04T08:35:42.01Z</time></trkpt><trkpt lat="41.072505" lon="14.4922717"><ele>207.66666666666669</ele><time>2026-04-04T08:35:43.007Z</time></trkpt><trkpt lat="41.0725817" lon="14.4923283"><ele>207.0</ele><time>2026-04-04T08:35:44.007Z</time></trkpt><trkpt lat="41.0726617" lon="14.4923817"><ele>206.33333333333331</ele><time>2026-04-04T08:35:45.007Z</time></trkpt><trkpt lat="41.072745" lon="14.49243"><ele>205.66666666666666</ele><time>2026-04-04T08:35:46.007Z</time></trkpt><trkpt lat="41.072825" lon="14.492485"><ele>205.0</ele><time>2026-04-04T08:35:47.007Z</time></trkpt><trkpt lat="41.0729017" lon="14.49254"><ele>205.0</ele><time>2026-04-04T08:35:48.01Z</time></trkpt><trkpt lat="41.0729817" lon="14.492595"><ele>205.0</ele><time>2026-04-04T08:35:49.007Z</time></trkpt><trkpt lat="41.07306" lon="14.492655"><ele>205.0</ele><time>2026-04-04T08:35:50.008Z</time></trkpt><trkpt lat="41.0731317" lon="14.492725"><ele>205.0</ele><time>2026-04-04T08:35:51.009Z</time></trkpt><trkpt lat="41.0732033" lon="14.4927983"><ele>205.0</ele><time>2026-04-04T08:35:52.008Z</time></trkpt><trkpt lat="41.0732733" lon="14.4928733"><ele>204.0</ele><time>2026-04-04T08:35:53.007Z</time></trkpt><trkpt lat="41.0733483" lon="14.4929433"><ele>203.0</ele><time>2026-04-04T08:35:54.009Z</time></trkpt><trkpt lat="41.0734183" lon="14.4930217"><ele>202.0</ele><time>2026-04-04T08:35:55.009Z</time></trkpt><trkpt lat="41.073485" lon="14.4931"><ele>201.0</ele><time>2026-04-04T08:35:56.009Z</time></trkpt><trkpt lat="41.073555" lon="14.4931833"><ele>200.0</ele><time>2026-04-04T08:35:57.008Z</time></trkpt><trkpt lat="41.07362" lon="14.4932633"><ele>200.0</ele><time>2026-04-04T08:35:58.007Z</time></trkpt><trkpt lat="41.073685" lon="14.4933433"><ele>200.0</ele><time>2026-04-04T08:35:59.007Z</time></trkpt><trkpt lat="41.07375" lon="14.4934283"><ele>200.0</ele><time>2026-04-04T08:36:00.009Z</time></trkpt><trkpt lat="41.0738183" lon="14.4935083"><ele>200.0</ele><time>2026-04-04T08:36:01.009Z</time></trkpt><trkpt lat="41.0738867" lon="14.4935867"><ele>200.0</ele><time>2026-04-04T08:36:02.008Z</time></trkpt><trkpt lat="41.0739567" lon="14.4936667"><ele>200.0</ele><time>2026-04-04T08:36:03.007Z</time></trkpt><trkpt lat="41.0740267" lon="14.4937483"><ele>200.0</ele><time>2026-04-04T08:36:04.007Z</time></trkpt><trkpt lat="41.0740967" lon="14.4938283"><ele>200.0</ele><time>2026-04-04T08:36:05.009Z</time></trkpt><trkpt lat="41.074165" lon="14.493915"><ele>200.0</ele><time>2026-04-04T08:36:06.009Z</time></trkpt><trkpt lat="41.07423" lon="14.4940033"><ele>200.0</ele><time>2026-04-04T08:36:07.009Z</time></trkpt><trkpt lat="41.074295" lon="14.4940917"><ele>199.0</ele><time>2026-04-04T08:36:08.009Z</time></trkpt><trkpt lat="41.074355" lon="14.4941833"><ele>198.0</ele><time>2026-04-04T08:36:09.009Z</time></trkpt><trkpt lat="41.0744133" lon="14.49428"><ele>197.0</ele><time>2026-04-04T08:36:10.007Z</time></trkpt><trkpt lat="41.0744733" lon="14.4943733"><ele>196.0</ele><time>2026-04-04T08:36:11.008Z</time></trkpt><trkpt lat="41.0745333" lon="14.494465"><ele>195.0</ele><time>2026-04-04T08:36:12.008Z</time></trkpt><trkpt lat="41.074595" lon="14.4945533"><ele>195.33333333333334</ele><time>2026-04-04T08:36:13.007Z</time></trkpt><trkpt lat="41.0746617" lon="14.494635"><ele>195.66666666666669</ele><time>2026-04-04T08:36:14.007Z</time></trkpt><trkpt lat="41.0747367" lon="14.494705"><ele>196.0</ele><time>2026-04-04T08:36:15.007Z</time></trkpt><trkpt lat="41.07481" lon="14.4947733"><ele>196.33333333333334</ele><time>2026-04-04T08:36:16.006Z</time></trkpt><trkpt lat="41.0748817" lon="14.49484"><ele>196.66666666666669</ele><time>2026-04-04T08:36:17.009Z</time></trkpt><trkpt lat="41.074955" lon="14.4949017"><ele>197.0</ele><time>2026-04-04T08:36:18.008Z</time></trkpt><trkpt lat="41.0750283" lon="14.4949617"><ele>196.00000000000003</ele><time>2026-04-04T08:36:19.007Z</time></trkpt><trkpt lat="41.0751033" lon="14.4950233"><ele>195.0</ele><time>2026-04-04T08:36:20.007Z</time></trkpt><trkpt lat="41.0751767" lon="14.4950883"><ele>194.0</ele><time>2026-04-04T08:36:21.009Z</time></trkpt><trkpt lat="41.07525" lon="14.495155"><ele>193.0</ele><time>2026-04-04T08:36:22.007Z</time></trkpt><trkpt lat="41.0753217" lon="14.4952267"><ele>192.0</ele><time>2026-04-04T08:36:23.009Z</time></trkpt><trkpt lat="41.0753917" lon="14.4952967"><ele>191.0</ele><time>2026-04-04T08:36:24.011Z</time></trkpt><trkpt lat="41.0754667" lon="14.4953617"><ele>191.20000000000002</ele><time>2026-04-04T08:36:25.011Z</time></trkpt><trkpt lat="41.0755467" lon="14.4954233"><ele>191.4</ele><time>2026-04-04T08:36:26.009Z</time></trkpt><trkpt lat="41.075625" lon="14.4954867"><ele>191.6</ele><time>2026-04-04T08:36:27.008Z</time></trkpt><trkpt lat="41.0757033" lon="14.4955517"><ele>191.8</ele><time>2026-04-04T08:36:28.007Z</time></trkpt><trkpt lat="41.0757883" lon="14.4956167"><ele>192.0</ele><time>2026-04-04T08:36:29.01Z</time></trkpt><trkpt lat="41.0758767" lon="14.4956833"><ele>191.0</ele><time>2026-04-04T08:36:30.009Z</time></trkpt><trkpt lat="41.0759617" lon="14.4957517"><ele>190.0</ele><time>2026-04-04T08:36:31.008Z</time></trkpt><trkpt lat="41.0760483" lon="14.4958217"><ele>189.0</ele><time>2026-04-04T08:36:32.01Z</time></trkpt><trkpt lat="41.0761317" lon="14.4958967"><ele>188.0</ele><time>2026-04-04T08:36:33.008Z</time></trkpt><trkpt lat="41.0762083" lon="14.4959767"><ele>187.0</ele><time>2026-04-04T08:36:34.008Z</time></trkpt><trkpt lat="41.0762883" lon="14.4960567"><ele>187.0</ele><time>2026-04-04T08:36:35.007Z</time></trkpt><trkpt lat="41.07637" lon="14.4961333"><ele>187.0</ele><time>2026-04-04T08:36:36.009Z</time></trkpt><trkpt lat="41.07645" lon="14.49621"><ele>187.0</ele><time>2026-04-04T08:36:37.007Z</time></trkpt><trkpt lat="41.0765283" lon="14.496285"><ele>187.0</ele><time>2026-04-04T08:36:38.007Z</time></trkpt><trkpt lat="41.076605" lon="14.496365"><ele>187.0</ele><time>2026-04-04T08:36:39.009Z</time></trkpt><trkpt lat="41.0766783" lon="14.496445"><ele>186.0</ele><time>2026-04-04T08:36:40.007Z</time></trkpt><trkpt lat="41.07675" lon="14.49652"><ele>185.0</ele><time>2026-04-04T08:36:41.009Z</time></trkpt><trkpt lat="41.07682" lon="14.4965967"><ele>184.0</ele><time>2026-04-04T08:36:42.008Z</time></trkpt><trkpt lat="41.0768933" lon="14.4966733"><ele>183.0</ele><time>2026-04-04T08:36:43.009Z</time></trkpt><trkpt lat="41.076965" lon="14.4967467"><ele>182.0</ele><time>2026-04-04T08:36:44.008Z</time></trkpt><trkpt lat="41.0770367" lon="14.49682"><ele>182.0</ele><time>2026-04-04T08:36:45.007Z</time></trkpt><trkpt lat="41.0771083" lon="14.4968883"><ele>182.0</ele><time>2026-04-04T08:36:46.007Z</time></trkpt><trkpt lat="41.0771833" lon="14.49695"><ele>182.0</ele><time>2026-04-04T08:36:47.007Z</time></trkpt><trkpt lat="41.07726" lon="14.4970033"><ele>182.0</ele><time>2026-04-04T08:36:48.009Z</time></trkpt><trkpt lat="41.07734" lon="14.497055"><ele>182.0</ele><time>2026-04-04T08:36:49.007Z</time></trkpt><trkpt lat="41.07742" lon="14.4971083"><ele>182.0</ele><time>2026-04-04T08:36:50.009Z</time></trkpt><trkpt lat="41.0774983" lon="14.497165"><ele>181.8</ele><time>2026-04-04T08:36:51.007Z</time></trkpt><trkpt lat="41.077575" lon="14.49723"><ele>181.6</ele><time>2026-04-04T08:36:52.009Z</time></trkpt><trkpt lat="41.0776467" lon="14.4973033"><ele>181.4</ele><time>2026-04-04T08:36:53.009Z</time></trkpt><trkpt lat="41.07771" lon="14.4973883"><ele>181.20000000000002</ele><time>2026-04-04T08:36:54.008Z</time></trkpt><trkpt lat="41.0777733" lon="14.49748"><ele>181.0</ele><time>2026-04-04T08:36:55.009Z</time></trkpt><trkpt lat="41.07783" lon="14.49758"><ele>181.0</ele><time>2026-04-04T08:36:56.01Z</time></trkpt><trkpt lat="41.0778867" lon="14.49768"><ele>181.0</ele><time>2026-04-04T08:36:57.008Z</time></trkpt><trkpt lat="41.07794" lon="14.497785"><ele>181.0</ele><time>2026-04-04T08:36:58.008Z</time></trkpt><trkpt lat="41.0779917" lon="14.4978917"><ele>181.0</ele><time>2026-04-04T08:36:59.009Z</time></trkpt><trkpt lat="41.0780433" lon="14.498"><ele>181.0</ele><time>2026-04-04T08:37:00.009Z</time></trkpt><trkpt lat="41.07809" lon="14.4981067"><ele>180.4</ele><time>2026-04-04T08:37:01.009Z</time></trkpt><trkpt lat="41.0781383" lon="14.4982133"><ele>179.8</ele><time>2026-04-04T08:37:02.008Z</time></trkpt><trkpt lat="41.07819" lon="14.498315"><ele>179.20000000000002</ele><time>2026-04-04T08:37:03.009Z</time></trkpt><trkpt lat="41.0782517" lon="14.4984083"><ele>178.60000000000002</ele><time>2026-04-04T08:37:04.008Z</time></trkpt><trkpt lat="41.0783183" lon="14.4985"><ele>178.0</ele><time>2026-04-04T08:37:05.009Z</time></trkpt><trkpt lat="41.0783883" lon="14.4985867"><ele>178.0</ele><time>2026-04-04T08:37:06.009Z</time></trkpt><trkpt lat="41.07846" lon="14.4986633"><ele>178.0</ele><time>2026-04-04T08:37:07.009Z</time></trkpt><trkpt lat="41.078535" lon="14.4987383"><ele>178.0</ele><time>2026-04-04T08:37:08.007Z</time></trkpt><trkpt lat="41.0786117" lon="14.4988033"><ele>178.0</ele><time>2026-04-04T08:37:09.009Z</time></trkpt><trkpt lat="41.078695" lon="14.4988617"><ele>178.0</ele><time>2026-04-04T08:37:10.008Z</time></trkpt><trkpt lat="41.0787817" lon="14.4989117"><ele>178.0</ele><time>2026-04-04T08:37:11.01Z</time></trkpt><trkpt lat="41.0788717" lon="14.4989567"><ele>178.0</ele><time>2026-04-04T08:37:12.007Z</time></trkpt><trkpt lat="41.0789633" lon="14.4989983"><ele>178.0</ele><time>2026-04-04T08:37:13.009Z</time></trkpt><trkpt lat="41.079055" lon="14.4990467"><ele>178.0</ele><time>2026-04-04T08:37:14.009Z</time></trkpt><trkpt lat="41.079145" lon="14.4990933"><ele>178.0</ele><time>2026-04-04T08:37:15.008Z</time></trkpt><trkpt lat="41.0792367" lon="14.4991383"><ele>178.0</ele><time>2026-04-04T08:37:16.009Z</time></trkpt><trkpt lat="41.0793283" lon="14.499185"><ele>178.0</ele><time>2026-04-04T08:37:17.009Z</time></trkpt><trkpt lat="41.0794233" lon="14.4992383"><ele>178.0</ele><time>2026-04-04T08:37:18.009Z</time></trkpt><trkpt lat="41.0795167" lon="14.499285"><ele>178.0</ele><time>2026-04-04T08:37:19.009Z</time></trkpt><trkpt lat="41.07961" lon="14.499325"><ele>178.0</ele><time>2026-04-04T08:37:20.009Z</time></trkpt><trkpt lat="41.0797" lon="14.49937"><ele>178.0</ele><time>2026-04-04T08:37:21.008Z</time></trkpt><trkpt lat="41.0797883" lon="14.4994117"><ele>178.0</ele><time>2026-04-04T08:37:22.008Z</time></trkpt><trkpt lat="41.0798783" lon="14.4994467"><ele>178.0</ele><time>2026-04-04T08:37:23.009Z</time></trkpt><trkpt lat="41.07997" lon="14.4994733"><ele>178.0</ele><time>2026-04-04T08:37:24.009Z</time></trkpt><trkpt lat="41.0800633" lon="14.4995"><ele>178.0</ele><time>2026-04-04T08:37:25.009Z</time></trkpt><trkpt lat="41.0801583" lon="14.4995267"><ele>178.0</ele><time>2026-04-04T08:37:26.009Z</time></trkpt><trkpt lat="41.0802533" lon="14.4995533"><ele>178.0</ele><time>2026-04-04T08:37:27.009Z</time></trkpt><trkpt lat="41.080345" lon="14.49958"><ele>178.0</ele><time>2026-04-04T08:37:28.007Z</time></trkpt><trkpt lat="41.0804383" lon="14.49961"><ele>178.0</ele><time>2026-04-04T08:37:29.008Z</time></trkpt><trkpt lat="41.0805317" lon="14.4996433"><ele>178.0</ele><time>2026-04-04T08:37:30.008Z</time></trkpt><trkpt lat="41.08062" lon="14.499675"><ele>178.0</ele><time>2026-04-04T08:37:31.008Z</time></trkpt><trkpt lat="41.0807083" lon="14.4997"><ele>178.0</ele><time>2026-04-04T08:37:32.009Z</time></trkpt><trkpt lat="41.0807983" lon="14.499725"><ele>178.0</ele><time>2026-04-04T08:37:33.007Z</time></trkpt><trkpt lat="41.0808917" lon="14.499755"><ele>178.0</ele><time>2026-04-04T08:37:34.007Z</time></trkpt><trkpt lat="41.080985" lon="14.4997833"><ele>178.0</ele><time>2026-04-04T08:37:35.008Z</time></trkpt><trkpt lat="41.0810783" lon="14.4998033"><ele>177.2</ele><time>2026-04-04T08:37:36.009Z</time></trkpt><trkpt lat="41.08117" lon="14.499835"><ele>176.4</ele><time>2026-04-04T08:37:37.008Z</time></trkpt><trkpt lat="41.0812583" lon="14.4998667"><ele>175.6</ele><time>2026-04-04T08:37:38.009Z</time></trkpt><trkpt lat="41.0813517" lon="14.4999033"><ele>174.79999999999998</ele><time>2026-04-04T08:37:39.009Z</time></trkpt><trkpt lat="41.081445" lon="14.499935"><ele>174.0</ele><time>2026-04-04T08:37:40.008Z</time></trkpt><trkpt lat="41.0815383" lon="14.4999667"><ele>173.2</ele><time>2026-04-04T08:37:41.009Z</time></trkpt><trkpt lat="41.08163" lon="14.4999933"><ele>172.39999999999998</ele><time>2026-04-04T08:37:42.01Z</time></trkpt><trkpt lat="41.08172" lon="14.50002"><ele>171.6</ele><time>2026-04-04T08:37:43.007Z</time></trkpt><trkpt lat="41.08181" lon="14.5000433"><ele>170.8</ele><time>2026-04-04T08:37:44.009Z</time></trkpt><trkpt lat="41.0819017" lon="14.5000567"><ele>170.0</ele><time>2026-04-04T08:37:45.01Z</time></trkpt><trkpt lat="41.0819983" lon="14.50006"><ele>170.0</ele><time>2026-04-04T08:37:46.009Z</time></trkpt><trkpt lat="41.0820917" lon="14.5000633"><ele>170.0</ele><time>2026-04-04T08:37:47.009Z</time></trkpt><trkpt lat="41.0821933" lon="14.5000633"><ele>170.0</ele><time>2026-04-04T08:37:48.009Z</time></trkpt><trkpt lat="41.0822917" lon="14.5000767"><ele>170.0</ele><time>2026-04-04T08:37:49.009Z</time></trkpt><trkpt lat="41.0823933" lon="14.50008"><ele>170.0</ele><time>2026-04-04T08:37:50.011Z</time></trkpt><trkpt lat="41.0824917" lon="14.500085"><ele>169.0</ele><time>2026-04-04T08:37:51.01Z</time></trkpt><trkpt lat="41.082585" lon="14.5000817"><ele>168.0</ele><time>2026-04-04T08:37:52.009Z</time></trkpt><trkpt lat="41.0826783" lon="14.5000667"><ele>167.0</ele><time>2026-04-04T08:37:53.007Z</time></trkpt><trkpt lat="41.08277" lon="14.5000433"><ele>166.0</ele><time>2026-04-04T08:37:54.008Z</time></trkpt><trkpt lat="41.0828633" lon="14.5000117"><ele>165.0</ele><time>2026-04-04T08:37:55.008Z</time></trkpt><trkpt lat="41.0829567" lon="14.4999817"><ele>165.0</ele><time>2026-04-04T08:37:56.007Z</time></trkpt><trkpt lat="41.0830483" lon="14.4999467"><ele>165.0</ele><time>2026-04-04T08:37:57.008Z</time></trkpt><trkpt lat="41.083135" lon="14.4999167"><ele>165.0</ele><time>2026-04-04T08:37:58.008Z</time></trkpt><trkpt lat="41.0832183" lon="14.4998983"><ele>165.0</ele><time>2026-04-04T08:37:59.009Z</time></trkpt><trkpt lat="41.0833033" lon="14.4998983"><ele>165.0</ele><time>2026-04-04T08:38:00.009Z</time></trkpt><trkpt lat="41.0833883" lon="14.49992"><ele>165.0</ele><time>2026-04-04T08:38:01.008Z</time></trkpt><trkpt lat="41.083465" lon="14.4999633"><ele>164.2</ele><time>2026-04-04T08:38:02.007Z</time></trkpt><trkpt lat="41.083545" lon="14.500015"><ele>163.4</ele><time>2026-04-04T08:38:03.009Z</time></trkpt><trkpt lat="41.083625" lon="14.5000667"><ele>162.60000000000002</ele><time>2026-04-04T08:38:04.007Z</time></trkpt><trkpt lat="41.0837067" lon="14.5001167"><ele>161.8</ele><time>2026-04-04T08:38:05.009Z</time></trkpt><trkpt lat="41.08379" lon="14.5001683"><ele>161.0</ele><time>2026-04-04T08:38:06.009Z</time></trkpt><trkpt lat="41.0838733" lon="14.5002217"><ele>161.0</ele><time>2026-04-04T08:38:07.007Z</time></trkpt><trkpt lat="41.0839567" lon="14.5002767"><ele>161.0</ele><time>2026-04-04T08:38:08.007Z</time></trkpt><trkpt lat="41.0840417" lon="14.500335"><ele>161.0</ele><time>2026-04-04T08:38:09.009Z</time></trkpt><trkpt lat="41.0841233" lon="14.5003967"><ele>161.0</ele><time>2026-04-04T08:38:10.007Z</time></trkpt><trkpt lat="41.084205" lon="14.5004567"><ele>161.0</ele><time>2026-04-04T08:38:11.007Z</time></trkpt><trkpt lat="41.08429" lon="14.50051"><ele>160.20000000000002</ele><time>2026-04-04T08:38:12.009Z</time></trkpt><trkpt lat="41.0843767" lon="14.5005567"><ele>159.4</ele><time>2026-04-04T08:38:13.007Z</time></trkpt><trkpt lat="41.084465" lon="14.5006017"><ele>158.6</ele><time>2026-04-04T08:38:14.008Z</time></trkpt><trkpt lat="41.084555" lon="14.5006483"><ele>157.8</ele><time>2026-04-04T08:38:15.008Z</time></trkpt><trkpt lat="41.0846433" lon="14.5007"><ele>157.0</ele><time>2026-04-04T08:38:16.007Z</time></trkpt><trkpt lat="41.0847317" lon="14.500755"><ele>157.0</ele><time>2026-04-04T08:38:17.009Z</time></trkpt><trkpt lat="41.0848167" lon="14.50081"><ele>157.0</ele><time>2026-04-04T08:38:18.009Z</time></trkpt><trkpt lat="41.0849017" lon="14.5008733"><ele>157.0</ele><time>2026-04-04T08:38:19.009Z</time></trkpt><trkpt lat="41.084985" lon="14.5009417"><ele>157.0</ele><time>2026-04-04T08:38:20.009Z</time></trkpt><trkpt lat="41.0850633" lon="14.5010133"><ele>157.0</ele><time>2026-04-04T08:38:21.009Z</time></trkpt><trkpt lat="41.0851367" lon="14.50108"><ele>156.66666666666669</ele><time>2026-04-04T08:38:22.008Z</time></trkpt><trkpt lat="41.085205" lon="14.501145"><ele>156.33333333333334</ele><time>2026-04-04T08:38:23.007Z</time></trkpt><trkpt lat="41.0852717" lon="14.50121"><ele>156.0</ele><time>2026-04-04T08:38:24.009Z</time></trkpt><trkpt lat="41.0853433" lon="14.501265"><ele>155.66666666666666</ele><time>2026-04-04T08:38:25.009Z</time></trkpt><trkpt lat="41.0854167" lon="14.5013167"><ele>155.33333333333331</ele><time>2026-04-04T08:38:26.009Z</time></trkpt><trkpt lat="41.08549" lon="14.501375"><ele>155.0</ele><time>2026-04-04T08:38:27.008Z</time></trkpt><trkpt lat="41.085565" lon="14.5014317"><ele>154.5</ele><time>2026-04-04T08:38:28.006Z</time></trkpt><trkpt lat="41.0856383" lon="14.5014817"><ele>154.0</ele><time>2026-04-04T08:38:29.007Z</time></trkpt><trkpt lat="41.0857133" lon="14.5015317"><ele>153.5</ele><time>2026-04-04T08:38:30.009Z</time></trkpt><trkpt lat="41.08579" lon="14.501585"><ele>153.0</ele><time>2026-04-04T08:38:31.007Z</time></trkpt><trkpt lat="41.08587" lon="14.5016333"><ele>152.5</ele><time>2026-04-04T08:38:32.008Z</time></trkpt><trkpt lat="41.0859483" lon="14.50168"><ele>152.0</ele><time>2026-04-04T08:38:33.007Z</time></trkpt><trkpt lat="41.0860183" lon="14.5017283"><ele>152.0</ele><time>2026-04-04T08:38:34.007Z</time></trkpt><trkpt lat="41.0860817" lon="14.5017733"><ele>152.0</ele><time>2026-04-04T08:38:35.007Z</time></trkpt><trkpt lat="41.08614" lon="14.5018233"><ele>152.0</ele><time>2026-04-04T08:38:36.008Z</time></trkpt><trkpt lat="41.0862" lon="14.501875"><ele>152.0</ele><time>2026-04-04T08:38:37.007Z</time></trkpt><trkpt lat="41.0862633" lon="14.5019283"><ele>152.0</ele><time>2026-04-04T08:38:38.009Z</time></trkpt><trkpt lat="41.0863217" lon="14.5019933"><ele>152.0</ele><time>2026-04-04T08:38:39.008Z</time></trkpt><trkpt lat="41.0863717" lon="14.50208"><ele>152.0</ele><time>2026-04-04T08:38:40.007Z</time></trkpt><trkpt lat="41.0864217" lon="14.502155"><ele>151.5</ele><time>2026-04-04T08:38:41.008Z</time></trkpt><trkpt lat="41.0864667" lon="14.5022267"><ele>151.0</ele><time>2026-04-04T08:38:42.009Z</time></trkpt><trkpt lat="41.0865017" lon="14.5022967"><ele>150.5</ele><time>2026-04-04T08:38:43.008Z</time></trkpt><trkpt lat="41.0865433" lon="14.50242"><ele>150.0</ele><time>2026-04-04T08:38:45.01Z</time></trkpt><trkpt lat="41.0865017" lon="14.50255"><ele>149.5</ele><time>2026-04-04T08:38:47.01Z</time></trkpt><trkpt lat="41.0864183" lon="14.502635"><ele>149.0</ele><time>2026-04-04T08:38:49.007Z</time></trkpt><trkpt lat="41.0863367" lon="14.50267"><ele>149.0</ele><time>2026-04-04T08:38:51.008Z</time></trkpt><trkpt lat="41.0862717" lon="14.5026917"><ele>149.0</ele><time>2026-04-04T08:40:59.006Z</time></trkpt><trkpt lat="41.0862033" lon="14.5027483"><ele>149.0</ele><time>2026-04-04T08:41:02.007Z</time></trkpt><trkpt lat="41.086145" lon="14.502815"><ele>149.0</ele><time>2026-04-04T08:41:04.007Z</time></trkpt><trkpt lat="41.0860817" lon="14.5028983"><ele>149.0</ele><time>2026-04-04T08:41:06.007Z</time></trkpt><trkpt lat="41.08602" lon="14.5029933"><ele>149.0</ele><time>2026-04-04T08:41:08.006Z</time></trkpt><trkpt lat="41.08597" lon="14.503075"><ele>148.8</ele><time>2026-04-04T08:41:10.006Z</time></trkpt><trkpt lat="41.0859133" lon="14.50315"><ele>148.60000000000002</ele><time>2026-04-04T08:41:12.006Z</time></trkpt><trkpt lat="41.0858483" lon="14.50325"><ele>148.4</ele><time>2026-04-04T08:41:14.007Z</time></trkpt><trkpt lat="41.0857983" lon="14.5033617"><ele>148.20000000000002</ele><time>2026-04-04T08:41:16.006Z</time></trkpt><trkpt lat="41.08575" lon="14.5034883"><ele>148.0</ele><time>2026-04-04T08:41:18.006Z</time></trkpt><trkpt lat="41.0857233" lon="14.5036233"><ele>149.8</ele><time>2026-04-04T08:41:20.007Z</time></trkpt><trkpt lat="41.0857333" lon="14.5037483"><ele>151.60000000000002</ele><time>2026-04-04T08:41:22.007Z</time></trkpt><trkpt lat="41.08575" lon="14.5038833"><ele>153.39999999999998</ele><time>2026-04-04T08:41:24.006Z</time></trkpt><trkpt lat="41.08578" lon="14.5040033"><ele>155.2</ele><time>2026-04-04T08:41:26.007Z</time></trkpt><trkpt lat="41.0858017" lon="14.5041317"><ele>157.0</ele><time>2026-04-04T08:41:28.006Z</time></trkpt><trkpt lat="41.085825" lon="14.5042633"><ele>157.0</ele><time>2026-04-04T08:41:30.008Z</time></trkpt><trkpt lat="41.08585" lon="14.504395"><ele>157.0</ele><time>2026-04-04T08:41:32.006Z</time></trkpt><trkpt lat="41.085875" lon="14.504535"><ele>157.0</ele><time>2026-04-04T08:41:34.006Z</time></trkpt><trkpt lat="41.085905" lon="14.50466"><ele>157.0</ele><time>2026-04-04T08:41:36.007Z</time></trkpt><trkpt lat="41.0859333" lon="14.5047783"><ele>157.0</ele><time>2026-04-04T08:41:38.01Z</time></trkpt><trkpt lat="41.0859817" lon="14.504905"><ele>159.2</ele><time>2026-04-04T08:41:40.013Z</time></trkpt><trkpt lat="41.08602" lon="14.5050283"><ele>161.39999999999998</ele><time>2026-04-04T08:41:42.006Z</time></trkpt><trkpt lat="41.0860483" lon="14.5051433"><ele>163.60000000000002</ele><time>2026-04-04T08:41:44.006Z</time></trkpt><trkpt lat="41.0860733" lon="14.5052533"><ele>165.8</ele><time>2026-04-04T08:41:46.009Z</time></trkpt><trkpt lat="41.086105" lon="14.5053617"><ele>168.0</ele><time>2026-04-04T08:41:48.006Z</time></trkpt><trkpt lat="41.08614" lon="14.5054633"><ele>169.28571428571428</ele><time>2026-04-04T08:41:50.006Z</time></trkpt><trkpt lat="41.086165" lon="14.5055633"><ele>170.57142857142856</ele><time>2026-04-04T08:41:52.007Z</time></trkpt><trkpt lat="41.086195" lon="14.505665"><ele>171.85714285714286</ele><time>2026-04-04T08:41:54.01Z</time></trkpt><trkpt lat="41.0862083" lon="14.50576"><ele>173.14285714285714</ele><time>2026-04-04T08:41:56.009Z</time></trkpt><trkpt lat="41.08622" lon="14.5058433"><ele>174.42857142857142</ele><time>2026-04-04T08:41:58.007Z</time></trkpt><trkpt lat="41.086225" lon="14.5059283"><ele>175.71428571428572</ele><time>2026-04-04T08:42:00.007Z</time></trkpt><trkpt lat="41.0862467" lon="14.5060133"><ele>177.0</ele><time>2026-04-04T08:42:02.006Z</time></trkpt><trkpt lat="41.086285" lon="14.5060933"><ele>177.0</ele><time>2026-04-04T08:42:04.007Z</time></trkpt><trkpt lat="41.08631" lon="14.50617"><ele>177.0</ele><time>2026-04-04T08:42:06.009Z</time></trkpt><trkpt lat="41.0863483" lon="14.5062817"><ele>177.0</ele><time>2026-04-04T08:42:09.008Z</time></trkpt><trkpt lat="41.0863767" lon="14.5063567"><ele>177.0</ele><time>2026-04-04T08:42:11.007Z</time></trkpt><trkpt lat="41.086405" lon="14.5064583"><ele>177.0</ele><time>2026-04-04T08:42:14.006Z</time></trkpt><trkpt lat="41.0864583" lon="14.50654"><ele>177.0</ele><time>2026-04-04T08:42:17.006Z</time></trkpt><trkpt lat="41.0865033" lon="14.5066033"><ele>177.0</ele><time>2026-04-04T08:42:19.007Z</time></trkpt><trkpt lat="41.08655" lon="14.506685"><ele>176.33333333333334</ele><time>2026-04-04T08:42:21.006Z</time></trkpt><trkpt lat="41.0866017" lon="14.5067667"><ele>175.66666666666666</ele><time>2026-04-04T08:42:23.006Z</time></trkpt><trkpt lat="41.0866567" lon="14.5068333"><ele>175.0</ele><time>2026-04-04T08:42:25.007Z</time></trkpt><trkpt lat="41.086715" lon="14.5069033"><ele>174.33333333333331</ele><time>2026-04-04T08:42:27.008Z</time></trkpt><trkpt lat="41.0867717" lon="14.506965"><ele>173.66666666666666</ele><time>2026-04-04T08:42:29.006Z</time></trkpt><trkpt lat="41.0868367" lon="14.5070483"><ele>173.0</ele><time>2026-04-04T08:42:32.006Z</time></trkpt><trkpt lat="41.0868867" lon="14.5071167"><ele>173.0</ele><time>2026-04-04T08:42:34.006Z</time></trkpt><trkpt lat="41.086935" lon="14.5071783"><ele>173.0</ele><time>2026-04-04T08:42:36.007Z</time></trkpt><trkpt lat="41.0869817" lon="14.5072383"><ele>173.0</ele><time>2026-04-04T08:42:38.006Z</time></trkpt><trkpt lat="41.0870467" lon="14.5073233"><ele>173.0</ele><time>2026-04-04T08:42:41.006Z</time></trkpt><trkpt lat="41.0870867" lon="14.5073917"><ele>173.0</ele><time>2026-04-04T08:42:43.006Z</time></trkpt><trkpt lat="41.0871333" lon="14.5074933"><ele>173.0</ele><time>2026-04-04T08:42:46.006Z</time></trkpt><trkpt lat="41.087165" lon="14.50757"><ele>173.0</ele><time>2026-04-04T08:42:48.007Z</time></trkpt><trkpt lat="41.0871833" lon="14.5076533"><ele>173.0</ele><time>2026-04-04T08:42:50.006Z</time></trkpt><trkpt lat="41.0872033" lon="14.507735"><ele>173.0</ele><time>2026-04-04T08:42:52.006Z</time></trkpt><trkpt lat="41.0872233" lon="14.5078217"><ele>173.0</ele><time>2026-04-04T08:42:54.006Z</time></trkpt><trkpt lat="41.0872483" lon="14.5079067"><ele>173.0</ele><time>2026-04-04T08:42:56.006Z</time></trkpt><trkpt lat="41.08728" lon="14.508025"><ele>173.0</ele><time>2026-04-04T08:42:59.007Z</time></trkpt><trkpt lat="41.0873133" lon="14.5081"><ele>173.0</ele><time>2026-04-04T08:43:01.006Z</time></trkpt><trkpt lat="41.0873483" lon="14.50817"><ele>173.0</ele><time>2026-04-04T08:43:03.007Z</time></trkpt><trkpt lat="41.0873917" lon="14.50824"><ele>172.28571428571428</ele><time>2026-04-04T08:43:05.007Z</time></trkpt><trkpt lat="41.0874467" lon="14.5083017"><ele>171.57142857142858</ele><time>2026-04-04T08:43:07.007Z</time></trkpt><trkpt lat="41.0875067" lon="14.5083383"><ele>170.85714285714286</ele><time>2026-04-04T08:43:09.006Z</time></trkpt><trkpt lat="41.0875767" lon="14.5083717"><ele>170.14285714285714</ele><time>2026-04-04T08:43:11.006Z</time></trkpt><trkpt lat="41.087645" lon="14.50841"><ele>169.42857142857144</ele><time>2026-04-04T08:43:13.006Z</time></trkpt><trkpt lat="41.087715" lon="14.5084467"><ele>168.71428571428572</ele><time>2026-04-04T08:43:15.006Z</time></trkpt><trkpt lat="41.0877767" lon="14.5084817"><ele>168.0</ele><time>2026-04-04T08:43:17.008Z</time></trkpt><trkpt lat="41.0878333" lon="14.508525"><ele>168.0</ele><time>2026-04-04T08:43:19.006Z</time></trkpt><trkpt lat="41.0878817" lon="14.508595"><ele>168.0</ele><time>2026-04-04T08:43:21.006Z</time></trkpt><trkpt lat="41.0879117" lon="14.5086817"><ele>168.0</ele><time>2026-04-04T08:43:23.006Z</time></trkpt><trkpt lat="41.087925" lon="14.50879"><ele>168.0</ele><time>2026-04-04T08:43:25.007Z</time></trkpt><trkpt lat="41.08792" lon="14.5089017"><ele>168.0</ele><time>2026-04-04T08:43:27.006Z</time></trkpt><trkpt lat="41.08791" lon="14.5090217"><ele>168.0</ele><time>2026-04-04T08:43:29.006Z</time></trkpt><trkpt lat="41.0879" lon="14.509145"><ele>170.60000000000002</ele><time>2026-04-04T08:43:31.006Z</time></trkpt><trkpt lat="41.087895" lon="14.5092583"><ele>173.20000000000002</ele><time>2026-04-04T08:43:33.007Z</time></trkpt><trkpt lat="41.0879017" lon="14.5093783"><ele>175.8</ele><time>2026-04-04T08:43:35.006Z</time></trkpt><trkpt lat="41.0879283" lon="14.509495"><ele>178.4</ele><time>2026-04-04T08:43:37.006Z</time></trkpt><trkpt lat="41.0879767" lon="14.5096033"><ele>181.0</ele><time>2026-04-04T08:43:39.006Z</time></trkpt><trkpt lat="41.0880367" lon="14.5097083"><ele>178.60000000000002</ele><time>2026-04-04T08:43:41.006Z</time></trkpt><trkpt lat="41.0880967" lon="14.5098117"><ele>176.2</ele><time>2026-04-04T08:43:43.007Z</time></trkpt><trkpt lat="41.088155" lon="14.5099233"><ele>173.8</ele><time>2026-04-04T08:43:45.006Z</time></trkpt><trkpt lat="41.0882083" lon="14.5100267"><ele>171.39999999999998</ele><time>2026-04-04T08:43:47.007Z</time></trkpt><trkpt lat="41.0882683" lon="14.5101317"><ele>169.0</ele><time>2026-04-04T08:43:49.007Z</time></trkpt><trkpt lat="41.0883317" lon="14.51023"><ele>169.0</ele><time>2026-04-04T08:43:51.006Z</time></trkpt><trkpt lat="41.0883933" lon="14.5103383"><ele>169.0</ele><time>2026-04-04T08:43:53.006Z</time></trkpt><trkpt lat="41.088455" lon="14.5104467"><ele>169.0</ele><time>2026-04-04T08:43:55.007Z</time></trkpt><trkpt lat="41.0885117" lon="14.5105583"><ele>169.0</ele><time>2026-04-04T08:43:57.006Z</time></trkpt><trkpt lat="41.0885633" lon="14.5106817"><ele>169.0</ele><time>2026-04-04T08:43:59.006Z</time></trkpt><trkpt lat="41.08861" lon="14.5108083"><ele>170.6</ele><time>2026-04-04T08:44:01.007Z</time></trkpt><trkpt lat="41.0886433" lon="14.5109317"><ele>172.2</ele><time>2026-04-04T08:44:03.007Z</time></trkpt><trkpt lat="41.0886617" lon="14.5110633"><ele>173.79999999999998</ele><time>2026-04-04T08:44:05.006Z</time></trkpt><trkpt lat="41.0886767" lon="14.5111883"><ele>175.39999999999998</ele><time>2026-04-04T08:44:07.007Z</time></trkpt><trkpt lat="41.08869" lon="14.5113117"><ele>177.0</ele><time>2026-04-04T08:44:09.007Z</time></trkpt><trkpt lat="41.0887167" lon="14.51144"><ele>178.8</ele><time>2026-04-04T08:44:11.006Z</time></trkpt><trkpt lat="41.0887433" lon="14.51157"><ele>180.6</ele><time>2026-04-04T08:44:13.007Z</time></trkpt><trkpt lat="41.0887817" lon="14.51168"><ele>182.4</ele><time>2026-04-04T08:44:15.007Z</time></trkpt><trkpt lat="41.08884" lon="14.5117583"><ele>184.20000000000002</ele><time>2026-04-04T08:44:17.008Z</time></trkpt><trkpt lat="41.0889267" lon="14.5118117"><ele>186.0</ele><time>2026-04-04T08:44:19.008Z</time></trkpt><trkpt lat="41.089015" lon="14.5118517"><ele>183.8</ele><time>2026-04-04T08:44:21.006Z</time></trkpt><trkpt lat="41.089105" lon="14.5119017"><ele>181.60000000000002</ele><time>2026-04-04T08:44:23.008Z</time></trkpt><trkpt lat="41.0891967" lon="14.51195"><ele>179.4</ele><time>2026-04-04T08:44:25.013Z</time></trkpt><trkpt lat="41.0892817" lon="14.512005"><ele>177.2</ele><time>2026-04-04T08:44:27.006Z</time></trkpt><trkpt lat="41.0893633" lon="14.5120683"><ele>175.0</ele><time>2026-04-04T08:44:29.007Z</time></trkpt><trkpt lat="41.0894517" lon="14.5121417"><ele>179.8</ele><time>2026-04-04T08:44:31.007Z</time></trkpt><trkpt lat="41.0895333" lon="14.5122183"><ele>184.6</ele><time>2026-04-04T08:44:33.007Z</time></trkpt><trkpt lat="41.08962" lon="14.5122983"><ele>189.39999999999998</ele><time>2026-04-04T08:44:35.006Z</time></trkpt><trkpt lat="41.0897033" lon="14.5123683"><ele>194.2</ele><time>2026-04-04T08:44:37.008Z</time></trkpt><trkpt lat="41.0897817" lon="14.51244"><ele>199.0</ele><time>2026-04-04T08:44:39.009Z</time></trkpt><trkpt lat="41.0898667" lon="14.5125067"><ele>195.39999999999998</ele><time>2026-04-04T08:44:41.006Z</time></trkpt><trkpt lat="41.089945" lon="14.51257"><ele>191.8</ele><time>2026-04-04T08:44:43.015Z</time></trkpt><trkpt lat="41.0900183" lon="14.5126317"><ele>188.2</ele><time>2026-04-04T08:44:45.006Z</time></trkpt><trkpt lat="41.0900917" lon="14.512705"><ele>184.60000000000002</ele><time>2026-04-04T08:44:47.006Z</time></trkpt><trkpt lat="41.0901683" lon="14.5127967"><ele>181.0</ele><time>2026-04-04T08:44:49.006Z</time></trkpt><trkpt lat="41.0902417" lon="14.5128967"><ele>186.8</ele><time>2026-04-04T08:44:51.006Z</time></trkpt><trkpt lat="41.0903083" lon="14.51301"><ele>192.60000000000002</ele><time>2026-04-04T08:44:53.007Z</time></trkpt><trkpt lat="41.09037" lon="14.5131267"><ele>198.4</ele><time>2026-04-04T08:44:55.007Z</time></trkpt><trkpt lat="41.0904383" lon="14.5132333"><ele>204.2</ele><time>2026-04-04T08:44:57.006Z</time></trkpt><trkpt lat="41.0905017" lon="14.513345"><ele>210.0</ele><time>2026-04-04T08:44:59.007Z</time></trkpt><trkpt lat="41.090565" lon="14.513455"><ele>210.0</ele><time>2026-04-04T08:45:01.007Z</time></trkpt><trkpt lat="41.0906333" lon="14.5135583"><ele>210.0</ele><time>2026-04-04T08:45:03.006Z</time></trkpt><trkpt lat="41.090695" lon="14.5136583"><ele>210.0</ele><time>2026-04-04T08:45:05.006Z</time></trkpt><trkpt lat="41.0907533" lon="14.51376"><ele>210.0</ele><time>2026-04-04T08:45:07.009Z</time></trkpt><trkpt lat="41.090815" lon="14.5138717"><ele>210.0</ele><time>2026-04-04T08:45:09.007Z</time></trkpt><trkpt lat="41.0908717" lon="14.513985"><ele>211.4</ele><time>2026-04-04T08:45:11.008Z</time></trkpt><trkpt lat="41.0909217" lon="14.5141033"><ele>212.8</ele><time>2026-04-04T08:45:13.006Z</time></trkpt><trkpt lat="41.0909683" lon="14.5142217"><ele>214.2</ele><time>2026-04-04T08:45:15.007Z</time></trkpt><trkpt lat="41.0910117" lon="14.5143433"><ele>215.6</ele><time>2026-04-04T08:45:17.007Z</time></trkpt><trkpt lat="41.0910583" lon="14.5144683"><ele>217.0</ele><time>2026-04-04T08:45:19.008Z</time></trkpt><trkpt lat="41.0911067" lon="14.5145883"><ele>217.0</ele><time>2026-04-04T08:45:21.008Z</time></trkpt><trkpt lat="41.091155" lon="14.514705"><ele>217.0</ele><time>2026-04-04T08:45:23.008Z</time></trkpt><trkpt lat="41.091215" lon="14.5148133"><ele>217.0</ele><time>2026-04-04T08:45:25.009Z</time></trkpt><trkpt lat="41.0912733" lon="14.5149117"><ele>217.0</ele><time>2026-04-04T08:45:27.006Z</time></trkpt><trkpt lat="41.0913483" lon="14.5150033"><ele>217.0</ele><time>2026-04-04T08:45:29.007Z</time></trkpt><trkpt lat="41.0914217" lon="14.5150933"><ele>217.0</ele><time>2026-04-04T08:45:31.009Z</time></trkpt><trkpt lat="41.09149" lon="14.5151883"><ele>217.0</ele><time>2026-04-04T08:45:33.009Z</time></trkpt><trkpt lat="41.09156" lon="14.5152817"><ele>217.0</ele><time>2026-04-04T08:45:35.007Z</time></trkpt><trkpt lat="41.09163" lon="14.515385"><ele>217.0</ele><time>2026-04-04T08:45:37.008Z</time></trkpt><trkpt lat="41.091695" lon="14.5154983"><ele>217.0</ele><time>2026-04-04T08:45:39.009Z</time></trkpt><trkpt lat="41.0917567" lon="14.5156133"><ele>214.6</ele><time>2026-04-04T08:45:41.007Z</time></trkpt><trkpt lat="41.0918217" lon="14.51572"><ele>212.2</ele><time>2026-04-04T08:45:43.01Z</time></trkpt><trkpt lat="41.091895" lon="14.5157983"><ele>209.8</ele><time>2026-04-04T08:45:45.008Z</time></trkpt><trkpt lat="41.0919767" lon="14.5158833"><ele>207.4</ele><time>2026-04-04T08:45:47.009Z</time></trkpt><trkpt lat="41.09207" lon="14.515955"><ele>205.0</ele><time>2026-04-04T08:45:49.006Z</time></trkpt><trkpt lat="41.0921667" lon="14.5160233"><ele>205.0</ele><time>2026-04-04T08:45:51.006Z</time></trkpt><trkpt lat="41.0922617" lon="14.5160833"><ele>205.0</ele><time>2026-04-04T08:45:53.006Z</time></trkpt><trkpt lat="41.0923583" lon="14.516145"><ele>205.0</ele><time>2026-04-04T08:45:55.007Z</time></trkpt><trkpt lat="41.0924567" lon="14.51621"><ele>205.0</ele><time>2026-04-04T08:45:57.009Z</time></trkpt><trkpt lat="41.0925517" lon="14.516275"><ele>205.0</ele><time>2026-04-04T08:45:59.007Z</time></trkpt><trkpt lat="41.092645" lon="14.5163383"><ele>205.8</ele><time>2026-04-04T08:46:01.009Z</time></trkpt><trkpt lat="41.0927367" lon="14.5164117"><ele>206.6</ele><time>2026-04-04T08:46:03.01Z</time></trkpt><trkpt lat="41.0928283" lon="14.5165017"><ele>207.39999999999998</ele><time>2026-04-04T08:46:05.009Z</time></trkpt><trkpt lat="41.0929083" lon="14.5166067"><ele>208.2</ele><time>2026-04-04T08:46:07.007Z</time></trkpt><trkpt lat="41.09298" lon="14.5167183"><ele>209.0</ele><time>2026-04-04T08:46:09.007Z</time></trkpt><trkpt lat="41.0930467" lon="14.5168317"><ele>209.0</ele><time>2026-04-04T08:46:11.01Z</time></trkpt><trkpt lat="41.0931067" lon="14.5169533"><ele>209.0</ele><time>2026-04-04T08:46:13.011Z</time></trkpt><trkpt lat="41.0931667" lon="14.5170783"><ele>209.0</ele><time>2026-04-04T08:46:15.007Z</time></trkpt><trkpt lat="41.0932233" lon="14.5171933"><ele>209.0</ele><time>2026-04-04T08:46:17.006Z</time></trkpt><trkpt lat="41.09328" lon="14.5173183"><ele>209.0</ele><time>2026-04-04T08:46:19.007Z</time></trkpt><trkpt lat="41.0933283" lon="14.5174467"><ele>210.6</ele><time>2026-04-04T08:46:21.007Z</time></trkpt><trkpt lat="41.093375" lon="14.5175717"><ele>212.2</ele><time>2026-04-04T08:46:23.006Z</time></trkpt><trkpt lat="41.0934267" lon="14.5176933"><ele>213.79999999999998</ele><time>2026-04-04T08:46:25.006Z</time></trkpt><trkpt lat="41.093475" lon="14.5178267"><ele>215.39999999999998</ele><time>2026-04-04T08:46:27.006Z</time></trkpt><trkpt lat="41.0935133" lon="14.5179567"><ele>217.0</ele><time>2026-04-04T08:46:29.008Z</time></trkpt><trkpt lat="41.0935617" lon="14.5180867"><ele>217.0</ele><time>2026-04-04T08:46:31.006Z</time></trkpt><trkpt lat="41.0936167" lon="14.5182367"><ele>217.0</ele><time>2026-04-04T08:46:33.01Z</time></trkpt><trkpt lat="41.093665" lon="14.5183817"><ele>217.0</ele><time>2026-04-04T08:46:35.008Z</time></trkpt><trkpt lat="41.0937067" lon="14.5185233"><ele>217.0</ele><time>2026-04-04T08:46:37.008Z</time></trkpt><trkpt lat="41.0937333" lon="14.5186033"><ele>217.0</ele><time>2026-04-04T08:46:38.008Z</time></trkpt><trkpt lat="41.093775" lon="14.5187583"><ele>220.6</ele><time>2026-04-04T08:46:40.007Z</time></trkpt><trkpt lat="41.0938033" lon="14.5188367"><ele>224.2</ele><time>2026-04-04T08:46:41.007Z</time></trkpt><trkpt lat="41.0938567" lon="14.5189833"><ele>227.8</ele><time>2026-04-04T08:46:43.007Z</time></trkpt><trkpt lat="41.0939017" lon="14.51913"><ele>231.4</ele><time>2026-04-04T08:46:45.007Z</time></trkpt><trkpt lat="41.0939583" lon="14.519275"><ele>235.0</ele><time>2026-04-04T08:46:47.006Z</time></trkpt><trkpt lat="41.09401" lon="14.5194033"><ele>235.0</ele><time>2026-04-04T08:46:49.006Z</time></trkpt><trkpt lat="41.0940467" lon="14.51953"><ele>235.0</ele><time>2026-04-04T08:46:51.009Z</time></trkpt><trkpt lat="41.0940933" lon="14.51965"><ele>235.0</ele><time>2026-04-04T08:46:53.007Z</time></trkpt><trkpt lat="41.0941433" lon="14.519755"><ele>235.0</ele><time>2026-04-04T08:46:55.008Z</time></trkpt><trkpt lat="41.0941933" lon="14.519855"><ele>235.0</ele><time>2026-04-04T08:46:57.009Z</time></trkpt><trkpt lat="41.0942417" lon="14.5199567"><ele>234.0</ele><time>2026-04-04T08:46:59.007Z</time></trkpt><trkpt lat="41.09429" lon="14.5200533"><ele>233.0</ele><time>2026-04-04T08:47:01.007Z</time></trkpt><trkpt lat="41.0943533" lon="14.5201467"><ele>232.0</ele><time>2026-04-04T08:47:03.006Z</time></trkpt><trkpt lat="41.0944167" lon="14.5202617"><ele>231.0</ele><time>2026-04-04T08:47:05.005Z</time></trkpt><trkpt lat="41.0944733" lon="14.52037"><ele>230.0</ele><time>2026-04-04T08:47:07.005Z</time></trkpt><trkpt lat="41.0945317" lon="14.5204517"><ele>230.0</ele><time>2026-04-04T08:47:09.005Z</time></trkpt><trkpt lat="41.0945867" lon="14.52052"><ele>230.0</ele><time>2026-04-04T08:47:11.005Z</time></trkpt><trkpt lat="41.0946633" lon="14.5205617"><ele>230.0</ele><time>2026-04-04T08:47:13.006Z</time></trkpt><trkpt lat="41.0947517" lon="14.520595"><ele>230.0</ele><time>2026-04-04T08:47:15.005Z</time></trkpt><trkpt lat="41.094855" lon="14.5206067"><ele>230.0</ele><time>2026-04-04T08:47:17.007Z</time></trkpt><trkpt lat="41.0949683" lon="14.5205817"><ele>227.6</ele><time>2026-04-04T08:47:19.005Z</time></trkpt><trkpt lat="41.09506" lon="14.520515"><ele>225.2</ele><time>2026-04-04T08:47:21.007Z</time></trkpt><trkpt lat="41.0951267" lon="14.5203983"><ele>222.8</ele><time>2026-04-04T08:47:23.008Z</time></trkpt><trkpt lat="41.0951617" lon="14.5202583"><ele>220.4</ele><time>2026-04-04T08:47:25.009Z</time></trkpt><trkpt lat="41.09518" lon="14.5201117"><ele>218.0</ele><time>2026-04-04T08:47:27.006Z</time></trkpt><trkpt lat="41.0951983" lon="14.51998"><ele>215.0</ele><time>2026-04-04T08:47:29.006Z</time></trkpt><trkpt lat="41.09523" lon="14.5198517"><ele>212.0</ele><time>2026-04-04T08:47:31.005Z</time></trkpt><trkpt lat="41.095255" lon="14.519725"><ele>209.0</ele><time>2026-04-04T08:47:33.006Z</time></trkpt><trkpt lat="41.0952767" lon="14.5196017"><ele>206.0</ele><time>2026-04-04T08:47:35.005Z</time></trkpt><trkpt lat="41.0953067" lon="14.51948"><ele>203.0</ele><time>2026-04-04T08:47:37.005Z</time></trkpt><trkpt lat="41.0953567" lon="14.519375"><ele>203.4</ele><time>2026-04-04T08:47:39.005Z</time></trkpt><trkpt lat="41.095445" lon="14.519295"><ele>203.8</ele><time>2026-04-04T08:47:41.005Z</time></trkpt><trkpt lat="41.0955417" lon="14.5192483"><ele>204.2</ele><time>2026-04-04T08:47:43.006Z</time></trkpt><trkpt lat="41.0956317" lon="14.5192233"><ele>204.6</ele><time>2026-04-04T08:47:45.005Z</time></trkpt><trkpt lat="41.0957133" lon="14.51921"><ele>205.0</ele><time>2026-04-04T08:47:47.009Z</time></trkpt><trkpt lat="41.0957883" lon="14.519215"><ele>205.0</ele><time>2026-04-04T08:47:49.005Z</time></trkpt><trkpt lat="41.0958517" lon="14.5192367"><ele>205.0</ele><time>2026-04-04T08:47:51.007Z</time></trkpt><trkpt lat="41.0959167" lon="14.51927"><ele>205.0</ele><time>2026-04-04T08:47:53.006Z</time></trkpt><trkpt lat="41.0959733" lon="14.51932"><ele>205.0</ele><time>2026-04-04T08:47:55.005Z</time></trkpt><trkpt lat="41.09603" lon="14.5193617"><ele>205.0</ele><time>2026-04-04T08:47:57.005Z</time></trkpt><trkpt lat="41.0961133" lon="14.519405"><ele>205.0</ele><time>2026-04-04T08:48:00.007Z</time></trkpt><trkpt lat="41.0961783" lon="14.5194267"><ele>205.0</ele><time>2026-04-04T08:48:02.006Z</time></trkpt><trkpt lat="41.0962483" lon="14.5194483"><ele>205.0</ele><time>2026-04-04T08:48:04.005Z</time></trkpt><trkpt lat="41.0963133" lon="14.5194617"><ele>205.0</ele><time>2026-04-04T08:48:06.006Z</time></trkpt><trkpt lat="41.09638" lon="14.5194667"><ele>205.0</ele><time>2026-04-04T08:48:08.006Z</time></trkpt><trkpt lat="41.0964517" lon="14.519455"><ele>205.0</ele><time>2026-04-04T08:48:10.006Z</time></trkpt><trkpt lat="41.0965267" lon="14.5194433"><ele>205.0</ele><time>2026-04-04T08:48:12.006Z</time></trkpt><trkpt lat="41.096595" lon="14.5194267"><ele>205.0</ele><time>2026-04-04T08:48:14.006Z</time></trkpt><trkpt lat="41.0966583" lon="14.519415"><ele>205.0</ele><time>2026-04-04T08:48:16.006Z</time></trkpt><trkpt lat="41.0967233" lon="14.51941"><ele>205.2857142857143</ele><time>2026-04-04T08:48:18.006Z</time></trkpt><trkpt lat="41.0967883" lon="14.51942"><ele>205.57142857142856</ele><time>2026-04-04T08:48:20.006Z</time></trkpt><trkpt lat="41.0968533" lon="14.5194283"><ele>205.85714285714286</ele><time>2026-04-04T08:48:22.005Z</time></trkpt><trkpt lat="41.0969167" lon="14.51944"><ele>206.14285714285717</ele><time>2026-04-04T08:48:24.005Z</time></trkpt><trkpt lat="41.0969867" lon="14.5194583"><ele>206.42857142857144</ele><time>2026-04-04T08:48:26.006Z</time></trkpt><trkpt lat="41.09705" lon="14.5194633"><ele>206.71428571428572</ele><time>2026-04-04T08:48:28.005Z</time></trkpt><trkpt lat="41.0971133" lon="14.5194767"><ele>207.0</ele><time>2026-04-04T08:48:30.006Z</time></trkpt><trkpt lat="41.0971817" lon="14.5194967"><ele>207.00000000000003</ele><time>2026-04-04T08:48:32.006Z</time></trkpt><trkpt lat="41.09725" lon="14.5195217"><ele>207.0</ele><time>2026-04-04T08:48:34.006Z</time></trkpt><trkpt lat="41.0973217" lon="14.5195417"><ele>207.0</ele><time>2026-04-04T08:48:36.006Z</time></trkpt><trkpt lat="41.0973883" lon="14.5195667"><ele>207.0</ele><time>2026-04-04T08:48:38.005Z</time></trkpt><trkpt lat="41.0974533" lon="14.5195833"><ele>207.0</ele><time>2026-04-04T08:48:40.007Z</time></trkpt><trkpt lat="41.0975233" lon="14.5196083"><ele>207.00000000000003</ele><time>2026-04-04T08:48:42.006Z</time></trkpt><trkpt lat="41.0975983" lon="14.5196417"><ele>207.0</ele><time>2026-04-04T08:48:44.01Z</time></trkpt><trkpt lat="41.0976667" lon="14.5196667"><ele>211.14285714285717</ele><time>2026-04-04T08:48:46.008Z</time></trkpt><trkpt lat="41.0977333" lon="14.5196983"><ele>215.28571428571428</ele><time>2026-04-04T08:48:48.006Z</time></trkpt><trkpt lat="41.0977983" lon="14.5197217"><ele>219.42857142857144</ele><time>2026-04-04T08:48:50.006Z</time></trkpt><trkpt lat="41.0978633" lon="14.5197433"><ele>223.57142857142858</ele><time>2026-04-04T08:48:52.005Z</time></trkpt><trkpt lat="41.0979283" lon="14.5197683"><ele>227.71428571428572</ele><time>2026-04-04T08:48:54.006Z</time></trkpt><trkpt lat="41.0979967" lon="14.519805"><ele>231.85714285714286</ele><time>2026-04-04T08:48:56.007Z</time></trkpt><trkpt lat="41.09806" lon="14.5198283"><ele>236.0</ele><time>2026-04-04T08:48:58.007Z</time></trkpt><trkpt lat="41.0981267" lon="14.5198583"><ele>236.0</ele><time>2026-04-04T08:49:00.006Z</time></trkpt><trkpt lat="41.0981967" lon="14.519905"><ele>236.0</ele><time>2026-04-04T08:49:02.006Z</time></trkpt><trkpt lat="41.0982583" lon="14.5199517"><ele>236.0</ele><time>2026-04-04T08:49:04.005Z</time></trkpt><trkpt lat="41.0983117" lon="14.520005"><ele>236.0</ele><time>2026-04-04T08:49:06.006Z</time></trkpt><trkpt lat="41.098365" lon="14.5200633"><ele>236.0</ele><time>2026-04-04T08:49:08.005Z</time></trkpt><trkpt lat="41.0984117" lon="14.520125"><ele>236.0</ele><time>2026-04-04T08:49:10.006Z</time></trkpt><trkpt lat="41.0984583" lon="14.5201867"><ele>236.0</ele><time>2026-04-04T08:49:12.005Z</time></trkpt><trkpt lat="41.0985167" lon="14.5202717"><ele>234.28571428571428</ele><time>2026-04-04T08:49:15.007Z</time></trkpt><trkpt lat="41.098575" lon="14.5203533"><ele>232.57142857142858</ele><time>2026-04-04T08:49:18.006Z</time></trkpt><trkpt lat="41.0986183" lon="14.52042"><ele>230.85714285714286</ele><time>2026-04-04T08:49:20.01Z</time></trkpt><trkpt lat="41.0986633" lon="14.5204933"><ele>229.14285714285714</ele><time>2026-04-04T08:49:22.006Z</time></trkpt><trkpt lat="41.0987033" lon="14.52057"><ele>227.42857142857144</ele><time>2026-04-04T08:49:24.006Z</time></trkpt><trkpt lat="41.0987417" lon="14.52065"><ele>225.71428571428572</ele><time>2026-04-04T08:49:26.008Z</time></trkpt><trkpt lat="41.0987833" lon="14.5207283"><ele>224.0</ele><time>2026-04-04T08:49:28.007Z</time></trkpt><trkpt lat="41.0988233" lon="14.5208133"><ele>227.71428571428572</ele><time>2026-04-04T08:49:30.007Z</time></trkpt><trkpt lat="41.09886" lon="14.5208917"><ele>231.42857142857144</ele><time>2026-04-04T08:49:32.006Z</time></trkpt><trkpt lat="41.098895" lon="14.5209617"><ele>235.14285714285714</ele><time>2026-04-04T08:49:34.006Z</time></trkpt><trkpt lat="41.0989267" lon="14.521035"><ele>238.85714285714286</ele><time>2026-04-04T08:49:36.006Z</time></trkpt><trkpt lat="41.0989567" lon="14.5211117"><ele>242.57142857142858</ele><time>2026-04-04T08:49:38.007Z</time></trkpt><trkpt lat="41.0990033" lon="14.5212233"><ele>246.28571428571428</ele><time>2026-04-04T08:49:41.007Z</time></trkpt><trkpt lat="41.099025" lon="14.5213067"><ele>250.0</ele><time>2026-04-04T08:49:43.006Z</time></trkpt><trkpt lat="41.0990517" lon="14.52139"><ele>248.14285714285714</ele><time>2026-04-04T08:49:45.006Z</time></trkpt><trkpt lat="41.0990817" lon="14.521475"><ele>246.28571428571428</ele><time>2026-04-04T08:49:47.006Z</time></trkpt><trkpt lat="41.0991133" lon="14.5215517"><ele>244.42857142857142</ele><time>2026-04-04T08:49:49.008Z</time></trkpt><trkpt lat="41.0991483" lon="14.5216217"><ele>242.57142857142856</ele><time>2026-04-04T08:49:51.006Z</time></trkpt><trkpt lat="41.0991817" lon="14.521695"><ele>240.71428571428572</ele><time>2026-04-04T08:49:53.006Z</time></trkpt><trkpt lat="41.0992217" lon="14.521805"><ele>238.85714285714283</ele><time>2026-04-04T08:49:56.006Z</time></trkpt><trkpt lat="41.0992483" lon="14.5218833"><ele>236.99999999999997</ele><time>2026-04-04T08:49:58.007Z</time></trkpt><trkpt lat="41.0992783" lon="14.5219967"><ele>239.4285714285714</ele><time>2026-04-04T08:50:01.005Z</time></trkpt><trkpt lat="41.0993017" lon="14.522075"><ele>241.85714285714283</ele><time>2026-04-04T08:50:03.006Z</time></trkpt><trkpt lat="41.0993283" lon="14.5221517"><ele>244.28571428571428</ele><time>2026-04-04T08:50:05.005Z</time></trkpt><trkpt lat="41.0993583" lon="14.52223"><ele>246.7142857142857</ele><time>2026-04-04T08:50:07.005Z</time></trkpt><trkpt lat="41.0993933" lon="14.522325"><ele>249.1428571428571</ele><time>2026-04-04T08:50:10.006Z</time></trkpt><trkpt lat="41.099425" lon="14.5224467"><ele>251.57142857142858</ele><time>2026-04-04T08:50:13.006Z</time></trkpt><trkpt lat="41.0994483" lon="14.5225267"><ele>254.0</ele><time>2026-04-04T08:50:15.005Z</time></trkpt><trkpt lat="41.0994717" lon="14.5226067"><ele>254.00000000000003</ele><time>2026-04-04T08:50:17.005Z</time></trkpt><trkpt lat="41.0994983" lon="14.522685"><ele>254.0</ele><time>2026-04-04T08:50:19.006Z</time></trkpt><trkpt lat="41.0995233" lon="14.5227683"><ele>254.0</ele><time>2026-04-04T08:50:21.007Z</time></trkpt><trkpt lat="41.0995583" lon="14.5228783"><ele>254.0</ele><time>2026-04-04T08:50:24.006Z</time></trkpt><trkpt lat="41.0995917" lon="14.52299"><ele>254.00000000000003</ele><time>2026-04-04T08:50:27.005Z</time></trkpt><trkpt lat="41.0996267" lon="14.5231067"><ele>254.0</ele><time>2026-04-04T08:50:30.006Z</time></trkpt><trkpt lat="41.0996583" lon="14.5232117"><ele>256.33333333333337</ele><time>2026-04-04T08:50:33.007Z</time></trkpt><trkpt lat="41.099695" lon="14.52332"><ele>258.6666666666667</ele><time>2026-04-04T08:50:36.006Z</time></trkpt><trkpt lat="41.0997283" lon="14.52342"><ele>261.0</ele><time>2026-04-04T08:50:39.006Z</time></trkpt><trkpt lat="41.0997617" lon="14.52353"><ele>263.3333333333333</ele><time>2026-04-04T08:50:42.007Z</time></trkpt><trkpt lat="41.0998033" lon="14.52364"><ele>265.66666666666663</ele><time>2026-04-04T08:50:45.006Z</time></trkpt><trkpt lat="41.0998417" lon="14.523745"><ele>268.0</ele><time>2026-04-04T08:50:48.006Z</time></trkpt><trkpt lat="41.0998867" lon="14.523845"><ele>265.0</ele><time>2026-04-04T08:50:51.006Z</time></trkpt><trkpt lat="41.0999417" lon="14.5239417"><ele>262.0</ele><time>2026-04-04T08:50:54.007Z</time></trkpt><trkpt lat="41.0999967" lon="14.5240367"><ele>259.0</ele><time>2026-04-04T08:50:57.009Z</time></trkpt><trkpt lat="41.1000483" lon="14.5241017"><ele>256.0</ele><time>2026-04-04T08:50:59.006Z</time></trkpt><trkpt lat="41.100105" lon="14.5241583"><ele>252.99999999999997</ele><time>2026-04-04T08:51:01.007Z</time></trkpt><trkpt lat="41.1001783" lon="14.52423"><ele>250.0</ele><time>2026-04-04T08:51:04.007Z</time></trkpt><trkpt lat="41.10025" lon="14.5243017"><ele>249.99999999999997</ele><time>2026-04-04T08:51:07.008Z</time></trkpt><trkpt lat="41.100315" lon="14.5243667"><ele>250.0</ele><time>2026-04-04T08:51:10.005Z</time></trkpt><trkpt lat="41.1003817" lon="14.5244417"><ele>250.0</ele><time>2026-04-04T08:51:13.006Z</time></trkpt><trkpt lat="41.10044" lon="14.524535"><ele>250.0</ele><time>2026-04-04T08:51:16.005Z</time></trkpt><trkpt lat="41.100485" lon="14.5246483"><ele>249.99999999999997</ele><time>2026-04-04T08:51:19.006Z</time></trkpt><trkpt lat="41.1004933" lon="14.5247683"><ele>250.0</ele><time>2026-04-04T08:51:22.006Z</time></trkpt><trkpt lat="41.1004783" lon="14.52485"><ele>250.49999999999997</ele><time>2026-04-04T08:51:24.006Z</time></trkpt><trkpt lat="41.1004467" lon="14.5249333"><ele>251.0</ele><time>2026-04-04T08:51:26.006Z</time></trkpt><trkpt lat="41.100395" lon="14.5250083"><ele>251.5</ele><time>2026-04-04T08:51:28.006Z</time></trkpt><trkpt lat="41.1003333" lon="14.52507"><ele>252.0</ele><time>2026-04-04T08:51:30.007Z</time></trkpt><trkpt lat="41.100265" lon="14.5251283"><ele>252.49999999999997</ele><time>2026-04-04T08:51:32.009Z</time></trkpt><trkpt lat="41.1001817" lon="14.525165"><ele>253.0</ele><time>2026-04-04T08:51:34.006Z</time></trkpt><trkpt lat="41.1000933" lon="14.5251867"><ele>253.0</ele><time>2026-04-04T08:51:36.006Z</time></trkpt><trkpt lat="41.0999983" lon="14.525195"><ele>253.0</ele><time>2026-04-04T08:51:38.006Z</time></trkpt><trkpt lat="41.099905" lon="14.5251883"><ele>253.0</ele><time>2026-04-04T08:51:40.006Z</time></trkpt><trkpt lat="41.099815" lon="14.5251767"><ele>253.0</ele><time>2026-04-04T08:51:42.007Z</time></trkpt><trkpt lat="41.0997267" lon="14.5251717"><ele>253.0</ele><time>2026-04-04T08:51:44.006Z</time></trkpt><trkpt lat="41.0996383" lon="14.5251667"><ele>254.16666666666666</ele><time>2026-04-04T08:51:46.006Z</time></trkpt><trkpt lat="41.099545" lon="14.5251617"><ele>255.33333333333331</ele><time>2026-04-04T08:51:48.012Z</time></trkpt><trkpt lat="41.09946" lon="14.52516"><ele>256.5</ele><time>2026-04-04T08:51:50.006Z</time></trkpt><trkpt lat="41.0993717" lon="14.5251617"><ele>257.6666666666667</ele><time>2026-04-04T08:51:52.006Z</time></trkpt><trkpt lat="41.09928" lon="14.5251567"><ele>258.83333333333337</ele><time>2026-04-04T08:51:54.006Z</time></trkpt><trkpt lat="41.0991933" lon="14.5251567"><ele>260.0</ele><time>2026-04-04T08:51:56.006Z</time></trkpt><trkpt lat="41.0991033" lon="14.525155"><ele>261.5</ele><time>2026-04-04T08:51:58.006Z</time></trkpt><trkpt lat="41.0990083" lon="14.525155"><ele>263.0</ele><time>2026-04-04T08:52:00.007Z</time></trkpt><trkpt lat="41.0989117" lon="14.5251467"><ele>264.5</ele><time>2026-04-04T08:52:02.006Z</time></trkpt><trkpt lat="41.0988267" lon="14.5251383"><ele>266.0</ele><time>2026-04-04T08:52:04.005Z</time></trkpt><trkpt lat="41.098755" lon="14.52513"><ele>267.5</ele><time>2026-04-04T08:52:06.006Z</time></trkpt><trkpt lat="41.0986783" lon="14.52513"><ele>269.0</ele><time>2026-04-04T08:52:08.007Z</time></trkpt><trkpt lat="41.0985983" lon="14.525165"><ele>269.0</ele><time>2026-04-04T08:52:10.006Z</time></trkpt><trkpt lat="41.0985183" lon="14.5252"><ele>269.0</ele><time>2026-04-04T08:52:12.006Z</time></trkpt><trkpt lat="41.09844" lon="14.5252367"><ele>269.0</ele><time>2026-04-04T08:52:14.005Z</time></trkpt><trkpt lat="41.0983583" lon="14.52526"><ele>269.0</ele><time>2026-04-04T08:52:16.006Z</time></trkpt><trkpt lat="41.0982617" lon="14.5252883"><ele>269.0</ele><time>2026-04-04T08:52:18.006Z</time></trkpt><trkpt lat="41.0981533" lon="14.5253117"><ele>271.0</ele><time>2026-04-04T08:52:20.005Z</time></trkpt><trkpt lat="41.0980533" lon="14.5253267"><ele>273.0</ele><time>2026-04-04T08:52:22.006Z</time></trkpt><trkpt lat="41.0979433" lon="14.5253333"><ele>275.0</ele><time>2026-04-04T08:52:24.013Z</time></trkpt><trkpt lat="41.0978417" lon="14.525335"><ele>277.0</ele><time>2026-04-04T08:52:26.006Z</time></trkpt><trkpt lat="41.0977433" lon="14.5253317"><ele>279.0</ele><time>2026-04-04T08:52:28.006Z</time></trkpt><trkpt lat="41.0976367" lon="14.52533"><ele>279.0</ele><time>2026-04-04T08:52:30.007Z</time></trkpt><trkpt lat="41.097535" lon="14.525335"><ele>279.0</ele><time>2026-04-04T08:52:32.007Z</time></trkpt><trkpt lat="41.0974417" lon="14.52536"><ele>279.0</ele><time>2026-04-04T08:52:34.006Z</time></trkpt><trkpt lat="41.0973533" lon="14.5254033"><ele>279.0</ele><time>2026-04-04T08:52:36.006Z</time></trkpt><trkpt lat="41.0972667" lon="14.5254767"><ele>279.0</ele><time>2026-04-04T08:52:38.006Z</time></trkpt><trkpt lat="41.097195" lon="14.5255567"><ele>280.2</ele><time>2026-04-04T08:52:40.006Z</time></trkpt><trkpt lat="41.0971417" lon="14.5256517"><ele>281.4</ele><time>2026-04-04T08:52:42.006Z</time></trkpt><trkpt lat="41.0971317" lon="14.52576"><ele>282.6</ele><time>2026-04-04T08:52:44.008Z</time></trkpt><trkpt lat="41.0971367" lon="14.5258883"><ele>283.8</ele><time>2026-04-04T08:52:46.005Z</time></trkpt><trkpt lat="41.097145" lon="14.5260283"><ele>285.0</ele><time>2026-04-04T08:52:48.006Z</time></trkpt><trkpt lat="41.097145" lon="14.5261817"><ele>282.25</ele><time>2026-04-04T08:52:50.006Z</time></trkpt><trkpt lat="41.09712" lon="14.5263333"><ele>279.5</ele><time>2026-04-04T08:52:52.005Z</time></trkpt><trkpt lat="41.0970883" lon="14.52647"><ele>276.75</ele><time>2026-04-04T08:52:54.007Z</time></trkpt><trkpt lat="41.0970333" lon="14.526605"><ele>274.0</ele><time>2026-04-04T08:52:56.006Z</time></trkpt><trkpt lat="41.096965" lon="14.5267267"><ele>274.0</ele><time>2026-04-04T08:52:58.006Z</time></trkpt><trkpt lat="41.09689" lon="14.52683"><ele>274.0</ele><time>2026-04-04T08:53:00.007Z</time></trkpt><trkpt lat="41.0968117" lon="14.526925"><ele>274.0</ele><time>2026-04-04T08:53:02.006Z</time></trkpt><trkpt lat="41.096725" lon="14.5270083"><ele>274.0</ele><time>2026-04-04T08:53:04.006Z</time></trkpt><trkpt lat="41.0966333" lon="14.5270867"><ele>274.0</ele><time>2026-04-04T08:53:06.006Z</time></trkpt><trkpt lat="41.0965417" lon="14.5271567"><ele>272.59999999999997</ele><time>2026-04-04T08:53:08.006Z</time></trkpt><trkpt lat="41.0964483" lon="14.5272317"><ele>271.2</ele><time>2026-04-04T08:53:10.007Z</time></trkpt><trkpt lat="41.0963467" lon="14.5273"><ele>269.79999999999995</ele><time>2026-04-04T08:53:12.01Z</time></trkpt><trkpt lat="41.0962417" lon="14.5273567"><ele>268.4</ele><time>2026-04-04T08:53:14.008Z</time></trkpt><trkpt lat="41.0961333" lon="14.5273933"><ele>267.0</ele><time>2026-04-04T08:53:16.007Z</time></trkpt><trkpt lat="41.096025" lon="14.5274267"><ele>267.0</ele><time>2026-04-04T08:53:18.008Z</time></trkpt><trkpt lat="41.095925" lon="14.5274467"><ele>267.0</ele><time>2026-04-04T08:53:20.008Z</time></trkpt><trkpt lat="41.09583" lon="14.527465"><ele>267.0</ele><time>2026-04-04T08:53:22.007Z</time></trkpt><trkpt lat="41.09573" lon="14.5274683"><ele>267.0</ele><time>2026-04-04T08:53:24.008Z</time></trkpt><trkpt lat="41.0956283" lon="14.52745"><ele>267.0</ele><time>2026-04-04T08:53:26.007Z</time></trkpt><trkpt lat="41.0955217" lon="14.5274283"><ele>266.7142857142857</ele><time>2026-04-04T08:53:28.008Z</time></trkpt><trkpt lat="41.0954117" lon="14.5273917"><ele>266.42857142857144</ele><time>2026-04-04T08:53:30.007Z</time></trkpt><trkpt lat="41.0953483" lon="14.5273683"><ele>266.1428571428571</ele><time>2026-04-04T08:53:31.006Z</time></trkpt><trkpt lat="41.095285" lon="14.527345"><ele>265.8571428571429</ele><time>2026-04-04T08:53:32.007Z</time></trkpt><trkpt lat="41.0952217" lon="14.5273217"><ele>265.57142857142856</ele><time>2026-04-04T08:53:33.011Z</time></trkpt><trkpt lat="41.09516" lon="14.5272983"><ele>265.2857142857143</ele><time>2026-04-04T08:53:34.007Z</time></trkpt><trkpt lat="41.0950983" lon="14.5272717"><ele>265.0</ele><time>2026-04-04T08:53:35.007Z</time></trkpt><trkpt lat="41.094975" lon="14.5272233"><ele>263.16666666666663</ele><time>2026-04-04T08:53:37.009Z</time></trkpt><trkpt lat="41.0948583" lon="14.52718"><ele>261.3333333333333</ele><time>2026-04-04T08:53:39.007Z</time></trkpt><trkpt lat="41.0947967" lon="14.5271567"><ele>259.5</ele><time>2026-04-04T08:53:40.008Z</time></trkpt><trkpt lat="41.0947333" lon="14.5271333"><ele>257.6666666666667</ele><time>2026-04-04T08:53:41.007Z</time></trkpt><trkpt lat="41.0946717" lon="14.5271033"><ele>255.83333333333334</ele><time>2026-04-04T08:53:42.006Z</time></trkpt><trkpt lat="41.0946033" lon="14.5270767"><ele>254.0</ele><time>2026-04-04T08:53:43.006Z</time></trkpt><trkpt lat="41.0945333" lon="14.5270467"><ele>255.57142857142858</ele><time>2026-04-04T08:53:44.006Z</time></trkpt><trkpt lat="41.0944633" lon="14.527025"><ele>257.1428571428571</ele><time>2026-04-04T08:53:45.006Z</time></trkpt><trkpt lat="41.0943933" lon="14.5269983"><ele>258.71428571428567</ele><time>2026-04-04T08:53:46.006Z</time></trkpt><trkpt lat="41.094325" lon="14.5269683"><ele>260.2857142857143</ele><time>2026-04-04T08:53:47.006Z</time></trkpt><trkpt lat="41.0942617" lon="14.52694"><ele>261.85714285714283</ele><time>2026-04-04T08:53:48.006Z</time></trkpt><trkpt lat="41.0942" lon="14.5269083"><ele>263.4285714285714</ele><time>2026-04-04T08:53:49.006Z</time></trkpt><trkpt lat="41.0941383" lon="14.5268767"><ele>265.0</ele><time>2026-04-04T08:53:50.006Z</time></trkpt><trkpt lat="41.0940783" lon="14.526845"><ele>264.99999999999994</ele><time>2026-04-04T08:53:51.006Z</time></trkpt><trkpt lat="41.0940167" lon="14.5268133"><ele>265.0</ele><time>2026-04-04T08:53:52.006Z</time></trkpt><trkpt lat="41.0939483" lon="14.5267817"><ele>265.0</ele><time>2026-04-04T08:53:53.006Z</time></trkpt><trkpt lat="41.0938867" lon="14.526745"><ele>265.0</ele><time>2026-04-04T08:53:54.008Z</time></trkpt><trkpt lat="41.093825" lon="14.526715"><ele>265.0</ele><time>2026-04-04T08:53:55.006Z</time></trkpt><trkpt lat="41.0937617" lon="14.5266833"><ele>264.99999999999994</ele><time>2026-04-04T08:53:56.006Z</time></trkpt><trkpt lat="41.0937" lon="14.5266433"><ele>265.0</ele><time>2026-04-04T08:53:57.006Z</time></trkpt><trkpt lat="41.0936417" lon="14.5266033"><ele>265.0</ele><time>2026-04-04T08:53:58.006Z</time></trkpt><trkpt lat="41.0935817" lon="14.5265683"><ele>265.0</ele><time>2026-04-04T08:53:59.007Z</time></trkpt><trkpt lat="41.093525" lon="14.52653"><ele>265.0</ele><time>2026-04-04T08:54:00.008Z</time></trkpt><trkpt lat="41.0934217" lon="14.5264567"><ele>265.0</ele><time>2026-04-04T08:54:02.006Z</time></trkpt><trkpt lat="41.0933267" lon="14.5263783"><ele>265.0</ele><time>2026-04-04T08:54:04.007Z</time></trkpt><trkpt lat="41.09323" lon="14.5262883"><ele>265.6</ele><time>2026-04-04T08:54:06.007Z</time></trkpt><trkpt lat="41.0931317" lon="14.52619"><ele>266.2</ele><time>2026-04-04T08:54:08.006Z</time></trkpt><trkpt lat="41.0930333" lon="14.5260817"><ele>266.8</ele><time>2026-04-04T08:54:10.008Z</time></trkpt><trkpt lat="41.0929833" lon="14.5260233"><ele>267.4</ele><time>2026-04-04T08:54:11.007Z</time></trkpt><trkpt lat="41.0929317" lon="14.52596"><ele>268.0</ele><time>2026-04-04T08:54:12.008Z</time></trkpt><trkpt lat="41.0928817" lon="14.525895"><ele>268.0</ele><time>2026-04-04T08:54:13.006Z</time></trkpt><trkpt lat="41.0928383" lon="14.5258233"><ele>268.0</ele><time>2026-04-04T08:54:14.006Z</time></trkpt><trkpt lat="41.0927933" lon="14.5257533"><ele>268.0</ele><time>2026-04-04T08:54:15.006Z</time></trkpt><trkpt lat="41.09275" lon="14.5256783"><ele>268.0</ele><time>2026-04-04T08:54:16.006Z</time></trkpt><trkpt lat="41.0927067" lon="14.5256083"><ele>268.0</ele><time>2026-04-04T08:54:17.005Z</time></trkpt><trkpt lat="41.092665" lon="14.52554"><ele>268.0</ele><time>2026-04-04T08:54:18.006Z</time></trkpt><trkpt lat="41.0926217" lon="14.5254717"><ele>268.0</ele><time>2026-04-04T08:54:19.007Z</time></trkpt><trkpt lat="41.0925767" lon="14.5254033"><ele>269.0</ele><time>2026-04-04T08:54:20.006Z</time></trkpt><trkpt lat="41.0925317" lon="14.525335"><ele>270.0</ele><time>2026-04-04T08:54:21.006Z</time></trkpt><trkpt lat="41.0924917" lon="14.525265"><ele>271.0</ele><time>2026-04-04T08:54:22.006Z</time></trkpt><trkpt lat="41.09245" lon="14.5251933"><ele>272.0</ele><time>2026-04-04T08:54:23.008Z</time></trkpt><trkpt lat="41.0924117" lon="14.52512"><ele>273.0</ele><time>2026-04-04T08:54:24.006Z</time></trkpt><trkpt lat="41.0923667" lon="14.5250517"><ele>274.0</ele><time>2026-04-04T08:54:25.007Z</time></trkpt><trkpt lat="41.092315" lon="14.5249883"><ele>275.0</ele><time>2026-04-04T08:54:26.007Z</time></trkpt><trkpt lat="41.0922583" lon="14.52494"><ele>275.0</ele><time>2026-04-04T08:54:27.008Z</time></trkpt><trkpt lat="41.0921983" lon="14.5249017"><ele>275.0</ele><time>2026-04-04T08:54:28.006Z</time></trkpt><trkpt lat="41.092125" lon="14.5248833"><ele>275.0</ele><time>2026-04-04T08:54:29.009Z</time></trkpt><trkpt lat="41.0920533" lon="14.5248667"><ele>275.0</ele><time>2026-04-04T08:54:30.006Z</time></trkpt><trkpt lat="41.0919783" lon="14.5248667"><ele>275.0</ele><time>2026-04-04T08:54:31.011Z</time></trkpt><trkpt lat="41.0919033" lon="14.5248717"><ele>275.0</ele><time>2026-04-04T08:54:32.006Z</time></trkpt><trkpt lat="41.0918317" lon="14.52486"><ele>275.0</ele><time>2026-04-04T08:54:33.007Z</time></trkpt><trkpt lat="41.0917667" lon="14.5248417"><ele>275.0</ele><time>2026-04-04T08:54:34.007Z</time></trkpt><trkpt lat="41.0916983" lon="14.5248283"><ele>275.0</ele><time>2026-04-04T08:54:35.008Z</time></trkpt><trkpt lat="41.0916283" lon="14.5248183"><ele>275.0</ele><time>2026-04-04T08:54:36.009Z</time></trkpt><trkpt lat="41.0915533" lon="14.5248167"><ele>275.0</ele><time>2026-04-04T08:54:37.006Z</time></trkpt><trkpt lat="41.09148" lon="14.5248217"><ele>275.0</ele><time>2026-04-04T08:54:38.006Z</time></trkpt><trkpt lat="41.0914133" lon="14.52482"><ele>275.0</ele><time>2026-04-04T08:54:39.007Z</time></trkpt><trkpt lat="41.0913083" lon="14.5249267"><ele>276.8571428571429</ele><time>2026-04-04T08:54:41.006Z</time></trkpt><trkpt lat="41.0912667" lon="14.5250033"><ele>278.7142857142857</ele><time>2026-04-04T08:54:42.006Z</time></trkpt><trkpt lat="41.09123" lon="14.5250767"><ele>280.57142857142856</ele><time>2026-04-04T08:54:43.007Z</time></trkpt><trkpt lat="41.0911983" lon="14.5251533"><ele>282.42857142857144</ele><time>2026-04-04T08:54:44.006Z</time></trkpt><trkpt lat="41.0911633" lon="14.5252233"><ele>284.2857142857143</ele><time>2026-04-04T08:54:45.006Z</time></trkpt><trkpt lat="41.091135" lon="14.5253"><ele>286.14285714285717</ele><time>2026-04-04T08:54:46.006Z</time></trkpt><trkpt lat="41.091125" lon="14.5253867"><ele>288.0</ele><time>2026-04-04T08:54:47.006Z</time></trkpt><trkpt lat="41.0911267" lon="14.5254783"><ele>288.00000000000006</ele><time>2026-04-04T08:54:48.006Z</time></trkpt><trkpt lat="41.0911567" lon="14.5255633"><ele>288.0</ele><time>2026-04-04T08:54:49.007Z</time></trkpt><trkpt lat="41.091195" lon="14.5256367"><ele>288.0</ele><time>2026-04-04T08:54:50.009Z</time></trkpt><trkpt lat="41.0912517" lon="14.5257"><ele>288.0</ele><time>2026-04-04T08:54:51.006Z</time></trkpt><trkpt lat="41.091315" lon="14.525755"><ele>288.0</ele><time>2026-04-04T08:54:52.006Z</time></trkpt><trkpt lat="41.091375" lon="14.5258033"><ele>288.00000000000006</ele><time>2026-04-04T08:54:53.006Z</time></trkpt><trkpt lat="41.0914367" lon="14.525845"><ele>288.0</ele><time>2026-04-04T08:54:54.007Z</time></trkpt><trkpt lat="41.0914967" lon="14.5258817"><ele>288.0</ele><time>2026-04-04T08:54:55.006Z</time></trkpt><trkpt lat="41.09156" lon="14.52593"><ele>288.0</ele><time>2026-04-04T08:54:56.006Z</time></trkpt><trkpt lat="41.0916233" lon="14.5259783"><ele>288.0</ele><time>2026-04-04T08:54:57.006Z</time></trkpt><trkpt lat="41.091685" lon="14.5260333"><ele>288.0</ele><time>2026-04-04T08:54:58.006Z</time></trkpt><trkpt lat="41.0917383" lon="14.5261033"><ele>288.0</ele><time>2026-04-04T08:54:59.007Z</time></trkpt><trkpt lat="41.091785" lon="14.526185"><ele>288.0</ele><time>2026-04-04T08:55:00.008Z</time></trkpt><trkpt lat="41.0918233" lon="14.526275"><ele>287.6666666666667</ele><time>2026-04-04T08:55:01.007Z</time></trkpt><trkpt lat="41.0918583" lon="14.5263733"><ele>287.3333333333333</ele><time>2026-04-04T08:55:02.006Z</time></trkpt><trkpt lat="41.0918883" lon="14.5264717"><ele>287.0</ele><time>2026-04-04T08:55:03.006Z</time></trkpt><trkpt lat="41.0919217" lon="14.5265733"><ele>286.66666666666663</ele><time>2026-04-04T08:55:04.006Z</time></trkpt><trkpt lat="41.091955" lon="14.5266717"><ele>286.3333333333333</ele><time>2026-04-04T08:55:05.006Z</time></trkpt><trkpt lat="41.0919867" lon="14.5267717"><ele>286.0</ele><time>2026-04-04T08:55:06.007Z</time></trkpt><trkpt lat="41.0920183" lon="14.526875"><ele>286.0</ele><time>2026-04-04T08:55:07.007Z</time></trkpt><trkpt lat="41.0920467" lon="14.5269767"><ele>286.0</ele><time>2026-04-04T08:55:08.007Z</time></trkpt><trkpt lat="41.0920667" lon="14.5270817"><ele>286.0</ele><time>2026-04-04T08:55:09.006Z</time></trkpt><trkpt lat="41.0920783" lon="14.5271883"><ele>286.0</ele><time>2026-04-04T08:55:10.008Z</time></trkpt><trkpt lat="41.0920867" lon="14.527295"><ele>286.0</ele><time>2026-04-04T08:55:11.007Z</time></trkpt><trkpt lat="41.0920883" lon="14.5274"><ele>286.0</ele><time>2026-04-04T08:55:12.006Z</time></trkpt><trkpt lat="41.0920867" lon="14.5275033"><ele>287.4285714285714</ele><time>2026-04-04T08:55:13.006Z</time></trkpt><trkpt lat="41.0920867" lon="14.5276033"><ele>288.85714285714283</ele><time>2026-04-04T08:55:14.006Z</time></trkpt><trkpt lat="41.0920833" lon="14.5277"><ele>290.2857142857143</ele><time>2026-04-04T08:55:15.006Z</time></trkpt><trkpt lat="41.09209" lon="14.5277933"><ele>291.71428571428567</ele><time>2026-04-04T08:55:16.006Z</time></trkpt><trkpt lat="41.0921117" lon="14.5278867"><ele>293.1428571428571</ele><time>2026-04-04T08:55:17.007Z</time></trkpt><trkpt lat="41.0921433" lon="14.5279783"><ele>294.57142857142856</ele><time>2026-04-04T08:55:18.007Z</time></trkpt><trkpt lat="41.0921917" lon="14.5280583"><ele>296.0</ele><time>2026-04-04T08:55:19.009Z</time></trkpt><trkpt lat="41.0922433" lon="14.528125"><ele>297.0</ele><time>2026-04-04T08:55:20.008Z</time></trkpt><trkpt lat="41.0923067" lon="14.5281783"><ele>298.0</ele><time>2026-04-04T08:55:21.007Z</time></trkpt><trkpt lat="41.09238" lon="14.5282167"><ele>299.0</ele><time>2026-04-04T08:55:22.008Z</time></trkpt><trkpt lat="41.09245" lon="14.52826"><ele>300.0</ele><time>2026-04-04T08:55:23.008Z</time></trkpt><trkpt lat="41.0925183" lon="14.5283117"><ele>301.0</ele><time>2026-04-04T08:55:24.008Z</time></trkpt><trkpt lat="41.0925783" lon="14.5283717"><ele>302.0</ele><time>2026-04-04T08:55:25.008Z</time></trkpt><trkpt lat="41.0926267" lon="14.52845"><ele>299.14285714285717</ele><time>2026-04-04T08:55:26.009Z</time></trkpt><trkpt lat="41.0926583" lon="14.5285333"><ele>296.2857142857143</ele><time>2026-04-04T08:55:27.007Z</time></trkpt><trkpt lat="41.0926817" lon="14.5286283"><ele>293.42857142857144</ele><time>2026-04-04T08:55:28.007Z</time></trkpt><trkpt lat="41.0926867" lon="14.5287283"><ele>290.57142857142856</ele><time>2026-04-04T08:55:29.008Z</time></trkpt><trkpt lat="41.0926883" lon="14.5288333"><ele>287.7142857142857</ele><time>2026-04-04T08:55:30.008Z</time></trkpt><trkpt lat="41.0926883" lon="14.52893"><ele>284.8571428571429</ele><time>2026-04-04T08:55:31.007Z</time></trkpt><trkpt lat="41.09269" lon="14.5290233"><ele>282.0</ele><time>2026-04-04T08:55:32.007Z</time></trkpt><trkpt lat="41.092685" lon="14.52911"><ele>282.0</ele><time>2026-04-04T08:55:33.008Z</time></trkpt><trkpt lat="41.0926417" lon="14.52919"><ele>282.0</ele><time>2026-04-04T08:55:34.01Z</time></trkpt><trkpt lat="41.0925967" lon="14.5292633"><ele>282.0</ele><time>2026-04-04T08:55:35.006Z</time></trkpt><trkpt lat="41.0925533" lon="14.5293383"><ele>282.0</ele><time>2026-04-04T08:55:36.006Z</time></trkpt><trkpt lat="41.0925133" lon="14.52942"><ele>282.0</ele><time>2026-04-04T08:55:37.006Z</time></trkpt><trkpt lat="41.092485" lon="14.5295133"><ele>282.0</ele><time>2026-04-04T08:55:38.011Z</time></trkpt><trkpt lat="41.092475" lon="14.529605"><ele>282.0</ele><time>2026-04-04T08:55:39.006Z</time></trkpt><trkpt lat="41.0925117" lon="14.52975"><ele>283.4</ele><time>2026-04-04T08:55:41.008Z</time></trkpt><trkpt lat="41.092575" lon="14.5297933"><ele>284.79999999999995</ele><time>2026-04-04T08:55:42.006Z</time></trkpt><trkpt lat="41.09269" lon="14.5298467"><ele>286.2</ele><time>2026-04-04T08:55:43.006Z</time></trkpt><trkpt lat="41.0928067" lon="14.52989"><ele>287.59999999999997</ele><time>2026-04-04T08:55:44.006Z</time></trkpt><trkpt lat="41.0929083" lon="14.5299"><ele>289.0</ele><time>2026-04-04T08:55:45.006Z</time></trkpt><trkpt lat="41.0930033" lon="14.529895"><ele>289.0</ele><time>2026-04-04T08:55:46.006Z</time></trkpt><trkpt lat="41.0930917" lon="14.5299233"><ele>289.0</ele><time>2026-04-04T08:55:47.007Z</time></trkpt><trkpt lat="41.0931783" lon="14.5299483"><ele>289.0</ele><time>2026-04-04T08:55:48.007Z</time></trkpt><trkpt lat="41.0932633" lon="14.5299917"><ele>289.0</ele><time>2026-04-04T08:55:49.006Z</time></trkpt><trkpt lat="41.0933433" lon="14.5300333"><ele>289.0</ele><time>2026-04-04T08:55:50.006Z</time></trkpt><trkpt lat="41.0934167" lon="14.5300917"><ele>289.0</ele><time>2026-04-04T08:55:51.006Z</time></trkpt><trkpt lat="41.093485" lon="14.5301617"><ele>288.8333333333333</ele><time>2026-04-04T08:55:52.006Z</time></trkpt><trkpt lat="41.0935517" lon="14.5302433"><ele>288.66666666666663</ele><time>2026-04-04T08:55:53.006Z</time></trkpt><trkpt lat="41.09361" lon="14.5303333"><ele>288.5</ele><time>2026-04-04T08:55:54.006Z</time></trkpt><trkpt lat="41.09366" lon="14.5304283"><ele>288.3333333333333</ele><time>2026-04-04T08:55:55.006Z</time></trkpt><trkpt lat="41.0937117" lon="14.5305233"><ele>288.1666666666667</ele><time>2026-04-04T08:55:56.007Z</time></trkpt><trkpt lat="41.0937583" lon="14.5306183"><ele>288.0</ele><time>2026-04-04T08:55:57.007Z</time></trkpt><trkpt lat="41.0938017" lon="14.530715"><ele>288.0</ele><time>2026-04-04T08:55:58.006Z</time></trkpt><trkpt lat="41.09384" lon="14.5308167"><ele>288.0</ele><time>2026-04-04T08:55:59.006Z</time></trkpt><trkpt lat="41.09387" lon="14.5309233"><ele>288.0</ele><time>2026-04-04T08:56:00.008Z</time></trkpt><trkpt lat="41.0938883" lon="14.5310317"><ele>288.0</ele><time>2026-04-04T08:56:01.006Z</time></trkpt><trkpt lat="41.0938867" lon="14.5311433"><ele>288.0</ele><time>2026-04-04T08:56:02.006Z</time></trkpt><trkpt lat="41.0938717" lon="14.5312517"><ele>288.0</ele><time>2026-04-04T08:56:03.007Z</time></trkpt><trkpt lat="41.0938417" lon="14.5313617"><ele>288.1666666666667</ele><time>2026-04-04T08:56:04.006Z</time></trkpt><trkpt lat="41.0938133" lon="14.5314683"><ele>288.3333333333333</ele><time>2026-04-04T08:56:05.006Z</time></trkpt><trkpt lat="41.0937833" lon="14.5315683"><ele>288.5</ele><time>2026-04-04T08:56:06.006Z</time></trkpt><trkpt lat="41.093745" lon="14.5316633"><ele>288.66666666666663</ele><time>2026-04-04T08:56:07.006Z</time></trkpt><trkpt lat="41.093705" lon="14.53175"><ele>288.8333333333333</ele><time>2026-04-04T08:56:08.006Z</time></trkpt><trkpt lat="41.093675" lon="14.5318283"><ele>289.0</ele><time>2026-04-04T08:56:09.006Z</time></trkpt><trkpt lat="41.0936417" lon="14.5319"><ele>289.0</ele><time>2026-04-04T08:56:10.007Z</time></trkpt><trkpt lat="41.093605" lon="14.5319717"><ele>289.0</ele><time>2026-04-04T08:56:11.007Z</time></trkpt><trkpt lat="41.0935683" lon="14.53204"><ele>289.0</ele><time>2026-04-04T08:56:12.007Z</time></trkpt><trkpt lat="41.0935117" lon="14.5321783"><ele>289.0</ele><time>2026-04-04T08:56:14.008Z</time></trkpt><trkpt lat="41.0934783" lon="14.5323083"><ele>289.0</ele><time>2026-04-04T08:56:16.007Z</time></trkpt><trkpt lat="41.093465" lon="14.532435"><ele>289.0</ele><time>2026-04-04T08:56:18.007Z</time></trkpt><trkpt lat="41.0934517" lon="14.5325733"><ele>287.4</ele><time>2026-04-04T08:56:20.008Z</time></trkpt><trkpt lat="41.09343" lon="14.5327083"><ele>285.79999999999995</ele><time>2026-04-04T08:56:22.007Z</time></trkpt><trkpt lat="41.0934083" lon="14.532835"><ele>284.20000000000005</ele><time>2026-04-04T08:56:24.006Z</time></trkpt><trkpt lat="41.0933917" lon="14.5329533"><ele>282.6</ele><time>2026-04-04T08:56:26.013Z</time></trkpt><trkpt lat="41.09337" lon="14.5330667"><ele>281.0</ele><time>2026-04-04T08:56:28.006Z</time></trkpt><trkpt lat="41.093345" lon="14.5331767"><ele>279.6</ele><time>2026-04-04T08:56:30.007Z</time></trkpt><trkpt lat="41.0933033" lon="14.533305"><ele>278.20000000000005</ele><time>2026-04-04T08:56:32.008Z</time></trkpt><trkpt lat="41.0932583" lon="14.53345"><ele>276.79999999999995</ele><time>2026-04-04T08:56:34.007Z</time></trkpt><trkpt lat="41.0932133" lon="14.5336"><ele>275.4</ele><time>2026-04-04T08:56:36.007Z</time></trkpt><trkpt lat="41.0931883" lon="14.53368"><ele>274.0</ele><time>2026-04-04T08:56:37.006Z</time></trkpt><trkpt lat="41.09316" lon="14.5337633"><ele>277.14285714285717</ele><time>2026-04-04T08:56:38.006Z</time></trkpt><trkpt lat="41.093135" lon="14.5338467"><ele>280.2857142857143</ele><time>2026-04-04T08:56:39.008Z</time></trkpt><trkpt lat="41.09311" lon="14.5339283"><ele>283.42857142857144</ele><time>2026-04-04T08:56:40.006Z</time></trkpt><trkpt lat="41.0930833" lon="14.5340133"><ele>286.57142857142856</ele><time>2026-04-04T08:56:41.006Z</time></trkpt><trkpt lat="41.09306" lon="14.5340967"><ele>289.7142857142857</ele><time>2026-04-04T08:56:42.006Z</time></trkpt><trkpt lat="41.0930317" lon="14.53418"><ele>292.8571428571429</ele><time>2026-04-04T08:56:43.009Z</time></trkpt><trkpt lat="41.0929983" lon="14.5342617"><ele>296.0</ele><time>2026-04-04T08:56:44.007Z</time></trkpt><trkpt lat="41.0929667" lon="14.53434"><ele>296.0</ele><time>2026-04-04T08:56:45.008Z</time></trkpt><trkpt lat="41.0929333" lon="14.534415"><ele>296.0</ele><time>2026-04-04T08:56:46.006Z</time></trkpt><trkpt lat="41.0929" lon="14.5344917"><ele>296.0</ele><time>2026-04-04T08:56:47.008Z</time></trkpt><trkpt lat="41.092865" lon="14.5345667"><ele>296.0</ele><time>2026-04-04T08:56:48.006Z</time></trkpt><trkpt lat="41.09283" lon="14.534645"><ele>296.0</ele><time>2026-04-04T08:56:49.006Z</time></trkpt><trkpt lat="41.0927983" lon="14.5347183"><ele>296.0</ele><time>2026-04-04T08:56:50.007Z</time></trkpt><trkpt lat="41.0927633" lon="14.5347917"><ele>296.0</ele><time>2026-04-04T08:56:51.007Z</time></trkpt><trkpt lat="41.092725" lon="14.5348633"><ele>293.33333333333337</ele><time>2026-04-04T08:56:52.007Z</time></trkpt><trkpt lat="41.092685" lon="14.534935"><ele>290.6666666666667</ele><time>2026-04-04T08:56:53.007Z</time></trkpt><trkpt lat="41.0926467" lon="14.535005"><ele>288.0</ele><time>2026-04-04T08:56:54.009Z</time></trkpt><trkpt lat="41.0926083" lon="14.5350717"><ele>285.3333333333333</ele><time>2026-04-04T08:56:55.007Z</time></trkpt><trkpt lat="41.0925333" lon="14.5352083"><ele>282.66666666666663</ele><time>2026-04-04T08:56:57.007Z</time></trkpt><trkpt lat="41.0924967" lon="14.53528"><ele>280.0</ele><time>2026-04-04T08:56:58.006Z</time></trkpt><trkpt lat="41.09246" lon="14.535355"><ele>278.0</ele><time>2026-04-04T08:56:59.007Z</time></trkpt><trkpt lat="41.0924283" lon="14.5354283"><ele>276.0</ele><time>2026-04-04T08:57:00.008Z</time></trkpt><trkpt lat="41.092395" lon="14.535505"><ele>274.0</ele><time>2026-04-04T08:57:01.008Z</time></trkpt><trkpt lat="41.0923617" lon="14.5355817"><ele>272.0</ele><time>2026-04-04T08:57:02.007Z</time></trkpt><trkpt lat="41.0923233" lon="14.5356633"><ele>270.0</ele><time>2026-04-04T08:57:03.008Z</time></trkpt><trkpt lat="41.0922867" lon="14.5357433"><ele>268.0</ele><time>2026-04-04T08:57:04.009Z</time></trkpt><trkpt lat="41.0922483" lon="14.5358217"><ele>266.0</ele><time>2026-04-04T08:57:05.007Z</time></trkpt><trkpt lat="41.092205" lon="14.5359"><ele>267.0</ele><time>2026-04-04T08:57:06.008Z</time></trkpt><trkpt lat="41.09216" lon="14.5359783"><ele>268.0</ele><time>2026-04-04T08:57:07.009Z</time></trkpt><trkpt lat="41.0921217" lon="14.5360533"><ele>269.0</ele><time>2026-04-04T08:57:08.008Z</time></trkpt><trkpt lat="41.0920867" lon="14.536125"><ele>270.0</ele><time>2026-04-04T08:57:09.007Z</time></trkpt><trkpt lat="41.0920517" lon="14.536195"><ele>271.0</ele><time>2026-04-04T08:57:10.011Z</time></trkpt><trkpt lat="41.092015" lon="14.5362667"><ele>272.0</ele><time>2026-04-04T08:57:11.007Z</time></trkpt><trkpt lat="41.0919767" lon="14.5363333"><ele>273.0</ele><time>2026-04-04T08:57:12.007Z</time></trkpt><trkpt lat="41.091885" lon="14.536435"><ele>273.0</ele><time>2026-04-04T08:57:14.007Z</time></trkpt><trkpt lat="41.091775" lon="14.53652"><ele>273.0</ele><time>2026-04-04T08:57:16.007Z</time></trkpt><trkpt lat="41.0916633" lon="14.53659"><ele>273.0</ele><time>2026-04-04T08:57:18.007Z</time></trkpt><trkpt lat="41.0915417" lon="14.5366417"><ele>273.0</ele><time>2026-04-04T08:57:20.007Z</time></trkpt><trkpt lat="41.0914767" lon="14.5366683"><ele>273.0</ele><time>2026-04-04T08:57:21.007Z</time></trkpt><trkpt lat="41.0913633" lon="14.5367317"><ele>277.7142857142857</ele><time>2026-04-04T08:57:23.009Z</time></trkpt><trkpt lat="41.0913117" lon="14.5367883"><ele>282.42857142857144</ele><time>2026-04-04T08:57:24.007Z</time></trkpt><trkpt lat="41.0912683" lon="14.53686"><ele>287.1428571428571</ele><time>2026-04-04T08:57:25.007Z</time></trkpt><trkpt lat="41.0912433" lon="14.5369483"><ele>291.8571428571429</ele><time>2026-04-04T08:57:26.007Z</time></trkpt><trkpt lat="41.0912367" lon="14.5370367"><ele>296.57142857142856</ele><time>2026-04-04T08:57:27.007Z</time></trkpt><trkpt lat="41.0912417" lon="14.5371267"><ele>301.2857142857143</ele><time>2026-04-04T08:57:28.007Z</time></trkpt><trkpt lat="41.0912617" lon="14.5372283"><ele>306.0</ele><time>2026-04-04T08:57:29.006Z</time></trkpt><trkpt lat="41.091295" lon="14.5373183"><ele>306.0</ele><time>2026-04-04T08:57:30.007Z</time></trkpt><trkpt lat="41.0913433" lon="14.537415"><ele>306.0</ele><time>2026-04-04T08:57:31.006Z</time></trkpt><trkpt lat="41.0913733" lon="14.537515"><ele>306.0</ele><time>2026-04-04T08:57:32.007Z</time></trkpt><trkpt lat="41.091395" lon="14.5376133"><ele>306.0</ele><time>2026-04-04T08:57:33.006Z</time></trkpt><trkpt lat="41.0914117" lon="14.5377133"><ele>306.0</ele><time>2026-04-04T08:57:34.006Z</time></trkpt><trkpt lat="41.0914183" lon="14.53782"><ele>306.0</ele><time>2026-04-04T08:57:35.006Z</time></trkpt><trkpt lat="41.0914183" lon="14.537925"><ele>305.3333333333333</ele><time>2026-04-04T08:57:36.006Z</time></trkpt><trkpt lat="41.09141" lon="14.53802"><ele>304.6666666666667</ele><time>2026-04-04T08:57:37.005Z</time></trkpt><trkpt lat="41.091395" lon="14.538115"><ele>304.0</ele><time>2026-04-04T08:57:38.006Z</time></trkpt><trkpt lat="41.09138" lon="14.5382"><ele>303.33333333333337</ele><time>2026-04-04T08:57:39.006Z</time></trkpt><trkpt lat="41.0913633" lon="14.5382833"><ele>302.6666666666667</ele><time>2026-04-04T08:57:40.005Z</time></trkpt><trkpt lat="41.091345" lon="14.5383633"><ele>302.0</ele><time>2026-04-04T08:57:41.005Z</time></trkpt><trkpt lat="41.091315" lon="14.53853"><ele>302.0</ele><time>2026-04-04T08:57:43.006Z</time></trkpt><trkpt lat="41.0912983" lon="14.538695"><ele>302.0</ele><time>2026-04-04T08:57:45.007Z</time></trkpt><trkpt lat="41.0912917" lon="14.5388517"><ele>302.0</ele><time>2026-04-04T08:57:47.006Z</time></trkpt><trkpt lat="41.0913017" lon="14.5390083"><ele>302.0</ele><time>2026-04-04T08:57:49.006Z</time></trkpt><trkpt lat="41.0913133" lon="14.53917"><ele>301.2</ele><time>2026-04-04T08:57:51.006Z</time></trkpt><trkpt lat="41.091315" lon="14.539255"><ele>300.4</ele><time>2026-04-04T08:57:52.005Z</time></trkpt><trkpt lat="41.0913167" lon="14.53934"><ele>299.6</ele><time>2026-04-04T08:57:53.006Z</time></trkpt><trkpt lat="41.09131" lon="14.539505"><ele>298.8</ele><time>2026-04-04T08:57:55.005Z</time></trkpt><trkpt lat="41.09129" lon="14.5396667"><ele>298.0</ele><time>2026-04-04T08:57:57.006Z</time></trkpt><trkpt lat="41.0912633" lon="14.5398217"><ele>296.0</ele><time>2026-04-04T08:57:59.005Z</time></trkpt><trkpt lat="41.091225" lon="14.5399717"><ele>294.0</ele><time>2026-04-04T08:58:01.007Z</time></trkpt><trkpt lat="41.0911833" lon="14.540125"><ele>292.0</ele><time>2026-04-04T08:58:03.005Z</time></trkpt><trkpt lat="41.0911317" lon="14.5402717"><ele>290.0</ele><time>2026-04-04T08:58:05.006Z</time></trkpt><trkpt lat="41.091075" lon="14.5404133"><ele>287.5</ele><time>2026-04-04T08:58:07.007Z</time></trkpt><trkpt lat="41.0910083" lon="14.5405517"><ele>285.0</ele><time>2026-04-04T08:58:09.006Z</time></trkpt><trkpt lat="41.0909467" lon="14.54069"><ele>282.5</ele><time>2026-04-04T08:58:11.005Z</time></trkpt><trkpt lat="41.0909117" lon="14.5407633"><ele>280.0</ele><time>2026-04-04T08:58:12.006Z</time></trkpt><trkpt lat="41.090875" lon="14.540835"><ele>277.5</ele><time>2026-04-04T08:58:13.008Z</time></trkpt><trkpt lat="41.090835" lon="14.5409083"><ele>275.0</ele><time>2026-04-04T08:58:14.006Z</time></trkpt><trkpt lat="41.0907933" lon="14.54098"><ele>276.0</ele><time>2026-04-04T08:58:15.006Z</time></trkpt><trkpt lat="41.0907533" lon="14.54105"><ele>277.0</ele><time>2026-04-04T08:58:16.007Z</time></trkpt><trkpt lat="41.0907133" lon="14.5411167"><ele>278.0</ele><time>2026-04-04T08:58:17.008Z</time></trkpt><trkpt lat="41.090625" lon="14.541235"><ele>279.0</ele><time>2026-04-04T08:58:19.006Z</time></trkpt><trkpt lat="41.0905417" lon="14.5413533"><ele>280.0</ele><time>2026-04-04T08:58:21.008Z</time></trkpt><trkpt lat="41.0904767" lon="14.54143"><ele>280.0</ele><time>2026-04-04T08:58:22.005Z</time></trkpt><trkpt lat="41.0904283" lon="14.541495"><ele>280.0</ele><time>2026-04-04T08:58:23.011Z</time></trkpt><trkpt lat="41.0903517" lon="14.541615"><ele>280.0</ele><time>2026-04-04T08:58:25.007Z</time></trkpt><trkpt lat="41.0902767" lon="14.5417167"><ele>280.0</ele><time>2026-04-04T08:58:27.007Z</time></trkpt><trkpt lat="41.090185" lon="14.5418"><ele>280.0</ele><time>2026-04-04T08:58:29.033Z</time></trkpt><trkpt lat="41.0900433" lon="14.541915"><ele>280.0</ele><time>2026-04-04T08:58:32.006Z</time></trkpt><trkpt lat="41.089965" lon="14.5419633"><ele>280.0</ele><time>2026-04-04T08:58:34.006Z</time></trkpt><trkpt lat="41.0899067" lon="14.541995"><ele>280.0</ele><time>2026-04-04T08:58:35.01Z</time></trkpt><trkpt lat="41.0897933" lon="14.5420417"><ele>280.0</ele><time>2026-04-04T08:58:37.006Z</time></trkpt><trkpt lat="41.0896883" lon="14.54207"><ele>280.0</ele><time>2026-04-04T08:58:39.007Z</time></trkpt><trkpt lat="41.0895933" lon="14.5421067"><ele>274.6</ele><time>2026-04-04T08:58:41.006Z</time></trkpt><trkpt lat="41.0894817" lon="14.5421317"><ele>269.2</ele><time>2026-04-04T08:58:43.014Z</time></trkpt><trkpt lat="41.0893783" lon="14.542145"><ele>263.8</ele><time>2026-04-04T08:58:45.024Z</time></trkpt><trkpt lat="41.08929" lon="14.54216"><ele>258.4</ele><time>2026-04-04T08:58:47.006Z</time></trkpt><trkpt lat="41.0891883" lon="14.5421667"><ele>253.0</ele><time>2026-04-04T08:58:49.018Z</time></trkpt><trkpt lat="41.0890883" lon="14.542155"><ele>252.2</ele><time>2026-04-04T08:58:51.013Z</time></trkpt><trkpt lat="41.0889767" lon="14.542135"><ele>251.4</ele><time>2026-04-04T08:58:53.013Z</time></trkpt><trkpt lat="41.0889117" lon="14.5421183"><ele>250.59999999999997</ele><time>2026-04-04T08:58:54.006Z</time></trkpt><trkpt lat="41.0888467" lon="14.542105"><ele>249.79999999999998</ele><time>2026-04-04T08:58:55.008Z</time></trkpt><trkpt lat="41.0887267" lon="14.542075"><ele>249.0</ele><time>2026-04-04T08:58:57.035Z</time></trkpt><trkpt lat="41.0885967" lon="14.542015"><ele>257.3333333333333</ele><time>2026-04-04T08:58:59.057Z</time></trkpt><trkpt lat="41.088465" lon="14.541965"><ele>265.66666666666663</ele><time>2026-04-04T08:59:01.018Z</time></trkpt><trkpt lat="41.0883383" lon="14.5419133"><ele>274.0</ele><time>2026-04-04T08:59:03.007Z</time></trkpt><trkpt lat="41.0881233" lon="14.5418183"><ele>274.0</ele><time>2026-04-04T08:59:06.006Z</time></trkpt><trkpt lat="41.0879817" lon="14.5417517"><ele>274.0</ele><time>2026-04-04T08:59:08.006Z</time></trkpt><trkpt lat="41.0879067" lon="14.54172"><ele>274.0</ele><time>2026-04-04T08:59:09.007Z</time></trkpt><trkpt lat="41.0878317" lon="14.54169"><ele>274.0</ele><time>2026-04-04T08:59:10.006Z</time></trkpt><trkpt lat="41.08776" lon="14.5416667"><ele>274.0</ele><time>2026-04-04T08:59:11.005Z</time></trkpt><trkpt lat="41.0876783" lon="14.5416667"><ele>274.0</ele><time>2026-04-04T08:59:12.006Z</time></trkpt><trkpt lat="41.0875983" lon="14.54167"><ele>274.0</ele><time>2026-04-04T08:59:13.006Z</time></trkpt><trkpt lat="41.0875133" lon="14.541665"><ele>274.0</ele><time>2026-04-04T08:59:14.006Z</time></trkpt><trkpt lat="41.0874283" lon="14.54167"><ele>274.0</ele><time>2026-04-04T08:59:15.006Z</time></trkpt><trkpt lat="41.08734" lon="14.5416667"><ele>274.0</ele><time>2026-04-04T08:59:16.008Z</time></trkpt><trkpt lat="41.0872333" lon="14.541655"><ele>274.0</ele><time>2026-04-04T08:59:17.005Z</time></trkpt><trkpt lat="41.0871383" lon="14.54165"><ele>272.8</ele><time>2026-04-04T08:59:18.006Z</time></trkpt><trkpt lat="41.0870467" lon="14.5416467"><ele>271.59999999999997</ele><time>2026-04-04T08:59:19.006Z</time></trkpt><trkpt lat="41.0869533" lon="14.541665"><ele>270.4</ele><time>2026-04-04T08:59:20.005Z</time></trkpt><trkpt lat="41.08686" lon="14.5417033"><ele>269.2</ele><time>2026-04-04T08:59:21.005Z</time></trkpt><trkpt lat="41.086775" lon="14.5417367"><ele>268.0</ele><time>2026-04-04T08:59:22.007Z</time></trkpt><trkpt lat="41.0866533" lon="14.5417717"><ele>266.6</ele><time>2026-04-04T08:59:23.005Z</time></trkpt><trkpt lat="41.0865633" lon="14.54181"><ele>265.20000000000005</ele><time>2026-04-04T08:59:24.006Z</time></trkpt><trkpt lat="41.086465" lon="14.54183"><ele>263.8</ele><time>2026-04-04T08:59:25.006Z</time></trkpt><trkpt lat="41.0863733" lon="14.5418283"><ele>262.40000000000003</ele><time>2026-04-04T08:59:26.006Z</time></trkpt><trkpt lat="41.086275" lon="14.5418133"><ele>261.0</ele><time>2026-04-04T08:59:27.008Z</time></trkpt><trkpt lat="41.0861733" lon="14.5417933"><ele>261.0</ele><time>2026-04-04T08:59:28.006Z</time></trkpt><trkpt lat="41.086075" lon="14.5417617"><ele>261.0</ele><time>2026-04-04T08:59:29.007Z</time></trkpt><trkpt lat="41.08597" lon="14.5417267"><ele>261.0</ele><time>2026-04-04T08:59:30.006Z</time></trkpt><trkpt lat="41.0858717" lon="14.5416967"><ele>261.0</ele><time>2026-04-04T08:59:31.006Z</time></trkpt><trkpt lat="41.0857767" lon="14.54167"><ele>261.0</ele><time>2026-04-04T08:59:32.006Z</time></trkpt><trkpt lat="41.0856733" lon="14.5416767"><ele>260.6</ele><time>2026-04-04T08:59:33.006Z</time></trkpt><trkpt lat="41.0855717" lon="14.5416967"><ele>260.20000000000005</ele><time>2026-04-04T08:59:34.006Z</time></trkpt><trkpt lat="41.085475" lon="14.54173"><ele>259.79999999999995</ele><time>2026-04-04T08:59:35.006Z</time></trkpt><trkpt lat="41.0853767" lon="14.5417617"><ele>259.4</ele><time>2026-04-04T08:59:36.006Z</time></trkpt><trkpt lat="41.0852783" lon="14.5417917"><ele>259.0</ele><time>2026-04-04T08:59:37.006Z</time></trkpt><trkpt lat="41.085185" lon="14.5418267"><ele>259.0</ele><time>2026-04-04T08:59:38.006Z</time></trkpt><trkpt lat="41.0850883" lon="14.5418567"><ele>259.0</ele><time>2026-04-04T08:59:39.006Z</time></trkpt><trkpt lat="41.0849917" lon="14.5418717"><ele>259.0</ele><time>2026-04-04T08:59:40.006Z</time></trkpt><trkpt lat="41.0848983" lon="14.54189"><ele>259.0</ele><time>2026-04-04T08:59:41.006Z</time></trkpt><trkpt lat="41.0848067" lon="14.5419067"><ele>259.0</ele><time>2026-04-04T08:59:42.006Z</time></trkpt><trkpt lat="41.084715" lon="14.5419217"><ele>259.3333333333333</ele><time>2026-04-04T08:59:43.006Z</time></trkpt><trkpt lat="41.084625" lon="14.5419483"><ele>259.66666666666663</ele><time>2026-04-04T08:59:44.01Z</time></trkpt><trkpt lat="41.084535" lon="14.5419733"><ele>260.0</ele><time>2026-04-04T08:59:45.011Z</time></trkpt><trkpt lat="41.08445" lon="14.5420017"><ele>260.3333333333333</ele><time>2026-04-04T08:59:46.006Z</time></trkpt><trkpt lat="41.084365" lon="14.542035"><ele>260.6666666666667</ele><time>2026-04-04T08:59:47.005Z</time></trkpt><trkpt lat="41.0842817" lon="14.5420633"><ele>261.0</ele><time>2026-04-04T08:59:48.006Z</time></trkpt><trkpt lat="41.084195" lon="14.542085"><ele>261.0</ele><time>2026-04-04T08:59:49.013Z</time></trkpt><trkpt lat="41.0841133" lon="14.5421067"><ele>261.0</ele><time>2026-04-04T08:59:50.006Z</time></trkpt><trkpt lat="41.084035" lon="14.54213"><ele>261.0</ele><time>2026-04-04T08:59:51.005Z</time></trkpt><trkpt lat="41.0839533" lon="14.54215"><ele>261.0</ele><time>2026-04-04T08:59:52.006Z</time></trkpt><trkpt lat="41.083875" lon="14.542165"><ele>261.0</ele><time>2026-04-04T08:59:53.006Z</time></trkpt><trkpt lat="41.0838033" lon="14.5421833"><ele>261.0</ele><time>2026-04-04T08:59:54.006Z</time></trkpt><trkpt lat="41.0837283" lon="14.5421983"><ele>261.1666666666667</ele><time>2026-04-04T08:59:55.006Z</time></trkpt><trkpt lat="41.08365" lon="14.5422167"><ele>261.3333333333333</ele><time>2026-04-04T08:59:56.006Z</time></trkpt><trkpt lat="41.0835767" lon="14.5422333"><ele>261.5</ele><time>2026-04-04T08:59:57.005Z</time></trkpt><trkpt lat="41.0835033" lon="14.5422517"><ele>261.66666666666663</ele><time>2026-04-04T08:59:58.006Z</time></trkpt><trkpt lat="41.0834217" lon="14.5422783"><ele>261.8333333333333</ele><time>2026-04-04T08:59:59.005Z</time></trkpt><trkpt lat="41.0833467" lon="14.5423033"><ele>262.0</ele><time>2026-04-04T09:00:00.008Z</time></trkpt><trkpt lat="41.0832717" lon="14.5423333"><ele>262.16666666666663</ele><time>2026-04-04T09:00:01.005Z</time></trkpt><trkpt lat="41.0831967" lon="14.5423583"><ele>262.3333333333333</ele><time>2026-04-04T09:00:02.006Z</time></trkpt><trkpt lat="41.083125" lon="14.5423883"><ele>262.5</ele><time>2026-04-04T09:00:03.007Z</time></trkpt><trkpt lat="41.0830533" lon="14.5424183"><ele>262.6666666666667</ele><time>2026-04-04T09:00:04.006Z</time></trkpt><trkpt lat="41.082985" lon="14.542435"><ele>262.83333333333337</ele><time>2026-04-04T09:00:05.005Z</time></trkpt><trkpt lat="41.0829217" lon="14.5424517"><ele>263.0</ele><time>2026-04-04T09:00:06.005Z</time></trkpt><trkpt lat="41.0828033" lon="14.542465"><ele>263.0</ele><time>2026-04-04T09:00:08.007Z</time></trkpt><trkpt lat="41.082685" lon="14.5424833"><ele>263.0</ele><time>2026-04-04T09:00:10.009Z</time></trkpt><trkpt lat="41.08257" lon="14.5425133"><ele>263.0</ele><time>2026-04-04T09:00:12.006Z</time></trkpt><trkpt lat="41.08245" lon="14.5425317"><ele>263.0</ele><time>2026-04-04T09:00:14.006Z</time></trkpt><trkpt lat="41.0823333" lon="14.54253"><ele>263.5</ele><time>2026-04-04T09:00:16.007Z</time></trkpt><trkpt lat="41.0822133" lon="14.5425483"><ele>264.0</ele><time>2026-04-04T09:00:18.007Z</time></trkpt><trkpt lat="41.0820983" lon="14.5425717"><ele>264.5</ele><time>2026-04-04T09:00:20.006Z</time></trkpt><trkpt lat="41.081985" lon="14.5425933"><ele>265.0</ele><time>2026-04-04T09:00:22.005Z</time></trkpt><trkpt lat="41.081875" lon="14.542645"><ele>265.0</ele><time>2026-04-04T09:00:24.007Z</time></trkpt><trkpt lat="41.0817783" lon="14.542685"><ele>265.0</ele><time>2026-04-04T09:00:26.006Z</time></trkpt><trkpt lat="41.081675" lon="14.5427267"><ele>265.0</ele><time>2026-04-04T09:00:28.006Z</time></trkpt><trkpt lat="41.0815667" lon="14.542765"><ele>265.0</ele><time>2026-04-04T09:00:30.006Z</time></trkpt><trkpt lat="41.0814733" lon="14.5428167"><ele>265.0</ele><time>2026-04-04T09:00:32.007Z</time></trkpt><trkpt lat="41.08138" lon="14.5428533"><ele>265.4</ele><time>2026-04-04T09:00:34.006Z</time></trkpt><trkpt lat="41.08129" lon="14.5428767"><ele>265.8</ele><time>2026-04-04T09:00:36.006Z</time></trkpt><trkpt lat="41.0811917" lon="14.5429033"><ele>266.2</ele><time>2026-04-04T09:00:38.007Z</time></trkpt><trkpt lat="41.0810933" lon="14.5429317"><ele>266.6</ele><time>2026-04-04T09:00:40.005Z</time></trkpt><trkpt lat="41.0809867" lon="14.5429617"><ele>267.0</ele><time>2026-04-04T09:00:42.007Z</time></trkpt><trkpt lat="41.080885" lon="14.5429717"><ele>267.0</ele><time>2026-04-04T09:00:44.006Z</time></trkpt><trkpt lat="41.080785" lon="14.542985"><ele>267.0</ele><time>2026-04-04T09:00:46.006Z</time></trkpt><trkpt lat="41.0806867" lon="14.5430067"><ele>267.0</ele><time>2026-04-04T09:00:48.008Z</time></trkpt><trkpt lat="41.0805867" lon="14.5430133"><ele>267.0</ele><time>2026-04-04T09:00:50.007Z</time></trkpt><trkpt lat="41.0804933" lon="14.5430083"><ele>267.0</ele><time>2026-04-04T09:00:52.008Z</time></trkpt><trkpt lat="41.080395" lon="14.5430133"><ele>267.0</ele><time>2026-04-04T09:00:54.007Z</time></trkpt><trkpt lat="41.0802967" lon="14.54302"><ele>267.0</ele><time>2026-04-04T09:00:56.008Z</time></trkpt><trkpt lat="41.080165" lon="14.54302"><ele>267.0</ele><time>2026-04-04T09:00:58.008Z</time></trkpt><trkpt lat="41.080045" lon="14.543005"><ele>267.0</ele><time>2026-04-04T09:01:00.007Z</time></trkpt><trkpt lat="41.0799733" lon="14.543"><ele>267.0</ele><time>2026-04-04T09:01:01.008Z</time></trkpt><trkpt lat="41.07986" lon="14.5429833"><ele>267.4</ele><time>2026-04-04T09:01:03.008Z</time></trkpt><trkpt lat="41.0797967" lon="14.5429817"><ele>267.79999999999995</ele><time>2026-04-04T09:01:04.008Z</time></trkpt><trkpt lat="41.079675" lon="14.5429667"><ele>268.2</ele><time>2026-04-04T09:01:06.008Z</time></trkpt><trkpt lat="41.0795567" lon="14.5429583"><ele>268.59999999999997</ele><time>2026-04-04T09:01:08.008Z</time></trkpt><trkpt lat="41.07945" lon="14.5429833"><ele>269.0</ele><time>2026-04-04T09:01:10.007Z</time></trkpt><trkpt lat="41.0793883" lon="14.5430333"><ele>269.0</ele><time>2026-04-04T09:01:11.008Z</time></trkpt><trkpt lat="41.0792917" lon="14.5431183"><ele>269.0</ele><time>2026-04-04T09:01:13.008Z</time></trkpt><trkpt lat="41.0792033" lon="14.543175"><ele>269.0</ele><time>2026-04-04T09:01:15.008Z</time></trkpt><trkpt lat="41.0791017" lon="14.54324"><ele>269.0</ele><time>2026-04-04T09:01:17.008Z</time></trkpt><trkpt lat="41.0790167" lon="14.54332"><ele>269.0</ele><time>2026-04-04T09:01:19.008Z</time></trkpt><trkpt lat="41.0789583" lon="14.543385"><ele>269.2</ele><time>2026-04-04T09:01:21.008Z</time></trkpt><trkpt lat="41.0788933" lon="14.54344"><ele>269.4</ele><time>2026-04-04T09:01:23.008Z</time></trkpt><trkpt lat="41.0788183" lon="14.54351"><ele>269.6</ele><time>2026-04-04T09:01:25.008Z</time></trkpt><trkpt lat="41.0787417" lon="14.5435917"><ele>269.8</ele><time>2026-04-04T09:01:27.007Z</time></trkpt><trkpt lat="41.0786633" lon="14.543675"><ele>270.0</ele><time>2026-04-04T09:01:29.008Z</time></trkpt><trkpt lat="41.0785733" lon="14.5436933"><ele>270.0</ele><time>2026-04-04T09:01:31.007Z</time></trkpt><trkpt lat="41.0784583" lon="14.5436783"><ele>270.0</ele><time>2026-04-04T09:01:33.008Z</time></trkpt><trkpt lat="41.0783883" lon="14.5436467"><ele>270.0</ele><time>2026-04-04T09:01:34.008Z</time></trkpt><trkpt lat="41.07832" lon="14.5435933"><ele>270.0</ele><time>2026-04-04T09:01:35.008Z</time></trkpt><trkpt lat="41.0782533" lon="14.5435683"><ele>270.0</ele><time>2026-04-04T09:01:36.009Z</time></trkpt><trkpt lat="41.0781867" lon="14.54354"><ele>270.0</ele><time>2026-04-04T09:01:37.007Z</time></trkpt><trkpt lat="41.07812" lon="14.5435117"><ele>270.2</ele><time>2026-04-04T09:01:38.008Z</time></trkpt><trkpt lat="41.0780033" lon="14.5434483"><ele>270.4</ele><time>2026-04-04T09:01:40.007Z</time></trkpt><trkpt lat="41.0779467" lon="14.5434117"><ele>270.6</ele><time>2026-04-04T09:01:41.006Z</time></trkpt><trkpt lat="41.0778367" lon="14.5433333"><ele>270.8</ele><time>2026-04-04T09:01:43.006Z</time></trkpt><trkpt lat="41.07778" lon="14.543295"><ele>271.0</ele><time>2026-04-04T09:01:44.006Z</time></trkpt><trkpt lat="41.07768" lon="14.5432033"><ele>271.0</ele><time>2026-04-04T09:01:46.006Z</time></trkpt><trkpt lat="41.0775867" lon="14.5431"><ele>271.0</ele><time>2026-04-04T09:01:48.006Z</time></trkpt><trkpt lat="41.0774933" lon="14.54301"><ele>271.0</ele><time>2026-04-04T09:01:50.007Z</time></trkpt><trkpt lat="41.0773933" lon="14.542925"><ele>271.0</ele><time>2026-04-04T09:01:52.006Z</time></trkpt><trkpt lat="41.0772933" lon="14.542855"><ele>271.0</ele><time>2026-04-04T09:01:54.006Z</time></trkpt><trkpt lat="41.0771967" lon="14.5427917"><ele>271.0</ele><time>2026-04-04T09:01:56.006Z</time></trkpt><trkpt lat="41.0770967" lon="14.542785"><ele>271.0</ele><time>2026-04-04T09:01:58.007Z</time></trkpt><trkpt lat="41.0769917" lon="14.5427783"><ele>271.0</ele><time>2026-04-04T09:02:00.006Z</time></trkpt><trkpt lat="41.0768983" lon="14.5427767"><ele>271.0</ele><time>2026-04-04T09:02:02.006Z</time></trkpt><trkpt lat="41.0768133" lon="14.5427817"><ele>271.0</ele><time>2026-04-04T09:02:04.006Z</time></trkpt><trkpt lat="41.076769" lon="14.5428586"><ele>271.0</ele><time>2026-04-04T09:03:35.096Z</time></trkpt><trkpt lat="41.0767472" lon="14.5429506"><ele>271.0</ele><time>2026-04-04T09:04:51.087Z</time></trkpt><trkpt lat="41.0767969" lon="14.5430147"><ele>271.0</ele><time>2026-04-04T09:05:01.175Z</time></trkpt><trkpt lat="41.0768118" lon="14.5429186"><ele>271.0</ele><time>2026-04-04T09:05:04.101Z</time></trkpt><trkpt lat="41.0767695" lon="14.5428418"><ele>271.0</ele><time>2026-04-04T09:05:18.124Z</time></trkpt><trkpt lat="41.0767229" lon="14.5429076"><ele>271.0</ele><time>2026-04-04T09:05:41.118Z</time></trkpt><trkpt lat="41.0767408" lon="14.5428016"><ele>271.0</ele><time>2026-04-04T09:07:42.986Z</time></trkpt><trkpt lat="41.0766777" lon="14.5428195"><ele>271.0</ele><time>2026-04-04T09:07:59.157Z</time></trkpt><trkpt lat="41.0767224" lon="14.5428832"><ele>271.0</ele><time>2026-04-04T09:09:16.111Z</time></trkpt><trkpt lat="41.0767889" lon="14.5428608"><ele>271.0</ele><time>2026-04-04T09:09:40.117Z</time></trkpt><trkpt lat="41.0768422" lon="14.5428137"><ele>271.0</ele><time>2026-04-04T09:09:51.206Z</time></trkpt><trkpt lat="41.0767907" lon="14.5427625"><ele>271.0</ele><time>2026-04-04T09:10:08.134Z</time></trkpt><trkpt lat="41.0767409" lon="14.5428198"><ele>271.0</ele><time>2026-04-04T09:12:18.074Z</time></trkpt><trkpt lat="41.0769622" lon="14.5429113"><ele>270.8333333333333</ele><time>2026-04-04T09:12:28.147Z</time></trkpt><trkpt lat="41.0770041" lon="14.5429743"><ele>270.66666666666663</ele><time>2026-04-04T09:12:31.068Z</time></trkpt><trkpt lat="41.0769982" lon="14.5430971"><ele>270.5</ele><time>2026-04-04T09:12:33.083Z</time></trkpt><trkpt lat="41.0769678" lon="14.5432174"><ele>270.3333333333333</ele><time>2026-04-04T09:12:34.007Z</time></trkpt><trkpt lat="41.0769417" lon="14.5433011"><ele>270.1666666666667</ele><time>2026-04-04T09:12:35.007Z</time></trkpt><trkpt lat="41.0768959" lon="14.5434478"><ele>270.0</ele><time>2026-04-04T09:12:37.009Z</time></trkpt><trkpt lat="41.0768468" lon="14.543591"><ele>269.6666666666667</ele><time>2026-04-04T09:12:39.009Z</time></trkpt><trkpt lat="41.0767906" lon="14.543741"><ele>269.3333333333333</ele><time>2026-04-04T09:12:41.008Z</time></trkpt><trkpt lat="41.0767659" lon="14.5438183"><ele>269.0</ele><time>2026-04-04T09:12:42.008Z</time></trkpt><trkpt lat="41.0767423" lon="14.5439006"><ele>268.66666666666663</ele><time>2026-04-04T09:12:43.009Z</time></trkpt><trkpt lat="41.0767201" lon="14.5439831"><ele>268.3333333333333</ele><time>2026-04-04T09:12:44.01Z</time></trkpt><trkpt lat="41.076697" lon="14.5440653"><ele>268.0</ele><time>2026-04-04T09:12:45.007Z</time></trkpt><trkpt lat="41.076676" lon="14.5441511"><ele>268.0</ele><time>2026-04-04T09:12:46.008Z</time></trkpt><trkpt lat="41.0766547" lon="14.5442388"><ele>268.0</ele><time>2026-04-04T09:12:47.008Z</time></trkpt><trkpt lat="41.0766345" lon="14.5443243"><ele>268.0</ele><time>2026-04-04T09:12:48.008Z</time></trkpt><trkpt lat="41.0766106" lon="14.5444054"><ele>268.0</ele><time>2026-04-04T09:12:49.007Z</time></trkpt><trkpt lat="41.0765845" lon="14.544485"><ele>268.0</ele><time>2026-04-04T09:12:50.008Z</time></trkpt><trkpt lat="41.0765591" lon="14.5445706"><ele>268.0</ele><time>2026-04-04T09:12:51.008Z</time></trkpt><trkpt lat="41.076535" lon="14.5446587"><ele>268.0</ele><time>2026-04-04T09:12:52.008Z</time></trkpt><trkpt lat="41.0765126" lon="14.5447476"><ele>267.8571428571429</ele><time>2026-04-04T09:12:53.007Z</time></trkpt><trkpt lat="41.0764858" lon="14.5448351"><ele>267.7142857142857</ele><time>2026-04-04T09:12:54.008Z</time></trkpt><trkpt lat="41.0764588" lon="14.5449219"><ele>267.57142857142856</ele><time>2026-04-04T09:12:55.009Z</time></trkpt><trkpt lat="41.0764298" lon="14.5450063"><ele>267.42857142857144</ele><time>2026-04-04T09:12:56.011Z</time></trkpt><trkpt lat="41.076404" lon="14.5450922"><ele>267.2857142857143</ele><time>2026-04-04T09:12:57.008Z</time></trkpt><trkpt lat="41.0763775" lon="14.5451772"><ele>267.14285714285717</ele><time>2026-04-04T09:12:58.008Z</time></trkpt><trkpt lat="41.0763478" lon="14.5452594"><ele>267.0</ele><time>2026-04-04T09:12:59.008Z</time></trkpt><trkpt lat="41.0763107" lon="14.5453372"><ele>267.00000000000006</ele><time>2026-04-04T09:13:00.009Z</time></trkpt><trkpt lat="41.0762653" lon="14.5454133"><ele>267.0</ele><time>2026-04-04T09:13:01.008Z</time></trkpt><trkpt lat="41.0762167" lon="14.54548"><ele>267.0</ele><time>2026-04-04T09:13:02.007Z</time></trkpt><trkpt lat="41.0761677" lon="14.5455405"><ele>267.0</ele><time>2026-04-04T09:13:03.008Z</time></trkpt><trkpt lat="41.076119" lon="14.5456087"><ele>267.0</ele><time>2026-04-04T09:13:04.009Z</time></trkpt><trkpt lat="41.0760728" lon="14.5456722"><ele>267.00000000000006</ele><time>2026-04-04T09:13:05.007Z</time></trkpt><trkpt lat="41.0760274" lon="14.545738"><ele>267.0</ele><time>2026-04-04T09:13:06.01Z</time></trkpt><trkpt lat="41.0759796" lon="14.5457939"><ele>267.0</ele><time>2026-04-04T09:13:07.009Z</time></trkpt><trkpt lat="41.0758744" lon="14.545872"><ele>267.0</ele><time>2026-04-04T09:13:09.008Z</time></trkpt><trkpt lat="41.0758134" lon="14.5459119"><ele>267.0</ele><time>2026-04-04T09:13:10.007Z</time></trkpt><trkpt lat="41.075755" lon="14.5459533"><ele>267.0</ele><time>2026-04-04T09:13:11.009Z</time></trkpt><trkpt lat="41.0757017" lon="14.546005"><ele>267.0</ele><time>2026-04-04T09:13:12.007Z</time></trkpt><trkpt lat="41.075645" lon="14.5460517"><ele>267.0</ele><time>2026-04-04T09:13:13.008Z</time></trkpt><trkpt lat="41.0755883" lon="14.5461067"><ele>267.00000000000006</ele><time>2026-04-04T09:13:14.007Z</time></trkpt><trkpt lat="41.0755267" lon="14.54616"><ele>267.0</ele><time>2026-04-04T09:13:15.008Z</time></trkpt><trkpt lat="41.0754567" lon="14.5462167"><ele>267.0</ele><time>2026-04-04T09:13:16.007Z</time></trkpt><trkpt lat="41.0754017" lon="14.5462733"><ele>267.0</ele><time>2026-04-04T09:13:17.01Z</time></trkpt><trkpt lat="41.0753417" lon="14.5463267"><ele>267.0</ele><time>2026-04-04T09:13:18.007Z</time></trkpt><trkpt lat="41.0752733" lon="14.5463783"><ele>267.00000000000006</ele><time>2026-04-04T09:13:19.008Z</time></trkpt><trkpt lat="41.0752133" lon="14.5464317"><ele>267.0</ele><time>2026-04-04T09:13:20.007Z</time></trkpt><trkpt lat="41.0751467" lon="14.5464867"><ele>266.8333333333333</ele><time>2026-04-04T09:13:21.006Z</time></trkpt><trkpt lat="41.07508" lon="14.54654"><ele>266.6666666666667</ele><time>2026-04-04T09:13:22.009Z</time></trkpt><trkpt lat="41.07501" lon="14.5465967"><ele>266.5</ele><time>2026-04-04T09:13:23.008Z</time></trkpt><trkpt lat="41.07493" lon="14.5466567"><ele>266.33333333333337</ele><time>2026-04-04T09:13:24.008Z</time></trkpt><trkpt lat="41.07486" lon="14.5467067"><ele>266.1666666666667</ele><time>2026-04-04T09:13:25.008Z</time></trkpt><trkpt lat="41.0747933" lon="14.546765"><ele>266.0</ele><time>2026-04-04T09:13:26.008Z</time></trkpt><trkpt lat="41.0747233" lon="14.54683"><ele>266.0</ele><time>2026-04-04T09:13:27.013Z</time></trkpt><trkpt lat="41.0746567" lon="14.5468883"><ele>266.0</ele><time>2026-04-04T09:13:28.008Z</time></trkpt><trkpt lat="41.0745833" lon="14.546955"><ele>266.0</ele><time>2026-04-04T09:13:29.005Z</time></trkpt><trkpt lat="41.0745167" lon="14.5470133"><ele>266.0</ele><time>2026-04-04T09:13:30.006Z</time></trkpt><trkpt lat="41.0744483" lon="14.5470617"><ele>266.0</ele><time>2026-04-04T09:13:31.005Z</time></trkpt><trkpt lat="41.0743883" lon="14.5470983"><ele>266.0</ele><time>2026-04-04T09:13:32.006Z</time></trkpt><trkpt lat="41.074325" lon="14.5471367"><ele>266.0</ele><time>2026-04-04T09:13:33.006Z</time></trkpt><trkpt lat="41.0742633" lon="14.5471767"><ele>266.0</ele><time>2026-04-04T09:13:34.007Z</time></trkpt><trkpt lat="41.074195" lon="14.5472183"><ele>266.0</ele><time>2026-04-04T09:13:35.005Z</time></trkpt><trkpt lat="41.0740933" lon="14.5472883"><ele>266.0</ele><time>2026-04-04T09:13:37.005Z</time></trkpt><trkpt lat="41.0739983" lon="14.5473533"><ele>266.0</ele><time>2026-04-04T09:13:39.007Z</time></trkpt><trkpt lat="41.073915" lon="14.54739"><ele>266.1666666666667</ele><time>2026-04-04T09:13:41.006Z</time></trkpt><trkpt lat="41.0738317" lon="14.5473817"><ele>266.33333333333337</ele><time>2026-04-04T09:13:43.006Z</time></trkpt><trkpt lat="41.07375" lon="14.5473717"><ele>266.5</ele><time>2026-04-04T09:13:45.007Z</time></trkpt><trkpt lat="41.0736717" lon="14.5474117"><ele>266.6666666666667</ele><time>2026-04-04T09:13:47.006Z</time></trkpt><trkpt lat="41.0736017" lon="14.5475317"><ele>266.8333333333333</ele><time>2026-04-04T09:13:49.007Z</time></trkpt><trkpt lat="41.0735667" lon="14.5476117"><ele>267.0</ele><time>2026-04-04T09:13:50.008Z</time></trkpt><trkpt lat="41.0735267" lon="14.5476883"><ele>267.00000000000006</ele><time>2026-04-04T09:13:51.008Z</time></trkpt><trkpt lat="41.0734783" lon="14.5477567"><ele>267.0</ele><time>2026-04-04T09:13:52.007Z</time></trkpt><trkpt lat="41.07343" lon="14.547825"><ele>267.0</ele><time>2026-04-04T09:13:53.008Z</time></trkpt><trkpt lat="41.0733817" lon="14.5478983"><ele>267.0</ele><time>2026-04-04T09:13:54.01Z</time></trkpt><trkpt lat="41.0733333" lon="14.5479683"><ele>267.0</ele><time>2026-04-04T09:13:55.007Z</time></trkpt><trkpt lat="41.0732883" lon="14.5480433"><ele>267.00000000000006</ele><time>2026-04-04T09:13:56.007Z</time></trkpt><trkpt lat="41.0732467" lon="14.5481217"><ele>267.0</ele><time>2026-04-04T09:13:57.007Z</time></trkpt><trkpt lat="41.073205" lon="14.5481983"><ele>267.00000000000006</ele><time>2026-04-04T09:13:58.007Z</time></trkpt><trkpt lat="41.0731617" lon="14.5482733"><ele>267.0</ele><time>2026-04-04T09:13:59.007Z</time></trkpt><trkpt lat="41.07312" lon="14.54835"><ele>267.0</ele><time>2026-04-04T09:14:00.009Z</time></trkpt><trkpt lat="41.0730783" lon="14.5484233"><ele>267.0</ele><time>2026-04-04T09:14:01.009Z</time></trkpt><trkpt lat="41.073035" lon="14.5484983"><ele>267.0</ele><time>2026-04-04T09:14:02.007Z</time></trkpt><trkpt lat="41.0729917" lon="14.5485733"><ele>267.00000000000006</ele><time>2026-04-04T09:14:03.008Z</time></trkpt><trkpt lat="41.0729467" lon="14.5486433"><ele>267.0</ele><time>2026-04-04T09:14:04.006Z</time></trkpt><trkpt lat="41.0729067" lon="14.5487167"><ele>266.7142857142857</ele><time>2026-04-04T09:14:05.008Z</time></trkpt><trkpt lat="41.0728683" lon="14.5487933"><ele>266.42857142857144</ele><time>2026-04-04T09:14:06.007Z</time></trkpt><trkpt lat="41.07283" lon="14.54887"><ele>266.1428571428571</ele><time>2026-04-04T09:14:07.007Z</time></trkpt><trkpt lat="41.072795" lon="14.5489467"><ele>265.8571428571429</ele><time>2026-04-04T09:14:08.007Z</time></trkpt><trkpt lat="41.0727583" lon="14.549015"><ele>265.57142857142856</ele><time>2026-04-04T09:14:09.007Z</time></trkpt><trkpt lat="41.0727233" lon="14.54909"><ele>265.2857142857143</ele><time>2026-04-04T09:14:10.008Z</time></trkpt><trkpt lat="41.0726833" lon="14.5491733"><ele>265.0</ele><time>2026-04-04T09:14:11.008Z</time></trkpt><trkpt lat="41.0726483" lon="14.5492533"><ele>265.0</ele><time>2026-04-04T09:14:12.008Z</time></trkpt><trkpt lat="41.0726117" lon="14.5493333"><ele>265.0</ele><time>2026-04-04T09:14:13.006Z</time></trkpt><trkpt lat="41.0725733" lon="14.5494117"><ele>265.0</ele><time>2026-04-04T09:14:14.007Z</time></trkpt><trkpt lat="41.07253" lon="14.5494933"><ele>265.0</ele><time>2026-04-04T09:14:15.007Z</time></trkpt><trkpt lat="41.0724883" lon="14.5495783"><ele>265.0</ele><time>2026-04-04T09:14:16.007Z</time></trkpt><trkpt lat="41.0724433" lon="14.5496683"><ele>265.0</ele><time>2026-04-04T09:14:17.007Z</time></trkpt><trkpt lat="41.0723967" lon="14.5497567"><ele>265.16666666666663</ele><time>2026-04-04T09:14:18.006Z</time></trkpt><trkpt lat="41.07235" lon="14.5498417"><ele>265.3333333333333</ele><time>2026-04-04T09:14:19.007Z</time></trkpt><trkpt lat="41.0723" lon="14.5499233"><ele>265.5</ele><time>2026-04-04T09:14:20.009Z</time></trkpt><trkpt lat="41.07225" lon="14.5500067"><ele>265.6666666666667</ele><time>2026-04-04T09:14:21.007Z</time></trkpt><trkpt lat="41.072205" lon="14.55009"><ele>265.83333333333337</ele><time>2026-04-04T09:14:22.007Z</time></trkpt><trkpt lat="41.0721583" lon="14.5501733"><ele>266.0</ele><time>2026-04-04T09:14:23.008Z</time></trkpt><trkpt lat="41.0721133" lon="14.550255"><ele>266.0</ele><time>2026-04-04T09:14:24.007Z</time></trkpt><trkpt lat="41.0720667" lon="14.5503367"><ele>266.0</ele><time>2026-04-04T09:14:25.008Z</time></trkpt><trkpt lat="41.0720233" lon="14.5504183"><ele>266.0</ele><time>2026-04-04T09:14:26.009Z</time></trkpt><trkpt lat="41.0719817" lon="14.5505"><ele>266.0</ele><time>2026-04-04T09:14:27.007Z</time></trkpt><trkpt lat="41.0719383" lon="14.5505817"><ele>266.0</ele><time>2026-04-04T09:14:28.008Z</time></trkpt><trkpt lat="41.071895" lon="14.5506583"><ele>266.0</ele><time>2026-04-04T09:14:29.006Z</time></trkpt><trkpt lat="41.0718467" lon="14.550745"><ele>265.6666666666667</ele><time>2026-04-04T09:14:30.006Z</time></trkpt><trkpt lat="41.071805" lon="14.55083"><ele>265.33333333333337</ele><time>2026-04-04T09:14:31.006Z</time></trkpt><trkpt lat="41.07176" lon="14.5509183"><ele>265.0</ele><time>2026-04-04T09:14:32.006Z</time></trkpt><trkpt lat="41.0717167" lon="14.5510017"><ele>264.6666666666667</ele><time>2026-04-04T09:14:33.006Z</time></trkpt><trkpt lat="41.0716667" lon="14.5510883"><ele>264.3333333333333</ele><time>2026-04-04T09:14:34.005Z</time></trkpt><trkpt lat="41.07162" lon="14.5511683"><ele>264.0</ele><time>2026-04-04T09:14:35.007Z</time></trkpt><trkpt lat="41.071575" lon="14.5512517"><ele>264.0</ele><time>2026-04-04T09:14:36.007Z</time></trkpt><trkpt lat="41.0715217" lon="14.5513383"><ele>264.0</ele><time>2026-04-04T09:14:37.007Z</time></trkpt><trkpt lat="41.0714683" lon="14.5514167"><ele>264.0</ele><time>2026-04-04T09:14:38.005Z</time></trkpt><trkpt lat="41.071415" lon="14.5515"><ele>264.0</ele><time>2026-04-04T09:14:39.005Z</time></trkpt><trkpt lat="41.0713633" lon="14.551575"><ele>264.0</ele><time>2026-04-04T09:14:40.006Z</time></trkpt><trkpt lat="41.0713117" lon="14.5516467"><ele>264.0</ele><time>2026-04-04T09:14:41.006Z</time></trkpt><trkpt lat="41.0712667" lon="14.55173"><ele>264.0</ele><time>2026-04-04T09:14:42.006Z</time></trkpt><trkpt lat="41.0712217" lon="14.5518017"><ele>264.0</ele><time>2026-04-04T09:14:43.005Z</time></trkpt><trkpt lat="41.0711717" lon="14.5518867"><ele>264.0</ele><time>2026-04-04T09:14:44.006Z</time></trkpt><trkpt lat="41.0711283" lon="14.5519617"><ele>264.0</ele><time>2026-04-04T09:14:45.006Z</time></trkpt><trkpt lat="41.0710783" lon="14.5520417"><ele>264.0</ele><time>2026-04-04T09:14:46.006Z</time></trkpt><trkpt lat="41.071025" lon="14.5521333"><ele>264.0</ele><time>2026-04-04T09:14:47.006Z</time></trkpt><trkpt lat="41.0709733" lon="14.5522117"><ele>264.0</ele><time>2026-04-04T09:14:48.006Z</time></trkpt><trkpt lat="41.0709233" lon="14.5522783"><ele>264.0</ele><time>2026-04-04T09:14:49.006Z</time></trkpt><trkpt lat="41.0708683" lon="14.5523483"><ele>264.0</ele><time>2026-04-04T09:14:50.006Z</time></trkpt><trkpt lat="41.0708233" lon="14.55242"><ele>264.0</ele><time>2026-04-04T09:14:51.006Z</time></trkpt><trkpt lat="41.070725" lon="14.55255"><ele>264.0</ele><time>2026-04-04T09:14:53.006Z</time></trkpt><trkpt lat="41.070675" lon="14.5526183"><ele>264.0</ele><time>2026-04-04T09:14:54.005Z</time></trkpt><trkpt lat="41.07063" lon="14.5526883"><ele>264.1666666666667</ele><time>2026-04-04T09:14:55.006Z</time></trkpt><trkpt lat="41.070585" lon="14.5527533"><ele>264.3333333333333</ele><time>2026-04-04T09:14:56.006Z</time></trkpt><trkpt lat="41.0705367" lon="14.5528217"><ele>264.5</ele><time>2026-04-04T09:14:57.007Z</time></trkpt><trkpt lat="41.070485" lon="14.552895"><ele>264.66666666666663</ele><time>2026-04-04T09:14:58.005Z</time></trkpt><trkpt lat="41.0704217" lon="14.55297"><ele>264.8333333333333</ele><time>2026-04-04T09:14:59.006Z</time></trkpt><trkpt lat="41.0703617" lon="14.55304"><ele>265.0</ele><time>2026-04-04T09:15:00.005Z</time></trkpt><trkpt lat="41.0702983" lon="14.553115"><ele>264.66666666666663</ele><time>2026-04-04T09:15:01.006Z</time></trkpt><trkpt lat="41.0702367" lon="14.553185"><ele>264.3333333333333</ele><time>2026-04-04T09:15:02.006Z</time></trkpt><trkpt lat="41.070175" lon="14.5532583"><ele>264.0</ele><time>2026-04-04T09:15:03.006Z</time></trkpt><trkpt lat="41.0701117" lon="14.5533283"><ele>263.6666666666667</ele><time>2026-04-04T09:15:04.005Z</time></trkpt><trkpt lat="41.0700483" lon="14.5534017"><ele>263.33333333333337</ele><time>2026-04-04T09:15:05.006Z</time></trkpt><trkpt lat="41.0699933" lon="14.5534717"><ele>263.0</ele><time>2026-04-04T09:15:06.008Z</time></trkpt><trkpt lat="41.0699383" lon="14.5535367"><ele>263.0</ele><time>2026-04-04T09:15:07.007Z</time></trkpt><trkpt lat="41.0698783" lon="14.55361"><ele>263.0</ele><time>2026-04-04T09:15:08.007Z</time></trkpt><trkpt lat="41.0698267" lon="14.5536767"><ele>263.0</ele><time>2026-04-04T09:15:09.005Z</time></trkpt><trkpt lat="41.0697733" lon="14.55374"><ele>263.0</ele><time>2026-04-04T09:15:10.006Z</time></trkpt><trkpt lat="41.0697217" lon="14.5538083"><ele>263.0</ele><time>2026-04-04T09:15:11.006Z</time></trkpt><trkpt lat="41.06967" lon="14.5538733"><ele>263.0</ele><time>2026-04-04T09:15:12.006Z</time></trkpt><trkpt lat="41.069625" lon="14.55394"><ele>263.0</ele><time>2026-04-04T09:15:13.006Z</time></trkpt><trkpt lat="41.0695783" lon="14.5540033"><ele>262.83333333333337</ele><time>2026-04-04T09:15:14.005Z</time></trkpt><trkpt lat="41.0694917" lon="14.554125"><ele>262.6666666666667</ele><time>2026-04-04T09:15:16.007Z</time></trkpt><trkpt lat="41.069445" lon="14.554195"><ele>262.5</ele><time>2026-04-04T09:15:17.006Z</time></trkpt><trkpt lat="41.0693883" lon="14.5542667"><ele>262.3333333333333</ele><time>2026-04-04T09:15:18.006Z</time></trkpt><trkpt lat="41.06933" lon="14.55434"><ele>262.16666666666663</ele><time>2026-04-04T09:15:19.005Z</time></trkpt><trkpt lat="41.0692767" lon="14.5544183"><ele>262.0</ele><time>2026-04-04T09:15:20.006Z</time></trkpt><trkpt lat="41.069225" lon="14.554495"><ele>262.0</ele><time>2026-04-04T09:15:21.006Z</time></trkpt><trkpt lat="41.0691717" lon="14.5545633"><ele>262.0</ele><time>2026-04-04T09:15:22.006Z</time></trkpt><trkpt lat="41.06912" lon="14.5546367"><ele>262.0</ele><time>2026-04-04T09:15:23.006Z</time></trkpt><trkpt lat="41.0690683" lon="14.5547117"><ele>262.0</ele><time>2026-04-04T09:15:24.008Z</time></trkpt><trkpt lat="41.0690167" lon="14.5547733"><ele>262.0</ele><time>2026-04-04T09:15:25.006Z</time></trkpt><trkpt lat="41.0689633" lon="14.5548417"><ele>262.0</ele><time>2026-04-04T09:15:26.007Z</time></trkpt><trkpt lat="41.0689133" lon="14.554905"><ele>262.0</ele><time>2026-04-04T09:15:27.006Z</time></trkpt><trkpt lat="41.06886" lon="14.5549783"><ele>262.0</ele><time>2026-04-04T09:15:28.006Z</time></trkpt><trkpt lat="41.0688133" lon="14.555045"><ele>262.0</ele><time>2026-04-04T09:15:29.007Z</time></trkpt><trkpt lat="41.0687583" lon="14.55512"><ele>262.0</ele><time>2026-04-04T09:15:30.006Z</time></trkpt><trkpt lat="41.0687017" lon="14.5551983"><ele>262.0</ele><time>2026-04-04T09:15:31.006Z</time></trkpt><trkpt lat="41.068645" lon="14.5552683"><ele>262.0</ele><time>2026-04-04T09:15:32.005Z</time></trkpt><trkpt lat="41.0685933" lon="14.5553367"><ele>262.0</ele><time>2026-04-04T09:15:33.006Z</time></trkpt><trkpt lat="41.0685417" lon="14.5554067"><ele>261.8</ele><time>2026-04-04T09:15:34.007Z</time></trkpt><trkpt lat="41.068485" lon="14.55548"><ele>261.6</ele><time>2026-04-04T09:15:35.007Z</time></trkpt><trkpt lat="41.0684333" lon="14.5555417"><ele>261.40000000000003</ele><time>2026-04-04T09:15:36.006Z</time></trkpt><trkpt lat="41.0683883" lon="14.5556033"><ele>261.2</ele><time>2026-04-04T09:15:37.006Z</time></trkpt><trkpt lat="41.0683" lon="14.5557133"><ele>261.0</ele><time>2026-04-04T09:15:39.006Z</time></trkpt><trkpt lat="41.0682" lon="14.5558283"><ele>261.3333333333333</ele><time>2026-04-04T09:15:41.007Z</time></trkpt><trkpt lat="41.0681483" lon="14.5558883"><ele>261.6666666666667</ele><time>2026-04-04T09:15:42.005Z</time></trkpt><trkpt lat="41.0680933" lon="14.5559333"><ele>262.0</ele><time>2026-04-04T09:15:43.006Z</time></trkpt><trkpt lat="41.0680383" lon="14.5559817"><ele>262.33333333333337</ele><time>2026-04-04T09:15:44.009Z</time></trkpt><trkpt lat="41.0679817" lon="14.55603"><ele>262.6666666666667</ele><time>2026-04-04T09:15:45.005Z</time></trkpt><trkpt lat="41.0678817" lon="14.5561183"><ele>263.0</ele><time>2026-04-04T09:15:47.006Z</time></trkpt><trkpt lat="41.0677783" lon="14.5561933"><ele>263.0</ele><time>2026-04-04T09:15:49.006Z</time></trkpt><trkpt lat="41.0676767" lon="14.5562617"><ele>263.0</ele><time>2026-04-04T09:15:51.006Z</time></trkpt><trkpt lat="41.0675717" lon="14.5563383"><ele>263.0</ele><time>2026-04-04T09:15:53.005Z</time></trkpt><trkpt lat="41.0674733" lon="14.5564217"><ele>263.0</ele><time>2026-04-04T09:15:55.006Z</time></trkpt><trkpt lat="41.0673817" lon="14.5565"><ele>263.5</ele><time>2026-04-04T09:15:57.006Z</time></trkpt><trkpt lat="41.0672733" lon="14.5565833"><ele>264.0</ele><time>2026-04-04T09:15:59.006Z</time></trkpt><trkpt lat="41.067155" lon="14.5566667"><ele>264.5</ele><time>2026-04-04T09:16:01.005Z</time></trkpt><trkpt lat="41.067055" lon="14.55675"><ele>265.0</ele><time>2026-04-04T09:16:03.005Z</time></trkpt><trkpt lat="41.066955" lon="14.5568267"><ele>265.0</ele><time>2026-04-04T09:16:05.006Z</time></trkpt><trkpt lat="41.0668967" lon="14.5568683"><ele>265.0</ele><time>2026-04-04T09:16:06.006Z</time></trkpt><trkpt lat="41.0668017" lon="14.556945"><ele>265.0</ele><time>2026-04-04T09:16:08.006Z</time></trkpt><trkpt lat="41.0666967" lon="14.5570233"><ele>265.0</ele><time>2026-04-04T09:16:10.008Z</time></trkpt><trkpt lat="41.06664" lon="14.55707"><ele>265.0</ele><time>2026-04-04T09:16:11.008Z</time></trkpt><trkpt lat="41.0665767" lon="14.55712"><ele>265.0</ele><time>2026-04-04T09:16:12.006Z</time></trkpt><trkpt lat="41.0665233" lon="14.5571717"><ele>265.5</ele><time>2026-04-04T09:16:13.007Z</time></trkpt><trkpt lat="41.066465" lon="14.5572217"><ele>266.0</ele><time>2026-04-04T09:16:14.006Z</time></trkpt><trkpt lat="41.0663967" lon="14.5572733"><ele>266.5</ele><time>2026-04-04T09:16:15.005Z</time></trkpt><trkpt lat="41.0663367" lon="14.557325"><ele>267.0</ele><time>2026-04-04T09:16:16.006Z</time></trkpt><trkpt lat="41.06628" lon="14.5573817"><ele>267.5</ele><time>2026-04-04T09:16:17.007Z</time></trkpt><trkpt lat="41.0662283" lon="14.5574383"><ele>268.0</ele><time>2026-04-04T09:16:18.006Z</time></trkpt><trkpt lat="41.066135" lon="14.55755"><ele>268.0</ele><time>2026-04-04T09:16:20.006Z</time></trkpt><trkpt lat="41.0660767" lon="14.55761"><ele>268.0</ele><time>2026-04-04T09:16:21.006Z</time></trkpt><trkpt lat="41.066025" lon="14.5576683"><ele>268.0</ele><time>2026-04-04T09:16:22.006Z</time></trkpt><trkpt lat="41.0659667" lon="14.557715"><ele>268.0</ele><time>2026-04-04T09:16:23.006Z</time></trkpt><trkpt lat="41.0659067" lon="14.557765"><ele>268.0</ele><time>2026-04-04T09:16:24.006Z</time></trkpt><trkpt lat="41.0658517" lon="14.5578117"><ele>268.0</ele><time>2026-04-04T09:16:25.007Z</time></trkpt><trkpt lat="41.0657883" lon="14.5578417"><ele>268.0</ele><time>2026-04-04T09:16:26.006Z</time></trkpt><trkpt lat="41.06572" lon="14.557865"><ele>268.0</ele><time>2026-04-04T09:16:27.008Z</time></trkpt><trkpt lat="41.0656517" lon="14.5578933"><ele>268.0</ele><time>2026-04-04T09:16:28.006Z</time></trkpt><trkpt lat="41.0655817" lon="14.557925"><ele>268.0</ele><time>2026-04-04T09:16:29.006Z</time></trkpt><trkpt lat="41.0655167" lon="14.5579533"><ele>268.0</ele><time>2026-04-04T09:16:30.006Z</time></trkpt><trkpt lat="41.0654517" lon="14.5579833"><ele>268.0</ele><time>2026-04-04T09:16:31.006Z</time></trkpt><trkpt lat="41.0653917" lon="14.55801"><ele>268.0</ele><time>2026-04-04T09:16:32.007Z</time></trkpt><trkpt lat="41.0653267" lon="14.5580383"><ele>268.0</ele><time>2026-04-04T09:16:33.007Z</time></trkpt><trkpt lat="41.0652667" lon="14.5580717"><ele>268.0</ele><time>2026-04-04T09:16:34.007Z</time></trkpt><trkpt lat="41.0651483" lon="14.55814"><ele>268.0</ele><time>2026-04-04T09:16:36.008Z</time></trkpt><trkpt lat="41.0650767" lon="14.5581633"><ele>268.0</ele><time>2026-04-04T09:16:37.008Z</time></trkpt><trkpt lat="41.0650033" lon="14.55819"><ele>268.0</ele><time>2026-04-04T09:16:38.007Z</time></trkpt><trkpt lat="41.0649433" lon="14.5582183"><ele>268.0</ele><time>2026-04-04T09:16:39.007Z</time></trkpt><trkpt lat="41.06488" lon="14.558235"><ele>268.0</ele><time>2026-04-04T09:16:40.008Z</time></trkpt><trkpt lat="41.0648067" lon="14.5582267"><ele>267.66666666666663</ele><time>2026-04-04T09:16:41.008Z</time></trkpt><trkpt lat="41.0647117" lon="14.5581967"><ele>267.3333333333333</ele><time>2026-04-04T09:16:42.011Z</time></trkpt><trkpt lat="41.0646383" lon="14.55816"><ele>267.0</ele><time>2026-04-04T09:16:43.008Z</time></trkpt><trkpt lat="41.0645667" lon="14.558125"><ele>266.6666666666667</ele><time>2026-04-04T09:16:44.008Z</time></trkpt><trkpt lat="41.064495" lon="14.55809"><ele>266.33333333333337</ele><time>2026-04-04T09:16:45.006Z</time></trkpt><trkpt lat="41.06443" lon="14.5580467"><ele>266.0</ele><time>2026-04-04T09:16:46.008Z</time></trkpt><trkpt lat="41.0643683" lon="14.5580033"><ele>266.0</ele><time>2026-04-04T09:16:47.008Z</time></trkpt><trkpt lat="41.0643067" lon="14.5579683"><ele>266.0</ele><time>2026-04-04T09:16:48.009Z</time></trkpt><trkpt lat="41.064245" lon="14.5579383"><ele>266.0</ele><time>2026-04-04T09:16:49.008Z</time></trkpt><trkpt lat="41.06418" lon="14.5579167"><ele>266.0</ele><time>2026-04-04T09:16:50.018Z</time></trkpt><trkpt lat="41.0641167" lon="14.5578967"><ele>266.0</ele><time>2026-04-04T09:16:51.009Z</time></trkpt><trkpt lat="41.0640533" lon="14.5578933"><ele>266.0</ele><time>2026-04-04T09:16:52.008Z</time></trkpt><trkpt lat="41.063935" lon="14.557925"><ele>266.0</ele><time>2026-04-04T09:16:54.009Z</time></trkpt><trkpt lat="41.063875" lon="14.5579583"><ele>265.85714285714283</ele><time>2026-04-04T09:16:55.008Z</time></trkpt><trkpt lat="41.06381" lon="14.558005"><ele>265.7142857142857</ele><time>2026-04-04T09:16:56.008Z</time></trkpt><trkpt lat="41.063745" lon="14.5580517"><ele>265.57142857142856</ele><time>2026-04-04T09:16:57.007Z</time></trkpt><trkpt lat="41.0636783" lon="14.5581017"><ele>265.42857142857144</ele><time>2026-04-04T09:16:58.009Z</time></trkpt><trkpt lat="41.0636117" lon="14.5581483"><ele>265.2857142857143</ele><time>2026-04-04T09:16:59.008Z</time></trkpt><trkpt lat="41.063545" lon="14.558195"><ele>265.1428571428571</ele><time>2026-04-04T09:17:00.009Z</time></trkpt><trkpt lat="41.063485" lon="14.5582367"><ele>265.0</ele><time>2026-04-04T09:17:01.007Z</time></trkpt><trkpt lat="41.063425" lon="14.5582767"><ele>264.99999999999994</ele><time>2026-04-04T09:17:02.006Z</time></trkpt><trkpt lat="41.0633633" lon="14.55832"><ele>265.0</ele><time>2026-04-04T09:17:03.007Z</time></trkpt><trkpt lat="41.0633017" lon="14.5583583"><ele>265.0</ele><time>2026-04-04T09:17:04.009Z</time></trkpt><trkpt lat="41.0632417" lon="14.5584"><ele>265.0</ele><time>2026-04-04T09:17:05.009Z</time></trkpt><trkpt lat="41.0631817" lon="14.5584417"><ele>265.0</ele><time>2026-04-04T09:17:06.008Z</time></trkpt><trkpt lat="41.0631183" lon="14.55848"><ele>264.99999999999994</ele><time>2026-04-04T09:17:07.009Z</time></trkpt><trkpt lat="41.0630483" lon="14.5585167"><ele>265.0</ele><time>2026-04-04T09:17:08.008Z</time></trkpt><trkpt lat="41.062985" lon="14.55855"><ele>264.99999999999994</ele><time>2026-04-04T09:17:09.007Z</time></trkpt><trkpt lat="41.06292" lon="14.5585833"><ele>265.0</ele><time>2026-04-04T09:17:10.007Z</time></trkpt><trkpt lat="41.06286" lon="14.5586317"><ele>265.0</ele><time>2026-04-04T09:17:11.008Z</time></trkpt><trkpt lat="41.062805" lon="14.55868"><ele>265.0</ele><time>2026-04-04T09:17:12.008Z</time></trkpt><trkpt lat="41.0627517" lon="14.558725"><ele>265.0</ele><time>2026-04-04T09:17:13.008Z</time></trkpt><trkpt lat="41.0626983" lon="14.55877"><ele>264.99999999999994</ele><time>2026-04-04T09:17:14.008Z</time></trkpt><trkpt lat="41.062645" lon="14.55882"><ele>265.0</ele><time>2026-04-04T09:17:15.007Z</time></trkpt><trkpt lat="41.0625883" lon="14.55887"><ele>265.0</ele><time>2026-04-04T09:17:16.007Z</time></trkpt><trkpt lat="41.0625333" lon="14.5589183"><ele>265.0</ele><time>2026-04-04T09:17:17.007Z</time></trkpt><trkpt lat="41.0624333" lon="14.5590033"><ele>265.0</ele><time>2026-04-04T09:17:19.008Z</time></trkpt><trkpt lat="41.0623433" lon="14.5590667"><ele>265.0</ele><time>2026-04-04T09:17:21.008Z</time></trkpt><trkpt lat="41.0622717" lon="14.5591117"><ele>265.0</ele><time>2026-04-04T09:17:23.008Z</time></trkpt><trkpt lat="41.0621983" lon="14.559175"><ele>264.66666666666663</ele><time>2026-04-04T09:17:25.009Z</time></trkpt><trkpt lat="41.0621117" lon="14.559265"><ele>264.3333333333333</ele><time>2026-04-04T09:17:27.008Z</time></trkpt><trkpt lat="41.0620233" lon="14.5593133"><ele>264.0</ele><time>2026-04-04T09:17:29.008Z</time></trkpt><trkpt lat="41.061955" lon="14.5593233"><ele>263.6666666666667</ele><time>2026-04-04T09:17:30.008Z</time></trkpt><trkpt lat="41.0618917" lon="14.55933"><ele>263.33333333333337</ele><time>2026-04-04T09:17:31.007Z</time></trkpt><trkpt lat="41.0618183" lon="14.559335"><ele>263.0</ele><time>2026-04-04T09:17:32.009Z</time></trkpt><trkpt lat="41.0617433" lon="14.5593283"><ele>263.0</ele><time>2026-04-04T09:17:33.009Z</time></trkpt><trkpt lat="41.0616717" lon="14.559315"><ele>263.0</ele><time>2026-04-04T09:17:34.008Z</time></trkpt><trkpt lat="41.061595" lon="14.5593"><ele>263.0</ele><time>2026-04-04T09:17:35.008Z</time></trkpt><trkpt lat="41.06152" lon="14.5592833"><ele>263.0</ele><time>2026-04-04T09:17:36.009Z</time></trkpt><trkpt lat="41.0614467" lon="14.55927"><ele>263.0</ele><time>2026-04-04T09:17:37.008Z</time></trkpt><trkpt lat="41.061375" lon="14.55927"><ele>263.0</ele><time>2026-04-04T09:17:38.008Z</time></trkpt><trkpt lat="41.0613033" lon="14.5592667"><ele>263.0</ele><time>2026-04-04T09:17:39.008Z</time></trkpt><trkpt lat="41.0612317" lon="14.55926"><ele>263.0</ele><time>2026-04-04T09:17:40.008Z</time></trkpt><trkpt lat="41.0611617" lon="14.5592467"><ele>263.0</ele><time>2026-04-04T09:17:41.008Z</time></trkpt><trkpt lat="41.0610883" lon="14.5592317"><ele>263.0</ele><time>2026-04-04T09:17:42.007Z</time></trkpt><trkpt lat="41.0610167" lon="14.559205"><ele>263.0</ele><time>2026-04-04T09:17:43.007Z</time></trkpt><trkpt lat="41.0609467" lon="14.5591733"><ele>263.0</ele><time>2026-04-04T09:17:44.009Z</time></trkpt><trkpt lat="41.0608767" lon="14.559145"><ele>263.0</ele><time>2026-04-04T09:17:45.01Z</time></trkpt><trkpt lat="41.0608083" lon="14.5591117"><ele>263.0</ele><time>2026-04-04T09:17:46.008Z</time></trkpt><trkpt lat="41.0607383" lon="14.55908"><ele>263.0</ele><time>2026-04-04T09:17:47.008Z</time></trkpt><trkpt lat="41.06067" lon="14.55905"><ele>263.0</ele><time>2026-04-04T09:17:48.009Z</time></trkpt><trkpt lat="41.0606017" lon="14.5590233"><ele>263.0</ele><time>2026-04-04T09:17:49.007Z</time></trkpt><trkpt lat="41.0605367" lon="14.55899"><ele>263.0</ele><time>2026-04-04T09:17:50.008Z</time></trkpt><trkpt lat="41.0604733" lon="14.5589417"><ele>263.0</ele><time>2026-04-04T09:17:51.009Z</time></trkpt><trkpt lat="41.0604017" lon="14.5589033"><ele>263.0</ele><time>2026-04-04T09:17:52.008Z</time></trkpt><trkpt lat="41.0603367" lon="14.558865"><ele>263.0</ele><time>2026-04-04T09:17:53.008Z</time></trkpt><trkpt lat="41.0602733" lon="14.5588267"><ele>263.0</ele><time>2026-04-04T09:17:54.008Z</time></trkpt><trkpt lat="41.0602133" lon="14.5587817"><ele>263.0</ele><time>2026-04-04T09:17:55.008Z</time></trkpt><trkpt lat="41.0601517" lon="14.5587433"><ele>263.0</ele><time>2026-04-04T09:17:56.007Z</time></trkpt><trkpt lat="41.0600983" lon="14.5586967"><ele>263.0</ele><time>2026-04-04T09:17:57.009Z</time></trkpt><trkpt lat="41.060035" lon="14.5586717"><ele>263.0</ele><time>2026-04-04T09:17:58.008Z</time></trkpt><trkpt lat="41.059975" lon="14.55864"><ele>263.0</ele><time>2026-04-04T09:17:59.008Z</time></trkpt><trkpt lat="41.059915" lon="14.5586033"><ele>263.0</ele><time>2026-04-04T09:18:00.009Z</time></trkpt><trkpt lat="41.0598117" lon="14.55853"><ele>263.2</ele><time>2026-04-04T09:18:02.006Z</time></trkpt><trkpt lat="41.0597333" lon="14.55843"><ele>263.4</ele><time>2026-04-04T09:18:04.006Z</time></trkpt><trkpt lat="41.0596567" lon="14.558335"><ele>263.59999999999997</ele><time>2026-04-04T09:18:06.007Z</time></trkpt><trkpt lat="41.0595717" lon="14.5582883"><ele>263.8</ele><time>2026-04-04T09:18:08.006Z</time></trkpt><trkpt lat="41.0594767" lon="14.55829"><ele>264.0</ele><time>2026-04-04T09:18:10.005Z</time></trkpt><trkpt lat="41.05938" lon="14.5583033"><ele>264.0</ele><time>2026-04-04T09:18:12.007Z</time></trkpt><trkpt lat="41.0592783" lon="14.55832"><ele>264.0</ele><time>2026-04-04T09:18:14.006Z</time></trkpt><trkpt lat="41.0592083" lon="14.558335"><ele>264.0</ele><time>2026-04-04T09:18:15.005Z</time></trkpt><trkpt lat="41.0591067" lon="14.5583667"><ele>264.0</ele><time>2026-04-04T09:18:17.008Z</time></trkpt><trkpt lat="41.0590233" lon="14.5583883"><ele>264.0</ele><time>2026-04-04T09:18:19.006Z</time></trkpt><trkpt lat="41.0589333" lon="14.5584183"><ele>264.0</ele><time>2026-04-04T09:18:21.006Z</time></trkpt><trkpt lat="41.0588383" lon="14.5584083"><ele>264.0</ele><time>2026-04-04T09:18:24.006Z</time></trkpt><trkpt lat="41.0587417" lon="14.5583617"><ele>264.0</ele><time>2026-04-04T09:18:27.006Z</time></trkpt><trkpt lat="41.058665" lon="14.5582867"><ele>264.0</ele><time>2026-04-04T09:18:29.006Z</time></trkpt><trkpt lat="41.0586" lon="14.5581717"><ele>264.0</ele><time>2026-04-04T09:18:31.013Z</time></trkpt><trkpt lat="41.0585233" lon="14.558045"><ele>264.0</ele><time>2026-04-04T09:18:33.008Z</time></trkpt><trkpt lat="41.0584983" lon="14.5579567"><ele>264.0</ele><time>2026-04-04T09:18:34.008Z</time></trkpt><trkpt lat="41.05846" lon="14.5578883"><ele>264.0</ele><time>2026-04-04T09:18:35.008Z</time></trkpt><trkpt lat="41.0583817" lon="14.5577567"><ele>264.0</ele><time>2026-04-04T09:18:37.007Z</time></trkpt><trkpt lat="41.0583117" lon="14.5576333"><ele>264.0</ele><time>2026-04-04T09:18:39.009Z</time></trkpt><trkpt lat="41.0582467" lon="14.5575133"><ele>264.2</ele><time>2026-04-04T09:18:41.008Z</time></trkpt><trkpt lat="41.0581867" lon="14.557395"><ele>264.4</ele><time>2026-04-04T09:18:43.01Z</time></trkpt><trkpt lat="41.058135" lon="14.5572717"><ele>264.6</ele><time>2026-04-04T09:18:45.008Z</time></trkpt><trkpt lat="41.0580883" lon="14.5571767"><ele>264.8</ele><time>2026-04-04T09:18:47.008Z</time></trkpt><trkpt lat="41.058025" lon="14.55712"><ele>265.0</ele><time>2026-04-04T09:18:49.008Z</time></trkpt><trkpt lat="41.0579333" lon="14.557105"><ele>265.0</ele><time>2026-04-04T09:18:51.008Z</time></trkpt><trkpt lat="41.0578067" lon="14.5571217"><ele>265.0</ele><time>2026-04-04T09:18:53.011Z</time></trkpt><trkpt lat="41.0576833" lon="14.557125"><ele>265.0</ele><time>2026-04-04T09:18:55.007Z</time></trkpt><trkpt lat="41.0575683" lon="14.557135"><ele>265.0</ele><time>2026-04-04T09:18:57.008Z</time></trkpt><trkpt lat="41.05745" lon="14.5571583"><ele>265.2</ele><time>2026-04-04T09:18:59.008Z</time></trkpt><trkpt lat="41.057335" lon="14.5571683"><ele>265.4</ele><time>2026-04-04T09:19:01.008Z</time></trkpt><trkpt lat="41.05727" lon="14.5571817"><ele>265.6</ele><time>2026-04-04T09:19:02.009Z</time></trkpt><trkpt lat="41.0571533" lon="14.55723"><ele>265.8</ele><time>2026-04-04T09:19:04.009Z</time></trkpt><trkpt lat="41.0570483" lon="14.5572483"><ele>266.0</ele><time>2026-04-04T09:19:06.008Z</time></trkpt><trkpt lat="41.056945" lon="14.5572467"><ele>266.0</ele><time>2026-04-04T09:19:08.01Z</time></trkpt><trkpt lat="41.056835" lon="14.5572217"><ele>266.0</ele><time>2026-04-04T09:19:10.011Z</time></trkpt><trkpt lat="41.0567717" lon="14.5572233"><ele>266.0</ele><time>2026-04-04T09:19:11.008Z</time></trkpt><trkpt lat="41.05665" lon="14.5572183"><ele>266.0</ele><time>2026-04-04T09:19:13.007Z</time></trkpt><trkpt lat="41.05658" lon="14.5572267"><ele>266.0</ele><time>2026-04-04T09:19:14.008Z</time></trkpt><trkpt lat="41.0565133" lon="14.5572317"><ele>266.0</ele><time>2026-04-04T09:19:15.009Z</time></trkpt><trkpt lat="41.056395" lon="14.5572417"><ele>265.6</ele><time>2026-04-04T09:19:17.007Z</time></trkpt><trkpt lat="41.0563317" lon="14.5572467"><ele>265.20000000000005</ele><time>2026-04-04T09:19:18.01Z</time></trkpt><trkpt lat="41.0562667" lon="14.557245"><ele>264.79999999999995</ele><time>2026-04-04T09:19:19.008Z</time></trkpt><trkpt lat="41.05615" lon="14.5572633"><ele>264.4</ele><time>2026-04-04T09:19:21.009Z</time></trkpt><trkpt lat="41.0560517" lon="14.5572633"><ele>264.0</ele><time>2026-04-04T09:19:23.009Z</time></trkpt><trkpt lat="41.055945" lon="14.5572717"><ele>264.0</ele><time>2026-04-04T09:19:25.008Z</time></trkpt><trkpt lat="41.0558333" lon="14.5572667"><ele>264.0</ele><time>2026-04-04T09:19:27.009Z</time></trkpt><trkpt lat="41.05577" lon="14.5572617"><ele>264.0</ele><time>2026-04-04T09:19:28.008Z</time></trkpt><trkpt lat="41.05565" lon="14.557265"><ele>264.0</ele><time>2026-04-04T09:19:30.008Z</time></trkpt><trkpt lat="41.0555867" lon="14.557285"><ele>264.0</ele><time>2026-04-04T09:19:31.009Z</time></trkpt><trkpt lat="41.0555183" lon="14.5573067"><ele>264.0</ele><time>2026-04-04T09:19:32.008Z</time></trkpt><trkpt lat="41.055455" lon="14.5573333"><ele>264.1428571428571</ele><time>2026-04-04T09:19:33.009Z</time></trkpt><trkpt lat="41.0553917" lon="14.5573617"><ele>264.2857142857143</ele><time>2026-04-04T09:19:34.008Z</time></trkpt><trkpt lat="41.0553283" lon="14.55739"><ele>264.42857142857144</ele><time>2026-04-04T09:19:35.008Z</time></trkpt><trkpt lat="41.0552633" lon="14.557415"><ele>264.57142857142856</ele><time>2026-04-04T09:19:36.007Z</time></trkpt><trkpt lat="41.055195" lon="14.5574383"><ele>264.7142857142857</ele><time>2026-04-04T09:19:37.009Z</time></trkpt><trkpt lat="41.055125" lon="14.5574617"><ele>264.85714285714283</ele><time>2026-04-04T09:19:38.008Z</time></trkpt><trkpt lat="41.0550483" lon="14.55748"><ele>265.0</ele><time>2026-04-04T09:19:39.007Z</time></trkpt><trkpt lat="41.0549733" lon="14.557495"><ele>265.0</ele><time>2026-04-04T09:19:40.008Z</time></trkpt><trkpt lat="41.0549" lon="14.55751"><ele>265.0</ele><time>2026-04-04T09:19:41.008Z</time></trkpt><trkpt lat="41.0548217" lon="14.5575267"><ele>265.0</ele><time>2026-04-04T09:19:42.009Z</time></trkpt><trkpt lat="41.0547467" lon="14.55755"><ele>265.0</ele><time>2026-04-04T09:19:43.008Z</time></trkpt><trkpt lat="41.0546683" lon="14.5575717"><ele>265.0</ele><time>2026-04-04T09:19:44.008Z</time></trkpt><trkpt lat="41.0545917" lon="14.5576017"><ele>265.0</ele><time>2026-04-04T09:19:45.008Z</time></trkpt><trkpt lat="41.0545183" lon="14.5576267"><ele>264.99999999999994</ele><time>2026-04-04T09:19:46.008Z</time></trkpt><trkpt lat="41.05445" lon="14.5576583"><ele>265.0</ele><time>2026-04-04T09:19:47.009Z</time></trkpt><trkpt lat="41.0543767" lon="14.5576867"><ele>265.0</ele><time>2026-04-04T09:19:48.008Z</time></trkpt><trkpt lat="41.05431" lon="14.55772"><ele>265.0</ele><time>2026-04-04T09:19:49.008Z</time></trkpt><trkpt lat="41.0542467" lon="14.55775"><ele>265.0</ele><time>2026-04-04T09:19:50.01Z</time></trkpt><trkpt lat="41.05418" lon="14.5577833"><ele>264.99999999999994</ele><time>2026-04-04T09:19:51.007Z</time></trkpt><trkpt lat="41.0541183" lon="14.557825"><ele>265.0</ele><time>2026-04-04T09:19:52.01Z</time></trkpt><trkpt lat="41.0540567" lon="14.55787"><ele>264.71428571428567</ele><time>2026-04-04T09:19:53.008Z</time></trkpt><trkpt lat="41.0540033" lon="14.5579217"><ele>264.42857142857144</ele><time>2026-04-04T09:19:54.009Z</time></trkpt><trkpt lat="41.0539517" lon="14.5579783"><ele>264.1428571428571</ele><time>2026-04-04T09:19:55.008Z</time></trkpt><trkpt lat="41.053895" lon="14.558035"><ele>263.85714285714283</ele><time>2026-04-04T09:19:56.011Z</time></trkpt><trkpt lat="41.0538367" lon="14.5580917"><ele>263.57142857142856</ele><time>2026-04-04T09:19:57.009Z</time></trkpt><trkpt lat="41.0537867" lon="14.5581567"><ele>263.2857142857143</ele><time>2026-04-04T09:19:58.01Z</time></trkpt><trkpt lat="41.0537333" lon="14.5582233"><ele>263.0</ele><time>2026-04-04T09:19:59.008Z</time></trkpt><trkpt lat="41.0536783" lon="14.55829"><ele>263.0</ele><time>2026-04-04T09:20:00.01Z</time></trkpt><trkpt lat="41.0536333" lon="14.5583533"><ele>263.0</ele><time>2026-04-04T09:20:01.014Z</time></trkpt><trkpt lat="41.053585" lon="14.55842"><ele>263.0</ele><time>2026-04-04T09:20:02.015Z</time></trkpt><trkpt lat="41.05354" lon="14.5584883"><ele>263.0</ele><time>2026-04-04T09:20:03.008Z</time></trkpt><trkpt lat="41.0534933" lon="14.5585583"><ele>263.0</ele><time>2026-04-04T09:20:04.013Z</time></trkpt><trkpt lat="41.0534467" lon="14.5586333"><ele>263.0</ele><time>2026-04-04T09:20:05.013Z</time></trkpt><trkpt lat="41.0534067" lon="14.5587167"><ele>263.0</ele><time>2026-04-04T09:20:06.01Z</time></trkpt><trkpt lat="41.05336" lon="14.55879"><ele>263.0</ele><time>2026-04-04T09:20:07.009Z</time></trkpt><trkpt lat="41.053305" lon="14.5588517"><ele>263.0</ele><time>2026-04-04T09:20:08.011Z</time></trkpt><trkpt lat="41.053245" lon="14.5589117"><ele>263.0</ele><time>2026-04-04T09:20:09.008Z</time></trkpt><trkpt lat="41.0531883" lon="14.5589717"><ele>263.0</ele><time>2026-04-04T09:20:10.009Z</time></trkpt><trkpt lat="41.0531233" lon="14.5590117"><ele>263.0</ele><time>2026-04-04T09:20:11.008Z</time></trkpt><trkpt lat="41.0530567" lon="14.5590433"><ele>263.0</ele><time>2026-04-04T09:20:12.009Z</time></trkpt><trkpt lat="41.052965" lon="14.55906"><ele>263.0</ele><time>2026-04-04T09:20:13.009Z</time></trkpt><trkpt lat="41.0528917" lon="14.55908"><ele>263.0</ele><time>2026-04-04T09:20:14.012Z</time></trkpt><trkpt lat="41.0528183" lon="14.5590917"><ele>263.0</ele><time>2026-04-04T09:20:15.011Z</time></trkpt><trkpt lat="41.0527517" lon="14.5591"><ele>263.0</ele><time>2026-04-04T09:20:16.011Z</time></trkpt><trkpt lat="41.0526833" lon="14.55911"><ele>263.0</ele><time>2026-04-04T09:20:17.012Z</time></trkpt><trkpt lat="41.0526167" lon="14.559125"><ele>263.0</ele><time>2026-04-04T09:20:18.012Z</time></trkpt><trkpt lat="41.0525483" lon="14.55914"><ele>263.0</ele><time>2026-04-04T09:20:19.008Z</time></trkpt><trkpt lat="41.0524783" lon="14.559155"><ele>262.85714285714283</ele><time>2026-04-04T09:20:20.01Z</time></trkpt><trkpt lat="41.05241" lon="14.559165"><ele>262.71428571428567</ele><time>2026-04-04T09:20:21.011Z</time></trkpt><trkpt lat="41.052345" lon="14.5591767"><ele>262.57142857142856</ele><time>2026-04-04T09:20:22.012Z</time></trkpt><trkpt lat="41.0522767" lon="14.5591867"><ele>262.42857142857144</ele><time>2026-04-04T09:20:23.012Z</time></trkpt><trkpt lat="41.0522133" lon="14.5591933"><ele>262.28571428571433</ele><time>2026-04-04T09:20:24.011Z</time></trkpt><trkpt lat="41.0521483" lon="14.5592017"><ele>262.14285714285717</ele><time>2026-04-04T09:20:25.011Z</time></trkpt><trkpt lat="41.0520833" lon="14.55921"><ele>262.0</ele><time>2026-04-04T09:20:26.011Z</time></trkpt><trkpt lat="41.0520133" lon="14.55922"><ele>262.0</ele><time>2026-04-04T09:20:27.011Z</time></trkpt><trkpt lat="41.0519467" lon="14.55923"><ele>262.0</ele><time>2026-04-04T09:20:28.01Z</time></trkpt><trkpt lat="41.0518783" lon="14.5592383"><ele>262.0</ele><time>2026-04-04T09:20:29.01Z</time></trkpt><trkpt lat="41.05181" lon="14.55925"><ele>262.0</ele><time>2026-04-04T09:20:30.009Z</time></trkpt><trkpt lat="41.0517433" lon="14.5592583"><ele>262.0</ele><time>2026-04-04T09:20:31.011Z</time></trkpt><trkpt lat="41.0516767" lon="14.5592667"><ele>262.0</ele><time>2026-04-04T09:20:32.011Z</time></trkpt><trkpt lat="41.0516117" lon="14.5592733"><ele>262.0</ele><time>2026-04-04T09:20:33.008Z</time></trkpt><trkpt lat="41.051545" lon="14.5592833"><ele>262.14285714285717</ele><time>2026-04-04T09:20:34.01Z</time></trkpt><trkpt lat="41.0514767" lon="14.55929"><ele>262.28571428571433</ele><time>2026-04-04T09:20:35.009Z</time></trkpt><trkpt lat="41.0514117" lon="14.559295"><ele>262.42857142857144</ele><time>2026-04-04T09:20:36.01Z</time></trkpt><trkpt lat="41.0513433" lon="14.55929"><ele>262.57142857142856</ele><time>2026-04-04T09:20:37.009Z</time></trkpt><trkpt lat="41.0512767" lon="14.559285"><ele>262.71428571428567</ele><time>2026-04-04T09:20:38.008Z</time></trkpt><trkpt lat="41.05121" lon="14.5592783"><ele>262.85714285714283</ele><time>2026-04-04T09:20:39.007Z</time></trkpt><trkpt lat="41.0511433" lon="14.5592767"><ele>263.0</ele><time>2026-04-04T09:20:40.007Z</time></trkpt><trkpt lat="41.0510783" lon="14.559275"><ele>263.0</ele><time>2026-04-04T09:20:41.009Z</time></trkpt><trkpt lat="41.05101" lon="14.5592683"><ele>263.0</ele><time>2026-04-04T09:20:42.008Z</time></trkpt><trkpt lat="41.05094" lon="14.5592583"><ele>263.0</ele><time>2026-04-04T09:20:43.008Z</time></trkpt><trkpt lat="41.05087" lon="14.5592467"><ele>263.0</ele><time>2026-04-04T09:20:44.009Z</time></trkpt><trkpt lat="41.0508" lon="14.559235"><ele>263.0</ele><time>2026-04-04T09:20:45.008Z</time></trkpt><trkpt lat="41.05073" lon="14.559225"><ele>263.0</ele><time>2026-04-04T09:20:46.011Z</time></trkpt><trkpt lat="41.0506617" lon="14.5592167"><ele>263.0</ele><time>2026-04-04T09:20:47.01Z</time></trkpt><trkpt lat="41.0505917" lon="14.5592033"><ele>263.1428571428571</ele><time>2026-04-04T09:20:48.01Z</time></trkpt><trkpt lat="41.050525" lon="14.55919"><ele>263.2857142857143</ele><time>2026-04-04T09:20:49.01Z</time></trkpt><trkpt lat="41.0504533" lon="14.5591717"><ele>263.42857142857144</ele><time>2026-04-04T09:20:50.011Z</time></trkpt><trkpt lat="41.05038" lon="14.5591567"><ele>263.57142857142856</ele><time>2026-04-04T09:20:51.011Z</time></trkpt><trkpt lat="41.0503067" lon="14.559145"><ele>263.7142857142857</ele><time>2026-04-04T09:20:52.009Z</time></trkpt><trkpt lat="41.0502367" lon="14.5591317"><ele>263.85714285714283</ele><time>2026-04-04T09:20:53.009Z</time></trkpt><trkpt lat="41.0501667" lon="14.5591183"><ele>264.0</ele><time>2026-04-04T09:20:54.009Z</time></trkpt><trkpt lat="41.0500983" lon="14.559105"><ele>264.0</ele><time>2026-04-04T09:20:55.009Z</time></trkpt><trkpt lat="41.0500267" lon="14.5590967"><ele>264.0</ele><time>2026-04-04T09:20:56.011Z</time></trkpt><trkpt lat="41.0499533" lon="14.559085"><ele>264.0</ele><time>2026-04-04T09:20:57.011Z</time></trkpt><trkpt lat="41.04988" lon="14.5590733"><ele>264.0</ele><time>2026-04-04T09:20:58.009Z</time></trkpt><trkpt lat="41.04981" lon="14.5590617"><ele>264.0</ele><time>2026-04-04T09:20:59.009Z</time></trkpt><trkpt lat="41.0497383" lon="14.5590467"><ele>264.0</ele><time>2026-04-04T09:21:00.009Z</time></trkpt><trkpt lat="41.0496667" lon="14.5590283"><ele>264.0</ele><time>2026-04-04T09:21:01.01Z</time></trkpt><trkpt lat="41.0495933" lon="14.55902"><ele>264.0</ele><time>2026-04-04T09:21:02.012Z</time></trkpt><trkpt lat="41.0495217" lon="14.5590017"><ele>264.0</ele><time>2026-04-04T09:21:03.008Z</time></trkpt><trkpt lat="41.049455" lon="14.5589817"><ele>264.0</ele><time>2026-04-04T09:21:04.007Z</time></trkpt><trkpt lat="41.0493817" lon="14.5589667"><ele>264.0</ele><time>2026-04-04T09:21:05.009Z</time></trkpt><trkpt lat="41.049315" lon="14.5589467"><ele>264.0</ele><time>2026-04-04T09:21:06.01Z</time></trkpt><trkpt lat="41.049245" lon="14.558925"><ele>264.0</ele><time>2026-04-04T09:21:07.009Z</time></trkpt><trkpt lat="41.0491767" lon="14.5589033"><ele>264.0</ele><time>2026-04-04T09:21:08.01Z</time></trkpt><trkpt lat="41.0491117" lon="14.558885"><ele>264.1428571428571</ele><time>2026-04-04T09:21:09.009Z</time></trkpt><trkpt lat="41.0490383" lon="14.5588733"><ele>264.2857142857143</ele><time>2026-04-04T09:21:10.009Z</time></trkpt><trkpt lat="41.0489683" lon="14.5588583"><ele>264.42857142857144</ele><time>2026-04-04T09:21:11.009Z</time></trkpt><trkpt lat="41.0488983" lon="14.55884"><ele>264.57142857142856</ele><time>2026-04-04T09:21:12.01Z</time></trkpt><trkpt lat="41.04883" lon="14.5588317"><ele>264.7142857142857</ele><time>2026-04-04T09:21:13.009Z</time></trkpt><trkpt lat="41.0487567" lon="14.5588167"><ele>264.85714285714283</ele><time>2026-04-04T09:21:14.009Z</time></trkpt><trkpt lat="41.0486867" lon="14.558805"><ele>265.0</ele><time>2026-04-04T09:21:15.009Z</time></trkpt><trkpt lat="41.04862" lon="14.558795"><ele>264.99999999999994</ele><time>2026-04-04T09:21:16.01Z</time></trkpt><trkpt lat="41.048555" lon="14.5587817"><ele>265.0</ele><time>2026-04-04T09:21:17.008Z</time></trkpt><trkpt lat="41.0484883" lon="14.5587683"><ele>265.0</ele><time>2026-04-04T09:21:18.009Z</time></trkpt><trkpt lat="41.0484183" lon="14.5587533"><ele>265.0</ele><time>2026-04-04T09:21:19.009Z</time></trkpt><trkpt lat="41.0483467" lon="14.55874"><ele>265.0</ele><time>2026-04-04T09:21:20.011Z</time></trkpt><trkpt lat="41.0482767" lon="14.558725"><ele>264.99999999999994</ele><time>2026-04-04T09:21:21.011Z</time></trkpt><trkpt lat="41.048205" lon="14.558715"><ele>265.0</ele><time>2026-04-04T09:21:22.008Z</time></trkpt><trkpt lat="41.0481317" lon="14.5587067"><ele>265.4285714285714</ele><time>2026-04-04T09:21:23.008Z</time></trkpt><trkpt lat="41.0480567" lon="14.558695"><ele>265.85714285714283</ele><time>2026-04-04T09:21:24.01Z</time></trkpt><trkpt lat="41.0479817" lon="14.558685"><ele>266.2857142857143</ele><time>2026-04-04T09:21:25.009Z</time></trkpt><trkpt lat="41.047905" lon="14.5586783"><ele>266.71428571428567</ele><time>2026-04-04T09:21:26.011Z</time></trkpt><trkpt lat="41.0478317" lon="14.5586683"><ele>267.1428571428571</ele><time>2026-04-04T09:21:27.011Z</time></trkpt><trkpt lat="41.04776" lon="14.55866"><ele>267.57142857142856</ele><time>2026-04-04T09:21:28.008Z</time></trkpt><trkpt lat="41.0476917" lon="14.5586467"><ele>268.0</ele><time>2026-04-04T09:21:29.01Z</time></trkpt><trkpt lat="41.0476217" lon="14.558635"><ele>268.0</ele><time>2026-04-04T09:21:30.009Z</time></trkpt><trkpt lat="41.0475517" lon="14.5586283"><ele>268.0</ele><time>2026-04-04T09:21:31.011Z</time></trkpt><trkpt lat="41.0474833" lon="14.5586217"><ele>268.0</ele><time>2026-04-04T09:21:32.008Z</time></trkpt><trkpt lat="41.0474133" lon="14.5586133"><ele>268.0</ele><time>2026-04-04T09:21:33.008Z</time></trkpt><trkpt lat="41.047345" lon="14.5586033"><ele>268.0</ele><time>2026-04-04T09:21:34.008Z</time></trkpt><trkpt lat="41.0472767" lon="14.558595"><ele>268.0</ele><time>2026-04-04T09:21:35.009Z</time></trkpt><trkpt lat="41.047205" lon="14.558585"><ele>268.0</ele><time>2026-04-04T09:21:36.007Z</time></trkpt><trkpt lat="41.0471367" lon="14.5585767"><ele>268.14285714285717</ele><time>2026-04-04T09:21:37.01Z</time></trkpt><trkpt lat="41.0470667" lon="14.558565"><ele>268.2857142857143</ele><time>2026-04-04T09:21:38.009Z</time></trkpt><trkpt lat="41.046995" lon="14.5585567"><ele>268.42857142857144</ele><time>2026-04-04T09:21:39.008Z</time></trkpt><trkpt lat="41.0469233" lon="14.55855"><ele>268.57142857142856</ele><time>2026-04-04T09:21:40.01Z</time></trkpt><trkpt lat="41.0468483" lon="14.558545"><ele>268.7142857142857</ele><time>2026-04-04T09:21:41.009Z</time></trkpt><trkpt lat="41.0467767" lon="14.5585383"><ele>268.8571428571429</ele><time>2026-04-04T09:21:42.012Z</time></trkpt><trkpt lat="41.0467067" lon="14.5585333"><ele>269.0</ele><time>2026-04-04T09:21:43.008Z</time></trkpt><trkpt lat="41.0466383" lon="14.55853"><ele>269.14285714285717</ele><time>2026-04-04T09:21:44.01Z</time></trkpt><trkpt lat="41.0465683" lon="14.5585267"><ele>269.28571428571433</ele><time>2026-04-04T09:21:45.01Z</time></trkpt><trkpt lat="41.0465" lon="14.5585217"><ele>269.42857142857144</ele><time>2026-04-04T09:21:46.009Z</time></trkpt><trkpt lat="41.04643" lon="14.55851"><ele>269.57142857142856</ele><time>2026-04-04T09:21:47.008Z</time></trkpt><trkpt lat="41.0463583" lon="14.558505"><ele>269.71428571428567</ele><time>2026-04-04T09:21:48.01Z</time></trkpt><trkpt lat="41.046285" lon="14.5585"><ele>269.85714285714283</ele><time>2026-04-04T09:21:49.009Z</time></trkpt><trkpt lat="41.046205" lon="14.5585"><ele>270.0</ele><time>2026-04-04T09:21:50.01Z</time></trkpt><trkpt lat="41.0461217" lon="14.5584967"><ele>270.0</ele><time>2026-04-04T09:21:51.01Z</time></trkpt><trkpt lat="41.04604" lon="14.5584933"><ele>270.0</ele><time>2026-04-04T09:21:52.01Z</time></trkpt><trkpt lat="41.04596" lon="14.5584933"><ele>270.0</ele><time>2026-04-04T09:21:53.009Z</time></trkpt><trkpt lat="41.0458833" lon="14.5584883"><ele>270.0</ele><time>2026-04-04T09:21:54.01Z</time></trkpt><trkpt lat="41.0458017" lon="14.558485"><ele>270.0</ele><time>2026-04-04T09:21:55.009Z</time></trkpt><trkpt lat="41.045715" lon="14.5584883"><ele>270.0</ele><time>2026-04-04T09:21:56.009Z</time></trkpt><trkpt lat="41.04562" lon="14.5584933"><ele>270.0</ele><time>2026-04-04T09:21:57.01Z</time></trkpt><trkpt lat="41.0455217" lon="14.5585"><ele>270.0</ele><time>2026-04-04T09:21:58.01Z</time></trkpt><trkpt lat="41.0454217" lon="14.5585183"><ele>270.0</ele><time>2026-04-04T09:21:59.008Z</time></trkpt><trkpt lat="41.0453167" lon="14.558535"><ele>270.0</ele><time>2026-04-04T09:22:00.011Z</time></trkpt><trkpt lat="41.0452167" lon="14.5585617"><ele>270.0</ele><time>2026-04-04T09:22:01.009Z</time></trkpt><trkpt lat="41.0451167" lon="14.5585867"><ele>270.0</ele><time>2026-04-04T09:22:02.009Z</time></trkpt><trkpt lat="41.0450183" lon="14.5586133"><ele>270.0</ele><time>2026-04-04T09:22:03.009Z</time></trkpt><trkpt lat="41.0449217" lon="14.5586467"><ele>270.0</ele><time>2026-04-04T09:22:04.008Z</time></trkpt><trkpt lat="41.0448267" lon="14.5586817"><ele>270.0</ele><time>2026-04-04T09:22:05.008Z</time></trkpt><trkpt lat="41.04473" lon="14.55871"><ele>270.0</ele><time>2026-04-04T09:22:06.01Z</time></trkpt><trkpt lat="41.044635" lon="14.5587317"><ele>269.6</ele><time>2026-04-04T09:22:07.008Z</time></trkpt><trkpt lat="41.0445417" lon="14.5587483"><ele>269.2</ele><time>2026-04-04T09:22:08.009Z</time></trkpt><trkpt lat="41.04445" lon="14.5587717"><ele>268.8</ele><time>2026-04-04T09:22:09.009Z</time></trkpt><trkpt lat="41.0443617" lon="14.5587983"><ele>268.4</ele><time>2026-04-04T09:22:10.007Z</time></trkpt><trkpt lat="41.0442733" lon="14.5588233"><ele>268.0</ele><time>2026-04-04T09:22:11.009Z</time></trkpt><trkpt lat="41.044185" lon="14.5588467"><ele>268.0</ele><time>2026-04-04T09:22:12.007Z</time></trkpt><trkpt lat="41.044095" lon="14.5588667"><ele>268.0</ele><time>2026-04-04T09:22:13.008Z</time></trkpt><trkpt lat="41.044005" lon="14.5588917"><ele>268.0</ele><time>2026-04-04T09:22:14.008Z</time></trkpt><trkpt lat="41.043915" lon="14.5589183"><ele>268.0</ele><time>2026-04-04T09:22:15.009Z</time></trkpt><trkpt lat="41.0438267" lon="14.5589467"><ele>268.0</ele><time>2026-04-04T09:22:16.009Z</time></trkpt><trkpt lat="41.04374" lon="14.5589733"><ele>268.0</ele><time>2026-04-04T09:22:17.009Z</time></trkpt><trkpt lat="41.0436533" lon="14.5590033"><ele>268.0</ele><time>2026-04-04T09:22:18.01Z</time></trkpt><trkpt lat="41.0435667" lon="14.5590333"><ele>268.0</ele><time>2026-04-04T09:22:19.011Z</time></trkpt><trkpt lat="41.0434783" lon="14.5590633"><ele>268.0</ele><time>2026-04-04T09:22:20.008Z</time></trkpt><trkpt lat="41.0433933" lon="14.5590933"><ele>268.0</ele><time>2026-04-04T09:22:21.009Z</time></trkpt><trkpt lat="41.0433083" lon="14.5591267"><ele>268.0</ele><time>2026-04-04T09:22:22.008Z</time></trkpt><trkpt lat="41.0432283" lon="14.5591767"><ele>268.4</ele><time>2026-04-04T09:22:23.008Z</time></trkpt><trkpt lat="41.0431483" lon="14.5592317"><ele>268.8</ele><time>2026-04-04T09:22:24.011Z</time></trkpt><trkpt lat="41.04307" lon="14.55929"><ele>269.2</ele><time>2026-04-04T09:22:25.011Z</time></trkpt><trkpt lat="41.042995" lon="14.5593533"><ele>269.6</ele><time>2026-04-04T09:22:26.01Z</time></trkpt><trkpt lat="41.04292" lon="14.559425"><ele>270.0</ele><time>2026-04-04T09:22:27.009Z</time></trkpt><trkpt lat="41.0428517" lon="14.5595017"><ele>270.0</ele><time>2026-04-04T09:22:28.009Z</time></trkpt><trkpt lat="41.0427833" lon="14.5595717"><ele>270.0</ele><time>2026-04-04T09:22:29.01Z</time></trkpt><trkpt lat="41.0427117" lon="14.5596367"><ele>270.0</ele><time>2026-04-04T09:22:30.01Z</time></trkpt><trkpt lat="41.042645" lon="14.559705"><ele>270.0</ele><time>2026-04-04T09:22:31.009Z</time></trkpt><trkpt lat="41.04258" lon="14.55977"><ele>270.0</ele><time>2026-04-04T09:22:32.013Z</time></trkpt><trkpt lat="41.0425183" lon="14.5598317"><ele>270.0</ele><time>2026-04-04T09:22:33.008Z</time></trkpt><trkpt lat="41.0424567" lon="14.55989"><ele>270.0</ele><time>2026-04-04T09:22:34.007Z</time></trkpt><trkpt lat="41.0423983" lon="14.559945"><ele>270.0</ele><time>2026-04-04T09:22:35.008Z</time></trkpt><trkpt lat="41.04234" lon="14.5599967"><ele>270.0</ele><time>2026-04-04T09:22:36.01Z</time></trkpt><trkpt lat="41.0422867" lon="14.5600483"><ele>270.0</ele><time>2026-04-04T09:22:37.01Z</time></trkpt><trkpt lat="41.04218" lon="14.5601433"><ele>270.0</ele><time>2026-04-04T09:22:39.009Z</time></trkpt><trkpt lat="41.0421267" lon="14.5601917"><ele>270.0</ele><time>2026-04-04T09:22:40.009Z</time></trkpt><trkpt lat="41.042075" lon="14.5602417"><ele>270.0</ele><time>2026-04-04T09:22:41.01Z</time></trkpt><trkpt lat="41.0419767" lon="14.5603433"><ele>270.0</ele><time>2026-04-04T09:22:43.009Z</time></trkpt><trkpt lat="41.041875" lon="14.56044"><ele>270.0</ele><time>2026-04-04T09:22:45.008Z</time></trkpt><trkpt lat="41.041775" lon="14.5605383"><ele>270.0</ele><time>2026-04-04T09:22:47.009Z</time></trkpt><trkpt lat="41.04167" lon="14.560625"><ele>270.5</ele><time>2026-04-04T09:22:49.011Z</time></trkpt><trkpt lat="41.0415617" lon="14.5606967"><ele>271.0</ele><time>2026-04-04T09:22:51.01Z</time></trkpt><trkpt lat="41.0414517" lon="14.5607683"><ele>271.5</ele><time>2026-04-04T09:22:53.01Z</time></trkpt><trkpt lat="41.0413917" lon="14.5608017"><ele>272.0</ele><time>2026-04-04T09:22:54.011Z</time></trkpt><trkpt lat="41.04133" lon="14.560835"><ele>272.5</ele><time>2026-04-04T09:22:55.01Z</time></trkpt><trkpt lat="41.04127" lon="14.5608683"><ele>273.0</ele><time>2026-04-04T09:22:56.01Z</time></trkpt><trkpt lat="41.0412117" lon="14.5609033"><ele>273.0</ele><time>2026-04-04T09:22:57.009Z</time></trkpt><trkpt lat="41.0411533" lon="14.5609383"><ele>273.0</ele><time>2026-04-04T09:22:58.011Z</time></trkpt><trkpt lat="41.0410917" lon="14.5609733"><ele>273.0</ele><time>2026-04-04T09:22:59.009Z</time></trkpt><trkpt lat="41.04103" lon="14.5610067"><ele>273.0</ele><time>2026-04-04T09:23:00.009Z</time></trkpt><trkpt lat="41.0409717" lon="14.5610383"><ele>273.0</ele><time>2026-04-04T09:23:01.008Z</time></trkpt><trkpt lat="41.04091" lon="14.5610683"><ele>273.0</ele><time>2026-04-04T09:23:02.009Z</time></trkpt><trkpt lat="41.0407933" lon="14.5611183"><ele>273.0</ele><time>2026-04-04T09:23:04.009Z</time></trkpt><trkpt lat="41.0406717" lon="14.5611433"><ele>273.2</ele><time>2026-04-04T09:23:06.011Z</time></trkpt><trkpt lat="41.0406083" lon="14.5611417"><ele>273.4</ele><time>2026-04-04T09:23:07.011Z</time></trkpt><trkpt lat="41.0404933" lon="14.5610933"><ele>273.59999999999997</ele><time>2026-04-04T09:23:09.012Z</time></trkpt><trkpt lat="41.0404083" lon="14.5609983"><ele>273.8</ele><time>2026-04-04T09:23:11.011Z</time></trkpt><trkpt lat="41.040365" lon="14.560865"><ele>274.0</ele><time>2026-04-04T09:23:13.01Z</time></trkpt><trkpt lat="41.0403383" lon="14.560725"><ele>274.0</ele><time>2026-04-04T09:23:15.011Z</time></trkpt><trkpt lat="41.0403017" lon="14.5605767"><ele>274.0</ele><time>2026-04-04T09:23:17.011Z</time></trkpt><trkpt lat="41.0402667" lon="14.5604233"><ele>274.0</ele><time>2026-04-04T09:23:19.009Z</time></trkpt><trkpt lat="41.0402517" lon="14.56034"><ele>274.0</ele><time>2026-04-04T09:23:20.011Z</time></trkpt><trkpt lat="41.040235" lon="14.5602583"><ele>274.0</ele><time>2026-04-04T09:23:21.009Z</time></trkpt><trkpt lat="41.0401983" lon="14.5600983"><ele>274.3333333333333</ele><time>2026-04-04T09:23:23.01Z</time></trkpt><trkpt lat="41.0401767" lon="14.5600167"><ele>274.66666666666663</ele><time>2026-04-04T09:23:24.009Z</time></trkpt><trkpt lat="41.0401583" lon="14.5599267"><ele>275.0</ele><time>2026-04-04T09:23:25.009Z</time></trkpt><trkpt lat="41.0401383" lon="14.55983"><ele>275.3333333333333</ele><time>2026-04-04T09:23:26.009Z</time></trkpt><trkpt lat="41.0401183" lon="14.5597233"><ele>275.6666666666667</ele><time>2026-04-04T09:23:27.008Z</time></trkpt><trkpt lat="41.0400917" lon="14.55962"><ele>276.0</ele><time>2026-04-04T09:23:28.008Z</time></trkpt><trkpt lat="41.040065" lon="14.5595183"><ele>276.1666666666667</ele><time>2026-04-04T09:23:29.009Z</time></trkpt><trkpt lat="41.0400383" lon="14.5594167"><ele>276.3333333333333</ele><time>2026-04-04T09:23:30.01Z</time></trkpt><trkpt lat="41.0400133" lon="14.5593167"><ele>276.5</ele><time>2026-04-04T09:23:31.009Z</time></trkpt><trkpt lat="41.0399867" lon="14.55922"><ele>276.66666666666663</ele><time>2026-04-04T09:23:32.009Z</time></trkpt><trkpt lat="41.039965" lon="14.5591217"><ele>276.8333333333333</ele><time>2026-04-04T09:23:33.009Z</time></trkpt><trkpt lat="41.039945" lon="14.55903"><ele>277.0</ele><time>2026-04-04T09:23:34.007Z</time></trkpt><trkpt lat="41.03992" lon="14.55894"><ele>277.5</ele><time>2026-04-04T09:23:35.01Z</time></trkpt><trkpt lat="41.0399" lon="14.5588533"><ele>278.0</ele><time>2026-04-04T09:23:36.008Z</time></trkpt><trkpt lat="41.03988" lon="14.55877"><ele>278.5</ele><time>2026-04-04T09:23:37.01Z</time></trkpt><trkpt lat="41.0398617" lon="14.5586867"><ele>279.0</ele><time>2026-04-04T09:23:38.01Z</time></trkpt><trkpt lat="41.0398417" lon="14.5586033"><ele>279.5</ele><time>2026-04-04T09:23:39.01Z</time></trkpt><trkpt lat="41.0398233" lon="14.5585233"><ele>280.0</ele><time>2026-04-04T09:23:40.009Z</time></trkpt><trkpt lat="41.03978" lon="14.55837"><ele>280.4</ele><time>2026-04-04T09:23:42.007Z</time></trkpt><trkpt lat="41.0397567" lon="14.5582183"><ele>280.8</ele><time>2026-04-04T09:23:44.01Z</time></trkpt><trkpt lat="41.0397233" lon="14.5580717"><ele>281.2</ele><time>2026-04-04T09:23:46.009Z</time></trkpt><trkpt lat="41.0396917" lon="14.5579383"><ele>281.6</ele><time>2026-04-04T09:23:48.007Z</time></trkpt><trkpt lat="41.0396633" lon="14.5578117"><ele>282.0</ele><time>2026-04-04T09:23:50.011Z</time></trkpt><trkpt lat="41.039635" lon="14.55768"><ele>282.0</ele><time>2026-04-04T09:23:52.009Z</time></trkpt><trkpt lat="41.039605" lon="14.5575517"><ele>282.0</ele><time>2026-04-04T09:23:54.009Z</time></trkpt><trkpt lat="41.0395783" lon="14.55743"><ele>282.0</ele><time>2026-04-04T09:23:56.009Z</time></trkpt><trkpt lat="41.0395483" lon="14.55731"><ele>282.0</ele><time>2026-04-04T09:23:58.008Z</time></trkpt><trkpt lat="41.03952" lon="14.5571883"><ele>282.0</ele><time>2026-04-04T09:24:00.01Z</time></trkpt><trkpt lat="41.03949" lon="14.5570667"><ele>282.4</ele><time>2026-04-04T09:24:02.01Z</time></trkpt><trkpt lat="41.03946" lon="14.5569467"><ele>282.79999999999995</ele><time>2026-04-04T09:24:04.008Z</time></trkpt><trkpt lat="41.0394283" lon="14.5568217"><ele>283.2</ele><time>2026-04-04T09:24:06.01Z</time></trkpt><trkpt lat="41.0393983" lon="14.5567"><ele>283.59999999999997</ele><time>2026-04-04T09:24:08.009Z</time></trkpt><trkpt lat="41.0393667" lon="14.5565733"><ele>284.0</ele><time>2026-04-04T09:24:10.009Z</time></trkpt><trkpt lat="41.0393367" lon="14.55645"><ele>284.0</ele><time>2026-04-04T09:24:12.01Z</time></trkpt><trkpt lat="41.0393033" lon="14.556325"><ele>284.0</ele><time>2026-04-04T09:24:14.01Z</time></trkpt><trkpt lat="41.039275" lon="14.55619"><ele>284.0</ele><time>2026-04-04T09:24:16.011Z</time></trkpt><trkpt lat="41.0392383" lon="14.556055"><ele>284.0</ele><time>2026-04-04T09:24:18.01Z</time></trkpt><trkpt lat="41.0392" lon="14.5559217"><ele>284.0</ele><time>2026-04-04T09:24:20.01Z</time></trkpt><trkpt lat="41.0391633" lon="14.55579"><ele>285.4</ele><time>2026-04-04T09:24:22.008Z</time></trkpt><trkpt lat="41.0391333" lon="14.555655"><ele>286.79999999999995</ele><time>2026-04-04T09:24:24.009Z</time></trkpt><trkpt lat="41.0391" lon="14.555525"><ele>288.20000000000005</ele><time>2026-04-04T09:24:26.01Z</time></trkpt><trkpt lat="41.0390683" lon="14.5553967"><ele>289.6</ele><time>2026-04-04T09:24:28.01Z</time></trkpt><trkpt lat="41.0390383" lon="14.55526"><ele>291.0</ele><time>2026-04-04T09:24:30.011Z</time></trkpt><trkpt lat="41.0390083" lon="14.5551283"><ele>291.40000000000003</ele><time>2026-04-04T09:24:32.008Z</time></trkpt><trkpt lat="41.038965" lon="14.554995"><ele>291.8</ele><time>2026-04-04T09:24:34.01Z</time></trkpt><trkpt lat="41.0389217" lon="14.55486"><ele>292.20000000000005</ele><time>2026-04-04T09:24:36.011Z</time></trkpt><trkpt lat="41.03888" lon="14.554725"><ele>292.6</ele><time>2026-04-04T09:24:38.009Z</time></trkpt><trkpt lat="41.0388383" lon="14.554585"><ele>293.0</ele><time>2026-04-04T09:24:40.007Z</time></trkpt><trkpt lat="41.038805" lon="14.5544367"><ele>293.0</ele><time>2026-04-04T09:24:42.01Z</time></trkpt><trkpt lat="41.038775" lon="14.5543"><ele>293.0</ele><time>2026-04-04T09:24:44.009Z</time></trkpt><trkpt lat="41.0387317" lon="14.5541633"><ele>293.0</ele><time>2026-04-04T09:24:46.008Z</time></trkpt><trkpt lat="41.0386933" lon="14.5540233"><ele>293.0</ele><time>2026-04-04T09:24:48.01Z</time></trkpt><trkpt lat="41.0386533" lon="14.553885"><ele>293.0</ele><time>2026-04-04T09:24:50.01Z</time></trkpt><trkpt lat="41.0386217" lon="14.5537617"><ele>292.99999999999994</ele><time>2026-04-04T09:24:52.007Z</time></trkpt><trkpt lat="41.03864" lon="14.553655"><ele>293.0</ele><time>2026-04-04T09:24:55.009Z</time></trkpt><trkpt lat="41.0386433" lon="14.55374"><ele>293.0</ele><time>2026-04-04T09:25:02.009Z</time></trkpt><trkpt lat="41.0386783" lon="14.5538183"><ele>293.0</ele><time>2026-04-04T09:25:05.008Z</time></trkpt><trkpt lat="41.038735" lon="14.5538633"><ele>293.0</ele><time>2026-04-04T09:25:09.008Z</time></trkpt><trkpt lat="41.0386633" lon="14.5538167"><ele>292.99999999999994</ele><time>2026-04-04T09:26:26.01Z</time></trkpt><trkpt lat="41.0386383" lon="14.5537233"><ele>293.0</ele><time>2026-04-04T09:26:29.011Z</time></trkpt><trkpt lat="41.0386217" lon="14.553635"><ele>293.4</ele><time>2026-04-04T09:26:31.009Z</time></trkpt><trkpt lat="41.0385833" lon="14.553525"><ele>293.8</ele><time>2026-04-04T09:26:33.01Z</time></trkpt><trkpt lat="41.0385383" lon="14.553405"><ele>294.2</ele><time>2026-04-04T09:26:35.009Z</time></trkpt><trkpt lat="41.0384883" lon="14.5532817"><ele>294.6</ele><time>2026-04-04T09:26:37.009Z</time></trkpt><trkpt lat="41.038435" lon="14.55315"><ele>295.0</ele><time>2026-04-04T09:26:39.011Z</time></trkpt><trkpt lat="41.0383783" lon="14.5530067"><ele>295.2</ele><time>2026-04-04T09:26:41.009Z</time></trkpt><trkpt lat="41.0383333" lon="14.5528567"><ele>295.4</ele><time>2026-04-04T09:26:43.011Z</time></trkpt><trkpt lat="41.03829" lon="14.5527083"><ele>295.6</ele><time>2026-04-04T09:26:45.009Z</time></trkpt><trkpt lat="41.03824" lon="14.5525633"><ele>295.8</ele><time>2026-04-04T09:26:47.01Z</time></trkpt><trkpt lat="41.038215" lon="14.5524867"><ele>296.0</ele><time>2026-04-04T09:26:48.01Z</time></trkpt><trkpt lat="41.038165" lon="14.552335"><ele>297.0</ele><time>2026-04-04T09:26:50.009Z</time></trkpt><trkpt lat="41.0381167" lon="14.5522017"><ele>298.0</ele><time>2026-04-04T09:26:52.011Z</time></trkpt><trkpt lat="41.038065" lon="14.5520683"><ele>299.0</ele><time>2026-04-04T09:26:54.009Z</time></trkpt><trkpt lat="41.0380133" lon="14.5519317"><ele>300.0</ele><time>2026-04-04T09:26:56.011Z</time></trkpt><trkpt lat="41.03796" lon="14.5517883"><ele>300.0</ele><time>2026-04-04T09:26:58.009Z</time></trkpt><trkpt lat="41.0379117" lon="14.551655"><ele>300.0</ele><time>2026-04-04T09:27:00.009Z</time></trkpt><trkpt lat="41.0378733" lon="14.5515283"><ele>300.0</ele><time>2026-04-04T09:27:02.01Z</time></trkpt><trkpt lat="41.03782" lon="14.551405"><ele>300.0</ele><time>2026-04-04T09:27:04.009Z</time></trkpt><trkpt lat="41.0377633" lon="14.551285"><ele>300.0</ele><time>2026-04-04T09:27:06.01Z</time></trkpt><trkpt lat="41.0377083" lon="14.5511617"><ele>300.0</ele><time>2026-04-04T09:27:08.01Z</time></trkpt><trkpt lat="41.0376567" lon="14.5510333"><ele>300.0</ele><time>2026-04-04T09:27:10.008Z</time></trkpt><trkpt lat="41.0376083" lon="14.5509"><ele>300.0</ele><time>2026-04-04T09:27:12.01Z</time></trkpt><trkpt lat="41.0375567" lon="14.5507633"><ele>300.0</ele><time>2026-04-04T09:27:14.008Z</time></trkpt><trkpt lat="41.0374967" lon="14.55063"><ele>300.0</ele><time>2026-04-04T09:27:16.007Z</time></trkpt><trkpt lat="41.037435" lon="14.5505"><ele>300.0</ele><time>2026-04-04T09:27:18.008Z</time></trkpt><trkpt lat="41.037375" lon="14.550375"><ele>300.0</ele><time>2026-04-04T09:27:20.009Z</time></trkpt><trkpt lat="41.0373183" lon="14.5502333"><ele>300.0</ele><time>2026-04-04T09:27:22.008Z</time></trkpt><trkpt lat="41.037265" lon="14.55009"><ele>300.0</ele><time>2026-04-04T09:27:24.009Z</time></trkpt><trkpt lat="41.0372033" lon="14.5499483"><ele>300.0</ele><time>2026-04-04T09:27:26.009Z</time></trkpt><trkpt lat="41.0371433" lon="14.549805"><ele>300.0</ele><time>2026-04-04T09:27:28.009Z</time></trkpt><trkpt lat="41.0370917" lon="14.5496367"><ele>300.0</ele><time>2026-04-04T09:27:30.009Z</time></trkpt><trkpt lat="41.0370633" lon="14.549555"><ele>299.1666666666667</ele><time>2026-04-04T09:27:31.009Z</time></trkpt><trkpt lat="41.0370333" lon="14.549465"><ele>298.3333333333333</ele><time>2026-04-04T09:27:32.01Z</time></trkpt><trkpt lat="41.0369967" lon="14.5493733"><ele>297.5</ele><time>2026-04-04T09:27:33.008Z</time></trkpt><trkpt lat="41.0369583" lon="14.549275"><ele>296.66666666666663</ele><time>2026-04-04T09:27:34.008Z</time></trkpt><trkpt lat="41.03692" lon="14.5491733"><ele>295.8333333333333</ele><time>2026-04-04T09:27:35.009Z</time></trkpt><trkpt lat="41.0368783" lon="14.5490667"><ele>295.0</ele><time>2026-04-04T09:27:36.01Z</time></trkpt><trkpt lat="41.036835" lon="14.5489533"><ele>295.0</ele><time>2026-04-04T09:27:37.01Z</time></trkpt><trkpt lat="41.03679" lon="14.5488383"><ele>295.0</ele><time>2026-04-04T09:27:38.01Z</time></trkpt><trkpt lat="41.0367433" lon="14.5487167"><ele>295.0</ele><time>2026-04-04T09:27:39.009Z</time></trkpt><trkpt lat="41.0366917" lon="14.5485917"><ele>295.0</ele><time>2026-04-04T09:27:40.008Z</time></trkpt><trkpt lat="41.0366467" lon="14.5484667"><ele>295.0</ele><time>2026-04-04T09:27:41.01Z</time></trkpt><trkpt lat="41.0365983" lon="14.5483367"><ele>294.25</ele><time>2026-04-04T09:27:42.009Z</time></trkpt><trkpt lat="41.0365517" lon="14.548205"><ele>293.5</ele><time>2026-04-04T09:27:43.009Z</time></trkpt><trkpt lat="41.0365017" lon="14.5480733"><ele>292.75</ele><time>2026-04-04T09:27:44.009Z</time></trkpt><trkpt lat="41.0364533" lon="14.547935"><ele>292.0</ele><time>2026-04-04T09:27:45.007Z</time></trkpt><trkpt lat="41.0364" lon="14.5477983"><ele>291.5</ele><time>2026-04-04T09:27:46.009Z</time></trkpt><trkpt lat="41.0363467" lon="14.5476583"><ele>291.0</ele><time>2026-04-04T09:27:47.01Z</time></trkpt><trkpt lat="41.036295" lon="14.54752"><ele>290.5</ele><time>2026-04-04T09:27:48.009Z</time></trkpt><trkpt lat="41.0362533" lon="14.5473767"><ele>290.0</ele><time>2026-04-04T09:27:49.01Z</time></trkpt><trkpt lat="41.0362167" lon="14.5472283"><ele>290.0</ele><time>2026-04-04T09:27:50.009Z</time></trkpt><trkpt lat="41.0361717" lon="14.5470833"><ele>290.0</ele><time>2026-04-04T09:27:51.008Z</time></trkpt><trkpt lat="41.03613" lon="14.546935"><ele>290.0</ele><time>2026-04-04T09:27:52.008Z</time></trkpt><trkpt lat="41.0360833" lon="14.5467867"><ele>290.0</ele><time>2026-04-04T09:27:53.008Z</time></trkpt><trkpt lat="41.0360383" lon="14.5466583"><ele>289.33333333333337</ele><time>2026-04-04T09:27:54.009Z</time></trkpt><trkpt lat="41.0360017" lon="14.54655"><ele>288.6666666666667</ele><time>2026-04-04T09:27:55.009Z</time></trkpt><trkpt lat="41.0359717" lon="14.5464517"><ele>288.0</ele><time>2026-04-04T09:27:56.01Z</time></trkpt><trkpt lat="41.0359417" lon="14.5463583"><ele>287.3333333333333</ele><time>2026-04-04T09:27:57.008Z</time></trkpt><trkpt lat="41.0359067" lon="14.5462633"><ele>286.66666666666663</ele><time>2026-04-04T09:27:58.007Z</time></trkpt><trkpt lat="41.03587" lon="14.5461617"><ele>286.0</ele><time>2026-04-04T09:27:59.008Z</time></trkpt><trkpt lat="41.0358367" lon="14.546055"><ele>285.8333333333333</ele><time>2026-04-04T09:28:00.007Z</time></trkpt><trkpt lat="41.035795" lon="14.5459533"><ele>285.66666666666663</ele><time>2026-04-04T09:28:01.01Z</time></trkpt><trkpt lat="41.0357483" lon="14.5458517"><ele>285.5</ele><time>2026-04-04T09:28:02.01Z</time></trkpt><trkpt lat="41.03571" lon="14.5457483"><ele>285.3333333333333</ele><time>2026-04-04T09:28:03.009Z</time></trkpt><trkpt lat="41.0356767" lon="14.5456417"><ele>285.1666666666667</ele><time>2026-04-04T09:28:04.009Z</time></trkpt><trkpt lat="41.0356383" lon="14.545535"><ele>285.0</ele><time>2026-04-04T09:28:05.01Z</time></trkpt><trkpt lat="41.035595" lon="14.545425"><ele>284.2</ele><time>2026-04-04T09:28:06.009Z</time></trkpt><trkpt lat="41.0355483" lon="14.54531"><ele>283.4</ele><time>2026-04-04T09:28:07.01Z</time></trkpt><trkpt lat="41.0355033" lon="14.54519"><ele>282.6</ele><time>2026-04-04T09:28:08.009Z</time></trkpt><trkpt lat="41.0354617" lon="14.5450667"><ele>281.8</ele><time>2026-04-04T09:28:09.01Z</time></trkpt><trkpt lat="41.0354317" lon="14.5449317"><ele>281.0</ele><time>2026-04-04T09:28:10.009Z</time></trkpt><trkpt lat="41.0354167" lon="14.5447867"><ele>281.0</ele><time>2026-04-04T09:28:11.009Z</time></trkpt><trkpt lat="41.0354" lon="14.5446367"><ele>281.0</ele><time>2026-04-04T09:28:12.01Z</time></trkpt><trkpt lat="41.035385" lon="14.54448"><ele>281.0</ele><time>2026-04-04T09:28:13.008Z</time></trkpt><trkpt lat="41.0353683" lon="14.5443183"><ele>281.0</ele><time>2026-04-04T09:28:14.009Z</time></trkpt><trkpt lat="41.0353617" lon="14.5441633"><ele>280.2</ele><time>2026-04-04T09:28:15.008Z</time></trkpt><trkpt lat="41.0353533" lon="14.5440183"><ele>279.40000000000003</ele><time>2026-04-04T09:28:16.008Z</time></trkpt><trkpt lat="41.035345" lon="14.5438783"><ele>278.6</ele><time>2026-04-04T09:28:17.008Z</time></trkpt><trkpt lat="41.0353383" lon="14.5437333"><ele>277.8</ele><time>2026-04-04T09:28:18.009Z</time></trkpt><trkpt lat="41.0353317" lon="14.5436017"><ele>277.0</ele><time>2026-04-04T09:28:19.008Z</time></trkpt><trkpt lat="41.035325" lon="14.5434733"><ele>275.2</ele><time>2026-04-04T09:28:20.01Z</time></trkpt><trkpt lat="41.0353117" lon="14.5433467"><ele>273.4</ele><time>2026-04-04T09:28:21.009Z</time></trkpt><trkpt lat="41.035295" lon="14.5432217"><ele>271.6</ele><time>2026-04-04T09:28:22.009Z</time></trkpt><trkpt lat="41.035275" lon="14.543095"><ele>269.8</ele><time>2026-04-04T09:28:23.009Z</time></trkpt><trkpt lat="41.03525" lon="14.542975"><ele>268.0</ele><time>2026-04-04T09:28:24.009Z</time></trkpt><trkpt lat="41.0352283" lon="14.542855"><ele>266.4</ele><time>2026-04-04T09:28:25.01Z</time></trkpt><trkpt lat="41.0352133" lon="14.5427317"><ele>264.8</ele><time>2026-04-04T09:28:26.009Z</time></trkpt><trkpt lat="41.0352033" lon="14.5425983"><ele>263.2</ele><time>2026-04-04T09:28:27.009Z</time></trkpt><trkpt lat="41.03519" lon="14.5424617"><ele>261.6</ele><time>2026-04-04T09:28:28.008Z</time></trkpt><trkpt lat="41.0351817" lon="14.54232"><ele>260.0</ele><time>2026-04-04T09:28:29.009Z</time></trkpt><trkpt lat="41.0351717" lon="14.54218"><ele>259.0</ele><time>2026-04-04T09:28:30.01Z</time></trkpt><trkpt lat="41.0351617" lon="14.542035"><ele>258.0</ele><time>2026-04-04T09:28:31.009Z</time></trkpt><trkpt lat="41.035155" lon="14.54189"><ele>257.0</ele><time>2026-04-04T09:28:32.009Z</time></trkpt><trkpt lat="41.0351567" lon="14.54174"><ele>256.0</ele><time>2026-04-04T09:28:33.008Z</time></trkpt><trkpt lat="41.0351717" lon="14.5415883"><ele>255.0</ele><time>2026-04-04T09:28:34.009Z</time></trkpt><trkpt lat="41.0351933" lon="14.5414367"><ele>255.0</ele><time>2026-04-04T09:28:35.009Z</time></trkpt><trkpt lat="41.03521" lon="14.54129"><ele>255.0</ele><time>2026-04-04T09:28:36.009Z</time></trkpt><trkpt lat="41.0352233" lon="14.5411533"><ele>255.0</ele><time>2026-04-04T09:28:37.009Z</time></trkpt><trkpt lat="41.0352283" lon="14.5410217"><ele>255.0</ele><time>2026-04-04T09:28:38.009Z</time></trkpt><trkpt lat="41.0352233" lon="14.5408917"><ele>255.0</ele><time>2026-04-04T09:28:39.009Z</time></trkpt><trkpt lat="41.0352117" lon="14.5407567"><ele>254.0</ele><time>2026-04-04T09:28:40.011Z</time></trkpt><trkpt lat="41.0351933" lon="14.54062"><ele>253.0</ele><time>2026-04-04T09:28:41.009Z</time></trkpt><trkpt lat="41.0351667" lon="14.5404783"><ele>252.0</ele><time>2026-04-04T09:28:42.011Z</time></trkpt><trkpt lat="41.0351367" lon="14.5403367"><ele>251.0</ele><time>2026-04-04T09:28:43.008Z</time></trkpt><trkpt lat="41.03511" lon="14.5401967"><ele>250.0</ele><time>2026-04-04T09:28:44.009Z</time></trkpt><trkpt lat="41.03509" lon="14.5400583"><ele>249.6</ele><time>2026-04-04T09:28:45.006Z</time></trkpt><trkpt lat="41.035075" lon="14.5399183"><ele>249.2</ele><time>2026-04-04T09:28:46.008Z</time></trkpt><trkpt lat="41.035075" lon="14.5397783"><ele>248.8</ele><time>2026-04-04T09:28:47.008Z</time></trkpt><trkpt lat="41.0350917" lon="14.539635"><ele>248.4</ele><time>2026-04-04T09:28:48.009Z</time></trkpt><trkpt lat="41.03512" lon="14.5394917"><ele>248.0</ele><time>2026-04-04T09:28:49.008Z</time></trkpt><trkpt lat="41.0351517" lon="14.5393417"><ele>246.75</ele><time>2026-04-04T09:28:50.009Z</time></trkpt><trkpt lat="41.0351767" lon="14.53919"><ele>245.5</ele><time>2026-04-04T09:28:51.008Z</time></trkpt><trkpt lat="41.0352017" lon="14.5390333"><ele>244.25</ele><time>2026-04-04T09:28:52.007Z</time></trkpt><trkpt lat="41.0352283" lon="14.5388733"><ele>243.0</ele><time>2026-04-04T09:28:53.007Z</time></trkpt><trkpt lat="41.03526" lon="14.53871"><ele>241.0</ele><time>2026-04-04T09:28:54.008Z</time></trkpt><trkpt lat="41.0353067" lon="14.5385533"><ele>239.0</ele><time>2026-04-04T09:28:55.008Z</time></trkpt><trkpt lat="41.0353683" lon="14.5384033"><ele>237.0</ele><time>2026-04-04T09:28:56.008Z</time></trkpt><trkpt lat="41.0354417" lon="14.53826"><ele>235.0</ele><time>2026-04-04T09:28:57.007Z</time></trkpt><trkpt lat="41.0355233" lon="14.53812"><ele>235.0</ele><time>2026-04-04T09:28:58.008Z</time></trkpt><trkpt lat="41.03561" lon="14.5379917"><ele>235.0</ele><time>2026-04-04T09:28:59.008Z</time></trkpt><trkpt lat="41.0356883" lon="14.537865"><ele>235.0</ele><time>2026-04-04T09:29:00.008Z</time></trkpt><trkpt lat="41.035765" lon="14.5377417"><ele>235.0</ele><time>2026-04-04T09:29:01.007Z</time></trkpt><trkpt lat="41.0358417" lon="14.5376183"><ele>234.8</ele><time>2026-04-04T09:29:02.008Z</time></trkpt><trkpt lat="41.03591" lon="14.5374983"><ele>234.6</ele><time>2026-04-04T09:29:03.008Z</time></trkpt><trkpt lat="41.035975" lon="14.5373783"><ele>234.39999999999998</ele><time>2026-04-04T09:29:04.006Z</time></trkpt><trkpt lat="41.0360333" lon="14.5372533"><ele>234.2</ele><time>2026-04-04T09:29:05.008Z</time></trkpt><trkpt lat="41.0360867" lon="14.5371233"><ele>234.0</ele><time>2026-04-04T09:29:06.01Z</time></trkpt><trkpt lat="41.0361333" lon="14.5369883"><ele>234.0</ele><time>2026-04-04T09:29:07.007Z</time></trkpt><trkpt lat="41.0361733" lon="14.5368483"><ele>234.0</ele><time>2026-04-04T09:29:08.009Z</time></trkpt><trkpt lat="41.0362" lon="14.5367"><ele>234.0</ele><time>2026-04-04T09:29:09.01Z</time></trkpt><trkpt lat="41.0362167" lon="14.5365483"><ele>234.0</ele><time>2026-04-04T09:29:10.008Z</time></trkpt><trkpt lat="41.0362267" lon="14.5363917"><ele>234.0</ele><time>2026-04-04T09:29:11.008Z</time></trkpt><trkpt lat="41.0362217" lon="14.5362333"><ele>234.0</ele><time>2026-04-04T09:29:12.007Z</time></trkpt><trkpt lat="41.0362133" lon="14.5360717"><ele>234.0</ele><time>2026-04-04T09:29:13.009Z</time></trkpt><trkpt lat="41.036205" lon="14.5359083"><ele>234.0</ele><time>2026-04-04T09:29:14.009Z</time></trkpt><trkpt lat="41.0362" lon="14.53574"><ele>232.5</ele><time>2026-04-04T09:29:15.007Z</time></trkpt><trkpt lat="41.0362" lon="14.53557"><ele>231.0</ele><time>2026-04-04T09:29:16.006Z</time></trkpt><trkpt lat="41.0361933" lon="14.535395"><ele>229.5</ele><time>2026-04-04T09:29:17.008Z</time></trkpt><trkpt lat="41.0361867" lon="14.53522"><ele>228.0</ele><time>2026-04-04T09:29:18.009Z</time></trkpt><trkpt lat="41.0361767" lon="14.535045"><ele>227.25</ele><time>2026-04-04T09:29:19.008Z</time></trkpt><trkpt lat="41.0361683" lon="14.5348633"><ele>226.5</ele><time>2026-04-04T09:29:20.009Z</time></trkpt><trkpt lat="41.0361583" lon="14.5346783"><ele>225.75</ele><time>2026-04-04T09:29:21.008Z</time></trkpt><trkpt lat="41.0361517" lon="14.534495"><ele>225.0</ele><time>2026-04-04T09:29:22.007Z</time></trkpt><trkpt lat="41.036145" lon="14.5343117"><ele>224.0</ele><time>2026-04-04T09:29:23.008Z</time></trkpt><trkpt lat="41.0361367" lon="14.53413"><ele>223.0</ele><time>2026-04-04T09:29:24.009Z</time></trkpt><trkpt lat="41.0361267" lon="14.5339483"><ele>222.0</ele><time>2026-04-04T09:29:25.007Z</time></trkpt><trkpt lat="41.0361183" lon="14.533765"><ele>221.0</ele><time>2026-04-04T09:29:26.008Z</time></trkpt><trkpt lat="41.0361117" lon="14.5335783"><ele>220.5</ele><time>2026-04-04T09:29:27.008Z</time></trkpt><trkpt lat="41.0361067" lon="14.53339"><ele>220.0</ele><time>2026-04-04T09:29:28.008Z</time></trkpt><trkpt lat="41.0361" lon="14.5332"><ele>219.5</ele><time>2026-04-04T09:29:29.011Z</time></trkpt><trkpt lat="41.0360917" lon="14.53301"><ele>219.0</ele><time>2026-04-04T09:29:30.01Z</time></trkpt><trkpt lat="41.0360867" lon="14.53282"><ele>218.75</ele><time>2026-04-04T09:29:31.008Z</time></trkpt><trkpt lat="41.0360817" lon="14.53263"><ele>218.5</ele><time>2026-04-04T09:29:32.008Z</time></trkpt><trkpt lat="41.036075" lon="14.5324367"><ele>218.25</ele><time>2026-04-04T09:29:33.007Z</time></trkpt><trkpt lat="41.0360683" lon="14.5322417"><ele>218.0</ele><time>2026-04-04T09:29:34.005Z</time></trkpt><trkpt lat="41.03606" lon="14.5320483"><ele>217.25</ele><time>2026-04-04T09:29:35.007Z</time></trkpt><trkpt lat="41.0360533" lon="14.531865"><ele>216.5</ele><time>2026-04-04T09:29:36.009Z</time></trkpt><trkpt lat="41.03605" lon="14.5316883"><ele>215.75</ele><time>2026-04-04T09:29:37.007Z</time></trkpt><trkpt lat="41.0360433" lon="14.5315117"><ele>215.0</ele><time>2026-04-04T09:29:38.008Z</time></trkpt><trkpt lat="41.0360367" lon="14.5313333"><ele>214.0</ele><time>2026-04-04T09:29:39.008Z</time></trkpt><trkpt lat="41.0360333" lon="14.5311517"><ele>213.0</ele><time>2026-04-04T09:29:40.007Z</time></trkpt><trkpt lat="41.0360383" lon="14.53097"><ele>212.0</ele><time>2026-04-04T09:29:41.008Z</time></trkpt><trkpt lat="41.036045" lon="14.5307867"><ele>211.0</ele><time>2026-04-04T09:29:42.008Z</time></trkpt><trkpt lat="41.03605" lon="14.5306067"><ele>211.0</ele><time>2026-04-04T09:29:43.008Z</time></trkpt><trkpt lat="41.0360533" lon="14.5304317"><ele>211.0</ele><time>2026-04-04T09:29:44.006Z</time></trkpt><trkpt lat="41.0360567" lon="14.5302617"><ele>211.0</ele><time>2026-04-04T09:29:45.008Z</time></trkpt><trkpt lat="41.0360633" lon="14.53009"><ele>211.0</ele><time>2026-04-04T09:29:46.007Z</time></trkpt><trkpt lat="41.03607" lon="14.529915"><ele>210.25</ele><time>2026-04-04T09:29:47.009Z</time></trkpt><trkpt lat="41.0360767" lon="14.5297367"><ele>209.5</ele><time>2026-04-04T09:29:48.009Z</time></trkpt><trkpt lat="41.03608" lon="14.5295567"><ele>208.75</ele><time>2026-04-04T09:29:49.008Z</time></trkpt><trkpt lat="41.036085" lon="14.5293783"><ele>208.0</ele><time>2026-04-04T09:29:50.008Z</time></trkpt><trkpt lat="41.0360883" lon="14.5292117"><ele>207.0</ele><time>2026-04-04T09:29:51.008Z</time></trkpt><trkpt lat="41.0360933" lon="14.5290583"><ele>206.0</ele><time>2026-04-04T09:29:52.008Z</time></trkpt><trkpt lat="41.0361017" lon="14.52891"><ele>205.0</ele><time>2026-04-04T09:29:53.008Z</time></trkpt><trkpt lat="41.0361067" lon="14.5287583"><ele>204.0</ele><time>2026-04-04T09:29:54.009Z</time></trkpt><trkpt lat="41.0361117" lon="14.5286"><ele>203.5</ele><time>2026-04-04T09:29:55.008Z</time></trkpt><trkpt lat="41.0361133" lon="14.528445"><ele>203.0</ele><time>2026-04-04T09:29:56.008Z</time></trkpt><trkpt lat="41.0361117" lon="14.5282883"><ele>202.5</ele><time>2026-04-04T09:29:57.007Z</time></trkpt><trkpt lat="41.0361117" lon="14.5281283"><ele>202.0</ele><time>2026-04-04T09:29:58.008Z</time></trkpt><trkpt lat="41.036115" lon="14.527965"><ele>201.5</ele><time>2026-04-04T09:29:59.007Z</time></trkpt><trkpt lat="41.0361183" lon="14.5277983"><ele>201.0</ele><time>2026-04-04T09:30:00.008Z</time></trkpt><trkpt lat="41.036125" lon="14.5276267"><ele>200.5</ele><time>2026-04-04T09:30:01.008Z</time></trkpt><trkpt lat="41.0361317" lon="14.52745"><ele>200.0</ele><time>2026-04-04T09:30:02.009Z</time></trkpt><trkpt lat="41.0361383" lon="14.5272717"><ele>200.0</ele><time>2026-04-04T09:30:03.008Z</time></trkpt><trkpt lat="41.036145" lon="14.5270917"><ele>200.0</ele><time>2026-04-04T09:30:04.006Z</time></trkpt><trkpt lat="41.0361533" lon="14.5269083"><ele>200.0</ele><time>2026-04-04T09:30:05.008Z</time></trkpt><trkpt lat="41.03616" lon="14.52672"><ele>200.0</ele><time>2026-04-04T09:30:06.007Z</time></trkpt><trkpt lat="41.0361633" lon="14.5265333"><ele>199.25</ele><time>2026-04-04T09:30:07.006Z</time></trkpt><trkpt lat="41.036165" lon="14.526345"><ele>198.5</ele><time>2026-04-04T09:30:08.007Z</time></trkpt><trkpt lat="41.036165" lon="14.5261583"><ele>197.75</ele><time>2026-04-04T09:30:09.009Z</time></trkpt><trkpt lat="41.036165" lon="14.5259717"><ele>197.0</ele><time>2026-04-04T09:30:10.008Z</time></trkpt><trkpt lat="41.0361633" lon="14.525785"><ele>196.25</ele><time>2026-04-04T09:30:11.008Z</time></trkpt><trkpt lat="41.0361633" lon="14.5255933"><ele>195.5</ele><time>2026-04-04T09:30:12.007Z</time></trkpt><trkpt lat="41.0361567" lon="14.5254033"><ele>194.75</ele><time>2026-04-04T09:30:13.009Z</time></trkpt><trkpt lat="41.0361433" lon="14.5252117"><ele>194.0</ele><time>2026-04-04T09:30:14.008Z</time></trkpt><trkpt lat="41.0361217" lon="14.5250217"><ele>193.5</ele><time>2026-04-04T09:30:15.007Z</time></trkpt><trkpt lat="41.0360933" lon="14.5248333"><ele>193.0</ele><time>2026-04-04T09:30:16.006Z</time></trkpt><trkpt lat="41.03606" lon="14.5246467"><ele>192.5</ele><time>2026-04-04T09:30:17.009Z</time></trkpt><trkpt lat="41.036025" lon="14.524465"><ele>192.0</ele><time>2026-04-04T09:30:18.006Z</time></trkpt><trkpt lat="41.035995" lon="14.52429"><ele>191.5</ele><time>2026-04-04T09:30:19.007Z</time></trkpt><trkpt lat="41.035965" lon="14.5241217"><ele>191.0</ele><time>2026-04-04T09:30:20.007Z</time></trkpt><trkpt lat="41.035935" lon="14.5239617"><ele>190.5</ele><time>2026-04-04T09:30:21.008Z</time></trkpt><trkpt lat="41.0359017" lon="14.5238067"><ele>190.0</ele><time>2026-04-04T09:30:22.008Z</time></trkpt><trkpt lat="41.0358733" lon="14.523655"><ele>189.0</ele><time>2026-04-04T09:30:23.007Z</time></trkpt><trkpt lat="41.0358417" lon="14.5235033"><ele>188.0</ele><time>2026-04-04T09:30:24.007Z</time></trkpt><trkpt lat="41.0358033" lon="14.523355"><ele>187.0</ele><time>2026-04-04T09:30:25.007Z</time></trkpt><trkpt lat="41.0357667" lon="14.5232083"><ele>186.0</ele><time>2026-04-04T09:30:26.009Z</time></trkpt><trkpt lat="41.0357383" lon="14.5230583"><ele>184.5</ele><time>2026-04-04T09:30:27.007Z</time></trkpt><trkpt lat="41.035705" lon="14.5229067"><ele>183.0</ele><time>2026-04-04T09:30:28.007Z</time></trkpt><trkpt lat="41.03568" lon="14.5227567"><ele>181.5</ele><time>2026-04-04T09:30:29.007Z</time></trkpt><trkpt lat="41.0356583" lon="14.522605"><ele>180.0</ele><time>2026-04-04T09:30:30.01Z</time></trkpt><trkpt lat="41.0356383" lon="14.52245"><ele>179.75</ele><time>2026-04-04T09:30:31.008Z</time></trkpt><trkpt lat="41.0356133" lon="14.5222933"><ele>179.5</ele><time>2026-04-04T09:30:32.009Z</time></trkpt><trkpt lat="41.035585" lon="14.522135"><ele>179.25</ele><time>2026-04-04T09:30:33.008Z</time></trkpt><trkpt lat="41.0355567" lon="14.5219767"><ele>179.0</ele><time>2026-04-04T09:30:34.006Z</time></trkpt><trkpt lat="41.0355317" lon="14.5218167"><ele>178.75</ele><time>2026-04-04T09:30:35.006Z</time></trkpt><trkpt lat="41.0355117" lon="14.521655"><ele>178.5</ele><time>2026-04-04T09:30:36.007Z</time></trkpt><trkpt lat="41.035495" lon="14.5214917"><ele>178.25</ele><time>2026-04-04T09:30:37.009Z</time></trkpt><trkpt lat="41.0354917" lon="14.5213283"><ele>178.0</ele><time>2026-04-04T09:30:38.008Z</time></trkpt><trkpt lat="41.0355" lon="14.5211633"><ele>177.5</ele><time>2026-04-04T09:30:39.007Z</time></trkpt><trkpt lat="41.0355133" lon="14.521"><ele>177.0</ele><time>2026-04-04T09:30:40.007Z</time></trkpt><trkpt lat="41.0355333" lon="14.5208367"><ele>176.5</ele><time>2026-04-04T09:30:41.007Z</time></trkpt><trkpt lat="41.0355567" lon="14.520675"><ele>176.0</ele><time>2026-04-04T09:30:42.007Z</time></trkpt><trkpt lat="41.03558" lon="14.5205167"><ele>175.25</ele><time>2026-04-04T09:30:43.008Z</time></trkpt><trkpt lat="41.0356067" lon="14.5203583"><ele>174.5</ele><time>2026-04-04T09:30:44.008Z</time></trkpt><trkpt lat="41.0356333" lon="14.520195"><ele>173.75</ele><time>2026-04-04T09:30:45.008Z</time></trkpt><trkpt lat="41.0356567" lon="14.5200317"><ele>173.0</ele><time>2026-04-04T09:30:46.007Z</time></trkpt><trkpt lat="41.0356767" lon="14.519865"><ele>173.0</ele><time>2026-04-04T09:30:47.008Z</time></trkpt><trkpt lat="41.0356883" lon="14.5196967"><ele>173.0</ele><time>2026-04-04T09:30:48.007Z</time></trkpt><trkpt lat="41.0356917" lon="14.5195233"><ele>173.0</ele><time>2026-04-04T09:30:49.008Z</time></trkpt><trkpt lat="41.0356917" lon="14.5193483"><ele>173.0</ele><time>2026-04-04T09:30:50.008Z</time></trkpt><trkpt lat="41.0356883" lon="14.5191717"><ele>172.0</ele><time>2026-04-04T09:30:51.01Z</time></trkpt><trkpt lat="41.03568" lon="14.5189917"><ele>171.0</ele><time>2026-04-04T09:30:52.007Z</time></trkpt><trkpt lat="41.03567" lon="14.5188117"><ele>170.0</ele><time>2026-04-04T09:30:53.008Z</time></trkpt><trkpt lat="41.0356567" lon="14.5186383"><ele>169.0</ele><time>2026-04-04T09:30:54.008Z</time></trkpt><trkpt lat="41.035645" lon="14.5184633"><ele>168.25</ele><time>2026-04-04T09:30:55.007Z</time></trkpt><trkpt lat="41.03563" lon="14.5182867"><ele>167.5</ele><time>2026-04-04T09:30:56.007Z</time></trkpt><trkpt lat="41.0356133" lon="14.5181083"><ele>166.75</ele><time>2026-04-04T09:30:57.008Z</time></trkpt><trkpt lat="41.0355917" lon="14.51793"><ele>166.0</ele><time>2026-04-04T09:30:58.007Z</time></trkpt><trkpt lat="41.0355617" lon="14.517755"><ele>165.75</ele><time>2026-04-04T09:30:59.008Z</time></trkpt><trkpt lat="41.0355183" lon="14.5175883"><ele>165.5</ele><time>2026-04-04T09:31:00.008Z</time></trkpt><trkpt lat="41.0354617" lon="14.51743"><ele>165.25</ele><time>2026-04-04T09:31:01.006Z</time></trkpt><trkpt lat="41.035405" lon="14.5172717"><ele>165.0</ele><time>2026-04-04T09:31:02.009Z</time></trkpt><trkpt lat="41.0353433" lon="14.517115"><ele>165.0</ele><time>2026-04-04T09:31:03.006Z</time></trkpt><trkpt lat="41.0352833" lon="14.5169517"><ele>165.0</ele><time>2026-04-04T09:31:04.007Z</time></trkpt><trkpt lat="41.0352283" lon="14.5167833"><ele>165.0</ele><time>2026-04-04T09:31:05.008Z</time></trkpt><trkpt lat="41.0351733" lon="14.516615"><ele>165.0</ele><time>2026-04-04T09:31:06.008Z</time></trkpt><trkpt lat="41.035115" lon="14.516445"><ele>165.0</ele><time>2026-04-04T09:31:07.01Z</time></trkpt><trkpt lat="41.03506" lon="14.51627"><ele>165.0</ele><time>2026-04-04T09:31:08.007Z</time></trkpt><trkpt lat="41.0350083" lon="14.5160933"><ele>165.0</ele><time>2026-04-04T09:31:09.007Z</time></trkpt><trkpt lat="41.0349583" lon="14.5159167"><ele>165.0</ele><time>2026-04-04T09:31:10.007Z</time></trkpt><trkpt lat="41.0349067" lon="14.51574"><ele>163.5</ele><time>2026-04-04T09:31:11.008Z</time></trkpt><trkpt lat="41.0348633" lon="14.5155617"><ele>162.0</ele><time>2026-04-04T09:31:12.007Z</time></trkpt><trkpt lat="41.0348183" lon="14.5153833"><ele>160.5</ele><time>2026-04-04T09:31:13.008Z</time></trkpt><trkpt lat="41.0347767" lon="14.515205"><ele>159.0</ele><time>2026-04-04T09:31:14.008Z</time></trkpt><trkpt lat="41.0347433" lon="14.5150267"><ele>158.75</ele><time>2026-04-04T09:31:15.008Z</time></trkpt><trkpt lat="41.0347133" lon="14.5148467"><ele>158.5</ele><time>2026-04-04T09:31:16.008Z</time></trkpt><trkpt lat="41.0346817" lon="14.51467"><ele>158.25</ele><time>2026-04-04T09:31:17.007Z</time></trkpt><trkpt lat="41.0346533" lon="14.5144917"><ele>158.0</ele><time>2026-04-04T09:31:18.008Z</time></trkpt><trkpt lat="41.0346267" lon="14.5143133"><ele>157.25</ele><time>2026-04-04T09:31:19.007Z</time></trkpt><trkpt lat="41.0346" lon="14.5141367"><ele>156.5</ele><time>2026-04-04T09:31:20.007Z</time></trkpt><trkpt lat="41.0345733" lon="14.5139633"><ele>155.75</ele><time>2026-04-04T09:31:21.008Z</time></trkpt><trkpt lat="41.0345483" lon="14.5137933"><ele>155.0</ele><time>2026-04-04T09:31:22.007Z</time></trkpt><trkpt lat="41.03452" lon="14.513625"><ele>155.0</ele><time>2026-04-04T09:31:23.008Z</time></trkpt><trkpt lat="41.034495" lon="14.51346"><ele>155.0</ele><time>2026-04-04T09:31:24.01Z</time></trkpt><trkpt lat="41.03447" lon="14.5132967"><ele>155.0</ele><time>2026-04-04T09:31:25.008Z</time></trkpt><trkpt lat="41.0344467" lon="14.513135"><ele>155.0</ele><time>2026-04-04T09:31:26.007Z</time></trkpt><trkpt lat="41.0344217" lon="14.5129717"><ele>154.75</ele><time>2026-04-04T09:31:27.007Z</time></trkpt><trkpt lat="41.034395" lon="14.51281"><ele>154.5</ele><time>2026-04-04T09:31:28.007Z</time></trkpt><trkpt lat="41.03437" lon="14.5126467"><ele>154.25</ele><time>2026-04-04T09:31:29.009Z</time></trkpt><trkpt lat="41.034345" lon="14.5124817"><ele>154.0</ele><time>2026-04-04T09:31:30.009Z</time></trkpt><trkpt lat="41.0343217" lon="14.5123183"><ele>154.0</ele><time>2026-04-04T09:31:31.007Z</time></trkpt><trkpt lat="41.034295" lon="14.5121567"><ele>154.0</ele><time>2026-04-04T09:31:32.009Z</time></trkpt><trkpt lat="41.03427" lon="14.511995"><ele>154.0</ele><time>2026-04-04T09:31:33.007Z</time></trkpt><trkpt lat="41.034245" lon="14.51183"><ele>154.0</ele><time>2026-04-04T09:31:34.007Z</time></trkpt><trkpt lat="41.03422" lon="14.5116683"><ele>154.0</ele><time>2026-04-04T09:31:35.008Z</time></trkpt><trkpt lat="41.0341933" lon="14.511505"><ele>154.0</ele><time>2026-04-04T09:31:36.007Z</time></trkpt><trkpt lat="41.0341717" lon="14.5113433"><ele>154.0</ele><time>2026-04-04T09:31:37.007Z</time></trkpt><trkpt lat="41.0341467" lon="14.511185"><ele>154.0</ele><time>2026-04-04T09:31:38.008Z</time></trkpt><trkpt lat="41.0341217" lon="14.511025"><ele>153.25</ele><time>2026-04-04T09:31:39.008Z</time></trkpt><trkpt lat="41.034095" lon="14.510865"><ele>152.5</ele><time>2026-04-04T09:31:40.008Z</time></trkpt><trkpt lat="41.03407" lon="14.510705"><ele>151.75</ele><time>2026-04-04T09:31:41.007Z</time></trkpt><trkpt lat="41.0340517" lon="14.5105417"><ele>151.0</ele><time>2026-04-04T09:31:42.009Z</time></trkpt><trkpt lat="41.0340333" lon="14.5103783"><ele>150.5</ele><time>2026-04-04T09:31:43.008Z</time></trkpt><trkpt lat="41.0340167" lon="14.5102167"><ele>150.0</ele><time>2026-04-04T09:31:44.009Z</time></trkpt><trkpt lat="41.0339983" lon="14.5100567"><ele>149.5</ele><time>2026-04-04T09:31:45.007Z</time></trkpt><trkpt lat="41.0339817" lon="14.5098967"><ele>149.0</ele><time>2026-04-04T09:31:46.007Z</time></trkpt><trkpt lat="41.033965" lon="14.5097383"><ele>149.0</ele><time>2026-04-04T09:31:47.008Z</time></trkpt><trkpt lat="41.0339533" lon="14.5095783"><ele>149.0</ele><time>2026-04-04T09:31:48.009Z</time></trkpt><trkpt lat="41.033945" lon="14.5094167"><ele>149.0</ele><time>2026-04-04T09:31:49.009Z</time></trkpt><trkpt lat="41.0339367" lon="14.5092517"><ele>149.0</ele><time>2026-04-04T09:31:50.008Z</time></trkpt><trkpt lat="41.0339283" lon="14.5090917"><ele>148.5</ele><time>2026-04-04T09:31:51.008Z</time></trkpt><trkpt lat="41.0339183" lon="14.5089267"><ele>148.0</ele><time>2026-04-04T09:31:52.007Z</time></trkpt><trkpt lat="41.0339083" lon="14.5087667"><ele>147.5</ele><time>2026-04-04T09:31:53.007Z</time></trkpt><trkpt lat="41.0338983" lon="14.508605"><ele>147.0</ele><time>2026-04-04T09:31:54.009Z</time></trkpt><trkpt lat="41.03389" lon="14.5084433"><ele>147.0</ele><time>2026-04-04T09:31:55.007Z</time></trkpt><trkpt lat="41.0338783" lon="14.50828"><ele>147.0</ele><time>2026-04-04T09:31:56.009Z</time></trkpt><trkpt lat="41.033865" lon="14.5081183"><ele>147.0</ele><time>2026-04-04T09:31:57.007Z</time></trkpt><trkpt lat="41.033855" lon="14.5079517"><ele>147.0</ele><time>2026-04-04T09:31:58.008Z</time></trkpt><trkpt lat="41.0338433" lon="14.507785"><ele>146.25</ele><time>2026-04-04T09:31:59.007Z</time></trkpt><trkpt lat="41.03383" lon="14.5076183"><ele>145.5</ele><time>2026-04-04T09:32:00.008Z</time></trkpt><trkpt lat="41.0338183" lon="14.5074533"><ele>144.75</ele><time>2026-04-04T09:32:01.007Z</time></trkpt><trkpt lat="41.0338117" lon="14.50729"><ele>144.0</ele><time>2026-04-04T09:32:02.009Z</time></trkpt><trkpt lat="41.0338083" lon="14.5071283"><ele>143.75</ele><time>2026-04-04T09:32:03.007Z</time></trkpt><trkpt lat="41.0338033" lon="14.506965"><ele>143.5</ele><time>2026-04-04T09:32:04.007Z</time></trkpt><trkpt lat="41.0337983" lon="14.506805"><ele>143.25</ele><time>2026-04-04T09:32:05.007Z</time></trkpt><trkpt lat="41.033795" lon="14.5066467"><ele>143.0</ele><time>2026-04-04T09:32:06.007Z</time></trkpt><trkpt lat="41.0337883" lon="14.506485"><ele>143.0</ele><time>2026-04-04T09:32:07.007Z</time></trkpt><trkpt lat="41.03378" lon="14.50632"><ele>143.0</ele><time>2026-04-04T09:32:08.01Z</time></trkpt><trkpt lat="41.0337717" lon="14.506155"><ele>143.0</ele><time>2026-04-04T09:32:09.009Z</time></trkpt><trkpt lat="41.03376" lon="14.505995"><ele>143.0</ele><time>2026-04-04T09:32:10.007Z</time></trkpt><trkpt lat="41.033745" lon="14.5058417"><ele>143.0</ele><time>2026-04-04T09:32:11.007Z</time></trkpt><trkpt lat="41.033735" lon="14.5056817"><ele>143.0</ele><time>2026-04-04T09:32:12.009Z</time></trkpt><trkpt lat="41.0337317" lon="14.50552"><ele>143.0</ele><time>2026-04-04T09:32:13.007Z</time></trkpt><trkpt lat="41.0337317" lon="14.50536"><ele>143.0</ele><time>2026-04-04T09:32:14.006Z</time></trkpt><trkpt lat="41.033725" lon="14.5051983"><ele>142.5</ele><time>2026-04-04T09:32:15.008Z</time></trkpt><trkpt lat="41.0337183" lon="14.5050383"><ele>142.0</ele><time>2026-04-04T09:32:16.008Z</time></trkpt><trkpt lat="41.0337133" lon="14.504875"><ele>141.5</ele><time>2026-04-04T09:32:17.008Z</time></trkpt><trkpt lat="41.0337083" lon="14.5047167"><ele>141.0</ele><time>2026-04-04T09:32:18.008Z</time></trkpt><trkpt lat="41.0337033" lon="14.5045567"><ele>140.25</ele><time>2026-04-04T09:32:19.007Z</time></trkpt><trkpt lat="41.0336967" lon="14.504395"><ele>139.5</ele><time>2026-04-04T09:32:20.009Z</time></trkpt><trkpt lat="41.03369" lon="14.5042333"><ele>138.75</ele><time>2026-04-04T09:32:21.008Z</time></trkpt><trkpt lat="41.0336833" lon="14.5040683"><ele>138.0</ele><time>2026-04-04T09:32:22.007Z</time></trkpt><trkpt lat="41.0336733" lon="14.5039033"><ele>137.5</ele><time>2026-04-04T09:32:23.007Z</time></trkpt><trkpt lat="41.0336667" lon="14.5037417"><ele>137.0</ele><time>2026-04-04T09:32:24.01Z</time></trkpt><trkpt lat="41.0336583" lon="14.5035817"><ele>136.5</ele><time>2026-04-04T09:32:25.008Z</time></trkpt><trkpt lat="41.0336517" lon="14.5034183"><ele>136.0</ele><time>2026-04-04T09:32:26.009Z</time></trkpt><trkpt lat="41.0336417" lon="14.503255"><ele>136.0</ele><time>2026-04-04T09:32:27.008Z</time></trkpt><trkpt lat="41.033635" lon="14.503085"><ele>136.0</ele><time>2026-04-04T09:32:28.008Z</time></trkpt><trkpt lat="41.0336283" lon="14.502915"><ele>136.0</ele><time>2026-04-04T09:32:29.007Z</time></trkpt><trkpt lat="41.03362" lon="14.50274"><ele>136.0</ele><time>2026-04-04T09:32:30.008Z</time></trkpt><trkpt lat="41.0336117" lon="14.5025667"><ele>135.5</ele><time>2026-04-04T09:32:31.007Z</time></trkpt><trkpt lat="41.033605" lon="14.5023933"><ele>135.0</ele><time>2026-04-04T09:32:32.009Z</time></trkpt><trkpt lat="41.0335983" lon="14.5022217"><ele>134.5</ele><time>2026-04-04T09:32:33.007Z</time></trkpt><trkpt lat="41.0335933" lon="14.5020483"><ele>134.0</ele><time>2026-04-04T09:32:34.009Z</time></trkpt><trkpt lat="41.0335867" lon="14.501875"><ele>133.5</ele><time>2026-04-04T09:32:35.008Z</time></trkpt><trkpt lat="41.03358" lon="14.5017"><ele>133.0</ele><time>2026-04-04T09:32:36.008Z</time></trkpt><trkpt lat="41.0335717" lon="14.5015233"><ele>132.5</ele><time>2026-04-04T09:32:37.009Z</time></trkpt><trkpt lat="41.0335633" lon="14.501345"><ele>132.0</ele><time>2026-04-04T09:32:38.008Z</time></trkpt><trkpt lat="41.033555" lon="14.5011667"><ele>131.5</ele><time>2026-04-04T09:32:39.009Z</time></trkpt><trkpt lat="41.0335483" lon="14.5009883"><ele>131.0</ele><time>2026-04-04T09:32:40.008Z</time></trkpt><trkpt lat="41.03354" lon="14.50081"><ele>130.5</ele><time>2026-04-04T09:32:41.007Z</time></trkpt><trkpt lat="41.0335317" lon="14.5006283"><ele>130.0</ele><time>2026-04-04T09:32:42.009Z</time></trkpt><trkpt lat="41.0335217" lon="14.5004517"><ele>129.5</ele><time>2026-04-04T09:32:43.008Z</time></trkpt><trkpt lat="41.0335067" lon="14.5002717"><ele>129.0</ele><time>2026-04-04T09:32:44.009Z</time></trkpt><trkpt lat="41.0334867" lon="14.500095"><ele>128.5</ele><time>2026-04-04T09:32:45.007Z</time></trkpt><trkpt lat="41.0334633" lon="14.499925"><ele>128.0</ele><time>2026-04-04T09:32:46.007Z</time></trkpt><trkpt lat="41.0334367" lon="14.4997517"><ele>127.75</ele><time>2026-04-04T09:32:47.008Z</time></trkpt><trkpt lat="41.03341" lon="14.4995767"><ele>127.5</ele><time>2026-04-04T09:32:48.012Z</time></trkpt><trkpt lat="41.03338" lon="14.4994033"><ele>127.25</ele><time>2026-04-04T09:32:49.008Z</time></trkpt><trkpt lat="41.033345" lon="14.4992333"><ele>127.0</ele><time>2026-04-04T09:32:50.009Z</time></trkpt><trkpt lat="41.0333067" lon="14.4990683"><ele>126.5</ele><time>2026-04-04T09:32:51.007Z</time></trkpt><trkpt lat="41.0332617" lon="14.4989033"><ele>126.0</ele><time>2026-04-04T09:32:52.007Z</time></trkpt><trkpt lat="41.0332117" lon="14.4987383"><ele>125.5</ele><time>2026-04-04T09:32:53.01Z</time></trkpt><trkpt lat="41.0331567" lon="14.49858"><ele>125.0</ele><time>2026-04-04T09:32:54.007Z</time></trkpt><trkpt lat="41.0331017" lon="14.4984317"><ele>125.0</ele><time>2026-04-04T09:32:55.009Z</time></trkpt><trkpt lat="41.0330467" lon="14.4982867"><ele>125.0</ele><time>2026-04-04T09:32:56.011Z</time></trkpt><trkpt lat="41.0329867" lon="14.4981433"><ele>125.0</ele><time>2026-04-04T09:32:57.009Z</time></trkpt><trkpt lat="41.0329233" lon="14.4980033"><ele>125.0</ele><time>2026-04-04T09:32:58.007Z</time></trkpt><trkpt lat="41.0328583" lon="14.4978633"><ele>124.75</ele><time>2026-04-04T09:32:59.009Z</time></trkpt><trkpt lat="41.0327967" lon="14.4977217"><ele>124.5</ele><time>2026-04-04T09:33:00.01Z</time></trkpt><trkpt lat="41.0327367" lon="14.49758"><ele>124.25</ele><time>2026-04-04T09:33:01.007Z</time></trkpt><trkpt lat="41.032675" lon="14.497435"><ele>124.0</ele><time>2026-04-04T09:33:02.008Z</time></trkpt><trkpt lat="41.0326117" lon="14.4972967"><ele>124.0</ele><time>2026-04-04T09:33:03.007Z</time></trkpt><trkpt lat="41.03255" lon="14.49716"><ele>124.0</ele><time>2026-04-04T09:33:04.008Z</time></trkpt><trkpt lat="41.0324883" lon="14.4970217"><ele>124.0</ele><time>2026-04-04T09:33:05.007Z</time></trkpt><trkpt lat="41.0324267" lon="14.4968833"><ele>124.0</ele><time>2026-04-04T09:33:06.007Z</time></trkpt><trkpt lat="41.0323667" lon="14.4967433"><ele>123.25</ele><time>2026-04-04T09:33:07.009Z</time></trkpt><trkpt lat="41.0323033" lon="14.4966"><ele>122.5</ele><time>2026-04-04T09:33:08.008Z</time></trkpt><trkpt lat="41.0322417" lon="14.49646"><ele>121.75</ele><time>2026-04-04T09:33:09.007Z</time></trkpt><trkpt lat="41.03218" lon="14.49632"><ele>121.0</ele><time>2026-04-04T09:33:10.008Z</time></trkpt><trkpt lat="41.0321133" lon="14.49618"><ele>120.5</ele><time>2026-04-04T09:33:11.007Z</time></trkpt><trkpt lat="41.0320483" lon="14.4960383"><ele>120.0</ele><time>2026-04-04T09:33:12.007Z</time></trkpt><trkpt lat="41.0319833" lon="14.4958967"><ele>119.5</ele><time>2026-04-04T09:33:13.008Z</time></trkpt><trkpt lat="41.03192" lon="14.4957567"><ele>119.0</ele><time>2026-04-04T09:33:14.007Z</time></trkpt><trkpt lat="41.031865" lon="14.4956217"><ele>119.0</ele><time>2026-04-04T09:33:15.01Z</time></trkpt><trkpt lat="41.03181" lon="14.4954933"><ele>119.0</ele><time>2026-04-04T09:33:16.006Z</time></trkpt><trkpt lat="41.031755" lon="14.4953633"><ele>119.0</ele><time>2026-04-04T09:33:17.007Z</time></trkpt><trkpt lat="41.0316983" lon="14.4952367"><ele>119.0</ele><time>2026-04-04T09:33:18.007Z</time></trkpt><trkpt lat="41.0316433" lon="14.49511"><ele>119.0</ele><time>2026-04-04T09:33:19.008Z</time></trkpt><trkpt lat="41.0315883" lon="14.49498"><ele>118.80000000000001</ele><time>2026-04-04T09:33:20.009Z</time></trkpt><trkpt lat="41.031535" lon="14.4948533"><ele>118.60000000000001</ele><time>2026-04-04T09:33:21.009Z</time></trkpt><trkpt lat="41.0314817" lon="14.4947217"><ele>118.4</ele><time>2026-04-04T09:33:22.007Z</time></trkpt><trkpt lat="41.0314283" lon="14.4945883"><ele>118.2</ele><time>2026-04-04T09:33:23.008Z</time></trkpt><trkpt lat="41.031375" lon="14.4944567"><ele>118.0</ele><time>2026-04-04T09:33:24.008Z</time></trkpt><trkpt lat="41.0313217" lon="14.4943267"><ele>117.25</ele><time>2026-04-04T09:33:25.007Z</time></trkpt><trkpt lat="41.0312683" lon="14.494195"><ele>116.5</ele><time>2026-04-04T09:33:26.008Z</time></trkpt><trkpt lat="41.0312133" lon="14.4940633"><ele>115.75</ele><time>2026-04-04T09:33:27.008Z</time></trkpt><trkpt lat="41.0311567" lon="14.49393"><ele>115.0</ele><time>2026-04-04T09:33:28.008Z</time></trkpt><trkpt lat="41.0311" lon="14.4937983"><ele>115.25</ele><time>2026-04-04T09:33:29.009Z</time></trkpt><trkpt lat="41.0310467" lon="14.493665"><ele>115.5</ele><time>2026-04-04T09:33:30.008Z</time></trkpt><trkpt lat="41.03099" lon="14.4935317"><ele>115.75</ele><time>2026-04-04T09:33:31.008Z</time></trkpt><trkpt lat="41.03093" lon="14.4933967"><ele>116.0</ele><time>2026-04-04T09:33:32.007Z</time></trkpt><trkpt lat="41.0308717" lon="14.4932583"><ele>116.0</ele><time>2026-04-04T09:33:33.01Z</time></trkpt><trkpt lat="41.030815" lon="14.4931217"><ele>116.0</ele><time>2026-04-04T09:33:34.007Z</time></trkpt><trkpt lat="41.0307533" lon="14.4929867"><ele>116.0</ele><time>2026-04-04T09:33:35.01Z</time></trkpt><trkpt lat="41.0306967" lon="14.49285"><ele>116.0</ele><time>2026-04-04T09:33:36.009Z</time></trkpt><trkpt lat="41.0306433" lon="14.4927133"><ele>115.25</ele><time>2026-04-04T09:33:37.009Z</time></trkpt><trkpt lat="41.030595" lon="14.492575"><ele>114.5</ele><time>2026-04-04T09:33:38.009Z</time></trkpt><trkpt lat="41.0305517" lon="14.49243"><ele>113.75</ele><time>2026-04-04T09:33:39.007Z</time></trkpt><trkpt lat="41.0305167" lon="14.4922833"><ele>113.0</ele><time>2026-04-04T09:33:40.007Z</time></trkpt><trkpt lat="41.0304833" lon="14.4921317"><ele>113.0</ele><time>2026-04-04T09:33:41.007Z</time></trkpt><trkpt lat="41.0304583" lon="14.4919783"><ele>113.0</ele><time>2026-04-04T09:33:42.008Z</time></trkpt><trkpt lat="41.0304317" lon="14.4918267"><ele>113.0</ele><time>2026-04-04T09:33:43.008Z</time></trkpt><trkpt lat="41.0304067" lon="14.491675"><ele>113.0</ele><time>2026-04-04T09:33:44.009Z</time></trkpt><trkpt lat="41.0303833" lon="14.49152"><ele>113.0</ele><time>2026-04-04T09:33:45.007Z</time></trkpt><trkpt lat="41.0303567" lon="14.4913667"><ele>113.0</ele><time>2026-04-04T09:33:46.007Z</time></trkpt><trkpt lat="41.03033" lon="14.4912133"><ele>113.0</ele><time>2026-04-04T09:33:47.007Z</time></trkpt><trkpt lat="41.0303067" lon="14.4910617"><ele>113.0</ele><time>2026-04-04T09:33:48.006Z</time></trkpt><trkpt lat="41.0302833" lon="14.4909083"><ele>112.75</ele><time>2026-04-04T09:33:49.007Z</time></trkpt><trkpt lat="41.0302583" lon="14.490755"><ele>112.5</ele><time>2026-04-04T09:33:50.007Z</time></trkpt><trkpt lat="41.0302333" lon="14.4906"><ele>112.25</ele><time>2026-04-04T09:33:51.007Z</time></trkpt><trkpt lat="41.0302083" lon="14.4904433"><ele>112.0</ele><time>2026-04-04T09:33:52.007Z</time></trkpt><trkpt lat="41.0301833" lon="14.4902883"><ele>111.5</ele><time>2026-04-04T09:33:53.006Z</time></trkpt><trkpt lat="41.0301583" lon="14.4901317"><ele>111.0</ele><time>2026-04-04T09:33:54.007Z</time></trkpt><trkpt lat="41.0301333" lon="14.4899783"><ele>110.5</ele><time>2026-04-04T09:33:55.009Z</time></trkpt><trkpt lat="41.03011" lon="14.48983"><ele>110.0</ele><time>2026-04-04T09:33:56.008Z</time></trkpt><trkpt lat="41.0300867" lon="14.4896783"><ele>109.25</ele><time>2026-04-04T09:33:57.008Z</time></trkpt><trkpt lat="41.030065" lon="14.4895267"><ele>108.5</ele><time>2026-04-04T09:33:58.007Z</time></trkpt><trkpt lat="41.0300417" lon="14.48937"><ele>107.75</ele><time>2026-04-04T09:33:59.008Z</time></trkpt><trkpt lat="41.03002" lon="14.489215"><ele>107.0</ele><time>2026-04-04T09:34:00.007Z</time></trkpt><trkpt lat="41.0299967" lon="14.48906"><ele>107.0</ele><time>2026-04-04T09:34:01.007Z</time></trkpt><trkpt lat="41.0299767" lon="14.4889083"><ele>107.0</ele><time>2026-04-04T09:34:02.007Z</time></trkpt><trkpt lat="41.0299533" lon="14.4887567"><ele>107.0</ele><time>2026-04-04T09:34:03.007Z</time></trkpt><trkpt lat="41.0299267" lon="14.4886083"><ele>107.0</ele><time>2026-04-04T09:34:04.007Z</time></trkpt><trkpt lat="41.0299" lon="14.48846"><ele>106.75</ele><time>2026-04-04T09:34:05.007Z</time></trkpt><trkpt lat="41.029875" lon="14.4883133"><ele>106.5</ele><time>2026-04-04T09:34:06.008Z</time></trkpt><trkpt lat="41.0298533" lon="14.4881633"><ele>106.25</ele><time>2026-04-04T09:34:07.008Z</time></trkpt><trkpt lat="41.0298333" lon="14.488015"><ele>106.0</ele><time>2026-04-04T09:34:08.009Z</time></trkpt><trkpt lat="41.0298117" lon="14.4878733"><ele>105.8</ele><time>2026-04-04T09:34:09.007Z</time></trkpt><trkpt lat="41.02979" lon="14.4877317"><ele>105.6</ele><time>2026-04-04T09:34:10.008Z</time></trkpt><trkpt lat="41.0297733" lon="14.48759"><ele>105.4</ele><time>2026-04-04T09:34:11.008Z</time></trkpt><trkpt lat="41.02976" lon="14.4874483"><ele>105.2</ele><time>2026-04-04T09:34:12.01Z</time></trkpt><trkpt lat="41.02975" lon="14.4873033"><ele>105.0</ele><time>2026-04-04T09:34:13.008Z</time></trkpt><trkpt lat="41.0297433" lon="14.48716"><ele>104.6</ele><time>2026-04-04T09:34:14.007Z</time></trkpt><trkpt lat="41.0297367" lon="14.4870133"><ele>104.2</ele><time>2026-04-04T09:34:15.007Z</time></trkpt><trkpt lat="41.0297317" lon="14.4868683"><ele>103.80000000000001</ele><time>2026-04-04T09:34:16.009Z</time></trkpt><trkpt lat="41.0297233" lon="14.4867233"><ele>103.4</ele><time>2026-04-04T09:34:17.007Z</time></trkpt><trkpt lat="41.0297117" lon="14.486585"><ele>103.0</ele><time>2026-04-04T09:34:18.007Z</time></trkpt><trkpt lat="41.0296967" lon="14.4864433"><ele>103.00000000000001</ele><time>2026-04-04T09:34:19.007Z</time></trkpt><trkpt lat="41.0296867" lon="14.486315"><ele>103.0</ele><time>2026-04-04T09:34:20.009Z</time></trkpt><trkpt lat="41.0296783" lon="14.4862"><ele>103.0</ele><time>2026-04-04T09:34:21.011Z</time></trkpt><trkpt lat="41.0296733" lon="14.4860867"><ele>103.0</ele><time>2026-04-04T09:34:22.006Z</time></trkpt><trkpt lat="41.029665" lon="14.485975"><ele>103.00000000000001</ele><time>2026-04-04T09:34:23.007Z</time></trkpt><trkpt lat="41.0296467" lon="14.48587"><ele>103.0</ele><time>2026-04-04T09:34:24.007Z</time></trkpt><trkpt lat="41.0296117" lon="14.4857667"><ele>103.0</ele><time>2026-04-04T09:34:25.008Z</time></trkpt><trkpt lat="41.0295717" lon="14.4856633"><ele>103.0</ele><time>2026-04-04T09:34:26.007Z</time></trkpt><trkpt lat="41.0295433" lon="14.4855483"><ele>103.0</ele><time>2026-04-04T09:34:27.007Z</time></trkpt><trkpt lat="41.0295267" lon="14.48543"><ele>103.0</ele><time>2026-04-04T09:34:28.01Z</time></trkpt><trkpt lat="41.029505" lon="14.4853083"><ele>103.0</ele><time>2026-04-04T09:34:29.009Z</time></trkpt><trkpt lat="41.029485" lon="14.48518"><ele>103.0</ele><time>2026-04-04T09:34:30.009Z</time></trkpt><trkpt lat="41.0294583" lon="14.485055"><ele>103.0</ele><time>2026-04-04T09:34:31.007Z</time></trkpt><trkpt lat="41.0294233" lon="14.4849283"><ele>103.0</ele><time>2026-04-04T09:34:32.009Z</time></trkpt><trkpt lat="41.0293783" lon="14.484805"><ele>103.0</ele><time>2026-04-04T09:34:33.01Z</time></trkpt><trkpt lat="41.0293333" lon="14.4846833"><ele>103.0</ele><time>2026-04-04T09:34:34.007Z</time></trkpt><trkpt lat="41.0292833" lon="14.4845683"><ele>103.0</ele><time>2026-04-04T09:34:35.007Z</time></trkpt><trkpt lat="41.0292383" lon="14.4844567"><ele>103.0</ele><time>2026-04-04T09:34:36.007Z</time></trkpt><trkpt lat="41.0292" lon="14.484345"><ele>103.0</ele><time>2026-04-04T09:34:37.008Z</time></trkpt><trkpt lat="41.0291633" lon="14.4842367"><ele>103.0</ele><time>2026-04-04T09:34:38.007Z</time></trkpt><trkpt lat="41.0291183" lon="14.4841317"><ele>103.0</ele><time>2026-04-04T09:34:39.007Z</time></trkpt><trkpt lat="41.0290667" lon="14.4840317"><ele>102.50000000000001</ele><time>2026-04-04T09:34:40.007Z</time></trkpt><trkpt lat="41.029015" lon="14.4839317"><ele>102.0</ele><time>2026-04-04T09:34:41.007Z</time></trkpt><trkpt lat="41.0289683" lon="14.4838267"><ele>101.5</ele><time>2026-04-04T09:34:42.007Z</time></trkpt><trkpt lat="41.02892" lon="14.483725"><ele>101.0</ele><time>2026-04-04T09:34:43.008Z</time></trkpt><trkpt lat="41.0288717" lon="14.4836317"><ele>100.50000000000001</ele><time>2026-04-04T09:34:44.007Z</time></trkpt><trkpt lat="41.028825" lon="14.4835333"><ele>100.0</ele><time>2026-04-04T09:34:45.007Z</time></trkpt><trkpt lat="41.02878" lon="14.4834317"><ele>100.0</ele><time>2026-04-04T09:34:46.007Z</time></trkpt><trkpt lat="41.0287333" lon="14.4833283"><ele>100.0</ele><time>2026-04-04T09:34:47.007Z</time></trkpt><trkpt lat="41.0286867" lon="14.4832233"><ele>100.0</ele><time>2026-04-04T09:34:48.007Z</time></trkpt><trkpt lat="41.0286333" lon="14.48312"><ele>100.0</ele><time>2026-04-04T09:34:49.007Z</time></trkpt><trkpt lat="41.0285833" lon="14.48302"><ele>100.0</ele><time>2026-04-04T09:34:50.007Z</time></trkpt><trkpt lat="41.0285367" lon="14.48292"><ele>99.66666666666667</ele><time>2026-04-04T09:34:51.007Z</time></trkpt><trkpt lat="41.0284883" lon="14.482825"><ele>99.33333333333334</ele><time>2026-04-04T09:34:52.007Z</time></trkpt><trkpt lat="41.0284433" lon="14.4827333"><ele>99.0</ele><time>2026-04-04T09:34:53.007Z</time></trkpt><trkpt lat="41.0283967" lon="14.4826533"><ele>98.66666666666666</ele><time>2026-04-04T09:34:54.007Z</time></trkpt><trkpt lat="41.0283517" lon="14.482565"><ele>98.33333333333333</ele><time>2026-04-04T09:34:55.008Z</time></trkpt><trkpt lat="41.0283067" lon="14.482475"><ele>98.0</ele><time>2026-04-04T09:34:56.008Z</time></trkpt><trkpt lat="41.0282617" lon="14.4823817"><ele>97.66666666666666</ele><time>2026-04-04T09:34:57.007Z</time></trkpt><trkpt lat="41.028215" lon="14.48229"><ele>97.33333333333333</ele><time>2026-04-04T09:34:58.006Z</time></trkpt><trkpt lat="41.0281667" lon="14.4821917"><ele>97.0</ele><time>2026-04-04T09:34:59.007Z</time></trkpt><trkpt lat="41.0281167" lon="14.4820933"><ele>96.66666666666666</ele><time>2026-04-04T09:35:00.007Z</time></trkpt><trkpt lat="41.0280683" lon="14.4819917"><ele>96.33333333333333</ele><time>2026-04-04T09:35:01.007Z</time></trkpt><trkpt lat="41.0280167" lon="14.4818917"><ele>96.0</ele><time>2026-04-04T09:35:02.007Z</time></trkpt><trkpt lat="41.027965" lon="14.4817933"><ele>95.66666666666667</ele><time>2026-04-04T09:35:03.007Z</time></trkpt><trkpt lat="41.027915" lon="14.4816967"><ele>95.33333333333333</ele><time>2026-04-04T09:35:04.008Z</time></trkpt><trkpt lat="41.0278683" lon="14.481595"><ele>95.0</ele><time>2026-04-04T09:35:05.008Z</time></trkpt><trkpt lat="41.02782" lon="14.4814917"><ele>94.66666666666666</ele><time>2026-04-04T09:35:06.009Z</time></trkpt><trkpt lat="41.0277717" lon="14.4813917"><ele>94.33333333333333</ele><time>2026-04-04T09:35:07.008Z</time></trkpt><trkpt lat="41.0277233" lon="14.4812933"><ele>94.0</ele><time>2026-04-04T09:35:08.007Z</time></trkpt><trkpt lat="41.027675" lon="14.4811917"><ele>93.83333333333333</ele><time>2026-04-04T09:35:09.01Z</time></trkpt><trkpt lat="41.0276267" lon="14.4810917"><ele>93.66666666666666</ele><time>2026-04-04T09:35:10.007Z</time></trkpt><trkpt lat="41.027575" lon="14.480995"><ele>93.5</ele><time>2026-04-04T09:35:11.007Z</time></trkpt><trkpt lat="41.0275283" lon="14.4809067"><ele>93.33333333333333</ele><time>2026-04-04T09:35:12.011Z</time></trkpt><trkpt lat="41.027485" lon="14.4808217"><ele>93.16666666666667</ele><time>2026-04-04T09:35:13.008Z</time></trkpt><trkpt lat="41.0274517" lon="14.4807483"><ele>93.0</ele><time>2026-04-04T09:35:14.007Z</time></trkpt><trkpt lat="41.027395" lon="14.4806367"><ele>92.5</ele><time>2026-04-04T09:35:16.007Z</time></trkpt><trkpt lat="41.0273617" lon="14.4805617"><ele>92.0</ele><time>2026-04-04T09:35:18.008Z</time></trkpt><trkpt lat="41.0273183" lon="14.480475"><ele>91.5</ele><time>2026-04-04T09:35:20.007Z</time></trkpt><trkpt lat="41.027275" lon="14.48037"><ele>91.0</ele><time>2026-04-04T09:35:22.009Z</time></trkpt><trkpt lat="41.0272133" lon="14.4802617"><ele>90.5</ele><time>2026-04-04T09:35:24.01Z</time></trkpt><trkpt lat="41.0271533" lon="14.4801383"><ele>90.0</ele><time>2026-04-04T09:35:26.008Z</time></trkpt><trkpt lat="41.0270833" lon="14.480005"><ele>90.0</ele><time>2026-04-04T09:35:28.007Z</time></trkpt><trkpt lat="41.0270417" lon="14.47994"><ele>90.0</ele><time>2026-04-04T09:35:29.009Z</time></trkpt><trkpt lat="41.0270033" lon="14.4798633"><ele>90.0</ele><time>2026-04-04T09:35:30.009Z</time></trkpt><trkpt lat="41.0269633" lon="14.4797867"><ele>90.0</ele><time>2026-04-04T09:35:31.007Z</time></trkpt><trkpt lat="41.0269217" lon="14.4797083"><ele>90.0</ele><time>2026-04-04T09:35:32.009Z</time></trkpt><trkpt lat="41.0268817" lon="14.4796283"><ele>90.0</ele><time>2026-04-04T09:35:33.008Z</time></trkpt><trkpt lat="41.02684" lon="14.4795483"><ele>90.0</ele><time>2026-04-04T09:35:34.009Z</time></trkpt><trkpt lat="41.0267967" lon="14.4794667"><ele>90.0</ele><time>2026-04-04T09:35:35.007Z</time></trkpt><trkpt lat="41.0267583" lon="14.47939"><ele>90.0</ele><time>2026-04-04T09:35:36.009Z</time></trkpt><trkpt lat="41.02672" lon="14.4793167"><ele>90.0</ele><time>2026-04-04T09:35:37.008Z</time></trkpt><trkpt lat="41.0266817" lon="14.4792467"><ele>90.0</ele><time>2026-04-04T09:35:38.009Z</time></trkpt><trkpt lat="41.026645" lon="14.4791783"><ele>90.0</ele><time>2026-04-04T09:35:39.007Z</time></trkpt><trkpt lat="41.0266133" lon="14.479105"><ele>90.0</ele><time>2026-04-04T09:35:40.007Z</time></trkpt><trkpt lat="41.026555" lon="14.4789717"><ele>90.0</ele><time>2026-04-04T09:35:42.008Z</time></trkpt><trkpt lat="41.0264867" lon="14.47885"><ele>88.25</ele><time>2026-04-04T09:35:44.007Z</time></trkpt><trkpt lat="41.0264217" lon="14.478725"><ele>86.5</ele><time>2026-04-04T09:35:46.007Z</time></trkpt><trkpt lat="41.026365" lon="14.4786"><ele>84.75</ele><time>2026-04-04T09:35:48.01Z</time></trkpt><trkpt lat="41.0263333" lon="14.47846"><ele>83.0</ele><time>2026-04-04T09:35:50.01Z</time></trkpt><trkpt lat="41.0263067" lon="14.47831"><ele>83.0</ele><time>2026-04-04T09:35:52.006Z</time></trkpt><trkpt lat="41.02628" lon="14.47817"><ele>83.0</ele><time>2026-04-04T09:35:54.011Z</time></trkpt><trkpt lat="41.02627" lon="14.4780433"><ele>83.0</ele><time>2026-04-04T09:35:56.063Z</time></trkpt><trkpt lat="41.0262567" lon="14.4779067"><ele>83.0</ele><time>2026-04-04T09:35:58.006Z</time></trkpt><trkpt lat="41.0262567" lon="14.4777783"><ele>83.0</ele><time>2026-04-04T09:36:00.007Z</time></trkpt><trkpt lat="41.0262533" lon="14.477665"><ele>83.2</ele><time>2026-04-04T09:36:02.01Z</time></trkpt><trkpt lat="41.0262467" lon="14.477535"><ele>83.4</ele><time>2026-04-04T09:36:04.006Z</time></trkpt><trkpt lat="41.0262417" lon="14.4773883"><ele>83.60000000000001</ele><time>2026-04-04T09:36:06.006Z</time></trkpt><trkpt lat="41.02625" lon="14.477235"><ele>83.80000000000001</ele><time>2026-04-04T09:36:08.006Z</time></trkpt><trkpt lat="41.0262517" lon="14.4770833"><ele>84.0</ele><time>2026-04-04T09:36:10.006Z</time></trkpt><trkpt lat="41.0262633" lon="14.4769283"><ele>84.25</ele><time>2026-04-04T09:36:12.006Z</time></trkpt><trkpt lat="41.0262567" lon="14.4767833"><ele>84.5</ele><time>2026-04-04T09:36:14.005Z</time></trkpt><trkpt lat="41.02625" lon="14.476625"><ele>84.75</ele><time>2026-04-04T09:36:16.006Z</time></trkpt><trkpt lat="41.026245" lon="14.4764683"><ele>85.0</ele><time>2026-04-04T09:36:18.006Z</time></trkpt><trkpt lat="41.0262367" lon="14.4763167"><ele>85.0</ele><time>2026-04-04T09:36:20.006Z</time></trkpt><trkpt lat="41.0262183" lon="14.4761883"><ele>85.0</ele><time>2026-04-04T09:36:22.006Z</time></trkpt><trkpt lat="41.02622" lon="14.4760383"><ele>85.0</ele><time>2026-04-04T09:36:24.005Z</time></trkpt><trkpt lat="41.0262267" lon="14.4759533"><ele>85.0</ele><time>2026-04-04T09:36:25.006Z</time></trkpt><trkpt lat="41.0262317" lon="14.4758617"><ele>85.0</ele><time>2026-04-04T09:36:26.005Z</time></trkpt><trkpt lat="41.0262317" lon="14.4757683"><ele>85.0</ele><time>2026-04-04T09:36:27.005Z</time></trkpt><trkpt lat="41.0262267" lon="14.475675"><ele>85.0</ele><time>2026-04-04T09:36:28.005Z</time></trkpt><trkpt lat="41.02623" lon="14.4755733"><ele>85.0</ele><time>2026-04-04T09:36:29.006Z</time></trkpt><trkpt lat="41.0262333" lon="14.47547"><ele>85.0</ele><time>2026-04-04T09:36:30.006Z</time></trkpt><trkpt lat="41.026235" lon="14.4753667"><ele>85.0</ele><time>2026-04-04T09:36:31.007Z</time></trkpt><trkpt lat="41.026235" lon="14.4752617"><ele>85.0</ele><time>2026-04-04T09:36:32.006Z</time></trkpt><trkpt lat="41.0262367" lon="14.47516"><ele>85.0</ele><time>2026-04-04T09:36:33.006Z</time></trkpt><trkpt lat="41.0262317" lon="14.4750633"><ele>84.83333333333333</ele><time>2026-04-04T09:36:34.006Z</time></trkpt><trkpt lat="41.0262233" lon="14.4749567"><ele>84.66666666666666</ele><time>2026-04-04T09:36:35.005Z</time></trkpt><trkpt lat="41.0262083" lon="14.4748483"><ele>84.5</ele><time>2026-04-04T09:36:36.006Z</time></trkpt><trkpt lat="41.0261933" lon="14.474735"><ele>84.33333333333333</ele><time>2026-04-04T09:36:37.005Z</time></trkpt><trkpt lat="41.0261717" lon="14.4746283"><ele>84.16666666666667</ele><time>2026-04-04T09:36:38.007Z</time></trkpt><trkpt lat="41.0261467" lon="14.4745167"><ele>84.0</ele><time>2026-04-04T09:36:39.006Z</time></trkpt><trkpt lat="41.0261183" lon="14.47441"><ele>84.0</ele><time>2026-04-04T09:36:40.006Z</time></trkpt><trkpt lat="41.0260917" lon="14.4743017"><ele>84.0</ele><time>2026-04-04T09:36:41.006Z</time></trkpt><trkpt lat="41.0260567" lon="14.4741917"><ele>84.0</ele><time>2026-04-04T09:36:42.006Z</time></trkpt><trkpt lat="41.02602" lon="14.4740833"><ele>84.0</ele><time>2026-04-04T09:36:43.006Z</time></trkpt><trkpt lat="41.0259817" lon="14.473975"><ele>84.0</ele><time>2026-04-04T09:36:44.006Z</time></trkpt><trkpt lat="41.02594" lon="14.47387"><ele>84.0</ele><time>2026-04-04T09:36:45.007Z</time></trkpt><trkpt lat="41.0259017" lon="14.473765"><ele>83.6</ele><time>2026-04-04T09:36:46.005Z</time></trkpt><trkpt lat="41.0258617" lon="14.4736583"><ele>83.2</ele><time>2026-04-04T09:36:47.005Z</time></trkpt><trkpt lat="41.0258183" lon="14.47355"><ele>82.8</ele><time>2026-04-04T09:36:48.006Z</time></trkpt><trkpt lat="41.0257717" lon="14.473435"><ele>82.39999999999999</ele><time>2026-04-04T09:36:49.006Z</time></trkpt><trkpt lat="41.0257233" lon="14.4733283"><ele>82.0</ele><time>2026-04-04T09:36:50.006Z</time></trkpt><trkpt lat="41.0256817" lon="14.4732183"><ele>81.83333333333333</ele><time>2026-04-04T09:36:51.006Z</time></trkpt><trkpt lat="41.0256433" lon="14.4731083"><ele>81.66666666666666</ele><time>2026-04-04T09:36:52.005Z</time></trkpt><trkpt lat="41.0256067" lon="14.473"><ele>81.5</ele><time>2026-04-04T09:36:53.005Z</time></trkpt><trkpt lat="41.0255717" lon="14.4728933"><ele>81.33333333333333</ele><time>2026-04-04T09:36:54.005Z</time></trkpt><trkpt lat="41.02553" lon="14.47279"><ele>81.16666666666667</ele><time>2026-04-04T09:36:55.006Z</time></trkpt><trkpt lat="41.0255017" lon="14.4726817"><ele>81.0</ele><time>2026-04-04T09:36:56.006Z</time></trkpt><trkpt lat="41.025475" lon="14.47257"><ele>80.83333333333333</ele><time>2026-04-04T09:36:57.006Z</time></trkpt><trkpt lat="41.0254283" lon="14.47246"><ele>80.66666666666667</ele><time>2026-04-04T09:36:58.006Z</time></trkpt><trkpt lat="41.0254083" lon="14.4723483"><ele>80.5</ele><time>2026-04-04T09:36:59.006Z</time></trkpt><trkpt lat="41.0253917" lon="14.4722367"><ele>80.33333333333334</ele><time>2026-04-04T09:37:00.006Z</time></trkpt><trkpt lat="41.02538" lon="14.4721283"><ele>80.16666666666667</ele><time>2026-04-04T09:37:01.006Z</time></trkpt><trkpt lat="41.0253683" lon="14.4720183"><ele>80.0</ele><time>2026-04-04T09:37:02.006Z</time></trkpt><trkpt lat="41.0253667" lon="14.4719067"><ele>79.83333333333334</ele><time>2026-04-04T09:37:03.007Z</time></trkpt><trkpt lat="41.0253667" lon="14.471795"><ele>79.66666666666667</ele><time>2026-04-04T09:37:04.006Z</time></trkpt><trkpt lat="41.0253717" lon="14.4716833"><ele>79.5</ele><time>2026-04-04T09:37:05.006Z</time></trkpt><trkpt lat="41.0253733" lon="14.4715733"><ele>79.33333333333333</ele><time>2026-04-04T09:37:06.005Z</time></trkpt><trkpt lat="41.025375" lon="14.471465"><ele>79.16666666666666</ele><time>2026-04-04T09:37:07.007Z</time></trkpt><trkpt lat="41.02538" lon="14.4713567"><ele>79.0</ele><time>2026-04-04T09:37:08.006Z</time></trkpt><trkpt lat="41.0253867" lon="14.4712433"><ele>79.0</ele><time>2026-04-04T09:37:09.006Z</time></trkpt><trkpt lat="41.02539" lon="14.4711317"><ele>79.0</ele><time>2026-04-04T09:37:10.007Z</time></trkpt><trkpt lat="41.0253967" lon="14.47102"><ele>79.0</ele><time>2026-04-04T09:37:11.005Z</time></trkpt><trkpt lat="41.0253983" lon="14.470905"><ele>79.0</ele><time>2026-04-04T09:37:12.006Z</time></trkpt><trkpt lat="41.0254017" lon="14.4707967"><ele>79.0</ele><time>2026-04-04T09:37:13.006Z</time></trkpt><trkpt lat="41.025405" lon="14.47069"><ele>79.0</ele><time>2026-04-04T09:37:14.005Z</time></trkpt><trkpt lat="41.0254117" lon="14.4705883"><ele>79.00000000000001</ele><time>2026-04-04T09:37:15.006Z</time></trkpt><trkpt lat="41.0254117" lon="14.4704917"><ele>79.0</ele><time>2026-04-04T09:37:16.005Z</time></trkpt><trkpt lat="41.0254133" lon="14.47039"><ele>79.0</ele><time>2026-04-04T09:37:17.005Z</time></trkpt><trkpt lat="41.0254133" lon="14.4702933"><ele>79.0</ele><time>2026-04-04T09:37:18.006Z</time></trkpt><trkpt lat="41.0254133" lon="14.4701983"><ele>79.0</ele><time>2026-04-04T09:37:19.005Z</time></trkpt><trkpt lat="41.0254117" lon="14.4701017"><ele>79.00000000000001</ele><time>2026-04-04T09:37:20.006Z</time></trkpt><trkpt lat="41.0254117" lon="14.470005"><ele>79.0</ele><time>2026-04-04T09:37:21.006Z</time></trkpt><trkpt lat="41.0254133" lon="14.4699067"><ele>78.83333333333333</ele><time>2026-04-04T09:37:22.005Z</time></trkpt><trkpt lat="41.0254133" lon="14.469805"><ele>78.66666666666666</ele><time>2026-04-04T09:37:23.005Z</time></trkpt><trkpt lat="41.0254167" lon="14.4697"><ele>78.5</ele><time>2026-04-04T09:37:24.006Z</time></trkpt><trkpt lat="41.025425" lon="14.4695867"><ele>78.33333333333333</ele><time>2026-04-04T09:37:25.005Z</time></trkpt><trkpt lat="41.02543" lon="14.4694683"><ele>78.16666666666667</ele><time>2026-04-04T09:37:26.007Z</time></trkpt><trkpt lat="41.0254367" lon="14.4693483"><ele>78.0</ele><time>2026-04-04T09:37:27.005Z</time></trkpt><trkpt lat="41.0254433" lon="14.469225"><ele>78.0</ele><time>2026-04-04T09:37:28.006Z</time></trkpt><trkpt lat="41.0254517" lon="14.4691"><ele>78.0</ele><time>2026-04-04T09:37:29.005Z</time></trkpt><trkpt lat="41.0254533" lon="14.468975"><ele>78.0</ele><time>2026-04-04T09:37:30.006Z</time></trkpt><trkpt lat="41.02547" lon="14.4688483"><ele>78.0</ele><time>2026-04-04T09:37:31.006Z</time></trkpt><trkpt lat="41.0254917" lon="14.4687133"><ele>78.0</ele><time>2026-04-04T09:37:32.006Z</time></trkpt><trkpt lat="41.025515" lon="14.468575"><ele>77.6</ele><time>2026-04-04T09:37:33.006Z</time></trkpt><trkpt lat="41.02554" lon="14.468435"><ele>77.19999999999999</ele><time>2026-04-04T09:37:34.006Z</time></trkpt><trkpt lat="41.0255667" lon="14.4682917"><ele>76.8</ele><time>2026-04-04T09:37:35.006Z</time></trkpt><trkpt lat="41.0255933" lon="14.468145"><ele>76.39999999999999</ele><time>2026-04-04T09:37:36.005Z</time></trkpt><trkpt lat="41.0256183" lon="14.468"><ele>76.0</ele><time>2026-04-04T09:37:37.005Z</time></trkpt><trkpt lat="41.0256483" lon="14.4678567"><ele>75.25</ele><time>2026-04-04T09:37:38.007Z</time></trkpt><trkpt lat="41.0256767" lon="14.4677133"><ele>74.5</ele><time>2026-04-04T09:37:39.005Z</time></trkpt><trkpt lat="41.0257067" lon="14.46756"><ele>73.75</ele><time>2026-04-04T09:37:40.006Z</time></trkpt><trkpt lat="41.0257383" lon="14.467405"><ele>73.0</ele><time>2026-04-04T09:37:41.006Z</time></trkpt><trkpt lat="41.0257633" lon="14.4672517"><ele>72.75</ele><time>2026-04-04T09:37:42.006Z</time></trkpt><trkpt lat="41.025795" lon="14.467095"><ele>72.5</ele><time>2026-04-04T09:37:43.006Z</time></trkpt><trkpt lat="41.02583" lon="14.466935"><ele>72.25</ele><time>2026-04-04T09:37:44.006Z</time></trkpt><trkpt lat="41.0258567" lon="14.4667833"><ele>72.0</ele><time>2026-04-04T09:37:45.006Z</time></trkpt><trkpt lat="41.025885" lon="14.466635"><ele>72.75</ele><time>2026-04-04T09:37:46.005Z</time></trkpt><trkpt lat="41.0259133" lon="14.4664833"><ele>73.5</ele><time>2026-04-04T09:37:47.008Z</time></trkpt><trkpt lat="41.0259317" lon="14.4663383"><ele>74.25</ele><time>2026-04-04T09:37:48.006Z</time></trkpt><trkpt lat="41.0259583" lon="14.466185"><ele>75.0</ele><time>2026-04-04T09:37:49.006Z</time></trkpt><trkpt lat="41.025975" lon="14.4660417"><ele>75.0</ele><time>2026-04-04T09:37:50.006Z</time></trkpt><trkpt lat="41.02599" lon="14.4658983"><ele>75.0</ele><time>2026-04-04T09:37:51.006Z</time></trkpt><trkpt lat="41.0260017" lon="14.4657583"><ele>75.0</ele><time>2026-04-04T09:37:52.005Z</time></trkpt><trkpt lat="41.026" lon="14.465625"><ele>75.0</ele><time>2026-04-04T09:37:53.005Z</time></trkpt><trkpt lat="41.026" lon="14.4654867"><ele>75.0</ele><time>2026-04-04T09:37:54.006Z</time></trkpt><trkpt lat="41.0259983" lon="14.465345"><ele>75.0</ele><time>2026-04-04T09:37:55.006Z</time></trkpt><trkpt lat="41.025995" lon="14.465205"><ele>75.0</ele><time>2026-04-04T09:37:56.006Z</time></trkpt><trkpt lat="41.0259933" lon="14.4650667"><ele>75.0</ele><time>2026-04-04T09:37:57.006Z</time></trkpt><trkpt lat="41.025995" lon="14.4649333"><ele>75.0</ele><time>2026-04-04T09:37:58.006Z</time></trkpt><trkpt lat="41.0259983" lon="14.4648083"><ele>75.0</ele><time>2026-04-04T09:37:59.006Z</time></trkpt><trkpt lat="41.0259983" lon="14.4646933"><ele>75.0</ele><time>2026-04-04T09:38:00.006Z</time></trkpt><trkpt lat="41.026" lon="14.46458"><ele>75.0</ele><time>2026-04-04T09:38:01.006Z</time></trkpt><trkpt lat="41.0260033" lon="14.4644717"><ele>75.0</ele><time>2026-04-04T09:38:02.006Z</time></trkpt><trkpt lat="41.0260067" lon="14.4643633"><ele>75.0</ele><time>2026-04-04T09:38:03.006Z</time></trkpt><trkpt lat="41.026005" lon="14.4642517"><ele>75.0</ele><time>2026-04-04T09:38:04.007Z</time></trkpt><trkpt lat="41.0260033" lon="14.46414"><ele>75.0</ele><time>2026-04-04T09:38:05.006Z</time></trkpt><trkpt lat="41.0260033" lon="14.4640233"><ele>75.0</ele><time>2026-04-04T09:38:06.006Z</time></trkpt><trkpt lat="41.0260033" lon="14.4639167"><ele>75.0</ele><time>2026-04-04T09:38:07.006Z</time></trkpt><trkpt lat="41.026" lon="14.4638067"><ele>75.0</ele><time>2026-04-04T09:38:08.007Z</time></trkpt><trkpt lat="41.0259983" lon="14.4636983"><ele>75.0</ele><time>2026-04-04T09:38:09.006Z</time></trkpt><trkpt lat="41.0259983" lon="14.4635867"><ele>75.0</ele><time>2026-04-04T09:38:10.005Z</time></trkpt><trkpt lat="41.0260017" lon="14.4634767"><ele>75.0</ele><time>2026-04-04T09:38:11.006Z</time></trkpt><trkpt lat="41.0259967" lon="14.46337"><ele>75.0</ele><time>2026-04-04T09:38:12.006Z</time></trkpt><trkpt lat="41.0259917" lon="14.4632617"><ele>75.0</ele><time>2026-04-04T09:38:13.005Z</time></trkpt><trkpt lat="41.0259867" lon="14.4631517"><ele>75.0</ele><time>2026-04-04T09:38:14.006Z</time></trkpt><trkpt lat="41.025985" lon="14.4630417"><ele>75.0</ele><time>2026-04-04T09:38:15.006Z</time></trkpt><trkpt lat="41.02598" lon="14.4629317"><ele>75.0</ele><time>2026-04-04T09:38:16.007Z</time></trkpt><trkpt lat="41.025975" lon="14.4628233"><ele>75.0</ele><time>2026-04-04T09:38:17.006Z</time></trkpt><trkpt lat="41.0259717" lon="14.46272"><ele>74.83333333333333</ele><time>2026-04-04T09:38:18.007Z</time></trkpt><trkpt lat="41.02597" lon="14.4626217"><ele>74.66666666666667</ele><time>2026-04-04T09:38:19.006Z</time></trkpt><trkpt lat="41.0259783" lon="14.4625267"><ele>74.5</ele><time>2026-04-04T09:38:20.006Z</time></trkpt><trkpt lat="41.025985" lon="14.4624267"><ele>74.33333333333334</ele><time>2026-04-04T09:38:21.005Z</time></trkpt><trkpt lat="41.0259867" lon="14.4623217"><ele>74.16666666666667</ele><time>2026-04-04T09:38:22.006Z</time></trkpt><trkpt lat="41.0259867" lon="14.46222"><ele>74.0</ele><time>2026-04-04T09:38:23.006Z</time></trkpt><trkpt lat="41.025985" lon="14.4621217"><ele>73.83333333333334</ele><time>2026-04-04T09:38:24.007Z</time></trkpt><trkpt lat="41.025985" lon="14.4620267"><ele>73.66666666666667</ele><time>2026-04-04T09:38:25.006Z</time></trkpt><trkpt lat="41.02598" lon="14.46193"><ele>73.5</ele><time>2026-04-04T09:38:26.006Z</time></trkpt><trkpt lat="41.0259733" lon="14.4618333"><ele>73.33333333333333</ele><time>2026-04-04T09:38:27.006Z</time></trkpt><trkpt lat="41.0259767" lon="14.4617283"><ele>73.16666666666666</ele><time>2026-04-04T09:38:28.006Z</time></trkpt><trkpt lat="41.02597" lon="14.4616167"><ele>73.0</ele><time>2026-04-04T09:38:29.007Z</time></trkpt><trkpt lat="41.025965" lon="14.4615017"><ele>73.0</ele><time>2026-04-04T09:38:30.006Z</time></trkpt><trkpt lat="41.025965" lon="14.4613883"><ele>73.0</ele><time>2026-04-04T09:38:31.006Z</time></trkpt><trkpt lat="41.025965" lon="14.461275"><ele>73.0</ele><time>2026-04-04T09:38:32.006Z</time></trkpt><trkpt lat="41.0259617" lon="14.4611567"><ele>73.0</ele><time>2026-04-04T09:38:33.008Z</time></trkpt><trkpt lat="41.02596" lon="14.4610333"><ele>73.0</ele><time>2026-04-04T09:38:34.006Z</time></trkpt><trkpt lat="41.0259617" lon="14.46091"><ele>73.0</ele><time>2026-04-04T09:38:35.006Z</time></trkpt><trkpt lat="41.0259633" lon="14.4607883"><ele>73.4</ele><time>2026-04-04T09:38:36.006Z</time></trkpt><trkpt lat="41.02596" lon="14.4606667"><ele>73.8</ele><time>2026-04-04T09:38:37.006Z</time></trkpt><trkpt lat="41.0259583" lon="14.460545"><ele>74.2</ele><time>2026-04-04T09:38:38.006Z</time></trkpt><trkpt lat="41.0259567" lon="14.46043"><ele>74.6</ele><time>2026-04-04T09:38:39.006Z</time></trkpt><trkpt lat="41.025955" lon="14.4603083"><ele>75.0</ele><time>2026-04-04T09:38:40.005Z</time></trkpt><trkpt lat="41.0259533" lon="14.460185"><ele>74.83333333333333</ele><time>2026-04-04T09:38:41.008Z</time></trkpt><trkpt lat="41.0259467" lon="14.46006"><ele>74.66666666666667</ele><time>2026-04-04T09:38:42.006Z</time></trkpt><trkpt lat="41.025945" lon="14.4599433"><ele>74.5</ele><time>2026-04-04T09:38:43.006Z</time></trkpt><trkpt lat="41.025945" lon="14.4598317"><ele>74.33333333333334</ele><time>2026-04-04T09:38:44.006Z</time></trkpt><trkpt lat="41.0259517" lon="14.45972"><ele>74.16666666666667</ele><time>2026-04-04T09:38:45.006Z</time></trkpt><trkpt lat="41.0259417" lon="14.4596117"><ele>74.0</ele><time>2026-04-04T09:38:46.005Z</time></trkpt><trkpt lat="41.0259333" lon="14.459505"><ele>74.0</ele><time>2026-04-04T09:38:47.007Z</time></trkpt><trkpt lat="41.0259233" lon="14.4593967"><ele>74.0</ele><time>2026-04-04T09:38:48.006Z</time></trkpt><trkpt lat="41.0259167" lon="14.45928"><ele>74.0</ele><time>2026-04-04T09:38:49.006Z</time></trkpt><trkpt lat="41.025905" lon="14.4591633"><ele>74.0</ele><time>2026-04-04T09:38:50.006Z</time></trkpt><trkpt lat="41.0258983" lon="14.4590483"><ele>74.0</ele><time>2026-04-04T09:38:51.006Z</time></trkpt><trkpt lat="41.0258933" lon="14.4589333"><ele>74.0</ele><time>2026-04-04T09:38:52.006Z</time></trkpt><trkpt lat="41.0258933" lon="14.4588183"><ele>73.33333333333334</ele><time>2026-04-04T09:38:53.005Z</time></trkpt><trkpt lat="41.0258917" lon="14.4587033"><ele>72.66666666666667</ele><time>2026-04-04T09:38:54.006Z</time></trkpt><trkpt lat="41.0258917" lon="14.4585867"><ele>72.0</ele><time>2026-04-04T09:38:55.007Z</time></trkpt><trkpt lat="41.0258917" lon="14.4584717"><ele>71.33333333333333</ele><time>2026-04-04T09:38:56.006Z</time></trkpt><trkpt lat="41.0258933" lon="14.4583517"><ele>70.66666666666666</ele><time>2026-04-04T09:38:57.005Z</time></trkpt><trkpt lat="41.0258917" lon="14.4582367"><ele>70.0</ele><time>2026-04-04T09:38:58.006Z</time></trkpt><trkpt lat="41.0258917" lon="14.4581217"><ele>70.0</ele><time>2026-04-04T09:38:59.006Z</time></trkpt><trkpt lat="41.0258883" lon="14.458005"><ele>70.0</ele><time>2026-04-04T09:39:00.008Z</time></trkpt><trkpt lat="41.0258817" lon="14.4578883"><ele>70.0</ele><time>2026-04-04T09:39:01.006Z</time></trkpt><trkpt lat="41.025875" lon="14.4577733"><ele>70.0</ele><time>2026-04-04T09:39:02.007Z</time></trkpt><trkpt lat="41.0258633" lon="14.4576617"><ele>70.0</ele><time>2026-04-04T09:39:03.006Z</time></trkpt><trkpt lat="41.0258417" lon="14.457555"><ele>70.0</ele><time>2026-04-04T09:39:04.006Z</time></trkpt><trkpt lat="41.0258233" lon="14.4574483"><ele>69.83333333333333</ele><time>2026-04-04T09:39:05.005Z</time></trkpt><trkpt lat="41.0258083" lon="14.4573367"><ele>69.66666666666666</ele><time>2026-04-04T09:39:06.006Z</time></trkpt><trkpt lat="41.0257933" lon="14.4572233"><ele>69.5</ele><time>2026-04-04T09:39:07.007Z</time></trkpt><trkpt lat="41.025785" lon="14.45711"><ele>69.33333333333333</ele><time>2026-04-04T09:39:08.006Z</time></trkpt><trkpt lat="41.0257767" lon="14.4569917"><ele>69.16666666666667</ele><time>2026-04-04T09:39:09.006Z</time></trkpt><trkpt lat="41.0257717" lon="14.4568717"><ele>69.0</ele><time>2026-04-04T09:39:10.007Z</time></trkpt><trkpt lat="41.0257667" lon="14.45675"><ele>68.60000000000001</ele><time>2026-04-04T09:39:11.005Z</time></trkpt><trkpt lat="41.0257617" lon="14.4566267"><ele>68.2</ele><time>2026-04-04T09:39:12.006Z</time></trkpt><trkpt lat="41.0257533" lon="14.4565017"><ele>67.80000000000001</ele><time>2026-04-04T09:39:13.006Z</time></trkpt><trkpt lat="41.0257433" lon="14.4563733"><ele>67.4</ele><time>2026-04-04T09:39:14.006Z</time></trkpt><trkpt lat="41.025735" lon="14.4562483"><ele>67.0</ele><time>2026-04-04T09:39:15.006Z</time></trkpt><trkpt lat="41.0257267" lon="14.4561267"><ele>67.0</ele><time>2026-04-04T09:39:16.006Z</time></trkpt><trkpt lat="41.02572" lon="14.4560033"><ele>67.0</ele><time>2026-04-04T09:39:17.007Z</time></trkpt><trkpt lat="41.0257117" lon="14.4558833"><ele>67.0</ele><time>2026-04-04T09:39:18.006Z</time></trkpt><trkpt lat="41.0257033" lon="14.4557667"><ele>67.0</ele><time>2026-04-04T09:39:19.006Z</time></trkpt><trkpt lat="41.0257" lon="14.4556433"><ele>67.0</ele><time>2026-04-04T09:39:20.005Z</time></trkpt><trkpt lat="41.0256967" lon="14.45552"><ele>67.0</ele><time>2026-04-04T09:39:21.005Z</time></trkpt><trkpt lat="41.0256917" lon="14.4553983"><ele>67.0</ele><time>2026-04-04T09:39:22.005Z</time></trkpt><trkpt lat="41.0256867" lon="14.45528"><ele>67.0</ele><time>2026-04-04T09:39:23.005Z</time></trkpt><trkpt lat="41.0256783" lon="14.4551617"><ele>67.0</ele><time>2026-04-04T09:39:24.007Z</time></trkpt><trkpt lat="41.0256717" lon="14.4550417"><ele>67.0</ele><time>2026-04-04T09:39:25.01Z</time></trkpt><trkpt lat="41.0256633" lon="14.4549233"><ele>67.0</ele><time>2026-04-04T09:39:26.006Z</time></trkpt><trkpt lat="41.0256533" lon="14.4548033"><ele>67.0</ele><time>2026-04-04T09:39:27.006Z</time></trkpt><trkpt lat="41.0256417" lon="14.4546817"><ele>67.0</ele><time>2026-04-04T09:39:28.005Z</time></trkpt><trkpt lat="41.0256333" lon="14.45456"><ele>67.0</ele><time>2026-04-04T09:39:29.005Z</time></trkpt><trkpt lat="41.0256283" lon="14.4544383"><ele>67.0</ele><time>2026-04-04T09:39:30.006Z</time></trkpt><trkpt lat="41.025625" lon="14.4543117"><ele>67.0</ele><time>2026-04-04T09:39:31.006Z</time></trkpt><trkpt lat="41.025625" lon="14.4541883"><ele>67.0</ele><time>2026-04-04T09:39:32.006Z</time></trkpt><trkpt lat="41.0256233" lon="14.4540683"><ele>67.0</ele><time>2026-04-04T09:39:33.006Z</time></trkpt><trkpt lat="41.0256183" lon="14.4539467"><ele>67.0</ele><time>2026-04-04T09:39:34.006Z</time></trkpt><trkpt lat="41.0256133" lon="14.4538233"><ele>67.0</ele><time>2026-04-04T09:39:35.006Z</time></trkpt><trkpt lat="41.025605" lon="14.4537"><ele>66.6</ele><time>2026-04-04T09:39:36.006Z</time></trkpt><trkpt lat="41.0256" lon="14.4535783"><ele>66.2</ele><time>2026-04-04T09:39:37.006Z</time></trkpt><trkpt lat="41.025595" lon="14.453455"><ele>65.8</ele><time>2026-04-04T09:39:38.006Z</time></trkpt><trkpt lat="41.0255917" lon="14.45333"><ele>65.4</ele><time>2026-04-04T09:39:39.006Z</time></trkpt><trkpt lat="41.02559" lon="14.4532067"><ele>65.0</ele><time>2026-04-04T09:39:40.007Z</time></trkpt><trkpt lat="41.0255833" lon="14.4530833"><ele>65.0</ele><time>2026-04-04T09:39:41.006Z</time></trkpt><trkpt lat="41.0255717" lon="14.4529567"><ele>65.0</ele><time>2026-04-04T09:39:42.006Z</time></trkpt><trkpt lat="41.025565" lon="14.4528317"><ele>65.0</ele><time>2026-04-04T09:39:43.006Z</time></trkpt><trkpt lat="41.0255583" lon="14.4527033"><ele>65.0</ele><time>2026-04-04T09:39:44.013Z</time></trkpt><trkpt lat="41.02555" lon="14.4525767"><ele>65.0</ele><time>2026-04-04T09:39:45.007Z</time></trkpt><trkpt lat="41.0255467" lon="14.4524483"><ele>65.2</ele><time>2026-04-04T09:39:46.007Z</time></trkpt><trkpt lat="41.0255417" lon="14.4523217"><ele>65.4</ele><time>2026-04-04T09:39:47.007Z</time></trkpt><trkpt lat="41.025535" lon="14.452195"><ele>65.6</ele><time>2026-04-04T09:39:48.008Z</time></trkpt><trkpt lat="41.025535" lon="14.4520717"><ele>65.8</ele><time>2026-04-04T09:39:49.007Z</time></trkpt><trkpt lat="41.025535" lon="14.451945"><ele>66.0</ele><time>2026-04-04T09:39:50.008Z</time></trkpt><trkpt lat="41.0255333" lon="14.4518217"><ele>66.0</ele><time>2026-04-04T09:39:51.007Z</time></trkpt><trkpt lat="41.02553" lon="14.4517017"><ele>66.0</ele><time>2026-04-04T09:39:52.007Z</time></trkpt><trkpt lat="41.0255267" lon="14.4515833"><ele>66.0</ele><time>2026-04-04T09:39:53.009Z</time></trkpt><trkpt lat="41.0255183" lon="14.4514683"><ele>66.0</ele><time>2026-04-04T09:39:54.007Z</time></trkpt><trkpt lat="41.02551" lon="14.4513533"><ele>66.0</ele><time>2026-04-04T09:39:55.006Z</time></trkpt><trkpt lat="41.0255" lon="14.4512417"><ele>66.0</ele><time>2026-04-04T09:39:56.006Z</time></trkpt><trkpt lat="41.0254917" lon="14.4511317"><ele>66.0</ele><time>2026-04-04T09:39:57.006Z</time></trkpt><trkpt lat="41.025485" lon="14.4510183"><ele>66.0</ele><time>2026-04-04T09:39:58.006Z</time></trkpt><trkpt lat="41.025475" lon="14.450905"><ele>66.0</ele><time>2026-04-04T09:39:59.006Z</time></trkpt><trkpt lat="41.02547" lon="14.4507883"><ele>66.0</ele><time>2026-04-04T09:40:00.006Z</time></trkpt><trkpt lat="41.0254667" lon="14.4506717"><ele>66.0</ele><time>2026-04-04T09:40:01.006Z</time></trkpt><trkpt lat="41.025465" lon="14.450555"><ele>66.0</ele><time>2026-04-04T09:40:02.006Z</time></trkpt><trkpt lat="41.0254667" lon="14.4504367"><ele>65.83333333333333</ele><time>2026-04-04T09:40:03.006Z</time></trkpt><trkpt lat="41.0254717" lon="14.45032"><ele>65.66666666666667</ele><time>2026-04-04T09:40:04.005Z</time></trkpt><trkpt lat="41.0254717" lon="14.4502017"><ele>65.5</ele><time>2026-04-04T09:40:05.006Z</time></trkpt><trkpt lat="41.0254683" lon="14.4500867"><ele>65.33333333333334</ele><time>2026-04-04T09:40:06.006Z</time></trkpt><trkpt lat="41.0254617" lon="14.4499683"><ele>65.16666666666667</ele><time>2026-04-04T09:40:07.006Z</time></trkpt><trkpt lat="41.0254483" lon="14.44985"><ele>65.0</ele><time>2026-04-04T09:40:08.006Z</time></trkpt><trkpt lat="41.0254367" lon="14.4497283"><ele>65.0</ele><time>2026-04-04T09:40:09.007Z</time></trkpt><trkpt lat="41.0254283" lon="14.449605"><ele>65.0</ele><time>2026-04-04T09:40:10.007Z</time></trkpt><trkpt lat="41.02542" lon="14.44948"><ele>65.0</ele><time>2026-04-04T09:40:11.006Z</time></trkpt><trkpt lat="41.0254117" lon="14.449355"><ele>65.0</ele><time>2026-04-04T09:40:12.006Z</time></trkpt><trkpt lat="41.0254017" lon="14.44923"><ele>65.0</ele><time>2026-04-04T09:40:13.007Z</time></trkpt><trkpt lat="41.025395" lon="14.449105"><ele>65.0</ele><time>2026-04-04T09:40:14.007Z</time></trkpt><trkpt lat="41.02539" lon="14.4489767"><ele>65.0</ele><time>2026-04-04T09:40:15.007Z</time></trkpt><trkpt lat="41.0253883" lon="14.4488467"><ele>65.0</ele><time>2026-04-04T09:40:16.006Z</time></trkpt><trkpt lat="41.0253883" lon="14.4487183"><ele>65.0</ele><time>2026-04-04T09:40:17.006Z</time></trkpt><trkpt lat="41.0253883" lon="14.4485883"><ele>65.0</ele><time>2026-04-04T09:40:18.007Z</time></trkpt><trkpt lat="41.0253883" lon="14.4484583"><ele>64.6</ele><time>2026-04-04T09:40:19.006Z</time></trkpt><trkpt lat="41.0253867" lon="14.4483267"><ele>64.2</ele><time>2026-04-04T09:40:20.006Z</time></trkpt><trkpt lat="41.0253833" lon="14.4481967"><ele>63.8</ele><time>2026-04-04T09:40:21.006Z</time></trkpt><trkpt lat="41.0253767" lon="14.448065"><ele>63.4</ele><time>2026-04-04T09:40:22.005Z</time></trkpt><trkpt lat="41.0253717" lon="14.447935"><ele>63.0</ele><time>2026-04-04T09:40:23.006Z</time></trkpt><trkpt lat="41.0253667" lon="14.4478033"><ele>63.0</ele><time>2026-04-04T09:40:24.006Z</time></trkpt><trkpt lat="41.0253583" lon="14.447675"><ele>63.0</ele><time>2026-04-04T09:40:25.008Z</time></trkpt><trkpt lat="41.0253517" lon="14.4475433"><ele>63.0</ele><time>2026-04-04T09:40:26.007Z</time></trkpt><trkpt lat="41.0253417" lon="14.447415"><ele>63.0</ele><time>2026-04-04T09:40:27.007Z</time></trkpt><trkpt lat="41.025335" lon="14.4472883"><ele>63.0</ele><time>2026-04-04T09:40:28.005Z</time></trkpt><trkpt lat="41.02533" lon="14.4471617"><ele>63.2</ele><time>2026-04-04T09:40:29.006Z</time></trkpt><trkpt lat="41.0253233" lon="14.4470333"><ele>63.4</ele><time>2026-04-04T09:40:30.006Z</time></trkpt><trkpt lat="41.0253183" lon="14.4469017"><ele>63.60000000000001</ele><time>2026-04-04T09:40:31.006Z</time></trkpt><trkpt lat="41.0253117" lon="14.4467733"><ele>63.800000000000004</ele><time>2026-04-04T09:40:32.007Z</time></trkpt><trkpt lat="41.025305" lon="14.446645"><ele>64.0</ele><time>2026-04-04T09:40:33.006Z</time></trkpt><trkpt lat="41.0252983" lon="14.4465183"><ele>64.0</ele><time>2026-04-04T09:40:34.006Z</time></trkpt><trkpt lat="41.025295" lon="14.4463917"><ele>64.0</ele><time>2026-04-04T09:40:35.006Z</time></trkpt><trkpt lat="41.0252883" lon="14.4462683"><ele>64.0</ele><time>2026-04-04T09:40:36.006Z</time></trkpt><trkpt lat="41.02528" lon="14.446145"><ele>64.0</ele><time>2026-04-04T09:40:37.006Z</time></trkpt><trkpt lat="41.0252733" lon="14.4460233"><ele>64.0</ele><time>2026-04-04T09:40:38.006Z</time></trkpt><trkpt lat="41.02527" lon="14.4459033"><ele>64.16666666666666</ele><time>2026-04-04T09:40:39.008Z</time></trkpt><trkpt lat="41.02527" lon="14.4457883"><ele>64.33333333333333</ele><time>2026-04-04T09:40:40.006Z</time></trkpt><trkpt lat="41.0252667" lon="14.44568"><ele>64.5</ele><time>2026-04-04T09:40:41.007Z</time></trkpt><trkpt lat="41.02526" lon="14.44558"><ele>64.66666666666667</ele><time>2026-04-04T09:40:42.006Z</time></trkpt><trkpt lat="41.0252533" lon="14.4454833"><ele>64.83333333333334</ele><time>2026-04-04T09:40:43.006Z</time></trkpt><trkpt lat="41.0252483" lon="14.4453883"><ele>65.0</ele><time>2026-04-04T09:40:44.007Z</time></trkpt><trkpt lat="41.02524" lon="14.4452983"><ele>65.0</ele><time>2026-04-04T09:40:45.006Z</time></trkpt><trkpt lat="41.0252317" lon="14.4452067"><ele>65.0</ele><time>2026-04-04T09:40:46.006Z</time></trkpt><trkpt lat="41.0252217" lon="14.4451233"><ele>65.0</ele><time>2026-04-04T09:40:47.005Z</time></trkpt><trkpt lat="41.0252" lon="14.4449733"><ele>65.0</ele><time>2026-04-04T09:40:49.006Z</time></trkpt><trkpt lat="41.0251883" lon="14.4448267"><ele>65.0</ele><time>2026-04-04T09:40:51.006Z</time></trkpt><trkpt lat="41.0251917" lon="14.4446933"><ele>65.25</ele><time>2026-04-04T09:40:53.007Z</time></trkpt><trkpt lat="41.0251917" lon="14.4445433"><ele>65.5</ele><time>2026-04-04T09:40:55.011Z</time></trkpt><trkpt lat="41.0251867" lon="14.4443833"><ele>65.75</ele><time>2026-04-04T09:40:57.006Z</time></trkpt><trkpt lat="41.02518" lon="14.4442133"><ele>66.0</ele><time>2026-04-04T09:40:59.007Z</time></trkpt><trkpt lat="41.025155" lon="14.44406"><ele>66.0</ele><time>2026-04-04T09:41:01.007Z</time></trkpt><trkpt lat="41.02513" lon="14.44392"><ele>66.0</ele><time>2026-04-04T09:41:03.007Z</time></trkpt><trkpt lat="41.0251267" lon="14.4437983"><ele>66.0</ele><time>2026-04-04T09:41:05.007Z</time></trkpt><trkpt lat="41.0251333" lon="14.4436767"><ele>66.0</ele><time>2026-04-04T09:41:07.006Z</time></trkpt><trkpt lat="41.0251367" lon="14.4435467"><ele>66.0</ele><time>2026-04-04T09:41:09.006Z</time></trkpt><trkpt lat="41.0251267" lon="14.4433933"><ele>65.66666666666667</ele><time>2026-04-04T09:41:11.009Z</time></trkpt><trkpt lat="41.0251167" lon="14.4432283"><ele>65.33333333333333</ele><time>2026-04-04T09:41:13.007Z</time></trkpt><trkpt lat="41.0251133" lon="14.4431417"><ele>65.0</ele><time>2026-04-04T09:41:14.006Z</time></trkpt><trkpt lat="41.0251067" lon="14.44305"><ele>64.66666666666666</ele><time>2026-04-04T09:41:15.006Z</time></trkpt><trkpt lat="41.025105" lon="14.4429517"><ele>64.33333333333333</ele><time>2026-04-04T09:41:16.006Z</time></trkpt><trkpt lat="41.0251" lon="14.4428533"><ele>64.0</ele><time>2026-04-04T09:41:17.006Z</time></trkpt><trkpt lat="41.0250933" lon="14.44275"><ele>63.83333333333333</ele><time>2026-04-04T09:41:18.005Z</time></trkpt><trkpt lat="41.0250917" lon="14.4426433"><ele>63.666666666666664</ele><time>2026-04-04T09:41:19.005Z</time></trkpt><trkpt lat="41.0250883" lon="14.442535"><ele>63.5</ele><time>2026-04-04T09:41:20.005Z</time></trkpt><trkpt lat="41.0250883" lon="14.442425"><ele>63.33333333333333</ele><time>2026-04-04T09:41:21.005Z</time></trkpt><trkpt lat="41.0250867" lon="14.442315"><ele>63.166666666666664</ele><time>2026-04-04T09:41:22.005Z</time></trkpt><trkpt lat="41.0250817" lon="14.442205"><ele>63.0</ele><time>2026-04-04T09:41:23.005Z</time></trkpt><trkpt lat="41.0250767" lon="14.4420967"><ele>63.0</ele><time>2026-04-04T09:41:24.005Z</time></trkpt><trkpt lat="41.0250733" lon="14.4419917"><ele>63.0</ele><time>2026-04-04T09:41:25.006Z</time></trkpt><trkpt lat="41.0250683" lon="14.4418867"><ele>63.0</ele><time>2026-04-04T09:41:26.005Z</time></trkpt><trkpt lat="41.0250617" lon="14.44178"><ele>63.0</ele><time>2026-04-04T09:41:27.006Z</time></trkpt><trkpt lat="41.0250567" lon="14.4416767"><ele>63.0</ele><time>2026-04-04T09:41:28.007Z</time></trkpt><trkpt lat="41.02505" lon="14.441575"><ele>63.0</ele><time>2026-04-04T09:41:29.007Z</time></trkpt><trkpt lat="41.0250433" lon="14.441475"><ele>63.0</ele><time>2026-04-04T09:41:30.006Z</time></trkpt><trkpt lat="41.025035" lon="14.44138"><ele>63.0</ele><time>2026-04-04T09:41:31.005Z</time></trkpt><trkpt lat="41.02503" lon="14.44129"><ele>63.0</ele><time>2026-04-04T09:41:32.005Z</time></trkpt><trkpt lat="41.0250233" lon="14.4412"><ele>63.0</ele><time>2026-04-04T09:41:33.005Z</time></trkpt><trkpt lat="41.0250183" lon="14.4411083"><ele>63.0</ele><time>2026-04-04T09:41:34.005Z</time></trkpt><trkpt lat="41.025015" lon="14.44102"><ele>63.0</ele><time>2026-04-04T09:41:35.007Z</time></trkpt><trkpt lat="41.0250117" lon="14.4409333"><ele>63.0</ele><time>2026-04-04T09:41:36.006Z</time></trkpt><trkpt lat="41.0250067" lon="14.440845"><ele>63.0</ele><time>2026-04-04T09:41:37.005Z</time></trkpt><trkpt lat="41.025" lon="14.4407517"><ele>63.0</ele><time>2026-04-04T09:41:38.006Z</time></trkpt><trkpt lat="41.024995" lon="14.4406567"><ele>63.0</ele><time>2026-04-04T09:41:39.005Z</time></trkpt><trkpt lat="41.0249933" lon="14.4405617"><ele>63.0</ele><time>2026-04-04T09:41:40.006Z</time></trkpt><trkpt lat="41.0249883" lon="14.4404667"><ele>63.0</ele><time>2026-04-04T09:41:41.005Z</time></trkpt><trkpt lat="41.0249867" lon="14.4403683"><ele>63.0</ele><time>2026-04-04T09:41:42.005Z</time></trkpt><trkpt lat="41.024985" lon="14.44027"><ele>63.0</ele><time>2026-04-04T09:41:43.01Z</time></trkpt><trkpt lat="41.0249817" lon="14.440165"><ele>62.666666666666664</ele><time>2026-04-04T09:41:44.005Z</time></trkpt><trkpt lat="41.0249783" lon="14.440055"><ele>62.33333333333333</ele><time>2026-04-04T09:41:45.005Z</time></trkpt><trkpt lat="41.024975" lon="14.4399483"><ele>62.0</ele><time>2026-04-04T09:41:46.006Z</time></trkpt><trkpt lat="41.02497" lon="14.4398417"><ele>61.666666666666664</ele><time>2026-04-04T09:41:47.005Z</time></trkpt><trkpt lat="41.0249633" lon="14.4397317"><ele>61.33333333333333</ele><time>2026-04-04T09:41:48.005Z</time></trkpt><trkpt lat="41.0249583" lon="14.439625"><ele>61.0</ele><time>2026-04-04T09:41:49.006Z</time></trkpt><trkpt lat="41.02495" lon="14.4395183"><ele>60.99999999999999</ele><time>2026-04-04T09:41:50.005Z</time></trkpt><trkpt lat="41.0249417" lon="14.4394117"><ele>61.0</ele><time>2026-04-04T09:41:51.005Z</time></trkpt><trkpt lat="41.024935" lon="14.439305"><ele>61.0</ele><time>2026-04-04T09:41:52.006Z</time></trkpt><trkpt lat="41.02493" lon="14.4392017"><ele>61.0</ele><time>2026-04-04T09:41:53.005Z</time></trkpt><trkpt lat="41.024925" lon="14.4390983"><ele>60.99999999999999</ele><time>2026-04-04T09:41:54.006Z</time></trkpt><trkpt lat="41.0249167" lon="14.4389967"><ele>61.0</ele><time>2026-04-04T09:41:55.005Z</time></trkpt><trkpt lat="41.0249083" lon="14.4388967"><ele>60.666666666666664</ele><time>2026-04-04T09:41:56.005Z</time></trkpt><trkpt lat="41.0249033" lon="14.4387917"><ele>60.33333333333333</ele><time>2026-04-04T09:41:57.005Z</time></trkpt><trkpt lat="41.0248967" lon="14.4386867"><ele>60.0</ele><time>2026-04-04T09:41:58.006Z</time></trkpt><trkpt lat="41.0248933" lon="14.4385817"><ele>59.66666666666667</ele><time>2026-04-04T09:41:59.005Z</time></trkpt><trkpt lat="41.0248917" lon="14.43848"><ele>59.333333333333336</ele><time>2026-04-04T09:42:00.005Z</time></trkpt><trkpt lat="41.02489" lon="14.4383767"><ele>59.0</ele><time>2026-04-04T09:42:01.005Z</time></trkpt><trkpt lat="41.0248883" lon="14.438275"><ele>59.00000000000001</ele><time>2026-04-04T09:42:02.005Z</time></trkpt><trkpt lat="41.024885" lon="14.4381683"><ele>59.0</ele><time>2026-04-04T09:42:03.006Z</time></trkpt><trkpt lat="41.0248783" lon="14.4380633"><ele>59.0</ele><time>2026-04-04T09:42:04.005Z</time></trkpt><trkpt lat="41.02487" lon="14.4379583"><ele>59.0</ele><time>2026-04-04T09:42:05.006Z</time></trkpt><trkpt lat="41.024865" lon="14.4378533"><ele>59.00000000000001</ele><time>2026-04-04T09:42:06.007Z</time></trkpt><trkpt lat="41.0248583" lon="14.4377483"><ele>59.0</ele><time>2026-04-04T09:42:07.005Z</time></trkpt><trkpt lat="41.0248517" lon="14.43764"><ele>59.00000000000001</ele><time>2026-04-04T09:42:08.006Z</time></trkpt><trkpt lat="41.024845" lon="14.437535"><ele>59.0</ele><time>2026-04-04T09:42:09.005Z</time></trkpt><trkpt lat="41.02484" lon="14.43743"><ele>59.0</ele><time>2026-04-04T09:42:10.006Z</time></trkpt><trkpt lat="41.024835" lon="14.4373267"><ele>59.0</ele><time>2026-04-04T09:42:11.005Z</time></trkpt><trkpt lat="41.0248267" lon="14.4372167"><ele>59.00000000000001</ele><time>2026-04-04T09:42:12.005Z</time></trkpt><trkpt lat="41.0248183" lon="14.4371067"><ele>59.0</ele><time>2026-04-04T09:42:13.005Z</time></trkpt><trkpt lat="41.02481" lon="14.437"><ele>59.333333333333336</ele><time>2026-04-04T09:42:14.006Z</time></trkpt><trkpt lat="41.0248033" lon="14.4368967"><ele>59.66666666666667</ele><time>2026-04-04T09:42:15.007Z</time></trkpt><trkpt lat="41.0247983" lon="14.4367917"><ele>60.0</ele><time>2026-04-04T09:42:16.006Z</time></trkpt><trkpt lat="41.024795" lon="14.436685"><ele>60.33333333333333</ele><time>2026-04-04T09:42:17.005Z</time></trkpt><trkpt lat="41.0247917" lon="14.4365783"><ele>60.666666666666664</ele><time>2026-04-04T09:42:18.006Z</time></trkpt><trkpt lat="41.0247883" lon="14.4364717"><ele>61.0</ele><time>2026-04-04T09:42:19.006Z</time></trkpt><trkpt lat="41.024785" lon="14.43637"><ele>60.99999999999999</ele><time>2026-04-04T09:42:20.005Z</time></trkpt><trkpt lat="41.02478" lon="14.4362683"><ele>61.0</ele><time>2026-04-04T09:42:21.005Z</time></trkpt><trkpt lat="41.0247733" lon="14.4361683"><ele>60.99999999999999</ele><time>2026-04-04T09:42:22.007Z</time></trkpt><trkpt lat="41.0247683" lon="14.4360717"><ele>60.99999999999999</ele><time>2026-04-04T09:42:23.005Z</time></trkpt><trkpt lat="41.024765" lon="14.43598"><ele>61.0</ele><time>2026-04-04T09:42:24.007Z</time></trkpt><trkpt lat="41.0247633" lon="14.43589"><ele>60.99999999999999</ele><time>2026-04-04T09:42:25.008Z</time></trkpt><trkpt lat="41.02476" lon="14.4358033"><ele>60.99999999999999</ele><time>2026-04-04T09:42:26.005Z</time></trkpt><trkpt lat="41.0247567" lon="14.4357167"><ele>60.99999999999999</ele><time>2026-04-04T09:42:27.007Z</time></trkpt><trkpt lat="41.024755" lon="14.4356267"><ele>61.0</ele><time>2026-04-04T09:42:28.006Z</time></trkpt><trkpt lat="41.0247517" lon="14.4355317"><ele>60.99999999999999</ele><time>2026-04-04T09:42:29.005Z</time></trkpt><trkpt lat="41.024745" lon="14.4354333"><ele>60.99999999999999</ele><time>2026-04-04T09:42:30.007Z</time></trkpt><trkpt lat="41.0247383" lon="14.4353317"><ele>61.0</ele><time>2026-04-04T09:42:31.006Z</time></trkpt><trkpt lat="41.02473" lon="14.4352283"><ele>60.99999999999999</ele><time>2026-04-04T09:42:32.005Z</time></trkpt><trkpt lat="41.0247233" lon="14.4351233"><ele>60.99999999999999</ele><time>2026-04-04T09:42:33.006Z</time></trkpt><trkpt lat="41.0247133" lon="14.4350133"><ele>60.83333333333333</ele><time>2026-04-04T09:42:34.006Z</time></trkpt><trkpt lat="41.0247067" lon="14.4349017"><ele>60.666666666666664</ele><time>2026-04-04T09:42:35.009Z</time></trkpt><trkpt lat="41.0247033" lon="14.434785"><ele>60.5</ele><time>2026-04-04T09:42:36.006Z</time></trkpt><trkpt lat="41.0246983" lon="14.4346683"><ele>60.33333333333333</ele><time>2026-04-04T09:42:37.005Z</time></trkpt><trkpt lat="41.024695" lon="14.4345483"><ele>60.166666666666664</ele><time>2026-04-04T09:42:38.005Z</time></trkpt><trkpt lat="41.0246917" lon="14.43444"><ele>60.0</ele><time>2026-04-04T09:42:39.005Z</time></trkpt><trkpt lat="41.0246867" lon="14.4343367"><ele>59.85714285714286</ele><time>2026-04-04T09:42:40.005Z</time></trkpt><trkpt lat="41.0246817" lon="14.4342333"><ele>59.71428571428571</ele><time>2026-04-04T09:42:41.005Z</time></trkpt><trkpt lat="41.024675" lon="14.4341367"><ele>59.57142857142857</ele><time>2026-04-04T09:42:42.006Z</time></trkpt><trkpt lat="41.0246717" lon="14.434045"><ele>59.42857142857143</ele><time>2026-04-04T09:42:43.006Z</time></trkpt><trkpt lat="41.0246667" lon="14.4339517"><ele>59.28571428571429</ele><time>2026-04-04T09:42:44.007Z</time></trkpt><trkpt lat="41.02466" lon="14.4338567"><ele>59.14285714285714</ele><time>2026-04-04T09:42:45.005Z</time></trkpt><trkpt lat="41.024655" lon="14.4337583"><ele>59.0</ele><time>2026-04-04T09:42:46.005Z</time></trkpt><trkpt lat="41.0246483" lon="14.4336567"><ele>58.833333333333336</ele><time>2026-04-04T09:42:47.006Z</time></trkpt><trkpt lat="41.0246417" lon="14.4335567"><ele>58.66666666666667</ele><time>2026-04-04T09:42:48.005Z</time></trkpt><trkpt lat="41.0246367" lon="14.4334533"><ele>58.5</ele><time>2026-04-04T09:42:49.005Z</time></trkpt><trkpt lat="41.0246317" lon="14.4333483"><ele>58.33333333333333</ele><time>2026-04-04T09:42:50.006Z</time></trkpt><trkpt lat="41.024625" lon="14.433245"><ele>58.166666666666664</ele><time>2026-04-04T09:42:51.005Z</time></trkpt><trkpt lat="41.0246217" lon="14.4331383"><ele>58.0</ele><time>2026-04-04T09:42:52.005Z</time></trkpt><trkpt lat="41.024615" lon="14.4330367"><ele>58.33333333333333</ele><time>2026-04-04T09:42:53.006Z</time></trkpt><trkpt lat="41.02461" lon="14.4329333"><ele>58.666666666666664</ele><time>2026-04-04T09:42:54.005Z</time></trkpt><trkpt lat="41.0246033" lon="14.43283"><ele>59.0</ele><time>2026-04-04T09:42:55.005Z</time></trkpt><trkpt lat="41.0245983" lon="14.432725"><ele>59.33333333333333</ele><time>2026-04-04T09:42:56.006Z</time></trkpt><trkpt lat="41.024585" lon="14.4326217"><ele>59.666666666666664</ele><time>2026-04-04T09:42:57.006Z</time></trkpt><trkpt lat="41.024575" lon="14.432515"><ele>60.0</ele><time>2026-04-04T09:42:58.005Z</time></trkpt><trkpt lat="41.0245733" lon="14.4324067"><ele>60.0</ele><time>2026-04-04T09:42:59.005Z</time></trkpt><trkpt lat="41.0245733" lon="14.4323"><ele>60.0</ele><time>2026-04-04T09:43:00.008Z</time></trkpt><trkpt lat="41.0245717" lon="14.4321933"><ele>60.0</ele><time>2026-04-04T09:43:01.006Z</time></trkpt><trkpt lat="41.02457" lon="14.4320833"><ele>60.0</ele><time>2026-04-04T09:43:02.005Z</time></trkpt><trkpt lat="41.0245683" lon="14.4319733"><ele>60.0</ele><time>2026-04-04T09:43:03.006Z</time></trkpt><trkpt lat="41.024565" lon="14.43186"><ele>60.0</ele><time>2026-04-04T09:43:04.005Z</time></trkpt><trkpt lat="41.0245617" lon="14.431755"><ele>60.0</ele><time>2026-04-04T09:43:05.006Z</time></trkpt><trkpt lat="41.0245583" lon="14.4316567"><ele>60.0</ele><time>2026-04-04T09:43:06.005Z</time></trkpt><trkpt lat="41.0245533" lon="14.4315617"><ele>60.0</ele><time>2026-04-04T09:43:07.006Z</time></trkpt><trkpt lat="41.0245517" lon="14.43147"><ele>60.0</ele><time>2026-04-04T09:43:08.006Z</time></trkpt><trkpt lat="41.024545" lon="14.4313017"><ele>60.0</ele><time>2026-04-04T09:43:10.007Z</time></trkpt><trkpt lat="41.024545" lon="14.4312117"><ele>60.0</ele><time>2026-04-04T09:43:11.006Z</time></trkpt><trkpt lat="41.0245433" lon="14.4311183"><ele>59.833333333333336</ele><time>2026-04-04T09:43:12.007Z</time></trkpt><trkpt lat="41.024545" lon="14.43102"><ele>59.66666666666667</ele><time>2026-04-04T09:43:13.005Z</time></trkpt><trkpt lat="41.02455" lon="14.4309217"><ele>59.5</ele><time>2026-04-04T09:43:14.006Z</time></trkpt><trkpt lat="41.0245567" lon="14.4308217"><ele>59.333333333333336</ele><time>2026-04-04T09:43:15.005Z</time></trkpt><trkpt lat="41.0245633" lon="14.43072"><ele>59.16666666666667</ele><time>2026-04-04T09:43:16.005Z</time></trkpt><trkpt lat="41.024575" lon="14.43062"><ele>59.0</ele><time>2026-04-04T09:43:17.005Z</time></trkpt><trkpt lat="41.02459" lon="14.430525"><ele>58.66666666666667</ele><time>2026-04-04T09:43:18.007Z</time></trkpt><trkpt lat="41.0246033" lon="14.4304317"><ele>58.333333333333336</ele><time>2026-04-04T09:43:19.005Z</time></trkpt><trkpt lat="41.0246167" lon="14.4303317"><ele>58.0</ele><time>2026-04-04T09:43:20.006Z</time></trkpt><trkpt lat="41.024625" lon="14.4302233"><ele>57.66666666666667</ele><time>2026-04-04T09:43:21.005Z</time></trkpt><trkpt lat="41.0246333" lon="14.43012"><ele>57.333333333333336</ele><time>2026-04-04T09:43:22.005Z</time></trkpt><trkpt lat="41.0246433" lon="14.430015"><ele>57.0</ele><time>2026-04-04T09:43:23.006Z</time></trkpt><trkpt lat="41.02466" lon="14.4299217"><ele>57.0</ele><time>2026-04-04T09:43:24.005Z</time></trkpt><trkpt lat="41.024675" lon="14.4298333"><ele>56.99999999999999</ele><time>2026-04-04T09:43:25.005Z</time></trkpt><trkpt lat="41.0246917" lon="14.4297417"><ele>57.0</ele><time>2026-04-04T09:43:26.007Z</time></trkpt><trkpt lat="41.0247067" lon="14.42965"><ele>57.0</ele><time>2026-04-04T09:43:27.006Z</time></trkpt><trkpt lat="41.0247233" lon="14.4295483"><ele>56.99999999999999</ele><time>2026-04-04T09:43:28.006Z</time></trkpt><trkpt lat="41.0247383" lon="14.4294467"><ele>57.0</ele><time>2026-04-04T09:43:29.006Z</time></trkpt><trkpt lat="41.0247517" lon="14.42934"><ele>57.0</ele><time>2026-04-04T09:43:30.006Z</time></trkpt><trkpt lat="41.0247667" lon="14.4292333"><ele>57.5</ele><time>2026-04-04T09:43:31.006Z</time></trkpt><trkpt lat="41.02478" lon="14.4291283"><ele>58.0</ele><time>2026-04-04T09:43:32.006Z</time></trkpt><trkpt lat="41.024795" lon="14.4290283"><ele>58.5</ele><time>2026-04-04T09:43:33.005Z</time></trkpt><trkpt lat="41.02481" lon="14.4289283"><ele>59.0</ele><time>2026-04-04T09:43:34.008Z</time></trkpt><trkpt lat="41.0248217" lon="14.4288283"><ele>59.5</ele><time>2026-04-04T09:43:35.006Z</time></trkpt><trkpt lat="41.024835" lon="14.4287317"><ele>60.0</ele><time>2026-04-04T09:43:36.005Z</time></trkpt><trkpt lat="41.0248483" lon="14.4286317"><ele>60.0</ele><time>2026-04-04T09:43:37.005Z</time></trkpt><trkpt lat="41.0248633" lon="14.4285317"><ele>60.0</ele><time>2026-04-04T09:43:38.006Z</time></trkpt><trkpt lat="41.0248767" lon="14.4284283"><ele>60.0</ele><time>2026-04-04T09:43:39.006Z</time></trkpt><trkpt lat="41.0248933" lon="14.4283317"><ele>60.0</ele><time>2026-04-04T09:43:40.005Z</time></trkpt><trkpt lat="41.0249117" lon="14.42824"><ele>60.0</ele><time>2026-04-04T09:43:41.006Z</time></trkpt><trkpt lat="41.0249283" lon="14.4281517"><ele>60.0</ele><time>2026-04-04T09:43:42.005Z</time></trkpt><trkpt lat="41.0249433" lon="14.4280683"><ele>60.0</ele><time>2026-04-04T09:43:43.006Z</time></trkpt><trkpt lat="41.0249583" lon="14.4279833"><ele>59.714285714285715</ele><time>2026-04-04T09:43:44.006Z</time></trkpt><trkpt lat="41.0249717" lon="14.4278967"><ele>59.42857142857143</ele><time>2026-04-04T09:43:45.006Z</time></trkpt><trkpt lat="41.024985" lon="14.42781"><ele>59.142857142857146</ele><time>2026-04-04T09:43:46.006Z</time></trkpt><trkpt lat="41.0249883" lon="14.427725"><ele>58.85714285714286</ele><time>2026-04-04T09:43:47.006Z</time></trkpt><trkpt lat="41.0249967" lon="14.427635"><ele>58.57142857142857</ele><time>2026-04-04T09:43:48.006Z</time></trkpt><trkpt lat="41.0250083" lon="14.4275383"><ele>58.28571428571429</ele><time>2026-04-04T09:43:49.006Z</time></trkpt><trkpt lat="41.0250233" lon="14.42744"><ele>58.00000000000001</ele><time>2026-04-04T09:43:50.005Z</time></trkpt><trkpt lat="41.0250367" lon="14.4273383"><ele>57.99999999999999</ele><time>2026-04-04T09:43:51.005Z</time></trkpt><trkpt lat="41.025055" lon="14.42723"><ele>58.0</ele><time>2026-04-04T09:43:52.005Z</time></trkpt><trkpt lat="41.0250717" lon="14.4271183"><ele>58.0</ele><time>2026-04-04T09:43:53.006Z</time></trkpt><trkpt lat="41.025085" lon="14.4270067"><ele>58.0</ele><time>2026-04-04T09:43:54.005Z</time></trkpt><trkpt lat="41.0251033" lon="14.4268933"><ele>57.99999999999999</ele><time>2026-04-04T09:43:55.006Z</time></trkpt><trkpt lat="41.0251267" lon="14.42678"><ele>58.0</ele><time>2026-04-04T09:43:56.005Z</time></trkpt><trkpt lat="41.0251483" lon="14.4266667"><ele>57.599999999999994</ele><time>2026-04-04T09:43:57.005Z</time></trkpt><trkpt lat="41.02517" lon="14.4265483"><ele>57.199999999999996</ele><time>2026-04-04T09:43:58.005Z</time></trkpt><trkpt lat="41.0251867" lon="14.4264283"><ele>56.8</ele><time>2026-04-04T09:43:59.006Z</time></trkpt><trkpt lat="41.0252017" lon="14.4263083"><ele>56.4</ele><time>2026-04-04T09:44:00.006Z</time></trkpt><trkpt lat="41.02522" lon="14.426185"><ele>56.0</ele><time>2026-04-04T09:44:01.007Z</time></trkpt><trkpt lat="41.0252367" lon="14.4260617"><ele>55.8</ele><time>2026-04-04T09:44:02.007Z</time></trkpt><trkpt lat="41.0252483" lon="14.4259383"><ele>55.599999999999994</ele><time>2026-04-04T09:44:03.006Z</time></trkpt><trkpt lat="41.02527" lon="14.4258117"><ele>55.4</ele><time>2026-04-04T09:44:04.006Z</time></trkpt><trkpt lat="41.025295" lon="14.4256833"><ele>55.2</ele><time>2026-04-04T09:44:05.006Z</time></trkpt><trkpt lat="41.0253183" lon="14.4255533"><ele>55.0</ele><time>2026-04-04T09:44:06.006Z</time></trkpt><trkpt lat="41.0253367" lon="14.4254233"><ele>55.0</ele><time>2026-04-04T09:44:07.005Z</time></trkpt><trkpt lat="41.025355" lon="14.4252967"><ele>55.0</ele><time>2026-04-04T09:44:08.006Z</time></trkpt><trkpt lat="41.0253717" lon="14.42517"><ele>55.0</ele><time>2026-04-04T09:44:09.006Z</time></trkpt><trkpt lat="41.0253917" lon="14.4250433"><ele>55.0</ele><time>2026-04-04T09:44:10.006Z</time></trkpt><trkpt lat="41.0254083" lon="14.424915"><ele>55.0</ele><time>2026-04-04T09:44:11.007Z</time></trkpt><trkpt lat="41.0254267" lon="14.4247883"><ele>55.0</ele><time>2026-04-04T09:44:12.008Z</time></trkpt><trkpt lat="41.025445" lon="14.42466"><ele>55.0</ele><time>2026-04-04T09:44:13.006Z</time></trkpt><trkpt lat="41.025465" lon="14.4245317"><ele>55.0</ele><time>2026-04-04T09:44:14.006Z</time></trkpt><trkpt lat="41.0254883" lon="14.4244"><ele>55.0</ele><time>2026-04-04T09:44:15.006Z</time></trkpt><trkpt lat="41.0255083" lon="14.4242683"><ele>55.0</ele><time>2026-04-04T09:44:16.008Z</time></trkpt><trkpt lat="41.0255267" lon="14.4241383"><ele>54.8</ele><time>2026-04-04T09:44:17.006Z</time></trkpt><trkpt lat="41.025545" lon="14.4240083"><ele>54.6</ele><time>2026-04-04T09:44:18.006Z</time></trkpt><trkpt lat="41.0255633" lon="14.4238783"><ele>54.400000000000006</ele><time>2026-04-04T09:44:19.006Z</time></trkpt><trkpt lat="41.0255783" lon="14.4237533"><ele>54.2</ele><time>2026-04-04T09:44:20.006Z</time></trkpt><trkpt lat="41.025595" lon="14.423625"><ele>54.0</ele><time>2026-04-04T09:44:21.006Z</time></trkpt><trkpt lat="41.0256133" lon="14.4234983"><ele>53.800000000000004</ele><time>2026-04-04T09:44:22.006Z</time></trkpt><trkpt lat="41.0256333" lon="14.4233733"><ele>53.60000000000001</ele><time>2026-04-04T09:44:23.007Z</time></trkpt><trkpt lat="41.0256533" lon="14.4232483"><ele>53.4</ele><time>2026-04-04T09:44:24.006Z</time></trkpt><trkpt lat="41.0256717" lon="14.4231233"><ele>53.2</ele><time>2026-04-04T09:44:25.006Z</time></trkpt><trkpt lat="41.0256917" lon="14.4229933"><ele>53.0</ele><time>2026-04-04T09:44:26.006Z</time></trkpt><trkpt lat="41.025715" lon="14.4228617"><ele>53.0</ele><time>2026-04-04T09:44:27.006Z</time></trkpt><trkpt lat="41.0257367" lon="14.42273"><ele>53.0</ele><time>2026-04-04T09:44:28.005Z</time></trkpt><trkpt lat="41.0257583" lon="14.4225983"><ele>53.0</ele><time>2026-04-04T09:44:29.006Z</time></trkpt><trkpt lat="41.0257783" lon="14.4224667"><ele>53.0</ele><time>2026-04-04T09:44:30.006Z</time></trkpt><trkpt lat="41.0257983" lon="14.4223333"><ele>53.0</ele><time>2026-04-04T09:44:31.006Z</time></trkpt><trkpt lat="41.0258167" lon="14.4222033"><ele>53.0</ele><time>2026-04-04T09:44:32.006Z</time></trkpt><trkpt lat="41.0258333" lon="14.4220717"><ele>53.0</ele><time>2026-04-04T09:44:33.006Z</time></trkpt><trkpt lat="41.0258533" lon="14.4219433"><ele>53.0</ele><time>2026-04-04T09:44:34.005Z</time></trkpt><trkpt lat="41.02588" lon="14.421815"><ele>53.0</ele><time>2026-04-04T09:44:35.007Z</time></trkpt><trkpt lat="41.0259017" lon="14.4216883"><ele>53.0</ele><time>2026-04-04T09:44:36.006Z</time></trkpt><trkpt lat="41.0259183" lon="14.4215633"><ele>53.0</ele><time>2026-04-04T09:44:37.007Z</time></trkpt><trkpt lat="41.02593" lon="14.4214417"><ele>53.0</ele><time>2026-04-04T09:44:38.006Z</time></trkpt><trkpt lat="41.0259417" lon="14.42132"><ele>53.0</ele><time>2026-04-04T09:44:39.006Z</time></trkpt><trkpt lat="41.0259583" lon="14.4212"><ele>53.0</ele><time>2026-04-04T09:44:40.007Z</time></trkpt><trkpt lat="41.0259767" lon="14.4210767"><ele>53.0</ele><time>2026-04-04T09:44:41.006Z</time></trkpt><trkpt lat="41.0259933" lon="14.420955"><ele>53.0</ele><time>2026-04-04T09:44:42.007Z</time></trkpt><trkpt lat="41.02601" lon="14.42083"><ele>53.0</ele><time>2026-04-04T09:44:43.007Z</time></trkpt><trkpt lat="41.0260267" lon="14.4207017"><ele>53.0</ele><time>2026-04-04T09:44:44.006Z</time></trkpt><trkpt lat="41.026045" lon="14.4205733"><ele>53.0</ele><time>2026-04-04T09:44:45.006Z</time></trkpt><trkpt lat="41.0260667" lon="14.4204417"><ele>53.0</ele><time>2026-04-04T09:44:46.006Z</time></trkpt><trkpt lat="41.0260883" lon="14.42031"><ele>52.599999999999994</ele><time>2026-04-04T09:44:47.006Z</time></trkpt><trkpt lat="41.0261083" lon="14.4201783"><ele>52.199999999999996</ele><time>2026-04-04T09:44:48.006Z</time></trkpt><trkpt lat="41.0261267" lon="14.4200467"><ele>51.8</ele><time>2026-04-04T09:44:49.006Z</time></trkpt><trkpt lat="41.0261433" lon="14.4199133"><ele>51.4</ele><time>2026-04-04T09:44:50.006Z</time></trkpt><trkpt lat="41.02616" lon="14.4197817"><ele>51.0</ele><time>2026-04-04T09:44:51.007Z</time></trkpt><trkpt lat="41.0261767" lon="14.4196483"><ele>51.0</ele><time>2026-04-04T09:44:52.007Z</time></trkpt><trkpt lat="41.026195" lon="14.4195133"><ele>51.0</ele><time>2026-04-04T09:44:53.008Z</time></trkpt><trkpt lat="41.0262167" lon="14.4193817"><ele>51.0</ele><time>2026-04-04T09:44:54.008Z</time></trkpt><trkpt lat="41.026235" lon="14.41925"><ele>51.0</ele><time>2026-04-04T09:44:55.011Z</time></trkpt><trkpt lat="41.0262533" lon="14.4191133"><ele>51.0</ele><time>2026-04-04T09:44:56.007Z</time></trkpt><trkpt lat="41.0262717" lon="14.418975"><ele>51.0</ele><time>2026-04-04T09:44:57.007Z</time></trkpt><trkpt lat="41.0262917" lon="14.4188383"><ele>51.0</ele><time>2026-04-04T09:44:58.007Z</time></trkpt><trkpt lat="41.0263117" lon="14.4187017"><ele>51.0</ele><time>2026-04-04T09:44:59.009Z</time></trkpt><trkpt lat="41.0263317" lon="14.4185683"><ele>51.0</ele><time>2026-04-04T09:45:00.008Z</time></trkpt><trkpt lat="41.02635" lon="14.4184383"><ele>51.0</ele><time>2026-04-04T09:45:01.007Z</time></trkpt><trkpt lat="41.0263667" lon="14.4183117"><ele>50.4</ele><time>2026-04-04T09:45:02.007Z</time></trkpt><trkpt lat="41.026385" lon="14.4181817"><ele>49.8</ele><time>2026-04-04T09:45:03.007Z</time></trkpt><trkpt lat="41.0264017" lon="14.4180533"><ele>49.199999999999996</ele><time>2026-04-04T09:45:04.008Z</time></trkpt><trkpt lat="41.02642" lon="14.4179283"><ele>48.599999999999994</ele><time>2026-04-04T09:45:05.009Z</time></trkpt><trkpt lat="41.0264383" lon="14.417805"><ele>48.0</ele><time>2026-04-04T09:45:06.008Z</time></trkpt><trkpt lat="41.0264567" lon="14.417685"><ele>48.0</ele><time>2026-04-04T09:45:07.007Z</time></trkpt><trkpt lat="41.0264717" lon="14.4175717"><ele>48.0</ele><time>2026-04-04T09:45:08.008Z</time></trkpt><trkpt lat="41.0264867" lon="14.417455"><ele>48.0</ele><time>2026-04-04T09:45:09.011Z</time></trkpt><trkpt lat="41.0265017" lon="14.4173433"><ele>48.0</ele><time>2026-04-04T09:45:10.007Z</time></trkpt><trkpt lat="41.026515" lon="14.417235"><ele>48.0</ele><time>2026-04-04T09:45:11.008Z</time></trkpt><trkpt lat="41.0265283" lon="14.4171283"><ele>48.0</ele><time>2026-04-04T09:45:12.006Z</time></trkpt><trkpt lat="41.0265417" lon="14.4170233"><ele>48.0</ele><time>2026-04-04T09:45:13.006Z</time></trkpt><trkpt lat="41.0265567" lon="14.41692"><ele>48.0</ele><time>2026-04-04T09:45:14.01Z</time></trkpt><trkpt lat="41.026575" lon="14.4168167"><ele>48.0</ele><time>2026-04-04T09:45:15.007Z</time></trkpt><trkpt lat="41.0265933" lon="14.416715"><ele>48.0</ele><time>2026-04-04T09:45:16.006Z</time></trkpt><trkpt lat="41.0266117" lon="14.416615"><ele>48.0</ele><time>2026-04-04T09:45:17.006Z</time></trkpt><trkpt lat="41.026625" lon="14.4165183"><ele>48.0</ele><time>2026-04-04T09:45:18.006Z</time></trkpt><trkpt lat="41.0266367" lon="14.4164217"><ele>48.0</ele><time>2026-04-04T09:45:19.006Z</time></trkpt><trkpt lat="41.0266517" lon="14.4163267"><ele>48.0</ele><time>2026-04-04T09:45:20.006Z</time></trkpt><trkpt lat="41.0266683" lon="14.4162367"><ele>48.0</ele><time>2026-04-04T09:45:21.006Z</time></trkpt><trkpt lat="41.0266833" lon="14.416145"><ele>48.0</ele><time>2026-04-04T09:45:22.006Z</time></trkpt><trkpt lat="41.0267" lon="14.4160583"><ele>48.0</ele><time>2026-04-04T09:45:23.008Z</time></trkpt><trkpt lat="41.0267333" lon="14.4159233"><ele>48.0</ele><time>2026-04-04T09:45:25.006Z</time></trkpt><trkpt lat="41.026755" lon="14.415835"><ele>48.0</ele><time>2026-04-04T09:45:50.007Z</time></trkpt><trkpt lat="41.0267717" lon="14.4157317"><ele>48.0</ele><time>2026-04-04T09:45:54.007Z</time></trkpt><trkpt lat="41.0267917" lon="14.4156183"><ele>48.0</ele><time>2026-04-04T09:45:57.007Z</time></trkpt><trkpt lat="41.0268083" lon="14.4155183"><ele>48.0</ele><time>2026-04-04T09:45:59.006Z</time></trkpt><trkpt lat="41.0268267" lon="14.41539"><ele>48.0</ele><time>2026-04-04T09:46:01.007Z</time></trkpt><trkpt lat="41.0268467" lon="14.4152433"><ele>48.2</ele><time>2026-04-04T09:46:03.006Z</time></trkpt><trkpt lat="41.0268617" lon="14.41509"><ele>48.4</ele><time>2026-04-04T09:46:05.006Z</time></trkpt><trkpt lat="41.02688" lon="14.4149267"><ele>48.6</ele><time>2026-04-04T09:46:07.006Z</time></trkpt><trkpt lat="41.0268983" lon="14.4147617"><ele>48.800000000000004</ele><time>2026-04-04T09:46:09.006Z</time></trkpt><trkpt lat="41.0269067" lon="14.4146783"><ele>49.0</ele><time>2026-04-04T09:46:10.007Z</time></trkpt><trkpt lat="41.0269183" lon="14.414595"><ele>49.0</ele><time>2026-04-04T09:46:11.006Z</time></trkpt><trkpt lat="41.02693" lon="14.41451"><ele>49.0</ele><time>2026-04-04T09:46:12.006Z</time></trkpt><trkpt lat="41.0269433" lon="14.4144217"><ele>49.0</ele><time>2026-04-04T09:46:13.006Z</time></trkpt><trkpt lat="41.0269583" lon="14.414335"><ele>49.0</ele><time>2026-04-04T09:46:14.006Z</time></trkpt><trkpt lat="41.02697" lon="14.4142467"><ele>49.0</ele><time>2026-04-04T09:46:15.008Z</time></trkpt><trkpt lat="41.0269833" lon="14.41416"><ele>49.0</ele><time>2026-04-04T09:46:16.006Z</time></trkpt><trkpt lat="41.026995" lon="14.414075"><ele>49.0</ele><time>2026-04-04T09:46:17.008Z</time></trkpt><trkpt lat="41.0270033" lon="14.4139917"><ele>48.99999999999999</ele><time>2026-04-04T09:46:18.007Z</time></trkpt><trkpt lat="41.0270133" lon="14.4139083"><ele>49.0</ele><time>2026-04-04T09:46:19.006Z</time></trkpt><trkpt lat="41.0270383" lon="14.413745"><ele>49.0</ele><time>2026-04-04T09:46:21.006Z</time></trkpt><trkpt lat="41.0270533" lon="14.41366"><ele>49.0</ele><time>2026-04-04T09:46:22.006Z</time></trkpt><trkpt lat="41.0270683" lon="14.4135733"><ele>48.99999999999999</ele><time>2026-04-04T09:46:23.007Z</time></trkpt><trkpt lat="41.02708" lon="14.4134867"><ele>49.0</ele><time>2026-04-04T09:46:24.006Z</time></trkpt><trkpt lat="41.0270917" lon="14.4133983"><ele>48.714285714285715</ele><time>2026-04-04T09:46:25.006Z</time></trkpt><trkpt lat="41.027105" lon="14.4133133"><ele>48.42857142857143</ele><time>2026-04-04T09:46:26.006Z</time></trkpt><trkpt lat="41.0271167" lon="14.4132283"><ele>48.14285714285714</ele><time>2026-04-04T09:46:27.006Z</time></trkpt><trkpt lat="41.02713" lon="14.413145"><ele>47.85714285714286</ele><time>2026-04-04T09:46:28.008Z</time></trkpt><trkpt lat="41.027145" lon="14.41306"><ele>47.57142857142857</ele><time>2026-04-04T09:46:29.007Z</time></trkpt><trkpt lat="41.027165" lon="14.4129733"><ele>47.285714285714285</ele><time>2026-04-04T09:46:30.007Z</time></trkpt><trkpt lat="41.0271833" lon="14.412885"><ele>47.0</ele><time>2026-04-04T09:46:31.006Z</time></trkpt><trkpt lat="41.0272" lon="14.4127983"><ele>47.0</ele><time>2026-04-04T09:46:32.007Z</time></trkpt><trkpt lat="41.0272133" lon="14.4127133"><ele>47.0</ele><time>2026-04-04T09:46:33.009Z</time></trkpt><trkpt lat="41.0272233" lon="14.4126283"><ele>47.0</ele><time>2026-04-04T09:46:34.006Z</time></trkpt><trkpt lat="41.027235" lon="14.412545"><ele>47.0</ele><time>2026-04-04T09:46:35.006Z</time></trkpt><trkpt lat="41.02726" lon="14.412385"><ele>47.0</ele><time>2026-04-04T09:46:37.006Z</time></trkpt><trkpt lat="41.0272833" lon="14.4122267"><ele>47.0</ele><time>2026-04-04T09:46:39.007Z</time></trkpt><trkpt lat="41.02731" lon="14.41207"><ele>47.0</ele><time>2026-04-04T09:46:41.006Z</time></trkpt><trkpt lat="41.0273367" lon="14.4119083"><ele>47.0</ele><time>2026-04-04T09:46:43.006Z</time></trkpt><trkpt lat="41.02735" lon="14.4118267"><ele>47.0</ele><time>2026-04-04T09:46:44.007Z</time></trkpt><trkpt lat="41.02737" lon="14.4116633"><ele>47.0</ele><time>2026-04-04T09:46:46.006Z</time></trkpt><trkpt lat="41.02739" lon="14.4114983"><ele>47.0</ele><time>2026-04-04T09:46:48.007Z</time></trkpt><trkpt lat="41.0274017" lon="14.4114133"><ele>47.0</ele><time>2026-04-04T09:46:49.006Z</time></trkpt><trkpt lat="41.0274133" lon="14.41133"><ele>47.0</ele><time>2026-04-04T09:46:50.008Z</time></trkpt><trkpt lat="41.0274267" lon="14.4112483"><ele>47.0</ele><time>2026-04-04T09:46:51.008Z</time></trkpt><trkpt lat="41.02744" lon="14.4111667"><ele>47.0</ele><time>2026-04-04T09:46:52.007Z</time></trkpt><trkpt lat="41.0274617" lon="14.4110033"><ele>47.0</ele><time>2026-04-04T09:46:54.007Z</time></trkpt><trkpt lat="41.0274767" lon="14.4108417"><ele>47.0</ele><time>2026-04-04T09:46:56.008Z</time></trkpt><trkpt lat="41.0275083" lon="14.4106817"><ele>47.0</ele><time>2026-04-04T09:46:58.006Z</time></trkpt><trkpt lat="41.0275217" lon="14.4106"><ele>47.0</ele><time>2026-04-04T09:46:59.006Z</time></trkpt><trkpt lat="41.027545" lon="14.4104367"><ele>47.0</ele><time>2026-04-04T09:47:01.008Z</time></trkpt><trkpt lat="41.027565" lon="14.41027"><ele>47.0</ele><time>2026-04-04T09:47:03.009Z</time></trkpt><trkpt lat="41.0275883" lon="14.4101083"><ele>47.0</ele><time>2026-04-04T09:47:05.008Z</time></trkpt><trkpt lat="41.0276083" lon="14.4099483"><ele>47.25</ele><time>2026-04-04T09:47:07.007Z</time></trkpt><trkpt lat="41.02763" lon="14.409785"><ele>47.5</ele><time>2026-04-04T09:47:09.007Z</time></trkpt><trkpt lat="41.027655" lon="14.40963"><ele>47.75</ele><time>2026-04-04T09:47:11.008Z</time></trkpt><trkpt lat="41.0276817" lon="14.40948"><ele>48.0</ele><time>2026-04-04T09:47:13.008Z</time></trkpt><trkpt lat="41.0277117" lon="14.4093267"><ele>48.75</ele><time>2026-04-04T09:47:15.006Z</time></trkpt><trkpt lat="41.0277367" lon="14.4091767"><ele>49.5</ele><time>2026-04-04T09:47:17.006Z</time></trkpt><trkpt lat="41.0277617" lon="14.409025"><ele>50.25</ele><time>2026-04-04T09:47:19.007Z</time></trkpt><trkpt lat="41.0277833" lon="14.40887"><ele>51.0</ele><time>2026-04-04T09:47:21.008Z</time></trkpt><trkpt lat="41.0278133" lon="14.4087133"><ele>51.0</ele><time>2026-04-04T09:47:23.006Z</time></trkpt><trkpt lat="41.02785" lon="14.4085533"><ele>51.0</ele><time>2026-04-04T09:47:25.008Z</time></trkpt><trkpt lat="41.02788" lon="14.4083967"><ele>51.0</ele><time>2026-04-04T09:47:27.007Z</time></trkpt><trkpt lat="41.0279183" lon="14.40825"><ele>51.0</ele><time>2026-04-04T09:47:29.009Z</time></trkpt><trkpt lat="41.0279567" lon="14.408105"><ele>51.0</ele><time>2026-04-04T09:47:31.007Z</time></trkpt><trkpt lat="41.0279983" lon="14.40796"><ele>51.0</ele><time>2026-04-04T09:47:33.007Z</time></trkpt><trkpt lat="41.0280417" lon="14.407825"><ele>51.0</ele><time>2026-04-04T09:47:35.006Z</time></trkpt><trkpt lat="41.0280917" lon="14.4076933"><ele>51.0</ele><time>2026-04-04T09:47:37.006Z</time></trkpt><trkpt lat="41.02814" lon="14.4075617"><ele>51.0</ele><time>2026-04-04T09:47:39.007Z</time></trkpt><trkpt lat="41.0281833" lon="14.407435"><ele>51.0</ele><time>2026-04-04T09:47:41.007Z</time></trkpt><trkpt lat="41.0282367" lon="14.407305"><ele>51.0</ele><time>2026-04-04T09:47:43.006Z</time></trkpt><trkpt lat="41.0282883" lon="14.4071733"><ele>51.0</ele><time>2026-04-04T09:47:45.008Z</time></trkpt><trkpt lat="41.028335" lon="14.4070417"><ele>51.0</ele><time>2026-04-04T09:47:47.007Z</time></trkpt><trkpt lat="41.0283833" lon="14.40691"><ele>51.0</ele><time>2026-04-04T09:47:49.01Z</time></trkpt><trkpt lat="41.028425" lon="14.406785"><ele>51.8</ele><time>2026-04-04T09:47:51.007Z</time></trkpt><trkpt lat="41.0284717" lon="14.406655"><ele>52.599999999999994</ele><time>2026-04-04T09:47:53.009Z</time></trkpt><trkpt lat="41.0285083" lon="14.406535"><ele>53.4</ele><time>2026-04-04T09:47:55.007Z</time></trkpt><trkpt lat="41.0285567" lon="14.40641"><ele>54.2</ele><time>2026-04-04T09:47:57.011Z</time></trkpt><trkpt lat="41.0285983" lon="14.4062867"><ele>55.0</ele><time>2026-04-04T09:47:59.009Z</time></trkpt><trkpt lat="41.0286383" lon="14.4061683"><ele>54.99999999999999</ele><time>2026-04-04T09:48:01.011Z</time></trkpt><trkpt lat="41.028675" lon="14.4060583"><ele>55.0</ele><time>2026-04-04T09:48:03.009Z</time></trkpt><trkpt lat="41.0287117" lon="14.4059633"><ele>55.0</ele><time>2026-04-04T09:48:05.011Z</time></trkpt><trkpt lat="41.0287433" lon="14.4058767"><ele>55.0</ele><time>2026-04-04T09:48:07.009Z</time></trkpt><trkpt lat="41.0287717" lon="14.405795"><ele>55.0</ele><time>2026-04-04T09:48:09.011Z</time></trkpt><trkpt lat="41.0288" lon="14.405715"><ele>54.99999999999999</ele><time>2026-04-04T09:48:11.01Z</time></trkpt><trkpt lat="41.0288217" lon="14.405635"><ele>55.0</ele><time>2026-04-04T09:48:13.012Z</time></trkpt><trkpt lat="41.02885" lon="14.405555"><ele>55.14285714285714</ele><time>2026-04-04T09:48:15.01Z</time></trkpt><trkpt lat="41.0288783" lon="14.4054783"><ele>55.285714285714285</ele><time>2026-04-04T09:48:17.01Z</time></trkpt><trkpt lat="41.0289067" lon="14.4053983"><ele>55.42857142857143</ele><time>2026-04-04T09:48:19.009Z</time></trkpt><trkpt lat="41.0289333" lon="14.4053183"><ele>55.57142857142857</ele><time>2026-04-04T09:48:21.01Z</time></trkpt><trkpt lat="41.0289617" lon="14.4052383"><ele>55.714285714285715</ele><time>2026-04-04T09:48:23.01Z</time></trkpt><trkpt lat="41.0289917" lon="14.405155"><ele>55.857142857142854</ele><time>2026-04-04T09:48:25.011Z</time></trkpt><trkpt lat="41.02902" lon="14.405065"><ele>56.0</ele><time>2026-04-04T09:48:27.01Z</time></trkpt><trkpt lat="41.0290467" lon="14.4049783"><ele>56.00000000000001</ele><time>2026-04-04T09:48:29.009Z</time></trkpt><trkpt lat="41.0290867" lon="14.4048767"><ele>56.0</ele><time>2026-04-04T09:48:31.01Z</time></trkpt><trkpt lat="41.029125" lon="14.4047767"><ele>56.0</ele><time>2026-04-04T09:48:33.01Z</time></trkpt><trkpt lat="41.0291583" lon="14.404675"><ele>56.0</ele><time>2026-04-04T09:48:35.01Z</time></trkpt><trkpt lat="41.0292017" lon="14.4045667"><ele>56.00000000000001</ele><time>2026-04-04T09:48:37.009Z</time></trkpt><trkpt lat="41.0292483" lon="14.404455"><ele>56.0</ele><time>2026-04-04T09:48:39.01Z</time></trkpt><trkpt lat="41.02929" lon="14.4043417"><ele>56.199999999999996</ele><time>2026-04-04T09:48:41.01Z</time></trkpt><trkpt lat="41.0293333" lon="14.404235"><ele>56.39999999999999</ele><time>2026-04-04T09:48:43.01Z</time></trkpt><trkpt lat="41.0293717" lon="14.4041233"><ele>56.6</ele><time>2026-04-04T09:48:45.008Z</time></trkpt><trkpt lat="41.0294083" lon="14.40401"><ele>56.8</ele><time>2026-04-04T09:48:47.009Z</time></trkpt><trkpt lat="41.0294483" lon="14.4038933"><ele>57.0</ele><time>2026-04-04T09:48:49.006Z</time></trkpt><trkpt lat="41.0294883" lon="14.40377"><ele>57.400000000000006</ele><time>2026-04-04T09:48:51.007Z</time></trkpt><trkpt lat="41.0295283" lon="14.4036467"><ele>57.800000000000004</ele><time>2026-04-04T09:48:53.007Z</time></trkpt><trkpt lat="41.029575" lon="14.4035167"><ele>58.2</ele><time>2026-04-04T09:48:55.01Z</time></trkpt><trkpt lat="41.0296217" lon="14.4033833"><ele>58.6</ele><time>2026-04-04T09:48:57.01Z</time></trkpt><trkpt lat="41.029665" lon="14.40325"><ele>59.0</ele><time>2026-04-04T09:48:59.011Z</time></trkpt><trkpt lat="41.0297183" lon="14.403115"><ele>59.00000000000001</ele><time>2026-04-04T09:49:01.01Z</time></trkpt><trkpt lat="41.029765" lon="14.402965"><ele>59.0</ele><time>2026-04-04T09:49:03.01Z</time></trkpt><trkpt lat="41.0297933" lon="14.40289"><ele>59.0</ele><time>2026-04-04T09:49:04.011Z</time></trkpt><trkpt lat="41.02982" lon="14.4028117"><ele>59.0</ele><time>2026-04-04T09:49:05.01Z</time></trkpt><trkpt lat="41.029845" lon="14.4027333"><ele>59.00000000000001</ele><time>2026-04-04T09:49:06.01Z</time></trkpt><trkpt lat="41.0298733" lon="14.402655"><ele>59.0</ele><time>2026-04-04T09:49:07.01Z</time></trkpt><trkpt lat="41.029905" lon="14.4025667"><ele>59.00000000000001</ele><time>2026-04-04T09:49:08.01Z</time></trkpt><trkpt lat="41.0299383" lon="14.4024783"><ele>59.0</ele><time>2026-04-04T09:49:09.01Z</time></trkpt><trkpt lat="41.0299717" lon="14.40239"><ele>59.0</ele><time>2026-04-04T09:49:10.01Z</time></trkpt><trkpt lat="41.0300067" lon="14.4022983"><ele>59.0</ele><time>2026-04-04T09:49:11.01Z</time></trkpt><trkpt lat="41.03004" lon="14.4022017"><ele>59.00000000000001</ele><time>2026-04-04T09:49:12.01Z</time></trkpt><trkpt lat="41.0300717" lon="14.402105"><ele>59.0</ele><time>2026-04-04T09:49:13.01Z</time></trkpt><trkpt lat="41.0301017" lon="14.40201"><ele>59.16666666666667</ele><time>2026-04-04T09:49:14.011Z</time></trkpt><trkpt lat="41.0301317" lon="14.4019117"><ele>59.333333333333336</ele><time>2026-04-04T09:49:15.01Z</time></trkpt><trkpt lat="41.0301617" lon="14.40181"><ele>59.5</ele><time>2026-04-04T09:49:16.01Z</time></trkpt><trkpt lat="41.0301933" lon="14.4017117"><ele>59.66666666666667</ele><time>2026-04-04T09:49:17.009Z</time></trkpt><trkpt lat="41.030225" lon="14.401615"><ele>59.833333333333336</ele><time>2026-04-04T09:49:18.007Z</time></trkpt><trkpt lat="41.0302567" lon="14.4015183"><ele>60.0</ele><time>2026-04-04T09:49:19.008Z</time></trkpt><trkpt lat="41.0302883" lon="14.401425"><ele>60.0</ele><time>2026-04-04T09:49:20.01Z</time></trkpt><trkpt lat="41.0303217" lon="14.4013283"><ele>60.0</ele><time>2026-04-04T09:49:21.007Z</time></trkpt><trkpt lat="41.0303533" lon="14.4012367"><ele>60.0</ele><time>2026-04-04T09:49:22.008Z</time></trkpt><trkpt lat="41.0303867" lon="14.4011417"><ele>60.0</ele><time>2026-04-04T09:49:23.009Z</time></trkpt><trkpt lat="41.0304217" lon="14.40105"><ele>60.0</ele><time>2026-04-04T09:49:24.01Z</time></trkpt><trkpt lat="41.030455" lon="14.400955"><ele>60.0</ele><time>2026-04-04T09:49:25.007Z</time></trkpt><trkpt lat="41.0304867" lon="14.4008617"><ele>60.0</ele><time>2026-04-04T09:49:26.011Z</time></trkpt><trkpt lat="41.0305217" lon="14.4007717"><ele>60.0</ele><time>2026-04-04T09:49:27.01Z</time></trkpt><trkpt lat="41.03056" lon="14.4006833"><ele>60.0</ele><time>2026-04-04T09:49:28.01Z</time></trkpt><trkpt lat="41.0305983" lon="14.400595"><ele>60.0</ele><time>2026-04-04T09:49:29.011Z</time></trkpt><trkpt lat="41.0306383" lon="14.40051"><ele>60.0</ele><time>2026-04-04T09:49:30.01Z</time></trkpt><trkpt lat="41.0306817" lon="14.40043"><ele>60.0</ele><time>2026-04-04T09:49:31.01Z</time></trkpt><trkpt lat="41.0307383" lon="14.40036"><ele>60.0</ele><time>2026-04-04T09:49:32.01Z</time></trkpt><trkpt lat="41.0308017" lon="14.40031"><ele>60.0</ele><time>2026-04-04T09:49:33.01Z</time></trkpt><trkpt lat="41.0308733" lon="14.4002817"><ele>60.0</ele><time>2026-04-04T09:49:34.01Z</time></trkpt><trkpt lat="41.0309467" lon="14.4002717"><ele>60.0</ele><time>2026-04-04T09:49:35.01Z</time></trkpt><trkpt lat="41.031015" lon="14.40027"><ele>60.0</ele><time>2026-04-04T09:49:36.009Z</time></trkpt><trkpt lat="41.0310833" lon="14.4002783"><ele>60.0</ele><time>2026-04-04T09:49:37.01Z</time></trkpt><trkpt lat="41.0311467" lon="14.4003017"><ele>60.0</ele><time>2026-04-04T09:49:38.012Z</time></trkpt><trkpt lat="41.031205" lon="14.4003367"><ele>60.0</ele><time>2026-04-04T09:49:39.01Z</time></trkpt><trkpt lat="41.03126" lon="14.40038"><ele>60.0</ele><time>2026-04-04T09:49:40.011Z</time></trkpt><trkpt lat="41.031315" lon="14.4004233"><ele>60.0</ele><time>2026-04-04T09:49:41.01Z</time></trkpt><trkpt lat="41.0313717" lon="14.40046"><ele>60.0</ele><time>2026-04-04T09:49:42.01Z</time></trkpt><trkpt lat="41.0314867" lon="14.4005233"><ele>60.0</ele><time>2026-04-04T09:49:44.012Z</time></trkpt><trkpt lat="41.0316" lon="14.4005883"><ele>60.0</ele><time>2026-04-04T09:49:46.011Z</time></trkpt><trkpt lat="41.0317033" lon="14.4006633"><ele>60.4</ele><time>2026-04-04T09:49:48.01Z</time></trkpt><trkpt lat="41.031805" lon="14.40073"><ele>60.8</ele><time>2026-04-04T09:49:50.011Z</time></trkpt><trkpt lat="41.0319083" lon="14.40078"><ele>61.2</ele><time>2026-04-04T09:49:52.011Z</time></trkpt><trkpt lat="41.03202" lon="14.4008117"><ele>61.6</ele><time>2026-04-04T09:49:54.01Z</time></trkpt><trkpt lat="41.0321233" lon="14.4008283"><ele>62.0</ele><time>2026-04-04T09:49:56.01Z</time></trkpt><trkpt lat="41.0322233" lon="14.40085"><ele>62.0</ele><time>2026-04-04T09:49:58.008Z</time></trkpt><trkpt lat="41.0323267" lon="14.4008733"><ele>62.0</ele><time>2026-04-04T09:50:00.012Z</time></trkpt><trkpt lat="41.0324283" lon="14.4008983"><ele>62.0</ele><time>2026-04-04T09:50:02.01Z</time></trkpt><trkpt lat="41.032535" lon="14.400905"><ele>62.0</ele><time>2026-04-04T09:50:04.01Z</time></trkpt><trkpt lat="41.0326417" lon="14.400915"><ele>62.0</ele><time>2026-04-04T09:50:06.01Z</time></trkpt><trkpt lat="41.0327467" lon="14.40092"><ele>62.6</ele><time>2026-04-04T09:50:08.009Z</time></trkpt><trkpt lat="41.0328483" lon="14.4009033"><ele>63.2</ele><time>2026-04-04T09:50:10.009Z</time></trkpt><trkpt lat="41.03295" lon="14.4008867"><ele>63.8</ele><time>2026-04-04T09:50:12.01Z</time></trkpt><trkpt lat="41.0330533" lon="14.4008733"><ele>64.4</ele><time>2026-04-04T09:50:14.011Z</time></trkpt><trkpt lat="41.0331583" lon="14.4008517"><ele>65.0</ele><time>2026-04-04T09:50:16.008Z</time></trkpt><trkpt lat="41.0332667" lon="14.4008217"><ele>65.2</ele><time>2026-04-04T09:50:18.01Z</time></trkpt><trkpt lat="41.033375" lon="14.4008117"><ele>65.4</ele><time>2026-04-04T09:50:20.01Z</time></trkpt><trkpt lat="41.0334817" lon="14.4007983"><ele>65.6</ele><time>2026-04-04T09:50:22.01Z</time></trkpt><trkpt lat="41.0335867" lon="14.40078"><ele>65.8</ele><time>2026-04-04T09:50:24.01Z</time></trkpt><trkpt lat="41.0336967" lon="14.400755"><ele>66.0</ele><time>2026-04-04T09:50:26.01Z</time></trkpt><trkpt lat="41.0338083" lon="14.40074"><ele>66.0</ele><time>2026-04-04T09:50:28.01Z</time></trkpt><trkpt lat="41.033925" lon="14.4007233"><ele>66.0</ele><time>2026-04-04T09:50:30.01Z</time></trkpt><trkpt lat="41.0340417" lon="14.4006967"><ele>66.0</ele><time>2026-04-04T09:50:32.011Z</time></trkpt><trkpt lat="41.034155" lon="14.40067"><ele>66.0</ele><time>2026-04-04T09:50:34.01Z</time></trkpt><trkpt lat="41.0342667" lon="14.4006517"><ele>66.5</ele><time>2026-04-04T09:50:36.01Z</time></trkpt><trkpt lat="41.03438" lon="14.4006317"><ele>67.0</ele><time>2026-04-04T09:50:38.012Z</time></trkpt><trkpt lat="41.0344933" lon="14.4006117"><ele>67.5</ele><time>2026-04-04T09:50:40.011Z</time></trkpt><trkpt lat="41.0346033" lon="14.4005917"><ele>68.0</ele><time>2026-04-04T09:50:42.01Z</time></trkpt><trkpt lat="41.0347167" lon="14.40057"><ele>68.0</ele><time>2026-04-04T09:50:44.01Z</time></trkpt><trkpt lat="41.0348267" lon="14.4005483"><ele>68.0</ele><time>2026-04-04T09:50:46.01Z</time></trkpt><trkpt lat="41.034945" lon="14.400525"><ele>68.0</ele><time>2026-04-04T09:50:48.01Z</time></trkpt><trkpt lat="41.0350617" lon="14.40051"><ele>68.0</ele><time>2026-04-04T09:50:50.01Z</time></trkpt><trkpt lat="41.0351717" lon="14.400495"><ele>68.6</ele><time>2026-04-04T09:50:52.01Z</time></trkpt><trkpt lat="41.03528" lon="14.4004833"><ele>69.19999999999999</ele><time>2026-04-04T09:50:54.01Z</time></trkpt><trkpt lat="41.0353883" lon="14.4004633"><ele>69.8</ele><time>2026-04-04T09:50:56.011Z</time></trkpt><trkpt lat="41.0354967" lon="14.4004417"><ele>70.39999999999999</ele><time>2026-04-04T09:50:58.008Z</time></trkpt><trkpt lat="41.03561" lon="14.4004233"><ele>71.0</ele><time>2026-04-04T09:51:00.008Z</time></trkpt><trkpt lat="41.03572" lon="14.40041"><ele>72.0</ele><time>2026-04-04T09:51:02.011Z</time></trkpt><trkpt lat="41.0358333" lon="14.400395"><ele>73.0</ele><time>2026-04-04T09:51:04.01Z</time></trkpt><trkpt lat="41.035945" lon="14.4003767"><ele>74.0</ele><time>2026-04-04T09:51:06.01Z</time></trkpt><trkpt lat="41.0360583" lon="14.4003517"><ele>75.0</ele><time>2026-04-04T09:51:08.011Z</time></trkpt><trkpt lat="41.0361733" lon="14.4003267"><ele>75.0</ele><time>2026-04-04T09:51:10.011Z</time></trkpt><trkpt lat="41.0362867" lon="14.4003083"><ele>75.0</ele><time>2026-04-04T09:51:12.01Z</time></trkpt><trkpt lat="41.0364067" lon="14.4002967"><ele>75.0</ele><time>2026-04-04T09:51:14.012Z</time></trkpt><trkpt lat="41.0365183" lon="14.4002783"><ele>75.0</ele><time>2026-04-04T09:51:16.012Z</time></trkpt><trkpt lat="41.0366267" lon="14.4002583"><ele>75.0</ele><time>2026-04-04T09:51:18.008Z</time></trkpt><trkpt lat="41.0367333" lon="14.4002283"><ele>75.0</ele><time>2026-04-04T09:51:20.007Z</time></trkpt><trkpt lat="41.0368417" lon="14.40021"><ele>75.0</ele><time>2026-04-04T09:51:22.009Z</time></trkpt><trkpt lat="41.0369367" lon="14.40018"><ele>75.0</ele><time>2026-04-04T09:51:24.009Z</time></trkpt><trkpt lat="41.037035" lon="14.400155"><ele>75.0</ele><time>2026-04-04T09:51:26.007Z</time></trkpt><trkpt lat="41.0371433" lon="14.400145"><ele>75.0</ele><time>2026-04-04T09:51:28.006Z</time></trkpt><trkpt lat="41.0372467" lon="14.4001333"><ele>75.0</ele><time>2026-04-04T09:51:30.011Z</time></trkpt><trkpt lat="41.03735" lon="14.4001083"><ele>75.0</ele><time>2026-04-04T09:51:32.011Z</time></trkpt><trkpt lat="41.0374467" lon="14.4000817"><ele>75.0</ele><time>2026-04-04T09:51:34.01Z</time></trkpt><trkpt lat="41.0375417" lon="14.4000617"><ele>75.0</ele><time>2026-04-04T09:51:36.011Z</time></trkpt><trkpt lat="41.0376367" lon="14.4000383"><ele>75.8</ele><time>2026-04-04T09:51:38.011Z</time></trkpt><trkpt lat="41.0377333" lon="14.4000267"><ele>76.6</ele><time>2026-04-04T09:51:40.01Z</time></trkpt><trkpt lat="41.0378317" lon="14.4000017"><ele>77.4</ele><time>2026-04-04T09:51:42.01Z</time></trkpt><trkpt lat="41.03793" lon="14.3999817"><ele>78.2</ele><time>2026-04-04T09:51:44.011Z</time></trkpt><trkpt lat="41.0380283" lon="14.3999667"><ele>79.0</ele><time>2026-04-04T09:51:46.01Z</time></trkpt><trkpt lat="41.0381233" lon="14.3999517"><ele>79.0</ele><time>2026-04-04T09:51:48.009Z</time></trkpt><trkpt lat="41.0382183" lon="14.3999383"><ele>79.0</ele><time>2026-04-04T09:51:50.009Z</time></trkpt><trkpt lat="41.03831" lon="14.3999233"><ele>79.0</ele><time>2026-04-04T09:51:52.007Z</time></trkpt><trkpt lat="41.0384" lon="14.39991"><ele>79.0</ele><time>2026-04-04T09:51:54.009Z</time></trkpt><trkpt lat="41.038485" lon="14.3998917"><ele>79.0</ele><time>2026-04-04T09:51:56.007Z</time></trkpt><trkpt lat="41.03857" lon="14.39987"><ele>79.5</ele><time>2026-04-04T09:51:58.008Z</time></trkpt><trkpt lat="41.038655" lon="14.3998533"><ele>80.0</ele><time>2026-04-04T09:52:00.009Z</time></trkpt><trkpt lat="41.0387433" lon="14.399845"><ele>80.5</ele><time>2026-04-04T09:52:02.011Z</time></trkpt><trkpt lat="41.0388367" lon="14.3998283"><ele>81.0</ele><time>2026-04-04T09:52:04.01Z</time></trkpt><trkpt lat="41.0389217" lon="14.3998183"><ele>81.5</ele><time>2026-04-04T09:52:06.009Z</time></trkpt><trkpt lat="41.0390033" lon="14.3998083"><ele>82.0</ele><time>2026-04-04T09:52:08.01Z</time></trkpt><trkpt lat="41.039085" lon="14.399795"><ele>82.33333333333333</ele><time>2026-04-04T09:52:10.01Z</time></trkpt><trkpt lat="41.03917" lon="14.3997833"><ele>82.66666666666666</ele><time>2026-04-04T09:52:12.008Z</time></trkpt><trkpt lat="41.0392517" lon="14.39977"><ele>83.0</ele><time>2026-04-04T09:52:14.011Z</time></trkpt><trkpt lat="41.0393317" lon="14.3997533"><ele>83.33333333333333</ele><time>2026-04-04T09:52:16.01Z</time></trkpt><trkpt lat="41.039415" lon="14.3997383"><ele>83.66666666666667</ele><time>2026-04-04T09:52:18.007Z</time></trkpt><trkpt lat="41.0394967" lon="14.3997217"><ele>84.0</ele><time>2026-04-04T09:52:20.009Z</time></trkpt><trkpt lat="41.039585" lon="14.3997083"><ele>84.0</ele><time>2026-04-04T09:52:22.008Z</time></trkpt><trkpt lat="41.03967" lon="14.3996933"><ele>84.0</ele><time>2026-04-04T09:52:24.008Z</time></trkpt><trkpt lat="41.0397533" lon="14.3996767"><ele>84.0</ele><time>2026-04-04T09:52:26.009Z</time></trkpt><trkpt lat="41.0398367" lon="14.3996617"><ele>84.0</ele><time>2026-04-04T09:52:28.008Z</time></trkpt><trkpt lat="41.0399217" lon="14.3996517"><ele>84.0</ele><time>2026-04-04T09:52:30.01Z</time></trkpt><trkpt lat="41.0400067" lon="14.3996383"><ele>84.0</ele><time>2026-04-04T09:52:32.011Z</time></trkpt><trkpt lat="41.0400833" lon="14.3996117"><ele>84.16666666666667</ele><time>2026-04-04T09:52:34.012Z</time></trkpt><trkpt lat="41.0401667" lon="14.3995783"><ele>84.33333333333333</ele><time>2026-04-04T09:52:36.01Z</time></trkpt><trkpt lat="41.0402433" lon="14.399545"><ele>84.5</ele><time>2026-04-04T09:52:38.012Z</time></trkpt><trkpt lat="41.0403233" lon="14.3995067"><ele>84.66666666666666</ele><time>2026-04-04T09:52:40.011Z</time></trkpt><trkpt lat="41.0404133" lon="14.399465"><ele>84.83333333333333</ele><time>2026-04-04T09:52:42.01Z</time></trkpt><trkpt lat="41.040495" lon="14.3994283"><ele>85.0</ele><time>2026-04-04T09:52:44.012Z</time></trkpt><trkpt lat="41.0405733" lon="14.3993917"><ele>85.0</ele><time>2026-04-04T09:52:46.011Z</time></trkpt><trkpt lat="41.0406533" lon="14.3993583"><ele>85.0</ele><time>2026-04-04T09:52:48.009Z</time></trkpt><trkpt lat="41.0407367" lon="14.3993217"><ele>85.0</ele><time>2026-04-04T09:52:50.009Z</time></trkpt><trkpt lat="41.0408183" lon="14.39929"><ele>85.0</ele><time>2026-04-04T09:52:52.008Z</time></trkpt><trkpt lat="41.040905" lon="14.3992533"><ele>85.0</ele><time>2026-04-04T09:52:54.009Z</time></trkpt><trkpt lat="41.0409933" lon="14.39921"><ele>85.0</ele><time>2026-04-04T09:52:56.009Z</time></trkpt><trkpt lat="41.0410817" lon="14.3991667"><ele>86.0</ele><time>2026-04-04T09:52:58.009Z</time></trkpt><trkpt lat="41.04117" lon="14.3991267"><ele>87.0</ele><time>2026-04-04T09:53:00.011Z</time></trkpt><trkpt lat="41.041255" lon="14.39909"><ele>88.0</ele><time>2026-04-04T09:53:02.011Z</time></trkpt><trkpt lat="41.0413433" lon="14.39905"><ele>89.0</ele><time>2026-04-04T09:53:04.011Z</time></trkpt><trkpt lat="41.0414367" lon="14.3990217"><ele>90.0</ele><time>2026-04-04T09:53:06.01Z</time></trkpt><trkpt lat="41.04152" lon="14.398985"><ele>90.0</ele><time>2026-04-04T09:53:08.011Z</time></trkpt><trkpt lat="41.0416083" lon="14.3989517"><ele>90.0</ele><time>2026-04-04T09:53:10.011Z</time></trkpt><trkpt lat="41.041695" lon="14.398915"><ele>90.0</ele><time>2026-04-04T09:53:12.009Z</time></trkpt><trkpt lat="41.0417817" lon="14.3988867"><ele>90.0</ele><time>2026-04-04T09:53:14.012Z</time></trkpt><trkpt lat="41.0418683" lon="14.3988583"><ele>90.0</ele><time>2026-04-04T09:53:16.008Z</time></trkpt><trkpt lat="41.0419533" lon="14.3988317"><ele>90.0</ele><time>2026-04-04T09:53:18.009Z</time></trkpt><trkpt lat="41.042035" lon="14.3988033"><ele>91.2</ele><time>2026-04-04T09:53:20.01Z</time></trkpt><trkpt lat="41.0421167" lon="14.3987667"><ele>92.4</ele><time>2026-04-04T09:53:22.009Z</time></trkpt><trkpt lat="41.0422" lon="14.3987233"><ele>93.6</ele><time>2026-04-04T09:53:24.011Z</time></trkpt><trkpt lat="41.0422867" lon="14.3986817"><ele>94.8</ele><time>2026-04-04T09:53:26.011Z</time></trkpt><trkpt lat="41.0423783" lon="14.3986383"><ele>96.0</ele><time>2026-04-04T09:53:28.011Z</time></trkpt><trkpt lat="41.0424733" lon="14.39859"><ele>96.6</ele><time>2026-04-04T09:53:30.011Z</time></trkpt><trkpt lat="41.042565" lon="14.39855"><ele>97.19999999999999</ele><time>2026-04-04T09:53:32.011Z</time></trkpt><trkpt lat="41.04266" lon="14.39851"><ele>97.80000000000001</ele><time>2026-04-04T09:53:34.01Z</time></trkpt><trkpt lat="41.04275" lon="14.3984567"><ele>98.4</ele><time>2026-04-04T09:53:36.011Z</time></trkpt><trkpt lat="41.0428383" lon="14.3984067"><ele>99.0</ele><time>2026-04-04T09:53:38.012Z</time></trkpt><trkpt lat="41.0429183" lon="14.39836"><ele>99.0</ele><time>2026-04-04T09:53:40.01Z</time></trkpt><trkpt lat="41.0430017" lon="14.3983183"><ele>99.0</ele><time>2026-04-04T09:53:42.012Z</time></trkpt><trkpt lat="41.0430783" lon="14.39828"><ele>99.0</ele><time>2026-04-04T09:53:44.01Z</time></trkpt><trkpt lat="41.043155" lon="14.398235"><ele>99.0</ele><time>2026-04-04T09:53:46.008Z</time></trkpt><trkpt lat="41.0432483" lon="14.3982017"><ele>99.0</ele><time>2026-04-04T09:53:48.009Z</time></trkpt><trkpt lat="41.0433333" lon="14.3981583"><ele>99.0</ele><time>2026-04-04T09:53:50.01Z</time></trkpt><trkpt lat="41.0434183" lon="14.3981217"><ele>99.33333333333333</ele><time>2026-04-04T09:53:52.008Z</time></trkpt><trkpt lat="41.04349" lon="14.3980883"><ele>99.66666666666666</ele><time>2026-04-04T09:53:54.009Z</time></trkpt><trkpt lat="41.04356" lon="14.3980533"><ele>100.0</ele><time>2026-04-04T09:53:56.008Z</time></trkpt><trkpt lat="41.0436433" lon="14.3980167"><ele>100.33333333333333</ele><time>2026-04-04T09:53:58.011Z</time></trkpt><trkpt lat="41.0437333" lon="14.39798"><ele>100.66666666666666</ele><time>2026-04-04T09:54:00.011Z</time></trkpt><trkpt lat="41.0438233" lon="14.3979517"><ele>101.0</ele><time>2026-04-04T09:54:02.011Z</time></trkpt><trkpt lat="41.043915" lon="14.397925"><ele>101.8</ele><time>2026-04-04T09:54:04.01Z</time></trkpt><trkpt lat="41.0440017" lon="14.397895"><ele>102.6</ele><time>2026-04-04T09:54:06.011Z</time></trkpt><trkpt lat="41.0441333" lon="14.397845"><ele>103.4</ele><time>2026-04-04T09:54:09.011Z</time></trkpt><trkpt lat="41.04421" lon="14.3978117"><ele>104.2</ele><time>2026-04-04T09:54:11.011Z</time></trkpt><trkpt lat="41.0442933" lon="14.3977833"><ele>105.0</ele><time>2026-04-04T09:54:13.01Z</time></trkpt><trkpt lat="41.044375" lon="14.3977533"><ele>105.0</ele><time>2026-04-04T09:54:15.011Z</time></trkpt><trkpt lat="41.0444583" lon="14.3977367"><ele>105.0</ele><time>2026-04-04T09:54:17.011Z</time></trkpt><trkpt lat="41.0445483" lon="14.3977133"><ele>105.0</ele><time>2026-04-04T09:54:19.011Z</time></trkpt><trkpt lat="41.0446333" lon="14.3976883"><ele>105.0</ele><time>2026-04-04T09:54:21.01Z</time></trkpt><trkpt lat="41.0447183" lon="14.397675"><ele>105.0</ele><time>2026-04-04T09:54:23.01Z</time></trkpt><trkpt lat="41.0448017" lon="14.39765"><ele>105.0</ele><time>2026-04-04T09:54:25.011Z</time></trkpt><trkpt lat="41.0448867" lon="14.3976283"><ele>105.33333333333333</ele><time>2026-04-04T09:54:27.011Z</time></trkpt><trkpt lat="41.0449717" lon="14.3976033"><ele>105.66666666666666</ele><time>2026-04-04T09:54:29.01Z</time></trkpt><trkpt lat="41.0450583" lon="14.397575"><ele>106.0</ele><time>2026-04-04T09:54:31.011Z</time></trkpt><trkpt lat="41.045145" lon="14.3975567"><ele>106.33333333333333</ele><time>2026-04-04T09:54:33.008Z</time></trkpt><trkpt lat="41.0452283" lon="14.3975283"><ele>106.66666666666666</ele><time>2026-04-04T09:54:35.01Z</time></trkpt><trkpt lat="41.04531" lon="14.3975067"><ele>107.0</ele><time>2026-04-04T09:54:37.007Z</time></trkpt><trkpt lat="41.0453883" lon="14.3974783"><ele>106.99999999999999</ele><time>2026-04-04T09:54:39.012Z</time></trkpt><trkpt lat="41.0454667" lon="14.3974467"><ele>107.0</ele><time>2026-04-04T09:54:41.012Z</time></trkpt><trkpt lat="41.0455567" lon="14.3974183"><ele>107.0</ele><time>2026-04-04T09:54:43.012Z</time></trkpt><trkpt lat="41.045645" lon="14.397395"><ele>107.0</ele><time>2026-04-04T09:54:45.012Z</time></trkpt><trkpt lat="41.045725" lon="14.39737"><ele>106.99999999999999</ele><time>2026-04-04T09:54:47.011Z</time></trkpt><trkpt lat="41.0458117" lon="14.3973467"><ele>107.0</ele><time>2026-04-04T09:54:49.011Z</time></trkpt><trkpt lat="41.0459017" lon="14.39732"><ele>107.39999999999999</ele><time>2026-04-04T09:54:51.009Z</time></trkpt><trkpt lat="41.04599" lon="14.39729"><ele>107.79999999999998</ele><time>2026-04-04T09:54:53.012Z</time></trkpt><trkpt lat="41.0460767" lon="14.397265"><ele>108.2</ele><time>2026-04-04T09:54:55.01Z</time></trkpt><trkpt lat="41.0461633" lon="14.3972333"><ele>108.6</ele><time>2026-04-04T09:54:57.011Z</time></trkpt><trkpt lat="41.0462517" lon="14.3972017"><ele>109.0</ele><time>2026-04-04T09:54:59.01Z</time></trkpt><trkpt lat="41.0463417" lon="14.3971867"><ele>109.80000000000001</ele><time>2026-04-04T09:55:01.009Z</time></trkpt><trkpt lat="41.046445" lon="14.3971667"><ele>110.60000000000001</ele><time>2026-04-04T09:55:03.011Z</time></trkpt><trkpt lat="41.0465483" lon="14.3971367"><ele>111.4</ele><time>2026-04-04T09:55:05.011Z</time></trkpt><trkpt lat="41.0466467" lon="14.397105"><ele>112.2</ele><time>2026-04-04T09:55:07.011Z</time></trkpt><trkpt lat="41.04674" lon="14.3970833"><ele>113.0</ele><time>2026-04-04T09:55:09.012Z</time></trkpt><trkpt lat="41.0468333" lon="14.39707"><ele>113.33333333333333</ele><time>2026-04-04T09:55:11.011Z</time></trkpt><trkpt lat="41.0469267" lon="14.39705"><ele>113.66666666666666</ele><time>2026-04-04T09:55:13.011Z</time></trkpt><trkpt lat="41.0470183" lon="14.39704"><ele>114.0</ele><time>2026-04-04T09:55:15.009Z</time></trkpt><trkpt lat="41.0471117" lon="14.3970567"><ele>114.33333333333334</ele><time>2026-04-04T09:55:17.011Z</time></trkpt><trkpt lat="41.0471917" lon="14.3970533"><ele>114.66666666666667</ele><time>2026-04-04T09:55:19.011Z</time></trkpt><trkpt lat="41.0472783" lon="14.397065"><ele>115.0</ele><time>2026-04-04T09:55:21.011Z</time></trkpt><trkpt lat="41.04736" lon="14.3970717"><ele>115.00000000000001</ele><time>2026-04-04T09:55:23.01Z</time></trkpt><trkpt lat="41.04743" lon="14.3970717"><ele>115.0</ele><time>2026-04-04T09:55:25.01Z</time></trkpt><trkpt lat="41.0474933" lon="14.3970733"><ele>115.0</ele><time>2026-04-04T09:55:27.008Z</time></trkpt><trkpt lat="41.0475583" lon="14.39708"><ele>115.0</ele><time>2026-04-04T09:55:29.01Z</time></trkpt><trkpt lat="41.0476517" lon="14.3971"><ele>115.00000000000001</ele><time>2026-04-04T09:55:32.012Z</time></trkpt><trkpt lat="41.0477467" lon="14.39712"><ele>115.0</ele><time>2026-04-04T09:55:35.008Z</time></trkpt><trkpt lat="41.04781" lon="14.39713"><ele>114.83333333333334</ele><time>2026-04-04T09:55:37.011Z</time></trkpt><trkpt lat="41.047875" lon="14.3971483"><ele>114.66666666666667</ele><time>2026-04-04T09:55:39.008Z</time></trkpt><trkpt lat="41.0479483" lon="14.39716"><ele>114.5</ele><time>2026-04-04T09:55:41.011Z</time></trkpt><trkpt lat="41.048015" lon="14.39717"><ele>114.33333333333334</ele><time>2026-04-04T09:55:43.011Z</time></trkpt><trkpt lat="41.0481067" lon="14.3971833"><ele>114.16666666666667</ele><time>2026-04-04T09:55:46.011Z</time></trkpt><trkpt lat="41.0481917" lon="14.397195"><ele>114.0</ele><time>2026-04-04T09:55:49.011Z</time></trkpt><trkpt lat="41.0482817" lon="14.3972"><ele>115.0</ele><time>2026-04-04T09:55:52.009Z</time></trkpt><trkpt lat="41.04835" lon="14.3972133"><ele>115.99999999999999</ele><time>2026-04-04T09:55:54.012Z</time></trkpt><trkpt lat="41.0484217" lon="14.3972367"><ele>117.0</ele><time>2026-04-04T09:55:56.012Z</time></trkpt><trkpt lat="41.04849" lon="14.397255"><ele>118.0</ele><time>2026-04-04T09:55:58.012Z</time></trkpt><trkpt lat="41.0485533" lon="14.3972683"><ele>118.99999999999999</ele><time>2026-04-04T09:56:00.011Z</time></trkpt><trkpt lat="41.04862" lon="14.397285"><ele>120.0</ele><time>2026-04-04T09:56:02.008Z</time></trkpt><trkpt lat="41.048685" lon="14.3972967"><ele>121.0</ele><time>2026-04-04T09:56:04.008Z</time></trkpt><trkpt lat="41.0487483" lon="14.397315"><ele>121.0</ele><time>2026-04-04T09:56:06.007Z</time></trkpt><trkpt lat="41.0488333" lon="14.3973333"><ele>120.99999999999999</ele><time>2026-04-04T09:56:09.007Z</time></trkpt><trkpt lat="41.0489267" lon="14.397345"><ele>121.0</ele><time>2026-04-04T09:56:12.008Z</time></trkpt><trkpt lat="41.0489917" lon="14.3973483"><ele>121.0</ele><time>2026-04-04T09:56:14.01Z</time></trkpt><trkpt lat="41.04906" lon="14.3973517"><ele>120.99999999999999</ele><time>2026-04-04T09:56:16.009Z</time></trkpt><trkpt lat="41.049125" lon="14.397365"><ele>121.0</ele><time>2026-04-04T09:56:18.008Z</time></trkpt><trkpt lat="41.0491933" lon="14.3973783"><ele>121.0</ele><time>2026-04-04T09:56:20.008Z</time></trkpt><trkpt lat="41.0492567" lon="14.397395"><ele>122.14285714285714</ele><time>2026-04-04T09:56:22.011Z</time></trkpt><trkpt lat="41.04935" lon="14.3974017"><ele>123.28571428571428</ele><time>2026-04-04T09:56:25.011Z</time></trkpt><trkpt lat="41.0494133" lon="14.3974133"><ele>124.42857142857142</ele><time>2026-04-04T09:56:27.01Z</time></trkpt><trkpt lat="41.0494817" lon="14.3974283"><ele>125.57142857142856</ele><time>2026-04-04T09:56:29.01Z</time></trkpt><trkpt lat="41.0495533" lon="14.3974433"><ele>126.71428571428571</ele><time>2026-04-04T09:56:31.011Z</time></trkpt><trkpt lat="41.04962" lon="14.3974517"><ele>127.85714285714283</ele><time>2026-04-04T09:56:33.009Z</time></trkpt><trkpt lat="41.0496883" lon="14.39747"><ele>129.0</ele><time>2026-04-04T09:56:35.01Z</time></trkpt><trkpt lat="41.0497533" lon="14.39748"><ele>129.0</ele><time>2026-04-04T09:56:37.009Z</time></trkpt><trkpt lat="41.0498417" lon="14.3974967"><ele>129.0</ele><time>2026-04-04T09:56:40.009Z</time></trkpt><trkpt lat="41.0499067" lon="14.39751"><ele>129.0</ele><time>2026-04-04T09:56:42.01Z</time></trkpt><trkpt lat="41.04997" lon="14.397525"><ele>129.0</ele><time>2026-04-04T09:56:44.01Z</time></trkpt><trkpt lat="41.0500383" lon="14.3975367"><ele>129.0</ele><time>2026-04-04T09:56:46.011Z</time></trkpt><trkpt lat="41.0501067" lon="14.3975533"><ele>129.0</ele><time>2026-04-04T09:56:48.01Z</time></trkpt><trkpt lat="41.0501983" lon="14.3975783"><ele>129.85714285714283</ele><time>2026-04-04T09:56:51.01Z</time></trkpt><trkpt lat="41.0502667" lon="14.39759"><ele>130.71428571428572</ele><time>2026-04-04T09:56:53.01Z</time></trkpt><trkpt lat="41.0503333" lon="14.3976"><ele>131.57142857142856</ele><time>2026-04-04T09:56:55.01Z</time></trkpt><trkpt lat="41.0504033" lon="14.39761"><ele>132.42857142857142</ele><time>2026-04-04T09:56:57.01Z</time></trkpt><trkpt lat="41.0504733" lon="14.3976217"><ele>133.28571428571428</ele><time>2026-04-04T09:56:59.009Z</time></trkpt><trkpt lat="41.0505367" lon="14.3976333"><ele>134.14285714285714</ele><time>2026-04-04T09:57:01.008Z</time></trkpt><trkpt lat="41.0506017" lon="14.3976417"><ele>135.0</ele><time>2026-04-04T09:57:03.009Z</time></trkpt><trkpt lat="41.05067" lon="14.3976467"><ele>135.0</ele><time>2026-04-04T09:57:05.008Z</time></trkpt><trkpt lat="41.050745" lon="14.39766"><ele>135.0</ele><time>2026-04-04T09:57:07.007Z</time></trkpt><trkpt lat="41.05082" lon="14.397675"><ele>135.0</ele><time>2026-04-04T09:57:09.007Z</time></trkpt><trkpt lat="41.0508967" lon="14.39769"><ele>135.0</ele><time>2026-04-04T09:57:11.007Z</time></trkpt><trkpt lat="41.0509733" lon="14.39771"><ele>135.0</ele><time>2026-04-04T09:57:13.008Z</time></trkpt><trkpt lat="41.0510583" lon="14.3977233"><ele>135.0</ele><time>2026-04-04T09:57:15.01Z</time></trkpt><trkpt lat="41.051145" lon="14.397735"><ele>135.8</ele><time>2026-04-04T09:57:17.01Z</time></trkpt><trkpt lat="41.0512367" lon="14.397755"><ele>136.6</ele><time>2026-04-04T09:57:19.01Z</time></trkpt><trkpt lat="41.0513217" lon="14.3977667"><ele>137.4</ele><time>2026-04-04T09:57:21.01Z</time></trkpt><trkpt lat="41.0514083" lon="14.3977883"><ele>138.2</ele><time>2026-04-04T09:57:23.011Z</time></trkpt><trkpt lat="41.0515017" lon="14.397805"><ele>139.0</ele><time>2026-04-04T09:57:25.01Z</time></trkpt><trkpt lat="41.051595" lon="14.3978183"><ele>139.8</ele><time>2026-04-04T09:57:27.01Z</time></trkpt><trkpt lat="41.0516917" lon="14.3978367"><ele>140.60000000000002</ele><time>2026-04-04T09:57:29.009Z</time></trkpt><trkpt lat="41.0517883" lon="14.3978617"><ele>141.4</ele><time>2026-04-04T09:57:31.011Z</time></trkpt><trkpt lat="41.051885" lon="14.3978883"><ele>142.20000000000002</ele><time>2026-04-04T09:57:33.011Z</time></trkpt><trkpt lat="41.0519767" lon="14.3979167"><ele>143.0</ele><time>2026-04-04T09:57:35.01Z</time></trkpt><trkpt lat="41.0520717" lon="14.397945"><ele>143.0</ele><time>2026-04-04T09:57:37.01Z</time></trkpt><trkpt lat="41.05216" lon="14.3979717"><ele>143.0</ele><time>2026-04-04T09:57:39.01Z</time></trkpt><trkpt lat="41.0522467" lon="14.3979933"><ele>143.0</ele><time>2026-04-04T09:57:41.011Z</time></trkpt><trkpt lat="41.05233" lon="14.398015"><ele>143.0</ele><time>2026-04-04T09:57:43.01Z</time></trkpt><trkpt lat="41.0524183" lon="14.398045"><ele>143.0</ele><time>2026-04-04T09:57:45.01Z</time></trkpt><trkpt lat="41.05251" lon="14.3980667"><ele>143.0</ele><time>2026-04-04T09:57:47.008Z</time></trkpt><trkpt lat="41.052605" lon="14.3980867"><ele>143.0</ele><time>2026-04-04T09:57:49.009Z</time></trkpt><trkpt lat="41.0527" lon="14.3981217"><ele>143.0</ele><time>2026-04-04T09:57:51.009Z</time></trkpt><trkpt lat="41.0527967" lon="14.3981517"><ele>143.0</ele><time>2026-04-04T09:57:53.008Z</time></trkpt><trkpt lat="41.0529" lon="14.3981833"><ele>143.0</ele><time>2026-04-04T09:57:55.011Z</time></trkpt><trkpt lat="41.0530067" lon="14.3982083"><ele>143.0</ele><time>2026-04-04T09:57:57.011Z</time></trkpt><trkpt lat="41.05311" lon="14.3982333"><ele>143.0</ele><time>2026-04-04T09:57:59.01Z</time></trkpt><trkpt lat="41.053215" lon="14.3982583"><ele>143.0</ele><time>2026-04-04T09:58:01.01Z</time></trkpt><trkpt lat="41.05332" lon="14.398285"><ele>143.0</ele><time>2026-04-04T09:58:03.01Z</time></trkpt><trkpt lat="41.0534267" lon="14.39831"><ele>143.0</ele><time>2026-04-04T09:58:05.011Z</time></trkpt><trkpt lat="41.0535317" lon="14.398345"><ele>143.0</ele><time>2026-04-04T09:58:07.01Z</time></trkpt><trkpt lat="41.0536267" lon="14.3983683"><ele>143.6</ele><time>2026-04-04T09:58:09.008Z</time></trkpt><trkpt lat="41.05373" lon="14.3983917"><ele>144.20000000000002</ele><time>2026-04-04T09:58:11.01Z</time></trkpt><trkpt lat="41.0538333" lon="14.3984133"><ele>144.8</ele><time>2026-04-04T09:58:13.011Z</time></trkpt><trkpt lat="41.0539333" lon="14.3984433"><ele>145.4</ele><time>2026-04-04T09:58:15.008Z</time></trkpt><trkpt lat="41.0540367" lon="14.3984683"><ele>146.0</ele><time>2026-04-04T09:58:17.007Z</time></trkpt><trkpt lat="41.05414" lon="14.3984967"><ele>146.83333333333331</ele><time>2026-04-04T09:58:19.01Z</time></trkpt><trkpt lat="41.05423" lon="14.398525"><ele>147.66666666666666</ele><time>2026-04-04T09:58:21.009Z</time></trkpt><trkpt lat="41.0543167" lon="14.3985567"><ele>148.5</ele><time>2026-04-04T09:58:23.008Z</time></trkpt><trkpt lat="41.0543983" lon="14.3985867"><ele>149.33333333333334</ele><time>2026-04-04T09:58:25.01Z</time></trkpt><trkpt lat="41.0544783" lon="14.3986183"><ele>150.16666666666669</ele><time>2026-04-04T09:58:27.01Z</time></trkpt><trkpt lat="41.054555" lon="14.3986483"><ele>151.0</ele><time>2026-04-04T09:58:29.011Z</time></trkpt><trkpt lat="41.0546233" lon="14.3986983"><ele>151.0</ele><time>2026-04-04T09:58:31.01Z</time></trkpt><trkpt lat="41.0546967" lon="14.3987433"><ele>151.0</ele><time>2026-04-04T09:58:33.009Z</time></trkpt><trkpt lat="41.0547733" lon="14.398785"><ele>151.0</ele><time>2026-04-04T09:58:35.01Z</time></trkpt><trkpt lat="41.054845" lon="14.3988233"><ele>151.0</ele><time>2026-04-04T09:58:37.01Z</time></trkpt><trkpt lat="41.0549133" lon="14.398865"><ele>151.0</ele><time>2026-04-04T09:58:39.008Z</time></trkpt><trkpt lat="41.0549883" lon="14.3989017"><ele>151.0</ele><time>2026-04-04T09:58:41.011Z</time></trkpt><trkpt lat="41.0550683" lon="14.3989433"><ele>150.66666666666669</ele><time>2026-04-04T09:58:43.009Z</time></trkpt><trkpt lat="41.05515" lon="14.39898"><ele>150.33333333333334</ele><time>2026-04-04T09:58:45.008Z</time></trkpt><trkpt lat="41.05523" lon="14.3990133"><ele>150.0</ele><time>2026-04-04T09:58:47.009Z</time></trkpt><trkpt lat="41.0553033" lon="14.3990517"><ele>149.66666666666666</ele><time>2026-04-04T09:58:49.008Z</time></trkpt><trkpt lat="41.055375" lon="14.3990817"><ele>149.33333333333331</ele><time>2026-04-04T09:58:51.009Z</time></trkpt><trkpt lat="41.0554483" lon="14.3991083"><ele>149.0</ele><time>2026-04-04T09:58:53.008Z</time></trkpt><trkpt lat="41.0555183" lon="14.399135"><ele>149.0</ele><time>2026-04-04T09:58:55.012Z</time></trkpt><trkpt lat="41.0555967" lon="14.3991683"><ele>149.0</ele><time>2026-04-04T09:58:57.01Z</time></trkpt><trkpt lat="41.05568" lon="14.399205"><ele>149.0</ele><time>2026-04-04T09:58:59.01Z</time></trkpt><trkpt lat="41.0557583" lon="14.3992517"><ele>149.0</ele><time>2026-04-04T09:59:01.01Z</time></trkpt><trkpt lat="41.0558317" lon="14.3992883"><ele>149.0</ele><time>2026-04-04T09:59:03.01Z</time></trkpt><trkpt lat="41.055905" lon="14.3993217"><ele>149.0</ele><time>2026-04-04T09:59:05.01Z</time></trkpt><trkpt lat="41.0559733" lon="14.3993583"><ele>150.0</ele><time>2026-04-04T09:59:07.012Z</time></trkpt><trkpt lat="41.0560467" lon="14.3993933"><ele>151.0</ele><time>2026-04-04T09:59:09.009Z</time></trkpt><trkpt lat="41.056125" lon="14.3994317"><ele>152.0</ele><time>2026-04-04T09:59:11.009Z</time></trkpt><trkpt lat="41.0562033" lon="14.3994633"><ele>153.0</ele><time>2026-04-04T09:59:13.008Z</time></trkpt><trkpt lat="41.056285" lon="14.399495"><ele>154.0</ele><time>2026-04-04T09:59:15.011Z</time></trkpt><trkpt lat="41.0563617" lon="14.3995283"><ele>155.0</ele><time>2026-04-04T09:59:17.006Z</time></trkpt><trkpt lat="41.056445" lon="14.3995633"><ele>155.0</ele><time>2026-04-04T09:59:19.009Z</time></trkpt><trkpt lat="41.0565417" lon="14.3996067"><ele>155.0</ele><time>2026-04-04T09:59:21.008Z</time></trkpt><trkpt lat="41.0566367" lon="14.3996517"><ele>155.0</ele><time>2026-04-04T09:59:23.009Z</time></trkpt><trkpt lat="41.0567233" lon="14.3996967"><ele>155.0</ele><time>2026-04-04T09:59:25.01Z</time></trkpt><trkpt lat="41.0568067" lon="14.3997467"><ele>155.0</ele><time>2026-04-04T09:59:27.009Z</time></trkpt><trkpt lat="41.0568867" lon="14.3997933"><ele>156.8</ele><time>2026-04-04T09:59:29.011Z</time></trkpt><trkpt lat="41.0569617" lon="14.399845"><ele>158.6</ele><time>2026-04-04T09:59:31.01Z</time></trkpt><trkpt lat="41.0570367" lon="14.3999083"><ele>160.39999999999998</ele><time>2026-04-04T09:59:33.009Z</time></trkpt><trkpt lat="41.0571183" lon="14.3999783"><ele>162.2</ele><time>2026-04-04T09:59:35.009Z</time></trkpt><trkpt lat="41.0572" lon="14.4000467"><ele>164.0</ele><time>2026-04-04T09:59:37.008Z</time></trkpt><trkpt lat="41.05728" lon="14.40012"><ele>164.0</ele><time>2026-04-04T09:59:39.009Z</time></trkpt><trkpt lat="41.0573583" lon="14.4001983"><ele>164.0</ele><time>2026-04-04T09:59:41.01Z</time></trkpt><trkpt lat="41.057445" lon="14.4002867"><ele>164.0</ele><time>2026-04-04T09:59:43.01Z</time></trkpt><trkpt lat="41.0575217" lon="14.40037"><ele>164.0</ele><time>2026-04-04T09:59:45.007Z</time></trkpt><trkpt lat="41.0575917" lon="14.4004567"><ele>164.0</ele><time>2026-04-04T09:59:47.007Z</time></trkpt><trkpt lat="41.0576733" lon="14.400555"><ele>164.79999999999998</ele><time>2026-04-04T09:59:49.007Z</time></trkpt><trkpt lat="41.0577567" lon="14.4006417"><ele>165.6</ele><time>2026-04-04T09:59:51.007Z</time></trkpt><trkpt lat="41.0578417" lon="14.4007367"><ele>166.4</ele><time>2026-04-04T09:59:53.006Z</time></trkpt><trkpt lat="41.0579283" lon="14.4008233"><ele>167.2</ele><time>2026-04-04T09:59:55.009Z</time></trkpt><trkpt lat="41.058" lon="14.4009067"><ele>168.0</ele><time>2026-04-04T09:59:57.007Z</time></trkpt><trkpt lat="41.0580867" lon="14.40099"><ele>168.0</ele><time>2026-04-04T09:59:59.008Z</time></trkpt><trkpt lat="41.0581783" lon="14.4010733"><ele>168.0</ele><time>2026-04-04T10:00:01.007Z</time></trkpt><trkpt lat="41.0582683" lon="14.4011567"><ele>168.0</ele><time>2026-04-04T10:00:03.008Z</time></trkpt><trkpt lat="41.0583567" lon="14.4012633"><ele>168.0</ele><time>2026-04-04T10:00:05.007Z</time></trkpt><trkpt lat="41.05845" lon="14.4013683"><ele>168.0</ele><time>2026-04-04T10:00:07.008Z</time></trkpt><trkpt lat="41.0585033" lon="14.4014167"><ele>168.0</ele><time>2026-04-04T10:00:08.008Z</time></trkpt><trkpt lat="41.0585583" lon="14.4014617"><ele>168.0</ele><time>2026-04-04T10:00:09.007Z</time></trkpt><trkpt lat="41.0586167" lon="14.4015"><ele>168.0</ele><time>2026-04-04T10:00:10.007Z</time></trkpt><trkpt lat="41.0586733" lon="14.40154"><ele>168.0</ele><time>2026-04-04T10:00:11.01Z</time></trkpt><trkpt lat="41.0587783" lon="14.4016217"><ele>168.0</ele><time>2026-04-04T10:00:13.011Z</time></trkpt><trkpt lat="41.0588733" lon="14.4017"><ele>168.0</ele><time>2026-04-04T10:00:15.009Z</time></trkpt><trkpt lat="41.05893" lon="14.4017583"><ele>168.0</ele><time>2026-04-04T10:00:17.007Z</time></trkpt><trkpt lat="41.0588617" lon="14.4017333"><ele>168.0</ele><time>2026-04-04T10:02:12.009Z</time></trkpt><trkpt lat="41.0588717" lon="14.4018283"><ele>168.0</ele><time>2026-04-04T10:02:15.011Z</time></trkpt><trkpt lat="41.058885" lon="14.40191"><ele>168.0</ele><time>2026-04-04T10:02:17.009Z</time></trkpt><trkpt lat="41.058875" lon="14.4020233"><ele>168.0</ele><time>2026-04-04T10:02:20.01Z</time></trkpt><trkpt lat="41.0588633" lon="14.4021167"><ele>168.0</ele><time>2026-04-04T10:02:25.009Z</time></trkpt><trkpt lat="41.0588217" lon="14.4022167"><ele>168.71428571428572</ele><time>2026-04-04T10:02:28.007Z</time></trkpt><trkpt lat="41.0587883" lon="14.4022917"><ele>169.42857142857144</ele><time>2026-04-04T10:02:30.008Z</time></trkpt><trkpt lat="41.0587617" lon="14.4023683"><ele>170.14285714285714</ele><time>2026-04-04T10:02:32.009Z</time></trkpt><trkpt lat="41.0587383" lon="14.402465"><ele>170.85714285714286</ele><time>2026-04-04T10:02:35.01Z</time></trkpt><trkpt lat="41.0586417" lon="14.4025167"><ele>171.57142857142858</ele><time>2026-04-04T10:04:20.006Z</time></trkpt><trkpt lat="41.0586567" lon="14.4024317"><ele>172.28571428571428</ele><time>2026-04-04T10:04:40.005Z</time></trkpt><trkpt lat="41.0587" lon="14.402365"><ele>173.0</ele><time>2026-04-04T10:04:42.005Z</time></trkpt><trkpt lat="41.0587367" lon="14.4022583"><ele>172.28571428571428</ele><time>2026-04-04T10:04:44.006Z</time></trkpt><trkpt lat="41.0587783" lon="14.402155"><ele>171.57142857142858</ele><time>2026-04-04T10:04:46.006Z</time></trkpt><trkpt lat="41.058815" lon="14.4020733"><ele>170.85714285714286</ele><time>2026-04-04T10:04:49.007Z</time></trkpt><trkpt lat="41.058845" lon="14.4019883"><ele>170.14285714285714</ele><time>2026-04-04T10:04:52.005Z</time></trkpt><trkpt lat="41.05888" lon="14.4019167"><ele>169.42857142857144</ele><time>2026-04-04T10:04:54.005Z</time></trkpt><trkpt lat="41.0589617" lon="14.40192"><ele>168.71428571428572</ele><time>2026-04-04T10:04:58.005Z</time></trkpt><trkpt lat="41.0590117" lon="14.40198"><ele>168.0</ele><time>2026-04-04T10:05:00.006Z</time></trkpt><trkpt lat="41.0590733" lon="14.4020417"><ele>167.2</ele><time>2026-04-04T10:05:02.006Z</time></trkpt><trkpt lat="41.0591517" lon="14.40212"><ele>166.4</ele><time>2026-04-04T10:05:04.005Z</time></trkpt><trkpt lat="41.0592233" lon="14.4021883"><ele>165.6</ele><time>2026-04-04T10:05:06.006Z</time></trkpt><trkpt lat="41.0592767" lon="14.4022367"><ele>164.79999999999998</ele><time>2026-04-04T10:05:07.005Z</time></trkpt><trkpt lat="41.0593517" lon="14.4023317"><ele>164.0</ele><time>2026-04-04T10:05:09.006Z</time></trkpt><trkpt lat="41.0594483" lon="14.4024317"><ele>164.0</ele><time>2026-04-04T10:05:11.006Z</time></trkpt><trkpt lat="41.0595283" lon="14.4025333"><ele>164.0</ele><time>2026-04-04T10:05:13.005Z</time></trkpt><trkpt lat="41.059625" lon="14.4026267"><ele>164.0</ele><time>2026-04-04T10:05:15.006Z</time></trkpt><trkpt lat="41.0596817" lon="14.4026767"><ele>164.0</ele><time>2026-04-04T10:05:16.007Z</time></trkpt><trkpt lat="41.0597833" lon="14.4027783"><ele>164.0</ele><time>2026-04-04T10:05:18.006Z</time></trkpt><trkpt lat="41.0598333" lon="14.4028333"><ele>163.99999999999997</ele><time>2026-04-04T10:05:19.005Z</time></trkpt><trkpt lat="41.0598833" lon="14.4028917"><ele>164.0</ele><time>2026-04-04T10:05:20.007Z</time></trkpt><trkpt lat="41.0599367" lon="14.4029467"><ele>164.0</ele><time>2026-04-04T10:05:21.006Z</time></trkpt><trkpt lat="41.0599933" lon="14.4030033"><ele>164.0</ele><time>2026-04-04T10:05:22.005Z</time></trkpt><trkpt lat="41.060045" lon="14.4030517"><ele>164.0</ele><time>2026-04-04T10:05:23.005Z</time></trkpt><trkpt lat="41.0600983" lon="14.403105"><ele>163.99999999999997</ele><time>2026-04-04T10:05:24.005Z</time></trkpt><trkpt lat="41.0601467" lon="14.40316"><ele>164.0</ele><time>2026-04-04T10:05:25.005Z</time></trkpt><trkpt lat="41.0602433" lon="14.403275"><ele>163.57142857142856</ele><time>2026-04-04T10:05:27.006Z</time></trkpt><trkpt lat="41.060295" lon="14.4033333"><ele>163.14285714285714</ele><time>2026-04-04T10:05:28.005Z</time></trkpt><trkpt lat="41.0603433" lon="14.40339"><ele>162.71428571428572</ele><time>2026-04-04T10:05:29.007Z</time></trkpt><trkpt lat="41.0603917" lon="14.4034483"><ele>162.28571428571428</ele><time>2026-04-04T10:05:30.006Z</time></trkpt><trkpt lat="41.0604433" lon="14.4035017"><ele>161.85714285714286</ele><time>2026-04-04T10:05:31.006Z</time></trkpt><trkpt lat="41.0604983" lon="14.4035533"><ele>161.42857142857142</ele><time>2026-04-04T10:05:32.005Z</time></trkpt><trkpt lat="41.060555" lon="14.4036117"><ele>161.0</ele><time>2026-04-04T10:05:33.008Z</time></trkpt><trkpt lat="41.06061" lon="14.4036667"><ele>161.0</ele><time>2026-04-04T10:05:34.005Z</time></trkpt><trkpt lat="41.060665" lon="14.4037183"><ele>161.0</ele><time>2026-04-04T10:05:35.005Z</time></trkpt><trkpt lat="41.0607183" lon="14.4037767"><ele>161.0</ele><time>2026-04-04T10:05:36.006Z</time></trkpt><trkpt lat="41.0607733" lon="14.4038317"><ele>161.0</ele><time>2026-04-04T10:05:37.006Z</time></trkpt><trkpt lat="41.0608267" lon="14.4038867"><ele>161.0</ele><time>2026-04-04T10:05:38.005Z</time></trkpt><trkpt lat="41.06088" lon="14.4039433"><ele>161.0</ele><time>2026-04-04T10:05:39.005Z</time></trkpt><trkpt lat="41.0609383" lon="14.4040017"><ele>161.0</ele><time>2026-04-04T10:05:40.005Z</time></trkpt><trkpt lat="41.0609983" lon="14.404065"><ele>160.57142857142858</ele><time>2026-04-04T10:05:41.006Z</time></trkpt><trkpt lat="41.0610583" lon="14.4041283"><ele>160.14285714285714</ele><time>2026-04-04T10:05:42.005Z</time></trkpt><trkpt lat="41.0611133" lon="14.4041917"><ele>159.71428571428572</ele><time>2026-04-04T10:05:43.005Z</time></trkpt><trkpt lat="41.0611733" lon="14.4042517"><ele>159.28571428571428</ele><time>2026-04-04T10:05:44.006Z</time></trkpt><trkpt lat="41.0612317" lon="14.404315"><ele>158.85714285714286</ele><time>2026-04-04T10:05:45.005Z</time></trkpt><trkpt lat="41.061285" lon="14.4043817"><ele>158.42857142857144</ele><time>2026-04-04T10:05:46.005Z</time></trkpt><trkpt lat="41.0613367" lon="14.40445"><ele>158.0</ele><time>2026-04-04T10:05:47.006Z</time></trkpt><trkpt lat="41.0613917" lon="14.4045167"><ele>158.00000000000003</ele><time>2026-04-04T10:05:48.007Z</time></trkpt><trkpt lat="41.061445" lon="14.40458"><ele>158.0</ele><time>2026-04-04T10:05:49.005Z</time></trkpt><trkpt lat="41.0614983" lon="14.4046467"><ele>158.0</ele><time>2026-04-04T10:05:50.006Z</time></trkpt><trkpt lat="41.0615467" lon="14.4047133"><ele>158.0</ele><time>2026-04-04T10:05:51.007Z</time></trkpt><trkpt lat="41.0615933" lon="14.40478"><ele>158.0</ele><time>2026-04-04T10:05:52.006Z</time></trkpt><trkpt lat="41.0616417" lon="14.404845"><ele>158.00000000000003</ele><time>2026-04-04T10:05:53.005Z</time></trkpt><trkpt lat="41.0616917" lon="14.4049133"><ele>158.0</ele><time>2026-04-04T10:05:54.008Z</time></trkpt><trkpt lat="41.061745" lon="14.4049833"><ele>158.00000000000003</ele><time>2026-04-04T10:05:55.005Z</time></trkpt><trkpt lat="41.0617833" lon="14.4050583"><ele>158.0</ele><time>2026-04-04T10:05:56.006Z</time></trkpt><trkpt lat="41.06182" lon="14.4051367"><ele>158.0</ele><time>2026-04-04T10:05:57.005Z</time></trkpt><trkpt lat="41.06184" lon="14.4052267"><ele>158.0</ele><time>2026-04-04T10:05:58.005Z</time></trkpt><trkpt lat="41.061845" lon="14.40532"><ele>158.0</ele><time>2026-04-04T10:05:59.006Z</time></trkpt><trkpt lat="41.0618367" lon="14.40541"><ele>158.00000000000003</ele><time>2026-04-04T10:06:00.008Z</time></trkpt><trkpt lat="41.0618167" lon="14.4055"><ele>158.0</ele><time>2026-04-04T10:06:01.006Z</time></trkpt><trkpt lat="41.061795" lon="14.4055867"><ele>158.0</ele><time>2026-04-04T10:06:02.008Z</time></trkpt><trkpt lat="41.0617867" lon="14.4056733"><ele>158.0</ele><time>2026-04-04T10:06:03.006Z</time></trkpt><trkpt lat="41.0617867" lon="14.405765"><ele>158.0</ele><time>2026-04-04T10:06:04.005Z</time></trkpt><trkpt lat="41.0617933" lon="14.4058533"><ele>158.0</ele><time>2026-04-04T10:06:05.006Z</time></trkpt><trkpt lat="41.0618083" lon="14.4059417"><ele>158.0</ele><time>2026-04-04T10:06:06.006Z</time></trkpt><trkpt lat="41.061835" lon="14.4060267"><ele>158.0</ele><time>2026-04-04T10:06:07.009Z</time></trkpt><trkpt lat="41.0619" lon="14.4061617"><ele>158.0</ele><time>2026-04-04T10:06:09.006Z</time></trkpt><trkpt lat="41.0619483" lon="14.4062183"><ele>158.0</ele><time>2026-04-04T10:06:10.005Z</time></trkpt><trkpt lat="41.0619967" lon="14.4062817"><ele>158.0</ele><time>2026-04-04T10:06:11.006Z</time></trkpt><trkpt lat="41.0620533" lon="14.40632"><ele>158.0</ele><time>2026-04-04T10:06:12.007Z</time></trkpt><trkpt lat="41.0621733" lon="14.406375"><ele>158.0</ele><time>2026-04-04T10:06:14.005Z</time></trkpt><trkpt lat="41.0622417" lon="14.4063767"><ele>158.0</ele><time>2026-04-04T10:06:15.005Z</time></trkpt><trkpt lat="41.0623083" lon="14.4063567"><ele>158.0</ele><time>2026-04-04T10:06:16.005Z</time></trkpt><trkpt lat="41.0623767" lon="14.40633"><ele>158.0</ele><time>2026-04-04T10:06:17.007Z</time></trkpt><trkpt lat="41.0624367" lon="14.406295"><ele>158.0</ele><time>2026-04-04T10:06:18.005Z</time></trkpt><trkpt lat="41.0624917" lon="14.4062467"><ele>158.0</ele><time>2026-04-04T10:06:19.005Z</time></trkpt><trkpt lat="41.0625517" lon="14.40618"><ele>158.0</ele><time>2026-04-04T10:06:20.005Z</time></trkpt><trkpt lat="41.0626033" lon="14.4061267"><ele>158.0</ele><time>2026-04-04T10:06:21.007Z</time></trkpt><trkpt lat="41.062705" lon="14.406035"><ele>157.33333333333331</ele><time>2026-04-04T10:06:23.007Z</time></trkpt><trkpt lat="41.0627517" lon="14.4059167"><ele>156.66666666666666</ele><time>2026-04-04T10:06:25.005Z</time></trkpt><trkpt lat="41.0628017" lon="14.405825"><ele>156.0</ele><time>2026-04-04T10:06:27.006Z</time></trkpt><trkpt lat="41.0628333" lon="14.405735"><ele>155.33333333333334</ele><time>2026-04-04T10:06:29.006Z</time></trkpt><trkpt lat="41.06289" lon="14.4056567"><ele>154.66666666666669</ele><time>2026-04-04T10:06:31.006Z</time></trkpt><trkpt lat="41.0629583" lon="14.4055917"><ele>154.0</ele><time>2026-04-04T10:06:33.006Z</time></trkpt><trkpt lat="41.063" lon="14.4055283"><ele>154.16666666666669</ele><time>2026-04-04T10:06:35.006Z</time></trkpt><trkpt lat="41.0630467" lon="14.4054683"><ele>154.33333333333334</ele><time>2026-04-04T10:06:37.005Z</time></trkpt><trkpt lat="41.06309" lon="14.4054"><ele>154.5</ele><time>2026-04-04T10:06:39.006Z</time></trkpt><trkpt lat="41.0631383" lon="14.4053317"><ele>154.66666666666666</ele><time>2026-04-04T10:06:41.006Z</time></trkpt><trkpt lat="41.06318" lon="14.40523"><ele>154.83333333333331</ele><time>2026-04-04T10:06:44.008Z</time></trkpt><trkpt lat="41.0631817" lon="14.4051217"><ele>155.0</ele><time>2026-04-04T10:06:47.006Z</time></trkpt><trkpt lat="41.0631233" lon="14.4050317"><ele>155.0</ele><time>2026-04-04T10:06:50.006Z</time></trkpt><trkpt lat="41.06307" lon="14.40496"><ele>155.0</ele><time>2026-04-04T10:06:52.007Z</time></trkpt><trkpt lat="41.063005" lon="14.4048833"><ele>155.0</ele><time>2026-04-04T10:06:54.007Z</time></trkpt><trkpt lat="41.062935" lon="14.40483"><ele>155.0</ele><time>2026-04-04T10:06:56.007Z</time></trkpt><trkpt lat="41.0628567" lon="14.4047817"><ele>155.0</ele><time>2026-04-04T10:06:58.006Z</time></trkpt><trkpt lat="41.062775" lon="14.404725"><ele>155.0</ele><time>2026-04-04T10:07:00.006Z</time></trkpt><trkpt lat="41.0627017" lon="14.404665"><ele>155.2</ele><time>2026-04-04T10:07:02.007Z</time></trkpt><trkpt lat="41.0626283" lon="14.40461"><ele>155.4</ele><time>2026-04-04T10:07:04.005Z</time></trkpt><trkpt lat="41.0625567" lon="14.40455"><ele>155.6</ele><time>2026-04-04T10:07:06.006Z</time></trkpt><trkpt lat="41.0624733" lon="14.40449"><ele>155.8</ele><time>2026-04-04T10:07:08.006Z</time></trkpt><trkpt lat="41.0623917" lon="14.4044333"><ele>156.0</ele><time>2026-04-04T10:07:10.006Z</time></trkpt><trkpt lat="41.0623083" lon="14.4043767"><ele>156.0</ele><time>2026-04-04T10:07:12.006Z</time></trkpt><trkpt lat="41.06224" lon="14.4043183"><ele>156.0</ele><time>2026-04-04T10:07:14.006Z</time></trkpt><trkpt lat="41.0621633" lon="14.4042717"><ele>156.0</ele><time>2026-04-04T10:07:16.006Z</time></trkpt><trkpt lat="41.0620967" lon="14.4042217"><ele>156.0</ele><time>2026-04-04T10:07:18.007Z</time></trkpt><trkpt lat="41.0620233" lon="14.404175"><ele>156.0</ele><time>2026-04-04T10:07:20.006Z</time></trkpt><trkpt lat="41.0619517" lon="14.404135"><ele>156.0</ele><time>2026-04-04T10:07:22.006Z</time></trkpt><trkpt lat="41.061865" lon="14.4040983"><ele>156.0</ele><time>2026-04-04T10:07:24.007Z</time></trkpt><trkpt lat="41.0617867" lon="14.40405"><ele>156.0</ele><time>2026-04-04T10:07:26.006Z</time></trkpt><trkpt lat="41.0617067" lon="14.404"><ele>156.0</ele><time>2026-04-04T10:07:28.007Z</time></trkpt><trkpt lat="41.0616333" lon="14.4039333"><ele>156.0</ele><time>2026-04-04T10:07:30.006Z</time></trkpt><trkpt lat="41.0615617" lon="14.4038683"><ele>156.0</ele><time>2026-04-04T10:07:32.006Z</time></trkpt><trkpt lat="41.0614883" lon="14.4038067"><ele>156.0</ele><time>2026-04-04T10:07:34.005Z</time></trkpt><trkpt lat="41.0614133" lon="14.40374"><ele>156.6</ele><time>2026-04-04T10:07:36.006Z</time></trkpt><trkpt lat="41.0613367" lon="14.4036733"><ele>157.2</ele><time>2026-04-04T10:07:38.006Z</time></trkpt><trkpt lat="41.06126" lon="14.4036033"><ele>157.8</ele><time>2026-04-04T10:07:40.006Z</time></trkpt><trkpt lat="41.0611783" lon="14.40353"><ele>158.4</ele><time>2026-04-04T10:07:42.006Z</time></trkpt><trkpt lat="41.0611017" lon="14.4034467"><ele>159.0</ele><time>2026-04-04T10:07:44.006Z</time></trkpt><trkpt lat="41.061025" lon="14.4033567"><ele>159.0</ele><time>2026-04-04T10:07:46.005Z</time></trkpt><trkpt lat="41.0609417" lon="14.4032733"><ele>159.0</ele><time>2026-04-04T10:07:48.007Z</time></trkpt><trkpt lat="41.0608617" lon="14.4031817"><ele>159.0</ele><time>2026-04-04T10:07:50.006Z</time></trkpt><trkpt lat="41.060785" lon="14.403085"><ele>159.0</ele><time>2026-04-04T10:07:52.006Z</time></trkpt><trkpt lat="41.0607033" lon="14.402995"><ele>159.0</ele><time>2026-04-04T10:07:54.006Z</time></trkpt><trkpt lat="41.06062" lon="14.4029033"><ele>159.2</ele><time>2026-04-04T10:07:56.006Z</time></trkpt><trkpt lat="41.060535" lon="14.4028117"><ele>159.4</ele><time>2026-04-04T10:07:58.006Z</time></trkpt><trkpt lat="41.0604517" lon="14.4027133"><ele>159.6</ele><time>2026-04-04T10:08:00.007Z</time></trkpt><trkpt lat="41.060365" lon="14.4026183"><ele>159.8</ele><time>2026-04-04T10:08:02.007Z</time></trkpt><trkpt lat="41.0602783" lon="14.4025283"><ele>160.0</ele><time>2026-04-04T10:08:04.007Z</time></trkpt><trkpt lat="41.0601983" lon="14.4024317"><ele>160.0</ele><time>2026-04-04T10:08:06.006Z</time></trkpt><trkpt lat="41.06011" lon="14.40234"><ele>160.0</ele><time>2026-04-04T10:08:08.006Z</time></trkpt><trkpt lat="41.0600317" lon="14.402245"><ele>160.0</ele><time>2026-04-04T10:08:10.005Z</time></trkpt><trkpt lat="41.0599467" lon="14.40216"><ele>160.0</ele><time>2026-04-04T10:08:12.006Z</time></trkpt><trkpt lat="41.0598833" lon="14.4020667"><ele>160.0</ele><time>2026-04-04T10:08:14.006Z</time></trkpt><trkpt lat="41.0598317" lon="14.4019633"><ele>160.66666666666669</ele><time>2026-04-04T10:08:16.006Z</time></trkpt><trkpt lat="41.0598033" lon="14.4018617"><ele>161.33333333333334</ele><time>2026-04-04T10:08:18.007Z</time></trkpt><trkpt lat="41.0597783" lon="14.4017683"><ele>162.0</ele><time>2026-04-04T10:08:20.006Z</time></trkpt><trkpt lat="41.0597883" lon="14.4016483"><ele>162.66666666666666</ele><time>2026-04-04T10:08:23.006Z</time></trkpt><trkpt lat="41.0598183" lon="14.401565"><ele>163.33333333333331</ele><time>2026-04-04T10:08:25.006Z</time></trkpt><trkpt lat="41.0598917" lon="14.4015417"><ele>164.0</ele><time>2026-04-04T10:08:28.006Z</time></trkpt><trkpt lat="41.0599633" lon="14.40157"><ele>164.66666666666666</ele><time>2026-04-04T10:08:30.006Z</time></trkpt><trkpt lat="41.0600317" lon="14.4015883"><ele>165.33333333333331</ele><time>2026-04-04T10:08:32.006Z</time></trkpt><trkpt lat="41.0601" lon="14.40162"><ele>166.0</ele><time>2026-04-04T10:08:34.006Z</time></trkpt><trkpt lat="41.060165" lon="14.4016967"><ele>166.66666666666666</ele><time>2026-04-04T10:08:37.006Z</time></trkpt><trkpt lat="41.06022" lon="14.4017883"><ele>167.33333333333334</ele><time>2026-04-04T10:08:40.006Z</time></trkpt><trkpt lat="41.060275" lon="14.4018517"><ele>168.0</ele><time>2026-04-04T10:08:42.006Z</time></trkpt><trkpt lat="41.0603517" lon="14.4019117"><ele>168.0</ele><time>2026-04-04T10:08:45.006Z</time></trkpt><trkpt lat="41.0604267" lon="14.4019717"><ele>168.0</ele><time>2026-04-04T10:08:48.007Z</time></trkpt><trkpt lat="41.0605033" lon="14.4020283"><ele>168.0</ele><time>2026-04-04T10:08:51.005Z</time></trkpt><trkpt lat="41.06057" lon="14.4020833"><ele>168.0</ele><time>2026-04-04T10:08:54.008Z</time></trkpt><trkpt lat="41.0606267" lon="14.4021333"><ele>168.0</ele><time>2026-04-04T10:08:57.006Z</time></trkpt><trkpt lat="41.060695" lon="14.4021917"><ele>168.0</ele><time>2026-04-04T10:09:00.009Z</time></trkpt><trkpt lat="41.060765" lon="14.4022633"><ele>168.16666666666666</ele><time>2026-04-04T10:09:03.006Z</time></trkpt><trkpt lat="41.06083" lon="14.4023183"><ele>168.33333333333334</ele><time>2026-04-04T10:09:06.01Z</time></trkpt><trkpt lat="41.060905" lon="14.4023817"><ele>168.5</ele><time>2026-04-04T10:09:09.006Z</time></trkpt><trkpt lat="41.0609783" lon="14.4024367"><ele>168.66666666666669</ele><time>2026-04-04T10:09:12.006Z</time></trkpt><trkpt lat="41.0610533" lon="14.4025083"><ele>168.83333333333334</ele><time>2026-04-04T10:09:15.007Z</time></trkpt><trkpt lat="41.0611167" lon="14.4025433"><ele>169.0</ele><time>2026-04-04T10:09:18.006Z</time></trkpt><trkpt lat="41.06118" lon="14.4025767"><ele>169.0</ele><time>2026-04-04T10:09:21.006Z</time></trkpt><trkpt lat="41.0612467" lon="14.4026167"><ele>169.0</ele><time>2026-04-04T10:09:24.006Z</time></trkpt><trkpt lat="41.0613217" lon="14.4026367"><ele>169.0</ele><time>2026-04-04T10:09:27.011Z</time></trkpt><trkpt lat="41.0613983" lon="14.4026533"><ele>169.0</ele><time>2026-04-04T10:09:30.007Z</time></trkpt><trkpt lat="41.061465" lon="14.4026717"><ele>169.0</ele><time>2026-04-04T10:09:33.006Z</time></trkpt><trkpt lat="41.0615433" lon="14.402675"><ele>169.0</ele><time>2026-04-04T10:09:37.006Z</time></trkpt><trkpt lat="41.0616" lon="14.4026383"><ele>169.0</ele><time>2026-04-04T10:09:40.006Z</time></trkpt><trkpt lat="41.0616483" lon="14.4025833"><ele>170.28571428571428</ele><time>2026-04-04T10:09:43.006Z</time></trkpt><trkpt lat="41.061695" lon="14.4025183"><ele>171.57142857142856</ele><time>2026-04-04T10:09:46.006Z</time></trkpt><trkpt lat="41.0617417" lon="14.4024267"><ele>172.85714285714283</ele><time>2026-04-04T10:09:50.011Z</time></trkpt><trkpt lat="41.06178" lon="14.4023483"><ele>174.14285714285714</ele><time>2026-04-04T10:09:53.006Z</time></trkpt><trkpt lat="41.0617967" lon="14.402265"><ele>175.42857142857142</ele><time>2026-04-04T10:09:56.006Z</time></trkpt><trkpt lat="41.0618083" lon="14.4021767"><ele>176.7142857142857</ele><time>2026-04-04T10:09:59.006Z</time></trkpt><trkpt lat="41.0618217" lon="14.40208"><ele>178.0</ele><time>2026-04-04T10:10:02.006Z</time></trkpt><trkpt lat="41.0618217" lon="14.4019867"><ele>179.85714285714283</ele><time>2026-04-04T10:10:05.014Z</time></trkpt><trkpt lat="41.0618233" lon="14.4018867"><ele>181.71428571428572</ele><time>2026-04-04T10:10:08.006Z</time></trkpt><trkpt lat="41.0618217" lon="14.4017817"><ele>183.57142857142856</ele><time>2026-04-04T10:10:11.006Z</time></trkpt><trkpt lat="41.0618417" lon="14.40169"><ele>185.42857142857142</ele><time>2026-04-04T10:10:14.006Z</time></trkpt><trkpt lat="41.06187" lon="14.4016067"><ele>187.28571428571428</ele><time>2026-04-04T10:10:17.006Z</time></trkpt><trkpt lat="41.06188" lon="14.401505"><ele>189.14285714285714</ele><time>2026-04-04T10:10:21.005Z</time></trkpt><trkpt lat="41.06185" lon="14.401415"><ele>191.0</ele><time>2026-04-04T10:10:25.007Z</time></trkpt><trkpt lat="41.06177" lon="14.40143"><ele>191.0</ele><time>2026-04-04T10:10:30.009Z</time></trkpt><trkpt lat="41.06171" lon="14.4014767"><ele>191.0</ele><time>2026-04-04T10:10:33.007Z</time></trkpt><trkpt lat="41.0616467" lon="14.4015217"><ele>191.0</ele><time>2026-04-04T10:10:37.006Z</time></trkpt><trkpt lat="41.0615783" lon="14.4015433"><ele>191.0</ele><time>2026-04-04T10:10:41.009Z</time></trkpt><trkpt lat="41.0615133" lon="14.40156"><ele>191.0</ele><time>2026-04-04T10:10:44.008Z</time></trkpt><trkpt lat="41.0614267" lon="14.401545"><ele>191.0</ele><time>2026-04-04T10:10:48.006Z</time></trkpt><trkpt lat="41.06135" lon="14.40152"><ele>191.0</ele><time>2026-04-04T10:10:51.007Z</time></trkpt><trkpt lat="41.06128" lon="14.4014883"><ele>190.16666666666666</ele><time>2026-04-04T10:10:54.006Z</time></trkpt><trkpt lat="41.0612133" lon="14.4014467"><ele>189.33333333333331</ele><time>2026-04-04T10:10:57.006Z</time></trkpt><trkpt lat="41.061165" lon="14.4013817"><ele>188.5</ele><time>2026-04-04T10:11:00.007Z</time></trkpt><trkpt lat="41.06111" lon="14.4013133"><ele>187.66666666666666</ele><time>2026-04-04T10:11:03.006Z</time></trkpt><trkpt lat="41.0610467" lon="14.4012433"><ele>186.83333333333334</ele><time>2026-04-04T10:11:06.007Z</time></trkpt><trkpt lat="41.0609833" lon="14.4011683"><ele>186.0</ele><time>2026-04-04T10:11:09.006Z</time></trkpt><trkpt lat="41.0609133" lon="14.4010883"><ele>185.83333333333334</ele><time>2026-04-04T10:11:12.01Z</time></trkpt><trkpt lat="41.0608483" lon="14.401"><ele>185.66666666666666</ele><time>2026-04-04T10:11:15.007Z</time></trkpt><trkpt lat="41.0607917" lon="14.4009067"><ele>185.5</ele><time>2026-04-04T10:11:18.007Z</time></trkpt><trkpt lat="41.0607467" lon="14.4008417"><ele>185.33333333333331</ele><time>2026-04-04T10:11:20.013Z</time></trkpt><trkpt lat="41.0606933" lon="14.4007883"><ele>185.16666666666666</ele><time>2026-04-04T10:11:22.007Z</time></trkpt><trkpt lat="41.0606483" lon="14.4007167"><ele>185.0</ele><time>2026-04-04T10:11:24.007Z</time></trkpt><trkpt lat="41.0606017" lon="14.4006533"><ele>184.99999999999997</ele><time>2026-04-04T10:11:26.011Z</time></trkpt><trkpt lat="41.0605617" lon="14.4005867"><ele>185.0</ele><time>2026-04-04T10:11:28.01Z</time></trkpt><trkpt lat="41.0605133" lon="14.40052"><ele>185.0</ele><time>2026-04-04T10:11:30.007Z</time></trkpt><trkpt lat="41.060465" lon="14.40046"><ele>185.0</ele><time>2026-04-04T10:11:32.007Z</time></trkpt><trkpt lat="41.0604083" lon="14.400405"><ele>185.0</ele><time>2026-04-04T10:11:34.006Z</time></trkpt><trkpt lat="41.0603383" lon="14.400335"><ele>184.99999999999997</ele><time>2026-04-04T10:11:37.009Z</time></trkpt><trkpt lat="41.0602817" lon="14.4002417"><ele>185.0</ele><time>2026-04-04T10:11:40.007Z</time></trkpt><trkpt lat="41.0602567" lon="14.400155"><ele>187.33333333333331</ele><time>2026-04-04T10:11:42.007Z</time></trkpt><trkpt lat="41.0602333" lon="14.400045"><ele>189.66666666666666</ele><time>2026-04-04T10:11:45.007Z</time></trkpt><trkpt lat="41.0602167" lon="14.3999467"><ele>192.0</ele><time>2026-04-04T10:11:48.006Z</time></trkpt><trkpt lat="41.0601967" lon="14.3998517"><ele>194.33333333333331</ele><time>2026-04-04T10:11:51.007Z</time></trkpt><trkpt lat="41.0601967" lon="14.3997417"><ele>196.66666666666666</ele><time>2026-04-04T10:11:54.007Z</time></trkpt><trkpt lat="41.06018" lon="14.3996433"><ele>199.0</ele><time>2026-04-04T10:11:57.006Z</time></trkpt><trkpt lat="41.06016" lon="14.3995467"><ele>200.83333333333331</ele><time>2026-04-04T10:12:00.007Z</time></trkpt><trkpt lat="41.060155" lon="14.39945"><ele>202.66666666666666</ele><time>2026-04-04T10:12:03.006Z</time></trkpt><trkpt lat="41.0601367" lon="14.3993383"><ele>204.5</ele><time>2026-04-04T10:12:06.008Z</time></trkpt><trkpt lat="41.0601183" lon="14.399225"><ele>206.33333333333331</ele><time>2026-04-04T10:12:09.007Z</time></trkpt><trkpt lat="41.060085" lon="14.39912"><ele>208.16666666666666</ele><time>2026-04-04T10:12:12.011Z</time></trkpt><trkpt lat="41.06005" lon="14.3990183"><ele>210.0</ele><time>2026-04-04T10:12:15.007Z</time></trkpt><trkpt lat="41.0600233" lon="14.3989167"><ele>210.0</ele><time>2026-04-04T10:12:18.007Z</time></trkpt><trkpt lat="41.060035" lon="14.3988183"><ele>210.0</ele><time>2026-04-04T10:12:21.006Z</time></trkpt><trkpt lat="41.060105" lon="14.398825"><ele>210.0</ele><time>2026-04-04T10:12:25.008Z</time></trkpt><trkpt lat="41.060155" lon="14.3989"><ele>210.0</ele><time>2026-04-04T10:12:28.006Z</time></trkpt><trkpt lat="41.0602017" lon="14.398985"><ele>210.0</ele><time>2026-04-04T10:12:31.007Z</time></trkpt><trkpt lat="41.060245" lon="14.3990583"><ele>210.0</ele><time>2026-04-04T10:12:34.009Z</time></trkpt><trkpt lat="41.0603083" lon="14.39914"><ele>210.0</ele><time>2026-04-04T10:12:37.006Z</time></trkpt><trkpt lat="41.0603633" lon="14.3992233"><ele>210.0</ele><time>2026-04-04T10:12:40.007Z</time></trkpt><trkpt lat="41.06041" lon="14.3992817"><ele>210.0</ele><time>2026-04-04T10:12:43.008Z</time></trkpt><trkpt lat="41.0604683" lon="14.3993633"><ele>210.0</ele><time>2026-04-04T10:12:46.008Z</time></trkpt><trkpt lat="41.060515" lon="14.3994283"><ele>210.0</ele><time>2026-04-04T10:12:48.009Z</time></trkpt><trkpt lat="41.0605717" lon="14.3995117"><ele>210.0</ele><time>2026-04-04T10:12:51.01Z</time></trkpt><trkpt lat="41.06063" lon="14.3995683"><ele>210.0</ele><time>2026-04-04T10:12:54.008Z</time></trkpt><trkpt lat="41.0607033" lon="14.399625"><ele>210.0</ele><time>2026-04-04T10:12:58.009Z</time></trkpt><trkpt lat="41.0607567" lon="14.3996783"><ele>210.0</ele><time>2026-04-04T10:13:01.01Z</time></trkpt><trkpt lat="41.06083" lon="14.3997267"><ele>210.0</ele><time>2026-04-04T10:13:05.01Z</time></trkpt><trkpt lat="41.0609067" lon="14.3997617"><ele>210.0</ele><time>2026-04-04T10:13:09.009Z</time></trkpt><trkpt lat="41.0609783" lon="14.3997767"><ele>210.0</ele><time>2026-04-04T10:13:12.009Z</time></trkpt><trkpt lat="41.0610533" lon="14.3997867"><ele>211.33333333333334</ele><time>2026-04-04T10:13:15.009Z</time></trkpt><trkpt lat="41.0611233" lon="14.3997667"><ele>212.66666666666669</ele><time>2026-04-04T10:13:18.009Z</time></trkpt><trkpt lat="41.0611933" lon="14.399715"><ele>214.0</ele><time>2026-04-04T10:13:21.008Z</time></trkpt><trkpt lat="41.06121" lon="14.39961"><ele>215.33333333333334</ele><time>2026-04-04T10:13:24.009Z</time></trkpt><trkpt lat="41.0611683" lon="14.39953"><ele>216.66666666666669</ele><time>2026-04-04T10:13:27.008Z</time></trkpt><trkpt lat="41.061095" lon="14.3994717"><ele>218.0</ele><time>2026-04-04T10:13:30.009Z</time></trkpt><trkpt lat="41.061025" lon="14.3994267"><ele>216.85714285714286</ele><time>2026-04-04T10:13:33.008Z</time></trkpt><trkpt lat="41.0609733" lon="14.3993533"><ele>215.71428571428572</ele><time>2026-04-04T10:13:36.011Z</time></trkpt><trkpt lat="41.0609283" lon="14.399275"><ele>214.57142857142856</ele><time>2026-04-04T10:13:39.008Z</time></trkpt><trkpt lat="41.0608767" lon="14.3991983"><ele>213.42857142857144</ele><time>2026-04-04T10:13:42.009Z</time></trkpt><trkpt lat="41.0608283" lon="14.3991217"><ele>212.28571428571428</ele><time>2026-04-04T10:13:45.008Z</time></trkpt><trkpt lat="41.0607883" lon="14.39905"><ele>211.14285714285714</ele><time>2026-04-04T10:13:48.007Z</time></trkpt><trkpt lat="41.0607517" lon="14.3989583"><ele>210.0</ele><time>2026-04-04T10:13:51.01Z</time></trkpt><trkpt lat="41.0607133" lon="14.3988517"><ele>211.66666666666666</ele><time>2026-04-04T10:13:54.009Z</time></trkpt><trkpt lat="41.0606933" lon="14.3987717"><ele>213.33333333333331</ele><time>2026-04-04T10:13:56.009Z</time></trkpt><trkpt lat="41.0606567" lon="14.3986633"><ele>215.0</ele><time>2026-04-04T10:13:59.009Z</time></trkpt><trkpt lat="41.0606383" lon="14.398545"><ele>216.66666666666666</ele><time>2026-04-04T10:14:02.009Z</time></trkpt><trkpt lat="41.0606317" lon="14.398455"><ele>218.33333333333331</ele><time>2026-04-04T10:14:04.007Z</time></trkpt><trkpt lat="41.0606333" lon="14.3983583"><ele>220.0</ele><time>2026-04-04T10:14:06.008Z</time></trkpt><trkpt lat="41.060635" lon="14.39827"><ele>219.99999999999997</ele><time>2026-04-04T10:14:08.008Z</time></trkpt><trkpt lat="41.06064" lon="14.3981867"><ele>220.0</ele><time>2026-04-04T10:14:10.007Z</time></trkpt><trkpt lat="41.0606483" lon="14.398075"><ele>220.0</ele><time>2026-04-04T10:14:13.007Z</time></trkpt><trkpt lat="41.060655" lon="14.39797"><ele>220.0</ele><time>2026-04-04T10:14:16.008Z</time></trkpt><trkpt lat="41.0606633" lon="14.3978517"><ele>219.99999999999997</ele><time>2026-04-04T10:14:19.009Z</time></trkpt><trkpt lat="41.0606667" lon="14.3977667"><ele>220.0</ele><time>2026-04-04T10:14:21.007Z</time></trkpt><trkpt lat="41.0606783" lon="14.39765"><ele>221.33333333333331</ele><time>2026-04-04T10:14:24.007Z</time></trkpt><trkpt lat="41.0606717" lon="14.397525"><ele>222.66666666666666</ele><time>2026-04-04T10:14:27.008Z</time></trkpt><trkpt lat="41.0606633" lon="14.3974033"><ele>224.0</ele><time>2026-04-04T10:14:30.009Z</time></trkpt><trkpt lat="41.06064" lon="14.3972867"><ele>225.33333333333331</ele><time>2026-04-04T10:14:33.007Z</time></trkpt><trkpt lat="41.0606167" lon="14.3971767"><ele>226.66666666666666</ele><time>2026-04-04T10:14:36.011Z</time></trkpt><trkpt lat="41.0605967" lon="14.3970667"><ele>228.0</ele><time>2026-04-04T10:14:39.008Z</time></trkpt><trkpt lat="41.0605767" lon="14.3969583"><ele>229.16666666666666</ele><time>2026-04-04T10:14:42.008Z</time></trkpt><trkpt lat="41.0605483" lon="14.3968567"><ele>230.33333333333331</ele><time>2026-04-04T10:14:45.006Z</time></trkpt><trkpt lat="41.0605133" lon="14.396755"><ele>231.5</ele><time>2026-04-04T10:14:48.01Z</time></trkpt><trkpt lat="41.06048" lon="14.3966583"><ele>232.66666666666666</ele><time>2026-04-04T10:14:51.007Z</time></trkpt><trkpt lat="41.0604367" lon="14.3965767"><ele>233.83333333333331</ele><time>2026-04-04T10:14:54.008Z</time></trkpt><trkpt lat="41.0603833" lon="14.39649"><ele>235.0</ele><time>2026-04-04T10:14:57.008Z</time></trkpt><trkpt lat="41.06034" lon="14.3963983"><ele>236.99999999999997</ele><time>2026-04-04T10:15:00.01Z</time></trkpt><trkpt lat="41.0602967" lon="14.39629"><ele>239.0</ele><time>2026-04-04T10:15:03.009Z</time></trkpt><trkpt lat="41.0602533" lon="14.39618"><ele>241.0</ele><time>2026-04-04T10:15:06.008Z</time></trkpt><trkpt lat="41.0602217" lon="14.396075"><ele>243.0</ele><time>2026-04-04T10:15:09.008Z</time></trkpt><trkpt lat="41.060195" lon="14.3959633"><ele>244.99999999999997</ele><time>2026-04-04T10:15:12.01Z</time></trkpt><trkpt lat="41.060165" lon="14.39586"><ele>247.0</ele><time>2026-04-04T10:15:15.007Z</time></trkpt><trkpt lat="41.06015" lon="14.395755"><ele>246.99999999999997</ele><time>2026-04-04T10:15:18.009Z</time></trkpt><trkpt lat="41.0601217" lon="14.3956583"><ele>247.0</ele><time>2026-04-04T10:15:21.007Z</time></trkpt><trkpt lat="41.0600983" lon="14.3955583"><ele>247.0</ele><time>2026-04-04T10:15:24.009Z</time></trkpt><trkpt lat="41.0600883" lon="14.3954517"><ele>247.0</ele><time>2026-04-04T10:15:27.007Z</time></trkpt><trkpt lat="41.0600867" lon="14.3953483"><ele>246.99999999999997</ele><time>2026-04-04T10:15:30.008Z</time></trkpt><trkpt lat="41.0600867" lon="14.39525"><ele>247.0</ele><time>2026-04-04T10:15:33.009Z</time></trkpt><trkpt lat="41.060095" lon="14.3951533"><ele>247.66666666666666</ele><time>2026-04-04T10:15:36.008Z</time></trkpt><trkpt lat="41.060115" lon="14.3950483"><ele>248.33333333333331</ele><time>2026-04-04T10:15:39.008Z</time></trkpt><trkpt lat="41.0601367" lon="14.394945"><ele>249.0</ele><time>2026-04-04T10:15:42.008Z</time></trkpt><trkpt lat="41.0601633" lon="14.3948367"><ele>249.66666666666669</ele><time>2026-04-04T10:15:45.009Z</time></trkpt><trkpt lat="41.0601933" lon="14.3947317"><ele>250.33333333333334</ele><time>2026-04-04T10:15:48.009Z</time></trkpt><trkpt lat="41.0602283" lon="14.3946217"><ele>251.0</ele><time>2026-04-04T10:15:51.008Z</time></trkpt><trkpt lat="41.0602667" lon="14.3945317"><ele>251.00000000000003</ele><time>2026-04-04T10:15:54.008Z</time></trkpt><trkpt lat="41.0602933" lon="14.3944367"><ele>251.0</ele><time>2026-04-04T10:15:57.009Z</time></trkpt><trkpt lat="41.060335" lon="14.3943517"><ele>251.0</ele><time>2026-04-04T10:16:00.009Z</time></trkpt><trkpt lat="41.06038" lon="14.3942617"><ele>251.0</ele><time>2026-04-04T10:16:04.007Z</time></trkpt><trkpt lat="41.060425" lon="14.3941917"><ele>251.00000000000003</ele><time>2026-04-04T10:16:07.008Z</time></trkpt><trkpt lat="41.060465" lon="14.394095"><ele>251.0</ele><time>2026-04-04T10:16:10.009Z</time></trkpt><trkpt lat="41.0605017" lon="14.3939967"><ele>251.00000000000003</ele><time>2026-04-04T10:16:13.009Z</time></trkpt><trkpt lat="41.0605433" lon="14.3939067"><ele>251.0</ele><time>2026-04-04T10:16:16.008Z</time></trkpt><trkpt lat="41.0605733" lon="14.3937983"><ele>251.0</ele><time>2026-04-04T10:16:19.009Z</time></trkpt><trkpt lat="41.06061" lon="14.393705"><ele>251.0</ele><time>2026-04-04T10:16:22.007Z</time></trkpt><trkpt lat="41.0606483" lon="14.393605"><ele>251.00000000000003</ele><time>2026-04-04T10:16:25.007Z</time></trkpt><trkpt lat="41.060685" lon="14.3934983"><ele>251.0</ele><time>2026-04-04T10:16:28.008Z</time></trkpt><trkpt lat="41.0607217" lon="14.3934"><ele>250.66666666666669</ele><time>2026-04-04T10:16:31.008Z</time></trkpt><trkpt lat="41.0607467" lon="14.3932917"><ele>250.33333333333334</ele><time>2026-04-04T10:16:34.008Z</time></trkpt><trkpt lat="41.0607867" lon="14.3931867"><ele>250.0</ele><time>2026-04-04T10:16:37.006Z</time></trkpt><trkpt lat="41.0608217" lon="14.39309"><ele>249.66666666666669</ele><time>2026-04-04T10:16:40.008Z</time></trkpt><trkpt lat="41.0608633" lon="14.3929867"><ele>249.33333333333334</ele><time>2026-04-04T10:16:43.008Z</time></trkpt><trkpt lat="41.0609117" lon="14.3929"><ele>249.0</ele><time>2026-04-04T10:16:46.007Z</time></trkpt><trkpt lat="41.060955" lon="14.3928033"><ele>252.33333333333334</ele><time>2026-04-04T10:16:49.01Z</time></trkpt><trkpt lat="41.06099" lon="14.3926983"><ele>255.66666666666669</ele><time>2026-04-04T10:16:52.007Z</time></trkpt><trkpt lat="41.0610383" lon="14.3925917"><ele>259.0</ele><time>2026-04-04T10:16:55.009Z</time></trkpt><trkpt lat="41.0610883" lon="14.3924833"><ele>262.33333333333337</ele><time>2026-04-04T10:16:58.005Z</time></trkpt><trkpt lat="41.0611417" lon="14.3923917"><ele>265.6666666666667</ele><time>2026-04-04T10:17:01.008Z</time></trkpt><trkpt lat="41.0611967" lon="14.39231"><ele>269.0</ele><time>2026-04-04T10:17:04.008Z</time></trkpt><trkpt lat="41.0612533" lon="14.3922283"><ele>270.1666666666667</ele><time>2026-04-04T10:17:07.008Z</time></trkpt><trkpt lat="41.0613183" lon="14.39215"><ele>271.33333333333337</ele><time>2026-04-04T10:17:10.01Z</time></trkpt><trkpt lat="41.0613633" lon="14.3920617"><ele>272.5</ele><time>2026-04-04T10:17:13.01Z</time></trkpt><trkpt lat="41.061405" lon="14.391965"><ele>273.6666666666667</ele><time>2026-04-04T10:17:16.007Z</time></trkpt><trkpt lat="41.0614617" lon="14.3918717"><ele>274.8333333333333</ele><time>2026-04-04T10:17:19.006Z</time></trkpt><trkpt lat="41.0615217" lon="14.39179"><ele>276.0</ele><time>2026-04-04T10:17:22.007Z</time></trkpt><trkpt lat="41.0615817" lon="14.39171"><ele>276.8333333333333</ele><time>2026-04-04T10:17:25.008Z</time></trkpt><trkpt lat="41.0616533" lon="14.3916567"><ele>277.6666666666667</ele><time>2026-04-04T10:17:28.009Z</time></trkpt><trkpt lat="41.061725" lon="14.3916383"><ele>278.5</ele><time>2026-04-04T10:17:31.008Z</time></trkpt><trkpt lat="41.0618033" lon="14.39164"><ele>279.33333333333337</ele><time>2026-04-04T10:17:34.008Z</time></trkpt><trkpt lat="41.0618833" lon="14.3916433"><ele>280.1666666666667</ele><time>2026-04-04T10:17:37.008Z</time></trkpt><trkpt lat="41.0619667" lon="14.3916617"><ele>281.0</ele><time>2026-04-04T10:17:40.008Z</time></trkpt><trkpt lat="41.0620517" lon="14.39167"><ele>281.0</ele><time>2026-04-04T10:17:43.007Z</time></trkpt><trkpt lat="41.062125" lon="14.3916783"><ele>281.0</ele><time>2026-04-04T10:17:46.007Z</time></trkpt><trkpt lat="41.0622083" lon="14.3916917"><ele>281.0</ele><time>2026-04-04T10:17:49.008Z</time></trkpt><trkpt lat="41.0622733" lon="14.3916983"><ele>281.0</ele><time>2026-04-04T10:17:51.008Z</time></trkpt><trkpt lat="41.0623617" lon="14.39171"><ele>281.0</ele><time>2026-04-04T10:17:54.01Z</time></trkpt><trkpt lat="41.06245" lon="14.391715"><ele>281.0</ele><time>2026-04-04T10:17:57.008Z</time></trkpt><trkpt lat="41.062515" lon="14.3917217"><ele>282.33333333333337</ele><time>2026-04-04T10:17:59.008Z</time></trkpt><trkpt lat="41.0625783" lon="14.39173"><ele>283.6666666666667</ele><time>2026-04-04T10:18:01.006Z</time></trkpt><trkpt lat="41.062665" lon="14.391755"><ele>285.0</ele><time>2026-04-04T10:18:04.009Z</time></trkpt><trkpt lat="41.0627317" lon="14.3918083"><ele>286.3333333333333</ele><time>2026-04-04T10:18:07.008Z</time></trkpt><trkpt lat="41.0628017" lon="14.39187"><ele>287.66666666666663</ele><time>2026-04-04T10:18:10.007Z</time></trkpt><trkpt lat="41.062865" lon="14.3919333"><ele>289.0</ele><time>2026-04-04T10:18:13.007Z</time></trkpt><trkpt lat="41.062925" lon="14.39197"><ele>289.0</ele><time>2026-04-04T10:18:16.008Z</time></trkpt><trkpt lat="41.0629917" lon="14.39198"><ele>289.0</ele><time>2026-04-04T10:18:19.007Z</time></trkpt><trkpt lat="41.063055" lon="14.3919267"><ele>289.0</ele><time>2026-04-04T10:18:22.007Z</time></trkpt><trkpt lat="41.06307" lon="14.39183"><ele>289.0</ele><time>2026-04-04T10:18:25.007Z</time></trkpt><trkpt lat="41.0630217" lon="14.3917233"><ele>289.0</ele><time>2026-04-04T10:18:28.007Z</time></trkpt><trkpt lat="41.0629733" lon="14.3916533"><ele>289.0</ele><time>2026-04-04T10:18:30.007Z</time></trkpt><trkpt lat="41.0629267" lon="14.3915883"><ele>289.0</ele><time>2026-04-04T10:18:32.007Z</time></trkpt><trkpt lat="41.06286" lon="14.3915017"><ele>289.0</ele><time>2026-04-04T10:18:35.007Z</time></trkpt><trkpt lat="41.0627967" lon="14.3914283"><ele>289.0</ele><time>2026-04-04T10:18:38.008Z</time></trkpt><trkpt lat="41.0627283" lon="14.3913783"><ele>289.0</ele><time>2026-04-04T10:18:41.007Z</time></trkpt><trkpt lat="41.0626517" lon="14.3913183"><ele>289.0</ele><time>2026-04-04T10:18:44.008Z</time></trkpt><trkpt lat="41.062585" lon="14.391255"><ele>289.0</ele><time>2026-04-04T10:18:47.008Z</time></trkpt><trkpt lat="41.0625267" lon="14.3911933"><ele>289.66666666666663</ele><time>2026-04-04T10:18:50.007Z</time></trkpt><trkpt lat="41.0624683" lon="14.3911167"><ele>290.3333333333333</ele><time>2026-04-04T10:18:53.007Z</time></trkpt><trkpt lat="41.062395" lon="14.3910383"><ele>291.0</ele><time>2026-04-04T10:18:56.007Z</time></trkpt><trkpt lat="41.0623283" lon="14.3909683"><ele>291.6666666666667</ele><time>2026-04-04T10:18:58.006Z</time></trkpt><trkpt lat="41.0622783" lon="14.390895"><ele>292.33333333333337</ele><time>2026-04-04T10:19:00.007Z</time></trkpt><trkpt lat="41.0622167" lon="14.3908467"><ele>293.0</ele><time>2026-04-04T10:19:03.007Z</time></trkpt><trkpt lat="41.06216" lon="14.3907783"><ele>293.0</ele><time>2026-04-04T10:19:06.009Z</time></trkpt><trkpt lat="41.0621167" lon="14.39069"><ele>293.0</ele><time>2026-04-04T10:19:09.009Z</time></trkpt><trkpt lat="41.0620717" lon="14.3905967"><ele>293.0</ele><time>2026-04-04T10:19:12.009Z</time></trkpt><trkpt lat="41.0620117" lon="14.3905083"><ele>293.0</ele><time>2026-04-04T10:19:15.007Z</time></trkpt><trkpt lat="41.06196" lon="14.390405"><ele>293.0</ele><time>2026-04-04T10:19:18.008Z</time></trkpt><trkpt lat="41.06191" lon="14.3903083"><ele>293.0</ele><time>2026-04-04T10:19:21.008Z</time></trkpt><trkpt lat="41.0618733" lon="14.39024"><ele>295.33333333333337</ele><time>2026-04-04T10:19:23.008Z</time></trkpt><trkpt lat="41.0618433" lon="14.3901633"><ele>297.6666666666667</ele><time>2026-04-04T10:19:25.007Z</time></trkpt><trkpt lat="41.0618033" lon="14.3900933"><ele>300.0</ele><time>2026-04-04T10:19:27.01Z</time></trkpt><trkpt lat="41.06177" lon="14.3900217"><ele>302.3333333333333</ele><time>2026-04-04T10:19:29.007Z</time></trkpt><trkpt lat="41.061715" lon="14.3899183"><ele>304.66666666666663</ele><time>2026-04-04T10:19:32.007Z</time></trkpt><trkpt lat="41.0616567" lon="14.3898267"><ele>307.0</ele><time>2026-04-04T10:19:35.007Z</time></trkpt><trkpt lat="41.0616217" lon="14.38971"><ele>307.8333333333333</ele><time>2026-04-04T10:19:38.008Z</time></trkpt><trkpt lat="41.06164" lon="14.38959"><ele>308.66666666666663</ele><time>2026-04-04T10:19:41.008Z</time></trkpt><trkpt lat="41.0616917" lon="14.3894867"><ele>309.5</ele><time>2026-04-04T10:19:44.009Z</time></trkpt><trkpt lat="41.0617417" lon="14.389405"><ele>310.3333333333333</ele><time>2026-04-04T10:19:47.007Z</time></trkpt><trkpt lat="41.0618033" lon="14.3894467"><ele>311.1666666666667</ele><time>2026-04-04T10:19:51.008Z</time></trkpt><trkpt lat="41.06187" lon="14.3894717"><ele>312.0</ele><time>2026-04-04T10:19:54.007Z</time></trkpt><trkpt lat="41.0618633" lon="14.3893867"><ele>312.0</ele><time>2026-04-04T10:19:57.008Z</time></trkpt><trkpt lat="41.06178" lon="14.3893367"><ele>312.0</ele><time>2026-04-04T10:20:52.007Z</time></trkpt><trkpt lat="41.0616967" lon="14.3893017"><ele>312.0</ele><time>2026-04-04T10:20:55.007Z</time></trkpt><trkpt lat="41.0616267" lon="14.3892833"><ele>312.0</ele><time>2026-04-04T10:20:58.008Z</time></trkpt><trkpt lat="41.0615483" lon="14.389235"><ele>312.0</ele><time>2026-04-04T10:21:02.009Z</time></trkpt><trkpt lat="41.061475" lon="14.3891933"><ele>312.0</ele><time>2026-04-04T10:21:06.008Z</time></trkpt><trkpt lat="41.0614017" lon="14.3891583"><ele>312.7142857142857</ele><time>2026-04-04T10:21:10.009Z</time></trkpt><trkpt lat="41.061335" lon="14.3891217"><ele>313.4285714285714</ele><time>2026-04-04T10:21:14.009Z</time></trkpt><trkpt lat="41.061275" lon="14.3890917"><ele>314.1428571428571</ele><time>2026-04-04T10:21:17.009Z</time></trkpt><trkpt lat="41.061215" lon="14.38906"><ele>314.8571428571429</ele><time>2026-04-04T10:21:20.009Z</time></trkpt><trkpt lat="41.061145" lon="14.38902"><ele>315.57142857142856</ele><time>2026-04-04T10:21:24.009Z</time></trkpt><trkpt lat="41.061085" lon="14.3889767"><ele>316.2857142857143</ele><time>2026-04-04T10:21:29.008Z</time></trkpt><trkpt lat="41.0610217" lon="14.3889167"><ele>317.0</ele><time>2026-04-04T10:21:34.008Z</time></trkpt><trkpt lat="41.0609667" lon="14.3888683"><ele>317.8571428571429</ele><time>2026-04-04T10:21:39.009Z</time></trkpt><trkpt lat="41.060905" lon="14.3888267"><ele>318.7142857142857</ele><time>2026-04-04T10:21:44.009Z</time></trkpt><trkpt lat="41.0608283" lon="14.3887933"><ele>319.57142857142856</ele><time>2026-04-04T10:21:48.007Z</time></trkpt><trkpt lat="41.0607617" lon="14.3887583"><ele>320.42857142857144</ele><time>2026-04-04T10:21:52.009Z</time></trkpt><trkpt lat="41.0607" lon="14.388725"><ele>321.2857142857143</ele><time>2026-04-04T10:21:56.009Z</time></trkpt><trkpt lat="41.0606267" lon="14.3886917"><ele>322.14285714285717</ele><time>2026-04-04T10:22:00.009Z</time></trkpt><trkpt lat="41.0605667" lon="14.3886417"><ele>323.0</ele><time>2026-04-04T10:22:04.007Z</time></trkpt><trkpt lat="41.0604983" lon="14.388595"><ele>325.00000000000006</ele><time>2026-04-04T10:22:08.008Z</time></trkpt><trkpt lat="41.0604383" lon="14.3885533"><ele>327.0</ele><time>2026-04-04T10:22:12.009Z</time></trkpt><trkpt lat="41.0603833" lon="14.3884933"><ele>329.0</ele><time>2026-04-04T10:22:17.009Z</time></trkpt><trkpt lat="41.0603167" lon="14.3884467"><ele>331.0</ele><time>2026-04-04T10:22:22.008Z</time></trkpt><trkpt lat="41.0602417" lon="14.38841"><ele>333.0</ele><time>2026-04-04T10:22:27.009Z</time></trkpt><trkpt lat="41.06018" lon="14.3883733"><ele>335.00000000000006</ele><time>2026-04-04T10:22:31.009Z</time></trkpt><trkpt lat="41.0601133" lon="14.3883183"><ele>337.0</ele><time>2026-04-04T10:22:36.009Z</time></trkpt><trkpt lat="41.0600433" lon="14.3882833"><ele>337.00000000000006</ele><time>2026-04-04T10:22:41.009Z</time></trkpt><trkpt lat="41.0599717" lon="14.3882433"><ele>337.0</ele><time>2026-04-04T10:22:46.008Z</time></trkpt><trkpt lat="41.0598983" lon="14.3882"><ele>337.0</ele><time>2026-04-04T10:22:51.009Z</time></trkpt><trkpt lat="41.059835" lon="14.3881717"><ele>337.0</ele><time>2026-04-04T10:22:55.01Z</time></trkpt><trkpt lat="41.0597667" lon="14.38814"><ele>337.0</ele><time>2026-04-04T10:22:59.008Z</time></trkpt><trkpt lat="41.0597033" lon="14.388105"><ele>337.00000000000006</ele><time>2026-04-04T10:23:03.008Z</time></trkpt><trkpt lat="41.0596433" lon="14.3880617"><ele>337.0</ele><time>2026-04-04T10:23:07.008Z</time></trkpt><trkpt lat="41.05959" lon="14.3880083"><ele>338.28571428571433</ele><time>2026-04-04T10:23:11.008Z</time></trkpt><trkpt lat="41.0595333" lon="14.3879517"><ele>339.57142857142856</ele><time>2026-04-04T10:23:15.009Z</time></trkpt><trkpt lat="41.0594933" lon="14.387875"><ele>340.8571428571429</ele><time>2026-04-04T10:23:19.007Z</time></trkpt><trkpt lat="41.05944" lon="14.387815"><ele>342.14285714285717</ele><time>2026-04-04T10:23:23.009Z</time></trkpt><trkpt lat="41.0593867" lon="14.3877533"><ele>343.42857142857144</ele><time>2026-04-04T10:23:27.008Z</time></trkpt><trkpt lat="41.0593333" lon="14.3876967"><ele>344.7142857142857</ele><time>2026-04-04T10:23:31.008Z</time></trkpt><trkpt lat="41.0592733" lon="14.38764"><ele>346.0</ele><time>2026-04-04T10:23:35.008Z</time></trkpt><trkpt lat="41.05922" lon="14.3875817"><ele>346.0</ele><time>2026-04-04T10:23:39.008Z</time></trkpt><trkpt lat="41.059175" lon="14.38749"><ele>346.0</ele><time>2026-04-04T10:23:43.008Z</time></trkpt><trkpt lat="41.059145" lon="14.3873867"><ele>346.0</ele><time>2026-04-04T10:23:47.006Z</time></trkpt><trkpt lat="41.059125" lon="14.3872867"><ele>346.0</ele><time>2026-04-04T10:23:51.008Z</time></trkpt><trkpt lat="41.0591217" lon="14.3872033"><ele>346.0</ele><time>2026-04-04T10:23:54.008Z</time></trkpt><trkpt lat="41.0590817" lon="14.387125"><ele>346.0</ele><time>2026-04-04T10:23:57.006Z</time></trkpt><trkpt lat="41.0590583" lon="14.387035"><ele>346.16666666666663</ele><time>2026-04-04T10:24:00.008Z</time></trkpt><trkpt lat="41.059035" lon="14.3869283"><ele>346.3333333333333</ele><time>2026-04-04T10:24:04.006Z</time></trkpt><trkpt lat="41.059" lon="14.38683"><ele>346.5</ele><time>2026-04-04T10:24:07.008Z</time></trkpt><trkpt lat="41.0589583" lon="14.3867217"><ele>346.6666666666667</ele><time>2026-04-04T10:24:10.007Z</time></trkpt><trkpt lat="41.0589283" lon="14.386635"><ele>346.83333333333337</ele><time>2026-04-04T10:24:12.007Z</time></trkpt><trkpt lat="41.0589083" lon="14.386535"><ele>347.0</ele><time>2026-04-04T10:24:14.007Z</time></trkpt><trkpt lat="41.0588883" lon="14.3864333"><ele>349.42857142857144</ele><time>2026-04-04T10:24:16.008Z</time></trkpt><trkpt lat="41.0588833" lon="14.3863283"><ele>351.85714285714283</ele><time>2026-04-04T10:24:18.007Z</time></trkpt><trkpt lat="41.0588767" lon="14.38623"><ele>354.2857142857143</ele><time>2026-04-04T10:24:20.008Z</time></trkpt><trkpt lat="41.0588733" lon="14.3861317"><ele>356.7142857142857</ele><time>2026-04-04T10:24:22.008Z</time></trkpt><trkpt lat="41.0588783" lon="14.3860367"><ele>359.1428571428571</ele><time>2026-04-04T10:24:24.008Z</time></trkpt><trkpt lat="41.0588783" lon="14.3859467"><ele>361.57142857142856</ele><time>2026-04-04T10:24:26.008Z</time></trkpt><trkpt lat="41.0588767" lon="14.3858533"><ele>364.0</ele><time>2026-04-04T10:24:28.006Z</time></trkpt><trkpt lat="41.0588733" lon="14.38576"><ele>364.0</ele><time>2026-04-04T10:24:30.007Z</time></trkpt><trkpt lat="41.05887" lon="14.3856667"><ele>364.0</ele><time>2026-04-04T10:24:32.006Z</time></trkpt><trkpt lat="41.0588717" lon="14.3855783"><ele>364.0</ele><time>2026-04-04T10:24:34.007Z</time></trkpt><trkpt lat="41.058875" lon="14.385455"><ele>364.0</ele><time>2026-04-04T10:24:37.007Z</time></trkpt><trkpt lat="41.05888" lon="14.3853283"><ele>364.0</ele><time>2026-04-04T10:24:40.008Z</time></trkpt><trkpt lat="41.0588767" lon="14.3852033"><ele>364.0</ele><time>2026-04-04T10:24:43.008Z</time></trkpt><trkpt lat="41.058875" lon="14.3851133"><ele>363.8333333333333</ele><time>2026-04-04T10:24:45.007Z</time></trkpt><trkpt lat="41.0588767" lon="14.3850217"><ele>363.66666666666663</ele><time>2026-04-04T10:24:47.008Z</time></trkpt><trkpt lat="41.05887" lon="14.3849317"><ele>363.5</ele><time>2026-04-04T10:24:49.009Z</time></trkpt><trkpt lat="41.0588383" lon="14.384845"><ele>363.3333333333333</ele><time>2026-04-04T10:24:51.007Z</time></trkpt><trkpt lat="41.0587733" lon="14.384775"><ele>363.1666666666667</ele><time>2026-04-04T10:24:53.01Z</time></trkpt><trkpt lat="41.05868" lon="14.3847417"><ele>363.0</ele><time>2026-04-04T10:24:55.008Z</time></trkpt><trkpt lat="41.0585833" lon="14.3847317"><ele>363.0</ele><time>2026-04-04T10:24:57.009Z</time></trkpt><trkpt lat="41.058495" lon="14.38475"><ele>363.0</ele><time>2026-04-04T10:24:59.009Z</time></trkpt><trkpt lat="41.05842" lon="14.384785"><ele>363.0</ele><time>2026-04-04T10:25:01.006Z</time></trkpt><trkpt lat="41.0583617" lon="14.38487"><ele>363.0</ele><time>2026-04-04T10:25:04.008Z</time></trkpt><trkpt lat="41.0583333" lon="14.384965"><ele>363.0</ele><time>2026-04-04T10:25:07.007Z</time></trkpt><trkpt lat="41.0583083" lon="14.3850433"><ele>363.0</ele><time>2026-04-04T10:25:10.006Z</time></trkpt><trkpt lat="41.058275" lon="14.38512"><ele>364.85714285714283</ele><time>2026-04-04T10:25:13.007Z</time></trkpt><trkpt lat="41.0582483" lon="14.3852183"><ele>366.7142857142857</ele><time>2026-04-04T10:25:17.009Z</time></trkpt><trkpt lat="41.0582233" lon="14.3853167"><ele>368.57142857142856</ele><time>2026-04-04T10:25:21.008Z</time></trkpt><trkpt lat="41.0581883" lon="14.3854117"><ele>370.42857142857144</ele><time>2026-04-04T10:25:25.008Z</time></trkpt><trkpt lat="41.05815" lon="14.385485"><ele>372.2857142857143</ele><time>2026-04-04T10:25:29.008Z</time></trkpt><trkpt lat="41.0581033" lon="14.3855633"><ele>374.1428571428571</ele><time>2026-04-04T10:25:34.007Z</time></trkpt><trkpt lat="41.05805" lon="14.3856217"><ele>376.0</ele><time>2026-04-04T10:25:38.006Z</time></trkpt><trkpt lat="41.05801" lon="14.385705"><ele>377.2857142857143</ele><time>2026-04-04T10:25:42.01Z</time></trkpt><trkpt lat="41.057955" lon="14.385765"><ele>378.57142857142856</ele><time>2026-04-04T10:25:46.008Z</time></trkpt><trkpt lat="41.0578983" lon="14.3858367"><ele>379.8571428571429</ele><time>2026-04-04T10:25:50.008Z</time></trkpt><trkpt lat="41.0578483" lon="14.38591"><ele>381.1428571428571</ele><time>2026-04-04T10:25:54.008Z</time></trkpt><trkpt lat="41.0577933" lon="14.3859783"><ele>382.42857142857144</ele><time>2026-04-04T10:25:58.007Z</time></trkpt><trkpt lat="41.0577383" lon="14.3860467"><ele>383.7142857142857</ele><time>2026-04-04T10:26:02.007Z</time></trkpt><trkpt lat="41.0576833" lon="14.3861117"><ele>385.0</ele><time>2026-04-04T10:26:06.007Z</time></trkpt><trkpt lat="41.0576167" lon="14.38617"><ele>385.0</ele><time>2026-04-04T10:26:10.008Z</time></trkpt><trkpt lat="41.057565" lon="14.38622"><ele>385.0</ele><time>2026-04-04T10:26:14.007Z</time></trkpt><trkpt lat="41.057505" lon="14.3862667"><ele>385.0</ele><time>2026-04-04T10:26:19.008Z</time></trkpt><trkpt lat="41.0574483" lon="14.3863083"><ele>385.0</ele><time>2026-04-04T10:26:23.007Z</time></trkpt><trkpt lat="41.0573817" lon="14.3863467"><ele>385.0</ele><time>2026-04-04T10:26:28.007Z</time></trkpt><trkpt lat="41.0573133" lon="14.38638"><ele>385.0</ele><time>2026-04-04T10:26:33.007Z</time></trkpt><trkpt lat="41.05725" lon="14.3864083"><ele>385.0</ele><time>2026-04-04T10:26:37.007Z</time></trkpt><trkpt lat="41.057185" lon="14.3864367"><ele>385.50000000000006</ele><time>2026-04-04T10:26:41.009Z</time></trkpt><trkpt lat="41.0571067" lon="14.386455"><ele>386.0</ele><time>2026-04-04T10:26:45.009Z</time></trkpt><trkpt lat="41.05703" lon="14.3864883"><ele>386.5</ele><time>2026-04-04T10:26:49.009Z</time></trkpt><trkpt lat="41.0569567" lon="14.3865117"><ele>387.0</ele><time>2026-04-04T10:26:53.008Z</time></trkpt><trkpt lat="41.0568883" lon="14.38653"><ele>387.50000000000006</ele><time>2026-04-04T10:26:57.008Z</time></trkpt><trkpt lat="41.0568133" lon="14.386545"><ele>388.0</ele><time>2026-04-04T10:27:01.007Z</time></trkpt><trkpt lat="41.056735" lon="14.3865617"><ele>388.0</ele><time>2026-04-04T10:27:06.008Z</time></trkpt><trkpt lat="41.0566667" lon="14.3865767"><ele>388.0</ele><time>2026-04-04T10:27:09.007Z</time></trkpt><trkpt lat="41.0565983" lon="14.38659"><ele>388.0</ele><time>2026-04-04T10:27:12.009Z</time></trkpt><trkpt lat="41.0565333" lon="14.3866183"><ele>388.0</ele><time>2026-04-04T10:27:16.007Z</time></trkpt><trkpt lat="41.056455" lon="14.3866333"><ele>388.0</ele><time>2026-04-04T10:27:20.007Z</time></trkpt><trkpt lat="41.05639" lon="14.3866417"><ele>388.0</ele><time>2026-04-04T10:27:23.007Z</time></trkpt><trkpt lat="41.0563183" lon="14.3866583"><ele>388.0</ele><time>2026-04-04T10:27:26.009Z</time></trkpt><trkpt lat="41.0562417" lon="14.38668"><ele>388.83333333333337</ele><time>2026-04-04T10:27:29.008Z</time></trkpt><trkpt lat="41.0561617" lon="14.3866983"><ele>389.6666666666667</ele><time>2026-04-04T10:27:32.008Z</time></trkpt><trkpt lat="41.0560967" lon="14.386715"><ele>390.5</ele><time>2026-04-04T10:27:35.01Z</time></trkpt><trkpt lat="41.0560183" lon="14.3867533"><ele>391.33333333333337</ele><time>2026-04-04T10:27:38.01Z</time></trkpt><trkpt lat="41.055935" lon="14.3867883"><ele>392.1666666666667</ele><time>2026-04-04T10:27:41.009Z</time></trkpt><trkpt lat="41.05585" lon="14.38683"><ele>393.0</ele><time>2026-04-04T10:27:44.008Z</time></trkpt><trkpt lat="41.0557933" lon="14.3868683"><ele>391.3333333333333</ele><time>2026-04-04T10:27:46.006Z</time></trkpt><trkpt lat="41.055735" lon="14.3869033"><ele>389.6666666666667</ele><time>2026-04-04T10:27:48.007Z</time></trkpt><trkpt lat="41.05565" lon="14.38695"><ele>388.0</ele><time>2026-04-04T10:27:51.009Z</time></trkpt><trkpt lat="41.055565" lon="14.386985"><ele>386.33333333333337</ele><time>2026-04-04T10:27:54.009Z</time></trkpt><trkpt lat="41.0554783" lon="14.3870267"><ele>384.6666666666667</ele><time>2026-04-04T10:27:57.008Z</time></trkpt><trkpt lat="41.0553933" lon="14.3870583"><ele>383.0</ele><time>2026-04-04T10:28:00.008Z</time></trkpt><trkpt lat="41.0553083" lon="14.38708"><ele>383.0</ele><time>2026-04-04T10:28:03.008Z</time></trkpt><trkpt lat="41.0552283" lon="14.3871"><ele>383.0</ele><time>2026-04-04T10:28:06.008Z</time></trkpt><trkpt lat="41.0551533" lon="14.387125"><ele>383.0</ele><time>2026-04-04T10:28:09.01Z</time></trkpt><trkpt lat="41.0550733" lon="14.3871567"><ele>383.0</ele><time>2026-04-04T10:28:12.008Z</time></trkpt><trkpt lat="41.05501" lon="14.3871717"><ele>383.0</ele><time>2026-04-04T10:28:14.01Z</time></trkpt><trkpt lat="41.054945" lon="14.3871983"><ele>383.0</ele><time>2026-04-04T10:28:16.008Z</time></trkpt><trkpt lat="41.0548767" lon="14.38722"><ele>383.0</ele><time>2026-04-04T10:28:18.009Z</time></trkpt><trkpt lat="41.0548083" lon="14.3872433"><ele>385.59999999999997</ele><time>2026-04-04T10:28:20.008Z</time></trkpt><trkpt lat="41.054735" lon="14.38727"><ele>388.2</ele><time>2026-04-04T10:28:22.008Z</time></trkpt><trkpt lat="41.054655" lon="14.3872967"><ele>390.8</ele><time>2026-04-04T10:28:24.007Z</time></trkpt><trkpt lat="41.0545567" lon="14.387315"><ele>393.4</ele><time>2026-04-04T10:28:26.009Z</time></trkpt><trkpt lat="41.05445" lon="14.3873283"><ele>396.0</ele><time>2026-04-04T10:28:28.008Z</time></trkpt><trkpt lat="41.0543467" lon="14.3873583"><ele>396.0</ele><time>2026-04-04T10:28:30.008Z</time></trkpt><trkpt lat="41.054245" lon="14.3873817"><ele>396.0</ele><time>2026-04-04T10:28:32.007Z</time></trkpt><trkpt lat="41.054145" lon="14.3873867"><ele>396.0</ele><time>2026-04-04T10:28:34.007Z</time></trkpt><trkpt lat="41.0540483" lon="14.3873783"><ele>396.0</ele><time>2026-04-04T10:28:36.01Z</time></trkpt><trkpt lat="41.0539583" lon="14.3873833"><ele>396.0</ele><time>2026-04-04T10:28:38.007Z</time></trkpt><trkpt lat="41.0538817" lon="14.3873867"><ele>397.1666666666667</ele><time>2026-04-04T10:28:40.008Z</time></trkpt><trkpt lat="41.05381" lon="14.3873667"><ele>398.33333333333337</ele><time>2026-04-04T10:28:42.009Z</time></trkpt><trkpt lat="41.0537267" lon="14.3873483"><ele>399.5</ele><time>2026-04-04T10:28:45.007Z</time></trkpt><trkpt lat="41.0536433" lon="14.3873317"><ele>400.6666666666667</ele><time>2026-04-04T10:28:48.011Z</time></trkpt><trkpt lat="41.0535667" lon="14.3873267"><ele>401.83333333333337</ele><time>2026-04-04T10:28:51.008Z</time></trkpt><trkpt lat="41.0534883" lon="14.38732"><ele>403.0</ele><time>2026-04-04T10:28:54.007Z</time></trkpt><trkpt lat="41.053425" lon="14.3873067"><ele>403.0</ele><time>2026-04-04T10:28:57.008Z</time></trkpt><trkpt lat="41.05335" lon="14.3872967"><ele>403.0</ele><time>2026-04-04T10:29:00.008Z</time></trkpt><trkpt lat="41.0532767" lon="14.3872967"><ele>403.0</ele><time>2026-04-04T10:29:03.008Z</time></trkpt><trkpt lat="41.0532067" lon="14.38729"><ele>403.0</ele><time>2026-04-04T10:29:06.009Z</time></trkpt><trkpt lat="41.05314" lon="14.387295"><ele>403.0</ele><time>2026-04-04T10:29:09.008Z</time></trkpt><trkpt lat="41.0530583" lon="14.3873117"><ele>403.0</ele><time>2026-04-04T10:29:12.009Z</time></trkpt><trkpt lat="41.052985" lon="14.38733"><ele>403.0</ele><time>2026-04-04T10:29:15.009Z</time></trkpt><trkpt lat="41.052905" lon="14.3873617"><ele>404.50000000000006</ele><time>2026-04-04T10:29:19.008Z</time></trkpt><trkpt lat="41.0528267" lon="14.3873833"><ele>406.0</ele><time>2026-04-04T10:29:23.007Z</time></trkpt><trkpt lat="41.0527633" lon="14.3873967"><ele>407.5</ele><time>2026-04-04T10:29:26.009Z</time></trkpt><trkpt lat="41.0526983" lon="14.3874083"><ele>409.0</ele><time>2026-04-04T10:29:29.007Z</time></trkpt><trkpt lat="41.05262" lon="14.387415"><ele>410.50000000000006</ele><time>2026-04-04T10:29:32.008Z</time></trkpt><trkpt lat="41.0525383" lon="14.3874317"><ele>412.0</ele><time>2026-04-04T10:29:35.008Z</time></trkpt><trkpt lat="41.0524567" lon="14.3874317"><ele>412.00000000000006</ele><time>2026-04-04T10:29:38.007Z</time></trkpt><trkpt lat="41.05238" lon="14.3874317"><ele>412.0</ele><time>2026-04-04T10:29:41.007Z</time></trkpt><trkpt lat="41.0523" lon="14.3874267"><ele>412.0</ele><time>2026-04-04T10:29:44.009Z</time></trkpt><trkpt lat="41.05223" lon="14.3874283"><ele>412.0</ele><time>2026-04-04T10:29:47.009Z</time></trkpt><trkpt lat="41.052145" lon="14.387425"><ele>412.00000000000006</ele><time>2026-04-04T10:29:50.01Z</time></trkpt><trkpt lat="41.0520583" lon="14.3874117"><ele>412.0</ele><time>2026-04-04T10:29:53.009Z</time></trkpt><trkpt lat="41.0519867" lon="14.387425"><ele>411.99999999999994</ele><time>2026-04-04T10:29:55.007Z</time></trkpt><trkpt lat="41.05192" lon="14.3874467"><ele>412.0</ele><time>2026-04-04T10:29:57.008Z</time></trkpt><trkpt lat="41.0518533" lon="14.3874683"><ele>412.0</ele><time>2026-04-04T10:29:59.01Z</time></trkpt><trkpt lat="41.0517917" lon="14.3874933"><ele>412.0</ele><time>2026-04-04T10:30:01.007Z</time></trkpt><trkpt lat="41.0517317" lon="14.38752"><ele>412.0</ele><time>2026-04-04T10:30:03.009Z</time></trkpt><trkpt lat="41.0516467" lon="14.387545"><ele>411.99999999999994</ele><time>2026-04-04T10:30:06.008Z</time></trkpt><trkpt lat="41.051575" lon="14.3875717"><ele>412.0</ele><time>2026-04-04T10:30:09.007Z</time></trkpt><trkpt lat="41.0515" lon="14.3875783"><ele>409.1666666666667</ele><time>2026-04-04T10:30:12.008Z</time></trkpt><trkpt lat="41.0514183" lon="14.3876267"><ele>406.33333333333337</ele><time>2026-04-04T10:30:15.007Z</time></trkpt><trkpt lat="41.0513317" lon="14.38765"><ele>403.5</ele><time>2026-04-04T10:30:18.009Z</time></trkpt><trkpt lat="41.05125" lon="14.3876733"><ele>400.66666666666663</ele><time>2026-04-04T10:30:21.009Z</time></trkpt><trkpt lat="41.0511617" lon="14.3876983"><ele>397.8333333333333</ele><time>2026-04-04T10:30:24.008Z</time></trkpt><trkpt lat="41.0510833" lon="14.3877367"><ele>395.0</ele><time>2026-04-04T10:30:27.009Z</time></trkpt><trkpt lat="41.0510167" lon="14.3878083"><ele>395.0</ele><time>2026-04-04T10:30:30.007Z</time></trkpt><trkpt lat="41.0509617" lon="14.387875"><ele>395.0</ele><time>2026-04-04T10:30:33.008Z</time></trkpt><trkpt lat="41.0509183" lon="14.38795"><ele>395.0</ele><time>2026-04-04T10:30:36.009Z</time></trkpt><trkpt lat="41.050885" lon="14.38804"><ele>395.0</ele><time>2026-04-04T10:30:39.008Z</time></trkpt><trkpt lat="41.05086" lon="14.38814"><ele>395.0</ele><time>2026-04-04T10:30:42.009Z</time></trkpt><trkpt lat="41.05086" lon="14.388235"><ele>395.0</ele><time>2026-04-04T10:30:45.007Z</time></trkpt><trkpt lat="41.0508917" lon="14.3883183"><ele>395.0</ele><time>2026-04-04T10:30:49.009Z</time></trkpt><trkpt lat="41.0509683" lon="14.388335"><ele>397.8333333333333</ele><time>2026-04-04T10:30:53.007Z</time></trkpt><trkpt lat="41.0510483" lon="14.3883083"><ele>400.66666666666663</ele><time>2026-04-04T10:30:57.008Z</time></trkpt><trkpt lat="41.0511233" lon="14.3882683"><ele>403.5</ele><time>2026-04-04T10:31:00.009Z</time></trkpt><trkpt lat="41.0511867" lon="14.3882267"><ele>406.33333333333337</ele><time>2026-04-04T10:31:03.008Z</time></trkpt><trkpt lat="41.0512533" lon="14.3881583"><ele>409.1666666666667</ele><time>2026-04-04T10:31:08.01Z</time></trkpt><trkpt lat="41.0513267" lon="14.3880883"><ele>412.0</ele><time>2026-04-04T10:31:11.008Z</time></trkpt><trkpt lat="41.0513917" lon="14.38803"><ele>412.00000000000006</ele><time>2026-04-04T10:31:14.009Z</time></trkpt><trkpt lat="41.0514467" lon="14.387945"><ele>412.0</ele><time>2026-04-04T10:32:25.007Z</time></trkpt><trkpt lat="41.051515" lon="14.387875"><ele>412.0</ele><time>2026-04-04T10:32:27.007Z</time></trkpt><trkpt lat="41.0515967" lon="14.3878117"><ele>412.0</ele><time>2026-04-04T10:32:29.007Z</time></trkpt><trkpt lat="41.05167" lon="14.3877683"><ele>412.00000000000006</ele><time>2026-04-04T10:32:31.009Z</time></trkpt><trkpt lat="41.0517383" lon="14.3877167"><ele>412.0</ele><time>2026-04-04T10:32:33.011Z</time></trkpt><trkpt lat="41.0518" lon="14.3876567"><ele>412.0</ele><time>2026-04-04T10:32:35.007Z</time></trkpt><trkpt lat="41.0519208" lon="14.3877148"><ele>412.0</ele><time>2026-04-04T10:33:01.094Z</time></trkpt><trkpt lat="41.0519018" lon="14.3876245"><ele>412.0</ele><time>2026-04-04T10:36:05.142Z</time></trkpt><trkpt lat="41.0519952" lon="14.3876194"><ele>412.0</ele><time>2026-04-04T10:36:08.068Z</time></trkpt><trkpt lat="41.0520825" lon="14.387558"><ele>412.0</ele><time>2026-04-04T10:36:10.069Z</time></trkpt><trkpt lat="41.0521733" lon="14.387525"><ele>412.0</ele><time>2026-04-04T10:36:12.007Z</time></trkpt><trkpt lat="41.0522583" lon="14.3875083"><ele>412.0</ele><time>2026-04-04T10:36:14.007Z</time></trkpt><trkpt lat="41.0523433" lon="14.3874967"><ele>412.0</ele><time>2026-04-04T10:36:16.007Z</time></trkpt><trkpt lat="41.0524333" lon="14.3874967"><ele>412.0</ele><time>2026-04-04T10:36:18.006Z</time></trkpt><trkpt lat="41.05253" lon="14.3874967"><ele>412.0</ele><time>2026-04-04T10:36:20.009Z</time></trkpt><trkpt lat="41.0526317" lon="14.387475"><ele>412.00000000000006</ele><time>2026-04-04T10:36:22.008Z</time></trkpt><trkpt lat="41.05274" lon="14.3874467"><ele>412.0</ele><time>2026-04-04T10:36:24.008Z</time></trkpt><trkpt lat="41.05282" lon="14.3874117"><ele>412.0</ele><time>2026-04-04T10:36:26.008Z</time></trkpt><trkpt lat="41.0528967" lon="14.3874167"><ele>412.0</ele><time>2026-04-04T10:36:28.006Z</time></trkpt><trkpt lat="41.0529767" lon="14.38739"><ele>412.00000000000006</ele><time>2026-04-04T10:36:30.009Z</time></trkpt><trkpt lat="41.0530417" lon="14.3873567"><ele>412.0</ele><time>2026-04-04T10:36:32.008Z</time></trkpt><trkpt lat="41.0531367" lon="14.3873367"><ele>412.0</ele><time>2026-04-04T10:36:35.009Z</time></trkpt><trkpt lat="41.053215" lon="14.3873267"><ele>412.0</ele><time>2026-04-04T10:36:37.006Z</time></trkpt><trkpt lat="41.05331" lon="14.3873233"><ele>412.0</ele><time>2026-04-04T10:36:39.007Z</time></trkpt><trkpt lat="41.0534333" lon="14.387345"><ele>412.0</ele><time>2026-04-04T10:36:41.006Z</time></trkpt><trkpt lat="41.053505" lon="14.3873633"><ele>412.0</ele><time>2026-04-04T10:36:42.007Z</time></trkpt><trkpt lat="41.0535883" lon="14.387375"><ele>410.20000000000005</ele><time>2026-04-04T10:36:43.007Z</time></trkpt><trkpt lat="41.053675" lon="14.3873867"><ele>408.4</ele><time>2026-04-04T10:36:44.009Z</time></trkpt><trkpt lat="41.0537667" lon="14.3873967"><ele>406.6</ele><time>2026-04-04T10:36:45.006Z</time></trkpt><trkpt lat="41.05386" lon="14.3874033"><ele>404.79999999999995</ele><time>2026-04-04T10:36:46.007Z</time></trkpt><trkpt lat="41.0539583" lon="14.387405"><ele>403.0</ele><time>2026-04-04T10:36:47.007Z</time></trkpt><trkpt lat="41.05406" lon="14.3874"><ele>401.59999999999997</ele><time>2026-04-04T10:36:48.009Z</time></trkpt><trkpt lat="41.05416" lon="14.387395"><ele>400.2</ele><time>2026-04-04T10:36:49.008Z</time></trkpt><trkpt lat="41.05426" lon="14.38739"><ele>398.8</ele><time>2026-04-04T10:36:50.008Z</time></trkpt><trkpt lat="41.05436" lon="14.3873817"><ele>397.4</ele><time>2026-04-04T10:36:51.007Z</time></trkpt><trkpt lat="41.05446" lon="14.387365"><ele>396.0</ele><time>2026-04-04T10:36:52.007Z</time></trkpt><trkpt lat="41.0545533" lon="14.3873417"><ele>396.0</ele><time>2026-04-04T10:36:53.008Z</time></trkpt><trkpt lat="41.05464" lon="14.387315"><ele>396.0</ele><time>2026-04-04T10:36:54.009Z</time></trkpt><trkpt lat="41.05472" lon="14.38729"><ele>396.0</ele><time>2026-04-04T10:36:55.008Z</time></trkpt><trkpt lat="41.054795" lon="14.3872667"><ele>396.0</ele><time>2026-04-04T10:36:56.007Z</time></trkpt><trkpt lat="41.05487" lon="14.387245"><ele>396.0</ele><time>2026-04-04T10:36:57.007Z</time></trkpt><trkpt lat="41.054945" lon="14.3872217"><ele>396.0</ele><time>2026-04-04T10:36:58.006Z</time></trkpt><trkpt lat="41.0550183" lon="14.3871983"><ele>395.3333333333333</ele><time>2026-04-04T10:36:59.01Z</time></trkpt><trkpt lat="41.05509" lon="14.3871783"><ele>394.66666666666663</ele><time>2026-04-04T10:37:00.007Z</time></trkpt><trkpt lat="41.0551633" lon="14.387155"><ele>394.0</ele><time>2026-04-04T10:37:01.008Z</time></trkpt><trkpt lat="41.055235" lon="14.3871267"><ele>393.3333333333333</ele><time>2026-04-04T10:37:02.008Z</time></trkpt><trkpt lat="41.0553117" lon="14.3870967"><ele>392.66666666666663</ele><time>2026-04-04T10:37:03.008Z</time></trkpt><trkpt lat="41.05539" lon="14.3870617"><ele>392.0</ele><time>2026-04-04T10:37:04.007Z</time></trkpt><trkpt lat="41.0554767" lon="14.3870267"><ele>392.20000000000005</ele><time>2026-04-04T10:37:05.01Z</time></trkpt><trkpt lat="41.0555667" lon="14.3869883"><ele>392.4</ele><time>2026-04-04T10:37:06.009Z</time></trkpt><trkpt lat="41.0556583" lon="14.3869483"><ele>392.6</ele><time>2026-04-04T10:37:07.008Z</time></trkpt><trkpt lat="41.0557467" lon="14.3869017"><ele>392.79999999999995</ele><time>2026-04-04T10:37:08.007Z</time></trkpt><trkpt lat="41.0558383" lon="14.386855"><ele>393.0</ele><time>2026-04-04T10:37:09.007Z</time></trkpt><trkpt lat="41.0559283" lon="14.386815"><ele>393.0</ele><time>2026-04-04T10:37:10.008Z</time></trkpt><trkpt lat="41.056015" lon="14.3867767"><ele>393.0</ele><time>2026-04-04T10:37:11.007Z</time></trkpt><trkpt lat="41.0560967" lon="14.3867417"><ele>393.0</ele><time>2026-04-04T10:37:12.009Z</time></trkpt><trkpt lat="41.0561833" lon="14.3867217"><ele>393.0</ele><time>2026-04-04T10:37:13.007Z</time></trkpt><trkpt lat="41.0562717" lon="14.3867067"><ele>393.0</ele><time>2026-04-04T10:37:14.007Z</time></trkpt><trkpt lat="41.0563583" lon="14.38669"><ele>393.0</ele><time>2026-04-04T10:37:15.006Z</time></trkpt><trkpt lat="41.0564467" lon="14.3866717"><ele>393.0</ele><time>2026-04-04T10:37:16.009Z</time></trkpt><trkpt lat="41.056535" lon="14.3866567"><ele>393.0</ele><time>2026-04-04T10:37:17.007Z</time></trkpt><trkpt lat="41.0566217" lon="14.38664"><ele>393.0</ele><time>2026-04-04T10:37:18.008Z</time></trkpt><trkpt lat="41.0567067" lon="14.3866217"><ele>393.0</ele><time>2026-04-04T10:37:19.008Z</time></trkpt><trkpt lat="41.0567917" lon="14.3866017"><ele>393.0</ele><time>2026-04-04T10:37:20.01Z</time></trkpt><trkpt lat="41.05688" lon="14.386575"><ele>393.0</ele><time>2026-04-04T10:37:21.007Z</time></trkpt><trkpt lat="41.0569733" lon="14.3865433"><ele>393.79999999999995</ele><time>2026-04-04T10:37:22.006Z</time></trkpt><trkpt lat="41.0570683" lon="14.3865083"><ele>394.6</ele><time>2026-04-04T10:37:23.007Z</time></trkpt><trkpt lat="41.05716" lon="14.3864717"><ele>395.4</ele><time>2026-04-04T10:37:24.008Z</time></trkpt><trkpt lat="41.0572533" lon="14.3864333"><ele>396.20000000000005</ele><time>2026-04-04T10:37:25.007Z</time></trkpt><trkpt lat="41.05735" lon="14.3863833"><ele>397.0</ele><time>2026-04-04T10:37:26.008Z</time></trkpt><trkpt lat="41.057445" lon="14.38632"><ele>394.6</ele><time>2026-04-04T10:37:27.008Z</time></trkpt><trkpt lat="41.057535" lon="14.3862567"><ele>392.20000000000005</ele><time>2026-04-04T10:37:28.009Z</time></trkpt><trkpt lat="41.0576133" lon="14.38619"><ele>389.8</ele><time>2026-04-04T10:37:29.01Z</time></trkpt><trkpt lat="41.0576817" lon="14.386115"><ele>387.4</ele><time>2026-04-04T10:37:30.007Z</time></trkpt><trkpt lat="41.0577517" lon="14.3860333"><ele>385.0</ele><time>2026-04-04T10:37:31.008Z</time></trkpt><trkpt lat="41.0578283" lon="14.3859483"><ele>385.0</ele><time>2026-04-04T10:37:32.007Z</time></trkpt><trkpt lat="41.0579017" lon="14.3858517"><ele>385.0</ele><time>2026-04-04T10:37:33.009Z</time></trkpt><trkpt lat="41.0579667" lon="14.38575"><ele>385.0</ele><time>2026-04-04T10:37:34.007Z</time></trkpt><trkpt lat="41.0580283" lon="14.3856583"><ele>385.0</ele><time>2026-04-04T10:37:35.008Z</time></trkpt><trkpt lat="41.0580817" lon="14.385565"><ele>385.0</ele><time>2026-04-04T10:37:36.009Z</time></trkpt><trkpt lat="41.05813" lon="14.3854633"><ele>383.50000000000006</ele><time>2026-04-04T10:37:37.009Z</time></trkpt><trkpt lat="41.0581783" lon="14.3853583"><ele>382.0</ele><time>2026-04-04T10:37:38.007Z</time></trkpt><trkpt lat="41.0582217" lon="14.3852533"><ele>380.5</ele><time>2026-04-04T10:37:39.008Z</time></trkpt><trkpt lat="41.05826" lon="14.3851533"><ele>379.0</ele><time>2026-04-04T10:37:40.008Z</time></trkpt><trkpt lat="41.0582917" lon="14.3850583"><ele>377.5</ele><time>2026-04-04T10:37:41.007Z</time></trkpt><trkpt lat="41.0583217" lon="14.3849667"><ele>376.0</ele><time>2026-04-04T10:37:42.006Z</time></trkpt><trkpt lat="41.0583617" lon="14.3848883"><ele>374.1428571428571</ele><time>2026-04-04T10:37:43.01Z</time></trkpt><trkpt lat="41.0584033" lon="14.3848217"><ele>372.2857142857143</ele><time>2026-04-04T10:37:44.008Z</time></trkpt><trkpt lat="41.0584617" lon="14.384775"><ele>370.42857142857144</ele><time>2026-04-04T10:37:45.008Z</time></trkpt><trkpt lat="41.0585283" lon="14.384745"><ele>368.57142857142856</ele><time>2026-04-04T10:37:46.007Z</time></trkpt><trkpt lat="41.0586017" lon="14.38473"><ele>366.7142857142857</ele><time>2026-04-04T10:37:47.01Z</time></trkpt><trkpt lat="41.0586783" lon="14.384735"><ele>364.85714285714283</ele><time>2026-04-04T10:37:48.007Z</time></trkpt><trkpt lat="41.058755" lon="14.3847517"><ele>363.0</ele><time>2026-04-04T10:37:49.007Z</time></trkpt><trkpt lat="41.0588217" lon="14.384785"><ele>363.0</ele><time>2026-04-04T10:37:50.007Z</time></trkpt><trkpt lat="41.0588783" lon="14.3848333"><ele>363.0</ele><time>2026-04-04T10:37:51.009Z</time></trkpt><trkpt lat="41.0589167" lon="14.3849633"><ele>363.0</ele><time>2026-04-04T10:37:53.009Z</time></trkpt><trkpt lat="41.0589" lon="14.3851117"><ele>363.0</ele><time>2026-04-04T10:37:55.007Z</time></trkpt><trkpt lat="41.0588933" lon="14.38527"><ele>363.0</ele><time>2026-04-04T10:37:57.009Z</time></trkpt><trkpt lat="41.0588883" lon="14.38544"><ele>363.1428571428571</ele><time>2026-04-04T10:37:59.01Z</time></trkpt><trkpt lat="41.05888" lon="14.3855317"><ele>363.2857142857143</ele><time>2026-04-04T10:38:00.006Z</time></trkpt><trkpt lat="41.0588733" lon="14.3856233"><ele>363.42857142857144</ele><time>2026-04-04T10:38:01.008Z</time></trkpt><trkpt lat="41.0588683" lon="14.3857233"><ele>363.57142857142856</ele><time>2026-04-04T10:38:02.009Z</time></trkpt><trkpt lat="41.0588667" lon="14.385825"><ele>363.7142857142857</ele><time>2026-04-04T10:38:03.007Z</time></trkpt><trkpt lat="41.0588683" lon="14.3859267"><ele>363.85714285714283</ele><time>2026-04-04T10:38:04.007Z</time></trkpt><trkpt lat="41.05887" lon="14.38603"><ele>364.0</ele><time>2026-04-04T10:38:05.007Z</time></trkpt><trkpt lat="41.0588733" lon="14.3861383"><ele>364.0</ele><time>2026-04-04T10:38:06.01Z</time></trkpt><trkpt lat="41.0588767" lon="14.3862517"><ele>364.0</ele><time>2026-04-04T10:38:07.008Z</time></trkpt><trkpt lat="41.0588883" lon="14.386365"><ele>364.0</ele><time>2026-04-04T10:38:08.008Z</time></trkpt><trkpt lat="41.0589117" lon="14.38647"><ele>364.0</ele><time>2026-04-04T10:38:09.007Z</time></trkpt><trkpt lat="41.0589483" lon="14.38657"><ele>364.0</ele><time>2026-04-04T10:38:10.006Z</time></trkpt><trkpt lat="41.0589917" lon="14.3866583"><ele>364.0</ele><time>2026-04-04T10:38:11.007Z</time></trkpt><trkpt lat="41.0590383" lon="14.386735"><ele>361.57142857142856</ele><time>2026-04-04T10:38:12.007Z</time></trkpt><trkpt lat="41.0590733" lon="14.3868167"><ele>359.1428571428571</ele><time>2026-04-04T10:38:13.007Z</time></trkpt><trkpt lat="41.0590933" lon="14.3869067"><ele>356.7142857142857</ele><time>2026-04-04T10:38:14.009Z</time></trkpt><trkpt lat="41.0591033" lon="14.3870033"><ele>354.2857142857143</ele><time>2026-04-04T10:38:15.007Z</time></trkpt><trkpt lat="41.0591083" lon="14.3871017"><ele>351.85714285714283</ele><time>2026-04-04T10:38:16.009Z</time></trkpt><trkpt lat="41.05911" lon="14.3872017"><ele>349.42857142857144</ele><time>2026-04-04T10:38:17.007Z</time></trkpt><trkpt lat="41.0591167" lon="14.387295"><ele>347.0</ele><time>2026-04-04T10:38:18.008Z</time></trkpt><trkpt lat="41.0591333" lon="14.38738"><ele>346.8571428571429</ele><time>2026-04-04T10:38:19.009Z</time></trkpt><trkpt lat="41.059165" lon="14.3874617"><ele>346.71428571428567</ele><time>2026-04-04T10:38:20.01Z</time></trkpt><trkpt lat="41.0591967" lon="14.3875417"><ele>346.57142857142856</ele><time>2026-04-04T10:38:21.009Z</time></trkpt><trkpt lat="41.0592467" lon="14.3876117"><ele>346.42857142857144</ele><time>2026-04-04T10:38:22.013Z</time></trkpt><trkpt lat="41.0593033" lon="14.3876733"><ele>346.28571428571433</ele><time>2026-04-04T10:38:23.007Z</time></trkpt><trkpt lat="41.059365" lon="14.387735"><ele>346.1428571428571</ele><time>2026-04-04T10:38:24.009Z</time></trkpt><trkpt lat="41.0594217" lon="14.387805"><ele>346.0</ele><time>2026-04-04T10:38:25.008Z</time></trkpt><trkpt lat="41.0594733" lon="14.3878783"><ele>346.0</ele><time>2026-04-04T10:38:26.008Z</time></trkpt><trkpt lat="41.059525" lon="14.3879433"><ele>346.0</ele><time>2026-04-04T10:38:27.008Z</time></trkpt><trkpt lat="41.0596133" lon="14.3880417"><ele>346.0</ele><time>2026-04-04T10:38:29.008Z</time></trkpt><trkpt lat="41.0596983" lon="14.3881067"><ele>346.0</ele><time>2026-04-04T10:38:31.01Z</time></trkpt><trkpt lat="41.0597783" lon="14.3881533"><ele>346.0</ele><time>2026-04-04T10:38:33.007Z</time></trkpt><trkpt lat="41.0598817" lon="14.3882083"><ele>344.20000000000005</ele><time>2026-04-04T10:38:35.008Z</time></trkpt><trkpt lat="41.06" lon="14.388275"><ele>342.40000000000003</ele><time>2026-04-04T10:38:37.007Z</time></trkpt><trkpt lat="41.0600767" lon="14.38832"><ele>340.6</ele><time>2026-04-04T10:38:38.007Z</time></trkpt><trkpt lat="41.0601567" lon="14.388375"><ele>338.8</ele><time>2026-04-04T10:38:39.007Z</time></trkpt><trkpt lat="41.0602333" lon="14.38843"><ele>337.0</ele><time>2026-04-04T10:38:40.007Z</time></trkpt><trkpt lat="41.06031" lon="14.3884783"><ele>337.0</ele><time>2026-04-04T10:38:41.009Z</time></trkpt><trkpt lat="41.0603833" lon="14.3885283"><ele>337.0</ele><time>2026-04-04T10:38:42.008Z</time></trkpt><trkpt lat="41.060455" lon="14.38858"><ele>337.0</ele><time>2026-04-04T10:38:43.007Z</time></trkpt><trkpt lat="41.060525" lon="14.3886317"><ele>337.0</ele><time>2026-04-04T10:38:44.008Z</time></trkpt><trkpt lat="41.0605967" lon="14.3886833"><ele>337.0</ele><time>2026-04-04T10:38:45.008Z</time></trkpt><trkpt lat="41.0606683" lon="14.3887317"><ele>337.0</ele><time>2026-04-04T10:38:46.007Z</time></trkpt><trkpt lat="41.060735" lon="14.3887767"><ele>334.66666666666663</ele><time>2026-04-04T10:38:47.007Z</time></trkpt><trkpt lat="41.0608067" lon="14.38882"><ele>332.3333333333333</ele><time>2026-04-04T10:38:48.008Z</time></trkpt><trkpt lat="41.0608733" lon="14.3888683"><ele>330.0</ele><time>2026-04-04T10:38:49.007Z</time></trkpt><trkpt lat="41.0609433" lon="14.3889133"><ele>327.6666666666667</ele><time>2026-04-04T10:38:50.007Z</time></trkpt><trkpt lat="41.06102" lon="14.3889633"><ele>325.33333333333337</ele><time>2026-04-04T10:38:51.007Z</time></trkpt><trkpt lat="41.061105" lon="14.38902"><ele>323.0</ele><time>2026-04-04T10:38:52.009Z</time></trkpt><trkpt lat="41.06119" lon="14.3890767"><ele>322.0</ele><time>2026-04-04T10:38:53.007Z</time></trkpt><trkpt lat="41.0612767" lon="14.38913"><ele>321.0</ele><time>2026-04-04T10:38:54.009Z</time></trkpt><trkpt lat="41.0613583" lon="14.38918"><ele>320.0</ele><time>2026-04-04T10:38:55.01Z</time></trkpt><trkpt lat="41.0614333" lon="14.3892233"><ele>319.0</ele><time>2026-04-04T10:38:56.011Z</time></trkpt><trkpt lat="41.0614983" lon="14.3892567"><ele>318.0</ele><time>2026-04-04T10:38:57.007Z</time></trkpt><trkpt lat="41.0615817" lon="14.3893017"><ele>317.0</ele><time>2026-04-04T10:38:59.009Z</time></trkpt><trkpt lat="41.06165" lon="14.3893233"><ele>316.1666666666667</ele><time>2026-04-04T10:39:01.01Z</time></trkpt><trkpt lat="41.0617167" lon="14.3892883"><ele>315.33333333333337</ele><time>2026-04-04T10:39:03.009Z</time></trkpt><trkpt lat="41.0617617" lon="14.38922"><ele>314.5</ele><time>2026-04-04T10:39:05.008Z</time></trkpt><trkpt lat="41.061775" lon="14.3891067"><ele>313.6666666666667</ele><time>2026-04-04T10:39:07.007Z</time></trkpt><trkpt lat="41.0617733" lon="14.3889683"><ele>312.8333333333333</ele><time>2026-04-04T10:39:09.009Z</time></trkpt><trkpt lat="41.061785" lon="14.3888183"><ele>312.0</ele><time>2026-04-04T10:39:11.008Z</time></trkpt><trkpt lat="41.06181" lon="14.38865"><ele>311.1666666666667</ele><time>2026-04-04T10:39:13.009Z</time></trkpt><trkpt lat="41.0618233" lon="14.38856"><ele>310.3333333333333</ele><time>2026-04-04T10:39:14.009Z</time></trkpt><trkpt lat="41.06183" lon="14.3884633"><ele>309.5</ele><time>2026-04-04T10:39:15.008Z</time></trkpt><trkpt lat="41.061835" lon="14.3883633"><ele>308.66666666666663</ele><time>2026-04-04T10:39:16.009Z</time></trkpt><trkpt lat="41.0618317" lon="14.3882583"><ele>307.8333333333333</ele><time>2026-04-04T10:39:17.009Z</time></trkpt><trkpt lat="41.0618183" lon="14.3881483"><ele>307.0</ele><time>2026-04-04T10:39:18.009Z</time></trkpt><trkpt lat="41.0617883" lon="14.3880417"><ele>307.4</ele><time>2026-04-04T10:39:19.009Z</time></trkpt><trkpt lat="41.0617433" lon="14.3879417"><ele>307.79999999999995</ele><time>2026-04-04T10:39:20.008Z</time></trkpt><trkpt lat="41.0616783" lon="14.3878483"><ele>308.2</ele><time>2026-04-04T10:39:21.007Z</time></trkpt><trkpt lat="41.0616" lon="14.38777"><ele>308.59999999999997</ele><time>2026-04-04T10:39:22.008Z</time></trkpt><trkpt lat="41.0615133" lon="14.3877017"><ele>309.0</ele><time>2026-04-04T10:39:23.007Z</time></trkpt><trkpt lat="41.06142" lon="14.3876383"><ele>309.0</ele><time>2026-04-04T10:39:24.008Z</time></trkpt><trkpt lat="41.06133" lon="14.3875783"><ele>309.0</ele><time>2026-04-04T10:39:25.009Z</time></trkpt><trkpt lat="41.0612367" lon="14.3875267"><ele>309.0</ele><time>2026-04-04T10:39:26.01Z</time></trkpt><trkpt lat="41.0611483" lon="14.387475"><ele>309.0</ele><time>2026-04-04T10:39:27.01Z</time></trkpt><trkpt lat="41.0610617" lon="14.3874233"><ele>309.0</ele><time>2026-04-04T10:39:28.007Z</time></trkpt><trkpt lat="41.060985" lon="14.3873583"><ele>309.0</ele><time>2026-04-04T10:39:29.007Z</time></trkpt><trkpt lat="41.060915" lon="14.3872867"><ele>309.0</ele><time>2026-04-04T10:39:30.009Z</time></trkpt><trkpt lat="41.060855" lon="14.3872017"><ele>309.0</ele><time>2026-04-04T10:39:31.009Z</time></trkpt><trkpt lat="41.0607983" lon="14.3871067"><ele>309.0</ele><time>2026-04-04T10:39:32.009Z</time></trkpt><trkpt lat="41.060745" lon="14.38701"><ele>309.0</ele><time>2026-04-04T10:39:33.008Z</time></trkpt><trkpt lat="41.0606967" lon="14.3869217"><ele>309.0</ele><time>2026-04-04T10:39:34.007Z</time></trkpt><trkpt lat="41.0606583" lon="14.3868367"><ele>310.14285714285717</ele><time>2026-04-04T10:39:35.008Z</time></trkpt><trkpt lat="41.0606383" lon="14.3867433"><ele>311.2857142857143</ele><time>2026-04-04T10:39:36.009Z</time></trkpt><trkpt lat="41.060645" lon="14.3866433"><ele>312.42857142857144</ele><time>2026-04-04T10:39:37.008Z</time></trkpt><trkpt lat="41.0606633" lon="14.38655"><ele>313.57142857142856</ele><time>2026-04-04T10:39:38.007Z</time></trkpt><trkpt lat="41.0606983" lon="14.386455"><ele>314.7142857142857</ele><time>2026-04-04T10:39:39.008Z</time></trkpt><trkpt lat="41.0607383" lon="14.3863783"><ele>315.8571428571429</ele><time>2026-04-04T10:39:40.009Z</time></trkpt><trkpt lat="41.0607983" lon="14.3863267"><ele>317.0</ele><time>2026-04-04T10:39:41.009Z</time></trkpt><trkpt lat="41.0608683" lon="14.38629"><ele>317.0</ele><time>2026-04-04T10:39:42.009Z</time></trkpt><trkpt lat="41.060945" lon="14.3862683"><ele>317.0</ele><time>2026-04-04T10:39:43.009Z</time></trkpt><trkpt lat="41.06104" lon="14.386245"><ele>317.0</ele><time>2026-04-04T10:39:44.007Z</time></trkpt><trkpt lat="41.061125" lon="14.3862117"><ele>317.0</ele><time>2026-04-04T10:39:45.008Z</time></trkpt><trkpt lat="41.0612183" lon="14.3861817"><ele>317.0</ele><time>2026-04-04T10:39:46.007Z</time></trkpt><trkpt lat="41.0612917" lon="14.3861217"><ele>317.0</ele><time>2026-04-04T10:39:47.009Z</time></trkpt><trkpt lat="41.0613367" lon="14.386035"><ele>317.0</ele><time>2026-04-04T10:39:48.01Z</time></trkpt><trkpt lat="41.0613833" lon="14.38595"><ele>317.0</ele><time>2026-04-04T10:39:49.008Z</time></trkpt><trkpt lat="41.06144" lon="14.38587"><ele>317.0</ele><time>2026-04-04T10:39:50.009Z</time></trkpt><trkpt lat="41.0615083" lon="14.3858083"><ele>317.0</ele><time>2026-04-04T10:39:51.009Z</time></trkpt><trkpt lat="41.0615833" lon="14.3857617"><ele>317.0</ele><time>2026-04-04T10:39:52.009Z</time></trkpt><trkpt lat="41.0616783" lon="14.3857517"><ele>317.0</ele><time>2026-04-04T10:39:53.007Z</time></trkpt><trkpt lat="41.0617833" lon="14.3857517"><ele>310.8</ele><time>2026-04-04T10:39:54.007Z</time></trkpt><trkpt lat="41.0618883" lon="14.3857617"><ele>304.6</ele><time>2026-04-04T10:39:55.008Z</time></trkpt><trkpt lat="41.0619867" lon="14.3857467"><ele>298.40000000000003</ele><time>2026-04-04T10:39:56.007Z</time></trkpt><trkpt lat="41.0620833" lon="14.385725"><ele>292.2</ele><time>2026-04-04T10:39:57.01Z</time></trkpt><trkpt lat="41.0621667" lon="14.38567"><ele>286.0</ele><time>2026-04-04T10:39:58.008Z</time></trkpt><trkpt lat="41.0622317" lon="14.3855833"><ele>289.6</ele><time>2026-04-04T10:39:59.008Z</time></trkpt><trkpt lat="41.06227" lon="14.3854717"><ele>293.20000000000005</ele><time>2026-04-04T10:40:00.011Z</time></trkpt><trkpt lat="41.062275" lon="14.385345"><ele>296.79999999999995</ele><time>2026-04-04T10:40:01.007Z</time></trkpt><trkpt lat="41.0622467" lon="14.385225"><ele>300.4</ele><time>2026-04-04T10:40:02.008Z</time></trkpt><trkpt lat="41.062195" lon="14.385115"><ele>304.0</ele><time>2026-04-04T10:40:03.008Z</time></trkpt><trkpt lat="41.0621433" lon="14.3850133"><ele>304.0</ele><time>2026-04-04T10:40:04.009Z</time></trkpt><trkpt lat="41.0620983" lon="14.384925"><ele>304.0</ele><time>2026-04-04T10:40:05.007Z</time></trkpt><trkpt lat="41.0620733" lon="14.3848417"><ele>304.0</ele><time>2026-04-04T10:40:06.009Z</time></trkpt><trkpt lat="41.062075" lon="14.384685"><ele>304.0</ele><time>2026-04-04T10:40:08.009Z</time></trkpt><trkpt lat="41.0621183" lon="14.3846067"><ele>304.0</ele><time>2026-04-04T10:40:09.008Z</time></trkpt><trkpt lat="41.062175" lon="14.384535"><ele>304.0</ele><time>2026-04-04T10:40:10.009Z</time></trkpt><trkpt lat="41.0622567" lon="14.3844717"><ele>306.8</ele><time>2026-04-04T10:40:11.007Z</time></trkpt><trkpt lat="41.0623317" lon="14.3844083"><ele>309.59999999999997</ele><time>2026-04-04T10:40:12.009Z</time></trkpt><trkpt lat="41.062405" lon="14.3843367"><ele>312.4</ele><time>2026-04-04T10:40:13.009Z</time></trkpt><trkpt lat="41.0624833" lon="14.3842633"><ele>315.2</ele><time>2026-04-04T10:40:14.008Z</time></trkpt><trkpt lat="41.062565" lon="14.3841917"><ele>318.0</ele><time>2026-04-04T10:40:15.009Z</time></trkpt><trkpt lat="41.062655" lon="14.3841317"><ele>310.8</ele><time>2026-04-04T10:40:16.008Z</time></trkpt><trkpt lat="41.0627583" lon="14.3840967"><ele>303.6</ele><time>2026-04-04T10:40:17.009Z</time></trkpt><trkpt lat="41.0628667" lon="14.384065"><ele>296.4</ele><time>2026-04-04T10:40:18.01Z</time></trkpt><trkpt lat="41.06298" lon="14.3840333"><ele>289.2</ele><time>2026-04-04T10:40:19.007Z</time></trkpt><trkpt lat="41.06309" lon="14.3839933"><ele>282.0</ele><time>2026-04-04T10:40:20.007Z</time></trkpt><trkpt lat="41.0631983" lon="14.383935"><ele>281.4</ele><time>2026-04-04T10:40:21.008Z</time></trkpt><trkpt lat="41.0633083" lon="14.3838733"><ele>280.79999999999995</ele><time>2026-04-04T10:40:22.009Z</time></trkpt><trkpt lat="41.06341" lon="14.3838067"><ele>280.2</ele><time>2026-04-04T10:40:23.008Z</time></trkpt><trkpt lat="41.0635" lon="14.38373"><ele>279.59999999999997</ele><time>2026-04-04T10:40:24.009Z</time></trkpt><trkpt lat="41.0635817" lon="14.3836417"><ele>279.0</ele><time>2026-04-04T10:40:25.007Z</time></trkpt><trkpt lat="41.06365" lon="14.3835467"><ele>279.0</ele><time>2026-04-04T10:40:26.008Z</time></trkpt><trkpt lat="41.0637083" lon="14.3834483"><ele>279.0</ele><time>2026-04-04T10:40:27.009Z</time></trkpt><trkpt lat="41.0637583" lon="14.383355"><ele>279.0</ele><time>2026-04-04T10:40:28.01Z</time></trkpt><trkpt lat="41.0638083" lon="14.383265"><ele>279.0</ele><time>2026-04-04T10:40:29.007Z</time></trkpt><trkpt lat="41.0638617" lon="14.383185"><ele>279.0</ele><time>2026-04-04T10:40:30.008Z</time></trkpt><trkpt lat="41.06393" lon="14.3831183"><ele>279.0</ele><time>2026-04-04T10:40:31.008Z</time></trkpt><trkpt lat="41.0640033" lon="14.38305"><ele>282.59999999999997</ele><time>2026-04-04T10:40:32.009Z</time></trkpt><trkpt lat="41.0640817" lon="14.3829717"><ele>286.2</ele><time>2026-04-04T10:40:33.007Z</time></trkpt><trkpt lat="41.0641567" lon="14.38288"><ele>289.79999999999995</ele><time>2026-04-04T10:40:34.008Z</time></trkpt><trkpt lat="41.0642283" lon="14.38278"><ele>293.4</ele><time>2026-04-04T10:40:35.008Z</time></trkpt><trkpt lat="41.0642983" lon="14.38267"><ele>297.0</ele><time>2026-04-04T10:40:36.007Z</time></trkpt><trkpt lat="41.064365" lon="14.38255"><ele>291.5</ele><time>2026-04-04T10:40:37.008Z</time></trkpt><trkpt lat="41.0644333" lon="14.38243"><ele>286.0</ele><time>2026-04-04T10:40:38.009Z</time></trkpt><trkpt lat="41.0645033" lon="14.38231"><ele>280.5</ele><time>2026-04-04T10:40:39.009Z</time></trkpt><trkpt lat="41.0645683" lon="14.3821867"><ele>275.0</ele><time>2026-04-04T10:40:40.007Z</time></trkpt><trkpt lat="41.0646367" lon="14.382065"><ele>275.0</ele><time>2026-04-04T10:40:41.009Z</time></trkpt><trkpt lat="41.0647067" lon="14.3819417"><ele>275.0</ele><time>2026-04-04T10:40:42.009Z</time></trkpt><trkpt lat="41.06478" lon="14.3818183"><ele>275.0</ele><time>2026-04-04T10:40:43.008Z</time></trkpt><trkpt lat="41.06485" lon="14.38169"><ele>275.0</ele><time>2026-04-04T10:40:44.011Z</time></trkpt><trkpt lat="41.064915" lon="14.3815583"><ele>268.75</ele><time>2026-04-04T10:40:45.008Z</time></trkpt><trkpt lat="41.06498" lon="14.3814233"><ele>262.5</ele><time>2026-04-04T10:40:46.007Z</time></trkpt><trkpt lat="41.0650533" lon="14.3812917"><ele>256.25</ele><time>2026-04-04T10:40:47.008Z</time></trkpt><trkpt lat="41.06513" lon="14.3811633"><ele>250.0</ele><time>2026-04-04T10:40:48.01Z</time></trkpt><trkpt lat="41.0652117" lon="14.38104"><ele>250.0</ele><time>2026-04-04T10:40:49.009Z</time></trkpt><trkpt lat="41.0653" lon="14.3809217"><ele>250.0</ele><time>2026-04-04T10:40:50.007Z</time></trkpt><trkpt lat="41.0653867" lon="14.3808"><ele>250.0</ele><time>2026-04-04T10:40:51.008Z</time></trkpt><trkpt lat="41.0654667" lon="14.3806767"><ele>250.0</ele><time>2026-04-04T10:40:52.007Z</time></trkpt><trkpt lat="41.06554" lon="14.38056"><ele>248.4</ele><time>2026-04-04T10:40:53.008Z</time></trkpt><trkpt lat="41.0656033" lon="14.3804483"><ele>246.8</ele><time>2026-04-04T10:40:54.009Z</time></trkpt><trkpt lat="41.0656667" lon="14.380345"><ele>245.2</ele><time>2026-04-04T10:40:55.006Z</time></trkpt><trkpt lat="41.06574" lon="14.3802483"><ele>243.6</ele><time>2026-04-04T10:40:56.008Z</time></trkpt><trkpt lat="41.065825" lon="14.380155"><ele>242.0</ele><time>2026-04-04T10:40:57.008Z</time></trkpt><trkpt lat="41.0659167" lon="14.380065"><ele>240.0</ele><time>2026-04-04T10:40:58.009Z</time></trkpt><trkpt lat="41.0660067" lon="14.3799633"><ele>238.0</ele><time>2026-04-04T10:40:59.008Z</time></trkpt><trkpt lat="41.0660883" lon="14.3798483"><ele>236.0</ele><time>2026-04-04T10:41:00.009Z</time></trkpt><trkpt lat="41.066165" lon="14.3797217"><ele>234.0</ele><time>2026-04-04T10:41:01.009Z</time></trkpt><trkpt lat="41.0662383" lon="14.3795967"><ele>232.0</ele><time>2026-04-04T10:41:02.009Z</time></trkpt><trkpt lat="41.0663133" lon="14.3794733"><ele>230.0</ele><time>2026-04-04T10:41:03.009Z</time></trkpt><trkpt lat="41.0663867" lon="14.3793517"><ele>228.0</ele><time>2026-04-04T10:41:04.009Z</time></trkpt><trkpt lat="41.0664533" lon="14.379235"><ele>226.0</ele><time>2026-04-04T10:41:05.009Z</time></trkpt><trkpt lat="41.0665133" lon="14.3791217"><ele>226.0</ele><time>2026-04-04T10:41:06.01Z</time></trkpt><trkpt lat="41.0665717" lon="14.3790083"><ele>226.00000000000003</ele><time>2026-04-04T10:41:07.009Z</time></trkpt><trkpt lat="41.0666367" lon="14.3788967"><ele>226.00000000000003</ele><time>2026-04-04T10:41:08.01Z</time></trkpt><trkpt lat="41.066715" lon="14.3787883"><ele>226.0</ele><time>2026-04-04T10:41:09.008Z</time></trkpt><trkpt lat="41.0668" lon="14.37868"><ele>226.0</ele><time>2026-04-04T10:41:10.009Z</time></trkpt><trkpt lat="41.066885" lon="14.3785717"><ele>222.5</ele><time>2026-04-04T10:41:11.01Z</time></trkpt><trkpt lat="41.0669683" lon="14.37846"><ele>219.0</ele><time>2026-04-04T10:41:12.009Z</time></trkpt><trkpt lat="41.0670583" lon="14.37835"><ele>215.5</ele><time>2026-04-04T10:41:13.009Z</time></trkpt><trkpt lat="41.0671483" lon="14.3782433"><ele>212.0</ele><time>2026-04-04T10:41:14.008Z</time></trkpt><trkpt lat="41.0672367" lon="14.378125"><ele>210.75</ele><time>2026-04-04T10:41:15.009Z</time></trkpt><trkpt lat="41.0673217" lon="14.3780033"><ele>209.5</ele><time>2026-04-04T10:41:16.008Z</time></trkpt><trkpt lat="41.0674" lon="14.3778733"><ele>208.25</ele><time>2026-04-04T10:41:17.007Z</time></trkpt><trkpt lat="41.0674767" lon="14.3777367"><ele>207.0</ele><time>2026-04-04T10:41:18.01Z</time></trkpt><trkpt lat="41.06755" lon="14.3775983"><ele>207.0</ele><time>2026-04-04T10:41:19.01Z</time></trkpt><trkpt lat="41.0676233" lon="14.3774617"><ele>207.0</ele><time>2026-04-04T10:41:20.008Z</time></trkpt><trkpt lat="41.067695" lon="14.37732"><ele>207.0</ele><time>2026-04-04T10:41:21.008Z</time></trkpt><trkpt lat="41.067765" lon="14.37718"><ele>207.0</ele><time>2026-04-04T10:41:22.008Z</time></trkpt><trkpt lat="41.0678333" lon="14.3770417"><ele>205.25</ele><time>2026-04-04T10:41:23.008Z</time></trkpt><trkpt lat="41.0679017" lon="14.3768983"><ele>203.5</ele><time>2026-04-04T10:41:24.009Z</time></trkpt><trkpt lat="41.067965" lon="14.376755"><ele>201.75</ele><time>2026-04-04T10:41:25.009Z</time></trkpt><trkpt lat="41.0680283" lon="14.3766117"><ele>200.0</ele><time>2026-04-04T10:41:26.008Z</time></trkpt><trkpt lat="41.0680917" lon="14.3764683"><ele>200.75</ele><time>2026-04-04T10:41:27.008Z</time></trkpt><trkpt lat="41.0681533" lon="14.37633"><ele>201.5</ele><time>2026-04-04T10:41:28.009Z</time></trkpt><trkpt lat="41.068215" lon="14.376195"><ele>202.25</ele><time>2026-04-04T10:41:29.008Z</time></trkpt><trkpt lat="41.068275" lon="14.3760567"><ele>203.0</ele><time>2026-04-04T10:41:30.01Z</time></trkpt><trkpt lat="41.068335" lon="14.3759133"><ele>203.0</ele><time>2026-04-04T10:41:31.007Z</time></trkpt><trkpt lat="41.0683933" lon="14.3757683"><ele>203.0</ele><time>2026-04-04T10:41:32.008Z</time></trkpt><trkpt lat="41.0684517" lon="14.37562"><ele>203.0</ele><time>2026-04-04T10:41:33.009Z</time></trkpt><trkpt lat="41.0685133" lon="14.375475"><ele>203.0</ele><time>2026-04-04T10:41:34.008Z</time></trkpt><trkpt lat="41.0685717" lon="14.3753367"><ele>201.60000000000002</ele><time>2026-04-04T10:41:35.007Z</time></trkpt><trkpt lat="41.0686233" lon="14.375205"><ele>200.20000000000002</ele><time>2026-04-04T10:41:36.007Z</time></trkpt><trkpt lat="41.0686733" lon="14.37509"><ele>198.8</ele><time>2026-04-04T10:41:37.009Z</time></trkpt><trkpt lat="41.0687183" lon="14.3749883"><ele>197.4</ele><time>2026-04-04T10:41:38.008Z</time></trkpt><trkpt lat="41.06876" lon="14.374895"><ele>196.0</ele><time>2026-04-04T10:41:39.008Z</time></trkpt><trkpt lat="41.068795" lon="14.3748083"><ele>195.99999999999997</ele><time>2026-04-04T10:41:40.007Z</time></trkpt><trkpt lat="41.06883" lon="14.374725"><ele>196.0</ele><time>2026-04-04T10:41:41.008Z</time></trkpt><trkpt lat="41.0688733" lon="14.37464"><ele>196.0</ele><time>2026-04-04T10:41:42.01Z</time></trkpt><trkpt lat="41.0689233" lon="14.3745517"><ele>196.0</ele><time>2026-04-04T10:41:43.008Z</time></trkpt><trkpt lat="41.0689867" lon="14.3744633"><ele>195.99999999999997</ele><time>2026-04-04T10:41:44.008Z</time></trkpt><trkpt lat="41.0690617" lon="14.374375"><ele>196.0</ele><time>2026-04-04T10:41:45.008Z</time></trkpt><trkpt lat="41.0691433" lon="14.37429"><ele>193.4</ele><time>2026-04-04T10:41:46.008Z</time></trkpt><trkpt lat="41.0692267" lon="14.3742017"><ele>190.8</ele><time>2026-04-04T10:41:47.006Z</time></trkpt><trkpt lat="41.0693133" lon="14.3741133"><ele>188.20000000000002</ele><time>2026-04-04T10:41:48.009Z</time></trkpt><trkpt lat="41.0694" lon="14.3740233"><ele>185.60000000000002</ele><time>2026-04-04T10:41:49.008Z</time></trkpt><trkpt lat="41.069485" lon="14.3739417"><ele>183.0</ele><time>2026-04-04T10:41:50.01Z</time></trkpt><trkpt lat="41.0695617" lon="14.3738633"><ele>181.83333333333334</ele><time>2026-04-04T10:41:51.008Z</time></trkpt><trkpt lat="41.069635" lon="14.373795"><ele>180.66666666666666</ele><time>2026-04-04T10:41:52.007Z</time></trkpt><trkpt lat="41.0697067" lon="14.37374"><ele>179.5</ele><time>2026-04-04T10:41:53.008Z</time></trkpt><trkpt lat="41.069785" lon="14.3737017"><ele>178.33333333333331</ele><time>2026-04-04T10:41:54.009Z</time></trkpt><trkpt lat="41.0698683" lon="14.37368"><ele>177.16666666666666</ele><time>2026-04-04T10:41:55.008Z</time></trkpt><trkpt lat="41.069955" lon="14.3736783"><ele>176.0</ele><time>2026-04-04T10:41:56.011Z</time></trkpt><trkpt lat="41.07004" lon="14.3736983"><ele>176.0</ele><time>2026-04-04T10:41:57.009Z</time></trkpt><trkpt lat="41.0701183" lon="14.3737267"><ele>176.0</ele><time>2026-04-04T10:41:58.011Z</time></trkpt><trkpt lat="41.07019" lon="14.373765"><ele>176.0</ele><time>2026-04-04T10:41:59.007Z</time></trkpt><trkpt lat="41.0702517" lon="14.3738"><ele>176.0</ele><time>2026-04-04T10:42:00.009Z</time></trkpt><trkpt lat="41.0703417" lon="14.373875"><ele>176.0</ele><time>2026-04-04T10:42:02.009Z</time></trkpt><trkpt lat="41.070365" lon="14.3739833"><ele>176.0</ele><time>2026-04-04T10:42:04.007Z</time></trkpt><trkpt lat="41.070345" lon="14.374115"><ele>178.25</ele><time>2026-04-04T10:42:06.009Z</time></trkpt><trkpt lat="41.0702933" lon="14.3742433"><ele>180.5</ele><time>2026-04-04T10:42:08.007Z</time></trkpt><trkpt lat="41.0702333" lon="14.374365"><ele>182.75</ele><time>2026-04-04T10:42:10.007Z</time></trkpt><trkpt lat="41.0701583" lon="14.3744867"><ele>185.0</ele><time>2026-04-04T10:42:12.01Z</time></trkpt><trkpt lat="41.0700783" lon="14.3746117"><ele>185.0</ele><time>2026-04-04T10:42:14.006Z</time></trkpt><trkpt lat="41.0700383" lon="14.3746783"><ele>185.0</ele><time>2026-04-04T10:42:15.009Z</time></trkpt><trkpt lat="41.069955" lon="14.3748"><ele>185.0</ele><time>2026-04-04T10:42:17.008Z</time></trkpt><trkpt lat="41.069875" lon="14.3748983"><ele>185.0</ele><time>2026-04-04T10:42:19.009Z</time></trkpt><trkpt lat="41.0698733" lon="14.3749967"><ele>185.0</ele><time>2026-04-04T10:42:22.008Z</time></trkpt><trkpt lat="41.0699433" lon="14.3749983"><ele>185.0</ele><time>2026-04-04T10:42:24.007Z</time></trkpt><trkpt lat="41.07006" lon="14.374955"><ele>184.16666666666666</ele><time>2026-04-04T10:42:26.009Z</time></trkpt><trkpt lat="41.0701783" lon="14.374905"><ele>183.33333333333331</ele><time>2026-04-04T10:42:28.007Z</time></trkpt><trkpt lat="41.0702633" lon="14.3748767"><ele>182.5</ele><time>2026-04-04T10:42:30.009Z</time></trkpt><trkpt lat="41.0703583" lon="14.374855"><ele>181.66666666666666</ele><time>2026-04-04T10:42:33.008Z</time></trkpt><trkpt lat="41.0704233" lon="14.3748383"><ele>180.83333333333334</ele><time>2026-04-04T10:42:35.008Z</time></trkpt><trkpt lat="41.0704917" lon="14.3748167"><ele>180.0</ele><time>2026-04-04T10:42:37.008Z</time></trkpt><trkpt lat="41.0705633" lon="14.3747917"><ele>180.0</ele><time>2026-04-04T10:42:39.007Z</time></trkpt><trkpt lat="41.070635" lon="14.3747617"><ele>180.0</ele><time>2026-04-04T10:42:42.007Z</time></trkpt><trkpt lat="41.0707083" lon="14.3747267"><ele>180.0</ele><time>2026-04-04T10:42:45.007Z</time></trkpt><trkpt lat="41.07078" lon="14.3746983"><ele>180.0</ele><time>2026-04-04T10:42:47.008Z</time></trkpt><trkpt lat="41.0708733" lon="14.3746967"><ele>180.0</ele><time>2026-04-04T10:42:49.008Z</time></trkpt><trkpt lat="41.0709867" lon="14.374695"><ele>180.0</ele><time>2026-04-04T10:42:51.008Z</time></trkpt><trkpt lat="41.0710967" lon="14.374685"><ele>179.83333333333334</ele><time>2026-04-04T10:42:53.007Z</time></trkpt><trkpt lat="41.0711767" lon="14.37468"><ele>179.66666666666666</ele><time>2026-04-04T10:42:55.008Z</time></trkpt><trkpt lat="41.0712417" lon="14.3746733"><ele>179.5</ele><time>2026-04-04T10:42:57.009Z</time></trkpt><trkpt lat="41.071325" lon="14.3746667"><ele>179.33333333333331</ele><time>2026-04-04T10:42:59.008Z</time></trkpt><trkpt lat="41.07139" lon="14.3746683"><ele>179.16666666666666</ele><time>2026-04-04T10:43:01.008Z</time></trkpt><trkpt lat="41.0714517" lon="14.3746967"><ele>179.0</ele><time>2026-04-04T10:43:03.008Z</time></trkpt><trkpt lat="41.0715417" lon="14.3747683"><ele>177.2857142857143</ele><time>2026-04-04T10:43:05.006Z</time></trkpt><trkpt lat="41.071595" lon="14.3748183"><ele>175.57142857142858</ele><time>2026-04-04T10:43:06.011Z</time></trkpt><trkpt lat="41.0716433" lon="14.3748767"><ele>173.85714285714286</ele><time>2026-04-04T10:43:07.01Z</time></trkpt><trkpt lat="41.0716867" lon="14.3749417"><ele>172.14285714285717</ele><time>2026-04-04T10:43:08.008Z</time></trkpt><trkpt lat="41.07173" lon="14.3750133"><ele>170.42857142857144</ele><time>2026-04-04T10:43:09.006Z</time></trkpt><trkpt lat="41.071775" lon="14.3750867"><ele>168.71428571428572</ele><time>2026-04-04T10:43:10.008Z</time></trkpt><trkpt lat="41.0718433" lon="14.3752017"><ele>167.0</ele><time>2026-04-04T10:43:12.009Z</time></trkpt><trkpt lat="41.0719117" lon="14.3753"><ele>165.4</ele><time>2026-04-04T10:43:14.009Z</time></trkpt><trkpt lat="41.0719633" lon="14.375415"><ele>163.79999999999998</ele><time>2026-04-04T10:43:16.008Z</time></trkpt><trkpt lat="41.071985" lon="14.3755433"><ele>162.2</ele><time>2026-04-04T10:43:18.008Z</time></trkpt><trkpt lat="41.0720067" lon="14.3756667"><ele>160.6</ele><time>2026-04-04T10:43:20.008Z</time></trkpt><trkpt lat="41.0720233" lon="14.3757983"><ele>159.0</ele><time>2026-04-04T10:43:22.009Z</time></trkpt><trkpt lat="41.0720383" lon="14.37593"><ele>158.83333333333334</ele><time>2026-04-04T10:43:24.008Z</time></trkpt><trkpt lat="41.07205" lon="14.3760683"><ele>158.66666666666666</ele><time>2026-04-04T10:43:26.008Z</time></trkpt><trkpt lat="41.0720683" lon="14.3762067"><ele>158.5</ele><time>2026-04-04T10:43:28.007Z</time></trkpt><trkpt lat="41.072085" lon="14.3763183"><ele>158.33333333333331</ele><time>2026-04-04T10:43:30.008Z</time></trkpt><trkpt lat="41.0721017" lon="14.37642"><ele>158.16666666666666</ele><time>2026-04-04T10:43:32.006Z</time></trkpt><trkpt lat="41.072125" lon="14.3765083"><ele>158.0</ele><time>2026-04-04T10:43:34.008Z</time></trkpt><trkpt lat="41.0721367" lon="14.3765917"><ele>158.0</ele><time>2026-04-04T10:43:36.008Z</time></trkpt><trkpt lat="41.072195" lon="14.3766633"><ele>158.0</ele><time>2026-04-04T10:43:39.009Z</time></trkpt><trkpt lat="41.0723033" lon="14.3766267"><ele>158.0</ele><time>2026-04-04T10:43:42.008Z</time></trkpt><trkpt lat="41.07238" lon="14.3766083"><ele>158.0</ele><time>2026-04-04T10:43:44.008Z</time></trkpt><trkpt lat="41.0724617" lon="14.3765733"><ele>158.0</ele><time>2026-04-04T10:43:46.007Z</time></trkpt><trkpt lat="41.0725333" lon="14.3765367"><ele>158.0</ele><time>2026-04-04T10:43:48.007Z</time></trkpt><trkpt lat="41.0726083" lon="14.3765683"><ele>157.83333333333331</ele><time>2026-04-04T10:43:50.006Z</time></trkpt><trkpt lat="41.0726683" lon="14.3766567"><ele>157.66666666666666</ele><time>2026-04-04T10:43:52.006Z</time></trkpt><trkpt lat="41.0727233" lon="14.37675"><ele>157.5</ele><time>2026-04-04T10:43:54.007Z</time></trkpt><trkpt lat="41.0727717" lon="14.3768367"><ele>157.33333333333334</ele><time>2026-04-04T10:43:56.008Z</time></trkpt><trkpt lat="41.0728333" lon="14.3769183"><ele>157.16666666666669</ele><time>2026-04-04T10:43:58.007Z</time></trkpt><trkpt lat="41.0728883" lon="14.3769817"><ele>157.0</ele><time>2026-04-04T10:44:00.007Z</time></trkpt><trkpt lat="41.07295" lon="14.37702"><ele>156.99999999999997</ele><time>2026-04-04T10:44:02.008Z</time></trkpt><trkpt lat="41.073025" lon="14.3770483"><ele>157.0</ele><time>2026-04-04T10:44:04.007Z</time></trkpt><trkpt lat="41.0730883" lon="14.3770733"><ele>157.0</ele><time>2026-04-04T10:44:06.007Z</time></trkpt><trkpt lat="41.073175" lon="14.3770817"><ele>157.0</ele><time>2026-04-04T10:44:08.007Z</time></trkpt><trkpt lat="41.0732467" lon="14.377095"><ele>157.0</ele><time>2026-04-04T10:44:10.006Z</time></trkpt><trkpt lat="41.0733033" lon="14.3771317"><ele>156.99999999999997</ele><time>2026-04-04T10:44:13.009Z</time></trkpt><trkpt lat="41.0733767" lon="14.3771017"><ele>157.0</ele><time>2026-04-04T10:45:17.006Z</time></trkpt><trkpt lat="41.0734583" lon="14.3770833"><ele>156.6</ele><time>2026-04-04T10:45:21.006Z</time></trkpt><trkpt lat="41.0735367" lon="14.3770567"><ele>156.2</ele><time>2026-04-04T10:45:24.008Z</time></trkpt><trkpt lat="41.0736067" lon="14.3770233"><ele>155.8</ele><time>2026-04-04T10:45:26.007Z</time></trkpt><trkpt lat="41.0736883" lon="14.37696"><ele>155.4</ele><time>2026-04-04T10:45:28.008Z</time></trkpt><trkpt lat="41.073785" lon="14.37687"><ele>155.0</ele><time>2026-04-04T10:45:30.008Z</time></trkpt><trkpt lat="41.0738883" lon="14.376775"><ele>155.0</ele><time>2026-04-04T10:45:32.009Z</time></trkpt><trkpt lat="41.0739717" lon="14.3766967"><ele>155.0</ele><time>2026-04-04T10:45:34.007Z</time></trkpt><trkpt lat="41.0740367" lon="14.376605"><ele>155.0</ele><time>2026-04-04T10:45:36.007Z</time></trkpt><trkpt lat="41.0740717" lon="14.376505"><ele>155.0</ele><time>2026-04-04T10:45:38.008Z</time></trkpt><trkpt lat="41.0741483" lon="14.37647"><ele>155.0</ele><time>2026-04-04T10:47:14.006Z</time></trkpt><trkpt lat="41.0742017" lon="14.3764017"><ele>155.0</ele><time>2026-04-04T10:47:16.006Z</time></trkpt><trkpt lat="41.0742617" lon="14.3763283"><ele>153.8</ele><time>2026-04-04T10:47:18.006Z</time></trkpt><trkpt lat="41.074345" lon="14.3762467"><ele>152.6</ele><time>2026-04-04T10:47:20.006Z</time></trkpt><trkpt lat="41.0744133" lon="14.3761717"><ele>151.4</ele><time>2026-04-04T10:47:22.006Z</time></trkpt><trkpt lat="41.0744933" lon="14.3760867"><ele>150.2</ele><time>2026-04-04T10:47:24.006Z</time></trkpt><trkpt lat="41.0745883" lon="14.375995"><ele>149.0</ele><time>2026-04-04T10:47:26.006Z</time></trkpt><trkpt lat="41.07464" lon="14.3759417"><ele>149.0</ele><time>2026-04-04T10:47:27.006Z</time></trkpt><trkpt lat="41.0746917" lon="14.3758833"><ele>149.0</ele><time>2026-04-04T10:47:28.007Z</time></trkpt><trkpt lat="41.0747417" lon="14.375815"><ele>149.0</ele><time>2026-04-04T10:47:29.006Z</time></trkpt><trkpt lat="41.0747983" lon="14.3757583"><ele>149.0</ele><time>2026-04-04T10:47:30.007Z</time></trkpt><trkpt lat="41.0748617" lon="14.375705"><ele>149.0</ele><time>2026-04-04T10:47:31.007Z</time></trkpt><trkpt lat="41.0749283" lon="14.3756567"><ele>149.0</ele><time>2026-04-04T10:47:32.008Z</time></trkpt><trkpt lat="41.0750033" lon="14.3756133"><ele>149.0</ele><time>2026-04-04T10:47:33.007Z</time></trkpt><trkpt lat="41.075075" lon="14.3755667"><ele>148.16666666666666</ele><time>2026-04-04T10:47:34.007Z</time></trkpt><trkpt lat="41.0751417" lon="14.3755183"><ele>147.33333333333331</ele><time>2026-04-04T10:47:35.006Z</time></trkpt><trkpt lat="41.0752033" lon="14.3754683"><ele>146.5</ele><time>2026-04-04T10:47:36.006Z</time></trkpt><trkpt lat="41.0752683" lon="14.37541"><ele>145.66666666666666</ele><time>2026-04-04T10:47:37.007Z</time></trkpt><trkpt lat="41.0753383" lon="14.3753617"><ele>144.83333333333334</ele><time>2026-04-04T10:47:38.007Z</time></trkpt><trkpt lat="41.0754133" lon="14.37532"><ele>144.0</ele><time>2026-04-04T10:47:39.006Z</time></trkpt><trkpt lat="41.0754917" lon="14.3752817"><ele>144.0</ele><time>2026-04-04T10:47:40.008Z</time></trkpt><trkpt lat="41.0755717" lon="14.37524"><ele>144.0</ele><time>2026-04-04T10:47:41.006Z</time></trkpt><trkpt lat="41.075655" lon="14.3752"><ele>144.0</ele><time>2026-04-04T10:47:42.006Z</time></trkpt><trkpt lat="41.0757367" lon="14.3751533"><ele>144.0</ele><time>2026-04-04T10:47:43.006Z</time></trkpt><trkpt lat="41.0758267" lon="14.3751067"><ele>144.0</ele><time>2026-04-04T10:47:44.006Z</time></trkpt><trkpt lat="41.0759117" lon="14.3750583"><ele>143.8</ele><time>2026-04-04T10:47:45.005Z</time></trkpt><trkpt lat="41.076" lon="14.3750067"><ele>143.60000000000002</ele><time>2026-04-04T10:47:46.005Z</time></trkpt><trkpt lat="41.0760817" lon="14.3749367"><ele>143.4</ele><time>2026-04-04T10:47:47.005Z</time></trkpt><trkpt lat="41.0761617" lon="14.3748683"><ele>143.20000000000002</ele><time>2026-04-04T10:47:48.007Z</time></trkpt><trkpt lat="41.0762367" lon="14.3747933"><ele>143.0</ele><time>2026-04-04T10:47:49.006Z</time></trkpt><trkpt lat="41.076305" lon="14.374705"><ele>143.0</ele><time>2026-04-04T10:47:50.006Z</time></trkpt><trkpt lat="41.0763633" lon="14.3746267"><ele>143.0</ele><time>2026-04-04T10:47:51.006Z</time></trkpt><trkpt lat="41.07642" lon="14.374545"><ele>143.0</ele><time>2026-04-04T10:47:52.005Z</time></trkpt><trkpt lat="41.0764767" lon="14.3744567"><ele>143.0</ele><time>2026-04-04T10:47:53.006Z</time></trkpt><trkpt lat="41.0765333" lon="14.37437"><ele>143.0</ele><time>2026-04-04T10:47:54.006Z</time></trkpt><trkpt lat="41.0765933" lon="14.374285"><ele>143.0</ele><time>2026-04-04T10:47:55.007Z</time></trkpt><trkpt lat="41.0766517" lon="14.374195"><ele>142.33333333333331</ele><time>2026-04-04T10:47:56.006Z</time></trkpt><trkpt lat="41.07671" lon="14.3741133"><ele>141.66666666666666</ele><time>2026-04-04T10:47:57.005Z</time></trkpt><trkpt lat="41.07677" lon="14.3740317"><ele>141.0</ele><time>2026-04-04T10:47:58.006Z</time></trkpt><trkpt lat="41.0768217" lon="14.373945"><ele>140.33333333333334</ele><time>2026-04-04T10:47:59.006Z</time></trkpt><trkpt lat="41.076865" lon="14.37385"><ele>139.66666666666669</ele><time>2026-04-04T10:48:00.006Z</time></trkpt><trkpt lat="41.076905" lon="14.3737567"><ele>139.0</ele><time>2026-04-04T10:48:01.005Z</time></trkpt><trkpt lat="41.0769333" lon="14.3736467"><ele>138.33333333333334</ele><time>2026-04-04T10:48:02.006Z</time></trkpt><trkpt lat="41.076955" lon="14.3735317"><ele>137.66666666666669</ele><time>2026-04-04T10:48:03.005Z</time></trkpt><trkpt lat="41.07698" lon="14.373425"><ele>137.0</ele><time>2026-04-04T10:48:04.005Z</time></trkpt><trkpt lat="41.0770167" lon="14.3733217"><ele>136.33333333333334</ele><time>2026-04-04T10:48:05.005Z</time></trkpt><trkpt lat="41.07706" lon="14.3732317"><ele>135.66666666666666</ele><time>2026-04-04T10:48:06.006Z</time></trkpt><trkpt lat="41.077115" lon="14.37315"><ele>135.0</ele><time>2026-04-04T10:48:07.006Z</time></trkpt><trkpt lat="41.0771717" lon="14.3730733"><ele>134.83333333333334</ele><time>2026-04-04T10:48:08.006Z</time></trkpt><trkpt lat="41.077235" lon="14.3730117"><ele>134.66666666666666</ele><time>2026-04-04T10:48:09.005Z</time></trkpt><trkpt lat="41.0773017" lon="14.3729533"><ele>134.5</ele><time>2026-04-04T10:48:10.006Z</time></trkpt><trkpt lat="41.0773667" lon="14.3728817"><ele>134.33333333333331</ele><time>2026-04-04T10:48:11.006Z</time></trkpt><trkpt lat="41.0774317" lon="14.3727983"><ele>134.16666666666666</ele><time>2026-04-04T10:48:12.006Z</time></trkpt><trkpt lat="41.0775033" lon="14.3727167"><ele>134.0</ele><time>2026-04-04T10:48:13.006Z</time></trkpt><trkpt lat="41.0775767" lon="14.372635"><ele>133.4</ele><time>2026-04-04T10:48:14.006Z</time></trkpt><trkpt lat="41.07765" lon="14.3725633"><ele>132.8</ele><time>2026-04-04T10:48:15.007Z</time></trkpt><trkpt lat="41.077725" lon="14.3724867"><ele>132.2</ele><time>2026-04-04T10:48:16.005Z</time></trkpt><trkpt lat="41.0777967" lon="14.372415"><ele>131.6</ele><time>2026-04-04T10:48:17.006Z</time></trkpt><trkpt lat="41.0778717" lon="14.37234"><ele>131.0</ele><time>2026-04-04T10:48:18.006Z</time></trkpt><trkpt lat="41.0779417" lon="14.3722583"><ele>130.8</ele><time>2026-04-04T10:48:19.005Z</time></trkpt><trkpt lat="41.078015" lon="14.3721833"><ele>130.6</ele><time>2026-04-04T10:48:20.006Z</time></trkpt><trkpt lat="41.0780867" lon="14.3721117"><ele>130.4</ele><time>2026-04-04T10:48:21.007Z</time></trkpt><trkpt lat="41.07816" lon="14.372035"><ele>130.2</ele><time>2026-04-04T10:48:22.006Z</time></trkpt><trkpt lat="41.078235" lon="14.3719617"><ele>130.0</ele><time>2026-04-04T10:48:23.006Z</time></trkpt><trkpt lat="41.07831" lon="14.371885"><ele>129.8</ele><time>2026-04-04T10:48:24.006Z</time></trkpt><trkpt lat="41.0783867" lon="14.3718133"><ele>129.6</ele><time>2026-04-04T10:48:25.007Z</time></trkpt><trkpt lat="41.07846" lon="14.3717417"><ele>129.4</ele><time>2026-04-04T10:48:26.005Z</time></trkpt><trkpt lat="41.0785317" lon="14.371665"><ele>129.2</ele><time>2026-04-04T10:48:27.006Z</time></trkpt><trkpt lat="41.078595" lon="14.3715833"><ele>129.0</ele><time>2026-04-04T10:48:28.006Z</time></trkpt><trkpt lat="41.07866" lon="14.371505"><ele>129.0</ele><time>2026-04-04T10:48:29.006Z</time></trkpt><trkpt lat="41.078725" lon="14.3714183"><ele>129.0</ele><time>2026-04-04T10:48:30.006Z</time></trkpt><trkpt lat="41.0787833" lon="14.3713333"><ele>129.0</ele><time>2026-04-04T10:48:31.007Z</time></trkpt><trkpt lat="41.07884" lon="14.3712483"><ele>129.0</ele><time>2026-04-04T10:48:32.006Z</time></trkpt><trkpt lat="41.0788917" lon="14.37116"><ele>129.0</ele><time>2026-04-04T10:48:33.005Z</time></trkpt><trkpt lat="41.0789483" lon="14.371075"><ele>129.0</ele><time>2026-04-04T10:48:34.005Z</time></trkpt><trkpt lat="41.0790083" lon="14.3709917"><ele>129.0</ele><time>2026-04-04T10:48:35.005Z</time></trkpt><trkpt lat="41.0790667" lon="14.3709117"><ele>129.0</ele><time>2026-04-04T10:48:36.007Z</time></trkpt><trkpt lat="41.079125" lon="14.3708367"><ele>129.0</ele><time>2026-04-04T10:48:37.006Z</time></trkpt><trkpt lat="41.0791867" lon="14.3707533"><ele>129.0</ele><time>2026-04-04T10:48:38.006Z</time></trkpt><trkpt lat="41.0792517" lon="14.37067"><ele>129.0</ele><time>2026-04-04T10:48:39.007Z</time></trkpt><trkpt lat="41.0793167" lon="14.3705933"><ele>129.0</ele><time>2026-04-04T10:48:40.005Z</time></trkpt><trkpt lat="41.0793783" lon="14.37052"><ele>128.0</ele><time>2026-04-04T10:48:41.006Z</time></trkpt><trkpt lat="41.0794483" lon="14.3704533"><ele>127.0</ele><time>2026-04-04T10:48:42.006Z</time></trkpt><trkpt lat="41.0795183" lon="14.3703933"><ele>126.0</ele><time>2026-04-04T10:48:43.007Z</time></trkpt><trkpt lat="41.0795917" lon="14.370335"><ele>125.0</ele><time>2026-04-04T10:48:44.006Z</time></trkpt><trkpt lat="41.0796633" lon="14.370275"><ele>124.0</ele><time>2026-04-04T10:48:45.006Z</time></trkpt><trkpt lat="41.0797333" lon="14.3702133"><ele>123.0</ele><time>2026-04-04T10:48:46.006Z</time></trkpt><trkpt lat="41.0798033" lon="14.3701517"><ele>123.0</ele><time>2026-04-04T10:48:47.007Z</time></trkpt><trkpt lat="41.0798683" lon="14.3700933"><ele>123.0</ele><time>2026-04-04T10:48:48.006Z</time></trkpt><trkpt lat="41.0799317" lon="14.3700317"><ele>123.0</ele><time>2026-04-04T10:48:49.005Z</time></trkpt><trkpt lat="41.0799983" lon="14.3699733"><ele>123.0</ele><time>2026-04-04T10:48:50.006Z</time></trkpt><trkpt lat="41.0800667" lon="14.3699083"><ele>123.0</ele><time>2026-04-04T10:48:51.005Z</time></trkpt><trkpt lat="41.0801333" lon="14.3698533"><ele>123.0</ele><time>2026-04-04T10:48:52.006Z</time></trkpt><trkpt lat="41.0802" lon="14.369795"><ele>123.0</ele><time>2026-04-04T10:48:53.006Z</time></trkpt><trkpt lat="41.0802717" lon="14.36974"><ele>123.0</ele><time>2026-04-04T10:48:54.006Z</time></trkpt><trkpt lat="41.08035" lon="14.3696917"><ele>123.0</ele><time>2026-04-04T10:48:55.005Z</time></trkpt><trkpt lat="41.0804267" lon="14.369645"><ele>123.0</ele><time>2026-04-04T10:48:56.006Z</time></trkpt><trkpt lat="41.08049" lon="14.3695933"><ele>123.0</ele><time>2026-04-04T10:48:57.006Z</time></trkpt><trkpt lat="41.0805533" lon="14.36955"><ele>123.0</ele><time>2026-04-04T10:48:58.007Z</time></trkpt><trkpt lat="41.0806167" lon="14.3695083"><ele>123.00000000000001</ele><time>2026-04-04T10:48:59.006Z</time></trkpt><trkpt lat="41.0806783" lon="14.3694583"><ele>123.0</ele><time>2026-04-04T10:49:00.007Z</time></trkpt><trkpt lat="41.0807417" lon="14.3694067"><ele>123.00000000000001</ele><time>2026-04-04T10:49:01.005Z</time></trkpt><trkpt lat="41.080805" lon="14.3693533"><ele>123.00000000000001</ele><time>2026-04-04T10:49:02.007Z</time></trkpt><trkpt lat="41.080865" lon="14.3692967"><ele>123.0</ele><time>2026-04-04T10:49:03.006Z</time></trkpt><trkpt lat="41.080925" lon="14.3692383"><ele>123.00000000000001</ele><time>2026-04-04T10:49:04.006Z</time></trkpt><trkpt lat="41.0809883" lon="14.3691883"><ele>123.00000000000001</ele><time>2026-04-04T10:49:05.006Z</time></trkpt><trkpt lat="41.0810483" lon="14.36914"><ele>123.4</ele><time>2026-04-04T10:49:06.007Z</time></trkpt><trkpt lat="41.08111" lon="14.3690983"><ele>123.80000000000001</ele><time>2026-04-04T10:49:07.006Z</time></trkpt><trkpt lat="41.0812217" lon="14.3690267"><ele>124.2</ele><time>2026-04-04T10:49:09.008Z</time></trkpt><trkpt lat="41.08128" lon="14.3689933"><ele>124.6</ele><time>2026-04-04T10:49:10.005Z</time></trkpt><trkpt lat="41.08139" lon="14.3689267"><ele>125.0</ele><time>2026-04-04T10:49:12.006Z</time></trkpt><trkpt lat="41.0814983" lon="14.3688667"><ele>124.6</ele><time>2026-04-04T10:49:14.007Z</time></trkpt><trkpt lat="41.0815967" lon="14.368805"><ele>124.2</ele><time>2026-04-04T10:49:16.006Z</time></trkpt><trkpt lat="41.0816983" lon="14.3687533"><ele>123.80000000000001</ele><time>2026-04-04T10:49:18.006Z</time></trkpt><trkpt lat="41.0818017" lon="14.3687"><ele>123.4</ele><time>2026-04-04T10:49:20.006Z</time></trkpt><trkpt lat="41.0818983" lon="14.3686383"><ele>123.0</ele><time>2026-04-04T10:49:22.006Z</time></trkpt><trkpt lat="41.082" lon="14.3685717"><ele>123.0</ele><time>2026-04-04T10:49:24.006Z</time></trkpt><trkpt lat="41.0820917" lon="14.3685117"><ele>123.00000000000001</ele><time>2026-04-04T10:49:26.006Z</time></trkpt><trkpt lat="41.08217" lon="14.3684533"><ele>123.00000000000001</ele><time>2026-04-04T10:49:28.006Z</time></trkpt><trkpt lat="41.0822467" lon="14.368375"><ele>123.0</ele><time>2026-04-04T10:49:30.006Z</time></trkpt><trkpt lat="41.0823333" lon="14.3682767"><ele>123.0</ele><time>2026-04-04T10:49:32.006Z</time></trkpt><trkpt lat="41.0824183" lon="14.3681567"><ele>123.33333333333333</ele><time>2026-04-04T10:49:34.007Z</time></trkpt><trkpt lat="41.0824583" lon="14.3680867"><ele>123.66666666666666</ele><time>2026-04-04T10:49:35.006Z</time></trkpt><trkpt lat="41.0825033" lon="14.3680117"><ele>124.0</ele><time>2026-04-04T10:49:36.006Z</time></trkpt><trkpt lat="41.0825567" lon="14.36795"><ele>124.33333333333333</ele><time>2026-04-04T10:49:37.006Z</time></trkpt><trkpt lat="41.0826067" lon="14.3678883"><ele>124.66666666666666</ele><time>2026-04-04T10:49:38.006Z</time></trkpt><trkpt lat="41.0827167" lon="14.3678117"><ele>125.0</ele><time>2026-04-04T10:49:40.006Z</time></trkpt><trkpt lat="41.0828217" lon="14.3677533"><ele>124.99999999999999</ele><time>2026-04-04T10:49:42.008Z</time></trkpt><trkpt lat="41.0829167" lon="14.3677067"><ele>125.0</ele><time>2026-04-04T10:49:44.006Z</time></trkpt><trkpt lat="41.0830033" lon="14.36767"><ele>125.0</ele><time>2026-04-04T10:49:46.006Z</time></trkpt><trkpt lat="41.0830783" lon="14.367655"><ele>125.0</ele><time>2026-04-04T10:49:48.006Z</time></trkpt><trkpt lat="41.0831517" lon="14.367645"><ele>124.99999999999999</ele><time>2026-04-04T10:49:50.006Z</time></trkpt><trkpt lat="41.0832183" lon="14.3676333"><ele>125.0</ele><time>2026-04-04T10:49:52.007Z</time></trkpt><trkpt lat="41.0832783" lon="14.3675683"><ele>124.4</ele><time>2026-04-04T10:49:55.006Z</time></trkpt><trkpt lat="41.0832983" lon="14.3674733"><ele>123.8</ele><time>2026-04-04T10:49:57.007Z</time></trkpt><trkpt lat="41.083305" lon="14.36736"><ele>123.19999999999999</ele><time>2026-04-04T10:49:59.007Z</time></trkpt><trkpt lat="41.08329" lon="14.3672383"><ele>122.6</ele><time>2026-04-04T10:50:01.006Z</time></trkpt><trkpt lat="41.0832667" lon="14.36711"><ele>122.0</ele><time>2026-04-04T10:50:03.006Z</time></trkpt><trkpt lat="41.08326" lon="14.3669717"><ele>122.0</ele><time>2026-04-04T10:50:05.006Z</time></trkpt><trkpt lat="41.08326" lon="14.3668183"><ele>121.99999999999999</ele><time>2026-04-04T10:50:07.006Z</time></trkpt><trkpt lat="41.08327" lon="14.3666633"><ele>121.99999999999999</ele><time>2026-04-04T10:50:09.006Z</time></trkpt><trkpt lat="41.08332" lon="14.3665167"><ele>122.0</ele><time>2026-04-04T10:50:11.006Z</time></trkpt><trkpt lat="41.0833517" lon="14.3664433"><ele>122.0</ele><time>2026-04-04T10:50:12.008Z</time></trkpt><trkpt lat="41.0834117" lon="14.3663783"><ele>122.83333333333333</ele><time>2026-04-04T10:50:13.007Z</time></trkpt><trkpt lat="41.083455" lon="14.3663067"><ele>123.66666666666666</ele><time>2026-04-04T10:50:14.007Z</time></trkpt><trkpt lat="41.0834983" lon="14.3662383"><ele>124.5</ele><time>2026-04-04T10:50:15.006Z</time></trkpt><trkpt lat="41.0835433" lon="14.36617"><ele>125.33333333333334</ele><time>2026-04-04T10:50:16.006Z</time></trkpt><trkpt lat="41.0835883" lon="14.3660967"><ele>126.16666666666667</ele><time>2026-04-04T10:50:17.006Z</time></trkpt><trkpt lat="41.0836283" lon="14.3660217"><ele>127.0</ele><time>2026-04-04T10:50:18.006Z</time></trkpt><trkpt lat="41.0836983" lon="14.3659083"><ele>127.0</ele><time>2026-04-04T10:50:20.006Z</time></trkpt><trkpt lat="41.0837483" lon="14.365825"><ele>127.0</ele><time>2026-04-04T10:50:22.006Z</time></trkpt><trkpt lat="41.0837917" lon="14.365755"><ele>127.0</ele><time>2026-04-04T10:50:24.006Z</time></trkpt><trkpt lat="41.0838467" lon="14.3656767"><ele>127.0</ele><time>2026-04-04T10:50:26.006Z</time></trkpt><trkpt lat="41.0838983" lon="14.3656117"><ele>127.0</ele><time>2026-04-04T10:50:28.006Z</time></trkpt><trkpt lat="41.08395" lon="14.3655517"><ele>127.0</ele><time>2026-04-04T10:50:30.006Z</time></trkpt><trkpt lat="41.08399" lon="14.36548"><ele>127.0</ele><time>2026-04-04T10:50:32.007Z</time></trkpt><trkpt lat="41.08403" lon="14.3653833"><ele>126.71428571428572</ele><time>2026-04-04T10:50:35.005Z</time></trkpt><trkpt lat="41.0840933" lon="14.3653267"><ele>126.42857142857142</ele><time>2026-04-04T10:50:38.005Z</time></trkpt><trkpt lat="41.084145" lon="14.3652767"><ele>126.14285714285714</ele><time>2026-04-04T10:50:40.005Z</time></trkpt><trkpt lat="41.0841933" lon="14.365215"><ele>125.85714285714286</ele><time>2026-04-04T10:50:42.006Z</time></trkpt><trkpt lat="41.084225" lon="14.3651333"><ele>125.57142857142858</ele><time>2026-04-04T10:50:44.005Z</time></trkpt><trkpt lat="41.084285" lon="14.3650983"><ele>125.28571428571428</ele><time>2026-04-04T10:50:46.005Z</time></trkpt><trkpt lat="41.0843483" lon="14.3650983"><ele>125.0</ele><time>2026-04-04T10:50:48.006Z</time></trkpt><trkpt lat="41.0844067" lon="14.3651467"><ele>126.49999999999999</ele><time>2026-04-04T10:50:50.006Z</time></trkpt><trkpt lat="41.0844517" lon="14.3652133"><ele>128.0</ele><time>2026-04-04T10:50:52.005Z</time></trkpt><trkpt lat="41.0844717" lon="14.36531"><ele>129.5</ele><time>2026-04-04T10:50:54.007Z</time></trkpt><trkpt lat="41.0845267" lon="14.3654183"><ele>131.0</ele><time>2026-04-04T10:50:57.005Z</time></trkpt><trkpt lat="41.08457" lon="14.365505"><ele>132.5</ele><time>2026-04-04T10:51:00.009Z</time></trkpt><trkpt lat="41.084625" lon="14.3655783"><ele>134.0</ele><time>2026-04-04T10:51:03.006Z</time></trkpt><trkpt lat="41.084685" lon="14.3656233"><ele>134.0</ele><time>2026-04-04T10:51:07.005Z</time></trkpt><trkpt lat="41.08476" lon="14.36563"><ele>134.0</ele><time>2026-04-04T10:51:12.005Z</time></trkpt><trkpt lat="41.08484" lon="14.3656183"><ele>134.0</ele><time>2026-04-04T10:51:15.005Z</time></trkpt><trkpt lat="41.0849233" lon="14.3655767"><ele>134.0</ele><time>2026-04-04T10:51:18.006Z</time></trkpt><trkpt lat="41.0849783" lon="14.3655067"><ele>134.0</ele><time>2026-04-04T10:51:21.005Z</time></trkpt><trkpt lat="41.0850583" lon="14.36546"><ele>134.0</ele><time>2026-04-04T10:51:24.006Z</time></trkpt><trkpt lat="41.0851383" lon="14.3654017"><ele>135.0</ele><time>2026-04-04T10:51:27.005Z</time></trkpt><trkpt lat="41.0852083" lon="14.3653217"><ele>136.0</ele><time>2026-04-04T10:51:30.006Z</time></trkpt><trkpt lat="41.0852767" lon="14.3652433"><ele>137.0</ele><time>2026-04-04T10:51:33.005Z</time></trkpt><trkpt lat="41.08534" lon="14.3651633"><ele>138.0</ele><time>2026-04-04T10:51:36.006Z</time></trkpt><trkpt lat="41.0853867" lon="14.3650933"><ele>139.0</ele><time>2026-04-04T10:51:39.005Z</time></trkpt><trkpt lat="41.0854433" lon="14.3649983"><ele>140.0</ele><time>2026-04-04T10:51:42.005Z</time></trkpt><trkpt lat="41.08551" lon="14.3649217"><ele>140.0</ele><time>2026-04-04T10:51:45.005Z</time></trkpt><trkpt lat="41.0855667" lon="14.364875"><ele>140.0</ele><time>2026-04-04T10:51:47.009Z</time></trkpt><trkpt lat="41.08562" lon="14.3648283"><ele>140.0</ele><time>2026-04-04T10:51:49.005Z</time></trkpt><trkpt lat="41.085705" lon="14.3647417"><ele>140.0</ele><time>2026-04-04T10:51:52.005Z</time></trkpt><trkpt lat="41.085755" lon="14.36468"><ele>140.0</ele><time>2026-04-04T10:51:54.006Z</time></trkpt><trkpt lat="41.08583" lon="14.364595"><ele>140.0</ele><time>2026-04-04T10:51:57.005Z</time></trkpt><trkpt lat="41.0858833" lon="14.3645333"><ele>140.4</ele><time>2026-04-04T10:51:59.005Z</time></trkpt><trkpt lat="41.08595" lon="14.3644967"><ele>140.8</ele><time>2026-04-04T10:52:01.006Z</time></trkpt><trkpt lat="41.086025" lon="14.3644583"><ele>141.2</ele><time>2026-04-04T10:52:03.006Z</time></trkpt><trkpt lat="41.0861067" lon="14.3643867"><ele>141.6</ele><time>2026-04-04T10:52:05.005Z</time></trkpt><trkpt lat="41.0861683" lon="14.3642817"><ele>142.0</ele><time>2026-04-04T10:52:07.008Z</time></trkpt><trkpt lat="41.0862383" lon="14.3641767"><ele>142.0</ele><time>2026-04-04T10:52:09.005Z</time></trkpt><trkpt lat="41.086285" lon="14.3640783"><ele>142.0</ele><time>2026-04-04T10:52:11.005Z</time></trkpt><trkpt lat="41.0863567" lon="14.3640033"><ele>142.0</ele><time>2026-04-04T10:52:13.005Z</time></trkpt><trkpt lat="41.0864533" lon="14.3639517"><ele>142.0</ele><time>2026-04-04T10:52:15.006Z</time></trkpt><trkpt lat="41.0865517" lon="14.363905"><ele>142.0</ele><time>2026-04-04T10:52:17.005Z</time></trkpt><trkpt lat="41.0866367" lon="14.3638733"><ele>142.0</ele><time>2026-04-04T10:52:19.005Z</time></trkpt><trkpt lat="41.0867083" lon="14.3638433"><ele>142.0</ele><time>2026-04-04T10:52:21.006Z</time></trkpt><trkpt lat="41.0867817" lon="14.3638"><ele>142.0</ele><time>2026-04-04T10:52:23.005Z</time></trkpt><trkpt lat="41.086855" lon="14.3637483"><ele>142.0</ele><time>2026-04-04T10:52:25.005Z</time></trkpt><trkpt lat="41.0869233" lon="14.3637133"><ele>142.0</ele><time>2026-04-04T10:52:27.005Z</time></trkpt><trkpt lat="41.087" lon="14.3636883"><ele>142.0</ele><time>2026-04-04T10:52:29.007Z</time></trkpt><trkpt lat="41.0870667" lon="14.3636433"><ele>142.0</ele><time>2026-04-04T10:52:31.006Z</time></trkpt><trkpt lat="41.0871433" lon="14.3636017"><ele>142.0</ele><time>2026-04-04T10:52:33.008Z</time></trkpt><trkpt lat="41.087235" lon="14.3635483"><ele>142.0</ele><time>2026-04-04T10:52:35.006Z</time></trkpt><trkpt lat="41.08734" lon="14.3634583"><ele>142.0</ele><time>2026-04-04T10:52:37.005Z</time></trkpt><trkpt lat="41.0873867" lon="14.363395"><ele>142.0</ele><time>2026-04-04T10:52:38.005Z</time></trkpt><trkpt lat="41.08747" lon="14.363275"><ele>142.4</ele><time>2026-04-04T10:52:40.006Z</time></trkpt><trkpt lat="41.0875517" lon="14.3631533"><ele>142.79999999999998</ele><time>2026-04-04T10:52:42.006Z</time></trkpt><trkpt lat="41.08763" lon="14.3630567"><ele>143.2</ele><time>2026-04-04T10:52:44.006Z</time></trkpt><trkpt lat="41.0876933" lon="14.3629533"><ele>143.6</ele><time>2026-04-04T10:52:46.005Z</time></trkpt><trkpt lat="41.0877583" lon="14.3628567"><ele>144.0</ele><time>2026-04-04T10:52:48.007Z</time></trkpt><trkpt lat="41.087815" lon="14.3627617"><ele>144.0</ele><time>2026-04-04T10:52:50.007Z</time></trkpt><trkpt lat="41.0878683" lon="14.3626883"><ele>144.0</ele><time>2026-04-04T10:52:52.012Z</time></trkpt><trkpt lat="41.087925" lon="14.3626233"><ele>144.0</ele><time>2026-04-04T10:52:54.007Z</time></trkpt><trkpt lat="41.0880033" lon="14.3625467"><ele>144.0</ele><time>2026-04-04T10:52:56.011Z</time></trkpt><trkpt lat="41.08809" lon="14.3624667"><ele>144.0</ele><time>2026-04-04T10:52:58.006Z</time></trkpt><trkpt lat="41.08818" lon="14.36239"><ele>144.0</ele><time>2026-04-04T10:53:00.011Z</time></trkpt><trkpt lat="41.0882533" lon="14.3623067"><ele>144.0</ele><time>2026-04-04T10:53:02.006Z</time></trkpt><trkpt lat="41.0883367" lon="14.362245"><ele>144.0</ele><time>2026-04-04T10:53:04.012Z</time></trkpt><trkpt lat="41.088415" lon="14.36218"><ele>144.0</ele><time>2026-04-04T10:53:06.007Z</time></trkpt><trkpt lat="41.0885033" lon="14.3621383"><ele>144.0</ele><time>2026-04-04T10:53:08.006Z</time></trkpt><trkpt lat="41.088585" lon="14.3620967"><ele>144.5</ele><time>2026-04-04T10:53:10.008Z</time></trkpt><trkpt lat="41.0886733" lon="14.3620533"><ele>145.0</ele><time>2026-04-04T10:53:12.006Z</time></trkpt><trkpt lat="41.088765" lon="14.3620233"><ele>145.5</ele><time>2026-04-04T10:53:14.007Z</time></trkpt><trkpt lat="41.088845" lon="14.3619867"><ele>146.0</ele><time>2026-04-04T10:53:16.005Z</time></trkpt><trkpt lat="41.0889183" lon="14.36196"><ele>146.5</ele><time>2026-04-04T10:53:19.006Z</time></trkpt><trkpt lat="41.0889833" lon="14.3619217"><ele>147.0</ele><time>2026-04-04T10:53:21.006Z</time></trkpt><trkpt lat="41.089045" lon="14.3618883"><ele>148.16666666666666</ele><time>2026-04-04T10:53:23.007Z</time></trkpt><trkpt lat="41.08911" lon="14.3618333"><ele>149.33333333333334</ele><time>2026-04-04T10:53:25.007Z</time></trkpt><trkpt lat="41.0891717" lon="14.3617833"><ele>150.5</ele><time>2026-04-04T10:53:27.008Z</time></trkpt><trkpt lat="41.0892567" lon="14.3617217"><ele>151.66666666666669</ele><time>2026-04-04T10:53:30.009Z</time></trkpt><trkpt lat="41.089335" lon="14.361665"><ele>152.83333333333334</ele><time>2026-04-04T10:53:32.007Z</time></trkpt><trkpt lat="41.0894083" lon="14.361595"><ele>154.0</ele><time>2026-04-04T10:53:34.007Z</time></trkpt><trkpt lat="41.08948" lon="14.3615317"><ele>154.0</ele><time>2026-04-04T10:53:36.008Z</time></trkpt><trkpt lat="41.089555" lon="14.3614883"><ele>154.0</ele><time>2026-04-04T10:53:38.007Z</time></trkpt><trkpt lat="41.089625" lon="14.3614283"><ele>154.0</ele><time>2026-04-04T10:53:40.007Z</time></trkpt><trkpt lat="41.0896967" lon="14.3613817"><ele>154.0</ele><time>2026-04-04T10:53:42.008Z</time></trkpt><trkpt lat="41.0897667" lon="14.3613383"><ele>154.0</ele><time>2026-04-04T10:53:44.007Z</time></trkpt><trkpt lat="41.0898483" lon="14.361285"><ele>154.0</ele><time>2026-04-04T10:53:46.006Z</time></trkpt><trkpt lat="41.0899567" lon="14.361255"><ele>153.8</ele><time>2026-04-04T10:53:48.009Z</time></trkpt><trkpt lat="41.0899983" lon="14.3611433"><ele>153.60000000000002</ele><time>2026-04-04T10:53:50.008Z</time></trkpt><trkpt lat="41.0900483" lon="14.361025"><ele>153.4</ele><time>2026-04-04T10:53:52.007Z</time></trkpt><trkpt lat="41.0901" lon="14.3609"><ele>153.20000000000002</ele><time>2026-04-04T10:53:54.007Z</time></trkpt><trkpt lat="41.0901583" lon="14.3607633"><ele>153.0</ele><time>2026-04-04T10:53:56.007Z</time></trkpt><trkpt lat="41.0902" lon="14.360615"><ele>152.0</ele><time>2026-04-04T10:53:58.009Z</time></trkpt><trkpt lat="41.090255" lon="14.3604767"><ele>151.0</ele><time>2026-04-04T10:54:00.008Z</time></trkpt><trkpt lat="41.0903" lon="14.360345"><ele>150.0</ele><time>2026-04-04T10:54:02.008Z</time></trkpt><trkpt lat="41.09035" lon="14.36022"><ele>149.0</ele><time>2026-04-04T10:54:04.008Z</time></trkpt><trkpt lat="41.09042" lon="14.3600683"><ele>149.0</ele><time>2026-04-04T10:54:06.009Z</time></trkpt><trkpt lat="41.090455" lon="14.3599867"><ele>149.0</ele><time>2026-04-04T10:54:07.008Z</time></trkpt><trkpt lat="41.0904883" lon="14.35991"><ele>149.0</ele><time>2026-04-04T10:54:08.008Z</time></trkpt><trkpt lat="41.0905217" lon="14.3598283"><ele>149.0</ele><time>2026-04-04T10:54:09.008Z</time></trkpt><trkpt lat="41.0905617" lon="14.3597433"><ele>149.0</ele><time>2026-04-04T10:54:10.008Z</time></trkpt><trkpt lat="41.09061" lon="14.3596583"><ele>149.0</ele><time>2026-04-04T10:54:11.007Z</time></trkpt><trkpt lat="41.0906667" lon="14.3595783"><ele>149.0</ele><time>2026-04-04T10:54:12.008Z</time></trkpt><trkpt lat="41.0907167" lon="14.359495"><ele>149.0</ele><time>2026-04-04T10:54:13.009Z</time></trkpt><trkpt lat="41.0907667" lon="14.3594117"><ele>149.0</ele><time>2026-04-04T10:54:14.008Z</time></trkpt><trkpt lat="41.0908133" lon="14.3593233"><ele>149.0</ele><time>2026-04-04T10:54:15.007Z</time></trkpt><trkpt lat="41.0908533" lon="14.3592283"><ele>149.0</ele><time>2026-04-04T10:54:16.007Z</time></trkpt><trkpt lat="41.090885" lon="14.3591383"><ele>149.0</ele><time>2026-04-04T10:54:17.009Z</time></trkpt><trkpt lat="41.0909017" lon="14.359045"><ele>149.0</ele><time>2026-04-04T10:54:18.009Z</time></trkpt><trkpt lat="41.09091" lon="14.3589517"><ele>148.71428571428572</ele><time>2026-04-04T10:54:19.008Z</time></trkpt><trkpt lat="41.0908983" lon="14.3588517"><ele>148.42857142857142</ele><time>2026-04-04T10:54:20.007Z</time></trkpt><trkpt lat="41.0908833" lon="14.3587483"><ele>148.14285714285714</ele><time>2026-04-04T10:54:21.008Z</time></trkpt><trkpt lat="41.0908717" lon="14.3586483"><ele>147.85714285714286</ele><time>2026-04-04T10:54:22.007Z</time></trkpt><trkpt lat="41.0908683" lon="14.3585533"><ele>147.57142857142856</ele><time>2026-04-04T10:54:23.008Z</time></trkpt><trkpt lat="41.0908733" lon="14.3584633"><ele>147.28571428571428</ele><time>2026-04-04T10:54:24.009Z</time></trkpt><trkpt lat="41.0908817" lon="14.3583767"><ele>147.0</ele><time>2026-04-04T10:54:25.009Z</time></trkpt><trkpt lat="41.0908933" lon="14.3582883"><ele>147.0</ele><time>2026-04-04T10:54:26.007Z</time></trkpt><trkpt lat="41.0909133" lon="14.35819"><ele>147.0</ele><time>2026-04-04T10:54:27.008Z</time></trkpt><trkpt lat="41.090925" lon="14.3581"><ele>147.0</ele><time>2026-04-04T10:54:28.007Z</time></trkpt><trkpt lat="41.09094" lon="14.3580133"><ele>147.0</ele><time>2026-04-04T10:54:29.008Z</time></trkpt><trkpt lat="41.0909583" lon="14.35793"><ele>147.0</ele><time>2026-04-04T10:54:30.008Z</time></trkpt><trkpt lat="41.0909867" lon="14.3578517"><ele>147.0</ele><time>2026-04-04T10:54:31.008Z</time></trkpt><trkpt lat="41.0910333" lon="14.3577783"><ele>147.0</ele><time>2026-04-04T10:54:32.006Z</time></trkpt><trkpt lat="41.0910817" lon="14.3577017"><ele>146.71428571428572</ele><time>2026-04-04T10:54:33.007Z</time></trkpt><trkpt lat="41.0911167" lon="14.3576183"><ele>146.42857142857144</ele><time>2026-04-04T10:54:34.006Z</time></trkpt><trkpt lat="41.0911533" lon="14.3575267"><ele>146.14285714285714</ele><time>2026-04-04T10:54:35.007Z</time></trkpt><trkpt lat="41.0911867" lon="14.3574417"><ele>145.85714285714286</ele><time>2026-04-04T10:54:36.008Z</time></trkpt><trkpt lat="41.0912183" lon="14.3573617"><ele>145.57142857142858</ele><time>2026-04-04T10:54:37.007Z</time></trkpt><trkpt lat="41.0912417" lon="14.3572767"><ele>145.28571428571428</ele><time>2026-04-04T10:54:38.006Z</time></trkpt><trkpt lat="41.0912617" lon="14.35719"><ele>145.0</ele><time>2026-04-04T10:54:39.006Z</time></trkpt><trkpt lat="41.091285" lon="14.357105"><ele>144.0</ele><time>2026-04-04T10:54:40.005Z</time></trkpt><trkpt lat="41.091305" lon="14.3570183"><ele>143.0</ele><time>2026-04-04T10:54:41.006Z</time></trkpt><trkpt lat="41.0913417" lon="14.356875"><ele>142.0</ele><time>2026-04-04T10:54:43.006Z</time></trkpt><trkpt lat="41.0914067" lon="14.3567517"><ele>141.0</ele><time>2026-04-04T10:54:45.008Z</time></trkpt><trkpt lat="41.0914583" lon="14.3566833"><ele>140.0</ele><time>2026-04-04T10:54:46.006Z</time></trkpt><trkpt lat="41.0914933" lon="14.3565683"><ele>140.0</ele><time>2026-04-04T10:54:48.005Z</time></trkpt><trkpt lat="41.0915383" lon="14.356445"><ele>140.0</ele><time>2026-04-04T10:54:50.006Z</time></trkpt><trkpt lat="41.09163" lon="14.356365"><ele>140.0</ele><time>2026-04-04T10:54:52.006Z</time></trkpt><trkpt lat="41.0916817" lon="14.3562767"><ele>140.0</ele><time>2026-04-04T10:54:54.007Z</time></trkpt><trkpt lat="41.09175" lon="14.3561833"><ele>140.0</ele><time>2026-04-04T10:54:56.008Z</time></trkpt><trkpt lat="41.091845" lon="14.356135"><ele>140.83333333333331</ele><time>2026-04-04T10:54:58.006Z</time></trkpt><trkpt lat="41.0919183" lon="14.3560783"><ele>141.66666666666666</ele><time>2026-04-04T10:55:00.007Z</time></trkpt><trkpt lat="41.0919817" lon="14.3560133"><ele>142.5</ele><time>2026-04-04T10:55:02.008Z</time></trkpt><trkpt lat="41.092055" lon="14.35594"><ele>143.33333333333334</ele><time>2026-04-04T10:55:04.007Z</time></trkpt><trkpt lat="41.09211" lon="14.3558633"><ele>144.16666666666669</ele><time>2026-04-04T10:55:06.006Z</time></trkpt><trkpt lat="41.0921367" lon="14.355775"><ele>145.0</ele><time>2026-04-04T10:55:08.008Z</time></trkpt><trkpt lat="41.0921483" lon="14.35566"><ele>144.0</ele><time>2026-04-04T10:55:10.006Z</time></trkpt><trkpt lat="41.0921567" lon="14.3554933"><ele>143.0</ele><time>2026-04-04T10:55:12.007Z</time></trkpt><trkpt lat="41.092175" lon="14.3553333"><ele>142.0</ele><time>2026-04-04T10:55:14.006Z</time></trkpt><trkpt lat="41.092195" lon="14.3551733"><ele>141.0</ele><time>2026-04-04T10:55:16.006Z</time></trkpt><trkpt lat="41.0922117" lon="14.3550883"><ele>140.0</ele><time>2026-04-04T10:55:17.006Z</time></trkpt><trkpt lat="41.0922283" lon="14.354985"><ele>140.0</ele><time>2026-04-04T10:55:18.006Z</time></trkpt><trkpt lat="41.0922517" lon="14.3548917"><ele>140.0</ele><time>2026-04-04T10:55:19.007Z</time></trkpt><trkpt lat="41.0923317" lon="14.3547767"><ele>140.0</ele><time>2026-04-04T10:55:21.006Z</time></trkpt><trkpt lat="41.0924267" lon="14.3547217"><ele>140.0</ele><time>2026-04-04T10:55:23.008Z</time></trkpt><trkpt lat="41.092515" lon="14.3546833"><ele>140.0</ele><time>2026-04-04T10:55:25.007Z</time></trkpt><trkpt lat="41.0925767" lon="14.3546267"><ele>140.8</ele><time>2026-04-04T10:55:27.006Z</time></trkpt><trkpt lat="41.0926017" lon="14.3545217"><ele>141.6</ele><time>2026-04-04T10:55:29.005Z</time></trkpt><trkpt lat="41.092635" lon="14.3544033"><ele>142.4</ele><time>2026-04-04T10:55:31.006Z</time></trkpt><trkpt lat="41.0926633" lon="14.3542733"><ele>143.2</ele><time>2026-04-04T10:55:33.006Z</time></trkpt><trkpt lat="41.09269" lon="14.3541333"><ele>144.0</ele><time>2026-04-04T10:55:35.006Z</time></trkpt><trkpt lat="41.0927217" lon="14.3539917"><ele>143.2</ele><time>2026-04-04T10:55:37.007Z</time></trkpt><trkpt lat="41.0927517" lon="14.3538467"><ele>142.4</ele><time>2026-04-04T10:55:39.006Z</time></trkpt><trkpt lat="41.0927817" lon="14.35371"><ele>141.6</ele><time>2026-04-04T10:55:41.006Z</time></trkpt><trkpt lat="41.0928567" lon="14.3536767"><ele>140.8</ele><time>2026-04-04T10:55:45.007Z</time></trkpt><trkpt lat="41.0929567" lon="14.3536917"><ele>140.0</ele><time>2026-04-04T10:55:49.006Z</time></trkpt><trkpt lat="41.0930383" lon="14.3537117"><ele>140.0</ele><time>2026-04-04T10:55:51.006Z</time></trkpt><trkpt lat="41.0931167" lon="14.3537333"><ele>140.0</ele><time>2026-04-04T10:55:53.007Z</time></trkpt><trkpt lat="41.0931917" lon="14.3537333"><ele>140.0</ele><time>2026-04-04T10:55:55.007Z</time></trkpt><trkpt lat="41.0932633" lon="14.3537317"><ele>140.0</ele><time>2026-04-04T10:55:57.006Z</time></trkpt><trkpt lat="41.09333" lon="14.3537483"><ele>140.0</ele><time>2026-04-04T10:55:59.007Z</time></trkpt><trkpt lat="41.0934" lon="14.3537817"><ele>140.0</ele><time>2026-04-04T10:56:01.006Z</time></trkpt><trkpt lat="41.0934717" lon="14.3537933"><ele>140.0</ele><time>2026-04-04T10:56:03.009Z</time></trkpt><trkpt lat="41.0935533" lon="14.3538117"><ele>141.0</ele><time>2026-04-04T10:56:05.006Z</time></trkpt><trkpt lat="41.093645" lon="14.35382"><ele>142.0</ele><time>2026-04-04T10:56:07.006Z</time></trkpt><trkpt lat="41.093735" lon="14.353825"><ele>143.0</ele><time>2026-04-04T10:56:09.006Z</time></trkpt><trkpt lat="41.0938083" lon="14.35386"><ele>144.0</ele><time>2026-04-04T10:56:11.006Z</time></trkpt><trkpt lat="41.0938783" lon="14.353905"><ele>145.0</ele><time>2026-04-04T10:56:13.006Z</time></trkpt><trkpt lat="41.0939483" lon="14.353955"><ele>146.0</ele><time>2026-04-04T10:56:15.008Z</time></trkpt><trkpt lat="41.0940117" lon="14.3540067"><ele>146.28571428571428</ele><time>2026-04-04T10:56:17.006Z</time></trkpt><trkpt lat="41.0940767" lon="14.3540633"><ele>146.57142857142858</ele><time>2026-04-04T10:56:19.006Z</time></trkpt><trkpt lat="41.0941283" lon="14.3541267"><ele>146.85714285714286</ele><time>2026-04-04T10:56:21.006Z</time></trkpt><trkpt lat="41.09419" lon="14.354185"><ele>147.14285714285714</ele><time>2026-04-04T10:56:23.007Z</time></trkpt><trkpt lat="41.09425" lon="14.354245"><ele>147.42857142857142</ele><time>2026-04-04T10:56:25.006Z</time></trkpt><trkpt lat="41.0943083" lon="14.35431"><ele>147.71428571428572</ele><time>2026-04-04T10:56:27.006Z</time></trkpt><trkpt lat="41.094365" lon="14.3543583"><ele>148.0</ele><time>2026-04-04T10:56:29.007Z</time></trkpt><trkpt lat="41.0944383" lon="14.35443"><ele>148.83333333333334</ele><time>2026-04-04T10:56:32.007Z</time></trkpt><trkpt lat="41.0945083" lon="14.35445"><ele>149.66666666666669</ele><time>2026-04-04T10:56:35.006Z</time></trkpt><trkpt lat="41.0945617" lon="14.3543667"><ele>150.5</ele><time>2026-04-04T10:56:38.006Z</time></trkpt><trkpt lat="41.0945717" lon="14.3542567"><ele>151.33333333333334</ele><time>2026-04-04T10:56:41.006Z</time></trkpt><trkpt lat="41.09462" lon="14.35412"><ele>152.16666666666666</ele><time>2026-04-04T10:56:44.007Z</time></trkpt><trkpt lat="41.0946033" lon="14.3540317"><ele>153.0</ele><time>2026-04-04T10:56:46.007Z</time></trkpt><trkpt lat="41.09461" lon="14.353935"><ele>152.4</ele><time>2026-04-04T10:56:48.006Z</time></trkpt><trkpt lat="41.0946217" lon="14.3538217"><ele>151.8</ele><time>2026-04-04T10:56:50.006Z</time></trkpt><trkpt lat="41.09461" lon="14.353705"><ele>151.2</ele><time>2026-04-04T10:56:52.006Z</time></trkpt><trkpt lat="41.09459" lon="14.35359"><ele>150.6</ele><time>2026-04-04T10:56:54.006Z</time></trkpt><trkpt lat="41.0945867" lon="14.35346"><ele>150.0</ele><time>2026-04-04T10:56:56.006Z</time></trkpt><trkpt lat="41.094585" lon="14.3533383"><ele>150.0</ele><time>2026-04-04T10:56:58.006Z</time></trkpt><trkpt lat="41.09458" lon="14.3532033"><ele>150.0</ele><time>2026-04-04T10:57:00.006Z</time></trkpt><trkpt lat="41.0945833" lon="14.353085"><ele>150.0</ele><time>2026-04-04T10:57:02.005Z</time></trkpt><trkpt lat="41.0945983" lon="14.352965"><ele>150.0</ele><time>2026-04-04T10:57:04.007Z</time></trkpt><trkpt lat="41.0946" lon="14.3528367"><ele>150.0</ele><time>2026-04-04T10:57:06.005Z</time></trkpt><trkpt lat="41.094605" lon="14.3527017"><ele>149.66666666666666</ele><time>2026-04-04T10:57:08.005Z</time></trkpt><trkpt lat="41.094605" lon="14.3525917"><ele>149.33333333333334</ele><time>2026-04-04T10:57:10.006Z</time></trkpt><trkpt lat="41.0946067" lon="14.3525"><ele>149.0</ele><time>2026-04-04T10:57:12.006Z</time></trkpt><trkpt lat="41.0945967" lon="14.3523917"><ele>148.66666666666669</ele><time>2026-04-04T10:57:14.006Z</time></trkpt><trkpt lat="41.094605" lon="14.35227"><ele>148.33333333333334</ele><time>2026-04-04T10:57:16.005Z</time></trkpt><trkpt lat="41.09461" lon="14.3521483"><ele>148.0</ele><time>2026-04-04T10:57:18.006Z</time></trkpt><trkpt lat="41.0946117" lon="14.3520117"><ele>147.5</ele><time>2026-04-04T10:57:20.005Z</time></trkpt><trkpt lat="41.0946133" lon="14.351845"><ele>147.0</ele><time>2026-04-04T10:57:22.006Z</time></trkpt><trkpt lat="41.0946033" lon="14.351745"><ele>146.5</ele><time>2026-04-04T10:57:23.006Z</time></trkpt><trkpt lat="41.094595" lon="14.3516533"><ele>146.0</ele><time>2026-04-04T10:57:24.007Z</time></trkpt><trkpt lat="41.09459" lon="14.35157"><ele>145.5</ele><time>2026-04-04T10:57:25.006Z</time></trkpt><trkpt lat="41.0946" lon="14.3514267"><ele>145.0</ele><time>2026-04-04T10:57:27.005Z</time></trkpt><trkpt lat="41.094605" lon="14.3512983"><ele>144.75</ele><time>2026-04-04T10:57:29.005Z</time></trkpt><trkpt lat="41.0946083" lon="14.3511583"><ele>144.5</ele><time>2026-04-04T10:57:31.006Z</time></trkpt><trkpt lat="41.0946033" lon="14.35101"><ele>144.25</ele><time>2026-04-04T10:57:33.005Z</time></trkpt><trkpt lat="41.0946083" lon="14.3508533"><ele>144.0</ele><time>2026-04-04T10:57:35.006Z</time></trkpt><trkpt lat="41.0946233" lon="14.3506967"><ele>144.0</ele><time>2026-04-04T10:57:37.005Z</time></trkpt><trkpt lat="41.0946467" lon="14.3506167"><ele>144.0</ele><time>2026-04-04T10:57:38.005Z</time></trkpt><trkpt lat="41.0946767" lon="14.35047"><ele>144.0</ele><time>2026-04-04T10:57:40.005Z</time></trkpt><trkpt lat="41.0946883" lon="14.350335"><ele>144.0</ele><time>2026-04-04T10:57:42.005Z</time></trkpt><trkpt lat="41.0947017" lon="14.35019"><ele>144.0</ele><time>2026-04-04T10:57:44.005Z</time></trkpt><trkpt lat="41.09474" lon="14.3500517"><ele>144.4</ele><time>2026-04-04T10:57:46.005Z</time></trkpt><trkpt lat="41.0947867" lon="14.349925"><ele>144.8</ele><time>2026-04-04T10:57:48.005Z</time></trkpt><trkpt lat="41.0948467" lon="14.3498067"><ele>145.2</ele><time>2026-04-04T10:57:50.005Z</time></trkpt><trkpt lat="41.094915" lon="14.3496967"><ele>145.6</ele><time>2026-04-04T10:57:52.006Z</time></trkpt><trkpt lat="41.094985" lon="14.34958"><ele>146.0</ele><time>2026-04-04T10:57:54.005Z</time></trkpt><trkpt lat="41.095065" lon="14.3494783"><ele>146.0</ele><time>2026-04-04T10:57:56.006Z</time></trkpt><trkpt lat="41.095135" lon="14.34937"><ele>146.0</ele><time>2026-04-04T10:57:58.006Z</time></trkpt><trkpt lat="41.095195" lon="14.3492583"><ele>146.0</ele><time>2026-04-04T10:58:00.006Z</time></trkpt><trkpt lat="41.0952583" lon="14.3491533"><ele>146.0</ele><time>2026-04-04T10:58:02.005Z</time></trkpt><trkpt lat="41.095325" lon="14.349055"><ele>146.0</ele><time>2026-04-04T10:58:04.005Z</time></trkpt><trkpt lat="41.0953867" lon="14.3489683"><ele>146.0</ele><time>2026-04-04T10:58:06.005Z</time></trkpt><trkpt lat="41.0954483" lon="14.3488817"><ele>146.0</ele><time>2026-04-04T10:58:08.009Z</time></trkpt><trkpt lat="41.0955" lon="14.3487933"><ele>146.0</ele><time>2026-04-04T10:58:10.005Z</time></trkpt><trkpt lat="41.0955533" lon="14.3487067"><ele>146.0</ele><time>2026-04-04T10:58:12.006Z</time></trkpt><trkpt lat="41.095605" lon="14.3486167"><ele>146.0</ele><time>2026-04-04T10:58:14.005Z</time></trkpt><trkpt lat="41.09565" lon="14.3485283"><ele>146.0</ele><time>2026-04-04T10:58:16.005Z</time></trkpt><trkpt lat="41.0956983" lon="14.3484483"><ele>146.83333333333331</ele><time>2026-04-04T10:58:18.006Z</time></trkpt><trkpt lat="41.0957683" lon="14.3483733"><ele>147.66666666666666</ele><time>2026-04-04T10:58:20.005Z</time></trkpt><trkpt lat="41.0958333" lon="14.3482983"><ele>148.5</ele><time>2026-04-04T10:58:22.005Z</time></trkpt><trkpt lat="41.0958867" lon="14.348225"><ele>149.33333333333334</ele><time>2026-04-04T10:58:24.006Z</time></trkpt><trkpt lat="41.0959367" lon="14.3481283"><ele>150.16666666666669</ele><time>2026-04-04T10:58:26.005Z</time></trkpt><trkpt lat="41.0959783" lon="14.348035"><ele>151.0</ele><time>2026-04-04T10:58:28.006Z</time></trkpt><trkpt lat="41.09603" lon="14.347955"><ele>151.0</ele><time>2026-04-04T10:58:30.005Z</time></trkpt><trkpt lat="41.0960833" lon="14.3478717"><ele>151.0</ele><time>2026-04-04T10:58:32.006Z</time></trkpt><trkpt lat="41.09613" lon="14.347785"><ele>151.0</ele><time>2026-04-04T10:58:34.005Z</time></trkpt><trkpt lat="41.0961783" lon="14.3477067"><ele>151.0</ele><time>2026-04-04T10:58:36.007Z</time></trkpt><trkpt lat="41.096225" lon="14.3476267"><ele>151.0</ele><time>2026-04-04T10:58:38.006Z</time></trkpt><trkpt lat="41.096275" lon="14.3475483"><ele>151.0</ele><time>2026-04-04T10:58:40.007Z</time></trkpt><trkpt lat="41.0963333" lon="14.3474633"><ele>151.0</ele><time>2026-04-04T10:58:42.005Z</time></trkpt><trkpt lat="41.09639" lon="14.347375"><ele>151.0</ele><time>2026-04-04T10:58:44.005Z</time></trkpt><trkpt lat="41.0964433" lon="14.347295"><ele>151.0</ele><time>2026-04-04T10:58:46.005Z</time></trkpt><trkpt lat="41.0964983" lon="14.3472167"><ele>151.0</ele><time>2026-04-04T10:58:48.006Z</time></trkpt><trkpt lat="41.096555" lon="14.3471333"><ele>151.0</ele><time>2026-04-04T10:58:50.006Z</time></trkpt><trkpt lat="41.0966083" lon="14.3470417"><ele>151.0</ele><time>2026-04-04T10:58:52.005Z</time></trkpt><trkpt lat="41.09666" lon="14.3469567"><ele>151.5</ele><time>2026-04-04T10:58:54.005Z</time></trkpt><trkpt lat="41.0967133" lon="14.346865"><ele>152.0</ele><time>2026-04-04T10:58:56.006Z</time></trkpt><trkpt lat="41.0967683" lon="14.3467767"><ele>152.5</ele><time>2026-04-04T10:58:58.008Z</time></trkpt><trkpt lat="41.09683" lon="14.3466917"><ele>153.0</ele><time>2026-04-04T10:59:00.006Z</time></trkpt><trkpt lat="41.09689" lon="14.346605"><ele>153.5</ele><time>2026-04-04T10:59:02.005Z</time></trkpt><trkpt lat="41.096945" lon="14.3465233"><ele>154.0</ele><time>2026-04-04T10:59:04.005Z</time></trkpt><trkpt lat="41.0969967" lon="14.3464283"><ele>154.2</ele><time>2026-04-04T10:59:06.006Z</time></trkpt><trkpt lat="41.09705" lon="14.3463317"><ele>154.4</ele><time>2026-04-04T10:59:08.006Z</time></trkpt><trkpt lat="41.0971067" lon="14.346235"><ele>154.6</ele><time>2026-04-04T10:59:10.006Z</time></trkpt><trkpt lat="41.0971633" lon="14.3461417"><ele>154.8</ele><time>2026-04-04T10:59:12.006Z</time></trkpt><trkpt lat="41.097225" lon="14.3460517"><ele>155.0</ele><time>2026-04-04T10:59:14.006Z</time></trkpt><trkpt lat="41.0972867" lon="14.3459633"><ele>155.0</ele><time>2026-04-04T10:59:16.005Z</time></trkpt><trkpt lat="41.0973533" lon="14.3458783"><ele>155.0</ele><time>2026-04-04T10:59:18.006Z</time></trkpt><trkpt lat="41.09741" lon="14.345795"><ele>155.0</ele><time>2026-04-04T10:59:20.005Z</time></trkpt><trkpt lat="41.097465" lon="14.3457017"><ele>155.0</ele><time>2026-04-04T10:59:22.006Z</time></trkpt><trkpt lat="41.0975183" lon="14.345605"><ele>155.0</ele><time>2026-04-04T10:59:24.006Z</time></trkpt><trkpt lat="41.0975783" lon="14.34551"><ele>155.8</ele><time>2026-04-04T10:59:26.006Z</time></trkpt><trkpt lat="41.097645" lon="14.345415"><ele>156.6</ele><time>2026-04-04T10:59:28.006Z</time></trkpt><trkpt lat="41.0976983" lon="14.345315"><ele>157.4</ele><time>2026-04-04T10:59:30.006Z</time></trkpt><trkpt lat="41.09775" lon="14.3452117"><ele>158.2</ele><time>2026-04-04T10:59:32.006Z</time></trkpt><trkpt lat="41.0978167" lon="14.34511"><ele>159.0</ele><time>2026-04-04T10:59:34.008Z</time></trkpt><trkpt lat="41.0978817" lon="14.3450033"><ele>159.0</ele><time>2026-04-04T10:59:36.006Z</time></trkpt><trkpt lat="41.0979417" lon="14.344905"><ele>159.0</ele><time>2026-04-04T10:59:38.006Z</time></trkpt><trkpt lat="41.0980017" lon="14.3448183"><ele>159.0</ele><time>2026-04-04T10:59:40.006Z</time></trkpt><trkpt lat="41.0980583" lon="14.3447333"><ele>159.0</ele><time>2026-04-04T10:59:42.006Z</time></trkpt><trkpt lat="41.0981067" lon="14.3446417"><ele>159.0</ele><time>2026-04-04T10:59:44.006Z</time></trkpt><trkpt lat="41.098155" lon="14.344565"><ele>159.0</ele><time>2026-04-04T10:59:46.005Z</time></trkpt><trkpt lat="41.0982017" lon="14.3444867"><ele>160.33333333333334</ele><time>2026-04-04T10:59:48.015Z</time></trkpt><trkpt lat="41.0982733" lon="14.3444417"><ele>161.66666666666666</ele><time>2026-04-04T10:59:50.006Z</time></trkpt><trkpt lat="41.0983467" lon="14.3444083"><ele>163.0</ele><time>2026-04-04T10:59:52.005Z</time></trkpt><trkpt lat="41.0984167" lon="14.34439"><ele>164.33333333333331</ele><time>2026-04-04T10:59:54.006Z</time></trkpt><trkpt lat="41.0984817" lon="14.3443567"><ele>165.66666666666666</ele><time>2026-04-04T10:59:56.005Z</time></trkpt><trkpt lat="41.09856" lon="14.344295"><ele>167.0</ele><time>2026-04-04T10:59:59.006Z</time></trkpt><trkpt lat="41.0986133" lon="14.344225"><ele>167.0</ele><time>2026-04-04T11:00:02.007Z</time></trkpt><trkpt lat="41.09864" lon="14.3441233"><ele>167.0</ele><time>2026-04-04T11:01:03.006Z</time></trkpt><trkpt lat="41.09869" lon="14.3440483"><ele>167.0</ele><time>2026-04-04T11:01:05.006Z</time></trkpt><trkpt lat="41.098735" lon="14.34397"><ele>167.0</ele><time>2026-04-04T11:01:07.006Z</time></trkpt><trkpt lat="41.09878" lon="14.3438783"><ele>167.0</ele><time>2026-04-04T11:01:09.005Z</time></trkpt><trkpt lat="41.0988133" lon="14.3437783"><ele>167.0</ele><time>2026-04-04T11:01:11.005Z</time></trkpt><trkpt lat="41.09883" lon="14.34366"><ele>166.39999999999998</ele><time>2026-04-04T11:01:13.005Z</time></trkpt><trkpt lat="41.0988317" lon="14.3435267"><ele>165.79999999999998</ele><time>2026-04-04T11:01:15.006Z</time></trkpt><trkpt lat="41.098835" lon="14.3433767"><ele>165.2</ele><time>2026-04-04T11:01:17.006Z</time></trkpt><trkpt lat="41.09883" lon="14.34322"><ele>164.6</ele><time>2026-04-04T11:01:19.006Z</time></trkpt><trkpt lat="41.0988317" lon="14.3431333"><ele>164.0</ele><time>2026-04-04T11:01:20.007Z</time></trkpt><trkpt lat="41.098845" lon="14.3430417"><ele>163.83333333333331</ele><time>2026-04-04T11:01:21.007Z</time></trkpt><trkpt lat="41.0988467" lon="14.342945"><ele>163.66666666666666</ele><time>2026-04-04T11:01:22.006Z</time></trkpt><trkpt lat="41.0988517" lon="14.3428367"><ele>163.5</ele><time>2026-04-04T11:01:23.006Z</time></trkpt><trkpt lat="41.098845" lon="14.342725"><ele>163.33333333333334</ele><time>2026-04-04T11:01:24.006Z</time></trkpt><trkpt lat="41.09884" lon="14.3426067"><ele>163.16666666666669</ele><time>2026-04-04T11:01:25.006Z</time></trkpt><trkpt lat="41.0988283" lon="14.3424867"><ele>163.0</ele><time>2026-04-04T11:01:26.007Z</time></trkpt><trkpt lat="41.098815" lon="14.342365"><ele>163.0</ele><time>2026-04-04T11:01:27.006Z</time></trkpt><trkpt lat="41.0988067" lon="14.342245"><ele>163.0</ele><time>2026-04-04T11:01:28.006Z</time></trkpt><trkpt lat="41.0988033" lon="14.342125"><ele>163.0</ele><time>2026-04-04T11:01:29.006Z</time></trkpt><trkpt lat="41.0988033" lon="14.3420033"><ele>163.0</ele><time>2026-04-04T11:01:30.006Z</time></trkpt><trkpt lat="41.0988033" lon="14.341875"><ele>163.0</ele><time>2026-04-04T11:01:31.006Z</time></trkpt><trkpt lat="41.0988" lon="14.341745"><ele>162.8</ele><time>2026-04-04T11:01:32.006Z</time></trkpt><trkpt lat="41.0987967" lon="14.341615"><ele>162.60000000000002</ele><time>2026-04-04T11:01:33.006Z</time></trkpt><trkpt lat="41.098795" lon="14.341485"><ele>162.39999999999998</ele><time>2026-04-04T11:01:34.006Z</time></trkpt><trkpt lat="41.098795" lon="14.3413567"><ele>162.2</ele><time>2026-04-04T11:01:35.007Z</time></trkpt><trkpt lat="41.09879" lon="14.3412283"><ele>162.0</ele><time>2026-04-04T11:01:36.006Z</time></trkpt><trkpt lat="41.0987817" lon="14.341105"><ele>162.0</ele><time>2026-04-04T11:01:37.006Z</time></trkpt><trkpt lat="41.0987733" lon="14.34098"><ele>162.0</ele><time>2026-04-04T11:01:38.006Z</time></trkpt><trkpt lat="41.0987633" lon="14.34086"><ele>162.0</ele><time>2026-04-04T11:01:39.006Z</time></trkpt><trkpt lat="41.098755" lon="14.3407433"><ele>162.0</ele><time>2026-04-04T11:01:40.006Z</time></trkpt><trkpt lat="41.0987533" lon="14.34063"><ele>162.0</ele><time>2026-04-04T11:01:41.006Z</time></trkpt><trkpt lat="41.0987517" lon="14.340515"><ele>162.0</ele><time>2026-04-04T11:01:42.007Z</time></trkpt><trkpt lat="41.09875" lon="14.3404083"><ele>162.5</ele><time>2026-04-04T11:01:43.007Z</time></trkpt><trkpt lat="41.0987467" lon="14.340305"><ele>163.0</ele><time>2026-04-04T11:01:44.007Z</time></trkpt><trkpt lat="41.09874" lon="14.3402017"><ele>163.5</ele><time>2026-04-04T11:01:45.006Z</time></trkpt><trkpt lat="41.0987417" lon="14.3401033"><ele>164.0</ele><time>2026-04-04T11:01:46.006Z</time></trkpt><trkpt lat="41.0987433" lon="14.3400033"><ele>164.5</ele><time>2026-04-04T11:01:47.006Z</time></trkpt><trkpt lat="41.0987467" lon="14.3399067"><ele>165.0</ele><time>2026-04-04T11:01:48.006Z</time></trkpt><trkpt lat="41.0987483" lon="14.3398117"><ele>165.85714285714286</ele><time>2026-04-04T11:01:49.006Z</time></trkpt><trkpt lat="41.09875" lon="14.3397167"><ele>166.71428571428572</ele><time>2026-04-04T11:01:50.006Z</time></trkpt><trkpt lat="41.09875" lon="14.3396267"><ele>167.57142857142856</ele><time>2026-04-04T11:01:51.006Z</time></trkpt><trkpt lat="41.0987517" lon="14.339535"><ele>168.42857142857144</ele><time>2026-04-04T11:01:52.007Z</time></trkpt><trkpt lat="41.0987517" lon="14.339445"><ele>169.28571428571428</ele><time>2026-04-04T11:01:53.006Z</time></trkpt><trkpt lat="41.0987567" lon="14.339355"><ele>170.14285714285714</ele><time>2026-04-04T11:01:54.006Z</time></trkpt><trkpt lat="41.0987583" lon="14.3392683"><ele>171.0</ele><time>2026-04-04T11:01:55.006Z</time></trkpt><trkpt lat="41.0987583" lon="14.3391833"><ele>171.0</ele><time>2026-04-04T11:01:56.006Z</time></trkpt><trkpt lat="41.0987567" lon="14.3390217"><ele>171.0</ele><time>2026-04-04T11:01:58.007Z</time></trkpt><trkpt lat="41.09875" lon="14.3388633"><ele>171.0</ele><time>2026-04-04T11:02:00.006Z</time></trkpt><trkpt lat="41.0987567" lon="14.3387117"><ele>171.0</ele><time>2026-04-04T11:02:02.008Z</time></trkpt><trkpt lat="41.0987617" lon="14.3385633"><ele>170.83333333333334</ele><time>2026-04-04T11:02:04.006Z</time></trkpt><trkpt lat="41.0987633" lon="14.33843"><ele>170.66666666666666</ele><time>2026-04-04T11:02:06.007Z</time></trkpt><trkpt lat="41.0987567" lon="14.3383117"><ele>170.5</ele><time>2026-04-04T11:02:08.006Z</time></trkpt><trkpt lat="41.0987467" lon="14.3382067"><ele>170.33333333333331</ele><time>2026-04-04T11:02:10.006Z</time></trkpt><trkpt lat="41.098755" lon="14.3381"><ele>170.16666666666666</ele><time>2026-04-04T11:02:12.007Z</time></trkpt><trkpt lat="41.0987617" lon="14.338005"><ele>170.0</ele><time>2026-04-04T11:02:14.006Z</time></trkpt><trkpt lat="41.0987617" lon="14.33792"><ele>170.0</ele><time>2026-04-04T11:02:16.006Z</time></trkpt><trkpt lat="41.0987517" lon="14.337805"><ele>170.0</ele><time>2026-04-04T11:02:19.006Z</time></trkpt><trkpt lat="41.09873" lon="14.3377117"><ele>170.0</ele><time>2026-04-04T11:02:22.007Z</time></trkpt><trkpt lat="41.0987017" lon="14.3376283"><ele>170.0</ele><time>2026-04-04T11:02:25.006Z</time></trkpt><trkpt lat="41.09865" lon="14.33754"><ele>170.0</ele><time>2026-04-04T11:02:28.006Z</time></trkpt><trkpt lat="41.0985883" lon="14.337495"><ele>170.0</ele><time>2026-04-04T11:02:30.006Z</time></trkpt><trkpt lat="41.0984933" lon="14.337475"><ele>170.0</ele><time>2026-04-04T11:02:32.006Z</time></trkpt><trkpt lat="41.098375" lon="14.3374633"><ele>170.0</ele><time>2026-04-04T11:02:34.006Z</time></trkpt><trkpt lat="41.0983033" lon="14.337455"><ele>170.0</ele><time>2026-04-04T11:02:35.006Z</time></trkpt><trkpt lat="41.0982283" lon="14.337445"><ele>170.0</ele><time>2026-04-04T11:02:36.006Z</time></trkpt><trkpt lat="41.0981517" lon="14.3374383"><ele>170.0</ele><time>2026-04-04T11:02:37.006Z</time></trkpt><trkpt lat="41.0980683" lon="14.3374317"><ele>170.0</ele><time>2026-04-04T11:02:38.006Z</time></trkpt><trkpt lat="41.0979833" lon="14.33742"><ele>167.2</ele><time>2026-04-04T11:02:39.006Z</time></trkpt><trkpt lat="41.0978917" lon="14.3373967"><ele>164.4</ele><time>2026-04-04T11:02:40.006Z</time></trkpt><trkpt lat="41.0977983" lon="14.3373683"><ele>161.6</ele><time>2026-04-04T11:02:41.006Z</time></trkpt><trkpt lat="41.097705" lon="14.3373283"><ele>158.8</ele><time>2026-04-04T11:02:42.007Z</time></trkpt><trkpt lat="41.097615" lon="14.3372883"><ele>156.0</ele><time>2026-04-04T11:02:43.006Z</time></trkpt><trkpt lat="41.0975117" lon="14.3372583"><ele>153.0</ele><time>2026-04-04T11:02:44.009Z</time></trkpt><trkpt lat="41.0974083" lon="14.3372433"><ele>150.0</ele><time>2026-04-04T11:02:45.007Z</time></trkpt><trkpt lat="41.0972983" lon="14.3372417"><ele>147.0</ele><time>2026-04-04T11:02:46.006Z</time></trkpt><trkpt lat="41.0971867" lon="14.3372483"><ele>144.0</ele><time>2026-04-04T11:02:47.006Z</time></trkpt><trkpt lat="41.097065" lon="14.337265"><ele>141.0</ele><time>2026-04-04T11:02:48.007Z</time></trkpt><trkpt lat="41.0969417" lon="14.33729"><ele>141.0</ele><time>2026-04-04T11:02:49.007Z</time></trkpt><trkpt lat="41.0968167" lon="14.3373267"><ele>141.0</ele><time>2026-04-04T11:02:50.009Z</time></trkpt><trkpt lat="41.0966933" lon="14.3373867"><ele>141.0</ele><time>2026-04-04T11:02:51.006Z</time></trkpt><trkpt lat="41.0965817" lon="14.3374617"><ele>141.0</ele><time>2026-04-04T11:02:52.006Z</time></trkpt><trkpt lat="41.096475" lon="14.3375517"><ele>139.0</ele><time>2026-04-04T11:02:53.006Z</time></trkpt><trkpt lat="41.0963867" lon="14.3376417"><ele>137.0</ele><time>2026-04-04T11:02:54.006Z</time></trkpt><trkpt lat="41.09631" lon="14.33772"><ele>135.0</ele><time>2026-04-04T11:02:55.007Z</time></trkpt><trkpt lat="41.096245" lon="14.3377883"><ele>133.0</ele><time>2026-04-04T11:02:56.008Z</time></trkpt><trkpt lat="41.09616" lon="14.3378617"><ele>131.0</ele><time>2026-04-04T11:02:58.005Z</time></trkpt><trkpt lat="41.0960967" lon="14.3378583"><ele>131.0</ele><time>2026-04-04T11:03:00.006Z</time></trkpt><trkpt lat="41.0960767" lon="14.33777"><ele>131.0</ele><time>2026-04-04T11:03:02.006Z</time></trkpt><trkpt lat="41.09614" lon="14.33767"><ele>131.0</ele><time>2026-04-04T11:03:04.006Z</time></trkpt><trkpt lat="41.0962" lon="14.337625"><ele>131.0</ele><time>2026-04-04T11:03:05.006Z</time></trkpt><trkpt lat="41.09626" lon="14.33757"><ele>131.0</ele><time>2026-04-04T11:03:06.007Z</time></trkpt><trkpt lat="41.0963183" lon="14.33751"><ele>131.0</ele><time>2026-04-04T11:03:07.006Z</time></trkpt><trkpt lat="41.09638" lon="14.337445"><ele>131.0</ele><time>2026-04-04T11:03:08.005Z</time></trkpt><trkpt lat="41.0964483" lon="14.3373783"><ele>131.0</ele><time>2026-04-04T11:03:09.005Z</time></trkpt><trkpt lat="41.0965133" lon="14.3373117"><ele>131.0</ele><time>2026-04-04T11:03:10.006Z</time></trkpt><trkpt lat="41.0965817" lon="14.3372417"><ele>131.0</ele><time>2026-04-04T11:03:11.005Z</time></trkpt><trkpt lat="41.09665" lon="14.337175"><ele>131.0</ele><time>2026-04-04T11:03:12.005Z</time></trkpt><trkpt lat="41.0967183" lon="14.3371183"><ele>131.0</ele><time>2026-04-04T11:03:13.006Z</time></trkpt><trkpt lat="41.0967917" lon="14.337065"><ele>132.0</ele><time>2026-04-04T11:03:14.005Z</time></trkpt><trkpt lat="41.0968733" lon="14.3370083"><ele>133.0</ele><time>2026-04-04T11:03:15.005Z</time></trkpt><trkpt lat="41.0969517" lon="14.336955"><ele>134.0</ele><time>2026-04-04T11:03:16.005Z</time></trkpt><trkpt lat="41.0970283" lon="14.336895"><ele>135.0</ele><time>2026-04-04T11:03:17.005Z</time></trkpt><trkpt lat="41.0971017" lon="14.3368183"><ele>136.0</ele><time>2026-04-04T11:03:18.006Z</time></trkpt><trkpt lat="41.0971633" lon="14.3367267"><ele>136.0</ele><time>2026-04-04T11:03:19.006Z</time></trkpt><trkpt lat="41.0972067" lon="14.3366133"><ele>136.0</ele><time>2026-04-04T11:03:20.005Z</time></trkpt><trkpt lat="41.097245" lon="14.3364933"><ele>136.0</ele><time>2026-04-04T11:03:21.005Z</time></trkpt><trkpt lat="41.0972867" lon="14.33637"><ele>136.0</ele><time>2026-04-04T11:03:22.005Z</time></trkpt><trkpt lat="41.0973333" lon="14.3362467"><ele>136.0</ele><time>2026-04-04T11:03:23.005Z</time></trkpt><trkpt lat="41.09738" lon="14.3361233"><ele>137.0</ele><time>2026-04-04T11:03:24.006Z</time></trkpt><trkpt lat="41.0974217" lon="14.3360117"><ele>138.0</ele><time>2026-04-04T11:03:25.005Z</time></trkpt><trkpt lat="41.0974533" lon="14.3359117"><ele>139.0</ele><time>2026-04-04T11:03:26.005Z</time></trkpt><trkpt lat="41.0974783" lon="14.3358117"><ele>140.0</ele><time>2026-04-04T11:03:27.005Z</time></trkpt><trkpt lat="41.097495" lon="14.3357283"><ele>141.0</ele><time>2026-04-04T11:03:28.006Z</time></trkpt><trkpt lat="41.0974867" lon="14.3356417"><ele>142.0</ele><time>2026-04-04T11:03:29.005Z</time></trkpt><trkpt lat="41.0974517" lon="14.3355533"><ele>139.2</ele><time>2026-04-04T11:03:30.006Z</time></trkpt><trkpt lat="41.097415" lon="14.3354583"><ele>136.39999999999998</ele><time>2026-04-04T11:03:31.005Z</time></trkpt><trkpt lat="41.0973483" lon="14.3353817"><ele>133.60000000000002</ele><time>2026-04-04T11:03:32.005Z</time></trkpt><trkpt lat="41.0972583" lon="14.3353167"><ele>130.8</ele><time>2026-04-04T11:03:33.005Z</time></trkpt><trkpt lat="41.097135" lon="14.3352683"><ele>128.0</ele><time>2026-04-04T11:03:34.005Z</time></trkpt><trkpt lat="41.096985" lon="14.3352467"><ele>128.0</ele><time>2026-04-04T11:03:35.005Z</time></trkpt><trkpt lat="41.0968833" lon="14.33518"><ele>128.0</ele><time>2026-04-04T11:03:36.005Z</time></trkpt><trkpt lat="41.0967933" lon="14.33511"><ele>128.0</ele><time>2026-04-04T11:03:37.005Z</time></trkpt><trkpt lat="41.09671" lon="14.335045"><ele>128.0</ele><time>2026-04-04T11:03:38.005Z</time></trkpt><trkpt lat="41.0966333" lon="14.3349917"><ele>128.0</ele><time>2026-04-04T11:03:39.005Z</time></trkpt><trkpt lat="41.09656" lon="14.3349467"><ele>126.83333333333333</ele><time>2026-04-04T11:03:40.005Z</time></trkpt><trkpt lat="41.0964833" lon="14.334915"><ele>125.66666666666666</ele><time>2026-04-04T11:03:41.005Z</time></trkpt><trkpt lat="41.0964117" lon="14.3348917"><ele>124.5</ele><time>2026-04-04T11:03:42.005Z</time></trkpt><trkpt lat="41.0962817" lon="14.33494"><ele>123.33333333333334</ele><time>2026-04-04T11:03:44.006Z</time></trkpt><trkpt lat="41.0962183" lon="14.3349917"><ele>122.16666666666667</ele><time>2026-04-04T11:03:45.005Z</time></trkpt><trkpt lat="41.09616" lon="14.335075"><ele>121.0</ele><time>2026-04-04T11:03:46.005Z</time></trkpt><trkpt lat="41.0961117" lon="14.3351633"><ele>121.0</ele><time>2026-04-04T11:03:47.005Z</time></trkpt><trkpt lat="41.0960683" lon="14.3352583"><ele>120.99999999999999</ele><time>2026-04-04T11:03:48.005Z</time></trkpt><trkpt lat="41.0960367" lon="14.3353483"><ele>121.0</ele><time>2026-04-04T11:03:49.005Z</time></trkpt><trkpt lat="41.0960133" lon="14.3354467"><ele>121.0</ele><time>2026-04-04T11:03:50.005Z</time></trkpt><trkpt lat="41.0959983" lon="14.3355417"><ele>120.99999999999999</ele><time>2026-04-04T11:03:51.007Z</time></trkpt><trkpt lat="41.095985" lon="14.3356333"><ele>121.0</ele><time>2026-04-04T11:03:52.006Z</time></trkpt><trkpt lat="41.0959717" lon="14.33572"><ele>121.0</ele><time>2026-04-04T11:03:53.005Z</time></trkpt><trkpt lat="41.0959567" lon="14.335815"><ele>121.14285714285714</ele><time>2026-04-04T11:03:54.005Z</time></trkpt><trkpt lat="41.0959417" lon="14.3359033"><ele>121.28571428571428</ele><time>2026-04-04T11:03:55.005Z</time></trkpt><trkpt lat="41.0959283" lon="14.3359867"><ele>121.42857142857142</ele><time>2026-04-04T11:03:56.005Z</time></trkpt><trkpt lat="41.0959133" lon="14.3360733"><ele>121.57142857142856</ele><time>2026-04-04T11:03:57.005Z</time></trkpt><trkpt lat="41.0959067" lon="14.336165"><ele>121.71428571428571</ele><time>2026-04-04T11:03:58.006Z</time></trkpt><trkpt lat="41.0959017" lon="14.336255"><ele>121.85714285714283</ele><time>2026-04-04T11:03:59.005Z</time></trkpt><trkpt lat="41.0958967" lon="14.336345"><ele>121.99999999999999</ele><time>2026-04-04T11:04:00.007Z</time></trkpt><trkpt lat="41.095885" lon="14.336435"><ele>122.49999999999999</ele><time>2026-04-04T11:04:01.005Z</time></trkpt><trkpt lat="41.0958683" lon="14.3365233"><ele>123.0</ele><time>2026-04-04T11:04:02.005Z</time></trkpt><trkpt lat="41.09585" lon="14.3366183"><ele>123.5</ele><time>2026-04-04T11:04:03.005Z</time></trkpt><trkpt lat="41.0958267" lon="14.3367133"><ele>124.0</ele><time>2026-04-04T11:04:04.005Z</time></trkpt><trkpt lat="41.0957917" lon="14.336805"><ele>124.49999999999999</ele><time>2026-04-04T11:04:05.005Z</time></trkpt><trkpt lat="41.0957417" lon="14.3368833"><ele>125.0</ele><time>2026-04-04T11:04:06.006Z</time></trkpt><trkpt lat="41.09568" lon="14.3369467"><ele>123.0</ele><time>2026-04-04T11:04:07.005Z</time></trkpt><trkpt lat="41.095605" lon="14.337"><ele>121.0</ele><time>2026-04-04T11:04:08.005Z</time></trkpt><trkpt lat="41.0955267" lon="14.337055"><ele>119.0</ele><time>2026-04-04T11:04:09.005Z</time></trkpt><trkpt lat="41.095445" lon="14.3371067"><ele>117.0</ele><time>2026-04-04T11:04:10.005Z</time></trkpt><trkpt lat="41.0953617" lon="14.3371567"><ele>115.0</ele><time>2026-04-04T11:04:11.005Z</time></trkpt><trkpt lat="41.0952733" lon="14.3372133"><ele>114.6</ele><time>2026-04-04T11:04:12.006Z</time></trkpt><trkpt lat="41.0951833" lon="14.3372767"><ele>114.2</ele><time>2026-04-04T11:04:13.005Z</time></trkpt><trkpt lat="41.0950833" lon="14.3373233"><ele>113.80000000000001</ele><time>2026-04-04T11:04:14.006Z</time></trkpt><trkpt lat="41.09497" lon="14.3373583"><ele>113.4</ele><time>2026-04-04T11:04:15.006Z</time></trkpt><trkpt lat="41.09485" lon="14.3373833"><ele>113.0</ele><time>2026-04-04T11:04:16.006Z</time></trkpt><trkpt lat="41.09473" lon="14.3374"><ele>113.0</ele><time>2026-04-04T11:04:17.005Z</time></trkpt><trkpt lat="41.0946133" lon="14.337415"><ele>113.00000000000001</ele><time>2026-04-04T11:04:18.006Z</time></trkpt><trkpt lat="41.0945117" lon="14.3374267"><ele>113.00000000000001</ele><time>2026-04-04T11:04:19.005Z</time></trkpt><trkpt lat="41.0944167" lon="14.33743"><ele>113.0</ele><time>2026-04-04T11:04:20.005Z</time></trkpt><trkpt lat="41.09433" lon="14.3374383"><ele>113.0</ele><time>2026-04-04T11:04:21.005Z</time></trkpt><trkpt lat="41.094245" lon="14.337435"><ele>112.99999999999999</ele><time>2026-04-04T11:04:22.005Z</time></trkpt><trkpt lat="41.0941583" lon="14.33742"><ele>113.0</ele><time>2026-04-04T11:04:23.006Z</time></trkpt><trkpt lat="41.0940767" lon="14.337405"><ele>113.0</ele><time>2026-04-04T11:04:24.006Z</time></trkpt><trkpt lat="41.093995" lon="14.3373683"><ele>113.0</ele><time>2026-04-04T11:04:25.005Z</time></trkpt><trkpt lat="41.0939133" lon="14.3373383"><ele>112.99999999999999</ele><time>2026-04-04T11:04:26.005Z</time></trkpt><trkpt lat="41.0938283" lon="14.3373067"><ele>113.0</ele><time>2026-04-04T11:04:27.006Z</time></trkpt><trkpt lat="41.0937417" lon="14.3372717"><ele>112.16666666666666</ele><time>2026-04-04T11:04:28.005Z</time></trkpt><trkpt lat="41.0936533" lon="14.33723"><ele>111.33333333333333</ele><time>2026-04-04T11:04:29.005Z</time></trkpt><trkpt lat="41.0935667" lon="14.3371917"><ele>110.5</ele><time>2026-04-04T11:04:30.005Z</time></trkpt><trkpt lat="41.0934817" lon="14.337155"><ele>109.66666666666666</ele><time>2026-04-04T11:04:31.005Z</time></trkpt><trkpt lat="41.0934033" lon="14.3371117"><ele>108.83333333333333</ele><time>2026-04-04T11:04:32.005Z</time></trkpt><trkpt lat="41.093325" lon="14.33708"><ele>108.0</ele><time>2026-04-04T11:04:33.006Z</time></trkpt><trkpt lat="41.0932567" lon="14.33704"><ele>107.16666666666667</ele><time>2026-04-04T11:04:34.005Z</time></trkpt><trkpt lat="41.0931883" lon="14.337005"><ele>106.33333333333334</ele><time>2026-04-04T11:04:35.006Z</time></trkpt><trkpt lat="41.0931217" lon="14.3369633"><ele>105.5</ele><time>2026-04-04T11:04:36.006Z</time></trkpt><trkpt lat="41.0930483" lon="14.3369267"><ele>104.66666666666667</ele><time>2026-04-04T11:04:37.008Z</time></trkpt><trkpt lat="41.092975" lon="14.3368983"><ele>103.83333333333334</ele><time>2026-04-04T11:04:38.005Z</time></trkpt><trkpt lat="41.0928967" lon="14.3368717"><ele>103.0</ele><time>2026-04-04T11:04:39.006Z</time></trkpt><trkpt lat="41.0928183" lon="14.336835"><ele>103.00000000000001</ele><time>2026-04-04T11:04:40.005Z</time></trkpt><trkpt lat="41.0927417" lon="14.3367867"><ele>103.0</ele><time>2026-04-04T11:04:41.005Z</time></trkpt><trkpt lat="41.0926733" lon="14.3367267"><ele>103.0</ele><time>2026-04-04T11:04:42.005Z</time></trkpt><trkpt lat="41.092605" lon="14.33666"><ele>103.0</ele><time>2026-04-04T11:04:43.005Z</time></trkpt><trkpt lat="41.09254" lon="14.33659"><ele>103.00000000000001</ele><time>2026-04-04T11:04:44.006Z</time></trkpt><trkpt lat="41.0924683" lon="14.3365183"><ele>103.0</ele><time>2026-04-04T11:04:45.005Z</time></trkpt><trkpt lat="41.0924" lon="14.3364517"><ele>102.50000000000001</ele><time>2026-04-04T11:04:46.005Z</time></trkpt><trkpt lat="41.0923283" lon="14.3363817"><ele>102.0</ele><time>2026-04-04T11:04:47.005Z</time></trkpt><trkpt lat="41.0922567" lon="14.3363133"><ele>101.5</ele><time>2026-04-04T11:04:48.005Z</time></trkpt><trkpt lat="41.0921983" lon="14.33624"><ele>101.0</ele><time>2026-04-04T11:04:49.006Z</time></trkpt><trkpt lat="41.0921333" lon="14.3361667"><ele>100.50000000000001</ele><time>2026-04-04T11:04:50.006Z</time></trkpt><trkpt lat="41.0920633" lon="14.336095"><ele>100.0</ele><time>2026-04-04T11:04:51.005Z</time></trkpt><trkpt lat="41.0919917" lon="14.3360233"><ele>100.0</ele><time>2026-04-04T11:04:52.006Z</time></trkpt><trkpt lat="41.0919167" lon="14.3359483"><ele>100.0</ele><time>2026-04-04T11:04:53.005Z</time></trkpt><trkpt lat="41.0918417" lon="14.3358733"><ele>100.0</ele><time>2026-04-04T11:04:54.006Z</time></trkpt><trkpt lat="41.09177" lon="14.3357983"><ele>100.0</ele><time>2026-04-04T11:04:55.005Z</time></trkpt><trkpt lat="41.0917" lon="14.3357233"><ele>100.0</ele><time>2026-04-04T11:04:56.005Z</time></trkpt><trkpt lat="41.0916267" lon="14.335655"><ele>99.83333333333334</ele><time>2026-04-04T11:04:57.005Z</time></trkpt><trkpt lat="41.0915567" lon="14.3355817"><ele>99.66666666666667</ele><time>2026-04-04T11:04:58.006Z</time></trkpt><trkpt lat="41.0914933" lon="14.335505"><ele>99.5</ele><time>2026-04-04T11:04:59.005Z</time></trkpt><trkpt lat="41.0914233" lon="14.335435"><ele>99.33333333333334</ele><time>2026-04-04T11:05:00.006Z</time></trkpt><trkpt lat="41.091365" lon="14.33537"><ele>99.16666666666667</ele><time>2026-04-04T11:05:01.005Z</time></trkpt><trkpt lat="41.0913067" lon="14.3353167"><ele>99.0</ele><time>2026-04-04T11:05:02.006Z</time></trkpt><trkpt lat="41.0912567" lon="14.3352567"><ele>98.71428571428572</ele><time>2026-04-04T11:05:03.005Z</time></trkpt><trkpt lat="41.0912117" lon="14.3351917"><ele>98.42857142857142</ele><time>2026-04-04T11:05:04.005Z</time></trkpt><trkpt lat="41.09117" lon="14.3351183"><ele>98.14285714285714</ele><time>2026-04-04T11:05:05.005Z</time></trkpt><trkpt lat="41.0911483" lon="14.3350317"><ele>97.85714285714286</ele><time>2026-04-04T11:05:06.005Z</time></trkpt><trkpt lat="41.0911483" lon="14.33493"><ele>97.57142857142858</ele><time>2026-04-04T11:05:07.005Z</time></trkpt><trkpt lat="41.0911533" lon="14.3348233"><ele>97.28571428571428</ele><time>2026-04-04T11:05:08.005Z</time></trkpt><trkpt lat="41.0911633" lon="14.3347183"><ele>97.0</ele><time>2026-04-04T11:05:09.005Z</time></trkpt><trkpt lat="41.0911767" lon="14.334615"><ele>97.00000000000001</ele><time>2026-04-04T11:05:10.006Z</time></trkpt><trkpt lat="41.0911967" lon="14.33451"><ele>97.0</ele><time>2026-04-04T11:05:11.007Z</time></trkpt><trkpt lat="41.09122" lon="14.3343983"><ele>97.0</ele><time>2026-04-04T11:05:12.007Z</time></trkpt><trkpt lat="41.091245" lon="14.334285"><ele>97.0</ele><time>2026-04-04T11:05:13.006Z</time></trkpt><trkpt lat="41.09128" lon="14.3341667"><ele>97.00000000000001</ele><time>2026-04-04T11:05:14.006Z</time></trkpt><trkpt lat="41.0913" lon="14.334055"><ele>97.0</ele><time>2026-04-04T11:05:15.005Z</time></trkpt><trkpt lat="41.0913167" lon="14.3339433"><ele>96.83333333333334</ele><time>2026-04-04T11:05:16.007Z</time></trkpt><trkpt lat="41.0913333" lon="14.3338283"><ele>96.66666666666667</ele><time>2026-04-04T11:05:17.007Z</time></trkpt><trkpt lat="41.0913417" lon="14.3337117"><ele>96.5</ele><time>2026-04-04T11:05:18.005Z</time></trkpt><trkpt lat="41.09134" lon="14.3336033"><ele>96.33333333333334</ele><time>2026-04-04T11:05:19.005Z</time></trkpt><trkpt lat="41.0913383" lon="14.333495"><ele>96.16666666666667</ele><time>2026-04-04T11:05:20.006Z</time></trkpt><trkpt lat="41.0913333" lon="14.3333867"><ele>96.0</ele><time>2026-04-04T11:05:21.005Z</time></trkpt><trkpt lat="41.0913317" lon="14.3332867"><ele>96.0</ele><time>2026-04-04T11:05:22.006Z</time></trkpt><trkpt lat="41.0913233" lon="14.33313"><ele>96.0</ele><time>2026-04-04T11:05:24.006Z</time></trkpt><trkpt lat="41.091315" lon="14.3329917"><ele>96.0</ele><time>2026-04-04T11:05:26.005Z</time></trkpt><trkpt lat="41.0913117" lon="14.332855"><ele>96.0</ele><time>2026-04-04T11:05:28.006Z</time></trkpt><trkpt lat="41.091305" lon="14.3327267"><ele>96.0</ele><time>2026-04-04T11:05:30.006Z</time></trkpt><trkpt lat="41.0912567" lon="14.332615"><ele>95.8</ele><time>2026-04-04T11:05:32.005Z</time></trkpt><trkpt lat="41.091175" lon="14.3325067"><ele>95.6</ele><time>2026-04-04T11:05:34.006Z</time></trkpt><trkpt lat="41.0910933" lon="14.3323883"><ele>95.4</ele><time>2026-04-04T11:05:36.006Z</time></trkpt><trkpt lat="41.0910167" lon="14.3322583"><ele>95.2</ele><time>2026-04-04T11:05:38.006Z</time></trkpt><trkpt lat="41.0909767" lon="14.3321883"><ele>95.0</ele><time>2026-04-04T11:05:39.007Z</time></trkpt><trkpt lat="41.0909417" lon="14.332115"><ele>95.0</ele><time>2026-04-04T11:05:40.006Z</time></trkpt><trkpt lat="41.0908733" lon="14.3319883"><ele>95.0</ele><time>2026-04-04T11:05:42.007Z</time></trkpt><trkpt lat="41.0908" lon="14.3318683"><ele>95.0</ele><time>2026-04-04T11:05:44.007Z</time></trkpt><trkpt lat="41.09073" lon="14.3317533"><ele>95.0</ele><time>2026-04-04T11:05:46.005Z</time></trkpt><trkpt lat="41.09065" lon="14.3316417"><ele>95.0</ele><time>2026-04-04T11:05:48.008Z</time></trkpt><trkpt lat="41.0905667" lon="14.3315183"><ele>95.0</ele><time>2026-04-04T11:05:50.007Z</time></trkpt><trkpt lat="41.0905267" lon="14.3314483"><ele>95.0</ele><time>2026-04-04T11:05:51.006Z</time></trkpt><trkpt lat="41.09049" lon="14.3313717"><ele>95.0</ele><time>2026-04-04T11:05:52.007Z</time></trkpt><trkpt lat="41.0904583" lon="14.331295"><ele>95.0</ele><time>2026-04-04T11:05:53.005Z</time></trkpt><trkpt lat="41.0903883" lon="14.331195"><ele>95.0</ele><time>2026-04-04T11:05:55.005Z</time></trkpt><trkpt lat="41.0903167" lon="14.3311517"><ele>94.83333333333334</ele><time>2026-04-04T11:05:57.005Z</time></trkpt><trkpt lat="41.0902183" lon="14.3311567"><ele>94.66666666666667</ele><time>2026-04-04T11:05:59.006Z</time></trkpt><trkpt lat="41.090105" lon="14.3311783"><ele>94.5</ele><time>2026-04-04T11:06:01.005Z</time></trkpt><trkpt lat="41.09004" lon="14.3311883"><ele>94.33333333333333</ele><time>2026-04-04T11:06:02.007Z</time></trkpt><trkpt lat="41.089975" lon="14.331195"><ele>94.16666666666666</ele><time>2026-04-04T11:06:03.006Z</time></trkpt><trkpt lat="41.089905" lon="14.3311933"><ele>94.0</ele><time>2026-04-04T11:06:04.008Z</time></trkpt><trkpt lat="41.0898367" lon="14.331195"><ele>93.33333333333333</ele><time>2026-04-04T11:06:05.006Z</time></trkpt><trkpt lat="41.08971" lon="14.3311917"><ele>92.66666666666666</ele><time>2026-04-04T11:06:07.005Z</time></trkpt><trkpt lat="41.0896433" lon="14.3311983"><ele>92.0</ele><time>2026-04-04T11:06:08.005Z</time></trkpt><trkpt lat="41.089575" lon="14.3312"><ele>91.33333333333333</ele><time>2026-04-04T11:06:09.006Z</time></trkpt><trkpt lat="41.0895033" lon="14.331205"><ele>90.66666666666667</ele><time>2026-04-04T11:06:10.006Z</time></trkpt><trkpt lat="41.0894217" lon="14.3312083"><ele>90.0</ele><time>2026-04-04T11:06:11.006Z</time></trkpt><trkpt lat="41.0893417" lon="14.3312117"><ele>90.0</ele><time>2026-04-04T11:06:12.006Z</time></trkpt><trkpt lat="41.0892483" lon="14.3312167"><ele>90.0</ele><time>2026-04-04T11:06:13.005Z</time></trkpt><trkpt lat="41.0891567" lon="14.33122"><ele>90.0</ele><time>2026-04-04T11:06:14.006Z</time></trkpt><trkpt lat="41.0890683" lon="14.3312167"><ele>90.0</ele><time>2026-04-04T11:06:15.006Z</time></trkpt><trkpt lat="41.0889833" lon="14.3312183"><ele>90.0</ele><time>2026-04-04T11:06:16.006Z</time></trkpt><trkpt lat="41.0889017" lon="14.3312217"><ele>90.0</ele><time>2026-04-04T11:06:17.005Z</time></trkpt><trkpt lat="41.08882" lon="14.3312283"><ele>89.5</ele><time>2026-04-04T11:06:18.006Z</time></trkpt><trkpt lat="41.0887383" lon="14.3312267"><ele>89.0</ele><time>2026-04-04T11:06:19.006Z</time></trkpt><trkpt lat="41.088655" lon="14.331225"><ele>88.5</ele><time>2026-04-04T11:06:20.006Z</time></trkpt><trkpt lat="41.0885717" lon="14.3312283"><ele>88.0</ele><time>2026-04-04T11:06:21.006Z</time></trkpt><trkpt lat="41.0884833" lon="14.33123"><ele>87.5</ele><time>2026-04-04T11:06:22.006Z</time></trkpt><trkpt lat="41.0883983" lon="14.3312233"><ele>87.0</ele><time>2026-04-04T11:06:23.006Z</time></trkpt><trkpt lat="41.0883117" lon="14.3312167"><ele>86.83333333333333</ele><time>2026-04-04T11:06:24.006Z</time></trkpt><trkpt lat="41.0882283" lon="14.3312067"><ele>86.66666666666667</ele><time>2026-04-04T11:06:25.005Z</time></trkpt><trkpt lat="41.0881433" lon="14.3312"><ele>86.5</ele><time>2026-04-04T11:06:26.006Z</time></trkpt><trkpt lat="41.0880567" lon="14.3311967"><ele>86.33333333333334</ele><time>2026-04-04T11:06:27.006Z</time></trkpt><trkpt lat="41.0879667" lon="14.3311983"><ele>86.16666666666667</ele><time>2026-04-04T11:06:28.006Z</time></trkpt><trkpt lat="41.087875" lon="14.331205"><ele>86.0</ele><time>2026-04-04T11:06:29.005Z</time></trkpt><trkpt lat="41.0877833" lon="14.331215"><ele>86.0</ele><time>2026-04-04T11:06:30.006Z</time></trkpt><trkpt lat="41.0876917" lon="14.3312167"><ele>86.0</ele><time>2026-04-04T11:06:31.007Z</time></trkpt><trkpt lat="41.0876033" lon="14.3312183"><ele>86.0</ele><time>2026-04-04T11:06:32.006Z</time></trkpt><trkpt lat="41.0875133" lon="14.331225"><ele>86.0</ele><time>2026-04-04T11:06:33.005Z</time></trkpt><trkpt lat="41.0874233" lon="14.33124"><ele>86.0</ele><time>2026-04-04T11:06:34.007Z</time></trkpt><trkpt lat="41.087335" lon="14.331255"><ele>86.0</ele><time>2026-04-04T11:06:35.006Z</time></trkpt><trkpt lat="41.0872467" lon="14.3312533"><ele>86.0</ele><time>2026-04-04T11:06:36.006Z</time></trkpt><trkpt lat="41.0871517" lon="14.3312483"><ele>86.0</ele><time>2026-04-04T11:06:37.005Z</time></trkpt><trkpt lat="41.0870583" lon="14.3312433"><ele>86.0</ele><time>2026-04-04T11:06:38.006Z</time></trkpt><trkpt lat="41.0869667" lon="14.3312383"><ele>86.0</ele><time>2026-04-04T11:06:39.006Z</time></trkpt><trkpt lat="41.0868767" lon="14.3312283"><ele>86.0</ele><time>2026-04-04T11:06:40.005Z</time></trkpt><trkpt lat="41.0867817" lon="14.3312317"><ele>86.0</ele><time>2026-04-04T11:06:41.005Z</time></trkpt><trkpt lat="41.08669" lon="14.331235"><ele>86.0</ele><time>2026-04-04T11:06:42.006Z</time></trkpt><trkpt lat="41.0866" lon="14.3312367"><ele>86.0</ele><time>2026-04-04T11:06:43.007Z</time></trkpt><trkpt lat="41.0865117" lon="14.3312367"><ele>86.0</ele><time>2026-04-04T11:06:44.006Z</time></trkpt><trkpt lat="41.086425" lon="14.331235"><ele>85.5</ele><time>2026-04-04T11:06:45.007Z</time></trkpt><trkpt lat="41.08634" lon="14.33123"><ele>85.0</ele><time>2026-04-04T11:06:46.007Z</time></trkpt><trkpt lat="41.0862517" lon="14.3312267"><ele>84.5</ele><time>2026-04-04T11:06:47.012Z</time></trkpt><trkpt lat="41.0861617" lon="14.3312233"><ele>84.0</ele><time>2026-04-04T11:06:48.006Z</time></trkpt><trkpt lat="41.0860717" lon="14.3312167"><ele>83.5</ele><time>2026-04-04T11:06:49.006Z</time></trkpt><trkpt lat="41.0859933" lon="14.331215"><ele>83.0</ele><time>2026-04-04T11:06:50.006Z</time></trkpt><trkpt lat="41.0859133" lon="14.3312117"><ele>83.0</ele><time>2026-04-04T11:06:51.006Z</time></trkpt><trkpt lat="41.085835" lon="14.3312083"><ele>83.0</ele><time>2026-04-04T11:06:52.005Z</time></trkpt><trkpt lat="41.0857533" lon="14.3312067"><ele>83.0</ele><time>2026-04-04T11:06:53.005Z</time></trkpt><trkpt lat="41.0856683" lon="14.3312083"><ele>83.0</ele><time>2026-04-04T11:06:54.006Z</time></trkpt><trkpt lat="41.0855833" lon="14.33121"><ele>83.0</ele><time>2026-04-04T11:06:55.006Z</time></trkpt><trkpt lat="41.0855017" lon="14.3312117"><ele>83.0</ele><time>2026-04-04T11:06:56.006Z</time></trkpt><trkpt lat="41.085425" lon="14.3312083"><ele>82.5</ele><time>2026-04-04T11:06:57.006Z</time></trkpt><trkpt lat="41.0853467" lon="14.33121"><ele>82.0</ele><time>2026-04-04T11:06:58.01Z</time></trkpt><trkpt lat="41.0852667" lon="14.3312133"><ele>81.5</ele><time>2026-04-04T11:06:59.006Z</time></trkpt><trkpt lat="41.0851867" lon="14.3312167"><ele>81.0</ele><time>2026-04-04T11:07:00.006Z</time></trkpt><trkpt lat="41.0851033" lon="14.3312183"><ele>80.5</ele><time>2026-04-04T11:07:01.007Z</time></trkpt><trkpt lat="41.0850217" lon="14.3312167"><ele>80.0</ele><time>2026-04-04T11:07:02.006Z</time></trkpt><trkpt lat="41.0849367" lon="14.33122"><ele>79.83333333333334</ele><time>2026-04-04T11:07:03.005Z</time></trkpt><trkpt lat="41.084855" lon="14.3312217"><ele>79.66666666666667</ele><time>2026-04-04T11:07:04.005Z</time></trkpt><trkpt lat="41.0847717" lon="14.33122"><ele>79.5</ele><time>2026-04-04T11:07:05.006Z</time></trkpt><trkpt lat="41.0846867" lon="14.3312233"><ele>79.33333333333333</ele><time>2026-04-04T11:07:06.008Z</time></trkpt><trkpt lat="41.0846017" lon="14.3312233"><ele>79.16666666666666</ele><time>2026-04-04T11:07:07.005Z</time></trkpt><trkpt lat="41.084515" lon="14.3312217"><ele>79.0</ele><time>2026-04-04T11:07:08.006Z</time></trkpt><trkpt lat="41.0844267" lon="14.33122"><ele>79.0</ele><time>2026-04-04T11:07:09.006Z</time></trkpt><trkpt lat="41.0843383" lon="14.3312167"><ele>79.0</ele><time>2026-04-04T11:07:10.007Z</time></trkpt><trkpt lat="41.08425" lon="14.33122"><ele>79.0</ele><time>2026-04-04T11:07:11.006Z</time></trkpt><trkpt lat="41.0841567" lon="14.3312233"><ele>79.0</ele><time>2026-04-04T11:07:12.006Z</time></trkpt><trkpt lat="41.0840667" lon="14.331235"><ele>79.0</ele><time>2026-04-04T11:07:13.006Z</time></trkpt><trkpt lat="41.083975" lon="14.33125"><ele>78.66666666666666</ele><time>2026-04-04T11:07:14.007Z</time></trkpt><trkpt lat="41.0838867" lon="14.33126"><ele>78.33333333333333</ele><time>2026-04-04T11:07:15.006Z</time></trkpt><trkpt lat="41.083805" lon="14.3312617"><ele>78.0</ele><time>2026-04-04T11:07:16.006Z</time></trkpt><trkpt lat="41.0837183" lon="14.33127"><ele>77.66666666666667</ele><time>2026-04-04T11:07:17.006Z</time></trkpt><trkpt lat="41.0836317" lon="14.3312733"><ele>77.33333333333334</ele><time>2026-04-04T11:07:18.007Z</time></trkpt><trkpt lat="41.0835467" lon="14.3312733"><ele>77.0</ele><time>2026-04-04T11:07:19.005Z</time></trkpt><trkpt lat="41.0834633" lon="14.3312733"><ele>77.0</ele><time>2026-04-04T11:07:20.006Z</time></trkpt><trkpt lat="41.08338" lon="14.3312767"><ele>77.0</ele><time>2026-04-04T11:07:21.005Z</time></trkpt><trkpt lat="41.0833017" lon="14.3312767"><ele>77.0</ele><time>2026-04-04T11:07:22.007Z</time></trkpt><trkpt lat="41.0832333" lon="14.3312717"><ele>77.0</ele><time>2026-04-04T11:07:23.006Z</time></trkpt><trkpt lat="41.0831667" lon="14.3312683"><ele>77.0</ele><time>2026-04-04T11:07:24.007Z</time></trkpt><trkpt lat="41.0830417" lon="14.3312517"><ele>77.0</ele><time>2026-04-04T11:07:26.008Z</time></trkpt><trkpt lat="41.0829767" lon="14.3312483"><ele>77.0</ele><time>2026-04-04T11:07:27.006Z</time></trkpt><trkpt lat="41.0829117" lon="14.3312467"><ele>77.0</ele><time>2026-04-04T11:07:28.007Z</time></trkpt><trkpt lat="41.082845" lon="14.3312483"><ele>77.0</ele><time>2026-04-04T11:07:29.007Z</time></trkpt><trkpt lat="41.0827733" lon="14.33125"><ele>77.0</ele><time>2026-04-04T11:07:30.006Z</time></trkpt><trkpt lat="41.0827017" lon="14.3312567"><ele>77.0</ele><time>2026-04-04T11:07:31.006Z</time></trkpt><trkpt lat="41.0826317" lon="14.33126"><ele>77.0</ele><time>2026-04-04T11:07:32.006Z</time></trkpt><trkpt lat="41.082565" lon="14.33126"><ele>77.0</ele><time>2026-04-04T11:07:33.007Z</time></trkpt><trkpt lat="41.0825017" lon="14.33126"><ele>77.0</ele><time>2026-04-04T11:07:34.005Z</time></trkpt><trkpt lat="41.0824383" lon="14.3312633"><ele>77.0</ele><time>2026-04-04T11:07:35.006Z</time></trkpt><trkpt lat="41.0823167" lon="14.3312683"><ele>77.0</ele><time>2026-04-04T11:07:37.006Z</time></trkpt><trkpt lat="41.0822017" lon="14.3312683"><ele>77.0</ele><time>2026-04-04T11:07:39.006Z</time></trkpt><trkpt lat="41.0821367" lon="14.3312683"><ele>77.0</ele><time>2026-04-04T11:07:40.005Z</time></trkpt><trkpt lat="41.0820117" lon="14.33126"><ele>77.66666666666667</ele><time>2026-04-04T11:07:42.006Z</time></trkpt><trkpt lat="41.0819367" lon="14.3312467"><ele>78.33333333333334</ele><time>2026-04-04T11:07:43.006Z</time></trkpt><trkpt lat="41.0818667" lon="14.3312433"><ele>79.0</ele><time>2026-04-04T11:07:44.008Z</time></trkpt><trkpt lat="41.081795" lon="14.3312467"><ele>79.66666666666667</ele><time>2026-04-04T11:07:45.007Z</time></trkpt><trkpt lat="41.0816867" lon="14.3312383"><ele>80.33333333333333</ele><time>2026-04-04T11:07:47.006Z</time></trkpt><trkpt lat="41.0816017" lon="14.3312333"><ele>81.0</ele><time>2026-04-04T11:07:49.006Z</time></trkpt><trkpt lat="41.0815333" lon="14.3312317"><ele>81.0</ele><time>2026-04-04T11:07:52.005Z</time></trkpt><trkpt lat="41.0814483" lon="14.331225"><ele>81.0</ele><time>2026-04-04T11:07:59.006Z</time></trkpt><trkpt lat="41.08138" lon="14.3312317"><ele>81.0</ele><time>2026-04-04T11:08:02.006Z</time></trkpt><trkpt lat="41.08129" lon="14.331245"><ele>81.0</ele><time>2026-04-04T11:08:05.006Z</time></trkpt><trkpt lat="41.0811967" lon="14.331235"><ele>81.0</ele><time>2026-04-04T11:08:08.007Z</time></trkpt><trkpt lat="41.0811167" lon="14.3312367"><ele>81.0</ele><time>2026-04-04T11:08:10.008Z</time></trkpt><trkpt lat="41.0810233" lon="14.3312483"><ele>81.0</ele><time>2026-04-04T11:08:12.007Z</time></trkpt><trkpt lat="41.0809233" lon="14.3312383"><ele>81.0</ele><time>2026-04-04T11:08:14.006Z</time></trkpt><trkpt lat="41.08081" lon="14.3312383"><ele>81.0</ele><time>2026-04-04T11:08:16.006Z</time></trkpt><trkpt lat="41.0806883" lon="14.3312483"><ele>81.0</ele><time>2026-04-04T11:08:18.007Z</time></trkpt><trkpt lat="41.080565" lon="14.3312433"><ele>80.83333333333333</ele><time>2026-04-04T11:08:20.006Z</time></trkpt><trkpt lat="41.0804317" lon="14.3312317"><ele>80.66666666666667</ele><time>2026-04-04T11:08:22.006Z</time></trkpt><trkpt lat="41.0803667" lon="14.3312333"><ele>80.5</ele><time>2026-04-04T11:08:23.006Z</time></trkpt><trkpt lat="41.0802983" lon="14.3312333"><ele>80.33333333333334</ele><time>2026-04-04T11:08:24.006Z</time></trkpt><trkpt lat="41.080235" lon="14.33123"><ele>80.16666666666667</ele><time>2026-04-04T11:08:25.007Z</time></trkpt><trkpt lat="41.08016" lon="14.3312383"><ele>80.0</ele><time>2026-04-04T11:08:26.006Z</time></trkpt><trkpt lat="41.080085" lon="14.33124"><ele>80.0</ele><time>2026-04-04T11:08:27.007Z</time></trkpt><trkpt lat="41.0800217" lon="14.3312367"><ele>80.0</ele><time>2026-04-04T11:08:28.006Z</time></trkpt><trkpt lat="41.0799517" lon="14.3312333"><ele>80.0</ele><time>2026-04-04T11:08:29.007Z</time></trkpt><trkpt lat="41.0798783" lon="14.33123"><ele>80.0</ele><time>2026-04-04T11:08:30.006Z</time></trkpt><trkpt lat="41.079805" lon="14.3312317"><ele>80.0</ele><time>2026-04-04T11:08:31.007Z</time></trkpt><trkpt lat="41.079735" lon="14.33124"><ele>80.0</ele><time>2026-04-04T11:08:32.005Z</time></trkpt><trkpt lat="41.0796667" lon="14.3312433"><ele>80.0</ele><time>2026-04-04T11:08:33.005Z</time></trkpt><trkpt lat="41.0795967" lon="14.3312517"><ele>80.16666666666667</ele><time>2026-04-04T11:08:34.006Z</time></trkpt><trkpt lat="41.0795283" lon="14.33126"><ele>80.33333333333334</ele><time>2026-04-04T11:08:35.005Z</time></trkpt><trkpt lat="41.079465" lon="14.3312633"><ele>80.5</ele><time>2026-04-04T11:08:36.005Z</time></trkpt><trkpt lat="41.07935" lon="14.3312717"><ele>80.66666666666667</ele><time>2026-04-04T11:08:38.005Z</time></trkpt><trkpt lat="41.0792233" lon="14.331265"><ele>80.83333333333333</ele><time>2026-04-04T11:08:40.006Z</time></trkpt><trkpt lat="41.079155" lon="14.3312617"><ele>81.0</ele><time>2026-04-04T11:08:41.005Z</time></trkpt><trkpt lat="41.0790883" lon="14.33126"><ele>81.0</ele><time>2026-04-04T11:08:42.006Z</time></trkpt><trkpt lat="41.07902" lon="14.3312517"><ele>81.0</ele><time>2026-04-04T11:08:43.005Z</time></trkpt><trkpt lat="41.0789467" lon="14.3312433"><ele>81.0</ele><time>2026-04-04T11:08:44.005Z</time></trkpt><trkpt lat="41.078875" lon="14.3312433"><ele>81.0</ele><time>2026-04-04T11:08:45.005Z</time></trkpt><trkpt lat="41.0788" lon="14.3312467"><ele>81.0</ele><time>2026-04-04T11:08:46.005Z</time></trkpt><trkpt lat="41.0787233" lon="14.3312483"><ele>81.0</ele><time>2026-04-04T11:08:47.005Z</time></trkpt><trkpt lat="41.0786567" lon="14.3312467"><ele>81.0</ele><time>2026-04-04T11:08:48.005Z</time></trkpt><trkpt lat="41.0785433" lon="14.3312417"><ele>81.0</ele><time>2026-04-04T11:08:50.006Z</time></trkpt><trkpt lat="41.0784217" lon="14.3312433"><ele>81.0</ele><time>2026-04-04T11:08:52.005Z</time></trkpt><trkpt lat="41.0783" lon="14.3312517"><ele>81.0</ele><time>2026-04-04T11:08:54.006Z</time></trkpt><trkpt lat="41.0782333" lon="14.3312583"><ele>81.0</ele><time>2026-04-04T11:08:55.006Z</time></trkpt><trkpt lat="41.0781633" lon="14.3312617"><ele>81.0</ele><time>2026-04-04T11:08:56.006Z</time></trkpt><trkpt lat="41.078095" lon="14.3312633"><ele>81.0</ele><time>2026-04-04T11:08:57.005Z</time></trkpt><trkpt lat="41.078025" lon="14.3312667"><ele>80.85714285714286</ele><time>2026-04-04T11:08:58.005Z</time></trkpt><trkpt lat="41.0779533" lon="14.3312717"><ele>80.71428571428571</ele><time>2026-04-04T11:08:59.005Z</time></trkpt><trkpt lat="41.077885" lon="14.3312767"><ele>80.57142857142857</ele><time>2026-04-04T11:09:00.006Z</time></trkpt><trkpt lat="41.0778133" lon="14.3312717"><ele>80.42857142857143</ele><time>2026-04-04T11:09:01.006Z</time></trkpt><trkpt lat="41.0777367" lon="14.3312683"><ele>80.28571428571429</ele><time>2026-04-04T11:09:02.006Z</time></trkpt><trkpt lat="41.0776667" lon="14.33127"><ele>80.14285714285714</ele><time>2026-04-04T11:09:03.006Z</time></trkpt><trkpt lat="41.0775933" lon="14.3312733"><ele>80.0</ele><time>2026-04-04T11:09:04.005Z</time></trkpt><trkpt lat="41.077525" lon="14.3312733"><ele>80.0</ele><time>2026-04-04T11:09:05.006Z</time></trkpt><trkpt lat="41.0774533" lon="14.3312717"><ele>80.0</ele><time>2026-04-04T11:09:06.005Z</time></trkpt><trkpt lat="41.0773867" lon="14.3312717"><ele>80.0</ele><time>2026-04-04T11:09:07.006Z</time></trkpt><trkpt lat="41.07732" lon="14.3312783"><ele>80.0</ele><time>2026-04-04T11:09:08.005Z</time></trkpt><trkpt lat="41.0772133" lon="14.3312867"><ele>80.0</ele><time>2026-04-04T11:09:10.005Z</time></trkpt><trkpt lat="41.0771233" lon="14.3312983"><ele>80.0</ele><time>2026-04-04T11:09:12.005Z</time></trkpt><trkpt lat="41.077035" lon="14.331295"><ele>78.83333333333334</ele><time>2026-04-04T11:09:14.006Z</time></trkpt><trkpt lat="41.0769617" lon="14.3312967"><ele>77.66666666666667</ele><time>2026-04-04T11:09:15.006Z</time></trkpt><trkpt lat="41.0768933" lon="14.3312783"><ele>76.5</ele><time>2026-04-04T11:09:16.007Z</time></trkpt><trkpt lat="41.0767633" lon="14.3312583"><ele>75.33333333333333</ele><time>2026-04-04T11:09:18.005Z</time></trkpt><trkpt lat="41.076695" lon="14.331255"><ele>74.16666666666666</ele><time>2026-04-04T11:09:19.005Z</time></trkpt><trkpt lat="41.0766317" lon="14.3312483"><ele>73.0</ele><time>2026-04-04T11:09:20.005Z</time></trkpt><trkpt lat="41.0765083" lon="14.3312367"><ele>73.0</ele><time>2026-04-04T11:09:22.006Z</time></trkpt><trkpt lat="41.076445" lon="14.3312283"><ele>73.0</ele><time>2026-04-04T11:09:23.005Z</time></trkpt><trkpt lat="41.0763783" lon="14.3312317"><ele>73.0</ele><time>2026-04-04T11:09:24.005Z</time></trkpt><trkpt lat="41.0763083" lon="14.3312383"><ele>73.0</ele><time>2026-04-04T11:09:25.007Z</time></trkpt><trkpt lat="41.076235" lon="14.3312483"><ele>73.0</ele><time>2026-04-04T11:09:26.006Z</time></trkpt><trkpt lat="41.0761633" lon="14.3312517"><ele>73.0</ele><time>2026-04-04T11:09:27.005Z</time></trkpt><trkpt lat="41.07609" lon="14.3312567"><ele>73.0</ele><time>2026-04-04T11:09:28.005Z</time></trkpt><trkpt lat="41.0760167" lon="14.331265"><ele>73.0</ele><time>2026-04-04T11:09:29.005Z</time></trkpt><trkpt lat="41.0759483" lon="14.3312667"><ele>73.0</ele><time>2026-04-04T11:09:30.006Z</time></trkpt><trkpt lat="41.0758783" lon="14.33127"><ele>73.0</ele><time>2026-04-04T11:09:31.005Z</time></trkpt><trkpt lat="41.0757617" lon="14.3312683"><ele>73.0</ele><time>2026-04-04T11:09:33.005Z</time></trkpt><trkpt lat="41.0756433" lon="14.3312633"><ele>73.0</ele><time>2026-04-04T11:09:35.006Z</time></trkpt><trkpt lat="41.07552" lon="14.3312483"><ele>73.4</ele><time>2026-04-04T11:09:37.006Z</time></trkpt><trkpt lat="41.0754567" lon="14.3312483"><ele>73.8</ele><time>2026-04-04T11:09:38.005Z</time></trkpt><trkpt lat="41.07534" lon="14.3312517"><ele>74.2</ele><time>2026-04-04T11:09:40.006Z</time></trkpt><trkpt lat="41.0752167" lon="14.3312467"><ele>74.6</ele><time>2026-04-04T11:09:42.005Z</time></trkpt><trkpt lat="41.075105" lon="14.331245"><ele>75.0</ele><time>2026-04-04T11:09:44.005Z</time></trkpt><trkpt lat="41.0749967" lon="14.3312567"><ele>74.8</ele><time>2026-04-04T11:09:46.006Z</time></trkpt><trkpt lat="41.074895" lon="14.3312917"><ele>74.6</ele><time>2026-04-04T11:09:48.006Z</time></trkpt><trkpt lat="41.0747967" lon="14.33131"><ele>74.4</ele><time>2026-04-04T11:09:50.006Z</time></trkpt><trkpt lat="41.0747067" lon="14.3313133"><ele>74.2</ele><time>2026-04-04T11:09:52.006Z</time></trkpt><trkpt lat="41.0746" lon="14.3313017"><ele>74.0</ele><time>2026-04-04T11:09:54.005Z</time></trkpt><trkpt lat="41.074475" lon="14.3312967"><ele>74.0</ele><time>2026-04-04T11:09:56.005Z</time></trkpt><trkpt lat="41.0744083" lon="14.33129"><ele>74.0</ele><time>2026-04-04T11:09:57.008Z</time></trkpt><trkpt lat="41.0743417" lon="14.3312933"><ele>74.0</ele><time>2026-04-04T11:09:58.005Z</time></trkpt><trkpt lat="41.0742733" lon="14.3312917"><ele>74.0</ele><time>2026-04-04T11:09:59.006Z</time></trkpt><trkpt lat="41.0742017" lon="14.3312933"><ele>74.0</ele><time>2026-04-04T11:10:00.006Z</time></trkpt><trkpt lat="41.074135" lon="14.3312933"><ele>74.0</ele><time>2026-04-04T11:10:01.006Z</time></trkpt><trkpt lat="41.07407" lon="14.3312883"><ele>74.0</ele><time>2026-04-04T11:10:02.006Z</time></trkpt><trkpt lat="41.0739433" lon="14.3312867"><ele>74.0</ele><time>2026-04-04T11:10:04.005Z</time></trkpt><trkpt lat="41.0738283" lon="14.3313067"><ele>74.0</ele><time>2026-04-04T11:10:06.006Z</time></trkpt><trkpt lat="41.0737167" lon="14.3313067"><ele>74.0</ele><time>2026-04-04T11:10:08.005Z</time></trkpt><trkpt lat="41.0736333" lon="14.3312983"><ele>74.0</ele><time>2026-04-04T11:10:10.005Z</time></trkpt><trkpt lat="41.0735517" lon="14.3312883"><ele>74.0</ele><time>2026-04-04T11:10:12.008Z</time></trkpt><trkpt lat="41.0734617" lon="14.331295"><ele>74.0</ele><time>2026-04-04T11:10:14.006Z</time></trkpt><trkpt lat="41.07337" lon="14.3313"><ele>74.0</ele><time>2026-04-04T11:10:16.005Z</time></trkpt><trkpt lat="41.07327" lon="14.3313183"><ele>74.0</ele><time>2026-04-04T11:10:18.005Z</time></trkpt><trkpt lat="41.0731517" lon="14.3313467"><ele>74.0</ele><time>2026-04-04T11:10:20.005Z</time></trkpt><trkpt lat="41.0730367" lon="14.3313617"><ele>74.0</ele><time>2026-04-04T11:10:22.006Z</time></trkpt><trkpt lat="41.0729267" lon="14.3313683"><ele>73.66666666666667</ele><time>2026-04-04T11:10:24.007Z</time></trkpt><trkpt lat="41.0728617" lon="14.3313717"><ele>73.33333333333334</ele><time>2026-04-04T11:10:25.005Z</time></trkpt><trkpt lat="41.0727667" lon="14.3313733"><ele>73.0</ele><time>2026-04-04T11:10:27.005Z</time></trkpt><trkpt lat="41.0727017" lon="14.331375"><ele>72.66666666666667</ele><time>2026-04-04T11:10:29.006Z</time></trkpt><trkpt lat="41.0726267" lon="14.33136"><ele>72.33333333333333</ele><time>2026-04-04T11:10:31.005Z</time></trkpt><trkpt lat="41.0725383" lon="14.33134"><ele>72.0</ele><time>2026-04-04T11:10:33.007Z</time></trkpt><trkpt lat="41.0724517" lon="14.3313283"><ele>71.83333333333333</ele><time>2026-04-04T11:10:35.005Z</time></trkpt><trkpt lat="41.0723483" lon="14.3313267"><ele>71.66666666666667</ele><time>2026-04-04T11:10:37.006Z</time></trkpt><trkpt lat="41.07227" lon="14.331325"><ele>71.5</ele><time>2026-04-04T11:10:39.005Z</time></trkpt><trkpt lat="41.0721717" lon="14.3313217"><ele>71.33333333333334</ele><time>2026-04-04T11:10:41.005Z</time></trkpt><trkpt lat="41.072085" lon="14.3312967"><ele>71.16666666666667</ele><time>2026-04-04T11:10:43.006Z</time></trkpt><trkpt lat="41.07201" lon="14.3312667"><ele>71.0</ele><time>2026-04-04T11:10:45.005Z</time></trkpt><trkpt lat="41.071935" lon="14.3312583"><ele>71.0</ele><time>2026-04-04T11:10:47.005Z</time></trkpt><trkpt lat="41.071865" lon="14.3312533"><ele>71.0</ele><time>2026-04-04T11:10:49.006Z</time></trkpt><trkpt lat="41.07178" lon="14.331245"><ele>71.0</ele><time>2026-04-04T11:10:52.005Z</time></trkpt><trkpt lat="41.0717083" lon="14.3312383"><ele>71.0</ele><time>2026-04-04T11:10:56.005Z</time></trkpt><trkpt lat="41.071625" lon="14.3312333"><ele>71.0</ele><time>2026-04-04T11:10:59.007Z</time></trkpt><trkpt lat="41.071535" lon="14.3312183"><ele>71.0</ele><time>2026-04-04T11:11:01.005Z</time></trkpt><trkpt lat="41.0714467" lon="14.3312283"><ele>70.33333333333334</ele><time>2026-04-04T11:11:03.006Z</time></trkpt><trkpt lat="41.0713583" lon="14.3312167"><ele>69.66666666666667</ele><time>2026-04-04T11:11:05.006Z</time></trkpt><trkpt lat="41.0712717" lon="14.3312133"><ele>69.0</ele><time>2026-04-04T11:11:07.006Z</time></trkpt><trkpt lat="41.0711967" lon="14.3312217"><ele>68.33333333333333</ele><time>2026-04-04T11:11:09.005Z</time></trkpt><trkpt lat="41.0711267" lon="14.3312333"><ele>67.66666666666666</ele><time>2026-04-04T11:11:12.006Z</time></trkpt><trkpt lat="41.0710317" lon="14.331205"><ele>67.0</ele><time>2026-04-04T11:11:15.005Z</time></trkpt><trkpt lat="41.0709533" lon="14.3311967"><ele>67.0</ele><time>2026-04-04T11:11:17.005Z</time></trkpt><trkpt lat="41.0708683" lon="14.33123"><ele>67.0</ele><time>2026-04-04T11:11:19.006Z</time></trkpt><trkpt lat="41.070795" lon="14.331255"><ele>67.0</ele><time>2026-04-04T11:11:21.006Z</time></trkpt><trkpt lat="41.0707417" lon="14.331305"><ele>67.0</ele><time>2026-04-04T11:11:23.005Z</time></trkpt><trkpt lat="41.0706567" lon="14.331295"><ele>67.0</ele><time>2026-04-04T11:11:26.011Z</time></trkpt><trkpt lat="41.0705567" lon="14.33125"><ele>67.0</ele><time>2026-04-04T11:11:27.006Z</time></trkpt><trkpt lat="41.0704467" lon="14.331255"><ele>67.14285714285714</ele><time>2026-04-04T11:11:29.006Z</time></trkpt><trkpt lat="41.0703633" lon="14.331255"><ele>67.28571428571428</ele><time>2026-04-04T11:11:31.006Z</time></trkpt><trkpt lat="41.0703017" lon="14.331295"><ele>67.42857142857142</ele><time>2026-04-04T11:11:33.005Z</time></trkpt><trkpt lat="41.0702567" lon="14.3313667"><ele>67.57142857142857</ele><time>2026-04-04T11:11:35.005Z</time></trkpt><trkpt lat="41.0702067" lon="14.3314667"><ele>67.71428571428571</ele><time>2026-04-04T11:11:37.013Z</time></trkpt><trkpt lat="41.0701867" lon="14.3315483"><ele>67.85714285714285</ele><time>2026-04-04T11:11:39.006Z</time></trkpt><trkpt lat="41.070215" lon="14.3314733"><ele>68.0</ele><time>2026-04-04T11:11:42.006Z</time></trkpt><trkpt lat="41.07016" lon="14.3312667"><ele>68.0</ele><time>2026-04-04T11:11:47.011Z</time></trkpt><trkpt lat="41.0700717" lon="14.3311617"><ele>68.0</ele><time>2026-04-04T11:11:49.007Z</time></trkpt><trkpt lat="41.070065" lon="14.331055"><ele>68.0</ele><time>2026-04-04T11:11:52.006Z</time></trkpt><trkpt lat="41.07007" lon="14.33093"><ele>68.0</ele><time>2026-04-04T11:11:55.008Z</time></trkpt><trkpt lat="41.0700467" lon="14.3308433"><ele>68.0</ele><time>2026-04-04T11:11:57.006Z</time></trkpt><trkpt lat="41.0700017" lon="14.3307783"><ele>68.0</ele><time>2026-04-04T11:11:59.007Z</time></trkpt><trkpt lat="41.06992" lon="14.3307133"><ele>68.42857142857142</ele><time>2026-04-04T11:12:02.007Z</time></trkpt><trkpt lat="41.06985" lon="14.3306783"><ele>68.85714285714286</ele><time>2026-04-04T11:12:04.005Z</time></trkpt><trkpt lat="41.06978" lon="14.3306467"><ele>69.28571428571428</ele><time>2026-04-04T11:12:06.006Z</time></trkpt><trkpt lat="41.0697083" lon="14.3306217"><ele>69.71428571428571</ele><time>2026-04-04T11:12:08.006Z</time></trkpt><trkpt lat="41.0696333" lon="14.3306117"><ele>70.14285714285714</ele><time>2026-04-04T11:12:10.005Z</time></trkpt><trkpt lat="41.0695583" lon="14.3306017"><ele>70.57142857142857</ele><time>2026-04-04T11:12:12.007Z</time></trkpt><trkpt lat="41.069485" lon="14.3306"><ele>71.0</ele><time>2026-04-04T11:12:14.006Z</time></trkpt><trkpt lat="41.0694083" lon="14.3306"><ele>71.0</ele><time>2026-04-04T11:12:16.006Z</time></trkpt><trkpt lat="41.069325" lon="14.33059"><ele>71.0</ele><time>2026-04-04T11:12:18.007Z</time></trkpt><trkpt lat="41.0692483" lon="14.3305883"><ele>71.0</ele><time>2026-04-04T11:12:20.006Z</time></trkpt><trkpt lat="41.0691617" lon="14.330575"><ele>71.0</ele><time>2026-04-04T11:12:22.011Z</time></trkpt><trkpt lat="41.0690917" lon="14.3305617"><ele>71.0</ele><time>2026-04-04T11:12:24.006Z</time></trkpt><trkpt lat="41.0690117" lon="14.330565"><ele>71.0</ele><time>2026-04-04T11:12:26.006Z</time></trkpt><trkpt lat="41.0689333" lon="14.3305567"><ele>70.16666666666667</ele><time>2026-04-04T11:12:28.006Z</time></trkpt><trkpt lat="41.06885" lon="14.3305417"><ele>69.33333333333334</ele><time>2026-04-04T11:12:30.007Z</time></trkpt><trkpt lat="41.0687683" lon="14.3305267"><ele>68.5</ele><time>2026-04-04T11:12:32.006Z</time></trkpt><trkpt lat="41.0686867" lon="14.33052"><ele>67.66666666666667</ele><time>2026-04-04T11:12:34.006Z</time></trkpt><trkpt lat="41.0686" lon="14.3305117"><ele>66.83333333333333</ele><time>2026-04-04T11:12:36.008Z</time></trkpt><trkpt lat="41.0685017" lon="14.3304983"><ele>66.0</ele><time>2026-04-04T11:12:38.006Z</time></trkpt><trkpt lat="41.0683967" lon="14.3304917"><ele>66.0</ele><time>2026-04-04T11:12:40.007Z</time></trkpt><trkpt lat="41.0682917" lon="14.330485"><ele>66.0</ele><time>2026-04-04T11:12:42.006Z</time></trkpt><trkpt lat="41.0681883" lon="14.330485"><ele>66.0</ele><time>2026-04-04T11:12:44.009Z</time></trkpt><trkpt lat="41.068085" lon="14.3304817"><ele>66.0</ele><time>2026-04-04T11:12:46.007Z</time></trkpt><trkpt lat="41.0679833" lon="14.3304733"><ele>66.0</ele><time>2026-04-04T11:12:48.006Z</time></trkpt><trkpt lat="41.0678783" lon="14.3304683"><ele>65.6</ele><time>2026-04-04T11:12:50.008Z</time></trkpt><trkpt lat="41.0677783" lon="14.3304417"><ele>65.19999999999999</ele><time>2026-04-04T11:12:52.006Z</time></trkpt><trkpt lat="41.0676783" lon="14.3303867"><ele>64.80000000000001</ele><time>2026-04-04T11:12:54.007Z</time></trkpt><trkpt lat="41.0675783" lon="14.330315"><ele>64.4</ele><time>2026-04-04T11:12:56.006Z</time></trkpt><trkpt lat="41.06748" lon="14.3302183"><ele>64.0</ele><time>2026-04-04T11:12:58.007Z</time></trkpt><trkpt lat="41.0673867" lon="14.3300967"><ele>63.99999999999999</ele><time>2026-04-04T11:13:00.007Z</time></trkpt><trkpt lat="41.0673383" lon="14.3300267"><ele>64.0</ele><time>2026-04-04T11:13:01.009Z</time></trkpt><trkpt lat="41.0673033" lon="14.32995"><ele>64.0</ele><time>2026-04-04T11:13:02.006Z</time></trkpt><trkpt lat="41.0672567" lon="14.3298283"><ele>64.0</ele><time>2026-04-04T11:13:04.006Z</time></trkpt><trkpt lat="41.0672217" lon="14.3297367"><ele>63.99999999999999</ele><time>2026-04-04T11:13:07.006Z</time></trkpt><trkpt lat="41.067185" lon="14.3296483"><ele>64.0</ele><time>2026-04-04T11:13:09.008Z</time></trkpt><trkpt lat="41.0671433" lon="14.3295383"><ele>63.400000000000006</ele><time>2026-04-04T11:13:11.007Z</time></trkpt><trkpt lat="41.0670967" lon="14.329405"><ele>62.800000000000004</ele><time>2026-04-04T11:13:13.007Z</time></trkpt><trkpt lat="41.0670417" lon="14.3292783"><ele>62.199999999999996</ele><time>2026-04-04T11:13:15.006Z</time></trkpt><trkpt lat="41.0670017" lon="14.3291383"><ele>61.599999999999994</ele><time>2026-04-04T11:13:17.006Z</time></trkpt><trkpt lat="41.066965" lon="14.3290217"><ele>61.0</ele><time>2026-04-04T11:13:19.006Z</time></trkpt><trkpt lat="41.0669533" lon="14.3289233"><ele>60.99999999999999</ele><time>2026-04-04T11:13:21.006Z</time></trkpt><trkpt lat="41.0669333" lon="14.3288"><ele>61.0</ele><time>2026-04-04T11:13:23.006Z</time></trkpt><trkpt lat="41.066885" lon="14.3286633"><ele>61.0</ele><time>2026-04-04T11:13:25.006Z</time></trkpt><trkpt lat="41.0668583" lon="14.3285867"><ele>61.0</ele><time>2026-04-04T11:13:26.008Z</time></trkpt><trkpt lat="41.066825" lon="14.3285083"><ele>60.99999999999999</ele><time>2026-04-04T11:13:27.007Z</time></trkpt><trkpt lat="41.0667883" lon="14.328425"><ele>61.0</ele><time>2026-04-04T11:13:28.006Z</time></trkpt><trkpt lat="41.0667583" lon="14.3283417"><ele>60.99999999999999</ele><time>2026-04-04T11:13:29.006Z</time></trkpt><trkpt lat="41.066725" lon="14.3282517"><ele>61.0</ele><time>2026-04-04T11:13:30.007Z</time></trkpt><trkpt lat="41.0666883" lon="14.3281717"><ele>61.0</ele><time>2026-04-04T11:13:31.006Z</time></trkpt><trkpt lat="41.0666533" lon="14.3280833"><ele>61.0</ele><time>2026-04-04T11:13:32.006Z</time></trkpt><trkpt lat="41.0666183" lon="14.3279917"><ele>60.99999999999999</ele><time>2026-04-04T11:13:33.008Z</time></trkpt><trkpt lat="41.0665817" lon="14.3279"><ele>61.0</ele><time>2026-04-04T11:13:34.007Z</time></trkpt><trkpt lat="41.0665467" lon="14.3278133"><ele>60.85714285714285</ele><time>2026-04-04T11:13:35.006Z</time></trkpt><trkpt lat="41.0665133" lon="14.3277267"><ele>60.71428571428571</ele><time>2026-04-04T11:13:36.006Z</time></trkpt><trkpt lat="41.06648" lon="14.3276417"><ele>60.57142857142857</ele><time>2026-04-04T11:13:37.006Z</time></trkpt><trkpt lat="41.0664417" lon="14.3275567"><ele>60.42857142857142</ele><time>2026-04-04T11:13:38.007Z</time></trkpt><trkpt lat="41.0664033" lon="14.327475"><ele>60.28571428571428</ele><time>2026-04-04T11:13:39.006Z</time></trkpt><trkpt lat="41.0663683" lon="14.32739"><ele>60.142857142857146</ele><time>2026-04-04T11:13:40.006Z</time></trkpt><trkpt lat="41.0663317" lon="14.3273033"><ele>60.0</ele><time>2026-04-04T11:13:41.006Z</time></trkpt><trkpt lat="41.0662933" lon="14.3272167"><ele>60.0</ele><time>2026-04-04T11:13:42.005Z</time></trkpt><trkpt lat="41.0662583" lon="14.3271317"><ele>60.0</ele><time>2026-04-04T11:13:43.005Z</time></trkpt><trkpt lat="41.066225" lon="14.3270467"><ele>60.0</ele><time>2026-04-04T11:13:44.005Z</time></trkpt><trkpt lat="41.0661917" lon="14.3269533"><ele>60.0</ele><time>2026-04-04T11:13:45.005Z</time></trkpt><trkpt lat="41.0661617" lon="14.32686"><ele>60.0</ele><time>2026-04-04T11:13:46.006Z</time></trkpt><trkpt lat="41.0661383" lon="14.3267667"><ele>60.0</ele><time>2026-04-04T11:13:47.005Z</time></trkpt><trkpt lat="41.06612" lon="14.3266733"><ele>60.0</ele><time>2026-04-04T11:13:48.005Z</time></trkpt><trkpt lat="41.0660817" lon="14.3265283"><ele>60.0</ele><time>2026-04-04T11:13:50.006Z</time></trkpt><trkpt lat="41.0659967" lon="14.326445"><ele>60.0</ele><time>2026-04-04T11:13:52.005Z</time></trkpt><trkpt lat="41.0658733" lon="14.32642"><ele>60.0</ele><time>2026-04-04T11:13:54.006Z</time></trkpt><trkpt lat="41.0658033" lon="14.3264217"><ele>60.0</ele><time>2026-04-04T11:13:55.005Z</time></trkpt><trkpt lat="41.0657333" lon="14.3264183"><ele>60.0</ele><time>2026-04-04T11:13:56.006Z</time></trkpt><trkpt lat="41.0656633" lon="14.32641"><ele>60.0</ele><time>2026-04-04T11:13:57.006Z</time></trkpt><trkpt lat="41.0655933" lon="14.326405"><ele>60.0</ele><time>2026-04-04T11:13:58.006Z</time></trkpt><trkpt lat="41.0655233" lon="14.3263983"><ele>60.0</ele><time>2026-04-04T11:13:59.007Z</time></trkpt><trkpt lat="41.0654517" lon="14.3264017"><ele>60.0</ele><time>2026-04-04T11:14:00.006Z</time></trkpt><trkpt lat="41.0653817" lon="14.3264"><ele>60.0</ele><time>2026-04-04T11:14:01.006Z</time></trkpt><trkpt lat="41.0653033" lon="14.3263967"><ele>60.0</ele><time>2026-04-04T11:14:02.005Z</time></trkpt><trkpt lat="41.0652217" lon="14.3263917"><ele>60.0</ele><time>2026-04-04T11:14:03.005Z</time></trkpt><trkpt lat="41.0651433" lon="14.3263833"><ele>60.0</ele><time>2026-04-04T11:14:04.007Z</time></trkpt><trkpt lat="41.06507" lon="14.3263733"><ele>60.0</ele><time>2026-04-04T11:14:05.006Z</time></trkpt><trkpt lat="41.0649967" lon="14.326365"><ele>60.0</ele><time>2026-04-04T11:14:06.005Z</time></trkpt><trkpt lat="41.0649233" lon="14.3263517"><ele>60.0</ele><time>2026-04-04T11:14:07.005Z</time></trkpt><trkpt lat="41.0648483" lon="14.3263383"><ele>60.0</ele><time>2026-04-04T11:14:08.006Z</time></trkpt><trkpt lat="41.0647733" lon="14.3263333"><ele>60.0</ele><time>2026-04-04T11:14:09.005Z</time></trkpt><trkpt lat="41.0646967" lon="14.3263283"><ele>60.0</ele><time>2026-04-04T11:14:10.006Z</time></trkpt><trkpt lat="41.06462" lon="14.3263283"><ele>59.666666666666664</ele><time>2026-04-04T11:14:11.005Z</time></trkpt><trkpt lat="41.0645417" lon="14.3263233"><ele>59.33333333333333</ele><time>2026-04-04T11:14:12.006Z</time></trkpt><trkpt lat="41.0644617" lon="14.3263217"><ele>59.0</ele><time>2026-04-04T11:14:13.005Z</time></trkpt><trkpt lat="41.0643783" lon="14.3263167"><ele>58.666666666666664</ele><time>2026-04-04T11:14:14.006Z</time></trkpt><trkpt lat="41.0643017" lon="14.3263067"><ele>58.33333333333333</ele><time>2026-04-04T11:14:15.009Z</time></trkpt><trkpt lat="41.0642233" lon="14.3263"><ele>58.0</ele><time>2026-04-04T11:14:16.005Z</time></trkpt><trkpt lat="41.064145" lon="14.326295"><ele>58.166666666666664</ele><time>2026-04-04T11:14:17.005Z</time></trkpt><trkpt lat="41.0640683" lon="14.3262867"><ele>58.33333333333333</ele><time>2026-04-04T11:14:18.006Z</time></trkpt><trkpt lat="41.0639933" lon="14.32628"><ele>58.5</ele><time>2026-04-04T11:14:19.009Z</time></trkpt><trkpt lat="41.063915" lon="14.32627"><ele>58.66666666666667</ele><time>2026-04-04T11:14:20.005Z</time></trkpt><trkpt lat="41.0638383" lon="14.3262583"><ele>58.833333333333336</ele><time>2026-04-04T11:14:21.005Z</time></trkpt><trkpt lat="41.0637567" lon="14.3262517"><ele>59.0</ele><time>2026-04-04T11:14:22.005Z</time></trkpt><trkpt lat="41.0636717" lon="14.3262433"><ele>59.00000000000001</ele><time>2026-04-04T11:14:23.005Z</time></trkpt><trkpt lat="41.0635883" lon="14.326235"><ele>59.0</ele><time>2026-04-04T11:14:24.006Z</time></trkpt><trkpt lat="41.0635067" lon="14.3262283"><ele>59.0</ele><time>2026-04-04T11:14:25.005Z</time></trkpt><trkpt lat="41.063425" lon="14.3262217"><ele>59.0</ele><time>2026-04-04T11:14:26.006Z</time></trkpt><trkpt lat="41.0633433" lon="14.3262167"><ele>59.00000000000001</ele><time>2026-04-04T11:14:27.005Z</time></trkpt><trkpt lat="41.0632633" lon="14.3262117"><ele>59.0</ele><time>2026-04-04T11:14:28.005Z</time></trkpt><trkpt lat="41.0631817" lon="14.3262067"><ele>59.00000000000001</ele><time>2026-04-04T11:14:29.005Z</time></trkpt><trkpt lat="41.0631" lon="14.3262033"><ele>59.0</ele><time>2026-04-04T11:14:30.006Z</time></trkpt><trkpt lat="41.063015" lon="14.3262"><ele>59.0</ele><time>2026-04-04T11:14:31.006Z</time></trkpt><trkpt lat="41.0629283" lon="14.3261983"><ele>59.0</ele><time>2026-04-04T11:14:32.006Z</time></trkpt><trkpt lat="41.0628467" lon="14.326195"><ele>59.00000000000001</ele><time>2026-04-04T11:14:33.005Z</time></trkpt><trkpt lat="41.06277" lon="14.3261883"><ele>59.0</ele><time>2026-04-04T11:14:34.006Z</time></trkpt><trkpt lat="41.0626933" lon="14.3261767"><ele>59.00000000000001</ele><time>2026-04-04T11:14:35.005Z</time></trkpt><trkpt lat="41.0626183" lon="14.326165"><ele>59.0</ele><time>2026-04-04T11:14:36.005Z</time></trkpt><trkpt lat="41.0625417" lon="14.3261567"><ele>59.0</ele><time>2026-04-04T11:14:37.005Z</time></trkpt><trkpt lat="41.0624633" lon="14.3261533"><ele>59.0</ele><time>2026-04-04T11:14:38.005Z</time></trkpt><trkpt lat="41.062385" lon="14.3261483"><ele>59.00000000000001</ele><time>2026-04-04T11:14:39.005Z</time></trkpt><trkpt lat="41.0623033" lon="14.3261417"><ele>59.0</ele><time>2026-04-04T11:14:40.005Z</time></trkpt><trkpt lat="41.062225" lon="14.326135"><ele>58.833333333333336</ele><time>2026-04-04T11:14:41.005Z</time></trkpt><trkpt lat="41.0621467" lon="14.3261333"><ele>58.66666666666667</ele><time>2026-04-04T11:14:42.005Z</time></trkpt><trkpt lat="41.0620683" lon="14.3261333"><ele>58.5</ele><time>2026-04-04T11:14:43.005Z</time></trkpt><trkpt lat="41.0619917" lon="14.3261333"><ele>58.33333333333333</ele><time>2026-04-04T11:14:44.006Z</time></trkpt><trkpt lat="41.0619167" lon="14.3261267"><ele>58.166666666666664</ele><time>2026-04-04T11:14:45.006Z</time></trkpt><trkpt lat="41.06184" lon="14.3261233"><ele>58.0</ele><time>2026-04-04T11:14:46.007Z</time></trkpt><trkpt lat="41.0617617" lon="14.3261167"><ele>57.99999999999999</ele><time>2026-04-04T11:14:47.005Z</time></trkpt><trkpt lat="41.0616833" lon="14.3261117"><ele>58.0</ele><time>2026-04-04T11:14:48.005Z</time></trkpt><trkpt lat="41.0616067" lon="14.3261067"><ele>58.0</ele><time>2026-04-04T11:14:49.005Z</time></trkpt><trkpt lat="41.0615317" lon="14.3261017"><ele>58.0</ele><time>2026-04-04T11:14:50.007Z</time></trkpt><trkpt lat="41.0614567" lon="14.3260933"><ele>57.99999999999999</ele><time>2026-04-04T11:14:51.006Z</time></trkpt><trkpt lat="41.06138" lon="14.3260867"><ele>58.0</ele><time>2026-04-04T11:14:52.005Z</time></trkpt><trkpt lat="41.0613" lon="14.326085"><ele>57.666666666666664</ele><time>2026-04-04T11:14:53.005Z</time></trkpt><trkpt lat="41.0612217" lon="14.3260817"><ele>57.33333333333333</ele><time>2026-04-04T11:14:54.006Z</time></trkpt><trkpt lat="41.0611483" lon="14.3260733"><ele>57.0</ele><time>2026-04-04T11:14:55.005Z</time></trkpt><trkpt lat="41.0610717" lon="14.3260683"><ele>56.66666666666667</ele><time>2026-04-04T11:14:56.006Z</time></trkpt><trkpt lat="41.0609933" lon="14.326065"><ele>56.333333333333336</ele><time>2026-04-04T11:14:57.005Z</time></trkpt><trkpt lat="41.0609133" lon="14.3260567"><ele>56.0</ele><time>2026-04-04T11:14:58.006Z</time></trkpt><trkpt lat="41.0608367" lon="14.326045"><ele>55.833333333333336</ele><time>2026-04-04T11:14:59.005Z</time></trkpt><trkpt lat="41.0607617" lon="14.3260367"><ele>55.66666666666667</ele><time>2026-04-04T11:15:00.005Z</time></trkpt><trkpt lat="41.0606783" lon="14.3260317"><ele>55.5</ele><time>2026-04-04T11:15:01.006Z</time></trkpt><trkpt lat="41.0605967" lon="14.3260317"><ele>55.33333333333333</ele><time>2026-04-04T11:15:02.006Z</time></trkpt><trkpt lat="41.060515" lon="14.32603"><ele>55.166666666666664</ele><time>2026-04-04T11:15:03.005Z</time></trkpt><trkpt lat="41.0604333" lon="14.3260233"><ele>55.0</ele><time>2026-04-04T11:15:04.006Z</time></trkpt><trkpt lat="41.0603517" lon="14.3260217"><ele>54.99999999999999</ele><time>2026-04-04T11:15:05.005Z</time></trkpt><trkpt lat="41.0602717" lon="14.3260167"><ele>55.0</ele><time>2026-04-04T11:15:06.008Z</time></trkpt><trkpt lat="41.0601917" lon="14.3260117"><ele>55.0</ele><time>2026-04-04T11:15:07.011Z</time></trkpt><trkpt lat="41.0601083" lon="14.3260067"><ele>55.0</ele><time>2026-04-04T11:15:08.006Z</time></trkpt><trkpt lat="41.0600233" lon="14.3260017"><ele>54.99999999999999</ele><time>2026-04-04T11:15:09.005Z</time></trkpt><trkpt lat="41.0599367" lon="14.325995"><ele>55.0</ele><time>2026-04-04T11:15:10.007Z</time></trkpt><trkpt lat="41.059855" lon="14.32598"><ele>54.99999999999999</ele><time>2026-04-04T11:15:11.006Z</time></trkpt><trkpt lat="41.059775" lon="14.3259717"><ele>55.0</ele><time>2026-04-04T11:15:12.006Z</time></trkpt><trkpt lat="41.0596933" lon="14.3259617"><ele>55.0</ele><time>2026-04-04T11:15:13.007Z</time></trkpt><trkpt lat="41.0596117" lon="14.32595"><ele>55.0</ele><time>2026-04-04T11:15:14.005Z</time></trkpt><trkpt lat="41.05953" lon="14.3259417"><ele>54.99999999999999</ele><time>2026-04-04T11:15:15.005Z</time></trkpt><trkpt lat="41.0594467" lon="14.3259367"><ele>55.0</ele><time>2026-04-04T11:15:16.005Z</time></trkpt><trkpt lat="41.059365" lon="14.32593"><ele>54.99999999999999</ele><time>2026-04-04T11:15:17.006Z</time></trkpt><trkpt lat="41.059285" lon="14.3259267"><ele>55.0</ele><time>2026-04-04T11:15:18.005Z</time></trkpt><trkpt lat="41.0592067" lon="14.325925"><ele>55.0</ele><time>2026-04-04T11:15:19.006Z</time></trkpt><trkpt lat="41.0591283" lon="14.325925"><ele>55.0</ele><time>2026-04-04T11:15:20.006Z</time></trkpt><trkpt lat="41.05905" lon="14.32592"><ele>54.99999999999999</ele><time>2026-04-04T11:15:21.007Z</time></trkpt><trkpt lat="41.0589717" lon="14.32591"><ele>55.0</ele><time>2026-04-04T11:15:22.006Z</time></trkpt><trkpt lat="41.058895" lon="14.3259017"><ele>54.83333333333333</ele><time>2026-04-04T11:15:23.006Z</time></trkpt><trkpt lat="41.05882" lon="14.3258917"><ele>54.666666666666664</ele><time>2026-04-04T11:15:24.007Z</time></trkpt><trkpt lat="41.0587433" lon="14.3258817"><ele>54.5</ele><time>2026-04-04T11:15:25.006Z</time></trkpt><trkpt lat="41.0586667" lon="14.325875"><ele>54.33333333333333</ele><time>2026-04-04T11:15:26.005Z</time></trkpt><trkpt lat="41.05859" lon="14.3258667"><ele>54.166666666666664</ele><time>2026-04-04T11:15:27.009Z</time></trkpt><trkpt lat="41.0585117" lon="14.32586"><ele>54.0</ele><time>2026-04-04T11:15:28.006Z</time></trkpt><trkpt lat="41.0584317" lon="14.3258483"><ele>54.0</ele><time>2026-04-04T11:15:29.007Z</time></trkpt><trkpt lat="41.0583533" lon="14.3258417"><ele>54.0</ele><time>2026-04-04T11:15:30.006Z</time></trkpt><trkpt lat="41.0582733" lon="14.3258367"><ele>54.0</ele><time>2026-04-04T11:15:31.005Z</time></trkpt><trkpt lat="41.05819" lon="14.32583"><ele>54.0</ele><time>2026-04-04T11:15:32.005Z</time></trkpt><trkpt lat="41.0581067" lon="14.3258267"><ele>54.0</ele><time>2026-04-04T11:15:33.006Z</time></trkpt><trkpt lat="41.0580217" lon="14.3258233"><ele>54.0</ele><time>2026-04-04T11:15:34.008Z</time></trkpt><trkpt lat="41.05794" lon="14.32582"><ele>54.0</ele><time>2026-04-04T11:15:35.005Z</time></trkpt><trkpt lat="41.0578617" lon="14.3258133"><ele>54.0</ele><time>2026-04-04T11:15:36.006Z</time></trkpt><trkpt lat="41.0577767" lon="14.3258083"><ele>54.0</ele><time>2026-04-04T11:15:37.005Z</time></trkpt><trkpt lat="41.0576933" lon="14.325805"><ele>54.0</ele><time>2026-04-04T11:15:38.007Z</time></trkpt><trkpt lat="41.05761" lon="14.3258017"><ele>54.0</ele><time>2026-04-04T11:15:39.006Z</time></trkpt><trkpt lat="41.05753" lon="14.3258"><ele>54.0</ele><time>2026-04-04T11:15:40.005Z</time></trkpt><trkpt lat="41.0574517" lon="14.325795"><ele>54.0</ele><time>2026-04-04T11:15:41.006Z</time></trkpt><trkpt lat="41.0573767" lon="14.3257917"><ele>54.0</ele><time>2026-04-04T11:15:42.006Z</time></trkpt><trkpt lat="41.0573017" lon="14.3257883"><ele>54.0</ele><time>2026-04-04T11:15:43.008Z</time></trkpt><trkpt lat="41.0572267" lon="14.325785"><ele>54.0</ele><time>2026-04-04T11:15:44.006Z</time></trkpt><trkpt lat="41.05715" lon="14.32578"><ele>54.0</ele><time>2026-04-04T11:15:45.005Z</time></trkpt><trkpt lat="41.057075" lon="14.3257733"><ele>54.0</ele><time>2026-04-04T11:15:46.006Z</time></trkpt><trkpt lat="41.057005" lon="14.3257583"><ele>54.0</ele><time>2026-04-04T11:15:47.006Z</time></trkpt><trkpt lat="41.056905" lon="14.3256917"><ele>54.0</ele><time>2026-04-04T11:15:49.006Z</time></trkpt><trkpt lat="41.0568567" lon="14.32563"><ele>54.0</ele><time>2026-04-04T11:15:51.005Z</time></trkpt><trkpt lat="41.0568" lon="14.3255883"><ele>54.0</ele><time>2026-04-04T11:15:54.007Z</time></trkpt><trkpt lat="41.0567283" lon="14.3256067"><ele>54.0</ele><time>2026-04-04T11:16:07.005Z</time></trkpt><trkpt lat="41.0566567" lon="14.32567"><ele>54.0</ele><time>2026-04-04T11:16:10.006Z</time></trkpt><trkpt lat="41.0565917" lon="14.3257083"><ele>54.0</ele><time>2026-04-04T11:16:12.006Z</time></trkpt><trkpt lat="41.0565017" lon="14.325725"><ele>53.800000000000004</ele><time>2026-04-04T11:16:14.006Z</time></trkpt><trkpt lat="41.0563967" lon="14.3257267"><ele>53.60000000000001</ele><time>2026-04-04T11:16:16.006Z</time></trkpt><trkpt lat="41.05628" lon="14.32571"><ele>53.4</ele><time>2026-04-04T11:16:18.006Z</time></trkpt><trkpt lat="41.0561533" lon="14.3256967"><ele>53.2</ele><time>2026-04-04T11:16:20.006Z</time></trkpt><trkpt lat="41.056085" lon="14.325695"><ele>53.0</ele><time>2026-04-04T11:16:21.005Z</time></trkpt><trkpt lat="41.0560067" lon="14.3256917"><ele>53.0</ele><time>2026-04-04T11:16:22.005Z</time></trkpt><trkpt lat="41.0559333" lon="14.3256883"><ele>53.0</ele><time>2026-04-04T11:16:23.006Z</time></trkpt><trkpt lat="41.055855" lon="14.325685"><ele>53.0</ele><time>2026-04-04T11:16:24.006Z</time></trkpt><trkpt lat="41.055785" lon="14.3256733"><ele>53.0</ele><time>2026-04-04T11:16:25.006Z</time></trkpt><trkpt lat="41.05571" lon="14.325665"><ele>53.0</ele><time>2026-04-04T11:16:26.006Z</time></trkpt><trkpt lat="41.0556367" lon="14.325655"><ele>53.0</ele><time>2026-04-04T11:16:27.006Z</time></trkpt><trkpt lat="41.055565" lon="14.32565"><ele>53.0</ele><time>2026-04-04T11:16:28.005Z</time></trkpt><trkpt lat="41.055495" lon="14.3256467"><ele>52.57142857142858</ele><time>2026-04-04T11:16:29.006Z</time></trkpt><trkpt lat="41.0554217" lon="14.3256417"><ele>52.14285714285714</ele><time>2026-04-04T11:16:30.006Z</time></trkpt><trkpt lat="41.0553483" lon="14.3256367"><ele>51.714285714285715</ele><time>2026-04-04T11:16:31.005Z</time></trkpt><trkpt lat="41.0552767" lon="14.3256317"><ele>51.28571428571429</ele><time>2026-04-04T11:16:32.006Z</time></trkpt><trkpt lat="41.0552017" lon="14.325625"><ele>50.85714285714286</ele><time>2026-04-04T11:16:33.006Z</time></trkpt><trkpt lat="41.0551233" lon="14.3256183"><ele>50.42857142857143</ele><time>2026-04-04T11:16:34.005Z</time></trkpt><trkpt lat="41.0550483" lon="14.3256117"><ele>50.0</ele><time>2026-04-04T11:16:35.006Z</time></trkpt><trkpt lat="41.0549717" lon="14.325605"><ele>50.50000000000001</ele><time>2026-04-04T11:16:36.009Z</time></trkpt><trkpt lat="41.054895" lon="14.3256017"><ele>51.0</ele><time>2026-04-04T11:16:37.007Z</time></trkpt><trkpt lat="41.05482" lon="14.3255967"><ele>51.5</ele><time>2026-04-04T11:16:38.006Z</time></trkpt><trkpt lat="41.0547433" lon="14.3255933"><ele>52.0</ele><time>2026-04-04T11:16:39.006Z</time></trkpt><trkpt lat="41.05467" lon="14.3255917"><ele>52.50000000000001</ele><time>2026-04-04T11:16:40.006Z</time></trkpt><trkpt lat="41.054595" lon="14.3255867"><ele>53.0</ele><time>2026-04-04T11:16:41.006Z</time></trkpt><trkpt lat="41.0545167" lon="14.3255783"><ele>53.00000000000001</ele><time>2026-04-04T11:16:42.007Z</time></trkpt><trkpt lat="41.05444" lon="14.3255667"><ele>53.0</ele><time>2026-04-04T11:16:43.008Z</time></trkpt><trkpt lat="41.0543617" lon="14.3255533"><ele>53.0</ele><time>2026-04-04T11:16:44.007Z</time></trkpt><trkpt lat="41.05428" lon="14.3255417"><ele>53.0</ele><time>2026-04-04T11:16:45.006Z</time></trkpt><trkpt lat="41.0541983" lon="14.3255333"><ele>53.00000000000001</ele><time>2026-04-04T11:16:46.006Z</time></trkpt><trkpt lat="41.05412" lon="14.3255233"><ele>53.0</ele><time>2026-04-04T11:16:47.007Z</time></trkpt><trkpt lat="41.0540367" lon="14.3255167"><ele>53.00000000000001</ele><time>2026-04-04T11:16:48.006Z</time></trkpt><trkpt lat="41.0539567" lon="14.3255117"><ele>53.0</ele><time>2026-04-04T11:16:49.007Z</time></trkpt><trkpt lat="41.0538717" lon="14.325505"><ele>53.0</ele><time>2026-04-04T11:16:50.007Z</time></trkpt><trkpt lat="41.0537933" lon="14.32549"><ele>53.0</ele><time>2026-04-04T11:16:51.006Z</time></trkpt><trkpt lat="41.0537117" lon="14.3254817"><ele>53.00000000000001</ele><time>2026-04-04T11:16:52.006Z</time></trkpt><trkpt lat="41.0536317" lon="14.325475"><ele>53.0</ele><time>2026-04-04T11:16:53.006Z</time></trkpt><trkpt lat="41.0535533" lon="14.3254717"><ele>53.00000000000001</ele><time>2026-04-04T11:16:54.006Z</time></trkpt><trkpt lat="41.0534733" lon="14.3254683"><ele>53.0</ele><time>2026-04-04T11:16:55.006Z</time></trkpt><trkpt lat="41.0533917" lon="14.32546"><ele>53.0</ele><time>2026-04-04T11:16:56.006Z</time></trkpt><trkpt lat="41.0533083" lon="14.3254533"><ele>53.0</ele><time>2026-04-04T11:16:57.007Z</time></trkpt><trkpt lat="41.0532283" lon="14.325445"><ele>53.00000000000001</ele><time>2026-04-04T11:16:58.006Z</time></trkpt><trkpt lat="41.0531483" lon="14.325435"><ele>53.0</ele><time>2026-04-04T11:16:59.006Z</time></trkpt><trkpt lat="41.05307" lon="14.3254283"><ele>53.00000000000001</ele><time>2026-04-04T11:17:00.009Z</time></trkpt><trkpt lat="41.0529917" lon="14.3254217"><ele>53.0</ele><time>2026-04-04T11:17:01.006Z</time></trkpt><trkpt lat="41.0529117" lon="14.3254183"><ele>53.0</ele><time>2026-04-04T11:17:02.006Z</time></trkpt><trkpt lat="41.0528317" lon="14.3254133"><ele>53.0</ele><time>2026-04-04T11:17:03.007Z</time></trkpt><trkpt lat="41.0527517" lon="14.325405"><ele>53.00000000000001</ele><time>2026-04-04T11:17:04.006Z</time></trkpt><trkpt lat="41.05267" lon="14.3253967"><ele>53.0</ele><time>2026-04-04T11:17:05.005Z</time></trkpt><trkpt lat="41.0525917" lon="14.3253883"><ele>53.00000000000001</ele><time>2026-04-04T11:17:06.006Z</time></trkpt><trkpt lat="41.05251" lon="14.3253817"><ele>53.0</ele><time>2026-04-04T11:17:07.007Z</time></trkpt><trkpt lat="41.0524283" lon="14.325375"><ele>53.0</ele><time>2026-04-04T11:17:08.006Z</time></trkpt><trkpt lat="41.0523483" lon="14.3253683"><ele>53.0</ele><time>2026-04-04T11:17:09.007Z</time></trkpt><trkpt lat="41.05227" lon="14.3253633"><ele>53.00000000000001</ele><time>2026-04-04T11:17:10.005Z</time></trkpt><trkpt lat="41.0521983" lon="14.325355"><ele>53.0</ele><time>2026-04-04T11:17:11.006Z</time></trkpt><trkpt lat="41.052125" lon="14.3253483"><ele>52.714285714285715</ele><time>2026-04-04T11:17:12.007Z</time></trkpt><trkpt lat="41.052055" lon="14.3253417"><ele>52.42857142857142</ele><time>2026-04-04T11:17:13.006Z</time></trkpt><trkpt lat="41.0519817" lon="14.32534"><ele>52.14285714285714</ele><time>2026-04-04T11:17:14.006Z</time></trkpt><trkpt lat="41.05191" lon="14.3253383"><ele>51.85714285714286</ele><time>2026-04-04T11:17:15.006Z</time></trkpt><trkpt lat="41.0518367" lon="14.3253367"><ele>51.57142857142857</ele><time>2026-04-04T11:17:16.006Z</time></trkpt><trkpt lat="41.05176" lon="14.3253283"><ele>51.285714285714285</ele><time>2026-04-04T11:17:17.007Z</time></trkpt><trkpt lat="41.05168" lon="14.325325"><ele>51.0</ele><time>2026-04-04T11:17:18.007Z</time></trkpt><trkpt lat="41.0516017" lon="14.3253183"><ele>51.0</ele><time>2026-04-04T11:17:19.005Z</time></trkpt><trkpt lat="41.0515233" lon="14.3253117"><ele>51.0</ele><time>2026-04-04T11:17:20.006Z</time></trkpt><trkpt lat="41.0514417" lon="14.3253083"><ele>51.0</ele><time>2026-04-04T11:17:21.006Z</time></trkpt><trkpt lat="41.05136" lon="14.3253067"><ele>51.0</ele><time>2026-04-04T11:17:22.005Z</time></trkpt><trkpt lat="41.05128" lon="14.32531"><ele>51.0</ele><time>2026-04-04T11:17:23.006Z</time></trkpt><trkpt lat="41.0512" lon="14.32531"><ele>51.0</ele><time>2026-04-04T11:17:24.007Z</time></trkpt><trkpt lat="41.0511233" lon="14.3253083"><ele>51.0</ele><time>2026-04-04T11:17:25.007Z</time></trkpt><trkpt lat="41.0510467" lon="14.3253067"><ele>51.0</ele><time>2026-04-04T11:17:26.006Z</time></trkpt><trkpt lat="41.050965" lon="14.32531"><ele>51.0</ele><time>2026-04-04T11:17:27.006Z</time></trkpt><trkpt lat="41.05089" lon="14.3253033"><ele>51.0</ele><time>2026-04-04T11:17:28.007Z</time></trkpt><trkpt lat="41.05081" lon="14.3252933"><ele>51.0</ele><time>2026-04-04T11:17:29.006Z</time></trkpt><trkpt lat="41.0507317" lon="14.3252833"><ele>51.0</ele><time>2026-04-04T11:17:30.006Z</time></trkpt><trkpt lat="41.0506567" lon="14.3252683"><ele>51.166666666666664</ele><time>2026-04-04T11:17:31.006Z</time></trkpt><trkpt lat="41.050575" lon="14.3252583"><ele>51.33333333333333</ele><time>2026-04-04T11:17:32.006Z</time></trkpt><trkpt lat="41.0504967" lon="14.3252433"><ele>51.5</ele><time>2026-04-04T11:17:33.007Z</time></trkpt><trkpt lat="41.0504167" lon="14.3252417"><ele>51.666666666666664</ele><time>2026-04-04T11:17:34.006Z</time></trkpt><trkpt lat="41.0503367" lon="14.32524"><ele>51.83333333333333</ele><time>2026-04-04T11:17:35.006Z</time></trkpt><trkpt lat="41.05026" lon="14.325235"><ele>52.0</ele><time>2026-04-04T11:17:36.007Z</time></trkpt><trkpt lat="41.0501883" lon="14.3252283"><ele>51.99999999999999</ele><time>2026-04-04T11:17:37.007Z</time></trkpt><trkpt lat="41.050085" lon="14.3252183"><ele>52.0</ele><time>2026-04-04T11:17:39.007Z</time></trkpt><trkpt lat="41.0500217" lon="14.3252133"><ele>52.0</ele><time>2026-04-04T11:17:41.006Z</time></trkpt><trkpt lat="41.04995" lon="14.325195"><ele>52.0</ele><time>2026-04-04T11:17:43.006Z</time></trkpt><trkpt lat="41.04986" lon="14.3251917"><ele>51.99999999999999</ele><time>2026-04-04T11:17:45.006Z</time></trkpt><trkpt lat="41.0497633" lon="14.325185"><ele>52.0</ele><time>2026-04-04T11:17:47.006Z</time></trkpt><trkpt lat="41.0496533" lon="14.3251767"><ele>51.8</ele><time>2026-04-04T11:17:49.007Z</time></trkpt><trkpt lat="41.04954" lon="14.3251667"><ele>51.6</ele><time>2026-04-04T11:17:51.007Z</time></trkpt><trkpt lat="41.049425" lon="14.3251567"><ele>51.4</ele><time>2026-04-04T11:17:53.006Z</time></trkpt><trkpt lat="41.0493017" lon="14.3251483"><ele>51.199999999999996</ele><time>2026-04-04T11:17:55.006Z</time></trkpt><trkpt lat="41.0492367" lon="14.32514"><ele>51.0</ele><time>2026-04-04T11:17:56.006Z</time></trkpt><trkpt lat="41.0491683" lon="14.325135"><ele>50.833333333333336</ele><time>2026-04-04T11:17:57.007Z</time></trkpt><trkpt lat="41.0490983" lon="14.32513"><ele>50.66666666666667</ele><time>2026-04-04T11:17:58.009Z</time></trkpt><trkpt lat="41.049025" lon="14.3251233"><ele>50.5</ele><time>2026-04-04T11:17:59.006Z</time></trkpt><trkpt lat="41.04895" lon="14.3251183"><ele>50.333333333333336</ele><time>2026-04-04T11:18:00.01Z</time></trkpt><trkpt lat="41.0488717" lon="14.325115"><ele>50.16666666666667</ele><time>2026-04-04T11:18:01.006Z</time></trkpt><trkpt lat="41.04879" lon="14.325115"><ele>50.0</ele><time>2026-04-04T11:18:02.007Z</time></trkpt><trkpt lat="41.04871" lon="14.3251117"><ele>50.00000000000001</ele><time>2026-04-04T11:18:03.007Z</time></trkpt><trkpt lat="41.0486283" lon="14.3251083"><ele>50.0</ele><time>2026-04-04T11:18:04.006Z</time></trkpt><trkpt lat="41.0485483" lon="14.3251"><ele>50.0</ele><time>2026-04-04T11:18:05.006Z</time></trkpt><trkpt lat="41.0484667" lon="14.3250967"><ele>50.0</ele><time>2026-04-04T11:18:06.007Z</time></trkpt><trkpt lat="41.0483883" lon="14.325095"><ele>50.00000000000001</ele><time>2026-04-04T11:18:07.007Z</time></trkpt><trkpt lat="41.0483067" lon="14.32509"><ele>50.0</ele><time>2026-04-04T11:18:08.006Z</time></trkpt><trkpt lat="41.0482283" lon="14.3250833"><ele>49.66666666666667</ele><time>2026-04-04T11:18:09.007Z</time></trkpt><trkpt lat="41.04815" lon="14.3250717"><ele>49.333333333333336</ele><time>2026-04-04T11:18:10.007Z</time></trkpt><trkpt lat="41.048065" lon="14.3250617"><ele>49.0</ele><time>2026-04-04T11:18:11.007Z</time></trkpt><trkpt lat="41.04798" lon="14.3250617"><ele>48.66666666666667</ele><time>2026-04-04T11:18:12.006Z</time></trkpt><trkpt lat="41.0478983" lon="14.3250583"><ele>48.333333333333336</ele><time>2026-04-04T11:18:13.006Z</time></trkpt><trkpt lat="41.0478133" lon="14.3250433"><ele>48.0</ele><time>2026-04-04T11:18:14.007Z</time></trkpt><trkpt lat="41.04773" lon="14.3250367"><ele>48.0</ele><time>2026-04-04T11:18:15.006Z</time></trkpt><trkpt lat="41.047645" lon="14.3250267"><ele>48.0</ele><time>2026-04-04T11:18:16.006Z</time></trkpt><trkpt lat="41.0475583" lon="14.3250233"><ele>48.0</ele><time>2026-04-04T11:18:17.007Z</time></trkpt><trkpt lat="41.0474667" lon="14.3250133"><ele>48.0</ele><time>2026-04-04T11:18:18.006Z</time></trkpt><trkpt lat="41.0473817" lon="14.325005"><ele>48.0</ele><time>2026-04-04T11:18:19.006Z</time></trkpt><trkpt lat="41.047295" lon="14.3249983"><ele>48.0</ele><time>2026-04-04T11:18:20.006Z</time></trkpt><trkpt lat="41.04721" lon="14.3249933"><ele>48.166666666666664</ele><time>2026-04-04T11:18:21.006Z</time></trkpt><trkpt lat="41.0471217" lon="14.32499"><ele>48.33333333333333</ele><time>2026-04-04T11:18:22.006Z</time></trkpt><trkpt lat="41.047035" lon="14.324985"><ele>48.5</ele><time>2026-04-04T11:18:23.006Z</time></trkpt><trkpt lat="41.0469467" lon="14.32498"><ele>48.666666666666664</ele><time>2026-04-04T11:18:24.006Z</time></trkpt><trkpt lat="41.046855" lon="14.3249733"><ele>48.83333333333333</ele><time>2026-04-04T11:18:25.006Z</time></trkpt><trkpt lat="41.0467617" lon="14.324965"><ele>49.0</ele><time>2026-04-04T11:18:26.006Z</time></trkpt><trkpt lat="41.0466667" lon="14.3249567"><ele>48.49999999999999</ele><time>2026-04-04T11:18:27.008Z</time></trkpt><trkpt lat="41.04658" lon="14.32495"><ele>48.0</ele><time>2026-04-04T11:18:28.006Z</time></trkpt><trkpt lat="41.0464933" lon="14.3249383"><ele>47.5</ele><time>2026-04-04T11:18:29.007Z</time></trkpt><trkpt lat="41.046405" lon="14.324925"><ele>47.0</ele><time>2026-04-04T11:18:30.007Z</time></trkpt><trkpt lat="41.0463167" lon="14.3249183"><ele>46.5</ele><time>2026-04-04T11:18:31.007Z</time></trkpt><trkpt lat="41.0462317" lon="14.3249133"><ele>46.0</ele><time>2026-04-04T11:18:32.006Z</time></trkpt><trkpt lat="41.046145" lon="14.3249133"><ele>46.0</ele><time>2026-04-04T11:18:33.006Z</time></trkpt><trkpt lat="41.0460583" lon="14.3249133"><ele>46.0</ele><time>2026-04-04T11:18:34.006Z</time></trkpt><trkpt lat="41.045975" lon="14.32491"><ele>46.0</ele><time>2026-04-04T11:18:35.006Z</time></trkpt><trkpt lat="41.0458933" lon="14.3249067"><ele>46.0</ele><time>2026-04-04T11:18:36.006Z</time></trkpt><trkpt lat="41.04581" lon="14.3249017"><ele>46.0</ele><time>2026-04-04T11:18:37.006Z</time></trkpt><trkpt lat="41.0457233" lon="14.3248967"><ele>46.0</ele><time>2026-04-04T11:18:38.006Z</time></trkpt><trkpt lat="41.0456367" lon="14.3248917"><ele>45.833333333333336</ele><time>2026-04-04T11:18:39.006Z</time></trkpt><trkpt lat="41.0455533" lon="14.3248833"><ele>45.66666666666667</ele><time>2026-04-04T11:18:40.004Z</time></trkpt><trkpt lat="41.045465" lon="14.324875"><ele>45.5</ele><time>2026-04-04T11:18:41.007Z</time></trkpt><trkpt lat="41.0453733" lon="14.3248617"><ele>45.333333333333336</ele><time>2026-04-04T11:18:42.005Z</time></trkpt><trkpt lat="41.045285" lon="14.3248517"><ele>45.166666666666664</ele><time>2026-04-04T11:18:43.005Z</time></trkpt><trkpt lat="41.0451933" lon="14.324845"><ele>45.0</ele><time>2026-04-04T11:18:44.005Z</time></trkpt><trkpt lat="41.0450983" lon="14.3248383"><ele>45.0</ele><time>2026-04-04T11:18:45.006Z</time></trkpt><trkpt lat="41.045005" lon="14.324825"><ele>45.0</ele><time>2026-04-04T11:18:46.005Z</time></trkpt><trkpt lat="41.04491" lon="14.3248117"><ele>45.0</ele><time>2026-04-04T11:18:47.006Z</time></trkpt><trkpt lat="41.044815" lon="14.3247983"><ele>45.0</ele><time>2026-04-04T11:18:48.007Z</time></trkpt><trkpt lat="41.0447233" lon="14.3247883"><ele>45.0</ele><time>2026-04-04T11:18:49.006Z</time></trkpt><trkpt lat="41.0446333" lon="14.324775"><ele>44.6</ele><time>2026-04-04T11:18:50.006Z</time></trkpt><trkpt lat="41.04454" lon="14.3247633"><ele>44.2</ele><time>2026-04-04T11:18:51.005Z</time></trkpt><trkpt lat="41.044445" lon="14.3247533"><ele>43.8</ele><time>2026-04-04T11:18:52.007Z</time></trkpt><trkpt lat="41.04435" lon="14.3247467"><ele>43.4</ele><time>2026-04-04T11:18:53.006Z</time></trkpt><trkpt lat="41.0442567" lon="14.32474"><ele>43.0</ele><time>2026-04-04T11:18:54.005Z</time></trkpt><trkpt lat="41.044165" lon="14.3247367"><ele>42.833333333333336</ele><time>2026-04-04T11:18:55.005Z</time></trkpt><trkpt lat="41.044075" lon="14.3247317"><ele>42.66666666666667</ele><time>2026-04-04T11:18:56.006Z</time></trkpt><trkpt lat="41.0439867" lon="14.324735"><ele>42.5</ele><time>2026-04-04T11:18:57.006Z</time></trkpt><trkpt lat="41.0438983" lon="14.32474"><ele>42.333333333333336</ele><time>2026-04-04T11:18:58.005Z</time></trkpt><trkpt lat="41.0438183" lon="14.3247417"><ele>42.166666666666664</ele><time>2026-04-04T11:18:59.006Z</time></trkpt><trkpt lat="41.0437433" lon="14.3247283"><ele>42.0</ele><time>2026-04-04T11:19:00.006Z</time></trkpt><trkpt lat="41.0436767" lon="14.3247083"><ele>42.0</ele><time>2026-04-04T11:19:01.005Z</time></trkpt><trkpt lat="41.0436133" lon="14.32469"><ele>42.0</ele><time>2026-04-04T11:19:02.006Z</time></trkpt><trkpt lat="41.0435" lon="14.3246833"><ele>42.0</ele><time>2026-04-04T11:19:04.006Z</time></trkpt><trkpt lat="41.04338" lon="14.3246967"><ele>42.0</ele><time>2026-04-04T11:19:06.007Z</time></trkpt><trkpt lat="41.043315" lon="14.3247083"><ele>42.0</ele><time>2026-04-04T11:19:07.005Z</time></trkpt><trkpt lat="41.0432467" lon="14.324715"><ele>42.0</ele><time>2026-04-04T11:19:08.006Z</time></trkpt><trkpt lat="41.04317" lon="14.3247083"><ele>41.833333333333336</ele><time>2026-04-04T11:19:09.006Z</time></trkpt><trkpt lat="41.0430917" lon="14.3246917"><ele>41.666666666666664</ele><time>2026-04-04T11:19:10.005Z</time></trkpt><trkpt lat="41.0430133" lon="14.3246783"><ele>41.5</ele><time>2026-04-04T11:19:11.006Z</time></trkpt><trkpt lat="41.0429267" lon="14.32467"><ele>41.33333333333333</ele><time>2026-04-04T11:19:12.005Z</time></trkpt><trkpt lat="41.0428417" lon="14.32467"><ele>41.166666666666664</ele><time>2026-04-04T11:19:13.008Z</time></trkpt><trkpt lat="41.042755" lon="14.3246667"><ele>41.0</ele><time>2026-04-04T11:19:14.006Z</time></trkpt><trkpt lat="41.0426667" lon="14.324665"><ele>41.0</ele><time>2026-04-04T11:19:15.005Z</time></trkpt><trkpt lat="41.04258" lon="14.3246633"><ele>41.0</ele><time>2026-04-04T11:19:16.005Z</time></trkpt><trkpt lat="41.0424917" lon="14.3246617"><ele>41.0</ele><time>2026-04-04T11:19:17.007Z</time></trkpt><trkpt lat="41.0424033" lon="14.3246583"><ele>41.0</ele><time>2026-04-04T11:19:18.006Z</time></trkpt><trkpt lat="41.042315" lon="14.3246567"><ele>41.0</ele><time>2026-04-04T11:19:19.005Z</time></trkpt><trkpt lat="41.0422283" lon="14.3246533"><ele>41.0</ele><time>2026-04-04T11:19:20.008Z</time></trkpt><trkpt lat="41.04214" lon="14.3246517"><ele>41.4</ele><time>2026-04-04T11:19:21.005Z</time></trkpt><trkpt lat="41.042055" lon="14.3246483"><ele>41.8</ele><time>2026-04-04T11:19:22.005Z</time></trkpt><trkpt lat="41.0419633" lon="14.3246533"><ele>42.199999999999996</ele><time>2026-04-04T11:19:23.006Z</time></trkpt><trkpt lat="41.04187" lon="14.3246583"><ele>42.599999999999994</ele><time>2026-04-04T11:19:24.006Z</time></trkpt><trkpt lat="41.0417783" lon="14.3246617"><ele>43.0</ele><time>2026-04-04T11:19:25.006Z</time></trkpt><trkpt lat="41.0416883" lon="14.3246667"><ele>42.333333333333336</ele><time>2026-04-04T11:19:26.005Z</time></trkpt><trkpt lat="41.0415967" lon="14.3246733"><ele>41.66666666666667</ele><time>2026-04-04T11:19:27.006Z</time></trkpt><trkpt lat="41.0415067" lon="14.3246717"><ele>41.0</ele><time>2026-04-04T11:19:28.005Z</time></trkpt><trkpt lat="41.04142" lon="14.3246717"><ele>40.333333333333336</ele><time>2026-04-04T11:19:29.006Z</time></trkpt><trkpt lat="41.04133" lon="14.3246783"><ele>39.666666666666664</ele><time>2026-04-04T11:19:30.006Z</time></trkpt><trkpt lat="41.0412417" lon="14.3246883"><ele>39.0</ele><time>2026-04-04T11:19:31.005Z</time></trkpt><trkpt lat="41.0411533" lon="14.32469"><ele>39.0</ele><time>2026-04-04T11:19:32.006Z</time></trkpt><trkpt lat="41.041065" lon="14.3246833"><ele>39.0</ele><time>2026-04-04T11:19:33.005Z</time></trkpt><trkpt lat="41.0409783" lon="14.32468"><ele>39.0</ele><time>2026-04-04T11:19:34.005Z</time></trkpt><trkpt lat="41.0408883" lon="14.3246817"><ele>39.0</ele><time>2026-04-04T11:19:35.005Z</time></trkpt><trkpt lat="41.0407983" lon="14.3246817"><ele>39.0</ele><time>2026-04-04T11:19:36.006Z</time></trkpt><trkpt lat="41.0407083" lon="14.324685"><ele>39.0</ele><time>2026-04-04T11:19:37.005Z</time></trkpt><trkpt lat="41.04062" lon="14.324695"><ele>39.166666666666664</ele><time>2026-04-04T11:19:38.006Z</time></trkpt><trkpt lat="41.04053" lon="14.3247033"><ele>39.333333333333336</ele><time>2026-04-04T11:19:39.005Z</time></trkpt><trkpt lat="41.0404433" lon="14.3247"><ele>39.5</ele><time>2026-04-04T11:19:40.007Z</time></trkpt><trkpt lat="41.0403533" lon="14.3246983"><ele>39.66666666666667</ele><time>2026-04-04T11:19:41.005Z</time></trkpt><trkpt lat="41.0402617" lon="14.324695"><ele>39.833333333333336</ele><time>2026-04-04T11:19:42.006Z</time></trkpt><trkpt lat="41.0401717" lon="14.324695"><ele>40.0</ele><time>2026-04-04T11:19:43.006Z</time></trkpt><trkpt lat="41.0400817" lon="14.3246917"><ele>40.0</ele><time>2026-04-04T11:19:44.005Z</time></trkpt><trkpt lat="41.0399933" lon="14.3246817"><ele>40.0</ele><time>2026-04-04T11:19:45.006Z</time></trkpt><trkpt lat="41.0398983" lon="14.3246767"><ele>40.0</ele><time>2026-04-04T11:19:46.005Z</time></trkpt><trkpt lat="41.0398067" lon="14.324675"><ele>40.0</ele><time>2026-04-04T11:19:47.006Z</time></trkpt><trkpt lat="41.03972" lon="14.324675"><ele>40.0</ele><time>2026-04-04T11:19:48.005Z</time></trkpt><trkpt lat="41.0396283" lon="14.3246767"><ele>39.833333333333336</ele><time>2026-04-04T11:19:49.005Z</time></trkpt><trkpt lat="41.0395417" lon="14.3246767"><ele>39.66666666666667</ele><time>2026-04-04T11:19:50.005Z</time></trkpt><trkpt lat="41.039455" lon="14.3246767"><ele>39.5</ele><time>2026-04-04T11:19:51.006Z</time></trkpt><trkpt lat="41.0393667" lon="14.324675"><ele>39.333333333333336</ele><time>2026-04-04T11:19:52.005Z</time></trkpt><trkpt lat="41.0392783" lon="14.324675"><ele>39.166666666666664</ele><time>2026-04-04T11:19:53.005Z</time></trkpt><trkpt lat="41.0391917" lon="14.3246767"><ele>39.0</ele><time>2026-04-04T11:19:54.007Z</time></trkpt><trkpt lat="41.039105" lon="14.3246717"><ele>38.8</ele><time>2026-04-04T11:19:55.006Z</time></trkpt><trkpt lat="41.0390167" lon="14.3246783"><ele>38.599999999999994</ele><time>2026-04-04T11:19:56.011Z</time></trkpt><trkpt lat="41.0389233" lon="14.3246817"><ele>38.4</ele><time>2026-04-04T11:19:57.006Z</time></trkpt><trkpt lat="41.03883" lon="14.324685"><ele>38.199999999999996</ele><time>2026-04-04T11:19:58.005Z</time></trkpt><trkpt lat="41.0387383" lon="14.3246883"><ele>38.0</ele><time>2026-04-04T11:19:59.007Z</time></trkpt><trkpt lat="41.0386467" lon="14.3246917"><ele>38.0</ele><time>2026-04-04T11:20:00.008Z</time></trkpt><trkpt lat="41.0385567" lon="14.32469"><ele>38.0</ele><time>2026-04-04T11:20:01.006Z</time></trkpt><trkpt lat="41.038465" lon="14.32469"><ele>38.0</ele><time>2026-04-04T11:20:02.006Z</time></trkpt><trkpt lat="41.03837" lon="14.3246917"><ele>38.0</ele><time>2026-04-04T11:20:03.006Z</time></trkpt><trkpt lat="41.0382817" lon="14.3246933"><ele>38.0</ele><time>2026-04-04T11:20:04.005Z</time></trkpt><trkpt lat="41.0381933" lon="14.324695"><ele>38.199999999999996</ele><time>2026-04-04T11:20:05.006Z</time></trkpt><trkpt lat="41.038105" lon="14.3246983"><ele>38.4</ele><time>2026-04-04T11:20:06.008Z</time></trkpt><trkpt lat="41.038015" lon="14.3247017"><ele>38.599999999999994</ele><time>2026-04-04T11:20:07.006Z</time></trkpt><trkpt lat="41.0379233" lon="14.324705"><ele>38.8</ele><time>2026-04-04T11:20:08.005Z</time></trkpt><trkpt lat="41.0378317" lon="14.3247067"><ele>39.0</ele><time>2026-04-04T11:20:09.005Z</time></trkpt><trkpt lat="41.03774" lon="14.3247083"><ele>39.0</ele><time>2026-04-04T11:20:10.005Z</time></trkpt><trkpt lat="41.0376467" lon="14.32471"><ele>39.0</ele><time>2026-04-04T11:20:11.006Z</time></trkpt><trkpt lat="41.0375567" lon="14.3247083"><ele>39.0</ele><time>2026-04-04T11:20:12.007Z</time></trkpt><trkpt lat="41.0374683" lon="14.3247083"><ele>39.0</ele><time>2026-04-04T11:20:13.006Z</time></trkpt><trkpt lat="41.0373767" lon="14.32471"><ele>39.0</ele><time>2026-04-04T11:20:14.006Z</time></trkpt><trkpt lat="41.0372817" lon="14.3247133"><ele>39.2</ele><time>2026-04-04T11:20:15.006Z</time></trkpt><trkpt lat="41.03719" lon="14.3247067"><ele>39.4</ele><time>2026-04-04T11:20:16.006Z</time></trkpt><trkpt lat="41.0370967" lon="14.3246983"><ele>39.6</ele><time>2026-04-04T11:20:17.007Z</time></trkpt><trkpt lat="41.0370033" lon="14.3246883"><ele>39.8</ele><time>2026-04-04T11:20:18.008Z</time></trkpt><trkpt lat="41.0369083" lon="14.3246833"><ele>40.0</ele><time>2026-04-04T11:20:19.005Z</time></trkpt><trkpt lat="41.036815" lon="14.32468"><ele>40.0</ele><time>2026-04-04T11:20:20.007Z</time></trkpt><trkpt lat="41.0367217" lon="14.3246767"><ele>40.0</ele><time>2026-04-04T11:20:21.007Z</time></trkpt><trkpt lat="41.036625" lon="14.3246783"><ele>40.0</ele><time>2026-04-04T11:20:22.005Z</time></trkpt><trkpt lat="41.0365317" lon="14.3246767"><ele>40.0</ele><time>2026-04-04T11:20:23.007Z</time></trkpt><trkpt lat="41.0364483" lon="14.32468"><ele>40.0</ele><time>2026-04-04T11:20:24.005Z</time></trkpt><trkpt lat="41.0363683" lon="14.324685"><ele>40.0</ele><time>2026-04-04T11:20:25.005Z</time></trkpt><trkpt lat="41.0362867" lon="14.32469"><ele>39.4</ele><time>2026-04-04T11:20:26.005Z</time></trkpt><trkpt lat="41.0362017" lon="14.324695"><ele>38.8</ele><time>2026-04-04T11:20:27.007Z</time></trkpt><trkpt lat="41.0360917" lon="14.324695"><ele>38.2</ele><time>2026-04-04T11:20:28.013Z</time></trkpt><trkpt lat="41.0359867" lon="14.3246917"><ele>37.6</ele><time>2026-04-04T11:20:29.011Z</time></trkpt><trkpt lat="41.0358817" lon="14.3246933"><ele>37.0</ele><time>2026-04-04T11:20:30.006Z</time></trkpt><trkpt lat="41.0357867" lon="14.3246933"><ele>36.6</ele><time>2026-04-04T11:20:31.007Z</time></trkpt><trkpt lat="41.0356867" lon="14.324695"><ele>36.2</ele><time>2026-04-04T11:20:32.007Z</time></trkpt><trkpt lat="41.0355883" lon="14.3247"><ele>35.8</ele><time>2026-04-04T11:20:33.005Z</time></trkpt><trkpt lat="41.03549" lon="14.32471"><ele>35.4</ele><time>2026-04-04T11:20:34.005Z</time></trkpt><trkpt lat="41.0353933" lon="14.3247083"><ele>35.0</ele><time>2026-04-04T11:20:35.007Z</time></trkpt><trkpt lat="41.0352917" lon="14.3247067"><ele>35.0</ele><time>2026-04-04T11:20:36.007Z</time></trkpt><trkpt lat="41.0351867" lon="14.324705"><ele>35.0</ele><time>2026-04-04T11:20:37.005Z</time></trkpt><trkpt lat="41.03509" lon="14.3247083"><ele>35.0</ele><time>2026-04-04T11:20:38.007Z</time></trkpt><trkpt lat="41.0349867" lon="14.3247117"><ele>35.0</ele><time>2026-04-04T11:20:39.005Z</time></trkpt><trkpt lat="41.0348767" lon="14.32471"><ele>35.0</ele><time>2026-04-04T11:20:40.005Z</time></trkpt><trkpt lat="41.0347683" lon="14.3247083"><ele>35.0</ele><time>2026-04-04T11:20:41.006Z</time></trkpt><trkpt lat="41.034665" lon="14.3247083"><ele>35.0</ele><time>2026-04-04T11:20:42.006Z</time></trkpt><trkpt lat="41.0345633" lon="14.3247083"><ele>35.0</ele><time>2026-04-04T11:20:43.006Z</time></trkpt><trkpt lat="41.0344533" lon="14.324705"><ele>35.0</ele><time>2026-04-04T11:20:44.006Z</time></trkpt><trkpt lat="41.0343483" lon="14.3247067"><ele>35.0</ele><time>2026-04-04T11:20:45.006Z</time></trkpt><trkpt lat="41.0342433" lon="14.3247017"><ele>35.0</ele><time>2026-04-04T11:20:46.006Z</time></trkpt><trkpt lat="41.03414" lon="14.3247"><ele>35.0</ele><time>2026-04-04T11:20:47.006Z</time></trkpt><trkpt lat="41.034035" lon="14.3247"><ele>35.0</ele><time>2026-04-04T11:20:48.007Z</time></trkpt><trkpt lat="41.0339267" lon="14.3247"><ele>35.0</ele><time>2026-04-04T11:20:49.008Z</time></trkpt><trkpt lat="41.0338167" lon="14.3246967"><ele>35.0</ele><time>2026-04-04T11:20:50.007Z</time></trkpt><trkpt lat="41.0337083" lon="14.3246983"><ele>34.8</ele><time>2026-04-04T11:20:51.005Z</time></trkpt><trkpt lat="41.0336033" lon="14.3247"><ele>34.6</ele><time>2026-04-04T11:20:52.007Z</time></trkpt><trkpt lat="41.0334967" lon="14.3247033"><ele>34.4</ele><time>2026-04-04T11:20:53.006Z</time></trkpt><trkpt lat="41.03339" lon="14.3247067"><ele>34.2</ele><time>2026-04-04T11:20:54.007Z</time></trkpt><trkpt lat="41.0332883" lon="14.3247117"><ele>34.0</ele><time>2026-04-04T11:20:55.006Z</time></trkpt><trkpt lat="41.0331833" lon="14.3247"><ele>34.0</ele><time>2026-04-04T11:20:56.007Z</time></trkpt><trkpt lat="41.0330817" lon="14.324695"><ele>34.0</ele><time>2026-04-04T11:20:57.006Z</time></trkpt><trkpt lat="41.0329783" lon="14.3246933"><ele>34.0</ele><time>2026-04-04T11:20:58.006Z</time></trkpt><trkpt lat="41.032875" lon="14.3246967"><ele>34.0</ele><time>2026-04-04T11:20:59.006Z</time></trkpt><trkpt lat="41.0327717" lon="14.3247017"><ele>34.0</ele><time>2026-04-04T11:21:00.007Z</time></trkpt><trkpt lat="41.0326667" lon="14.3247083"><ele>34.0</ele><time>2026-04-04T11:21:01.006Z</time></trkpt><trkpt lat="41.032565" lon="14.3247117"><ele>34.0</ele><time>2026-04-04T11:21:02.007Z</time></trkpt><trkpt lat="41.0324617" lon="14.3247133"><ele>34.0</ele><time>2026-04-04T11:21:03.007Z</time></trkpt><trkpt lat="41.03236" lon="14.3247167"><ele>34.0</ele><time>2026-04-04T11:21:04.006Z</time></trkpt><trkpt lat="41.0322567" lon="14.3247217"><ele>34.0</ele><time>2026-04-04T11:21:05.007Z</time></trkpt><trkpt lat="41.03215" lon="14.324725"><ele>33.6</ele><time>2026-04-04T11:21:06.006Z</time></trkpt><trkpt lat="41.0320433" lon="14.324725"><ele>33.2</ele><time>2026-04-04T11:21:07.006Z</time></trkpt><trkpt lat="41.0319367" lon="14.3247267"><ele>32.800000000000004</ele><time>2026-04-04T11:21:08.006Z</time></trkpt><trkpt lat="41.0318317" lon="14.3247283"><ele>32.4</ele><time>2026-04-04T11:21:09.006Z</time></trkpt><trkpt lat="41.0317267" lon="14.3247283"><ele>32.0</ele><time>2026-04-04T11:21:10.011Z</time></trkpt><trkpt lat="41.0316217" lon="14.3247317"><ele>32.0</ele><time>2026-04-04T11:21:11.005Z</time></trkpt><trkpt lat="41.0315133" lon="14.324735"><ele>32.0</ele><time>2026-04-04T11:21:12.006Z</time></trkpt><trkpt lat="41.0314083" lon="14.324735"><ele>32.0</ele><time>2026-04-04T11:21:13.006Z</time></trkpt><trkpt lat="41.0313017" lon="14.324735"><ele>32.0</ele><time>2026-04-04T11:21:14.007Z</time></trkpt><trkpt lat="41.0311967" lon="14.3247333"><ele>32.0</ele><time>2026-04-04T11:21:15.007Z</time></trkpt><trkpt lat="41.0310917" lon="14.324735"><ele>32.0</ele><time>2026-04-04T11:21:16.006Z</time></trkpt><trkpt lat="41.0309867" lon="14.3247383"><ele>32.0</ele><time>2026-04-04T11:21:17.006Z</time></trkpt><trkpt lat="41.0308833" lon="14.3247417"><ele>32.0</ele><time>2026-04-04T11:21:18.007Z</time></trkpt><trkpt lat="41.0307817" lon="14.32474"><ele>32.0</ele><time>2026-04-04T11:21:19.007Z</time></trkpt><trkpt lat="41.0306783" lon="14.3247383"><ele>32.0</ele><time>2026-04-04T11:21:20.006Z</time></trkpt><trkpt lat="41.030575" lon="14.3247333"><ele>31.8</ele><time>2026-04-04T11:21:21.006Z</time></trkpt><trkpt lat="41.0304733" lon="14.32473"><ele>31.6</ele><time>2026-04-04T11:21:22.006Z</time></trkpt><trkpt lat="41.03037" lon="14.3247283"><ele>31.400000000000002</ele><time>2026-04-04T11:21:23.008Z</time></trkpt><trkpt lat="41.030265" lon="14.32473"><ele>31.200000000000003</ele><time>2026-04-04T11:21:24.008Z</time></trkpt><trkpt lat="41.0301633" lon="14.3247333"><ele>31.0</ele><time>2026-04-04T11:21:25.007Z</time></trkpt><trkpt lat="41.03006" lon="14.3247317"><ele>31.200000000000003</ele><time>2026-04-04T11:21:26.009Z</time></trkpt><trkpt lat="41.0299583" lon="14.3247333"><ele>31.400000000000002</ele><time>2026-04-04T11:21:27.007Z</time></trkpt><trkpt lat="41.0298567" lon="14.3247317"><ele>31.6</ele><time>2026-04-04T11:21:28.006Z</time></trkpt><trkpt lat="41.0297533" lon="14.3247333"><ele>31.8</ele><time>2026-04-04T11:21:29.006Z</time></trkpt><trkpt lat="41.0296483" lon="14.32474"><ele>32.0</ele><time>2026-04-04T11:21:30.006Z</time></trkpt><trkpt lat="41.0295433" lon="14.32475"><ele>32.0</ele><time>2026-04-04T11:21:31.009Z</time></trkpt><trkpt lat="41.0294417" lon="14.324755"><ele>32.0</ele><time>2026-04-04T11:21:32.007Z</time></trkpt><trkpt lat="41.0293417" lon="14.3247533"><ele>32.0</ele><time>2026-04-04T11:21:33.007Z</time></trkpt><trkpt lat="41.0292383" lon="14.32475"><ele>32.0</ele><time>2026-04-04T11:21:34.006Z</time></trkpt><trkpt lat="41.0291383" lon="14.32475"><ele>32.0</ele><time>2026-04-04T11:21:35.007Z</time></trkpt><trkpt lat="41.0290383" lon="14.324755"><ele>32.0</ele><time>2026-04-04T11:21:36.005Z</time></trkpt><trkpt lat="41.0289383" lon="14.32476"><ele>32.0</ele><time>2026-04-04T11:21:37.007Z</time></trkpt><trkpt lat="41.0288367" lon="14.3247667"><ele>32.0</ele><time>2026-04-04T11:21:38.007Z</time></trkpt><trkpt lat="41.02874" lon="14.3247733"><ele>32.0</ele><time>2026-04-04T11:21:39.006Z</time></trkpt><trkpt lat="41.0286433" lon="14.3247733"><ele>32.0</ele><time>2026-04-04T11:21:40.006Z</time></trkpt><trkpt lat="41.028545" lon="14.3247733"><ele>32.0</ele><time>2026-04-04T11:21:41.006Z</time></trkpt><trkpt lat="41.028445" lon="14.3247767"><ele>32.0</ele><time>2026-04-04T11:21:42.008Z</time></trkpt><trkpt lat="41.0283467" lon="14.3247717"><ele>32.0</ele><time>2026-04-04T11:21:43.007Z</time></trkpt><trkpt lat="41.0282467" lon="14.32477"><ele>32.0</ele><time>2026-04-04T11:21:44.006Z</time></trkpt><trkpt lat="41.0281433" lon="14.3247717"><ele>32.0</ele><time>2026-04-04T11:21:45.006Z</time></trkpt><trkpt lat="41.0280383" lon="14.32477"><ele>32.2</ele><time>2026-04-04T11:21:46.006Z</time></trkpt><trkpt lat="41.027935" lon="14.3247667"><ele>32.400000000000006</ele><time>2026-04-04T11:21:47.006Z</time></trkpt><trkpt lat="41.0278367" lon="14.3247617"><ele>32.599999999999994</ele><time>2026-04-04T11:21:48.009Z</time></trkpt><trkpt lat="41.0277417" lon="14.3247567"><ele>32.8</ele><time>2026-04-04T11:21:49.008Z</time></trkpt><trkpt lat="41.0276433" lon="14.3247533"><ele>33.0</ele><time>2026-04-04T11:21:50.007Z</time></trkpt><trkpt lat="41.0275483" lon="14.32475"><ele>32.4</ele><time>2026-04-04T11:21:51.006Z</time></trkpt><trkpt lat="41.0274533" lon="14.3247517"><ele>31.799999999999997</ele><time>2026-04-04T11:21:52.007Z</time></trkpt><trkpt lat="41.0273617" lon="14.3247533"><ele>31.2</ele><time>2026-04-04T11:21:53.007Z</time></trkpt><trkpt lat="41.0272717" lon="14.324755"><ele>30.6</ele><time>2026-04-04T11:21:54.007Z</time></trkpt><trkpt lat="41.0271817" lon="14.3247567"><ele>30.0</ele><time>2026-04-04T11:21:55.005Z</time></trkpt><trkpt lat="41.02709" lon="14.3247583"><ele>30.0</ele><time>2026-04-04T11:21:56.007Z</time></trkpt><trkpt lat="41.027" lon="14.3247633"><ele>30.0</ele><time>2026-04-04T11:21:57.006Z</time></trkpt><trkpt lat="41.026905" lon="14.3247667"><ele>30.0</ele><time>2026-04-04T11:21:58.006Z</time></trkpt><trkpt lat="41.02681" lon="14.32477"><ele>30.0</ele><time>2026-04-04T11:21:59.008Z</time></trkpt><trkpt lat="41.0267133" lon="14.3247733"><ele>30.0</ele><time>2026-04-04T11:22:00.006Z</time></trkpt><trkpt lat="41.02662" lon="14.324775"><ele>29.833333333333332</ele><time>2026-04-04T11:22:01.006Z</time></trkpt><trkpt lat="41.0265267" lon="14.32478"><ele>29.666666666666664</ele><time>2026-04-04T11:22:02.006Z</time></trkpt><trkpt lat="41.02644" lon="14.3247817"><ele>29.5</ele><time>2026-04-04T11:22:03.006Z</time></trkpt><trkpt lat="41.0263583" lon="14.3247783"><ele>29.333333333333332</ele><time>2026-04-04T11:22:04.007Z</time></trkpt><trkpt lat="41.0262767" lon="14.3247783"><ele>29.166666666666664</ele><time>2026-04-04T11:22:05.006Z</time></trkpt><trkpt lat="41.026195" lon="14.3247817"><ele>29.0</ele><time>2026-04-04T11:22:06.006Z</time></trkpt><trkpt lat="41.0261083" lon="14.3247867"><ele>28.999999999999996</ele><time>2026-04-04T11:22:07.007Z</time></trkpt><trkpt lat="41.0260217" lon="14.32479"><ele>29.0</ele><time>2026-04-04T11:22:08.006Z</time></trkpt><trkpt lat="41.0259383" lon="14.32479"><ele>29.0</ele><time>2026-04-04T11:22:09.006Z</time></trkpt><trkpt lat="41.0258517" lon="14.3247917"><ele>29.0</ele><time>2026-04-04T11:22:10.006Z</time></trkpt><trkpt lat="41.0257683" lon="14.3247933"><ele>28.999999999999996</ele><time>2026-04-04T11:22:11.006Z</time></trkpt><trkpt lat="41.0256817" lon="14.3247983"><ele>29.0</ele><time>2026-04-04T11:22:12.007Z</time></trkpt><trkpt lat="41.02559" lon="14.324805"><ele>28.799999999999997</ele><time>2026-04-04T11:22:13.007Z</time></trkpt><trkpt lat="41.0254983" lon="14.3248083"><ele>28.599999999999998</ele><time>2026-04-04T11:22:14.006Z</time></trkpt><trkpt lat="41.0254083" lon="14.324815"><ele>28.4</ele><time>2026-04-04T11:22:15.006Z</time></trkpt><trkpt lat="41.025315" lon="14.32482"><ele>28.2</ele><time>2026-04-04T11:22:16.006Z</time></trkpt><trkpt lat="41.0252233" lon="14.3248233"><ele>28.0</ele><time>2026-04-04T11:22:17.006Z</time></trkpt><trkpt lat="41.02513" lon="14.32483"><ele>28.0</ele><time>2026-04-04T11:22:18.006Z</time></trkpt><trkpt lat="41.0250367" lon="14.3248317"><ele>27.999999999999996</ele><time>2026-04-04T11:22:19.006Z</time></trkpt><trkpt lat="41.0249433" lon="14.324835"><ele>27.999999999999996</ele><time>2026-04-04T11:22:20.006Z</time></trkpt><trkpt lat="41.0248533" lon="14.3248383"><ele>28.0</ele><time>2026-04-04T11:22:21.006Z</time></trkpt><trkpt lat="41.0247633" lon="14.3248417"><ele>28.0</ele><time>2026-04-04T11:22:22.006Z</time></trkpt><trkpt lat="41.0246767" lon="14.3248417"><ele>27.833333333333336</ele><time>2026-04-04T11:22:23.006Z</time></trkpt><trkpt lat="41.0245917" lon="14.32482"><ele>27.666666666666668</ele><time>2026-04-04T11:22:24.006Z</time></trkpt><trkpt lat="41.0245167" lon="14.3247717"><ele>27.5</ele><time>2026-04-04T11:22:25.006Z</time></trkpt><trkpt lat="41.02443" lon="14.32473"><ele>27.333333333333336</ele><time>2026-04-04T11:22:26.006Z</time></trkpt><trkpt lat="41.0243467" lon="14.32472"><ele>27.166666666666668</ele><time>2026-04-04T11:22:27.006Z</time></trkpt><trkpt lat="41.0242667" lon="14.32473"><ele>27.0</ele><time>2026-04-04T11:22:28.007Z</time></trkpt><trkpt lat="41.02418" lon="14.32476"><ele>27.0</ele><time>2026-04-04T11:22:29.006Z</time></trkpt><trkpt lat="41.024085" lon="14.324785"><ele>27.000000000000004</ele><time>2026-04-04T11:22:30.006Z</time></trkpt><trkpt lat="41.0239867" lon="14.3247983"><ele>27.000000000000004</ele><time>2026-04-04T11:22:31.008Z</time></trkpt><trkpt lat="41.023885" lon="14.3247933"><ele>27.0</ele><time>2026-04-04T11:22:32.009Z</time></trkpt><trkpt lat="41.0237817" lon="14.3247867"><ele>27.0</ele><time>2026-04-04T11:22:33.006Z</time></trkpt><trkpt lat="41.0236783" lon="14.3247833"><ele>27.0</ele><time>2026-04-04T11:22:34.006Z</time></trkpt><trkpt lat="41.0235733" lon="14.3247917"><ele>27.000000000000004</ele><time>2026-04-04T11:22:35.006Z</time></trkpt><trkpt lat="41.023465" lon="14.3247967"><ele>27.000000000000004</ele><time>2026-04-04T11:22:36.007Z</time></trkpt><trkpt lat="41.0233567" lon="14.32479"><ele>27.0</ele><time>2026-04-04T11:22:37.006Z</time></trkpt><trkpt lat="41.0232567" lon="14.3247883"><ele>27.0</ele><time>2026-04-04T11:22:38.006Z</time></trkpt><trkpt lat="41.023155" lon="14.324785"><ele>27.0</ele><time>2026-04-04T11:22:39.006Z</time></trkpt><trkpt lat="41.023055" lon="14.324785"><ele>27.000000000000004</ele><time>2026-04-04T11:22:40.008Z</time></trkpt><trkpt lat="41.0229533" lon="14.324785"><ele>27.000000000000004</ele><time>2026-04-04T11:22:41.006Z</time></trkpt><trkpt lat="41.0228483" lon="14.3247833"><ele>27.0</ele><time>2026-04-04T11:22:42.006Z</time></trkpt><trkpt lat="41.0227467" lon="14.32479"><ele>27.0</ele><time>2026-04-04T11:22:43.006Z</time></trkpt><trkpt lat="41.0226483" lon="14.3247967"><ele>27.0</ele><time>2026-04-04T11:22:44.006Z</time></trkpt><trkpt lat="41.0225483" lon="14.3248033"><ele>27.000000000000004</ele><time>2026-04-04T11:22:45.006Z</time></trkpt><trkpt lat="41.0224517" lon="14.32481"><ele>27.000000000000004</ele><time>2026-04-04T11:22:46.005Z</time></trkpt><trkpt lat="41.0223567" lon="14.324815"><ele>27.0</ele><time>2026-04-04T11:22:47.006Z</time></trkpt><trkpt lat="41.0222583" lon="14.3248167"><ele>27.0</ele><time>2026-04-04T11:22:48.006Z</time></trkpt><trkpt lat="41.0221617" lon="14.3248133"><ele>27.0</ele><time>2026-04-04T11:22:49.009Z</time></trkpt><trkpt lat="41.022065" lon="14.3248117"><ele>27.000000000000004</ele><time>2026-04-04T11:22:50.006Z</time></trkpt><trkpt lat="41.0219667" lon="14.3248133"><ele>27.000000000000004</ele><time>2026-04-04T11:22:51.007Z</time></trkpt><trkpt lat="41.0218683" lon="14.324815"><ele>27.0</ele><time>2026-04-04T11:22:52.007Z</time></trkpt><trkpt lat="41.0217717" lon="14.3248117"><ele>27.0</ele><time>2026-04-04T11:22:53.006Z</time></trkpt><trkpt lat="41.0216717" lon="14.32481"><ele>26.8</ele><time>2026-04-04T11:22:54.006Z</time></trkpt><trkpt lat="41.0215717" lon="14.32481"><ele>26.6</ele><time>2026-04-04T11:22:55.006Z</time></trkpt><trkpt lat="41.0214717" lon="14.3248117"><ele>26.400000000000002</ele><time>2026-04-04T11:22:56.007Z</time></trkpt><trkpt lat="41.021375" lon="14.3248133"><ele>26.200000000000003</ele><time>2026-04-04T11:22:57.006Z</time></trkpt><trkpt lat="41.0212817" lon="14.3248117"><ele>26.0</ele><time>2026-04-04T11:22:58.006Z</time></trkpt><trkpt lat="41.0211883" lon="14.3248117"><ele>26.0</ele><time>2026-04-04T11:22:59.006Z</time></trkpt><trkpt lat="41.021095" lon="14.3248133"><ele>26.0</ele><time>2026-04-04T11:23:00.006Z</time></trkpt><trkpt lat="41.0210017" lon="14.324815"><ele>26.0</ele><time>2026-04-04T11:23:01.006Z</time></trkpt><trkpt lat="41.0209083" lon="14.3248183"><ele>26.0</ele><time>2026-04-04T11:23:02.006Z</time></trkpt><trkpt lat="41.020815" lon="14.32482"><ele>26.0</ele><time>2026-04-04T11:23:03.006Z</time></trkpt><trkpt lat="41.0207217" lon="14.32482"><ele>25.833333333333332</ele><time>2026-04-04T11:23:04.007Z</time></trkpt><trkpt lat="41.0206317" lon="14.32482"><ele>25.666666666666664</ele><time>2026-04-04T11:23:05.006Z</time></trkpt><trkpt lat="41.0205433" lon="14.3248167"><ele>25.5</ele><time>2026-04-04T11:23:06.008Z</time></trkpt><trkpt lat="41.02046" lon="14.324815"><ele>25.333333333333336</ele><time>2026-04-04T11:23:07.006Z</time></trkpt><trkpt lat="41.0203733" lon="14.324815"><ele>25.166666666666668</ele><time>2026-04-04T11:23:08.007Z</time></trkpt><trkpt lat="41.0202883" lon="14.324815"><ele>25.0</ele><time>2026-04-04T11:23:09.006Z</time></trkpt><trkpt lat="41.0202017" lon="14.3248167"><ele>25.000000000000004</ele><time>2026-04-04T11:23:10.008Z</time></trkpt><trkpt lat="41.020115" lon="14.32482"><ele>25.0</ele><time>2026-04-04T11:23:11.006Z</time></trkpt><trkpt lat="41.0200267" lon="14.3248233"><ele>25.0</ele><time>2026-04-04T11:23:12.006Z</time></trkpt><trkpt lat="41.0199417" lon="14.3248267"><ele>25.0</ele><time>2026-04-04T11:23:13.006Z</time></trkpt><trkpt lat="41.019855" lon="14.3248283"><ele>25.000000000000004</ele><time>2026-04-04T11:23:14.007Z</time></trkpt><trkpt lat="41.01977" lon="14.324825"><ele>25.0</ele><time>2026-04-04T11:23:15.006Z</time></trkpt><trkpt lat="41.0196817" lon="14.3248267"><ele>24.666666666666668</ele><time>2026-04-04T11:23:16.006Z</time></trkpt><trkpt lat="41.0195933" lon="14.3248283"><ele>24.333333333333336</ele><time>2026-04-04T11:23:17.006Z</time></trkpt><trkpt lat="41.019505" lon="14.32483"><ele>24.0</ele><time>2026-04-04T11:23:18.006Z</time></trkpt><trkpt lat="41.0194167" lon="14.32483"><ele>23.666666666666668</ele><time>2026-04-04T11:23:19.006Z</time></trkpt><trkpt lat="41.01933" lon="14.32483"><ele>23.333333333333336</ele><time>2026-04-04T11:23:20.006Z</time></trkpt><trkpt lat="41.0192433" lon="14.3248317"><ele>23.0</ele><time>2026-04-04T11:23:21.006Z</time></trkpt><trkpt lat="41.0191583" lon="14.3248283"><ele>23.166666666666668</ele><time>2026-04-04T11:23:22.008Z</time></trkpt><trkpt lat="41.0190733" lon="14.324825"><ele>23.333333333333336</ele><time>2026-04-04T11:23:23.006Z</time></trkpt><trkpt lat="41.01899" lon="14.3248267"><ele>23.5</ele><time>2026-04-04T11:23:24.007Z</time></trkpt><trkpt lat="41.0189067" lon="14.3248267"><ele>23.666666666666668</ele><time>2026-04-04T11:23:25.006Z</time></trkpt><trkpt lat="41.0188217" lon="14.3248283"><ele>23.833333333333332</ele><time>2026-04-04T11:23:26.006Z</time></trkpt><trkpt lat="41.0187417" lon="14.32483"><ele>24.0</ele><time>2026-04-04T11:23:27.006Z</time></trkpt><trkpt lat="41.0186583" lon="14.3248333"><ele>24.0</ele><time>2026-04-04T11:23:28.006Z</time></trkpt><trkpt lat="41.0185783" lon="14.324835"><ele>24.0</ele><time>2026-04-04T11:23:29.006Z</time></trkpt><trkpt lat="41.01849" lon="14.3248367"><ele>24.0</ele><time>2026-04-04T11:23:30.006Z</time></trkpt><trkpt lat="41.0184033" lon="14.3248367"><ele>24.0</ele><time>2026-04-04T11:23:31.007Z</time></trkpt><trkpt lat="41.0183133" lon="14.32484"><ele>24.0</ele><time>2026-04-04T11:23:32.006Z</time></trkpt><trkpt lat="41.0182233" lon="14.3248433"><ele>24.0</ele><time>2026-04-04T11:23:33.006Z</time></trkpt><trkpt lat="41.0181317" lon="14.3248467"><ele>23.833333333333332</ele><time>2026-04-04T11:23:34.005Z</time></trkpt><trkpt lat="41.0180417" lon="14.32485"><ele>23.666666666666668</ele><time>2026-04-04T11:23:35.005Z</time></trkpt><trkpt lat="41.0179533" lon="14.3248567"><ele>23.5</ele><time>2026-04-04T11:23:36.006Z</time></trkpt><trkpt lat="41.0178667" lon="14.324865"><ele>23.333333333333336</ele><time>2026-04-04T11:23:37.005Z</time></trkpt><trkpt lat="41.01778" lon="14.3248667"><ele>23.166666666666668</ele><time>2026-04-04T11:23:38.006Z</time></trkpt><trkpt lat="41.0176933" lon="14.324865"><ele>23.0</ele><time>2026-04-04T11:23:39.005Z</time></trkpt><trkpt lat="41.0176083" lon="14.3248617"><ele>23.0</ele><time>2026-04-04T11:23:40.005Z</time></trkpt><trkpt lat="41.0175217" lon="14.3248667"><ele>23.0</ele><time>2026-04-04T11:23:41.005Z</time></trkpt><trkpt lat="41.01743" lon="14.3248767"><ele>23.0</ele><time>2026-04-04T11:23:42.005Z</time></trkpt><trkpt lat="41.0173383" lon="14.3248833"><ele>23.0</ele><time>2026-04-04T11:23:43.007Z</time></trkpt><trkpt lat="41.017245" lon="14.32489"><ele>23.0</ele><time>2026-04-04T11:23:44.005Z</time></trkpt><trkpt lat="41.01715" lon="14.3248917"><ele>23.2</ele><time>2026-04-04T11:23:45.008Z</time></trkpt><trkpt lat="41.0170533" lon="14.3248917"><ele>23.4</ele><time>2026-04-04T11:23:46.005Z</time></trkpt><trkpt lat="41.0169517" lon="14.3248967"><ele>23.599999999999998</ele><time>2026-04-04T11:23:47.007Z</time></trkpt><trkpt lat="41.0168467" lon="14.3249"><ele>23.799999999999997</ele><time>2026-04-04T11:23:48.005Z</time></trkpt><trkpt lat="41.0167417" lon="14.3249017"><ele>24.0</ele><time>2026-04-04T11:23:49.007Z</time></trkpt><trkpt lat="41.0166317" lon="14.324905"><ele>24.0</ele><time>2026-04-04T11:23:50.005Z</time></trkpt><trkpt lat="41.0165233" lon="14.3249067"><ele>24.0</ele><time>2026-04-04T11:23:51.005Z</time></trkpt><trkpt lat="41.0164167" lon="14.324905"><ele>24.0</ele><time>2026-04-04T11:23:52.006Z</time></trkpt><trkpt lat="41.01631" lon="14.3249"><ele>24.0</ele><time>2026-04-04T11:23:53.006Z</time></trkpt><trkpt lat="41.0162017" lon="14.3248933"><ele>24.0</ele><time>2026-04-04T11:23:54.006Z</time></trkpt><trkpt lat="41.0160967" lon="14.3248867"><ele>24.0</ele><time>2026-04-04T11:23:55.006Z</time></trkpt><trkpt lat="41.0159933" lon="14.324885"><ele>24.0</ele><time>2026-04-04T11:23:56.005Z</time></trkpt><trkpt lat="41.01589" lon="14.3248833"><ele>24.0</ele><time>2026-04-04T11:23:57.006Z</time></trkpt><trkpt lat="41.0157883" lon="14.32488"><ele>24.0</ele><time>2026-04-04T11:23:58.005Z</time></trkpt><trkpt lat="41.0156883" lon="14.3248767"><ele>24.0</ele><time>2026-04-04T11:23:59.006Z</time></trkpt><trkpt lat="41.0155883" lon="14.3248767"><ele>24.0</ele><time>2026-04-04T11:24:00.006Z</time></trkpt><trkpt lat="41.0154883" lon="14.3248717"><ele>24.0</ele><time>2026-04-04T11:24:01.005Z</time></trkpt><trkpt lat="41.0153933" lon="14.324865"><ele>24.0</ele><time>2026-04-04T11:24:02.005Z</time></trkpt><trkpt lat="41.0152983" lon="14.3248583"><ele>24.0</ele><time>2026-04-04T11:24:03.006Z</time></trkpt><trkpt lat="41.015205" lon="14.3248417"><ele>24.0</ele><time>2026-04-04T11:24:04.007Z</time></trkpt><trkpt lat="41.015115" lon="14.32482"><ele>24.0</ele><time>2026-04-04T11:24:05.006Z</time></trkpt><trkpt lat="41.015025" lon="14.3247967"><ele>24.0</ele><time>2026-04-04T11:24:06.006Z</time></trkpt><trkpt lat="41.0149367" lon="14.3247717"><ele>24.0</ele><time>2026-04-04T11:24:07.008Z</time></trkpt><trkpt lat="41.01485" lon="14.324745"><ele>24.0</ele><time>2026-04-04T11:24:08.006Z</time></trkpt><trkpt lat="41.0147617" lon="14.32471"><ele>24.0</ele><time>2026-04-04T11:24:09.005Z</time></trkpt><trkpt lat="41.0146767" lon="14.324675"><ele>24.166666666666668</ele><time>2026-04-04T11:24:10.005Z</time></trkpt><trkpt lat="41.0145933" lon="14.324635"><ele>24.333333333333336</ele><time>2026-04-04T11:24:11.006Z</time></trkpt><trkpt lat="41.0145117" lon="14.3245967"><ele>24.5</ele><time>2026-04-04T11:24:12.008Z</time></trkpt><trkpt lat="41.01444" lon="14.3245517"><ele>24.666666666666668</ele><time>2026-04-04T11:24:13.005Z</time></trkpt><trkpt lat="41.0143517" lon="14.3245033"><ele>24.833333333333336</ele><time>2026-04-04T11:24:14.009Z</time></trkpt><trkpt lat="41.014275" lon="14.32446"><ele>25.0</ele><time>2026-04-04T11:24:15.005Z</time></trkpt><trkpt lat="41.0142" lon="14.3244167"><ele>25.000000000000004</ele><time>2026-04-04T11:24:16.008Z</time></trkpt><trkpt lat="41.0141283" lon="14.3243733"><ele>25.0</ele><time>2026-04-04T11:24:17.005Z</time></trkpt><trkpt lat="41.0140633" lon="14.3243333"><ele>25.0</ele><time>2026-04-04T11:24:18.005Z</time></trkpt><trkpt lat="41.014" lon="14.32429"><ele>25.0</ele><time>2026-04-04T11:24:19.006Z</time></trkpt><trkpt lat="41.0139333" lon="14.32425"><ele>25.0</ele><time>2026-04-04T11:24:20.005Z</time></trkpt><trkpt lat="41.0138717" lon="14.32421"><ele>25.000000000000004</ele><time>2026-04-04T11:24:21.005Z</time></trkpt><trkpt lat="41.0138067" lon="14.324175"><ele>25.0</ele><time>2026-04-04T11:24:22.005Z</time></trkpt><trkpt lat="41.0137483" lon="14.3241333"><ele>25.000000000000004</ele><time>2026-04-04T11:24:23.005Z</time></trkpt><trkpt lat="41.0136933" lon="14.3240917"><ele>25.0</ele><time>2026-04-04T11:24:24.006Z</time></trkpt><trkpt lat="41.0136367" lon="14.3240533"><ele>25.0</ele><time>2026-04-04T11:24:25.006Z</time></trkpt><trkpt lat="41.0135833" lon="14.3240083"><ele>25.0</ele><time>2026-04-04T11:24:26.006Z</time></trkpt><trkpt lat="41.0134767" lon="14.3239233"><ele>25.000000000000004</ele><time>2026-04-04T11:24:28.006Z</time></trkpt><trkpt lat="41.0133767" lon="14.3238417"><ele>25.0</ele><time>2026-04-04T11:24:30.006Z</time></trkpt><trkpt lat="41.013275" lon="14.3237533"><ele>25.25</ele><time>2026-04-04T11:24:32.006Z</time></trkpt><trkpt lat="41.0131767" lon="14.32366"><ele>25.5</ele><time>2026-04-04T11:24:34.005Z</time></trkpt><trkpt lat="41.0130767" lon="14.3235683"><ele>25.75</ele><time>2026-04-04T11:24:36.006Z</time></trkpt><trkpt lat="41.0129833" lon="14.32347"><ele>26.0</ele><time>2026-04-04T11:24:38.006Z</time></trkpt><trkpt lat="41.0128917" lon="14.323365"><ele>26.0</ele><time>2026-04-04T11:24:40.005Z</time></trkpt><trkpt lat="41.0128383" lon="14.3233183"><ele>26.0</ele><time>2026-04-04T11:24:41.005Z</time></trkpt><trkpt lat="41.0127467" lon="14.323215"><ele>26.0</ele><time>2026-04-04T11:24:43.006Z</time></trkpt><trkpt lat="41.0126533" lon="14.32309"><ele>26.0</ele><time>2026-04-04T11:24:45.005Z</time></trkpt><trkpt lat="41.012605" lon="14.32303"><ele>26.0</ele><time>2026-04-04T11:24:46.005Z</time></trkpt><trkpt lat="41.012555" lon="14.3229683"><ele>25.857142857142858</ele><time>2026-04-04T11:24:47.005Z</time></trkpt><trkpt lat="41.0125033" lon="14.32291"><ele>25.714285714285715</ele><time>2026-04-04T11:24:48.006Z</time></trkpt><trkpt lat="41.0124567" lon="14.322845"><ele>25.571428571428573</ele><time>2026-04-04T11:24:49.007Z</time></trkpt><trkpt lat="41.0124067" lon="14.3227817"><ele>25.42857142857143</ele><time>2026-04-04T11:24:50.006Z</time></trkpt><trkpt lat="41.0123567" lon="14.3227183"><ele>25.285714285714285</ele><time>2026-04-04T11:24:51.007Z</time></trkpt><trkpt lat="41.0123017" lon="14.3226583"><ele>25.142857142857146</ele><time>2026-04-04T11:24:52.006Z</time></trkpt><trkpt lat="41.0122483" lon="14.3225967"><ele>25.0</ele><time>2026-04-04T11:24:53.005Z</time></trkpt><trkpt lat="41.0121933" lon="14.3225367"><ele>25.000000000000004</ele><time>2026-04-04T11:24:54.006Z</time></trkpt><trkpt lat="41.012135" lon="14.3224733"><ele>25.0</ele><time>2026-04-04T11:24:55.006Z</time></trkpt><trkpt lat="41.01208" lon="14.32241"><ele>25.0</ele><time>2026-04-04T11:24:56.006Z</time></trkpt><trkpt lat="41.012025" lon="14.3223467"><ele>25.0</ele><time>2026-04-04T11:24:57.006Z</time></trkpt><trkpt lat="41.0119733" lon="14.322285"><ele>25.0</ele><time>2026-04-04T11:24:58.006Z</time></trkpt><trkpt lat="41.0119183" lon="14.3222217"><ele>25.000000000000004</ele><time>2026-04-04T11:24:59.005Z</time></trkpt><trkpt lat="41.0118583" lon="14.3221567"><ele>25.0</ele><time>2026-04-04T11:25:00.014Z</time></trkpt><trkpt lat="41.0118083" lon="14.322095"><ele>24.666666666666668</ele><time>2026-04-04T11:25:01.006Z</time></trkpt><trkpt lat="41.011755" lon="14.322035"><ele>24.333333333333336</ele><time>2026-04-04T11:25:02.009Z</time></trkpt><trkpt lat="41.0117" lon="14.321975"><ele>24.0</ele><time>2026-04-04T11:25:03.005Z</time></trkpt><trkpt lat="41.01164" lon="14.3219067"><ele>23.666666666666668</ele><time>2026-04-04T11:25:04.005Z</time></trkpt><trkpt lat="41.0115767" lon="14.321835"><ele>23.333333333333336</ele><time>2026-04-04T11:25:05.005Z</time></trkpt><trkpt lat="41.0115117" lon="14.3217633"><ele>23.0</ele><time>2026-04-04T11:25:06.005Z</time></trkpt><trkpt lat="41.0114417" lon="14.3216917"><ele>23.0</ele><time>2026-04-04T11:25:07.009Z</time></trkpt><trkpt lat="41.0113733" lon="14.3216167"><ele>23.0</ele><time>2026-04-04T11:25:08.006Z</time></trkpt><trkpt lat="41.011305" lon="14.32153"><ele>23.0</ele><time>2026-04-04T11:25:09.006Z</time></trkpt><trkpt lat="41.01124" lon="14.3214417"><ele>23.0</ele><time>2026-04-04T11:25:10.005Z</time></trkpt><trkpt lat="41.011175" lon="14.3213483"><ele>23.0</ele><time>2026-04-04T11:25:11.006Z</time></trkpt><trkpt lat="41.0111117" lon="14.321265"><ele>22.799999999999997</ele><time>2026-04-04T11:25:12.009Z</time></trkpt><trkpt lat="41.0110417" lon="14.3211883"><ele>22.6</ele><time>2026-04-04T11:25:13.009Z</time></trkpt><trkpt lat="41.0109667" lon="14.321115"><ele>22.4</ele><time>2026-04-04T11:25:14.008Z</time></trkpt><trkpt lat="41.0109" lon="14.3210367"><ele>22.200000000000003</ele><time>2026-04-04T11:25:15.009Z</time></trkpt><trkpt lat="41.0108333" lon="14.3209533"><ele>22.0</ele><time>2026-04-04T11:25:16.006Z</time></trkpt><trkpt lat="41.010765" lon="14.3208717"><ele>22.0</ele><time>2026-04-04T11:25:17.006Z</time></trkpt><trkpt lat="41.0106983" lon="14.3207783"><ele>22.0</ele><time>2026-04-04T11:25:18.006Z</time></trkpt><trkpt lat="41.0106267" lon="14.32069"><ele>22.0</ele><time>2026-04-04T11:25:19.007Z</time></trkpt><trkpt lat="41.0105517" lon="14.3206117"><ele>22.0</ele><time>2026-04-04T11:25:20.005Z</time></trkpt><trkpt lat="41.0104733" lon="14.320545"><ele>22.0</ele><time>2026-04-04T11:25:21.005Z</time></trkpt><trkpt lat="41.01039" lon="14.3204867"><ele>22.200000000000003</ele><time>2026-04-04T11:25:22.007Z</time></trkpt><trkpt lat="41.0103017" lon="14.3204333"><ele>22.4</ele><time>2026-04-04T11:25:23.006Z</time></trkpt><trkpt lat="41.0102133" lon="14.3203817"><ele>22.6</ele><time>2026-04-04T11:25:24.006Z</time></trkpt><trkpt lat="41.0101217" lon="14.320335"><ele>22.799999999999997</ele><time>2026-04-04T11:25:25.005Z</time></trkpt><trkpt lat="41.0100317" lon="14.3202917"><ele>23.0</ele><time>2026-04-04T11:25:26.006Z</time></trkpt><trkpt lat="41.0099383" lon="14.3202483"><ele>22.4</ele><time>2026-04-04T11:25:27.005Z</time></trkpt><trkpt lat="41.0098483" lon="14.3202117"><ele>21.799999999999997</ele><time>2026-04-04T11:25:28.009Z</time></trkpt><trkpt lat="41.0097567" lon="14.3201767"><ele>21.2</ele><time>2026-04-04T11:25:29.006Z</time></trkpt><trkpt lat="41.0096717" lon="14.32014"><ele>20.6</ele><time>2026-04-04T11:25:30.006Z</time></trkpt><trkpt lat="41.0095833" lon="14.32011"><ele>20.0</ele><time>2026-04-04T11:25:31.006Z</time></trkpt><trkpt lat="41.0095" lon="14.3200817"><ele>20.0</ele><time>2026-04-04T11:25:32.007Z</time></trkpt><trkpt lat="41.0094167" lon="14.3200567"><ele>20.0</ele><time>2026-04-04T11:25:33.007Z</time></trkpt><trkpt lat="41.0093333" lon="14.3200333"><ele>20.0</ele><time>2026-04-04T11:25:34.006Z</time></trkpt><trkpt lat="41.0092583" lon="14.32001"><ele>20.0</ele><time>2026-04-04T11:25:35.006Z</time></trkpt><trkpt lat="41.0091817" lon="14.3199883"><ele>20.0</ele><time>2026-04-04T11:25:36.006Z</time></trkpt><trkpt lat="41.0091067" lon="14.3199633"><ele>20.0</ele><time>2026-04-04T11:25:37.007Z</time></trkpt><trkpt lat="41.009035" lon="14.3199383"><ele>20.0</ele><time>2026-04-04T11:25:38.006Z</time></trkpt><trkpt lat="41.008965" lon="14.3199083"><ele>20.0</ele><time>2026-04-04T11:25:39.007Z</time></trkpt><trkpt lat="41.0088967" lon="14.3198817"><ele>20.0</ele><time>2026-04-04T11:25:40.005Z</time></trkpt><trkpt lat="41.008825" lon="14.319855"><ele>20.0</ele><time>2026-04-04T11:25:41.005Z</time></trkpt><trkpt lat="41.0087533" lon="14.3198283"><ele>20.0</ele><time>2026-04-04T11:25:42.006Z</time></trkpt><trkpt lat="41.00868" lon="14.319805"><ele>20.0</ele><time>2026-04-04T11:25:43.005Z</time></trkpt><trkpt lat="41.0086067" lon="14.3197783"><ele>20.0</ele><time>2026-04-04T11:25:44.009Z</time></trkpt><trkpt lat="41.0085333" lon="14.3197483"><ele>20.0</ele><time>2026-04-04T11:25:45.007Z</time></trkpt><trkpt lat="41.0084567" lon="14.3197217"><ele>20.0</ele><time>2026-04-04T11:25:46.006Z</time></trkpt><trkpt lat="41.0083767" lon="14.319695"><ele>20.0</ele><time>2026-04-04T11:25:47.006Z</time></trkpt><trkpt lat="41.0082933" lon="14.31967"><ele>20.0</ele><time>2026-04-04T11:25:48.007Z</time></trkpt><trkpt lat="41.008205" lon="14.3196417"><ele>20.0</ele><time>2026-04-04T11:25:49.007Z</time></trkpt><trkpt lat="41.0081167" lon="14.3196117"><ele>20.0</ele><time>2026-04-04T11:25:50.006Z</time></trkpt><trkpt lat="41.0080283" lon="14.3195883"><ele>20.0</ele><time>2026-04-04T11:25:51.006Z</time></trkpt><trkpt lat="41.007945" lon="14.3195567"><ele>20.0</ele><time>2026-04-04T11:25:52.005Z</time></trkpt><trkpt lat="41.00786" lon="14.3195267"><ele>20.0</ele><time>2026-04-04T11:25:53.007Z</time></trkpt><trkpt lat="41.0077733" lon="14.3195017"><ele>20.0</ele><time>2026-04-04T11:25:54.005Z</time></trkpt><trkpt lat="41.00769" lon="14.3194683"><ele>20.0</ele><time>2026-04-04T11:25:55.006Z</time></trkpt><trkpt lat="41.0076083" lon="14.31944"><ele>20.0</ele><time>2026-04-04T11:25:56.006Z</time></trkpt><trkpt lat="41.00753" lon="14.3194117"><ele>20.333333333333336</ele><time>2026-04-04T11:25:57.006Z</time></trkpt><trkpt lat="41.0074483" lon="14.3193883"><ele>20.666666666666668</ele><time>2026-04-04T11:25:58.007Z</time></trkpt><trkpt lat="41.0073767" lon="14.3193567"><ele>21.0</ele><time>2026-04-04T11:25:59.007Z</time></trkpt><trkpt lat="41.0073" lon="14.319325"><ele>21.333333333333332</ele><time>2026-04-04T11:26:00.009Z</time></trkpt><trkpt lat="41.0072233" lon="14.3192933"><ele>21.666666666666664</ele><time>2026-04-04T11:26:01.007Z</time></trkpt><trkpt lat="41.0071433" lon="14.319265"><ele>22.0</ele><time>2026-04-04T11:26:02.007Z</time></trkpt><trkpt lat="41.0070617" lon="14.31924"><ele>22.0</ele><time>2026-04-04T11:26:03.006Z</time></trkpt><trkpt lat="41.0069833" lon="14.3192133"><ele>22.0</ele><time>2026-04-04T11:26:04.005Z</time></trkpt><trkpt lat="41.0069067" lon="14.3191883"><ele>22.0</ele><time>2026-04-04T11:26:05.006Z</time></trkpt><trkpt lat="41.00683" lon="14.3191617"><ele>22.0</ele><time>2026-04-04T11:26:06.006Z</time></trkpt><trkpt lat="41.0067533" lon="14.319135"><ele>22.0</ele><time>2026-04-04T11:26:07.005Z</time></trkpt><trkpt lat="41.0066767" lon="14.31911"><ele>22.0</ele><time>2026-04-04T11:26:08.006Z</time></trkpt><trkpt lat="41.0065983" lon="14.31909"><ele>21.833333333333332</ele><time>2026-04-04T11:26:09.007Z</time></trkpt><trkpt lat="41.0065183" lon="14.31907"><ele>21.666666666666664</ele><time>2026-04-04T11:26:10.006Z</time></trkpt><trkpt lat="41.0064433" lon="14.319045"><ele>21.5</ele><time>2026-04-04T11:26:11.006Z</time></trkpt><trkpt lat="41.006365" lon="14.31901"><ele>21.333333333333332</ele><time>2026-04-04T11:26:12.006Z</time></trkpt><trkpt lat="41.00629" lon="14.3189633"><ele>21.166666666666668</ele><time>2026-04-04T11:26:13.005Z</time></trkpt><trkpt lat="41.0062133" lon="14.31891"><ele>21.0</ele><time>2026-04-04T11:26:14.006Z</time></trkpt><trkpt lat="41.0061433" lon="14.3188367"><ele>21.0</ele><time>2026-04-04T11:26:15.006Z</time></trkpt><trkpt lat="41.0060817" lon="14.318755"><ele>21.0</ele><time>2026-04-04T11:26:16.006Z</time></trkpt><trkpt lat="41.0060233" lon="14.3186683"><ele>21.0</ele><time>2026-04-04T11:26:17.006Z</time></trkpt><trkpt lat="41.0059633" lon="14.3185883"><ele>21.0</ele><time>2026-04-04T11:26:18.007Z</time></trkpt><trkpt lat="41.005895" lon="14.3185217"><ele>21.0</ele><time>2026-04-04T11:26:19.006Z</time></trkpt><trkpt lat="41.0058217" lon="14.31849"><ele>21.0</ele><time>2026-04-04T11:26:20.006Z</time></trkpt><trkpt lat="41.0057467" lon="14.3184883"><ele>20.833333333333332</ele><time>2026-04-04T11:26:21.007Z</time></trkpt><trkpt lat="41.0056717" lon="14.3185267"><ele>20.666666666666668</ele><time>2026-04-04T11:26:22.006Z</time></trkpt><trkpt lat="41.0056033" lon="14.3185783"><ele>20.5</ele><time>2026-04-04T11:26:23.006Z</time></trkpt><trkpt lat="41.0055417" lon="14.318655"><ele>20.333333333333336</ele><time>2026-04-04T11:26:24.006Z</time></trkpt><trkpt lat="41.0054817" lon="14.318735"><ele>20.166666666666668</ele><time>2026-04-04T11:26:25.007Z</time></trkpt><trkpt lat="41.00542" lon="14.3188167"><ele>20.0</ele><time>2026-04-04T11:26:26.007Z</time></trkpt><trkpt lat="41.0053567" lon="14.318895"><ele>20.333333333333336</ele><time>2026-04-04T11:26:27.007Z</time></trkpt><trkpt lat="41.00529" lon="14.31897"><ele>20.666666666666668</ele><time>2026-04-04T11:26:28.006Z</time></trkpt><trkpt lat="41.0052217" lon="14.3190367"><ele>21.0</ele><time>2026-04-04T11:26:29.007Z</time></trkpt><trkpt lat="41.005145" lon="14.3190967"><ele>21.333333333333332</ele><time>2026-04-04T11:26:30.008Z</time></trkpt><trkpt lat="41.0050667" lon="14.3191367"><ele>21.666666666666664</ele><time>2026-04-04T11:26:31.007Z</time></trkpt><trkpt lat="41.0049883" lon="14.319155"><ele>22.0</ele><time>2026-04-04T11:26:32.006Z</time></trkpt><trkpt lat="41.00491" lon="14.31915"><ele>22.166666666666664</ele><time>2026-04-04T11:26:33.006Z</time></trkpt><trkpt lat="41.0048333" lon="14.3191233"><ele>22.333333333333332</ele><time>2026-04-04T11:26:34.006Z</time></trkpt><trkpt lat="41.0047583" lon="14.31909"><ele>22.5</ele><time>2026-04-04T11:26:35.006Z</time></trkpt><trkpt lat="41.0046817" lon="14.3190617"><ele>22.666666666666668</ele><time>2026-04-04T11:26:36.007Z</time></trkpt><trkpt lat="41.0046017" lon="14.31903"><ele>22.833333333333336</ele><time>2026-04-04T11:26:37.007Z</time></trkpt><trkpt lat="41.0045233" lon="14.3189983"><ele>23.0</ele><time>2026-04-04T11:26:38.007Z</time></trkpt><trkpt lat="41.0044417" lon="14.3189683"><ele>23.0</ele><time>2026-04-04T11:26:39.006Z</time></trkpt><trkpt lat="41.0043617" lon="14.3189417"><ele>23.0</ele><time>2026-04-04T11:26:40.005Z</time></trkpt><trkpt lat="41.0042833" lon="14.3189167"><ele>23.0</ele><time>2026-04-04T11:26:41.006Z</time></trkpt><trkpt lat="41.0042" lon="14.31889"><ele>23.0</ele><time>2026-04-04T11:26:42.006Z</time></trkpt><trkpt lat="41.0041183" lon="14.3188667"><ele>23.0</ele><time>2026-04-04T11:26:43.006Z</time></trkpt><trkpt lat="41.00404" lon="14.31885"><ele>23.0</ele><time>2026-04-04T11:26:44.006Z</time></trkpt><trkpt lat="41.0039633" lon="14.3188333"><ele>22.333333333333336</ele><time>2026-04-04T11:26:45.006Z</time></trkpt><trkpt lat="41.0038883" lon="14.3188167"><ele>21.666666666666668</ele><time>2026-04-04T11:26:46.006Z</time></trkpt><trkpt lat="41.0038117" lon="14.3188083"><ele>21.0</ele><time>2026-04-04T11:26:47.006Z</time></trkpt><trkpt lat="41.0037317" lon="14.3188017"><ele>20.333333333333332</ele><time>2026-04-04T11:26:48.007Z</time></trkpt><trkpt lat="41.0036533" lon="14.3187917"><ele>19.666666666666664</ele><time>2026-04-04T11:26:49.006Z</time></trkpt><trkpt lat="41.0035783" lon="14.318785"><ele>19.0</ele><time>2026-04-04T11:26:50.006Z</time></trkpt><trkpt lat="41.0035033" lon="14.3187717"><ele>19.0</ele><time>2026-04-04T11:26:51.006Z</time></trkpt><trkpt lat="41.0034267" lon="14.3187583"><ele>19.0</ele><time>2026-04-04T11:26:52.007Z</time></trkpt><trkpt lat="41.00335" lon="14.31874"><ele>19.0</ele><time>2026-04-04T11:26:53.006Z</time></trkpt><trkpt lat="41.0032733" lon="14.3187267"><ele>19.0</ele><time>2026-04-04T11:26:54.007Z</time></trkpt><trkpt lat="41.003195" lon="14.31871"><ele>19.0</ele><time>2026-04-04T11:26:55.006Z</time></trkpt><trkpt lat="41.003115" lon="14.3186933"><ele>19.0</ele><time>2026-04-04T11:26:56.006Z</time></trkpt><trkpt lat="41.0030317" lon="14.3186783"><ele>19.5</ele><time>2026-04-04T11:26:57.006Z</time></trkpt><trkpt lat="41.0029483" lon="14.318665"><ele>20.0</ele><time>2026-04-04T11:26:58.006Z</time></trkpt><trkpt lat="41.0028667" lon="14.3186567"><ele>20.5</ele><time>2026-04-04T11:26:59.006Z</time></trkpt><trkpt lat="41.0027867" lon="14.3186467"><ele>21.0</ele><time>2026-04-04T11:27:00.006Z</time></trkpt><trkpt lat="41.002705" lon="14.3186383"><ele>21.5</ele><time>2026-04-04T11:27:01.009Z</time></trkpt><trkpt lat="41.0026217" lon="14.3186333"><ele>22.0</ele><time>2026-04-04T11:27:02.008Z</time></trkpt><trkpt lat="41.0025333" lon="14.318635"><ele>21.833333333333332</ele><time>2026-04-04T11:27:03.006Z</time></trkpt><trkpt lat="41.0024483" lon="14.3186367"><ele>21.666666666666664</ele><time>2026-04-04T11:27:04.006Z</time></trkpt><trkpt lat="41.002365" lon="14.31864"><ele>21.5</ele><time>2026-04-04T11:27:05.006Z</time></trkpt><trkpt lat="41.00228" lon="14.318655"><ele>21.333333333333332</ele><time>2026-04-04T11:27:06.007Z</time></trkpt><trkpt lat="41.0021983" lon="14.3186833"><ele>21.166666666666668</ele><time>2026-04-04T11:27:07.006Z</time></trkpt><trkpt lat="41.002115" lon="14.3187167"><ele>21.0</ele><time>2026-04-04T11:27:08.007Z</time></trkpt><trkpt lat="41.0020283" lon="14.3187467"><ele>21.0</ele><time>2026-04-04T11:27:09.007Z</time></trkpt><trkpt lat="41.0019417" lon="14.3187583"><ele>21.0</ele><time>2026-04-04T11:27:10.006Z</time></trkpt><trkpt lat="41.0018533" lon="14.3187467"><ele>21.0</ele><time>2026-04-04T11:27:11.006Z</time></trkpt><trkpt lat="41.001765" lon="14.3187133"><ele>21.0</ele><time>2026-04-04T11:27:12.008Z</time></trkpt><trkpt lat="41.001675" lon="14.318695"><ele>21.0</ele><time>2026-04-04T11:27:13.006Z</time></trkpt><trkpt lat="41.0015833" lon="14.31869"><ele>21.0</ele><time>2026-04-04T11:27:14.007Z</time></trkpt><trkpt lat="41.0014917" lon="14.31868"><ele>21.0</ele><time>2026-04-04T11:27:15.006Z</time></trkpt><trkpt lat="41.0014017" lon="14.3186483"><ele>21.0</ele><time>2026-04-04T11:27:16.006Z</time></trkpt><trkpt lat="41.0013183" lon="14.318595"><ele>21.0</ele><time>2026-04-04T11:27:17.006Z</time></trkpt><trkpt lat="41.0012383" lon="14.31854"><ele>21.0</ele><time>2026-04-04T11:27:18.006Z</time></trkpt><trkpt lat="41.0011533" lon="14.3185"><ele>21.0</ele><time>2026-04-04T11:27:19.006Z</time></trkpt><trkpt lat="41.0010683" lon="14.3184733"><ele>21.0</ele><time>2026-04-04T11:27:20.006Z</time></trkpt><trkpt lat="41.0009783" lon="14.318455"><ele>21.0</ele><time>2026-04-04T11:27:21.007Z</time></trkpt><trkpt lat="41.00089" lon="14.3184433"><ele>21.0</ele><time>2026-04-04T11:27:22.005Z</time></trkpt><trkpt lat="41.0008017" lon="14.31843"><ele>21.0</ele><time>2026-04-04T11:27:23.006Z</time></trkpt><trkpt lat="41.0007167" lon="14.3184167"><ele>21.0</ele><time>2026-04-04T11:27:24.006Z</time></trkpt><trkpt lat="41.00063" lon="14.3184083"><ele>21.0</ele><time>2026-04-04T11:27:25.007Z</time></trkpt><trkpt lat="41.0005433" lon="14.3183983"><ele>21.0</ele><time>2026-04-04T11:27:26.006Z</time></trkpt><trkpt lat="41.0004533" lon="14.3183883"><ele>21.0</ele><time>2026-04-04T11:27:27.006Z</time></trkpt><trkpt lat="41.0003667" lon="14.3183783"><ele>21.0</ele><time>2026-04-04T11:27:28.006Z</time></trkpt><trkpt lat="41.00028" lon="14.3183667"><ele>21.0</ele><time>2026-04-04T11:27:29.007Z</time></trkpt><trkpt lat="41.0001933" lon="14.3183583"><ele>21.0</ele><time>2026-04-04T11:27:30.006Z</time></trkpt><trkpt lat="41.0001083" lon="14.318345"><ele>21.0</ele><time>2026-04-04T11:27:31.006Z</time></trkpt><trkpt lat="41.00002" lon="14.3183333"><ele>21.0</ele><time>2026-04-04T11:27:32.006Z</time></trkpt><trkpt lat="40.99993" lon="14.3183233"><ele>21.0</ele><time>2026-04-04T11:27:33.006Z</time></trkpt><trkpt lat="40.9998417" lon="14.31831"><ele>21.0</ele><time>2026-04-04T11:27:34.006Z</time></trkpt><trkpt lat="40.9997533" lon="14.3183"><ele>21.0</ele><time>2026-04-04T11:27:35.007Z</time></trkpt><trkpt lat="40.9996683" lon="14.31829"><ele>21.0</ele><time>2026-04-04T11:27:36.007Z</time></trkpt><trkpt lat="40.999585" lon="14.31828"><ele>21.0</ele><time>2026-04-04T11:27:37.006Z</time></trkpt><trkpt lat="40.9995" lon="14.318265"><ele>21.0</ele><time>2026-04-04T11:27:38.006Z</time></trkpt><trkpt lat="40.9994167" lon="14.3182517"><ele>21.0</ele><time>2026-04-04T11:27:39.006Z</time></trkpt><trkpt lat="40.999335" lon="14.3182417"><ele>21.0</ele><time>2026-04-04T11:27:40.006Z</time></trkpt><trkpt lat="40.999255" lon="14.3182367"><ele>21.0</ele><time>2026-04-04T11:27:41.006Z</time></trkpt><trkpt lat="40.99917" lon="14.3182333"><ele>21.0</ele><time>2026-04-04T11:27:42.006Z</time></trkpt><trkpt lat="40.9990867" lon="14.3182283"><ele>21.0</ele><time>2026-04-04T11:27:43.006Z</time></trkpt><trkpt lat="40.9990033" lon="14.3182233"><ele>21.0</ele><time>2026-04-04T11:27:44.007Z</time></trkpt><trkpt lat="40.9989183" lon="14.3182183"><ele>21.0</ele><time>2026-04-04T11:27:45.006Z</time></trkpt><trkpt lat="40.9988367" lon="14.3182083"><ele>21.0</ele><time>2026-04-04T11:27:46.006Z</time></trkpt><trkpt lat="40.9987533" lon="14.318195"><ele>21.0</ele><time>2026-04-04T11:27:47.006Z</time></trkpt><trkpt lat="40.9986683" lon="14.3181833"><ele>21.0</ele><time>2026-04-04T11:27:48.006Z</time></trkpt><trkpt lat="40.9985833" lon="14.3181717"><ele>21.0</ele><time>2026-04-04T11:27:49.006Z</time></trkpt><trkpt lat="40.9985" lon="14.3181633"><ele>21.0</ele><time>2026-04-04T11:27:50.007Z</time></trkpt><trkpt lat="40.998415" lon="14.3181567"><ele>21.0</ele><time>2026-04-04T11:27:51.006Z</time></trkpt><trkpt lat="40.99833" lon="14.3181517"><ele>21.0</ele><time>2026-04-04T11:27:52.006Z</time></trkpt><trkpt lat="40.9982433" lon="14.318145"><ele>21.0</ele><time>2026-04-04T11:27:53.007Z</time></trkpt><trkpt lat="40.99816" lon="14.31814"><ele>21.0</ele><time>2026-04-04T11:27:54.006Z</time></trkpt><trkpt lat="40.998075" lon="14.3181317"><ele>20.833333333333332</ele><time>2026-04-04T11:27:55.007Z</time></trkpt><trkpt lat="40.9979883" lon="14.3181233"><ele>20.666666666666668</ele><time>2026-04-04T11:27:56.006Z</time></trkpt><trkpt lat="40.9979017" lon="14.3181183"><ele>20.5</ele><time>2026-04-04T11:27:57.006Z</time></trkpt><trkpt lat="40.997815" lon="14.3181083"><ele>20.333333333333336</ele><time>2026-04-04T11:27:58.006Z</time></trkpt><trkpt lat="40.99773" lon="14.3180967"><ele>20.166666666666668</ele><time>2026-04-04T11:27:59.006Z</time></trkpt><trkpt lat="40.997645" lon="14.3180783"><ele>20.0</ele><time>2026-04-04T11:28:00.008Z</time></trkpt><trkpt lat="40.9975617" lon="14.3180667"><ele>19.833333333333336</ele><time>2026-04-04T11:28:01.006Z</time></trkpt><trkpt lat="40.99748" lon="14.3180583"><ele>19.666666666666668</ele><time>2026-04-04T11:28:02.007Z</time></trkpt><trkpt lat="40.9973967" lon="14.3180483"><ele>19.5</ele><time>2026-04-04T11:28:03.006Z</time></trkpt><trkpt lat="40.997315" lon="14.3180383"><ele>19.333333333333332</ele><time>2026-04-04T11:28:04.008Z</time></trkpt><trkpt lat="40.997235" lon="14.3180317"><ele>19.166666666666664</ele><time>2026-04-04T11:28:05.006Z</time></trkpt><trkpt lat="40.997155" lon="14.3180233"><ele>19.0</ele><time>2026-04-04T11:28:06.006Z</time></trkpt><trkpt lat="40.9970733" lon="14.318015"><ele>19.0</ele><time>2026-04-04T11:28:07.006Z</time></trkpt><trkpt lat="40.99699" lon="14.31801"><ele>19.0</ele><time>2026-04-04T11:28:08.008Z</time></trkpt><trkpt lat="40.9969083" lon="14.3180033"><ele>19.0</ele><time>2026-04-04T11:28:09.006Z</time></trkpt><trkpt lat="40.996825" lon="14.318"><ele>19.0</ele><time>2026-04-04T11:28:10.006Z</time></trkpt><trkpt lat="40.9967417" lon="14.3179933"><ele>19.0</ele><time>2026-04-04T11:28:11.006Z</time></trkpt><trkpt lat="40.99666" lon="14.3179933"><ele>19.0</ele><time>2026-04-04T11:28:12.006Z</time></trkpt><trkpt lat="40.9965767" lon="14.3179883"><ele>19.166666666666664</ele><time>2026-04-04T11:28:13.007Z</time></trkpt><trkpt lat="40.9964883" lon="14.31798"><ele>19.333333333333332</ele><time>2026-04-04T11:28:14.007Z</time></trkpt><trkpt lat="40.9964017" lon="14.3179717"><ele>19.5</ele><time>2026-04-04T11:28:15.008Z</time></trkpt><trkpt lat="40.9963167" lon="14.31796"><ele>19.666666666666668</ele><time>2026-04-04T11:28:16.006Z</time></trkpt><trkpt lat="40.9962317" lon="14.31795"><ele>19.833333333333336</ele><time>2026-04-04T11:28:17.006Z</time></trkpt><trkpt lat="40.996145" lon="14.3179433"><ele>20.0</ele><time>2026-04-04T11:28:18.006Z</time></trkpt><trkpt lat="40.99606" lon="14.3179333"><ele>20.0</ele><time>2026-04-04T11:28:19.007Z</time></trkpt><trkpt lat="40.9959783" lon="14.3179217"><ele>20.0</ele><time>2026-04-04T11:28:20.007Z</time></trkpt><trkpt lat="40.9958933" lon="14.31791"><ele>20.0</ele><time>2026-04-04T11:28:21.007Z</time></trkpt><trkpt lat="40.99581" lon="14.3178967"><ele>20.0</ele><time>2026-04-04T11:28:22.009Z</time></trkpt><trkpt lat="40.995725" lon="14.3178933"><ele>20.0</ele><time>2026-04-04T11:28:23.007Z</time></trkpt><trkpt lat="40.99564" lon="14.3178817"><ele>20.0</ele><time>2026-04-04T11:28:24.007Z</time></trkpt><trkpt lat="40.995555" lon="14.3178733"><ele>19.833333333333336</ele><time>2026-04-04T11:28:25.006Z</time></trkpt><trkpt lat="40.9954683" lon="14.3178633"><ele>19.666666666666668</ele><time>2026-04-04T11:28:26.007Z</time></trkpt><trkpt lat="40.9953817" lon="14.3178517"><ele>19.5</ele><time>2026-04-04T11:28:27.006Z</time></trkpt><trkpt lat="40.9952967" lon="14.3178417"><ele>19.333333333333332</ele><time>2026-04-04T11:28:28.006Z</time></trkpt><trkpt lat="40.9952083" lon="14.3178333"><ele>19.166666666666664</ele><time>2026-04-04T11:28:29.007Z</time></trkpt><trkpt lat="40.99512" lon="14.317825"><ele>19.0</ele><time>2026-04-04T11:28:30.006Z</time></trkpt><trkpt lat="40.99503" lon="14.3178233"><ele>19.0</ele><time>2026-04-04T11:28:31.007Z</time></trkpt><trkpt lat="40.9949433" lon="14.31782"><ele>19.0</ele><time>2026-04-04T11:28:32.006Z</time></trkpt><trkpt lat="40.9948567" lon="14.3178083"><ele>19.0</ele><time>2026-04-04T11:28:33.007Z</time></trkpt><trkpt lat="40.9947683" lon="14.3177983"><ele>19.0</ele><time>2026-04-04T11:28:34.006Z</time></trkpt><trkpt lat="40.9946783" lon="14.3177917"><ele>19.0</ele><time>2026-04-04T11:28:35.006Z</time></trkpt><trkpt lat="40.9945867" lon="14.317785"><ele>19.0</ele><time>2026-04-04T11:28:36.006Z</time></trkpt><trkpt lat="40.9944967" lon="14.317775"><ele>19.0</ele><time>2026-04-04T11:28:37.006Z</time></trkpt><trkpt lat="40.9944083" lon="14.3177667"><ele>19.0</ele><time>2026-04-04T11:28:38.006Z</time></trkpt><trkpt lat="40.9943183" lon="14.3177567"><ele>19.0</ele><time>2026-04-04T11:28:39.006Z</time></trkpt><trkpt lat="40.9942267" lon="14.31775"><ele>19.0</ele><time>2026-04-04T11:28:40.006Z</time></trkpt><trkpt lat="40.9941317" lon="14.317745"><ele>19.0</ele><time>2026-04-04T11:28:41.007Z</time></trkpt><trkpt lat="40.9940383" lon="14.3177367"><ele>19.0</ele><time>2026-04-04T11:28:42.008Z</time></trkpt><trkpt lat="40.993945" lon="14.3177267"><ele>19.0</ele><time>2026-04-04T11:28:43.009Z</time></trkpt><trkpt lat="40.9938517" lon="14.31772"><ele>19.0</ele><time>2026-04-04T11:28:44.007Z</time></trkpt><trkpt lat="40.99376" lon="14.3177117"><ele>19.0</ele><time>2026-04-04T11:28:45.006Z</time></trkpt><trkpt lat="40.993665" lon="14.3177"><ele>19.0</ele><time>2026-04-04T11:28:46.007Z</time></trkpt><trkpt lat="40.99357" lon="14.317685"><ele>19.0</ele><time>2026-04-04T11:28:47.006Z</time></trkpt><trkpt lat="40.9934767" lon="14.3176717"><ele>19.0</ele><time>2026-04-04T11:28:48.007Z</time></trkpt><trkpt lat="40.993385" lon="14.3176583"><ele>19.0</ele><time>2026-04-04T11:28:49.006Z</time></trkpt><trkpt lat="40.9932917" lon="14.317645"><ele>19.0</ele><time>2026-04-04T11:28:50.006Z</time></trkpt><trkpt lat="40.9932017" lon="14.31763"><ele>19.0</ele><time>2026-04-04T11:28:51.006Z</time></trkpt><trkpt lat="40.9931117" lon="14.3176117"><ele>19.0</ele><time>2026-04-04T11:28:52.006Z</time></trkpt><trkpt lat="40.9930183" lon="14.3175867"><ele>19.0</ele><time>2026-04-04T11:28:53.006Z</time></trkpt><trkpt lat="40.9929267" lon="14.3175533"><ele>19.0</ele><time>2026-04-04T11:28:54.007Z</time></trkpt><trkpt lat="40.9928367" lon="14.31751"><ele>19.0</ele><time>2026-04-04T11:28:55.006Z</time></trkpt><trkpt lat="40.9927467" lon="14.3174617"><ele>19.0</ele><time>2026-04-04T11:28:56.008Z</time></trkpt><trkpt lat="40.99266" lon="14.317405"><ele>19.0</ele><time>2026-04-04T11:28:57.006Z</time></trkpt><trkpt lat="40.9925783" lon="14.3173467"><ele>19.0</ele><time>2026-04-04T11:28:58.006Z</time></trkpt><trkpt lat="40.992495" lon="14.317285"><ele>19.0</ele><time>2026-04-04T11:28:59.005Z</time></trkpt><trkpt lat="40.992415" lon="14.3172167"><ele>19.0</ele><time>2026-04-04T11:29:00.005Z</time></trkpt><trkpt lat="40.992335" lon="14.31715"><ele>19.0</ele><time>2026-04-04T11:29:01.006Z</time></trkpt><trkpt lat="40.9922583" lon="14.3170733"><ele>19.2</ele><time>2026-04-04T11:29:02.005Z</time></trkpt><trkpt lat="40.9921833" lon="14.316995"><ele>19.4</ele><time>2026-04-04T11:29:03.006Z</time></trkpt><trkpt lat="40.9921067" lon="14.3169183"><ele>19.6</ele><time>2026-04-04T11:29:04.006Z</time></trkpt><trkpt lat="40.99203" lon="14.316845"><ele>19.8</ele><time>2026-04-04T11:29:05.005Z</time></trkpt><trkpt lat="40.9919533" lon="14.316765"><ele>20.0</ele><time>2026-04-04T11:29:06.008Z</time></trkpt><trkpt lat="40.9918767" lon="14.3166867"><ele>20.0</ele><time>2026-04-04T11:29:07.006Z</time></trkpt><trkpt lat="40.9918" lon="14.3166117"><ele>20.0</ele><time>2026-04-04T11:29:08.005Z</time></trkpt><trkpt lat="40.9917267" lon="14.3165283"><ele>20.0</ele><time>2026-04-04T11:29:09.005Z</time></trkpt><trkpt lat="40.9916533" lon="14.31645"><ele>20.0</ele><time>2026-04-04T11:29:10.006Z</time></trkpt><trkpt lat="40.99158" lon="14.3163717"><ele>20.0</ele><time>2026-04-04T11:29:11.006Z</time></trkpt><trkpt lat="40.9915083" lon="14.316295"><ele>19.8</ele><time>2026-04-04T11:29:12.005Z</time></trkpt><trkpt lat="40.9914333" lon="14.31622"><ele>19.6</ele><time>2026-04-04T11:29:13.005Z</time></trkpt><trkpt lat="40.99136" lon="14.316145"><ele>19.4</ele><time>2026-04-04T11:29:14.007Z</time></trkpt><trkpt lat="40.9912833" lon="14.31607"><ele>19.2</ele><time>2026-04-04T11:29:15.005Z</time></trkpt><trkpt lat="40.99121" lon="14.3159983"><ele>19.0</ele><time>2026-04-04T11:29:16.005Z</time></trkpt><trkpt lat="40.9911367" lon="14.3159267"><ele>19.0</ele><time>2026-04-04T11:29:17.005Z</time></trkpt><trkpt lat="40.9910633" lon="14.3158517"><ele>19.0</ele><time>2026-04-04T11:29:18.006Z</time></trkpt><trkpt lat="40.9909883" lon="14.3157733"><ele>19.0</ele><time>2026-04-04T11:29:19.005Z</time></trkpt><trkpt lat="40.9909117" lon="14.3156967"><ele>19.0</ele><time>2026-04-04T11:29:20.006Z</time></trkpt><trkpt lat="40.9908383" lon="14.3156167"><ele>19.0</ele><time>2026-04-04T11:29:21.007Z</time></trkpt><trkpt lat="40.9907667" lon="14.3155367"><ele>19.2</ele><time>2026-04-04T11:29:22.005Z</time></trkpt><trkpt lat="40.9906983" lon="14.3154533"><ele>19.4</ele><time>2026-04-04T11:29:23.005Z</time></trkpt><trkpt lat="40.990625" lon="14.3153633"><ele>19.6</ele><time>2026-04-04T11:29:24.005Z</time></trkpt><trkpt lat="40.9905467" lon="14.315275"><ele>19.8</ele><time>2026-04-04T11:29:25.005Z</time></trkpt><trkpt lat="40.990465" lon="14.31519"><ele>20.0</ele><time>2026-04-04T11:29:26.005Z</time></trkpt><trkpt lat="40.99038" lon="14.315105"><ele>20.0</ele><time>2026-04-04T11:29:27.005Z</time></trkpt><trkpt lat="40.990295" lon="14.315025"><ele>20.0</ele><time>2026-04-04T11:29:28.005Z</time></trkpt><trkpt lat="40.9902067" lon="14.3149417"><ele>20.0</ele><time>2026-04-04T11:29:29.005Z</time></trkpt><trkpt lat="40.9901267" lon="14.3148533"><ele>20.0</ele><time>2026-04-04T11:29:30.006Z</time></trkpt><trkpt lat="40.99005" lon="14.3147617"><ele>20.0</ele><time>2026-04-04T11:29:31.005Z</time></trkpt><trkpt lat="40.9899633" lon="14.314675"><ele>20.2</ele><time>2026-04-04T11:29:32.005Z</time></trkpt><trkpt lat="40.9898833" lon="14.31459"><ele>20.4</ele><time>2026-04-04T11:29:33.005Z</time></trkpt><trkpt lat="40.9898033" lon="14.3145067"><ele>20.6</ele><time>2026-04-04T11:29:34.006Z</time></trkpt><trkpt lat="40.989725" lon="14.3144217"><ele>20.8</ele><time>2026-04-04T11:29:35.005Z</time></trkpt><trkpt lat="40.9896483" lon="14.3143417"><ele>21.0</ele><time>2026-04-04T11:29:36.006Z</time></trkpt><trkpt lat="40.9895717" lon="14.3142617"><ele>21.0</ele><time>2026-04-04T11:29:37.006Z</time></trkpt><trkpt lat="40.989495" lon="14.3141817"><ele>21.0</ele><time>2026-04-04T11:29:38.005Z</time></trkpt><trkpt lat="40.9894183" lon="14.3141017"><ele>21.0</ele><time>2026-04-04T11:29:39.006Z</time></trkpt><trkpt lat="40.9893383" lon="14.3140233"><ele>21.0</ele><time>2026-04-04T11:29:40.005Z</time></trkpt><trkpt lat="40.9892583" lon="14.3139417"><ele>21.0</ele><time>2026-04-04T11:29:41.006Z</time></trkpt><trkpt lat="40.98918" lon="14.3138633"><ele>21.0</ele><time>2026-04-04T11:29:42.005Z</time></trkpt><trkpt lat="40.9891" lon="14.3137867"><ele>21.0</ele><time>2026-04-04T11:29:43.005Z</time></trkpt><trkpt lat="40.9890217" lon="14.313705"><ele>21.0</ele><time>2026-04-04T11:29:44.006Z</time></trkpt><trkpt lat="40.9889433" lon="14.313625"><ele>21.0</ele><time>2026-04-04T11:29:45.005Z</time></trkpt><trkpt lat="40.9888617" lon="14.3135417"><ele>21.0</ele><time>2026-04-04T11:29:46.007Z</time></trkpt><trkpt lat="40.9887783" lon="14.31346"><ele>21.0</ele><time>2026-04-04T11:29:47.005Z</time></trkpt><trkpt lat="40.9886967" lon="14.3133783"><ele>21.0</ele><time>2026-04-04T11:29:48.006Z</time></trkpt><trkpt lat="40.988615" lon="14.3132917"><ele>21.0</ele><time>2026-04-04T11:29:49.005Z</time></trkpt><trkpt lat="40.9885317" lon="14.3132083"><ele>21.0</ele><time>2026-04-04T11:29:50.005Z</time></trkpt><trkpt lat="40.9884467" lon="14.313125"><ele>21.0</ele><time>2026-04-04T11:29:51.005Z</time></trkpt><trkpt lat="40.9883633" lon="14.3130417"><ele>20.6</ele><time>2026-04-04T11:29:52.005Z</time></trkpt><trkpt lat="40.98828" lon="14.31296"><ele>20.200000000000003</ele><time>2026-04-04T11:29:53.006Z</time></trkpt><trkpt lat="40.988195" lon="14.31288"><ele>19.799999999999997</ele><time>2026-04-04T11:29:54.006Z</time></trkpt><trkpt lat="40.98811" lon="14.3127917"><ele>19.4</ele><time>2026-04-04T11:29:55.009Z</time></trkpt><trkpt lat="40.9880267" lon="14.3127067"><ele>19.0</ele><time>2026-04-04T11:29:56.005Z</time></trkpt><trkpt lat="40.987945" lon="14.3126233"><ele>19.0</ele><time>2026-04-04T11:29:57.005Z</time></trkpt><trkpt lat="40.9878617" lon="14.31254"><ele>19.0</ele><time>2026-04-04T11:29:58.005Z</time></trkpt><trkpt lat="40.9877767" lon="14.3124583"><ele>19.0</ele><time>2026-04-04T11:29:59.005Z</time></trkpt><trkpt lat="40.9876917" lon="14.3123783"><ele>19.0</ele><time>2026-04-04T11:30:00.006Z</time></trkpt><trkpt lat="40.9876067" lon="14.3123"><ele>19.0</ele><time>2026-04-04T11:30:01.007Z</time></trkpt><trkpt lat="40.987525" lon="14.31222"><ele>19.2</ele><time>2026-04-04T11:30:02.005Z</time></trkpt><trkpt lat="40.9874417" lon="14.3121367"><ele>19.4</ele><time>2026-04-04T11:30:03.005Z</time></trkpt><trkpt lat="40.9873617" lon="14.3120517"><ele>19.6</ele><time>2026-04-04T11:30:04.005Z</time></trkpt><trkpt lat="40.98728" lon="14.3119683"><ele>19.8</ele><time>2026-04-04T11:30:05.005Z</time></trkpt><trkpt lat="40.9871983" lon="14.3118883"><ele>20.0</ele><time>2026-04-04T11:30:06.005Z</time></trkpt><trkpt lat="40.987115" lon="14.3118083"><ele>20.0</ele><time>2026-04-04T11:30:07.005Z</time></trkpt><trkpt lat="40.9870283" lon="14.311735"><ele>20.0</ele><time>2026-04-04T11:30:08.005Z</time></trkpt><trkpt lat="40.986935" lon="14.31168"><ele>20.0</ele><time>2026-04-04T11:30:09.005Z</time></trkpt><trkpt lat="40.9868333" lon="14.3116433"><ele>20.0</ele><time>2026-04-04T11:30:10.006Z</time></trkpt><trkpt lat="40.9867283" lon="14.3116217"><ele>20.0</ele><time>2026-04-04T11:30:11.005Z</time></trkpt><trkpt lat="40.9866217" lon="14.3116067"><ele>20.0</ele><time>2026-04-04T11:30:12.006Z</time></trkpt><trkpt lat="40.9865183" lon="14.311595"><ele>20.0</ele><time>2026-04-04T11:30:13.005Z</time></trkpt><trkpt lat="40.9864167" lon="14.3115817"><ele>20.0</ele><time>2026-04-04T11:30:14.005Z</time></trkpt><trkpt lat="40.986315" lon="14.3115667"><ele>20.0</ele><time>2026-04-04T11:30:15.005Z</time></trkpt><trkpt lat="40.9862133" lon="14.3115533"><ele>20.0</ele><time>2026-04-04T11:30:16.006Z</time></trkpt><trkpt lat="40.9861083" lon="14.3115433"><ele>20.0</ele><time>2026-04-04T11:30:17.006Z</time></trkpt><trkpt lat="40.986005" lon="14.3115283"><ele>20.0</ele><time>2026-04-04T11:30:18.008Z</time></trkpt><trkpt lat="40.9859017" lon="14.311515"><ele>20.0</ele><time>2026-04-04T11:30:19.005Z</time></trkpt><trkpt lat="40.9857983" lon="14.3114983"><ele>20.0</ele><time>2026-04-04T11:30:20.006Z</time></trkpt><trkpt lat="40.9856983" lon="14.31148"><ele>20.0</ele><time>2026-04-04T11:30:21.005Z</time></trkpt><trkpt lat="40.9855967" lon="14.3114633"><ele>20.0</ele><time>2026-04-04T11:30:22.005Z</time></trkpt><trkpt lat="40.985495" lon="14.3114483"><ele>20.0</ele><time>2026-04-04T11:30:23.007Z</time></trkpt><trkpt lat="40.9853967" lon="14.3114367"><ele>20.0</ele><time>2026-04-04T11:30:24.006Z</time></trkpt><trkpt lat="40.9852967" lon="14.3114317"><ele>20.0</ele><time>2026-04-04T11:30:25.005Z</time></trkpt><trkpt lat="40.9851967" lon="14.31144"><ele>20.0</ele><time>2026-04-04T11:30:26.005Z</time></trkpt><trkpt lat="40.9851" lon="14.3114617"><ele>20.2</ele><time>2026-04-04T11:30:27.008Z</time></trkpt><trkpt lat="40.985005" lon="14.3114917"><ele>20.4</ele><time>2026-04-04T11:30:28.005Z</time></trkpt><trkpt lat="40.984915" lon="14.311525"><ele>20.6</ele><time>2026-04-04T11:30:29.005Z</time></trkpt><trkpt lat="40.984825" lon="14.311565"><ele>20.8</ele><time>2026-04-04T11:30:30.005Z</time></trkpt><trkpt lat="40.9847383" lon="14.3116067"><ele>21.0</ele><time>2026-04-04T11:30:31.006Z</time></trkpt><trkpt lat="40.984645" lon="14.3116517"><ele>21.0</ele><time>2026-04-04T11:30:32.006Z</time></trkpt><trkpt lat="40.9845517" lon="14.311705"><ele>21.0</ele><time>2026-04-04T11:30:33.007Z</time></trkpt><trkpt lat="40.9844633" lon="14.3117533"><ele>21.0</ele><time>2026-04-04T11:30:34.005Z</time></trkpt><trkpt lat="40.98437" lon="14.3118"><ele>21.0</ele><time>2026-04-04T11:30:35.006Z</time></trkpt><trkpt lat="40.9842783" lon="14.3118467"><ele>21.0</ele><time>2026-04-04T11:30:36.006Z</time></trkpt><trkpt lat="40.98419" lon="14.3118917"><ele>20.8</ele><time>2026-04-04T11:30:37.007Z</time></trkpt><trkpt lat="40.9841" lon="14.31194"><ele>20.6</ele><time>2026-04-04T11:30:38.005Z</time></trkpt><trkpt lat="40.98401" lon="14.3119817"><ele>20.4</ele><time>2026-04-04T11:30:39.005Z</time></trkpt><trkpt lat="40.9839183" lon="14.312025"><ele>20.2</ele><time>2026-04-04T11:30:40.005Z</time></trkpt><trkpt lat="40.9838267" lon="14.3120733"><ele>20.0</ele><time>2026-04-04T11:30:41.005Z</time></trkpt><trkpt lat="40.983735" lon="14.3121217"><ele>20.0</ele><time>2026-04-04T11:30:42.005Z</time></trkpt><trkpt lat="40.983645" lon="14.31217"><ele>20.0</ele><time>2026-04-04T11:30:43.009Z</time></trkpt><trkpt lat="40.9835533" lon="14.312215"><ele>20.0</ele><time>2026-04-04T11:30:44.007Z</time></trkpt><trkpt lat="40.9834667" lon="14.3122567"><ele>20.0</ele><time>2026-04-04T11:30:45.005Z</time></trkpt><trkpt lat="40.9833767" lon="14.3123"><ele>20.0</ele><time>2026-04-04T11:30:46.006Z</time></trkpt><trkpt lat="40.9832817" lon="14.312345"><ele>20.0</ele><time>2026-04-04T11:30:47.008Z</time></trkpt><trkpt lat="40.9831883" lon="14.3123783"><ele>20.0</ele><time>2026-04-04T11:30:48.005Z</time></trkpt><trkpt lat="40.9831" lon="14.3124033"><ele>20.0</ele><time>2026-04-04T11:30:49.005Z</time></trkpt><trkpt lat="40.9830083" lon="14.3124233"><ele>20.0</ele><time>2026-04-04T11:30:50.006Z</time></trkpt><trkpt lat="40.982915" lon="14.312435"><ele>20.0</ele><time>2026-04-04T11:30:51.005Z</time></trkpt><trkpt lat="40.98282" lon="14.312435"><ele>20.0</ele><time>2026-04-04T11:30:52.005Z</time></trkpt><trkpt lat="40.9827233" lon="14.3124333"><ele>20.0</ele><time>2026-04-04T11:30:53.005Z</time></trkpt><trkpt lat="40.9826283" lon="14.31243"><ele>20.0</ele><time>2026-04-04T11:30:54.006Z</time></trkpt><trkpt lat="40.9825333" lon="14.3124233"><ele>20.0</ele><time>2026-04-04T11:30:55.01Z</time></trkpt><trkpt lat="40.9824383" lon="14.31242"><ele>20.0</ele><time>2026-04-04T11:30:56.005Z</time></trkpt><trkpt lat="40.982345" lon="14.3124167"><ele>20.0</ele><time>2026-04-04T11:30:57.005Z</time></trkpt><trkpt lat="40.9822517" lon="14.31242"><ele>20.0</ele><time>2026-04-04T11:30:58.007Z</time></trkpt><trkpt lat="40.9821583" lon="14.3124233"><ele>20.0</ele><time>2026-04-04T11:30:59.006Z</time></trkpt><trkpt lat="40.9820633" lon="14.312425"><ele>20.0</ele><time>2026-04-04T11:31:00.006Z</time></trkpt><trkpt lat="40.9819683" lon="14.3124233"><ele>20.0</ele><time>2026-04-04T11:31:01.006Z</time></trkpt><trkpt lat="40.981875" lon="14.31242"><ele>20.0</ele><time>2026-04-04T11:31:02.006Z</time></trkpt><trkpt lat="40.9817867" lon="14.3124133"><ele>20.0</ele><time>2026-04-04T11:31:03.005Z</time></trkpt><trkpt lat="40.9816983" lon="14.3124067"><ele>20.0</ele><time>2026-04-04T11:31:04.005Z</time></trkpt><trkpt lat="40.98161" lon="14.3123983"><ele>20.0</ele><time>2026-04-04T11:31:05.005Z</time></trkpt><trkpt lat="40.9815183" lon="14.3123883"><ele>20.0</ele><time>2026-04-04T11:31:06.006Z</time></trkpt><trkpt lat="40.9814283" lon="14.3123717"><ele>20.0</ele><time>2026-04-04T11:31:07.006Z</time></trkpt><trkpt lat="40.9813417" lon="14.3123433"><ele>20.2</ele><time>2026-04-04T11:31:08.005Z</time></trkpt><trkpt lat="40.9812583" lon="14.312315"><ele>20.4</ele><time>2026-04-04T11:31:09.007Z</time></trkpt><trkpt lat="40.9811733" lon="14.3122783"><ele>20.6</ele><time>2026-04-04T11:31:10.007Z</time></trkpt><trkpt lat="40.9810867" lon="14.312235"><ele>20.8</ele><time>2026-04-04T11:31:11.006Z</time></trkpt><trkpt lat="40.9809983" lon="14.3121867"><ele>21.0</ele><time>2026-04-04T11:31:12.005Z</time></trkpt><trkpt lat="40.9809117" lon="14.3121383"><ele>21.4</ele><time>2026-04-04T11:31:13.005Z</time></trkpt><trkpt lat="40.9808283" lon="14.3120883"><ele>21.8</ele><time>2026-04-04T11:31:14.005Z</time></trkpt><trkpt lat="40.9807433" lon="14.312035"><ele>22.2</ele><time>2026-04-04T11:31:15.006Z</time></trkpt><trkpt lat="40.9806583" lon="14.3119833"><ele>22.599999999999998</ele><time>2026-04-04T11:31:16.005Z</time></trkpt><trkpt lat="40.9805733" lon="14.31193"><ele>23.0</ele><time>2026-04-04T11:31:17.005Z</time></trkpt><trkpt lat="40.9804883" lon="14.3118767"><ele>23.0</ele><time>2026-04-04T11:31:18.006Z</time></trkpt><trkpt lat="40.9804033" lon="14.3118217"><ele>23.0</ele><time>2026-04-04T11:31:19.007Z</time></trkpt><trkpt lat="40.9803217" lon="14.31177"><ele>23.0</ele><time>2026-04-04T11:31:20.005Z</time></trkpt><trkpt lat="40.9802433" lon="14.3117133"><ele>23.0</ele><time>2026-04-04T11:31:21.005Z</time></trkpt><trkpt lat="40.9801633" lon="14.31166"><ele>23.0</ele><time>2026-04-04T11:31:22.005Z</time></trkpt><trkpt lat="40.98008" lon="14.3116067"><ele>22.599999999999998</ele><time>2026-04-04T11:31:23.006Z</time></trkpt><trkpt lat="40.9799983" lon="14.31155"><ele>22.2</ele><time>2026-04-04T11:31:24.012Z</time></trkpt><trkpt lat="40.979915" lon="14.3114833"><ele>21.8</ele><time>2026-04-04T11:31:25.006Z</time></trkpt><trkpt lat="40.979835" lon="14.31141"><ele>21.4</ele><time>2026-04-04T11:31:26.01Z</time></trkpt><trkpt lat="40.9797517" lon="14.3113417"><ele>21.0</ele><time>2026-04-04T11:31:27.007Z</time></trkpt><trkpt lat="40.97967" lon="14.3112683"><ele>21.0</ele><time>2026-04-04T11:31:28.005Z</time></trkpt><trkpt lat="40.97959" lon="14.3111933"><ele>21.0</ele><time>2026-04-04T11:31:29.007Z</time></trkpt><trkpt lat="40.9795167" lon="14.3111217"><ele>21.0</ele><time>2026-04-04T11:31:30.006Z</time></trkpt><trkpt lat="40.9794383" lon="14.311065"><ele>21.0</ele><time>2026-04-04T11:31:31.008Z</time></trkpt><trkpt lat="40.9793583" lon="14.311"><ele>21.0</ele><time>2026-04-04T11:31:32.007Z</time></trkpt><trkpt lat="40.9792817" lon="14.3109367"><ele>21.0</ele><time>2026-04-04T11:31:33.005Z</time></trkpt><trkpt lat="40.9792033" lon="14.3108667"><ele>21.0</ele><time>2026-04-04T11:31:34.005Z</time></trkpt><trkpt lat="40.9791233" lon="14.310795"><ele>21.0</ele><time>2026-04-04T11:31:35.006Z</time></trkpt><trkpt lat="40.9790483" lon="14.31072"><ele>21.0</ele><time>2026-04-04T11:31:36.006Z</time></trkpt><trkpt lat="40.9789717" lon="14.3106383"><ele>21.0</ele><time>2026-04-04T11:31:37.005Z</time></trkpt><trkpt lat="40.978895" lon="14.310565"><ele>20.8</ele><time>2026-04-04T11:31:38.006Z</time></trkpt><trkpt lat="40.9788183" lon="14.3104933"><ele>20.6</ele><time>2026-04-04T11:31:39.008Z</time></trkpt><trkpt lat="40.9787417" lon="14.3104183"><ele>20.4</ele><time>2026-04-04T11:31:40.007Z</time></trkpt><trkpt lat="40.9786617" lon="14.3103483"><ele>20.2</ele><time>2026-04-04T11:31:41.005Z</time></trkpt><trkpt lat="40.978585" lon="14.3102783"><ele>20.0</ele><time>2026-04-04T11:31:42.007Z</time></trkpt><trkpt lat="40.9785067" lon="14.31021"><ele>20.0</ele><time>2026-04-04T11:31:43.006Z</time></trkpt><trkpt lat="40.97843" lon="14.3101317"><ele>20.0</ele><time>2026-04-04T11:31:44.006Z</time></trkpt><trkpt lat="40.978355" lon="14.3100583"><ele>20.0</ele><time>2026-04-04T11:31:45.006Z</time></trkpt><trkpt lat="40.97828" lon="14.309985"><ele>20.0</ele><time>2026-04-04T11:31:46.005Z</time></trkpt><trkpt lat="40.9782083" lon="14.3099083"><ele>20.0</ele><time>2026-04-04T11:31:47.015Z</time></trkpt><trkpt lat="40.978135" lon="14.30983"><ele>20.0</ele><time>2026-04-04T11:31:48.006Z</time></trkpt><trkpt lat="40.978065" lon="14.309755"><ele>20.0</ele><time>2026-04-04T11:31:49.005Z</time></trkpt><trkpt lat="40.977995" lon="14.3096783"><ele>20.0</ele><time>2026-04-04T11:31:50.006Z</time></trkpt><trkpt lat="40.9779267" lon="14.3095933"><ele>20.0</ele><time>2026-04-04T11:31:51.006Z</time></trkpt><trkpt lat="40.97786" lon="14.3095033"><ele>20.0</ele><time>2026-04-04T11:31:52.005Z</time></trkpt><trkpt lat="40.9777917" lon="14.3094167"><ele>20.0</ele><time>2026-04-04T11:31:53.006Z</time></trkpt><trkpt lat="40.977725" lon="14.3093267"><ele>20.0</ele><time>2026-04-04T11:31:54.007Z</time></trkpt><trkpt lat="40.9776583" lon="14.3092317"><ele>20.0</ele><time>2026-04-04T11:31:55.005Z</time></trkpt><trkpt lat="40.97759" lon="14.309135"><ele>20.0</ele><time>2026-04-04T11:31:56.006Z</time></trkpt><trkpt lat="40.9775167" lon="14.3090517"><ele>20.0</ele><time>2026-04-04T11:31:57.007Z</time></trkpt><trkpt lat="40.9774383" lon="14.30897"><ele>20.0</ele><time>2026-04-04T11:31:58.006Z</time></trkpt><trkpt lat="40.9773483" lon="14.3089133"><ele>20.0</ele><time>2026-04-04T11:31:59.006Z</time></trkpt><trkpt lat="40.97725" lon="14.3088833"><ele>20.0</ele><time>2026-04-04T11:32:00.005Z</time></trkpt><trkpt lat="40.9771517" lon="14.30887"><ele>20.0</ele><time>2026-04-04T11:32:01.005Z</time></trkpt><trkpt lat="40.9770483" lon="14.3088817"><ele>20.0</ele><time>2026-04-04T11:32:02.006Z</time></trkpt><trkpt lat="40.976945" lon="14.3089167"><ele>20.0</ele><time>2026-04-04T11:32:03.006Z</time></trkpt><trkpt lat="40.9768417" lon="14.3089617"><ele>20.0</ele><time>2026-04-04T11:32:04.005Z</time></trkpt><trkpt lat="40.9767367" lon="14.3090167"><ele>20.0</ele><time>2026-04-04T11:32:05.005Z</time></trkpt><trkpt lat="40.97663" lon="14.309075"><ele>20.0</ele><time>2026-04-04T11:32:06.007Z</time></trkpt><trkpt lat="40.976525" lon="14.3091367"><ele>20.4</ele><time>2026-04-04T11:32:07.006Z</time></trkpt><trkpt lat="40.976425" lon="14.3091933"><ele>20.8</ele><time>2026-04-04T11:32:08.005Z</time></trkpt><trkpt lat="40.9763283" lon="14.30925"><ele>21.200000000000003</ele><time>2026-04-04T11:32:09.007Z</time></trkpt><trkpt lat="40.976235" lon="14.309305"><ele>21.6</ele><time>2026-04-04T11:32:10.006Z</time></trkpt><trkpt lat="40.97614" lon="14.3093633"><ele>22.0</ele><time>2026-04-04T11:32:11.006Z</time></trkpt><trkpt lat="40.9760467" lon="14.309425"><ele>22.0</ele><time>2026-04-04T11:32:12.009Z</time></trkpt><trkpt lat="40.9759533" lon="14.309485"><ele>22.0</ele><time>2026-04-04T11:32:13.007Z</time></trkpt><trkpt lat="40.9758617" lon="14.309535"><ele>22.0</ele><time>2026-04-04T11:32:14.006Z</time></trkpt><trkpt lat="40.9757683" lon="14.30958"><ele>22.0</ele><time>2026-04-04T11:32:15.006Z</time></trkpt><trkpt lat="40.9756783" lon="14.30962"><ele>22.0</ele><time>2026-04-04T11:32:16.006Z</time></trkpt><trkpt lat="40.9755867" lon="14.3096533"><ele>22.0</ele><time>2026-04-04T11:32:17.006Z</time></trkpt><trkpt lat="40.97549" lon="14.3096817"><ele>22.0</ele><time>2026-04-04T11:32:18.007Z</time></trkpt><trkpt lat="40.975395" lon="14.3097083"><ele>22.0</ele><time>2026-04-04T11:32:19.006Z</time></trkpt><trkpt lat="40.9753033" lon="14.3097317"><ele>22.0</ele><time>2026-04-04T11:32:20.009Z</time></trkpt><trkpt lat="40.97521" lon="14.3097483"><ele>22.0</ele><time>2026-04-04T11:32:21.006Z</time></trkpt><trkpt lat="40.9751133" lon="14.309765"><ele>22.0</ele><time>2026-04-04T11:32:22.006Z</time></trkpt><trkpt lat="40.97502" lon="14.3097717"><ele>22.0</ele><time>2026-04-04T11:32:23.006Z</time></trkpt><trkpt lat="40.9749267" lon="14.309775"><ele>22.0</ele><time>2026-04-04T11:32:24.006Z</time></trkpt><trkpt lat="40.9748333" lon="14.3097783"><ele>22.0</ele><time>2026-04-04T11:32:25.005Z</time></trkpt><trkpt lat="40.9747417" lon="14.3097817"><ele>22.0</ele><time>2026-04-04T11:32:26.006Z</time></trkpt><trkpt lat="40.97465" lon="14.30978"><ele>22.0</ele><time>2026-04-04T11:32:27.006Z</time></trkpt><trkpt lat="40.97456" lon="14.3097783"><ele>22.0</ele><time>2026-04-04T11:32:28.006Z</time></trkpt><trkpt lat="40.9744717" lon="14.3097767"><ele>22.0</ele><time>2026-04-04T11:32:29.006Z</time></trkpt><trkpt lat="40.9743833" lon="14.3097783"><ele>22.0</ele><time>2026-04-04T11:32:30.005Z</time></trkpt><trkpt lat="40.974295" lon="14.3097833"><ele>22.0</ele><time>2026-04-04T11:32:31.006Z</time></trkpt><trkpt lat="40.9742" lon="14.30979"><ele>22.0</ele><time>2026-04-04T11:32:32.006Z</time></trkpt><trkpt lat="40.97411" lon="14.3097933"><ele>22.0</ele><time>2026-04-04T11:32:33.006Z</time></trkpt><trkpt lat="40.9740217" lon="14.3097983"><ele>22.0</ele><time>2026-04-04T11:32:34.006Z</time></trkpt><trkpt lat="40.9739383" lon="14.3098"><ele>22.0</ele><time>2026-04-04T11:32:35.007Z</time></trkpt><trkpt lat="40.9738533" lon="14.3097967"><ele>22.0</ele><time>2026-04-04T11:32:36.007Z</time></trkpt><trkpt lat="40.9737683" lon="14.3097883"><ele>22.0</ele><time>2026-04-04T11:32:37.006Z</time></trkpt><trkpt lat="40.9736867" lon="14.30978"><ele>22.0</ele><time>2026-04-04T11:32:38.006Z</time></trkpt><trkpt lat="40.9736033" lon="14.3097633"><ele>22.0</ele><time>2026-04-04T11:32:39.006Z</time></trkpt><trkpt lat="40.9735167" lon="14.3097433"><ele>22.0</ele><time>2026-04-04T11:32:40.006Z</time></trkpt><trkpt lat="40.973435" lon="14.3097233"><ele>22.0</ele><time>2026-04-04T11:32:41.006Z</time></trkpt><trkpt lat="40.9733567" lon="14.309705"><ele>22.0</ele><time>2026-04-04T11:32:42.006Z</time></trkpt><trkpt lat="40.9732783" lon="14.3096833"><ele>22.0</ele><time>2026-04-04T11:32:43.008Z</time></trkpt><trkpt lat="40.9732033" lon="14.3096667"><ele>22.0</ele><time>2026-04-04T11:32:44.007Z</time></trkpt><trkpt lat="40.9731233" lon="14.3096567"><ele>22.0</ele><time>2026-04-04T11:32:45.006Z</time></trkpt><trkpt lat="40.97305" lon="14.3096367"><ele>22.0</ele><time>2026-04-04T11:32:46.006Z</time></trkpt><trkpt lat="40.9729767" lon="14.309605"><ele>22.0</ele><time>2026-04-04T11:32:47.006Z</time></trkpt><trkpt lat="40.9729017" lon="14.3095717"><ele>22.0</ele><time>2026-04-04T11:32:48.007Z</time></trkpt><trkpt lat="40.972825" lon="14.3095383"><ele>22.0</ele><time>2026-04-04T11:32:49.006Z</time></trkpt><trkpt lat="40.9727483" lon="14.3095033"><ele>22.0</ele><time>2026-04-04T11:32:50.006Z</time></trkpt><trkpt lat="40.97267" lon="14.309475"><ele>22.0</ele><time>2026-04-04T11:32:51.006Z</time></trkpt><trkpt lat="40.9725933" lon="14.30944"><ele>22.0</ele><time>2026-04-04T11:32:52.007Z</time></trkpt><trkpt lat="40.97252" lon="14.309405"><ele>22.0</ele><time>2026-04-04T11:32:53.006Z</time></trkpt><trkpt lat="40.9724417" lon="14.3093633"><ele>22.0</ele><time>2026-04-04T11:32:54.006Z</time></trkpt><trkpt lat="40.9723633" lon="14.3093267"><ele>22.0</ele><time>2026-04-04T11:32:55.007Z</time></trkpt><trkpt lat="40.9722833" lon="14.3092883"><ele>22.166666666666664</ele><time>2026-04-04T11:32:56.007Z</time></trkpt><trkpt lat="40.972205" lon="14.3092583"><ele>22.333333333333332</ele><time>2026-04-04T11:32:57.007Z</time></trkpt><trkpt lat="40.9721283" lon="14.3092267"><ele>22.5</ele><time>2026-04-04T11:32:58.007Z</time></trkpt><trkpt lat="40.97205" lon="14.3091933"><ele>22.666666666666668</ele><time>2026-04-04T11:32:59.008Z</time></trkpt><trkpt lat="40.9719733" lon="14.3091633"><ele>22.833333333333336</ele><time>2026-04-04T11:33:00.007Z</time></trkpt><trkpt lat="40.9718967" lon="14.3091283"><ele>23.0</ele><time>2026-04-04T11:33:01.009Z</time></trkpt><trkpt lat="40.9718217" lon="14.309095"><ele>23.0</ele><time>2026-04-04T11:33:02.006Z</time></trkpt><trkpt lat="40.97175" lon="14.309055"><ele>23.0</ele><time>2026-04-04T11:33:03.006Z</time></trkpt><trkpt lat="40.9716783" lon="14.309015"><ele>23.0</ele><time>2026-04-04T11:33:04.007Z</time></trkpt><trkpt lat="40.9716083" lon="14.3089817"><ele>23.0</ele><time>2026-04-04T11:33:05.008Z</time></trkpt><trkpt lat="40.9715417" lon="14.3089433"><ele>23.0</ele><time>2026-04-04T11:33:06.007Z</time></trkpt><trkpt lat="40.971475" lon="14.3088983"><ele>23.0</ele><time>2026-04-04T11:33:07.008Z</time></trkpt><trkpt lat="40.97141" lon="14.3088533"><ele>23.166666666666668</ele><time>2026-04-04T11:33:08.008Z</time></trkpt><trkpt lat="40.9713467" lon="14.3088067"><ele>23.333333333333336</ele><time>2026-04-04T11:33:09.007Z</time></trkpt><trkpt lat="40.97128" lon="14.3087633"><ele>23.5</ele><time>2026-04-04T11:33:10.007Z</time></trkpt><trkpt lat="40.9712117" lon="14.3087233"><ele>23.666666666666668</ele><time>2026-04-04T11:33:11.006Z</time></trkpt><trkpt lat="40.9711433" lon="14.30868"><ele>23.833333333333332</ele><time>2026-04-04T11:33:12.006Z</time></trkpt><trkpt lat="40.9710733" lon="14.3086383"><ele>24.0</ele><time>2026-04-04T11:33:13.006Z</time></trkpt><trkpt lat="40.9709983" lon="14.308595"><ele>24.0</ele><time>2026-04-04T11:33:14.006Z</time></trkpt><trkpt lat="40.9709233" lon="14.30855"><ele>24.0</ele><time>2026-04-04T11:33:15.006Z</time></trkpt><trkpt lat="40.9708483" lon="14.3085067"><ele>24.0</ele><time>2026-04-04T11:33:16.006Z</time></trkpt><trkpt lat="40.97077" lon="14.30846"><ele>24.0</ele><time>2026-04-04T11:33:17.007Z</time></trkpt><trkpt lat="40.97069" lon="14.30842"><ele>24.0</ele><time>2026-04-04T11:33:18.007Z</time></trkpt><trkpt lat="40.97061" lon="14.30838"><ele>24.0</ele><time>2026-04-04T11:33:19.008Z</time></trkpt><trkpt lat="40.9705283" lon="14.30834"><ele>24.0</ele><time>2026-04-04T11:33:20.006Z</time></trkpt><trkpt lat="40.9704467" lon="14.30831"><ele>24.0</ele><time>2026-04-04T11:33:21.006Z</time></trkpt><trkpt lat="40.970365" lon="14.3082867"><ele>24.0</ele><time>2026-04-04T11:33:22.006Z</time></trkpt><trkpt lat="40.97028" lon="14.3082717"><ele>24.0</ele><time>2026-04-04T11:33:23.006Z</time></trkpt><trkpt lat="40.9701917" lon="14.308265"><ele>24.0</ele><time>2026-04-04T11:33:24.006Z</time></trkpt><trkpt lat="40.9701083" lon="14.3082583"><ele>24.0</ele><time>2026-04-04T11:33:25.006Z</time></trkpt><trkpt lat="40.9700233" lon="14.30825"><ele>24.0</ele><time>2026-04-04T11:33:26.015Z</time></trkpt><trkpt lat="40.96994" lon="14.3082433"><ele>24.0</ele><time>2026-04-04T11:33:27.006Z</time></trkpt><trkpt lat="40.9698533" lon="14.3082367"><ele>24.0</ele><time>2026-04-04T11:33:28.006Z</time></trkpt><trkpt lat="40.9697667" lon="14.308235"><ele>24.0</ele><time>2026-04-04T11:33:29.006Z</time></trkpt><trkpt lat="40.96968" lon="14.30823"><ele>24.0</ele><time>2026-04-04T11:33:30.006Z</time></trkpt><trkpt lat="40.9695983" lon="14.3082283"><ele>24.0</ele><time>2026-04-04T11:33:31.006Z</time></trkpt><trkpt lat="40.9695133" lon="14.308225"><ele>24.0</ele><time>2026-04-04T11:33:32.006Z</time></trkpt><trkpt lat="40.9694267" lon="14.3082183"><ele>24.0</ele><time>2026-04-04T11:33:33.009Z</time></trkpt><trkpt lat="40.9693333" lon="14.30821"><ele>24.0</ele><time>2026-04-04T11:33:34.009Z</time></trkpt><trkpt lat="40.96924" lon="14.3081967"><ele>24.0</ele><time>2026-04-04T11:33:35.006Z</time></trkpt><trkpt lat="40.969145" lon="14.3081817"><ele>24.0</ele><time>2026-04-04T11:33:36.008Z</time></trkpt><trkpt lat="40.9690467" lon="14.3081683"><ele>24.2</ele><time>2026-04-04T11:33:37.006Z</time></trkpt><trkpt lat="40.9689467" lon="14.30815"><ele>24.4</ele><time>2026-04-04T11:33:38.006Z</time></trkpt><trkpt lat="40.9688483" lon="14.30813"><ele>24.6</ele><time>2026-04-04T11:33:39.006Z</time></trkpt><trkpt lat="40.9687517" lon="14.3081133"><ele>24.8</ele><time>2026-04-04T11:33:40.006Z</time></trkpt><trkpt lat="40.9686567" lon="14.3081"><ele>25.0</ele><time>2026-04-04T11:33:41.006Z</time></trkpt><trkpt lat="40.9685633" lon="14.3080833"><ele>25.000000000000004</ele><time>2026-04-04T11:33:42.007Z</time></trkpt><trkpt lat="40.968475" lon="14.3080617"><ele>25.0</ele><time>2026-04-04T11:33:43.006Z</time></trkpt><trkpt lat="40.9683917" lon="14.3080317"><ele>25.0</ele><time>2026-04-04T11:33:44.006Z</time></trkpt><trkpt lat="40.968315" lon="14.3080017"><ele>25.0</ele><time>2026-04-04T11:33:45.006Z</time></trkpt><trkpt lat="40.9682367" lon="14.30797"><ele>25.000000000000004</ele><time>2026-04-04T11:33:46.006Z</time></trkpt><trkpt lat="40.9681633" lon="14.3079433"><ele>25.0</ele><time>2026-04-04T11:33:47.006Z</time></trkpt><trkpt lat="40.9680883" lon="14.3079183"><ele>25.142857142857146</ele><time>2026-04-04T11:33:48.006Z</time></trkpt><trkpt lat="40.9680183" lon="14.30789"><ele>25.285714285714285</ele><time>2026-04-04T11:33:49.007Z</time></trkpt><trkpt lat="40.96795" lon="14.3078533"><ele>25.42857142857143</ele><time>2026-04-04T11:33:50.006Z</time></trkpt><trkpt lat="40.9678817" lon="14.307825"><ele>25.571428571428573</ele><time>2026-04-04T11:33:51.006Z</time></trkpt><trkpt lat="40.967815" lon="14.3077967"><ele>25.714285714285715</ele><time>2026-04-04T11:33:52.006Z</time></trkpt><trkpt lat="40.9677533" lon="14.307755"><ele>25.857142857142858</ele><time>2026-04-04T11:33:53.006Z</time></trkpt><trkpt lat="40.9676883" lon="14.307715"><ele>26.0</ele><time>2026-04-04T11:33:54.006Z</time></trkpt><trkpt lat="40.967625" lon="14.30768"><ele>26.0</ele><time>2026-04-04T11:33:55.007Z</time></trkpt><trkpt lat="40.9675617" lon="14.3076533"><ele>26.0</ele><time>2026-04-04T11:33:56.006Z</time></trkpt><trkpt lat="40.967495" lon="14.30763"><ele>26.0</ele><time>2026-04-04T11:33:57.006Z</time></trkpt><trkpt lat="40.967425" lon="14.3076067"><ele>26.0</ele><time>2026-04-04T11:33:58.008Z</time></trkpt><trkpt lat="40.967355" lon="14.30758"><ele>26.0</ele><time>2026-04-04T11:33:59.006Z</time></trkpt><trkpt lat="40.967285" lon="14.3075533"><ele>26.0</ele><time>2026-04-04T11:34:00.007Z</time></trkpt><trkpt lat="40.9672117" lon="14.3075167"><ele>26.0</ele><time>2026-04-04T11:34:01.006Z</time></trkpt><trkpt lat="40.96714" lon="14.3074883"><ele>25.666666666666664</ele><time>2026-04-04T11:34:02.008Z</time></trkpt><trkpt lat="40.9670683" lon="14.3074567"><ele>25.333333333333332</ele><time>2026-04-04T11:34:03.009Z</time></trkpt><trkpt lat="40.9669933" lon="14.3074167"><ele>25.0</ele><time>2026-04-04T11:34:04.006Z</time></trkpt><trkpt lat="40.9669233" lon="14.30738"><ele>24.666666666666664</ele><time>2026-04-04T11:34:05.006Z</time></trkpt><trkpt lat="40.9668533" lon="14.3073417"><ele>24.333333333333332</ele><time>2026-04-04T11:34:06.008Z</time></trkpt><trkpt lat="40.9667833" lon="14.30731"><ele>24.0</ele><time>2026-04-04T11:34:07.007Z</time></trkpt><trkpt lat="40.966715" lon="14.3072767"><ele>24.166666666666668</ele><time>2026-04-04T11:34:08.01Z</time></trkpt><trkpt lat="40.9666433" lon="14.3072433"><ele>24.333333333333336</ele><time>2026-04-04T11:34:09.008Z</time></trkpt><trkpt lat="40.966575" lon="14.3072083"><ele>24.5</ele><time>2026-04-04T11:34:10.006Z</time></trkpt><trkpt lat="40.9665133" lon="14.3071767"><ele>24.666666666666668</ele><time>2026-04-04T11:34:11.006Z</time></trkpt><trkpt lat="40.9664533" lon="14.30714"><ele>24.833333333333336</ele><time>2026-04-04T11:34:12.007Z</time></trkpt><trkpt lat="40.9663383" lon="14.3070683"><ele>25.0</ele><time>2026-04-04T11:34:14.006Z</time></trkpt><trkpt lat="40.9662783" lon="14.3070317"><ele>25.000000000000004</ele><time>2026-04-04T11:34:15.009Z</time></trkpt><trkpt lat="40.96616" lon="14.3069733"><ele>25.0</ele><time>2026-04-04T11:34:17.007Z</time></trkpt><trkpt lat="40.9660983" lon="14.3069433"><ele>25.0</ele><time>2026-04-04T11:34:18.006Z</time></trkpt><trkpt lat="40.9660367" lon="14.306915"><ele>25.0</ele><time>2026-04-04T11:34:19.007Z</time></trkpt><trkpt lat="40.965975" lon="14.3068883"><ele>25.000000000000004</ele><time>2026-04-04T11:34:20.008Z</time></trkpt><trkpt lat="40.9659117" lon="14.3068633"><ele>25.0</ele><time>2026-04-04T11:34:21.006Z</time></trkpt><trkpt lat="40.9658483" lon="14.3068467"><ele>25.000000000000004</ele><time>2026-04-04T11:34:22.006Z</time></trkpt><trkpt lat="40.965785" lon="14.3068333"><ele>25.0</ele><time>2026-04-04T11:34:23.008Z</time></trkpt><trkpt lat="40.9657217" lon="14.3068183"><ele>25.0</ele><time>2026-04-04T11:34:24.007Z</time></trkpt><trkpt lat="40.965655" lon="14.3068117"><ele>25.0</ele><time>2026-04-04T11:34:25.007Z</time></trkpt><trkpt lat="40.965585" lon="14.3068167"><ele>25.0</ele><time>2026-04-04T11:34:26.006Z</time></trkpt><trkpt lat="40.9655133" lon="14.3068217"><ele>25.000000000000004</ele><time>2026-04-04T11:34:27.005Z</time></trkpt><trkpt lat="40.9654433" lon="14.306835"><ele>25.0</ele><time>2026-04-04T11:34:28.006Z</time></trkpt><trkpt lat="40.9653717" lon="14.3068467"><ele>25.000000000000004</ele><time>2026-04-04T11:34:29.005Z</time></trkpt><trkpt lat="40.9653033" lon="14.3068683"><ele>25.0</ele><time>2026-04-04T11:34:30.006Z</time></trkpt><trkpt lat="40.9652333" lon="14.3068933"><ele>25.0</ele><time>2026-04-04T11:34:31.005Z</time></trkpt><trkpt lat="40.9651633" lon="14.3069167"><ele>25.0</ele><time>2026-04-04T11:34:32.005Z</time></trkpt><trkpt lat="40.965095" lon="14.3069317"><ele>25.0</ele><time>2026-04-04T11:34:33.008Z</time></trkpt><trkpt lat="40.9650283" lon="14.3069467"><ele>25.000000000000004</ele><time>2026-04-04T11:34:34.007Z</time></trkpt><trkpt lat="40.9649633" lon="14.30696"><ele>25.0</ele><time>2026-04-04T11:34:35.005Z</time></trkpt><trkpt lat="40.9648983" lon="14.3069733"><ele>25.000000000000004</ele><time>2026-04-04T11:34:36.005Z</time></trkpt><trkpt lat="40.9648333" lon="14.3069883"><ele>25.0</ele><time>2026-04-04T11:34:37.005Z</time></trkpt><trkpt lat="40.964765" lon="14.3070033"><ele>25.0</ele><time>2026-04-04T11:34:38.005Z</time></trkpt><trkpt lat="40.964695" lon="14.3070167"><ele>25.0</ele><time>2026-04-04T11:34:39.008Z</time></trkpt><trkpt lat="40.964625" lon="14.30703"><ele>25.0</ele><time>2026-04-04T11:34:40.005Z</time></trkpt><trkpt lat="40.964555" lon="14.30704"><ele>25.000000000000004</ele><time>2026-04-04T11:34:41.005Z</time></trkpt><trkpt lat="40.9644867" lon="14.3070467"><ele>25.0</ele><time>2026-04-04T11:34:42.005Z</time></trkpt><trkpt lat="40.964415" lon="14.3070533"><ele>25.000000000000004</ele><time>2026-04-04T11:34:43.007Z</time></trkpt><trkpt lat="40.9643417" lon="14.3070617"><ele>25.0</ele><time>2026-04-04T11:34:44.005Z</time></trkpt><trkpt lat="40.9642683" lon="14.307065"><ele>25.0</ele><time>2026-04-04T11:34:45.005Z</time></trkpt><trkpt lat="40.9641983" lon="14.30707"><ele>25.0</ele><time>2026-04-04T11:34:46.005Z</time></trkpt><trkpt lat="40.9641267" lon="14.3070767"><ele>25.0</ele><time>2026-04-04T11:34:47.006Z</time></trkpt><trkpt lat="40.964055" lon="14.3070817"><ele>25.000000000000004</ele><time>2026-04-04T11:34:48.005Z</time></trkpt><trkpt lat="40.9639817" lon="14.3070917"><ele>25.0</ele><time>2026-04-04T11:34:49.005Z</time></trkpt><trkpt lat="40.9639067" lon="14.3071033"><ele>24.714285714285715</ele><time>2026-04-04T11:34:50.006Z</time></trkpt><trkpt lat="40.96383" lon="14.3071133"><ele>24.42857142857143</ele><time>2026-04-04T11:34:51.006Z</time></trkpt><trkpt lat="40.9637567" lon="14.3071217"><ele>24.142857142857146</ele><time>2026-04-04T11:34:52.005Z</time></trkpt><trkpt lat="40.9636833" lon="14.3071317"><ele>23.857142857142858</ele><time>2026-04-04T11:34:53.005Z</time></trkpt><trkpt lat="40.9636083" lon="14.30714"><ele>23.57142857142857</ele><time>2026-04-04T11:34:54.005Z</time></trkpt><trkpt lat="40.963535" lon="14.3071533"><ele>23.28571428571429</ele><time>2026-04-04T11:34:55.005Z</time></trkpt><trkpt lat="40.96346" lon="14.3071667"><ele>23.0</ele><time>2026-04-04T11:34:56.006Z</time></trkpt><trkpt lat="40.9633833" lon="14.30718"><ele>23.333333333333336</ele><time>2026-04-04T11:34:57.005Z</time></trkpt><trkpt lat="40.963305" lon="14.3071833"><ele>23.666666666666668</ele><time>2026-04-04T11:34:58.005Z</time></trkpt><trkpt lat="40.9632283" lon="14.3071833"><ele>24.0</ele><time>2026-04-04T11:34:59.005Z</time></trkpt><trkpt lat="40.96315" lon="14.3071917"><ele>24.333333333333336</ele><time>2026-04-04T11:35:00.009Z</time></trkpt><trkpt lat="40.9630733" lon="14.307205"><ele>24.666666666666668</ele><time>2026-04-04T11:35:01.005Z</time></trkpt><trkpt lat="40.962995" lon="14.3072133"><ele>25.0</ele><time>2026-04-04T11:35:02.005Z</time></trkpt><trkpt lat="40.9629167" lon="14.3072183"><ele>25.000000000000004</ele><time>2026-04-04T11:35:03.008Z</time></trkpt><trkpt lat="40.9628383" lon="14.3072267"><ele>25.0</ele><time>2026-04-04T11:35:04.005Z</time></trkpt><trkpt lat="40.9627583" lon="14.3072317"><ele>25.0</ele><time>2026-04-04T11:35:05.005Z</time></trkpt><trkpt lat="40.9626733" lon="14.3072333"><ele>25.0</ele><time>2026-04-04T11:35:06.006Z</time></trkpt><trkpt lat="40.9625883" lon="14.30724"><ele>25.000000000000004</ele><time>2026-04-04T11:35:07.005Z</time></trkpt><trkpt lat="40.962505" lon="14.3072517"><ele>25.0</ele><time>2026-04-04T11:35:08.005Z</time></trkpt><trkpt lat="40.9624233" lon="14.3072633"><ele>25.333333333333336</ele><time>2026-04-04T11:35:09.005Z</time></trkpt><trkpt lat="40.9623433" lon="14.3072733"><ele>25.666666666666668</ele><time>2026-04-04T11:35:10.005Z</time></trkpt><trkpt lat="40.962265" lon="14.30728"><ele>26.0</ele><time>2026-04-04T11:35:11.005Z</time></trkpt><trkpt lat="40.962185" lon="14.3072917"><ele>26.333333333333336</ele><time>2026-04-04T11:35:12.006Z</time></trkpt><trkpt lat="40.9621033" lon="14.3073"><ele>26.666666666666668</ele><time>2026-04-04T11:35:13.006Z</time></trkpt><trkpt lat="40.9620233" lon="14.307305"><ele>27.0</ele><time>2026-04-04T11:35:14.005Z</time></trkpt><trkpt lat="40.961945" lon="14.30731"><ele>27.0</ele><time>2026-04-04T11:35:15.005Z</time></trkpt><trkpt lat="40.961865" lon="14.3073117"><ele>27.0</ele><time>2026-04-04T11:35:16.006Z</time></trkpt><trkpt lat="40.9617833" lon="14.3073133"><ele>27.0</ele><time>2026-04-04T11:35:17.007Z</time></trkpt><trkpt lat="40.9616983" lon="14.3073167"><ele>27.0</ele><time>2026-04-04T11:35:18.005Z</time></trkpt><trkpt lat="40.9616183" lon="14.3073183"><ele>27.0</ele><time>2026-04-04T11:35:19.005Z</time></trkpt><trkpt lat="40.96154" lon="14.3073167"><ele>27.0</ele><time>2026-04-04T11:35:20.005Z</time></trkpt><trkpt lat="40.9614617" lon="14.3073067"><ele>27.0</ele><time>2026-04-04T11:35:21.005Z</time></trkpt><trkpt lat="40.96138" lon="14.3073033"><ele>27.0</ele><time>2026-04-04T11:35:22.005Z</time></trkpt><trkpt lat="40.9612983" lon="14.3072933"><ele>27.0</ele><time>2026-04-04T11:35:23.006Z</time></trkpt><trkpt lat="40.9612183" lon="14.307285"><ele>27.0</ele><time>2026-04-04T11:35:24.005Z</time></trkpt><trkpt lat="40.9611433" lon="14.3072767"><ele>27.0</ele><time>2026-04-04T11:35:25.005Z</time></trkpt><trkpt lat="40.9610717" lon="14.307265"><ele>27.0</ele><time>2026-04-04T11:35:26.005Z</time></trkpt><trkpt lat="40.9610033" lon="14.3072467"><ele>27.0</ele><time>2026-04-04T11:35:27.005Z</time></trkpt><trkpt lat="40.9609417" lon="14.3072217"><ele>27.000000000000004</ele><time>2026-04-04T11:35:28.007Z</time></trkpt><trkpt lat="40.96088" lon="14.3071967"><ele>27.000000000000004</ele><time>2026-04-04T11:35:29.005Z</time></trkpt><trkpt lat="40.9607633" lon="14.3071267"><ele>27.0</ele><time>2026-04-04T11:35:31.006Z</time></trkpt><trkpt lat="40.9606467" lon="14.307075"><ele>27.0</ele><time>2026-04-04T11:35:33.011Z</time></trkpt><trkpt lat="40.9605167" lon="14.307055"><ele>26.857142857142858</ele><time>2026-04-04T11:35:35.005Z</time></trkpt><trkpt lat="40.960445" lon="14.30704"><ele>26.714285714285715</ele><time>2026-04-04T11:35:36.006Z</time></trkpt><trkpt lat="40.9603733" lon="14.3070167"><ele>26.57142857142857</ele><time>2026-04-04T11:35:37.005Z</time></trkpt><trkpt lat="40.9603" lon="14.3069967"><ele>26.42857142857143</ele><time>2026-04-04T11:35:38.007Z</time></trkpt><trkpt lat="40.960235" lon="14.3069783"><ele>26.28571428571429</ele><time>2026-04-04T11:35:39.005Z</time></trkpt><trkpt lat="40.9601733" lon="14.30696"><ele>26.142857142857142</ele><time>2026-04-04T11:35:40.005Z</time></trkpt><trkpt lat="40.9601083" lon="14.3069433"><ele>26.0</ele><time>2026-04-04T11:35:41.005Z</time></trkpt><trkpt lat="40.9600383" lon="14.3069283"><ele>25.666666666666664</ele><time>2026-04-04T11:35:42.005Z</time></trkpt><trkpt lat="40.959965" lon="14.3069133"><ele>25.333333333333332</ele><time>2026-04-04T11:35:43.006Z</time></trkpt><trkpt lat="40.9598883" lon="14.3069"><ele>25.0</ele><time>2026-04-04T11:35:44.006Z</time></trkpt><trkpt lat="40.9598083" lon="14.3068817"><ele>24.666666666666664</ele><time>2026-04-04T11:35:45.005Z</time></trkpt><trkpt lat="40.9597267" lon="14.3068633"><ele>24.333333333333332</ele><time>2026-04-04T11:35:46.005Z</time></trkpt><trkpt lat="40.9596483" lon="14.3068433"><ele>24.0</ele><time>2026-04-04T11:35:47.005Z</time></trkpt><trkpt lat="40.959565" lon="14.3068233"><ele>24.0</ele><time>2026-04-04T11:35:48.006Z</time></trkpt><trkpt lat="40.9594817" lon="14.3068017"><ele>24.0</ele><time>2026-04-04T11:35:49.005Z</time></trkpt><trkpt lat="40.9594" lon="14.3067817"><ele>24.0</ele><time>2026-04-04T11:35:50.006Z</time></trkpt><trkpt lat="40.959315" lon="14.306765"><ele>24.0</ele><time>2026-04-04T11:35:51.005Z</time></trkpt><trkpt lat="40.9592333" lon="14.3067417"><ele>24.0</ele><time>2026-04-04T11:35:52.005Z</time></trkpt><trkpt lat="40.95915" lon="14.30672"><ele>24.0</ele><time>2026-04-04T11:35:53.006Z</time></trkpt><trkpt lat="40.9590667" lon="14.3066967"><ele>24.666666666666668</ele><time>2026-04-04T11:35:54.006Z</time></trkpt><trkpt lat="40.958985" lon="14.30668"><ele>25.333333333333336</ele><time>2026-04-04T11:35:55.005Z</time></trkpt><trkpt lat="40.9589017" lon="14.3066617"><ele>26.0</ele><time>2026-04-04T11:35:56.005Z</time></trkpt><trkpt lat="40.9588117" lon="14.306645"><ele>26.666666666666668</ele><time>2026-04-04T11:35:57.005Z</time></trkpt><trkpt lat="40.9587283" lon="14.3066117"><ele>27.333333333333336</ele><time>2026-04-04T11:35:58.006Z</time></trkpt><trkpt lat="40.9586467" lon="14.3065733"><ele>28.0</ele><time>2026-04-04T11:35:59.007Z</time></trkpt><trkpt lat="40.958565" lon="14.3065267"><ele>28.000000000000004</ele><time>2026-04-04T11:36:00.006Z</time></trkpt><trkpt lat="40.9584867" lon="14.3064833"><ele>28.0</ele><time>2026-04-04T11:36:01.005Z</time></trkpt><trkpt lat="40.95841" lon="14.30644"><ele>28.0</ele><time>2026-04-04T11:36:02.005Z</time></trkpt><trkpt lat="40.9583417" lon="14.3063917"><ele>28.0</ele><time>2026-04-04T11:36:03.005Z</time></trkpt><trkpt lat="40.9582783" lon="14.3063383"><ele>28.000000000000004</ele><time>2026-04-04T11:36:04.01Z</time></trkpt><trkpt lat="40.958215" lon="14.3062767"><ele>28.0</ele><time>2026-04-04T11:36:05.005Z</time></trkpt><trkpt lat="40.958155" lon="14.30621"><ele>28.142857142857142</ele><time>2026-04-04T11:36:06.005Z</time></trkpt><trkpt lat="40.9581033" lon="14.306145"><ele>28.285714285714285</ele><time>2026-04-04T11:36:07.005Z</time></trkpt><trkpt lat="40.958045" lon="14.306075"><ele>28.42857142857143</ele><time>2026-04-04T11:36:08.005Z</time></trkpt><trkpt lat="40.9579817" lon="14.306015"><ele>28.571428571428573</ele><time>2026-04-04T11:36:09.005Z</time></trkpt><trkpt lat="40.9579183" lon="14.305955"><ele>28.714285714285715</ele><time>2026-04-04T11:36:10.005Z</time></trkpt><trkpt lat="40.9578617" lon="14.3058917"><ele>28.85714285714286</ele><time>2026-04-04T11:36:11.006Z</time></trkpt><trkpt lat="40.9578183" lon="14.3058217"><ele>29.000000000000004</ele><time>2026-04-04T11:36:12.005Z</time></trkpt><trkpt lat="40.957775" lon="14.3057583"><ele>28.999999999999996</ele><time>2026-04-04T11:36:13.006Z</time></trkpt><trkpt lat="40.9577333" lon="14.305695"><ele>29.0</ele><time>2026-04-04T11:36:14.007Z</time></trkpt><trkpt lat="40.957685" lon="14.30561"><ele>29.0</ele><time>2026-04-04T11:36:15.005Z</time></trkpt><trkpt lat="40.95763" lon="14.3055317"><ele>29.0</ele><time>2026-04-04T11:36:16.005Z</time></trkpt><trkpt lat="40.9575717" lon="14.3054617"><ele>28.999999999999996</ele><time>2026-04-04T11:36:17.006Z</time></trkpt><trkpt lat="40.95751" lon="14.3054033"><ele>29.0</ele><time>2026-04-04T11:36:18.006Z</time></trkpt><trkpt lat="40.9574533" lon="14.3053333"><ele>28.999999999999996</ele><time>2026-04-04T11:36:19.006Z</time></trkpt><trkpt lat="40.9573967" lon="14.305265"><ele>29.0</ele><time>2026-04-04T11:36:20.006Z</time></trkpt><trkpt lat="40.9573333" lon="14.3052067"><ele>29.0</ele><time>2026-04-04T11:36:21.006Z</time></trkpt><trkpt lat="40.9572683" lon="14.3051517"><ele>29.0</ele><time>2026-04-04T11:36:22.006Z</time></trkpt><trkpt lat="40.9572033" lon="14.305095"><ele>28.999999999999996</ele><time>2026-04-04T11:36:23.005Z</time></trkpt><trkpt lat="40.9571417" lon="14.30504"><ele>29.0</ele><time>2026-04-04T11:36:24.007Z</time></trkpt><trkpt lat="40.9570817" lon="14.3049817"><ele>29.000000000000004</ele><time>2026-04-04T11:36:25.006Z</time></trkpt><trkpt lat="40.9570217" lon="14.3049267"><ele>29.0</ele><time>2026-04-04T11:36:26.007Z</time></trkpt><trkpt lat="40.9569583" lon="14.3048817"><ele>29.000000000000004</ele><time>2026-04-04T11:36:27.005Z</time></trkpt><trkpt lat="40.95689" lon="14.3048433"><ele>29.000000000000004</ele><time>2026-04-04T11:36:28.006Z</time></trkpt><trkpt lat="40.9568283" lon="14.304795"><ele>29.0</ele><time>2026-04-04T11:36:29.006Z</time></trkpt><trkpt lat="40.9567717" lon="14.30474"><ele>29.000000000000004</ele><time>2026-04-04T11:36:30.006Z</time></trkpt><trkpt lat="40.9567117" lon="14.3046883"><ele>29.000000000000004</ele><time>2026-04-04T11:36:31.007Z</time></trkpt><trkpt lat="40.9566467" lon="14.3046533"><ele>28.999999999999996</ele><time>2026-04-04T11:36:32.006Z</time></trkpt><trkpt lat="40.9565767" lon="14.3046233"><ele>29.0</ele><time>2026-04-04T11:36:33.008Z</time></trkpt><trkpt lat="40.956505" lon="14.3045967"><ele>29.0</ele><time>2026-04-04T11:36:34.006Z</time></trkpt><trkpt lat="40.9564333" lon="14.3045817"><ele>29.0</ele><time>2026-04-04T11:36:35.007Z</time></trkpt><trkpt lat="40.95636" lon="14.3045633"><ele>28.999999999999996</ele><time>2026-04-04T11:36:36.005Z</time></trkpt><trkpt lat="40.9562783" lon="14.3045583"><ele>29.0</ele><time>2026-04-04T11:36:37.006Z</time></trkpt><trkpt lat="40.9562083" lon="14.30453"><ele>28.999999999999996</ele><time>2026-04-04T11:36:38.005Z</time></trkpt><trkpt lat="40.95613" lon="14.3045067"><ele>29.0</ele><time>2026-04-04T11:36:39.006Z</time></trkpt><trkpt lat="40.956055" lon="14.3044867"><ele>29.0</ele><time>2026-04-04T11:36:40.006Z</time></trkpt><trkpt lat="40.9559833" lon="14.3044667"><ele>29.0</ele><time>2026-04-04T11:36:41.005Z</time></trkpt><trkpt lat="40.95591" lon="14.30445"><ele>28.999999999999996</ele><time>2026-04-04T11:36:42.005Z</time></trkpt><trkpt lat="40.9558317" lon="14.3044267"><ele>29.0</ele><time>2026-04-04T11:36:43.005Z</time></trkpt><trkpt lat="40.9557583" lon="14.304405"><ele>28.833333333333332</ele><time>2026-04-04T11:36:44.007Z</time></trkpt><trkpt lat="40.95569" lon="14.3043817"><ele>28.666666666666664</ele><time>2026-04-04T11:36:45.006Z</time></trkpt><trkpt lat="40.95562" lon="14.3043583"><ele>28.5</ele><time>2026-04-04T11:36:46.005Z</time></trkpt><trkpt lat="40.9555467" lon="14.3043433"><ele>28.333333333333336</ele><time>2026-04-04T11:36:47.006Z</time></trkpt><trkpt lat="40.955475" lon="14.3043267"><ele>28.166666666666668</ele><time>2026-04-04T11:36:48.006Z</time></trkpt><trkpt lat="40.9554133" lon="14.3043083"><ele>28.0</ele><time>2026-04-04T11:36:49.005Z</time></trkpt><trkpt lat="40.95531" lon="14.30427"><ele>28.000000000000004</ele><time>2026-04-04T11:36:51.006Z</time></trkpt><trkpt lat="40.9552133" lon="14.304235"><ele>28.0</ele><time>2026-04-04T11:36:53.006Z</time></trkpt><trkpt lat="40.9550967" lon="14.3041917"><ele>28.0</ele><time>2026-04-04T11:36:55.005Z</time></trkpt><trkpt lat="40.9550283" lon="14.3041833"><ele>28.0</ele><time>2026-04-04T11:36:56.006Z</time></trkpt><trkpt lat="40.9549667" lon="14.3041517"><ele>28.000000000000004</ele><time>2026-04-04T11:36:57.008Z</time></trkpt><trkpt lat="40.9549017" lon="14.3041283"><ele>28.0</ele><time>2026-04-04T11:36:58.006Z</time></trkpt><trkpt lat="40.9547817" lon="14.304075"><ele>28.000000000000004</ele><time>2026-04-04T11:37:00.007Z</time></trkpt><trkpt lat="40.9546567" lon="14.3040417"><ele>28.0</ele><time>2026-04-04T11:37:02.007Z</time></trkpt><trkpt lat="40.9545933" lon="14.304025"><ele>28.0</ele><time>2026-04-04T11:37:03.005Z</time></trkpt><trkpt lat="40.9545267" lon="14.3040017"><ele>28.0</ele><time>2026-04-04T11:37:04.006Z</time></trkpt><trkpt lat="40.954465" lon="14.3039783"><ele>28.000000000000004</ele><time>2026-04-04T11:37:05.005Z</time></trkpt><trkpt lat="40.9543983" lon="14.303955"><ele>28.0</ele><time>2026-04-04T11:37:06.006Z</time></trkpt><trkpt lat="40.954335" lon="14.30394"><ele>28.0</ele><time>2026-04-04T11:37:07.006Z</time></trkpt><trkpt lat="40.9542717" lon="14.3039217"><ele>27.999999999999996</ele><time>2026-04-04T11:37:08.006Z</time></trkpt><trkpt lat="40.95421" lon="14.303905"><ele>27.999999999999996</ele><time>2026-04-04T11:37:09.006Z</time></trkpt><trkpt lat="40.9540883" lon="14.303855"><ele>28.0</ele><time>2026-04-04T11:37:11.006Z</time></trkpt><trkpt lat="40.9540267" lon="14.3038317"><ele>28.0</ele><time>2026-04-04T11:37:12.007Z</time></trkpt><trkpt lat="40.9539017" lon="14.30378"><ele>28.42857142857143</ele><time>2026-04-04T11:37:14.006Z</time></trkpt><trkpt lat="40.9538383" lon="14.3037417"><ele>28.857142857142858</ele><time>2026-04-04T11:37:15.006Z</time></trkpt><trkpt lat="40.9537767" lon="14.303705"><ele>29.285714285714285</ele><time>2026-04-04T11:37:16.005Z</time></trkpt><trkpt lat="40.9537117" lon="14.3036717"><ele>29.714285714285715</ele><time>2026-04-04T11:37:17.005Z</time></trkpt><trkpt lat="40.9536467" lon="14.3036333"><ele>30.142857142857146</ele><time>2026-04-04T11:37:18.005Z</time></trkpt><trkpt lat="40.9535783" lon="14.3036"><ele>30.571428571428573</ele><time>2026-04-04T11:37:19.005Z</time></trkpt><trkpt lat="40.9535083" lon="14.3035667"><ele>31.0</ele><time>2026-04-04T11:37:20.006Z</time></trkpt><trkpt lat="40.9534383" lon="14.30354"><ele>30.500000000000004</ele><time>2026-04-04T11:37:21.005Z</time></trkpt><trkpt lat="40.9533617" lon="14.303515"><ele>30.0</ele><time>2026-04-04T11:37:22.007Z</time></trkpt><trkpt lat="40.9532867" lon="14.3034967"><ele>29.5</ele><time>2026-04-04T11:37:23.006Z</time></trkpt><trkpt lat="40.9532067" lon="14.3034817"><ele>29.0</ele><time>2026-04-04T11:37:24.009Z</time></trkpt><trkpt lat="40.9531333" lon="14.3034783"><ele>28.500000000000004</ele><time>2026-04-04T11:37:25.006Z</time></trkpt><trkpt lat="40.9530617" lon="14.303455"><ele>28.0</ele><time>2026-04-04T11:37:26.007Z</time></trkpt><trkpt lat="40.9529833" lon="14.30343"><ele>28.0</ele><time>2026-04-04T11:37:27.006Z</time></trkpt><trkpt lat="40.95291" lon="14.3034083"><ele>28.0</ele><time>2026-04-04T11:37:28.006Z</time></trkpt><trkpt lat="40.9528367" lon="14.303385"><ele>28.0</ele><time>2026-04-04T11:37:29.006Z</time></trkpt><trkpt lat="40.9527633" lon="14.3033633"><ele>28.0</ele><time>2026-04-04T11:37:30.006Z</time></trkpt><trkpt lat="40.9527017" lon="14.30332"><ele>28.0</ele><time>2026-04-04T11:37:31.006Z</time></trkpt><trkpt lat="40.9526333" lon="14.3032917"><ele>28.0</ele><time>2026-04-04T11:37:32.006Z</time></trkpt><trkpt lat="40.9525667" lon="14.3032683"><ele>28.0</ele><time>2026-04-04T11:37:33.007Z</time></trkpt><trkpt lat="40.9525033" lon="14.3032383"><ele>28.2</ele><time>2026-04-04T11:37:34.005Z</time></trkpt><trkpt lat="40.952445" lon="14.3032067"><ele>28.4</ele><time>2026-04-04T11:37:35.007Z</time></trkpt><trkpt lat="40.95233" lon="14.3031417"><ele>28.599999999999998</ele><time>2026-04-04T11:37:37.01Z</time></trkpt><trkpt lat="40.9522033" lon="14.3031033"><ele>28.799999999999997</ele><time>2026-04-04T11:37:39.006Z</time></trkpt><trkpt lat="40.9521333" lon="14.3030917"><ele>29.0</ele><time>2026-04-04T11:37:40.005Z</time></trkpt><trkpt lat="40.952065" lon="14.3030767"><ele>29.000000000000004</ele><time>2026-04-04T11:37:41.005Z</time></trkpt><trkpt lat="40.9519933" lon="14.3030683"><ele>29.0</ele><time>2026-04-04T11:37:42.007Z</time></trkpt><trkpt lat="40.9519233" lon="14.3030583"><ele>29.000000000000004</ele><time>2026-04-04T11:37:43.006Z</time></trkpt><trkpt lat="40.951855" lon="14.3030383"><ele>29.000000000000004</ele><time>2026-04-04T11:37:44.007Z</time></trkpt><trkpt lat="40.9517833" lon="14.3030267"><ele>29.0</ele><time>2026-04-04T11:37:45.005Z</time></trkpt><trkpt lat="40.95171" lon="14.303015"><ele>29.000000000000004</ele><time>2026-04-04T11:37:46.005Z</time></trkpt><trkpt lat="40.95164" lon="14.3029983"><ele>29.000000000000004</ele><time>2026-04-04T11:37:47.006Z</time></trkpt><trkpt lat="40.95157" lon="14.302975"><ele>29.000000000000004</ele><time>2026-04-04T11:37:48.006Z</time></trkpt><trkpt lat="40.9515067" lon="14.3029517"><ele>29.0</ele><time>2026-04-04T11:37:49.006Z</time></trkpt><trkpt lat="40.9514367" lon="14.3029233"><ele>29.000000000000004</ele><time>2026-04-04T11:37:50.006Z</time></trkpt><trkpt lat="40.9513667" lon="14.3028967"><ele>29.000000000000004</ele><time>2026-04-04T11:37:51.006Z</time></trkpt><trkpt lat="40.9512967" lon="14.3028767"><ele>29.0</ele><time>2026-04-04T11:37:52.006Z</time></trkpt><trkpt lat="40.95122" lon="14.3028583"><ele>29.000000000000004</ele><time>2026-04-04T11:37:53.006Z</time></trkpt><trkpt lat="40.9511467" lon="14.3028517"><ele>29.000000000000004</ele><time>2026-04-04T11:37:54.008Z</time></trkpt><trkpt lat="40.9510733" lon="14.30283"><ele>28.999999999999996</ele><time>2026-04-04T11:37:55.005Z</time></trkpt><trkpt lat="40.9509967" lon="14.3028133"><ele>29.0</ele><time>2026-04-04T11:37:56.006Z</time></trkpt><trkpt lat="40.9509183" lon="14.302795"><ele>29.0</ele><time>2026-04-04T11:37:57.006Z</time></trkpt><trkpt lat="40.950845" lon="14.3027783"><ele>29.0</ele><time>2026-04-04T11:37:58.006Z</time></trkpt><trkpt lat="40.9507583" lon="14.302775"><ele>28.999999999999996</ele><time>2026-04-04T11:37:59.006Z</time></trkpt><trkpt lat="40.95067" lon="14.3027817"><ele>29.0</ele><time>2026-04-04T11:38:00.007Z</time></trkpt><trkpt lat="40.950595" lon="14.3027633"><ele>29.499999999999996</ele><time>2026-04-04T11:38:01.007Z</time></trkpt><trkpt lat="40.9505183" lon="14.3027433"><ele>30.0</ele><time>2026-04-04T11:38:02.006Z</time></trkpt><trkpt lat="40.95044" lon="14.302725"><ele>30.5</ele><time>2026-04-04T11:38:03.006Z</time></trkpt><trkpt lat="40.9503633" lon="14.3027133"><ele>31.0</ele><time>2026-04-04T11:38:04.005Z</time></trkpt><trkpt lat="40.9502583" lon="14.30269"><ele>31.499999999999996</ele><time>2026-04-04T11:38:06.006Z</time></trkpt><trkpt lat="40.9501883" lon="14.3026767"><ele>32.0</ele><time>2026-04-04T11:38:08.006Z</time></trkpt><trkpt lat="40.9501167" lon="14.30266"><ele>32.2</ele><time>2026-04-04T11:38:10.006Z</time></trkpt><trkpt lat="40.950035" lon="14.3026433"><ele>32.400000000000006</ele><time>2026-04-04T11:38:12.007Z</time></trkpt><trkpt lat="40.9499483" lon="14.3025883"><ele>32.599999999999994</ele><time>2026-04-04T11:38:14.006Z</time></trkpt><trkpt lat="40.9498517" lon="14.3025433"><ele>32.8</ele><time>2026-04-04T11:38:16.007Z</time></trkpt><trkpt lat="40.9497433" lon="14.30254"><ele>33.0</ele><time>2026-04-04T11:38:18.006Z</time></trkpt><trkpt lat="40.9496217" lon="14.3025233"><ele>33.0</ele><time>2026-04-04T11:38:20.007Z</time></trkpt><trkpt lat="40.94956" lon="14.302505"><ele>33.0</ele><time>2026-04-04T11:38:21.006Z</time></trkpt><trkpt lat="40.949495" lon="14.302495"><ele>33.0</ele><time>2026-04-04T11:38:22.007Z</time></trkpt><trkpt lat="40.9493767" lon="14.30247"><ele>33.0</ele><time>2026-04-04T11:38:24.006Z</time></trkpt><trkpt lat="40.9492733" lon="14.3024333"><ele>33.0</ele><time>2026-04-04T11:38:26.006Z</time></trkpt><trkpt lat="40.9491617" lon="14.3023867"><ele>32.6</ele><time>2026-04-04T11:38:28.005Z</time></trkpt><trkpt lat="40.949055" lon="14.3023583"><ele>32.199999999999996</ele><time>2026-04-04T11:38:30.006Z</time></trkpt><trkpt lat="40.9489367" lon="14.302335"><ele>31.8</ele><time>2026-04-04T11:38:32.006Z</time></trkpt><trkpt lat="40.94881" lon="14.30231"><ele>31.4</ele><time>2026-04-04T11:38:34.006Z</time></trkpt><trkpt lat="40.9487483" lon="14.3022883"><ele>31.0</ele><time>2026-04-04T11:38:35.007Z</time></trkpt><trkpt lat="40.948685" lon="14.30227"><ele>31.0</ele><time>2026-04-04T11:38:36.006Z</time></trkpt><trkpt lat="40.9486217" lon="14.302255"><ele>31.000000000000004</ele><time>2026-04-04T11:38:37.007Z</time></trkpt><trkpt lat="40.94856" lon="14.3022367"><ele>31.0</ele><time>2026-04-04T11:38:38.006Z</time></trkpt><trkpt lat="40.94849" lon="14.3022333"><ele>31.0</ele><time>2026-04-04T11:38:39.006Z</time></trkpt><trkpt lat="40.9484233" lon="14.3022233"><ele>31.000000000000004</ele><time>2026-04-04T11:38:40.006Z</time></trkpt><trkpt lat="40.9483583" lon="14.3022"><ele>31.0</ele><time>2026-04-04T11:38:41.006Z</time></trkpt><trkpt lat="40.94829" lon="14.3021767"><ele>31.0</ele><time>2026-04-04T11:38:42.008Z</time></trkpt><trkpt lat="40.94822" lon="14.3021533"><ele>31.142857142857146</ele><time>2026-04-04T11:38:43.006Z</time></trkpt><trkpt lat="40.9481517" lon="14.3021317"><ele>31.28571428571429</ele><time>2026-04-04T11:38:44.009Z</time></trkpt><trkpt lat="40.9480817" lon="14.302115"><ele>31.42857142857143</ele><time>2026-04-04T11:38:45.006Z</time></trkpt><trkpt lat="40.9480083" lon="14.302105"><ele>31.57142857142857</ele><time>2026-04-04T11:38:46.006Z</time></trkpt><trkpt lat="40.947935" lon="14.3020933"><ele>31.71428571428571</ele><time>2026-04-04T11:38:47.007Z</time></trkpt><trkpt lat="40.9478667" lon="14.30208"><ele>31.857142857142854</ele><time>2026-04-04T11:38:48.007Z</time></trkpt><trkpt lat="40.9477933" lon="14.30207"><ele>32.0</ele><time>2026-04-04T11:38:49.007Z</time></trkpt><trkpt lat="40.9477167" lon="14.3020533"><ele>31.999999999999996</ele><time>2026-04-04T11:38:50.007Z</time></trkpt><trkpt lat="40.94765" lon="14.3020383"><ele>32.0</ele><time>2026-04-04T11:38:51.006Z</time></trkpt><trkpt lat="40.94758" lon="14.30202"><ele>32.0</ele><time>2026-04-04T11:38:52.007Z</time></trkpt><trkpt lat="40.9474617" lon="14.3019833"><ele>32.0</ele><time>2026-04-04T11:38:54.006Z</time></trkpt><trkpt lat="40.9473983" lon="14.3019367"><ele>31.999999999999996</ele><time>2026-04-04T11:38:55.007Z</time></trkpt><trkpt lat="40.9473417" lon="14.30187"><ele>32.0</ele><time>2026-04-04T11:38:56.006Z</time></trkpt><trkpt lat="40.9472883" lon="14.3017883"><ele>32.166666666666664</ele><time>2026-04-04T11:38:57.006Z</time></trkpt><trkpt lat="40.9472367" lon="14.3016833"><ele>32.33333333333333</ele><time>2026-04-04T11:38:58.006Z</time></trkpt><trkpt lat="40.9472" lon="14.3015717"><ele>32.5</ele><time>2026-04-04T11:38:59.006Z</time></trkpt><trkpt lat="40.9471617" lon="14.301475"><ele>32.666666666666664</ele><time>2026-04-04T11:39:00.006Z</time></trkpt><trkpt lat="40.9471283" lon="14.3013817"><ele>32.833333333333336</ele><time>2026-04-04T11:39:01.007Z</time></trkpt><trkpt lat="40.9470933" lon="14.30129"><ele>33.0</ele><time>2026-04-04T11:39:02.006Z</time></trkpt><trkpt lat="40.9470617" lon="14.3011883"><ele>32.666666666666664</ele><time>2026-04-04T11:39:03.006Z</time></trkpt><trkpt lat="40.94703" lon="14.3010933"><ele>32.333333333333336</ele><time>2026-04-04T11:39:04.005Z</time></trkpt><trkpt lat="40.9469983" lon="14.3010017"><ele>32.0</ele><time>2026-04-04T11:39:05.006Z</time></trkpt><trkpt lat="40.946965" lon="14.3009117"><ele>31.666666666666668</ele><time>2026-04-04T11:39:06.007Z</time></trkpt><trkpt lat="40.94693" lon="14.30082"><ele>31.333333333333336</ele><time>2026-04-04T11:39:07.006Z</time></trkpt><trkpt lat="40.9468983" lon="14.30073"><ele>31.0</ele><time>2026-04-04T11:39:08.006Z</time></trkpt><trkpt lat="40.9468683" lon="14.30064"><ele>30.857142857142858</ele><time>2026-04-04T11:39:09.006Z</time></trkpt><trkpt lat="40.946835" lon="14.30055"><ele>30.714285714285715</ele><time>2026-04-04T11:39:10.006Z</time></trkpt><trkpt lat="40.9468017" lon="14.3004633"><ele>30.571428571428573</ele><time>2026-04-04T11:39:11.006Z</time></trkpt><trkpt lat="40.94677" lon="14.3003767"><ele>30.42857142857143</ele><time>2026-04-04T11:39:12.006Z</time></trkpt><trkpt lat="40.9467367" lon="14.30029"><ele>30.285714285714285</ele><time>2026-04-04T11:39:13.006Z</time></trkpt><trkpt lat="40.946705" lon="14.300205"><ele>30.142857142857146</ele><time>2026-04-04T11:39:14.006Z</time></trkpt><trkpt lat="40.9466783" lon="14.300125"><ele>30.0</ele><time>2026-04-04T11:39:15.006Z</time></trkpt><trkpt lat="40.9466517" lon="14.3000367"><ele>30.285714285714285</ele><time>2026-04-04T11:39:16.007Z</time></trkpt><trkpt lat="40.9466267" lon="14.2999483"><ele>30.57142857142857</ele><time>2026-04-04T11:39:17.009Z</time></trkpt><trkpt lat="40.9466017" lon="14.2998617"><ele>30.857142857142854</ele><time>2026-04-04T11:39:18.007Z</time></trkpt><trkpt lat="40.9465767" lon="14.2997783"><ele>31.142857142857142</ele><time>2026-04-04T11:39:19.006Z</time></trkpt><trkpt lat="40.9465467" lon="14.2996967"><ele>31.428571428571423</ele><time>2026-04-04T11:39:20.01Z</time></trkpt><trkpt lat="40.9465167" lon="14.29962"><ele>31.71428571428571</ele><time>2026-04-04T11:39:21.006Z</time></trkpt><trkpt lat="40.946485" lon="14.2995433"><ele>32.0</ele><time>2026-04-04T11:39:22.006Z</time></trkpt><trkpt lat="40.9464517" lon="14.2994683"><ele>31.999999999999996</ele><time>2026-04-04T11:39:23.006Z</time></trkpt><trkpt lat="40.9464117" lon="14.2994"><ele>32.0</ele><time>2026-04-04T11:39:24.006Z</time></trkpt><trkpt lat="40.9463017" lon="14.2993483"><ele>32.0</ele><time>2026-04-04T11:39:26.007Z</time></trkpt><trkpt lat="40.9462383" lon="14.299365"><ele>32.0</ele><time>2026-04-04T11:39:27.006Z</time></trkpt><trkpt lat="40.94617" lon="14.2993867"><ele>31.999999999999996</ele><time>2026-04-04T11:39:28.006Z</time></trkpt><trkpt lat="40.9461017" lon="14.2993967"><ele>32.0</ele><time>2026-04-04T11:39:29.006Z</time></trkpt><trkpt lat="40.94603" lon="14.299395"><ele>32.0</ele><time>2026-04-04T11:39:30.007Z</time></trkpt><trkpt lat="40.9459617" lon="14.2993867"><ele>31.999999999999996</ele><time>2026-04-04T11:39:31.006Z</time></trkpt><trkpt lat="40.9458917" lon="14.299375"><ele>32.0</ele><time>2026-04-04T11:39:32.006Z</time></trkpt><trkpt lat="40.9458233" lon="14.2993633"><ele>32.0</ele><time>2026-04-04T11:39:33.006Z</time></trkpt><trkpt lat="40.945755" lon="14.2993517"><ele>31.999999999999996</ele><time>2026-04-04T11:39:34.006Z</time></trkpt><trkpt lat="40.9456883" lon="14.2993433"><ele>32.0</ele><time>2026-04-04T11:39:35.006Z</time></trkpt><trkpt lat="40.94562" lon="14.2993317"><ele>32.0</ele><time>2026-04-04T11:39:36.006Z</time></trkpt><trkpt lat="40.9455483" lon="14.2993283"><ele>32.14285714285714</ele><time>2026-04-04T11:39:37.006Z</time></trkpt><trkpt lat="40.9454767" lon="14.2993217"><ele>32.285714285714285</ele><time>2026-04-04T11:39:38.006Z</time></trkpt><trkpt lat="40.9454033" lon="14.2993133"><ele>32.42857142857143</ele><time>2026-04-04T11:39:39.008Z</time></trkpt><trkpt lat="40.945335" lon="14.2992983"><ele>32.57142857142857</ele><time>2026-04-04T11:39:40.007Z</time></trkpt><trkpt lat="40.9452617" lon="14.2992817"><ele>32.714285714285715</ele><time>2026-04-04T11:39:41.006Z</time></trkpt><trkpt lat="40.945185" lon="14.2992617"><ele>32.857142857142854</ele><time>2026-04-04T11:39:42.006Z</time></trkpt><trkpt lat="40.9451133" lon="14.2992417"><ele>33.0</ele><time>2026-04-04T11:39:43.006Z</time></trkpt><trkpt lat="40.94504" lon="14.299225"><ele>33.0</ele><time>2026-04-04T11:39:44.007Z</time></trkpt><trkpt lat="40.9449683" lon="14.2992067"><ele>33.0</ele><time>2026-04-04T11:39:45.007Z</time></trkpt><trkpt lat="40.9448967" lon="14.2991867"><ele>33.0</ele><time>2026-04-04T11:39:46.008Z</time></trkpt><trkpt lat="40.9448233" lon="14.299165"><ele>33.0</ele><time>2026-04-04T11:39:47.006Z</time></trkpt><trkpt lat="40.94475" lon="14.2991483"><ele>33.0</ele><time>2026-04-04T11:39:48.006Z</time></trkpt><trkpt lat="40.944675" lon="14.299135"><ele>33.0</ele><time>2026-04-04T11:39:49.007Z</time></trkpt><trkpt lat="40.9445967" lon="14.299125"><ele>33.0</ele><time>2026-04-04T11:39:50.007Z</time></trkpt><trkpt lat="40.9445167" lon="14.2991183"><ele>33.0</ele><time>2026-04-04T11:39:51.007Z</time></trkpt><trkpt lat="40.944435" lon="14.2991117"><ele>33.0</ele><time>2026-04-04T11:39:52.006Z</time></trkpt><trkpt lat="40.944355" lon="14.2990983"><ele>33.0</ele><time>2026-04-04T11:39:53.006Z</time></trkpt><trkpt lat="40.944275" lon="14.2990917"><ele>33.0</ele><time>2026-04-04T11:39:54.008Z</time></trkpt><trkpt lat="40.9441933" lon="14.29908"><ele>33.0</ele><time>2026-04-04T11:39:55.006Z</time></trkpt><trkpt lat="40.94411" lon="14.2990533"><ele>32.833333333333336</ele><time>2026-04-04T11:39:56.007Z</time></trkpt><trkpt lat="40.9440267" lon="14.2990283"><ele>32.666666666666664</ele><time>2026-04-04T11:39:57.007Z</time></trkpt><trkpt lat="40.94394" lon="14.29901"><ele>32.5</ele><time>2026-04-04T11:39:58.006Z</time></trkpt><trkpt lat="40.9438567" lon="14.2989933"><ele>32.33333333333333</ele><time>2026-04-04T11:39:59.005Z</time></trkpt><trkpt lat="40.9437733" lon="14.2989783"><ele>32.166666666666664</ele><time>2026-04-04T11:40:00.006Z</time></trkpt><trkpt lat="40.9436933" lon="14.2989717"><ele>32.0</ele><time>2026-04-04T11:40:01.005Z</time></trkpt><trkpt lat="40.9436133" lon="14.2989617"><ele>31.999999999999996</ele><time>2026-04-04T11:40:02.006Z</time></trkpt><trkpt lat="40.94353" lon="14.2989567"><ele>32.0</ele><time>2026-04-04T11:40:03.005Z</time></trkpt><trkpt lat="40.94345" lon="14.2989517"><ele>32.0</ele><time>2026-04-04T11:40:04.005Z</time></trkpt><trkpt lat="40.9433667" lon="14.298945"><ele>32.0</ele><time>2026-04-04T11:40:05.006Z</time></trkpt><trkpt lat="40.9432867" lon="14.29894"><ele>31.999999999999996</ele><time>2026-04-04T11:40:06.005Z</time></trkpt><trkpt lat="40.943205" lon="14.29893"><ele>32.0</ele><time>2026-04-04T11:40:07.005Z</time></trkpt><trkpt lat="40.943125" lon="14.298925"><ele>32.33333333333333</ele><time>2026-04-04T11:40:08.006Z</time></trkpt><trkpt lat="40.9430467" lon="14.2989233"><ele>32.666666666666664</ele><time>2026-04-04T11:40:09.006Z</time></trkpt><trkpt lat="40.942965" lon="14.2989233"><ele>33.0</ele><time>2026-04-04T11:40:10.005Z</time></trkpt><trkpt lat="40.9428833" lon="14.29893"><ele>33.333333333333336</ele><time>2026-04-04T11:40:11.006Z</time></trkpt><trkpt lat="40.9428" lon="14.2989233"><ele>33.66666666666667</ele><time>2026-04-04T11:40:12.006Z</time></trkpt><trkpt lat="40.9427233" lon="14.2989217"><ele>34.0</ele><time>2026-04-04T11:40:13.005Z</time></trkpt><trkpt lat="40.9426433" lon="14.298915"><ele>33.99999999999999</ele><time>2026-04-04T11:40:14.005Z</time></trkpt><trkpt lat="40.94257" lon="14.2989183"><ele>34.0</ele><time>2026-04-04T11:40:15.005Z</time></trkpt><trkpt lat="40.9424967" lon="14.29892"><ele>34.0</ele><time>2026-04-04T11:40:16.008Z</time></trkpt><trkpt lat="40.9424233" lon="14.2989267"><ele>34.0</ele><time>2026-04-04T11:40:17.005Z</time></trkpt><trkpt lat="40.9423517" lon="14.2989283"><ele>34.0</ele><time>2026-04-04T11:40:18.006Z</time></trkpt><trkpt lat="40.9422817" lon="14.2989267"><ele>33.99999999999999</ele><time>2026-04-04T11:40:19.005Z</time></trkpt><trkpt lat="40.9422183" lon="14.298925"><ele>34.0</ele><time>2026-04-04T11:40:20.006Z</time></trkpt><trkpt lat="40.9421533" lon="14.2989283"><ele>34.4</ele><time>2026-04-04T11:40:21.006Z</time></trkpt><trkpt lat="40.9420883" lon="14.2989317"><ele>34.8</ele><time>2026-04-04T11:40:22.005Z</time></trkpt><trkpt lat="40.9420217" lon="14.2989333"><ele>35.2</ele><time>2026-04-04T11:40:23.006Z</time></trkpt><trkpt lat="40.9419067" lon="14.2989383"><ele>35.6</ele><time>2026-04-04T11:40:25.005Z</time></trkpt><trkpt lat="40.941795" lon="14.29896"><ele>36.0</ele><time>2026-04-04T11:40:27.007Z</time></trkpt><trkpt lat="40.9416883" lon="14.2989867"><ele>36.2</ele><time>2026-04-04T11:40:29.006Z</time></trkpt><trkpt lat="40.9415817" lon="14.299015"><ele>36.400000000000006</ele><time>2026-04-04T11:40:31.006Z</time></trkpt><trkpt lat="40.9414817" lon="14.2990533"><ele>36.6</ele><time>2026-04-04T11:40:33.006Z</time></trkpt><trkpt lat="40.94137" lon="14.2990933"><ele>36.800000000000004</ele><time>2026-04-04T11:40:35.006Z</time></trkpt><trkpt lat="40.9412633" lon="14.29913"><ele>37.0</ele><time>2026-04-04T11:40:37.007Z</time></trkpt><trkpt lat="40.9411617" lon="14.2991933"><ele>37.0</ele><time>2026-04-04T11:40:39.005Z</time></trkpt><trkpt lat="40.9410417" lon="14.2992517"><ele>37.0</ele><time>2026-04-04T11:40:41.005Z</time></trkpt><trkpt lat="40.94098" lon="14.29928"><ele>37.0</ele><time>2026-04-04T11:40:42.005Z</time></trkpt><trkpt lat="40.9409133" lon="14.2993"><ele>37.0</ele><time>2026-04-04T11:40:43.005Z</time></trkpt><trkpt lat="40.9408433" lon="14.2993233"><ele>37.0</ele><time>2026-04-04T11:40:44.006Z</time></trkpt><trkpt lat="40.9407733" lon="14.2993517"><ele>37.0</ele><time>2026-04-04T11:40:45.005Z</time></trkpt><trkpt lat="40.9407017" lon="14.2993783"><ele>37.0</ele><time>2026-04-04T11:40:46.005Z</time></trkpt><trkpt lat="40.9406267" lon="14.299395"><ele>37.0</ele><time>2026-04-04T11:40:47.005Z</time></trkpt><trkpt lat="40.940545" lon="14.29941"><ele>37.0</ele><time>2026-04-04T11:40:48.006Z</time></trkpt><trkpt lat="40.9404683" lon="14.2994217"><ele>37.0</ele><time>2026-04-04T11:40:49.005Z</time></trkpt><trkpt lat="40.94039" lon="14.2994317"><ele>37.0</ele><time>2026-04-04T11:40:50.005Z</time></trkpt><trkpt lat="40.9403117" lon="14.29945"><ele>37.0</ele><time>2026-04-04T11:40:51.005Z</time></trkpt><trkpt lat="40.9402333" lon="14.29947"><ele>37.0</ele><time>2026-04-04T11:40:52.006Z</time></trkpt><trkpt lat="40.940155" lon="14.2994883"><ele>37.0</ele><time>2026-04-04T11:40:53.005Z</time></trkpt><trkpt lat="40.9400733" lon="14.2995117"><ele>37.0</ele><time>2026-04-04T11:40:54.007Z</time></trkpt><trkpt lat="40.939995" lon="14.29954"><ele>37.0</ele><time>2026-04-04T11:40:55.005Z</time></trkpt><trkpt lat="40.9399133" lon="14.2995717"><ele>37.0</ele><time>2026-04-04T11:40:56.005Z</time></trkpt><trkpt lat="40.939835" lon="14.2996167"><ele>37.0</ele><time>2026-04-04T11:40:57.005Z</time></trkpt><trkpt lat="40.9397567" lon="14.299665"><ele>36.833333333333336</ele><time>2026-04-04T11:40:58.006Z</time></trkpt><trkpt lat="40.9396833" lon="14.2997083"><ele>36.66666666666667</ele><time>2026-04-04T11:40:59.005Z</time></trkpt><trkpt lat="40.93961" lon="14.2997517"><ele>36.5</ele><time>2026-04-04T11:41:00.006Z</time></trkpt><trkpt lat="40.9395383" lon="14.2998033"><ele>36.333333333333336</ele><time>2026-04-04T11:41:01.005Z</time></trkpt><trkpt lat="40.939465" lon="14.2998533"><ele>36.166666666666664</ele><time>2026-04-04T11:41:02.005Z</time></trkpt><trkpt lat="40.9393883" lon="14.299895"><ele>36.0</ele><time>2026-04-04T11:41:03.005Z</time></trkpt><trkpt lat="40.93931" lon="14.2999317"><ele>36.0</ele><time>2026-04-04T11:41:04.005Z</time></trkpt><trkpt lat="40.9392383" lon="14.2999767"><ele>36.0</ele><time>2026-04-04T11:41:05.005Z</time></trkpt><trkpt lat="40.9391667" lon="14.3000217"><ele>36.0</ele><time>2026-04-04T11:41:06.005Z</time></trkpt><trkpt lat="40.9390983" lon="14.3000683"><ele>36.0</ele><time>2026-04-04T11:41:07.005Z</time></trkpt><trkpt lat="40.93903" lon="14.300115"><ele>36.0</ele><time>2026-04-04T11:41:08.005Z</time></trkpt><trkpt lat="40.9389617" lon="14.3001567"><ele>36.0</ele><time>2026-04-04T11:41:09.005Z</time></trkpt><trkpt lat="40.9388917" lon="14.300195"><ele>36.166666666666664</ele><time>2026-04-04T11:41:10.006Z</time></trkpt><trkpt lat="40.938825" lon="14.300235"><ele>36.333333333333336</ele><time>2026-04-04T11:41:11.006Z</time></trkpt><trkpt lat="40.9387683" lon="14.3002717"><ele>36.5</ele><time>2026-04-04T11:41:12.006Z</time></trkpt><trkpt lat="40.9386783" lon="14.30032"><ele>36.66666666666667</ele><time>2026-04-04T11:41:14.006Z</time></trkpt><trkpt lat="40.938595" lon="14.3003567"><ele>36.833333333333336</ele><time>2026-04-04T11:41:17.005Z</time></trkpt><trkpt lat="40.9385167" lon="14.3003933"><ele>37.0</ele><time>2026-04-04T11:41:20.005Z</time></trkpt><trkpt lat="40.9384533" lon="14.30044"><ele>37.0</ele><time>2026-04-04T11:41:22.006Z</time></trkpt><trkpt lat="40.9383883" lon="14.3004917"><ele>37.0</ele><time>2026-04-04T11:41:24.007Z</time></trkpt><trkpt lat="40.938325" lon="14.30053"><ele>37.0</ele><time>2026-04-04T11:41:26.005Z</time></trkpt><trkpt lat="40.9382667" lon="14.300565"><ele>37.0</ele><time>2026-04-04T11:41:28.005Z</time></trkpt><trkpt lat="40.938205" lon="14.30061"><ele>37.0</ele><time>2026-04-04T11:41:30.006Z</time></trkpt><trkpt lat="40.938125" lon="14.3006483"><ele>37.0</ele><time>2026-04-04T11:41:32.005Z</time></trkpt><trkpt lat="40.93804" lon="14.3006767"><ele>37.0</ele><time>2026-04-04T11:41:34.005Z</time></trkpt><trkpt lat="40.937945" lon="14.3007217"><ele>37.0</ele><time>2026-04-04T11:41:36.006Z</time></trkpt><trkpt lat="40.9378433" lon="14.30077"><ele>37.0</ele><time>2026-04-04T11:41:38.005Z</time></trkpt><trkpt lat="40.9377433" lon="14.3008017"><ele>37.0</ele><time>2026-04-04T11:41:40.006Z</time></trkpt><trkpt lat="40.937645" lon="14.30082"><ele>37.0</ele><time>2026-04-04T11:41:42.006Z</time></trkpt><trkpt lat="40.9375367" lon="14.30083"><ele>37.0</ele><time>2026-04-04T11:41:44.006Z</time></trkpt><trkpt lat="40.93743" lon="14.3008517"><ele>37.0</ele><time>2026-04-04T11:41:46.007Z</time></trkpt><trkpt lat="40.93732" lon="14.3008667"><ele>37.0</ele><time>2026-04-04T11:41:48.005Z</time></trkpt><trkpt lat="40.9372117" lon="14.3008883"><ele>37.0</ele><time>2026-04-04T11:41:50.007Z</time></trkpt><trkpt lat="40.9370917" lon="14.3009133"><ele>37.0</ele><time>2026-04-04T11:41:52.007Z</time></trkpt><trkpt lat="40.93697" lon="14.300935"><ele>37.0</ele><time>2026-04-04T11:41:54.005Z</time></trkpt><trkpt lat="40.9369067" lon="14.300945"><ele>37.0</ele><time>2026-04-04T11:41:55.006Z</time></trkpt><trkpt lat="40.9368417" lon="14.3009583"><ele>37.0</ele><time>2026-04-04T11:41:56.006Z</time></trkpt><trkpt lat="40.9367767" lon="14.30097"><ele>37.0</ele><time>2026-04-04T11:41:57.006Z</time></trkpt><trkpt lat="40.9367083" lon="14.30098"><ele>37.0</ele><time>2026-04-04T11:41:58.005Z</time></trkpt><trkpt lat="40.93664" lon="14.3009883"><ele>37.0</ele><time>2026-04-04T11:41:59.005Z</time></trkpt><trkpt lat="40.9365733" lon="14.3010017"><ele>37.0</ele><time>2026-04-04T11:42:00.006Z</time></trkpt><trkpt lat="40.936505" lon="14.301015"><ele>37.0</ele><time>2026-04-04T11:42:01.005Z</time></trkpt><trkpt lat="40.936435" lon="14.3010283"><ele>37.0</ele><time>2026-04-04T11:42:02.006Z</time></trkpt><trkpt lat="40.9363667" lon="14.301045"><ele>37.0</ele><time>2026-04-04T11:42:03.006Z</time></trkpt><trkpt lat="40.9363" lon="14.3010617"><ele>37.0</ele><time>2026-04-04T11:42:04.006Z</time></trkpt><trkpt lat="40.9362333" lon="14.3010833"><ele>37.0</ele><time>2026-04-04T11:42:05.006Z</time></trkpt><trkpt lat="40.9361633" lon="14.3011017"><ele>37.0</ele><time>2026-04-04T11:42:06.006Z</time></trkpt><trkpt lat="40.9360933" lon="14.3011183"><ele>37.0</ele><time>2026-04-04T11:42:07.006Z</time></trkpt><trkpt lat="40.936025" lon="14.3011367"><ele>37.0</ele><time>2026-04-04T11:42:08.006Z</time></trkpt><trkpt lat="40.9359567" lon="14.30115"><ele>37.0</ele><time>2026-04-04T11:42:09.006Z</time></trkpt><trkpt lat="40.93589" lon="14.30116"><ele>37.0</ele><time>2026-04-04T11:42:10.005Z</time></trkpt><trkpt lat="40.9358233" lon="14.3011633"><ele>37.0</ele><time>2026-04-04T11:42:11.006Z</time></trkpt><trkpt lat="40.9357533" lon="14.3011683"><ele>37.0</ele><time>2026-04-04T11:42:12.005Z</time></trkpt><trkpt lat="40.9356817" lon="14.3011717"><ele>37.0</ele><time>2026-04-04T11:42:13.006Z</time></trkpt><trkpt lat="40.9356117" lon="14.301175"><ele>37.0</ele><time>2026-04-04T11:42:14.006Z</time></trkpt><trkpt lat="40.9355433" lon="14.3011767"><ele>37.0</ele><time>2026-04-04T11:42:15.006Z</time></trkpt><trkpt lat="40.9354767" lon="14.3011767"><ele>37.0</ele><time>2026-04-04T11:42:16.005Z</time></trkpt><trkpt lat="40.9354083" lon="14.3011733"><ele>37.0</ele><time>2026-04-04T11:42:17.006Z</time></trkpt><trkpt lat="40.9353383" lon="14.301175"><ele>37.0</ele><time>2026-04-04T11:42:18.006Z</time></trkpt><trkpt lat="40.9352683" lon="14.301165"><ele>37.0</ele><time>2026-04-04T11:42:19.006Z</time></trkpt><trkpt lat="40.9352" lon="14.3011583"><ele>37.0</ele><time>2026-04-04T11:42:20.007Z</time></trkpt><trkpt lat="40.93513" lon="14.3011567"><ele>37.0</ele><time>2026-04-04T11:42:21.005Z</time></trkpt><trkpt lat="40.9350633" lon="14.3011517"><ele>37.0</ele><time>2026-04-04T11:42:22.006Z</time></trkpt><trkpt lat="40.9349933" lon="14.30115"><ele>37.0</ele><time>2026-04-04T11:42:23.006Z</time></trkpt><trkpt lat="40.9349217" lon="14.3011433"><ele>37.0</ele><time>2026-04-04T11:42:24.007Z</time></trkpt><trkpt lat="40.9348533" lon="14.3011417"><ele>37.0</ele><time>2026-04-04T11:42:25.005Z</time></trkpt><trkpt lat="40.9347867" lon="14.3011333"><ele>37.0</ele><time>2026-04-04T11:42:26.005Z</time></trkpt><trkpt lat="40.934715" lon="14.301135"><ele>37.285714285714285</ele><time>2026-04-04T11:42:27.006Z</time></trkpt><trkpt lat="40.934645" lon="14.3011317"><ele>37.57142857142857</ele><time>2026-04-04T11:42:28.006Z</time></trkpt><trkpt lat="40.9345733" lon="14.30113"><ele>37.85714285714286</ele><time>2026-04-04T11:42:29.006Z</time></trkpt><trkpt lat="40.9345017" lon="14.30113"><ele>38.14285714285714</ele><time>2026-04-04T11:42:30.008Z</time></trkpt><trkpt lat="40.93443" lon="14.3011317"><ele>38.42857142857142</ele><time>2026-04-04T11:42:31.005Z</time></trkpt><trkpt lat="40.9343617" lon="14.3011367"><ele>38.714285714285715</ele><time>2026-04-04T11:42:32.006Z</time></trkpt><trkpt lat="40.9342933" lon="14.301145"><ele>39.0</ele><time>2026-04-04T11:42:33.005Z</time></trkpt><trkpt lat="40.934215" lon="14.3011633"><ele>39.333333333333336</ele><time>2026-04-04T11:42:34.005Z</time></trkpt><trkpt lat="40.9341417" lon="14.301175"><ele>39.666666666666664</ele><time>2026-04-04T11:42:35.005Z</time></trkpt><trkpt lat="40.9340633" lon="14.301185"><ele>40.0</ele><time>2026-04-04T11:42:36.005Z</time></trkpt><trkpt lat="40.9339883" lon="14.301195"><ele>40.33333333333333</ele><time>2026-04-04T11:42:37.005Z</time></trkpt><trkpt lat="40.9339117" lon="14.3011967"><ele>40.666666666666664</ele><time>2026-04-04T11:42:38.007Z</time></trkpt><trkpt lat="40.9338367" lon="14.301185"><ele>41.0</ele><time>2026-04-04T11:42:39.007Z</time></trkpt><trkpt lat="40.9337583" lon="14.3011717"><ele>41.0</ele><time>2026-04-04T11:42:40.005Z</time></trkpt><trkpt lat="40.9336917" lon="14.3011617"><ele>41.0</ele><time>2026-04-04T11:42:41.005Z</time></trkpt><trkpt lat="40.9336233" lon="14.3011583"><ele>41.0</ele><time>2026-04-04T11:42:42.006Z</time></trkpt><trkpt lat="40.9335567" lon="14.30116"><ele>41.0</ele><time>2026-04-04T11:42:43.005Z</time></trkpt><trkpt lat="40.9334933" lon="14.3011567"><ele>41.0</ele><time>2026-04-04T11:42:44.007Z</time></trkpt><trkpt lat="40.933365" lon="14.3011367"><ele>41.0</ele><time>2026-04-04T11:42:46.006Z</time></trkpt><trkpt lat="40.9332967" lon="14.30113"><ele>40.71428571428571</ele><time>2026-04-04T11:42:47.006Z</time></trkpt><trkpt lat="40.9332233" lon="14.3011283"><ele>40.42857142857143</ele><time>2026-04-04T11:42:48.006Z</time></trkpt><trkpt lat="40.93315" lon="14.3011283"><ele>40.14285714285714</ele><time>2026-04-04T11:42:49.006Z</time></trkpt><trkpt lat="40.9330783" lon="14.3011283"><ele>39.857142857142854</ele><time>2026-04-04T11:42:50.006Z</time></trkpt><trkpt lat="40.9330033" lon="14.3011283"><ele>39.57142857142857</ele><time>2026-04-04T11:42:51.006Z</time></trkpt><trkpt lat="40.9329267" lon="14.3011233"><ele>39.285714285714285</ele><time>2026-04-04T11:42:52.005Z</time></trkpt><trkpt lat="40.9328483" lon="14.3011217"><ele>39.0</ele><time>2026-04-04T11:42:53.006Z</time></trkpt><trkpt lat="40.93277" lon="14.30112"><ele>39.0</ele><time>2026-04-04T11:42:54.007Z</time></trkpt><trkpt lat="40.9326917" lon="14.3011167"><ele>39.0</ele><time>2026-04-04T11:42:55.006Z</time></trkpt><trkpt lat="40.9326167" lon="14.3011133"><ele>39.0</ele><time>2026-04-04T11:42:56.007Z</time></trkpt><trkpt lat="40.932545" lon="14.3011117"><ele>39.0</ele><time>2026-04-04T11:42:57.005Z</time></trkpt><trkpt lat="40.9324733" lon="14.3011133"><ele>39.0</ele><time>2026-04-04T11:42:58.005Z</time></trkpt><trkpt lat="40.9323983" lon="14.301115"><ele>39.0</ele><time>2026-04-04T11:42:59.006Z</time></trkpt><trkpt lat="40.93232" lon="14.3011167"><ele>39.166666666666664</ele><time>2026-04-04T11:43:00.006Z</time></trkpt><trkpt lat="40.9322417" lon="14.3011067"><ele>39.333333333333336</ele><time>2026-04-04T11:43:01.006Z</time></trkpt><trkpt lat="40.9321617" lon="14.3010867"><ele>39.5</ele><time>2026-04-04T11:43:02.006Z</time></trkpt><trkpt lat="40.9320833" lon="14.30106"><ele>39.66666666666667</ele><time>2026-04-04T11:43:03.006Z</time></trkpt><trkpt lat="40.9320067" lon="14.301025"><ele>39.833333333333336</ele><time>2026-04-04T11:43:04.006Z</time></trkpt><trkpt lat="40.9319317" lon="14.30098"><ele>40.0</ele><time>2026-04-04T11:43:05.005Z</time></trkpt><trkpt lat="40.93186" lon="14.300925"><ele>40.0</ele><time>2026-04-04T11:43:06.006Z</time></trkpt><trkpt lat="40.9317917" lon="14.3008567"><ele>40.0</ele><time>2026-04-04T11:43:07.006Z</time></trkpt><trkpt lat="40.93173" lon="14.3007783"><ele>40.0</ele><time>2026-04-04T11:43:08.006Z</time></trkpt><trkpt lat="40.9316717" lon="14.300695"><ele>40.0</ele><time>2026-04-04T11:43:09.005Z</time></trkpt><trkpt lat="40.9316117" lon="14.3006117"><ele>40.0</ele><time>2026-04-04T11:43:10.005Z</time></trkpt><trkpt lat="40.931555" lon="14.3005267"><ele>40.0</ele><time>2026-04-04T11:43:11.007Z</time></trkpt><trkpt lat="40.9315017" lon="14.3004433"><ele>40.0</ele><time>2026-04-04T11:43:12.005Z</time></trkpt><trkpt lat="40.9314483" lon="14.30036"><ele>40.0</ele><time>2026-04-04T11:43:13.006Z</time></trkpt><trkpt lat="40.9313933" lon="14.3002783"><ele>40.0</ele><time>2026-04-04T11:43:14.006Z</time></trkpt><trkpt lat="40.931335" lon="14.300195"><ele>40.0</ele><time>2026-04-04T11:43:15.007Z</time></trkpt><trkpt lat="40.93128" lon="14.30011"><ele>40.0</ele><time>2026-04-04T11:43:16.006Z</time></trkpt><trkpt lat="40.9312283" lon="14.300025"><ele>40.0</ele><time>2026-04-04T11:43:17.005Z</time></trkpt><trkpt lat="40.9311767" lon="14.2999433"><ele>40.0</ele><time>2026-04-04T11:43:18.007Z</time></trkpt><trkpt lat="40.9311217" lon="14.2998617"><ele>40.0</ele><time>2026-04-04T11:43:19.006Z</time></trkpt><trkpt lat="40.9310717" lon="14.2997817"><ele>40.0</ele><time>2026-04-04T11:43:20.006Z</time></trkpt><trkpt lat="40.9310217" lon="14.299705"><ele>40.0</ele><time>2026-04-04T11:43:21.006Z</time></trkpt><trkpt lat="40.9309683" lon="14.2996333"><ele>40.0</ele><time>2026-04-04T11:43:22.005Z</time></trkpt><trkpt lat="40.9309183" lon="14.2995617"><ele>40.0</ele><time>2026-04-04T11:43:23.006Z</time></trkpt><trkpt lat="40.93087" lon="14.2994933"><ele>40.0</ele><time>2026-04-04T11:43:24.006Z</time></trkpt><trkpt lat="40.9308217" lon="14.2994267"><ele>40.0</ele><time>2026-04-04T11:43:25.006Z</time></trkpt><trkpt lat="40.9307733" lon="14.2993567"><ele>40.0</ele><time>2026-04-04T11:43:26.006Z</time></trkpt><trkpt lat="40.9307217" lon="14.299285"><ele>40.0</ele><time>2026-04-04T11:43:27.005Z</time></trkpt><trkpt lat="40.93067" lon="14.2992067"><ele>40.0</ele><time>2026-04-04T11:43:28.006Z</time></trkpt><trkpt lat="40.930615" lon="14.299135"><ele>40.0</ele><time>2026-04-04T11:43:29.006Z</time></trkpt><trkpt lat="40.9305617" lon="14.299065"><ele>40.0</ele><time>2026-04-04T11:43:30.007Z</time></trkpt><trkpt lat="40.9305083" lon="14.2989983"><ele>40.0</ele><time>2026-04-04T11:43:31.006Z</time></trkpt><trkpt lat="40.9304583" lon="14.2989283"><ele>40.0</ele><time>2026-04-04T11:43:32.006Z</time></trkpt><trkpt lat="40.9304117" lon="14.2988633"><ele>40.0</ele><time>2026-04-04T11:43:33.007Z</time></trkpt><trkpt lat="40.930365" lon="14.2987983"><ele>40.0</ele><time>2026-04-04T11:43:34.006Z</time></trkpt><trkpt lat="40.9303233" lon="14.2987283"><ele>40.0</ele><time>2026-04-04T11:43:35.007Z</time></trkpt><trkpt lat="40.9302833" lon="14.2986483"><ele>40.0</ele><time>2026-04-04T11:43:36.007Z</time></trkpt><trkpt lat="40.9302533" lon="14.29856"><ele>40.0</ele><time>2026-04-04T11:43:37.007Z</time></trkpt><trkpt lat="40.930225" lon="14.2984667"><ele>40.333333333333336</ele><time>2026-04-04T11:43:38.006Z</time></trkpt><trkpt lat="40.930195" lon="14.298385"><ele>40.66666666666667</ele><time>2026-04-04T11:43:39.006Z</time></trkpt><trkpt lat="40.9301783" lon="14.2982983"><ele>41.0</ele><time>2026-04-04T11:43:40.006Z</time></trkpt><trkpt lat="40.9301517" lon="14.2982217"><ele>41.333333333333336</ele><time>2026-04-04T11:43:41.006Z</time></trkpt><trkpt lat="40.930065" lon="14.29811"><ele>41.666666666666664</ele><time>2026-04-04T11:43:43.006Z</time></trkpt><trkpt lat="40.9300017" lon="14.2981"><ele>42.0</ele><time>2026-04-04T11:43:44.006Z</time></trkpt><trkpt lat="40.9299333" lon="14.29812"><ele>42.0</ele><time>2026-04-04T11:43:45.007Z</time></trkpt><trkpt lat="40.9298683" lon="14.29815"><ele>42.0</ele><time>2026-04-04T11:43:46.007Z</time></trkpt><trkpt lat="40.9298017" lon="14.29817"><ele>42.0</ele><time>2026-04-04T11:43:47.006Z</time></trkpt><trkpt lat="40.9297283" lon="14.2981783"><ele>42.0</ele><time>2026-04-04T11:43:48.006Z</time></trkpt><trkpt lat="40.9296517" lon="14.298185"><ele>42.0</ele><time>2026-04-04T11:43:49.006Z</time></trkpt><trkpt lat="40.9295717" lon="14.298195"><ele>42.0</ele><time>2026-04-04T11:43:50.006Z</time></trkpt><trkpt lat="40.9294883" lon="14.298205"><ele>42.0</ele><time>2026-04-04T11:43:51.006Z</time></trkpt><trkpt lat="40.9294067" lon="14.2982167"><ele>42.0</ele><time>2026-04-04T11:43:52.006Z</time></trkpt><trkpt lat="40.9293233" lon="14.2982283"><ele>42.0</ele><time>2026-04-04T11:43:53.006Z</time></trkpt><trkpt lat="40.9292433" lon="14.2982433"><ele>42.0</ele><time>2026-04-04T11:43:54.006Z</time></trkpt><trkpt lat="40.9291617" lon="14.29826"><ele>42.0</ele><time>2026-04-04T11:43:55.006Z</time></trkpt><trkpt lat="40.9290833" lon="14.29827"><ele>42.0</ele><time>2026-04-04T11:43:56.006Z</time></trkpt><trkpt lat="40.9290033" lon="14.29828"><ele>42.0</ele><time>2026-04-04T11:43:57.007Z</time></trkpt><trkpt lat="40.9289217" lon="14.29829"><ele>42.0</ele><time>2026-04-04T11:43:58.006Z</time></trkpt><trkpt lat="40.9288417" lon="14.2983"><ele>42.0</ele><time>2026-04-04T11:43:59.007Z</time></trkpt><trkpt lat="40.92876" lon="14.298315"><ele>42.0</ele><time>2026-04-04T11:44:00.006Z</time></trkpt><trkpt lat="40.92868" lon="14.298325"><ele>42.0</ele><time>2026-04-04T11:44:01.005Z</time></trkpt><trkpt lat="40.9286" lon="14.2983333"><ele>42.0</ele><time>2026-04-04T11:44:02.006Z</time></trkpt><trkpt lat="40.9285233" lon="14.2983383"><ele>42.0</ele><time>2026-04-04T11:44:03.007Z</time></trkpt><trkpt lat="40.9284483" lon="14.2983483"><ele>42.0</ele><time>2026-04-04T11:44:04.006Z</time></trkpt><trkpt lat="40.9283733" lon="14.2983583"><ele>42.0</ele><time>2026-04-04T11:44:05.007Z</time></trkpt><trkpt lat="40.9282967" lon="14.29837"><ele>42.0</ele><time>2026-04-04T11:44:06.006Z</time></trkpt><trkpt lat="40.9282217" lon="14.2983867"><ele>42.0</ele><time>2026-04-04T11:44:07.006Z</time></trkpt><trkpt lat="40.928145" lon="14.2984033"><ele>42.0</ele><time>2026-04-04T11:44:08.006Z</time></trkpt><trkpt lat="40.9280667" lon="14.2984167"><ele>42.166666666666664</ele><time>2026-04-04T11:44:09.006Z</time></trkpt><trkpt lat="40.9279867" lon="14.2984267"><ele>42.333333333333336</ele><time>2026-04-04T11:44:10.007Z</time></trkpt><trkpt lat="40.9279067" lon="14.2984383"><ele>42.5</ele><time>2026-04-04T11:44:11.007Z</time></trkpt><trkpt lat="40.9278267" lon="14.298455"><ele>42.66666666666667</ele><time>2026-04-04T11:44:12.006Z</time></trkpt><trkpt lat="40.9277483" lon="14.2984717"><ele>42.833333333333336</ele><time>2026-04-04T11:44:13.006Z</time></trkpt><trkpt lat="40.9276717" lon="14.2984883"><ele>43.0</ele><time>2026-04-04T11:44:14.006Z</time></trkpt><trkpt lat="40.9275967" lon="14.2985"><ele>43.00000000000001</ele><time>2026-04-04T11:44:15.006Z</time></trkpt><trkpt lat="40.927525" lon="14.2985133"><ele>43.0</ele><time>2026-04-04T11:44:16.006Z</time></trkpt><trkpt lat="40.9274567" lon="14.2985217"><ele>43.0</ele><time>2026-04-04T11:44:17.006Z</time></trkpt><trkpt lat="40.927385" lon="14.29852"><ele>43.0</ele><time>2026-04-04T11:44:18.007Z</time></trkpt><trkpt lat="40.9273183" lon="14.298505"><ele>43.0</ele><time>2026-04-04T11:44:19.008Z</time></trkpt><trkpt lat="40.9272533" lon="14.2984833"><ele>43.00000000000001</ele><time>2026-04-04T11:44:20.008Z</time></trkpt><trkpt lat="40.9271867" lon="14.29847"><ele>43.0</ele><time>2026-04-04T11:44:21.007Z</time></trkpt><trkpt lat="40.9271183" lon="14.2984733"><ele>43.0</ele><time>2026-04-04T11:44:22.009Z</time></trkpt><trkpt lat="40.92705" lon="14.2984967"><ele>43.0</ele><time>2026-04-04T11:44:23.009Z</time></trkpt><trkpt lat="40.9269783" lon="14.2985133"><ele>43.0</ele><time>2026-04-04T11:44:24.008Z</time></trkpt><trkpt lat="40.926905" lon="14.2985233"><ele>43.0</ele><time>2026-04-04T11:44:25.008Z</time></trkpt><trkpt lat="40.92683" lon="14.2985367"><ele>43.0</ele><time>2026-04-04T11:44:26.008Z</time></trkpt><trkpt lat="40.9267517" lon="14.29855"><ele>43.0</ele><time>2026-04-04T11:44:27.008Z</time></trkpt><trkpt lat="40.92667" lon="14.2985633"><ele>43.333333333333336</ele><time>2026-04-04T11:44:28.007Z</time></trkpt><trkpt lat="40.9265883" lon="14.2985783"><ele>43.66666666666667</ele><time>2026-04-04T11:44:29.008Z</time></trkpt><trkpt lat="40.9265017" lon="14.29859"><ele>44.0</ele><time>2026-04-04T11:44:30.009Z</time></trkpt><trkpt lat="40.92642" lon="14.2985933"><ele>44.333333333333336</ele><time>2026-04-04T11:44:31.008Z</time></trkpt><trkpt lat="40.9263367" lon="14.298595"><ele>44.666666666666664</ele><time>2026-04-04T11:44:32.006Z</time></trkpt><trkpt lat="40.9262567" lon="14.298605"><ele>45.0</ele><time>2026-04-04T11:44:33.006Z</time></trkpt><trkpt lat="40.92618" lon="14.2986167"><ele>45.0</ele><time>2026-04-04T11:44:34.006Z</time></trkpt><trkpt lat="40.9261033" lon="14.2986183"><ele>45.0</ele><time>2026-04-04T11:44:35.007Z</time></trkpt><trkpt lat="40.926025" lon="14.298615"><ele>45.0</ele><time>2026-04-04T11:44:36.006Z</time></trkpt><trkpt lat="40.9259433" lon="14.2986117"><ele>45.0</ele><time>2026-04-04T11:44:37.006Z</time></trkpt><trkpt lat="40.925865" lon="14.2986017"><ele>45.0</ele><time>2026-04-04T11:44:38.006Z</time></trkpt><trkpt lat="40.9257833" lon="14.298585"><ele>45.0</ele><time>2026-04-04T11:44:39.007Z</time></trkpt><trkpt lat="40.9257033" lon="14.298575"><ele>45.285714285714285</ele><time>2026-04-04T11:44:40.006Z</time></trkpt><trkpt lat="40.9256317" lon="14.298565"><ele>45.57142857142858</ele><time>2026-04-04T11:44:41.007Z</time></trkpt><trkpt lat="40.92556" lon="14.298555"><ele>45.85714285714286</ele><time>2026-04-04T11:44:42.006Z</time></trkpt><trkpt lat="40.9254867" lon="14.2985367"><ele>46.14285714285714</ele><time>2026-04-04T11:44:43.006Z</time></trkpt><trkpt lat="40.9254133" lon="14.29851"><ele>46.42857142857143</ele><time>2026-04-04T11:44:44.006Z</time></trkpt><trkpt lat="40.925345" lon="14.2984817"><ele>46.714285714285715</ele><time>2026-04-04T11:44:45.006Z</time></trkpt><trkpt lat="40.9252733" lon="14.29845"><ele>47.0</ele><time>2026-04-04T11:44:46.007Z</time></trkpt><trkpt lat="40.925205" lon="14.2984133"><ele>47.0</ele><time>2026-04-04T11:44:47.006Z</time></trkpt><trkpt lat="40.925135" lon="14.2983683"><ele>47.0</ele><time>2026-04-04T11:44:48.006Z</time></trkpt><trkpt lat="40.9250667" lon="14.29832"><ele>47.0</ele><time>2026-04-04T11:44:49.007Z</time></trkpt><trkpt lat="40.925" lon="14.2982683"><ele>47.0</ele><time>2026-04-04T11:44:50.007Z</time></trkpt><trkpt lat="40.924935" lon="14.2982067"><ele>47.0</ele><time>2026-04-04T11:44:51.006Z</time></trkpt><trkpt lat="40.9248733" lon="14.2981483"><ele>47.0</ele><time>2026-04-04T11:44:52.006Z</time></trkpt><trkpt lat="40.9248167" lon="14.2980867"><ele>46.857142857142854</ele><time>2026-04-04T11:44:53.007Z</time></trkpt><trkpt lat="40.9247617" lon="14.2980233"><ele>46.71428571428571</ele><time>2026-04-04T11:44:54.007Z</time></trkpt><trkpt lat="40.9247083" lon="14.2979533"><ele>46.57142857142857</ele><time>2026-04-04T11:44:55.008Z</time></trkpt><trkpt lat="40.92466" lon="14.29788"><ele>46.42857142857143</ele><time>2026-04-04T11:44:56.006Z</time></trkpt><trkpt lat="40.924615" lon="14.2978083"><ele>46.285714285714285</ele><time>2026-04-04T11:44:57.006Z</time></trkpt><trkpt lat="40.9245733" lon="14.2977333"><ele>46.142857142857146</ele><time>2026-04-04T11:44:58.007Z</time></trkpt><trkpt lat="40.9245317" lon="14.297655"><ele>46.0</ele><time>2026-04-04T11:44:59.006Z</time></trkpt><trkpt lat="40.9244883" lon="14.2975767"><ele>46.0</ele><time>2026-04-04T11:45:00.007Z</time></trkpt><trkpt lat="40.924445" lon="14.2974967"><ele>46.0</ele><time>2026-04-04T11:45:01.006Z</time></trkpt><trkpt lat="40.9244067" lon="14.2974183"><ele>46.0</ele><time>2026-04-04T11:45:02.006Z</time></trkpt><trkpt lat="40.9243667" lon="14.2973433"><ele>46.0</ele><time>2026-04-04T11:45:03.006Z</time></trkpt><trkpt lat="40.9243233" lon="14.2972683"><ele>46.0</ele><time>2026-04-04T11:45:04.006Z</time></trkpt><trkpt lat="40.9242833" lon="14.2971917"><ele>46.0</ele><time>2026-04-04T11:45:05.006Z</time></trkpt><trkpt lat="40.9242367" lon="14.29712"><ele>46.0</ele><time>2026-04-04T11:45:06.007Z</time></trkpt><trkpt lat="40.9241933" lon="14.2970483"><ele>46.142857142857146</ele><time>2026-04-04T11:45:07.006Z</time></trkpt><trkpt lat="40.9241467" lon="14.296975"><ele>46.285714285714285</ele><time>2026-04-04T11:45:08.008Z</time></trkpt><trkpt lat="40.9241033" lon="14.2969017"><ele>46.42857142857143</ele><time>2026-04-04T11:45:09.006Z</time></trkpt><trkpt lat="40.9240633" lon="14.2968267"><ele>46.57142857142857</ele><time>2026-04-04T11:45:10.006Z</time></trkpt><trkpt lat="40.9240217" lon="14.2967533"><ele>46.71428571428571</ele><time>2026-04-04T11:45:11.006Z</time></trkpt><trkpt lat="40.92398" lon="14.296685"><ele>46.857142857142854</ele><time>2026-04-04T11:45:12.007Z</time></trkpt><trkpt lat="40.9239417" lon="14.296615"><ele>47.0</ele><time>2026-04-04T11:45:13.006Z</time></trkpt><trkpt lat="40.9239033" lon="14.2965417"><ele>47.0</ele><time>2026-04-04T11:45:14.006Z</time></trkpt><trkpt lat="40.92386" lon="14.2964717"><ele>47.0</ele><time>2026-04-04T11:45:15.006Z</time></trkpt><trkpt lat="40.923815" lon="14.2964083"><ele>47.0</ele><time>2026-04-04T11:45:16.005Z</time></trkpt><trkpt lat="40.9237333" lon="14.2962933"><ele>47.0</ele><time>2026-04-04T11:45:18.005Z</time></trkpt><trkpt lat="40.9236567" lon="14.29617"><ele>47.0</ele><time>2026-04-04T11:45:20.005Z</time></trkpt><trkpt lat="40.9235833" lon="14.2960417"><ele>47.0</ele><time>2026-04-04T11:45:22.005Z</time></trkpt><trkpt lat="40.9235083" lon="14.2959017"><ele>47.0</ele><time>2026-04-04T11:45:24.005Z</time></trkpt><trkpt lat="40.923475" lon="14.2958267"><ele>47.0</ele><time>2026-04-04T11:45:25.005Z</time></trkpt><trkpt lat="40.92344" lon="14.2957483"><ele>47.0</ele><time>2026-04-04T11:45:26.006Z</time></trkpt><trkpt lat="40.9234017" lon="14.2956717"><ele>47.0</ele><time>2026-04-04T11:45:27.005Z</time></trkpt><trkpt lat="40.9233633" lon="14.2955967"><ele>47.0</ele><time>2026-04-04T11:45:28.006Z</time></trkpt><trkpt lat="40.9233267" lon="14.29552"><ele>47.42857142857143</ele><time>2026-04-04T11:45:29.005Z</time></trkpt><trkpt lat="40.9232867" lon="14.295445"><ele>47.857142857142854</ele><time>2026-04-04T11:45:30.006Z</time></trkpt><trkpt lat="40.92325" lon="14.2953733"><ele>48.28571428571429</ele><time>2026-04-04T11:45:31.005Z</time></trkpt><trkpt lat="40.9232183" lon="14.2953"><ele>48.714285714285715</ele><time>2026-04-04T11:45:32.005Z</time></trkpt><trkpt lat="40.9231817" lon="14.2952267"><ele>49.142857142857146</ele><time>2026-04-04T11:45:33.005Z</time></trkpt><trkpt lat="40.9231383" lon="14.2951567"><ele>49.57142857142858</ele><time>2026-04-04T11:45:34.005Z</time></trkpt><trkpt lat="40.923095" lon="14.2950883"><ele>50.0</ele><time>2026-04-04T11:45:35.005Z</time></trkpt><trkpt lat="40.92305" lon="14.2950183"><ele>50.00000000000001</ele><time>2026-04-04T11:45:36.006Z</time></trkpt><trkpt lat="40.923005" lon="14.2949467"><ele>50.0</ele><time>2026-04-04T11:45:37.005Z</time></trkpt><trkpt lat="40.922955" lon="14.2948783"><ele>50.0</ele><time>2026-04-04T11:45:38.007Z</time></trkpt><trkpt lat="40.9229033" lon="14.2948067"><ele>50.0</ele><time>2026-04-04T11:45:39.005Z</time></trkpt><trkpt lat="40.9228567" lon="14.2947333"><ele>50.0</ele><time>2026-04-04T11:45:40.005Z</time></trkpt><trkpt lat="40.92281" lon="14.2946617"><ele>50.00000000000001</ele><time>2026-04-04T11:45:41.008Z</time></trkpt><trkpt lat="40.9227617" lon="14.2945933"><ele>50.0</ele><time>2026-04-04T11:45:42.01Z</time></trkpt><trkpt lat="40.92271" lon="14.2945333"><ele>50.142857142857146</ele><time>2026-04-04T11:45:43.006Z</time></trkpt><trkpt lat="40.9226483" lon="14.2944733"><ele>50.285714285714285</ele><time>2026-04-04T11:45:44.005Z</time></trkpt><trkpt lat="40.9225867" lon="14.2944233"><ele>50.42857142857143</ele><time>2026-04-04T11:45:45.005Z</time></trkpt><trkpt lat="40.922525" lon="14.2943833"><ele>50.57142857142857</ele><time>2026-04-04T11:45:46.005Z</time></trkpt><trkpt lat="40.9224617" lon="14.2943533"><ele>50.714285714285715</ele><time>2026-04-04T11:45:47.005Z</time></trkpt><trkpt lat="40.9224" lon="14.2943217"><ele>50.85714285714286</ele><time>2026-04-04T11:45:48.005Z</time></trkpt><trkpt lat="40.922335" lon="14.2942883"><ele>51.0</ele><time>2026-04-04T11:45:49.005Z</time></trkpt><trkpt lat="40.9222633" lon="14.2942583"><ele>51.0</ele><time>2026-04-04T11:45:50.006Z</time></trkpt><trkpt lat="40.92219" lon="14.2942317"><ele>51.0</ele><time>2026-04-04T11:45:51.005Z</time></trkpt><trkpt lat="40.9221183" lon="14.2942017"><ele>51.0</ele><time>2026-04-04T11:45:52.005Z</time></trkpt><trkpt lat="40.9220483" lon="14.2941733"><ele>51.0</ele><time>2026-04-04T11:45:53.008Z</time></trkpt><trkpt lat="40.9219767" lon="14.2941467"><ele>51.0</ele><time>2026-04-04T11:45:54.005Z</time></trkpt><trkpt lat="40.921905" lon="14.29412"><ele>51.0</ele><time>2026-04-04T11:45:55.007Z</time></trkpt><trkpt lat="40.9218383" lon="14.29409"><ele>51.0</ele><time>2026-04-04T11:45:56.006Z</time></trkpt><trkpt lat="40.92177" lon="14.2940617"><ele>51.142857142857146</ele><time>2026-04-04T11:45:57.006Z</time></trkpt><trkpt lat="40.921705" lon="14.294035"><ele>51.28571428571429</ele><time>2026-04-04T11:45:58.006Z</time></trkpt><trkpt lat="40.92164" lon="14.294005"><ele>51.42857142857143</ele><time>2026-04-04T11:45:59.006Z</time></trkpt><trkpt lat="40.9215767" lon="14.293975"><ele>51.57142857142857</ele><time>2026-04-04T11:46:00.009Z</time></trkpt><trkpt lat="40.92151" lon="14.293945"><ele>51.714285714285715</ele><time>2026-04-04T11:46:01.006Z</time></trkpt><trkpt lat="40.9214433" lon="14.2939183"><ele>51.857142857142854</ele><time>2026-04-04T11:46:02.005Z</time></trkpt><trkpt lat="40.9213733" lon="14.2938933"><ele>52.0</ele><time>2026-04-04T11:46:03.005Z</time></trkpt><trkpt lat="40.9213067" lon="14.2938617"><ele>52.0</ele><time>2026-04-04T11:46:04.006Z</time></trkpt><trkpt lat="40.9212417" lon="14.2938333"><ele>52.0</ele><time>2026-04-04T11:46:05.005Z</time></trkpt><trkpt lat="40.9211783" lon="14.2938067"><ele>52.0</ele><time>2026-04-04T11:46:06.005Z</time></trkpt><trkpt lat="40.921115" lon="14.2937817"><ele>52.0</ele><time>2026-04-04T11:46:07.006Z</time></trkpt><trkpt lat="40.9210533" lon="14.2937517"><ele>52.0</ele><time>2026-04-04T11:46:08.006Z</time></trkpt><trkpt lat="40.9209917" lon="14.2937167"><ele>52.0</ele><time>2026-04-04T11:46:09.005Z</time></trkpt><trkpt lat="40.92093" lon="14.293685"><ele>52.0</ele><time>2026-04-04T11:46:10.005Z</time></trkpt><trkpt lat="40.9208683" lon="14.2936517"><ele>52.166666666666664</ele><time>2026-04-04T11:46:11.006Z</time></trkpt><trkpt lat="40.92076" lon="14.2935883"><ele>52.33333333333333</ele><time>2026-04-04T11:46:13.005Z</time></trkpt><trkpt lat="40.9206983" lon="14.29354"><ele>52.5</ele><time>2026-04-04T11:46:14.007Z</time></trkpt><trkpt lat="40.9206433" lon="14.2934967"><ele>52.66666666666667</ele><time>2026-04-04T11:46:15.005Z</time></trkpt><trkpt lat="40.920585" lon="14.2934417"><ele>52.833333333333336</ele><time>2026-04-04T11:46:16.005Z</time></trkpt><trkpt lat="40.9205217" lon="14.2933833"><ele>53.0</ele><time>2026-04-04T11:46:17.006Z</time></trkpt><trkpt lat="40.9204583" lon="14.2933317"><ele>53.00000000000001</ele><time>2026-04-04T11:46:18.006Z</time></trkpt><trkpt lat="40.9203917" lon="14.2932767"><ele>53.0</ele><time>2026-04-04T11:46:19.007Z</time></trkpt><trkpt lat="40.9203283" lon="14.29322"><ele>53.0</ele><time>2026-04-04T11:46:20.006Z</time></trkpt><trkpt lat="40.9202717" lon="14.2931517"><ele>53.0</ele><time>2026-04-04T11:46:21.005Z</time></trkpt><trkpt lat="40.9202167" lon="14.29308"><ele>53.00000000000001</ele><time>2026-04-04T11:46:22.005Z</time></trkpt><trkpt lat="40.9201567" lon="14.2930117"><ele>53.0</ele><time>2026-04-04T11:46:23.005Z</time></trkpt><trkpt lat="40.9200933" lon="14.2929467"><ele>53.00000000000001</ele><time>2026-04-04T11:46:24.005Z</time></trkpt><trkpt lat="40.9200333" lon="14.2928767"><ele>53.0</ele><time>2026-04-04T11:46:25.007Z</time></trkpt><trkpt lat="40.9199783" lon="14.292805"><ele>53.0</ele><time>2026-04-04T11:46:26.006Z</time></trkpt><trkpt lat="40.9199217" lon="14.2927317"><ele>53.0</ele><time>2026-04-04T11:46:27.007Z</time></trkpt><trkpt lat="40.919865" lon="14.29266"><ele>53.00000000000001</ele><time>2026-04-04T11:46:28.006Z</time></trkpt><trkpt lat="40.9198017" lon="14.2925967"><ele>53.0</ele><time>2026-04-04T11:46:29.006Z</time></trkpt><trkpt lat="40.9197383" lon="14.29254"><ele>53.0</ele><time>2026-04-04T11:46:30.009Z</time></trkpt><trkpt lat="40.9196733" lon="14.292485"><ele>53.0</ele><time>2026-04-04T11:46:31.006Z</time></trkpt><trkpt lat="40.9196067" lon="14.2924333"><ele>53.0</ele><time>2026-04-04T11:46:32.005Z</time></trkpt><trkpt lat="40.9195417" lon="14.2923883"><ele>53.0</ele><time>2026-04-04T11:46:33.005Z</time></trkpt><trkpt lat="40.919475" lon="14.292345"><ele>53.0</ele><time>2026-04-04T11:46:34.006Z</time></trkpt><trkpt lat="40.9194117" lon="14.2923133"><ele>53.0</ele><time>2026-04-04T11:46:35.007Z</time></trkpt><trkpt lat="40.9193467" lon="14.2922833"><ele>53.0</ele><time>2026-04-04T11:46:36.006Z</time></trkpt><trkpt lat="40.9192833" lon="14.2922583"><ele>53.333333333333336</ele><time>2026-04-04T11:46:37.008Z</time></trkpt><trkpt lat="40.91922" lon="14.2922317"><ele>53.66666666666667</ele><time>2026-04-04T11:46:38.006Z</time></trkpt><trkpt lat="40.9191567" lon="14.2921983"><ele>54.0</ele><time>2026-04-04T11:46:39.005Z</time></trkpt><trkpt lat="40.919095" lon="14.2921683"><ele>54.33333333333333</ele><time>2026-04-04T11:46:40.006Z</time></trkpt><trkpt lat="40.9190317" lon="14.2921383"><ele>54.666666666666664</ele><time>2026-04-04T11:46:41.006Z</time></trkpt><trkpt lat="40.918915" lon="14.29208"><ele>55.0</ele><time>2026-04-04T11:46:43.006Z</time></trkpt><trkpt lat="40.9188467" lon="14.29206"><ele>54.99999999999999</ele><time>2026-04-04T11:46:44.006Z</time></trkpt><trkpt lat="40.91878" lon="14.2920367"><ele>55.0</ele><time>2026-04-04T11:46:45.007Z</time></trkpt><trkpt lat="40.9187133" lon="14.29201"><ele>55.0</ele><time>2026-04-04T11:46:46.005Z</time></trkpt><trkpt lat="40.918645" lon="14.2919817"><ele>55.0</ele><time>2026-04-04T11:46:47.005Z</time></trkpt><trkpt lat="40.91858" lon="14.2919517"><ele>55.0</ele><time>2026-04-04T11:46:48.005Z</time></trkpt><trkpt lat="40.9185167" lon="14.2919217"><ele>54.99999999999999</ele><time>2026-04-04T11:46:49.005Z</time></trkpt><trkpt lat="40.918455" lon="14.291895"><ele>55.0</ele><time>2026-04-04T11:46:50.006Z</time></trkpt><trkpt lat="40.9183933" lon="14.2918667"><ele>54.99999999999999</ele><time>2026-04-04T11:46:51.007Z</time></trkpt><trkpt lat="40.9183333" lon="14.291835"><ele>55.0</ele><time>2026-04-04T11:46:52.006Z</time></trkpt><trkpt lat="40.9182717" lon="14.2918083"><ele>55.0</ele><time>2026-04-04T11:46:53.005Z</time></trkpt><trkpt lat="40.918205" lon="14.2917883"><ele>55.0</ele><time>2026-04-04T11:46:54.005Z</time></trkpt><trkpt lat="40.9181417" lon="14.2917667"><ele>54.99999999999999</ele><time>2026-04-04T11:46:55.006Z</time></trkpt><trkpt lat="40.9180817" lon="14.2917383"><ele>55.0</ele><time>2026-04-04T11:46:56.005Z</time></trkpt><trkpt lat="40.917965" lon="14.2916783"><ele>55.0</ele><time>2026-04-04T11:46:58.005Z</time></trkpt><trkpt lat="40.917905" lon="14.2916433"><ele>55.0</ele><time>2026-04-04T11:46:59.005Z</time></trkpt><trkpt lat="40.917845" lon="14.2916033"><ele>55.0</ele><time>2026-04-04T11:47:00.006Z</time></trkpt><trkpt lat="40.91773" lon="14.291525"><ele>55.0</ele><time>2026-04-04T11:47:02.006Z</time></trkpt><trkpt lat="40.91767" lon="14.2914883"><ele>55.0</ele><time>2026-04-04T11:47:03.005Z</time></trkpt><trkpt lat="40.9175533" lon="14.29141"><ele>55.4</ele><time>2026-04-04T11:47:05.005Z</time></trkpt><trkpt lat="40.9174933" lon="14.2913683"><ele>55.8</ele><time>2026-04-04T11:47:06.005Z</time></trkpt><trkpt lat="40.917385" lon="14.2912967"><ele>56.2</ele><time>2026-04-04T11:47:08.006Z</time></trkpt><trkpt lat="40.9173267" lon="14.2912633"><ele>56.6</ele><time>2026-04-04T11:47:09.005Z</time></trkpt><trkpt lat="40.9172133" lon="14.2911983"><ele>57.0</ele><time>2026-04-04T11:47:11.005Z</time></trkpt><trkpt lat="40.917105" lon="14.2911333"><ele>57.0</ele><time>2026-04-04T11:47:13.007Z</time></trkpt><trkpt lat="40.9170433" lon="14.2910917"><ele>56.99999999999999</ele><time>2026-04-04T11:47:14.006Z</time></trkpt><trkpt lat="40.9169833" lon="14.291055"><ele>57.0</ele><time>2026-04-04T11:47:15.005Z</time></trkpt><trkpt lat="40.916925" lon="14.2910167"><ele>57.0</ele><time>2026-04-04T11:47:16.005Z</time></trkpt><trkpt lat="40.9168633" lon="14.29098"><ele>56.99999999999999</ele><time>2026-04-04T11:47:17.005Z</time></trkpt><trkpt lat="40.9168017" lon="14.2909433"><ele>57.0</ele><time>2026-04-04T11:47:18.005Z</time></trkpt><trkpt lat="40.916735" lon="14.2909067"><ele>57.0</ele><time>2026-04-04T11:47:19.006Z</time></trkpt><trkpt lat="40.9166683" lon="14.29087"><ele>57.0</ele><time>2026-04-04T11:47:20.006Z</time></trkpt><trkpt lat="40.9166" lon="14.29083"><ele>56.99999999999999</ele><time>2026-04-04T11:47:21.006Z</time></trkpt><trkpt lat="40.916535" lon="14.2907883"><ele>57.0</ele><time>2026-04-04T11:47:22.007Z</time></trkpt><trkpt lat="40.9164683" lon="14.2907483"><ele>57.0</ele><time>2026-04-04T11:47:23.007Z</time></trkpt><trkpt lat="40.9163983" lon="14.2907067"><ele>56.99999999999999</ele><time>2026-04-04T11:47:24.005Z</time></trkpt><trkpt lat="40.9163333" lon="14.290665"><ele>57.0</ele><time>2026-04-04T11:47:25.006Z</time></trkpt><trkpt lat="40.9162633" lon="14.290625"><ele>57.0</ele><time>2026-04-04T11:47:26.005Z</time></trkpt><trkpt lat="40.916195" lon="14.2905917"><ele>57.14285714285714</ele><time>2026-04-04T11:47:27.006Z</time></trkpt><trkpt lat="40.9161283" lon="14.2905617"><ele>57.28571428571428</ele><time>2026-04-04T11:47:28.006Z</time></trkpt><trkpt lat="40.9160583" lon="14.290535"><ele>57.42857142857143</ele><time>2026-04-04T11:47:29.005Z</time></trkpt><trkpt lat="40.915985" lon="14.29051"><ele>57.57142857142857</ele><time>2026-04-04T11:47:30.005Z</time></trkpt><trkpt lat="40.915915" lon="14.29049"><ele>57.714285714285715</ele><time>2026-04-04T11:47:31.005Z</time></trkpt><trkpt lat="40.915845" lon="14.2904783"><ele>57.85714285714286</ele><time>2026-04-04T11:47:32.006Z</time></trkpt><trkpt lat="40.9157717" lon="14.29047"><ele>58.00000000000001</ele><time>2026-04-04T11:47:33.008Z</time></trkpt><trkpt lat="40.9156983" lon="14.2904633"><ele>58.166666666666664</ele><time>2026-04-04T11:47:34.007Z</time></trkpt><trkpt lat="40.915625" lon="14.2904583"><ele>58.33333333333333</ele><time>2026-04-04T11:47:35.007Z</time></trkpt><trkpt lat="40.9155483" lon="14.290455"><ele>58.5</ele><time>2026-04-04T11:47:36.006Z</time></trkpt><trkpt lat="40.9154767" lon="14.2904583"><ele>58.66666666666667</ele><time>2026-04-04T11:47:37.006Z</time></trkpt><trkpt lat="40.9154033" lon="14.29046"><ele>58.833333333333336</ele><time>2026-04-04T11:47:38.006Z</time></trkpt><trkpt lat="40.915325" lon="14.290465"><ele>59.0</ele><time>2026-04-04T11:47:39.006Z</time></trkpt><trkpt lat="40.9152483" lon="14.2904667"><ele>59.0</ele><time>2026-04-04T11:47:40.006Z</time></trkpt><trkpt lat="40.9151717" lon="14.2904683"><ele>59.0</ele><time>2026-04-04T11:47:41.006Z</time></trkpt><trkpt lat="40.9150983" lon="14.2904733"><ele>59.0</ele><time>2026-04-04T11:47:42.006Z</time></trkpt><trkpt lat="40.91502" lon="14.29048"><ele>59.0</ele><time>2026-04-04T11:47:43.006Z</time></trkpt><trkpt lat="40.9149483" lon="14.290485"><ele>59.0</ele><time>2026-04-04T11:47:44.006Z</time></trkpt><trkpt lat="40.914875" lon="14.29049"><ele>59.0</ele><time>2026-04-04T11:47:45.005Z</time></trkpt><trkpt lat="40.9148017" lon="14.2904933"><ele>59.0</ele><time>2026-04-04T11:47:46.005Z</time></trkpt><trkpt lat="40.9147283" lon="14.2904967"><ele>59.16666666666667</ele><time>2026-04-04T11:47:47.005Z</time></trkpt><trkpt lat="40.9146533" lon="14.2905"><ele>59.333333333333336</ele><time>2026-04-04T11:47:48.006Z</time></trkpt><trkpt lat="40.914575" lon="14.2905017"><ele>59.5</ele><time>2026-04-04T11:47:49.006Z</time></trkpt><trkpt lat="40.9144967" lon="14.2905067"><ele>59.66666666666667</ele><time>2026-04-04T11:47:50.006Z</time></trkpt><trkpt lat="40.9144217" lon="14.29051"><ele>59.833333333333336</ele><time>2026-04-04T11:47:51.005Z</time></trkpt><trkpt lat="40.9143433" lon="14.2905133"><ele>60.0</ele><time>2026-04-04T11:47:52.005Z</time></trkpt><trkpt lat="40.914265" lon="14.29051"><ele>60.333333333333336</ele><time>2026-04-04T11:47:53.006Z</time></trkpt><trkpt lat="40.914185" lon="14.2905033"><ele>60.66666666666667</ele><time>2026-04-04T11:47:54.007Z</time></trkpt><trkpt lat="40.9141083" lon="14.2904917"><ele>61.0</ele><time>2026-04-04T11:47:55.006Z</time></trkpt><trkpt lat="40.9140317" lon="14.2904767"><ele>61.333333333333336</ele><time>2026-04-04T11:47:56.007Z</time></trkpt><trkpt lat="40.9139567" lon="14.2904583"><ele>61.66666666666667</ele><time>2026-04-04T11:47:57.006Z</time></trkpt><trkpt lat="40.9138817" lon="14.2904417"><ele>62.0</ele><time>2026-04-04T11:47:58.006Z</time></trkpt><trkpt lat="40.9138067" lon="14.2904233"><ele>62.0</ele><time>2026-04-04T11:47:59.006Z</time></trkpt><trkpt lat="40.9137317" lon="14.2904067"><ele>62.00000000000001</ele><time>2026-04-04T11:48:00.007Z</time></trkpt><trkpt lat="40.9136583" lon="14.29038"><ele>62.0</ele><time>2026-04-04T11:48:01.005Z</time></trkpt><trkpt lat="40.913585" lon="14.2903567"><ele>62.0</ele><time>2026-04-04T11:48:02.006Z</time></trkpt><trkpt lat="40.9135133" lon="14.2903317"><ele>62.00000000000001</ele><time>2026-04-04T11:48:03.006Z</time></trkpt><trkpt lat="40.9134417" lon="14.2903033"><ele>62.0</ele><time>2026-04-04T11:48:04.006Z</time></trkpt><trkpt lat="40.9133717" lon="14.2902767"><ele>62.0</ele><time>2026-04-04T11:48:05.006Z</time></trkpt><trkpt lat="40.9132983" lon="14.2902483"><ele>62.16666666666667</ele><time>2026-04-04T11:48:06.006Z</time></trkpt><trkpt lat="40.9132267" lon="14.2902083"><ele>62.333333333333336</ele><time>2026-04-04T11:48:07.007Z</time></trkpt><trkpt lat="40.913155" lon="14.2901683"><ele>62.5</ele><time>2026-04-04T11:48:08.005Z</time></trkpt><trkpt lat="40.9130833" lon="14.2901217"><ele>62.66666666666667</ele><time>2026-04-04T11:48:09.006Z</time></trkpt><trkpt lat="40.9130117" lon="14.29008"><ele>62.833333333333336</ele><time>2026-04-04T11:48:10.006Z</time></trkpt><trkpt lat="40.9129433" lon="14.2900417"><ele>63.0</ele><time>2026-04-04T11:48:11.007Z</time></trkpt><trkpt lat="40.9128767" lon="14.2900017"><ele>63.0</ele><time>2026-04-04T11:48:12.006Z</time></trkpt><trkpt lat="40.91281" lon="14.2899617"><ele>63.0</ele><time>2026-04-04T11:48:13.009Z</time></trkpt><trkpt lat="40.9127467" lon="14.28992"><ele>63.0</ele><time>2026-04-04T11:48:14.006Z</time></trkpt><trkpt lat="40.9126867" lon="14.28987"><ele>63.0</ele><time>2026-04-04T11:48:15.007Z</time></trkpt><trkpt lat="40.9126233" lon="14.2898283"><ele>63.0</ele><time>2026-04-04T11:48:16.006Z</time></trkpt><trkpt lat="40.91256" lon="14.28978"><ele>63.0</ele><time>2026-04-04T11:48:17.006Z</time></trkpt><trkpt lat="40.9124983" lon="14.2897333"><ele>63.0</ele><time>2026-04-04T11:48:18.006Z</time></trkpt><trkpt lat="40.912435" lon="14.2896883"><ele>63.0</ele><time>2026-04-04T11:48:19.008Z</time></trkpt><trkpt lat="40.9123733" lon="14.2896433"><ele>63.0</ele><time>2026-04-04T11:48:20.006Z</time></trkpt><trkpt lat="40.912315" lon="14.28959"><ele>63.0</ele><time>2026-04-04T11:48:21.006Z</time></trkpt><trkpt lat="40.9122567" lon="14.289545"><ele>63.0</ele><time>2026-04-04T11:48:22.007Z</time></trkpt><trkpt lat="40.9122017" lon="14.28949"><ele>63.0</ele><time>2026-04-04T11:48:23.008Z</time></trkpt><trkpt lat="40.9120983" lon="14.2893933"><ele>63.0</ele><time>2026-04-04T11:48:25.006Z</time></trkpt><trkpt lat="40.912035" lon="14.2893517"><ele>63.0</ele><time>2026-04-04T11:48:26.006Z</time></trkpt><trkpt lat="40.91198" lon="14.2893067"><ele>63.0</ele><time>2026-04-04T11:48:27.007Z</time></trkpt><trkpt lat="40.911925" lon="14.289265"><ele>63.0</ele><time>2026-04-04T11:48:28.006Z</time></trkpt><trkpt lat="40.9118667" lon="14.2892267"><ele>63.0</ele><time>2026-04-04T11:48:29.006Z</time></trkpt><trkpt lat="40.91181" lon="14.2891817"><ele>63.0</ele><time>2026-04-04T11:48:30.006Z</time></trkpt><trkpt lat="40.9117167" lon="14.2890833"><ele>63.0</ele><time>2026-04-04T11:48:32.007Z</time></trkpt><trkpt lat="40.911635" lon="14.288965"><ele>63.0</ele><time>2026-04-04T11:48:34.006Z</time></trkpt><trkpt lat="40.911535" lon="14.2888767"><ele>63.0</ele><time>2026-04-04T11:48:36.006Z</time></trkpt><trkpt lat="40.9114767" lon="14.2888317"><ele>63.0</ele><time>2026-04-04T11:48:37.006Z</time></trkpt><trkpt lat="40.9114183" lon="14.288785"><ele>63.0</ele><time>2026-04-04T11:48:38.006Z</time></trkpt><trkpt lat="40.9113633" lon="14.288735"><ele>63.0</ele><time>2026-04-04T11:48:39.006Z</time></trkpt><trkpt lat="40.9113033" lon="14.28868"><ele>63.0</ele><time>2026-04-04T11:48:40.006Z</time></trkpt><trkpt lat="40.9112417" lon="14.2886283"><ele>63.0</ele><time>2026-04-04T11:48:41.007Z</time></trkpt><trkpt lat="40.91118" lon="14.2885783"><ele>63.0</ele><time>2026-04-04T11:48:42.006Z</time></trkpt><trkpt lat="40.91112" lon="14.2885233"><ele>63.0</ele><time>2026-04-04T11:48:43.006Z</time></trkpt><trkpt lat="40.9110583" lon="14.2884667"><ele>63.0</ele><time>2026-04-04T11:48:44.006Z</time></trkpt><trkpt lat="40.9109983" lon="14.2884117"><ele>63.0</ele><time>2026-04-04T11:48:45.007Z</time></trkpt><trkpt lat="40.9109333" lon="14.2883583"><ele>63.0</ele><time>2026-04-04T11:48:46.006Z</time></trkpt><trkpt lat="40.9108717" lon="14.288305"><ele>63.0</ele><time>2026-04-04T11:48:47.007Z</time></trkpt><trkpt lat="40.910815" lon="14.2882533"><ele>63.0</ele><time>2026-04-04T11:48:48.006Z</time></trkpt><trkpt lat="40.9107617" lon="14.288205"><ele>63.0</ele><time>2026-04-04T11:48:49.006Z</time></trkpt><trkpt lat="40.910705" lon="14.2881583"><ele>63.0</ele><time>2026-04-04T11:48:50.007Z</time></trkpt><trkpt lat="40.9106033" lon="14.2880767"><ele>63.0</ele><time>2026-04-04T11:48:52.006Z</time></trkpt><trkpt lat="40.9105017" lon="14.2880017"><ele>63.0</ele><time>2026-04-04T11:48:54.006Z</time></trkpt><trkpt lat="40.910395" lon="14.2879283"><ele>63.0</ele><time>2026-04-04T11:48:56.006Z</time></trkpt><trkpt lat="40.910315" lon="14.2878617"><ele>63.0</ele><time>2026-04-04T11:48:58.007Z</time></trkpt><trkpt lat="40.91026" lon="14.2878117"><ele>63.0</ele><time>2026-04-04T11:49:01.006Z</time></trkpt><trkpt lat="40.91019" lon="14.2878"><ele>63.0</ele><time>2026-04-04T11:49:07.007Z</time></trkpt><trkpt lat="40.9101367" lon="14.287755"><ele>63.0</ele><time>2026-04-04T11:49:10.006Z</time></trkpt><trkpt lat="40.9100683" lon="14.287695"><ele>63.0</ele><time>2026-04-04T11:49:13.008Z</time></trkpt><trkpt lat="40.91002" lon="14.287635"><ele>63.0</ele><time>2026-04-04T11:49:15.006Z</time></trkpt><trkpt lat="40.9099633" lon="14.2875783"><ele>64.0</ele><time>2026-04-04T11:49:17.006Z</time></trkpt><trkpt lat="40.9098967" lon="14.287515"><ele>65.0</ele><time>2026-04-04T11:49:19.007Z</time></trkpt><trkpt lat="40.9098133" lon="14.2874383"><ele>66.0</ele><time>2026-04-04T11:49:21.006Z</time></trkpt><trkpt lat="40.9097167" lon="14.287355"><ele>67.0</ele><time>2026-04-04T11:49:23.006Z</time></trkpt><trkpt lat="40.9096283" lon="14.2872867"><ele>68.0</ele><time>2026-04-04T11:49:25.006Z</time></trkpt><trkpt lat="40.909565" lon="14.2872333"><ele>68.16666666666667</ele><time>2026-04-04T11:49:27.009Z</time></trkpt><trkpt lat="40.9094917" lon="14.28717"><ele>68.33333333333334</ele><time>2026-04-04T11:49:30.007Z</time></trkpt><trkpt lat="40.9094083" lon="14.2871133"><ele>68.5</ele><time>2026-04-04T11:49:33.006Z</time></trkpt><trkpt lat="40.9093417" lon="14.2870583"><ele>68.66666666666667</ele><time>2026-04-04T11:49:35.006Z</time></trkpt><trkpt lat="40.9092633" lon="14.2869917"><ele>68.83333333333333</ele><time>2026-04-04T11:49:37.006Z</time></trkpt><trkpt lat="40.90918" lon="14.2869367"><ele>69.0</ele><time>2026-04-04T11:49:39.006Z</time></trkpt><trkpt lat="40.9090967" lon="14.2868583"><ele>69.2</ele><time>2026-04-04T11:49:41.006Z</time></trkpt><trkpt lat="40.9090017" lon="14.2867867"><ele>69.4</ele><time>2026-04-04T11:49:43.006Z</time></trkpt><trkpt lat="40.9089017" lon="14.28671"><ele>69.6</ele><time>2026-04-04T11:49:45.007Z</time></trkpt><trkpt lat="40.9088" lon="14.2866367"><ele>69.8</ele><time>2026-04-04T11:49:47.006Z</time></trkpt><trkpt lat="40.90871" lon="14.286565"><ele>70.0</ele><time>2026-04-04T11:49:49.006Z</time></trkpt><trkpt lat="40.9086233" lon="14.2864933"><ele>69.8</ele><time>2026-04-04T11:49:51.007Z</time></trkpt><trkpt lat="40.9085417" lon="14.2864133"><ele>69.6</ele><time>2026-04-04T11:49:53.007Z</time></trkpt><trkpt lat="40.9084517" lon="14.2863383"><ele>69.4</ele><time>2026-04-04T11:49:55.006Z</time></trkpt><trkpt lat="40.90836" lon="14.2862617"><ele>69.2</ele><time>2026-04-04T11:49:57.007Z</time></trkpt><trkpt lat="40.9082617" lon="14.2861817"><ele>69.0</ele><time>2026-04-04T11:49:59.007Z</time></trkpt><trkpt lat="40.9081717" lon="14.2861017"><ele>69.0</ele><time>2026-04-04T11:50:01.006Z</time></trkpt><trkpt lat="40.9080783" lon="14.2860083"><ele>69.0</ele><time>2026-04-04T11:50:03.006Z</time></trkpt><trkpt lat="40.9079733" lon="14.2859133"><ele>69.0</ele><time>2026-04-04T11:50:05.006Z</time></trkpt><trkpt lat="40.9079167" lon="14.285865"><ele>69.0</ele><time>2026-04-04T11:50:06.007Z</time></trkpt><trkpt lat="40.9078633" lon="14.2858167"><ele>69.0</ele><time>2026-04-04T11:50:07.006Z</time></trkpt><trkpt lat="40.9078067" lon="14.2857683"><ele>69.0</ele><time>2026-04-04T11:50:08.008Z</time></trkpt><trkpt lat="40.9077533" lon="14.28572"><ele>69.0</ele><time>2026-04-04T11:50:09.006Z</time></trkpt><trkpt lat="40.907655" lon="14.28563"><ele>69.0</ele><time>2026-04-04T11:50:11.006Z</time></trkpt><trkpt lat="40.907555" lon="14.2855517"><ele>69.0</ele><time>2026-04-04T11:50:13.006Z</time></trkpt><trkpt lat="40.907455" lon="14.2854783"><ele>69.0</ele><time>2026-04-04T11:50:15.006Z</time></trkpt><trkpt lat="40.90736" lon="14.2854017"><ele>70.0</ele><time>2026-04-04T11:50:17.006Z</time></trkpt><trkpt lat="40.9072667" lon="14.28534"><ele>71.0</ele><time>2026-04-04T11:50:19.007Z</time></trkpt><trkpt lat="40.9071833" lon="14.2852783"><ele>72.0</ele><time>2026-04-04T11:50:21.006Z</time></trkpt><trkpt lat="40.9070967" lon="14.2852117"><ele>73.0</ele><time>2026-04-04T11:50:23.007Z</time></trkpt><trkpt lat="40.9070067" lon="14.2851417"><ele>74.0</ele><time>2026-04-04T11:50:25.007Z</time></trkpt><trkpt lat="40.90692" lon="14.2850633"><ele>74.0</ele><time>2026-04-04T11:50:27.007Z</time></trkpt><trkpt lat="40.9068317" lon="14.2849867"><ele>74.0</ele><time>2026-04-04T11:50:29.006Z</time></trkpt><trkpt lat="40.90673" lon="14.2849167"><ele>74.0</ele><time>2026-04-04T11:50:31.008Z</time></trkpt><trkpt lat="40.9066233" lon="14.2848717"><ele>74.0</ele><time>2026-04-04T11:50:33.007Z</time></trkpt><trkpt lat="40.906515" lon="14.2848383"><ele>74.0</ele><time>2026-04-04T11:50:35.006Z</time></trkpt><trkpt lat="40.90641" lon="14.28479"><ele>75.4</ele><time>2026-04-04T11:50:37.007Z</time></trkpt><trkpt lat="40.9063117" lon="14.2847567"><ele>76.80000000000001</ele><time>2026-04-04T11:50:39.006Z</time></trkpt><trkpt lat="40.90622" lon="14.2847317"><ele>78.19999999999999</ele><time>2026-04-04T11:50:41.011Z</time></trkpt><trkpt lat="40.9061417" lon="14.2847317"><ele>79.6</ele><time>2026-04-04T11:50:42.005Z</time></trkpt><trkpt lat="40.9060417" lon="14.2847367"><ele>81.0</ele><time>2026-04-04T11:50:44.009Z</time></trkpt><trkpt lat="40.905965" lon="14.2847067"><ele>80.66666666666667</ele><time>2026-04-04T11:50:46.01Z</time></trkpt><trkpt lat="40.9058983" lon="14.2846667"><ele>80.33333333333333</ele><time>2026-04-04T11:50:48.006Z</time></trkpt><trkpt lat="40.9058317" lon="14.28464"><ele>80.0</ele><time>2026-04-04T11:50:50.006Z</time></trkpt><trkpt lat="40.90578" lon="14.284565"><ele>79.66666666666666</ele><time>2026-04-04T11:50:52.005Z</time></trkpt><trkpt lat="40.9056983" lon="14.2845367"><ele>79.33333333333333</ele><time>2026-04-04T11:50:54.006Z</time></trkpt><trkpt lat="40.9055933" lon="14.2845617"><ele>79.0</ele><time>2026-04-04T11:50:56.006Z</time></trkpt><trkpt lat="40.905505" lon="14.284565"><ele>79.0</ele><time>2026-04-04T11:50:58.008Z</time></trkpt><trkpt lat="40.9054367" lon="14.2846483"><ele>79.0</ele><time>2026-04-04T11:51:00.009Z</time></trkpt><trkpt lat="40.905365" lon="14.2846817"><ele>79.0</ele><time>2026-04-04T11:51:02.006Z</time></trkpt><trkpt lat="40.9052983" lon="14.284685"><ele>79.0</ele><time>2026-04-04T11:51:04.006Z</time></trkpt><trkpt lat="40.9052" lon="14.28468"><ele>79.0</ele><time>2026-04-04T11:51:07.006Z</time></trkpt><trkpt lat="40.9051283" lon="14.2846733"><ele>79.0</ele><time>2026-04-04T11:51:09.005Z</time></trkpt><trkpt lat="40.9050583" lon="14.2846917"><ele>79.0</ele><time>2026-04-04T11:51:11.005Z</time></trkpt><trkpt lat="40.90497" lon="14.2847383"><ele>79.0</ele><time>2026-04-04T11:51:13.007Z</time></trkpt><trkpt lat="40.9048917" lon="14.2847667"><ele>79.0</ele><time>2026-04-04T11:51:15.005Z</time></trkpt><trkpt lat="40.90481" lon="14.2848183"><ele>79.0</ele><time>2026-04-04T11:51:17.008Z</time></trkpt><trkpt lat="40.90473" lon="14.284875"><ele>79.0</ele><time>2026-04-04T11:51:18.01Z</time></trkpt><trkpt lat="40.9046483" lon="14.284915"><ele>79.0</ele><time>2026-04-04T11:51:19.008Z</time></trkpt><trkpt lat="40.90453" lon="14.2849617"><ele>79.0</ele><time>2026-04-04T11:51:21.007Z</time></trkpt><trkpt lat="40.9044033" lon="14.285"><ele>79.0</ele><time>2026-04-04T11:51:23.008Z</time></trkpt><trkpt lat="40.90434" lon="14.285025"><ele>79.0</ele><time>2026-04-04T11:51:24.008Z</time></trkpt><trkpt lat="40.9042767" lon="14.2850517"><ele>79.0</ele><time>2026-04-04T11:51:25.008Z</time></trkpt><trkpt lat="40.9042117" lon="14.2850733"><ele>79.0</ele><time>2026-04-04T11:51:26.007Z</time></trkpt><trkpt lat="40.9041417" lon="14.28509"><ele>79.0</ele><time>2026-04-04T11:51:27.01Z</time></trkpt><trkpt lat="40.904025" lon="14.2851283"><ele>79.16666666666666</ele><time>2026-04-04T11:51:29.008Z</time></trkpt><trkpt lat="40.9039133" lon="14.2851717"><ele>79.33333333333333</ele><time>2026-04-04T11:51:31.008Z</time></trkpt><trkpt lat="40.9037883" lon="14.285215"><ele>79.5</ele><time>2026-04-04T11:51:33.009Z</time></trkpt><trkpt lat="40.903725" lon="14.2852383"><ele>79.66666666666667</ele><time>2026-04-04T11:51:34.007Z</time></trkpt><trkpt lat="40.903665" lon="14.285265"><ele>79.83333333333334</ele><time>2026-04-04T11:51:35.007Z</time></trkpt><trkpt lat="40.9036" lon="14.285285"><ele>80.0</ele><time>2026-04-04T11:51:36.007Z</time></trkpt><trkpt lat="40.9034867" lon="14.2853167"><ele>80.0</ele><time>2026-04-04T11:51:38.007Z</time></trkpt><trkpt lat="40.90342" lon="14.285345"><ele>80.0</ele><time>2026-04-04T11:51:39.007Z</time></trkpt><trkpt lat="40.9033467" lon="14.285365"><ele>80.0</ele><time>2026-04-04T11:51:40.008Z</time></trkpt><trkpt lat="40.9032583" lon="14.285385"><ele>80.0</ele><time>2026-04-04T11:51:41.008Z</time></trkpt><trkpt lat="40.9031817" lon="14.2854133"><ele>80.0</ele><time>2026-04-04T11:51:42.008Z</time></trkpt><trkpt lat="40.9030933" lon="14.2854283"><ele>80.0</ele><time>2026-04-04T11:51:43.008Z</time></trkpt><trkpt lat="40.903015" lon="14.2854567"><ele>80.66666666666667</ele><time>2026-04-04T11:51:44.008Z</time></trkpt><trkpt lat="40.902935" lon="14.2854767"><ele>81.33333333333334</ele><time>2026-04-04T11:51:45.007Z</time></trkpt><trkpt lat="40.902855" lon="14.2854917"><ele>82.0</ele><time>2026-04-04T11:51:46.008Z</time></trkpt><trkpt lat="40.902775" lon="14.28551"><ele>82.66666666666667</ele><time>2026-04-04T11:51:47.008Z</time></trkpt><trkpt lat="40.9026917" lon="14.2855317"><ele>83.33333333333333</ele><time>2026-04-04T11:51:48.008Z</time></trkpt><trkpt lat="40.9026083" lon="14.285545"><ele>84.0</ele><time>2026-04-04T11:51:49.007Z</time></trkpt><trkpt lat="40.9025267" lon="14.285565"><ele>84.28571428571429</ele><time>2026-04-04T11:51:50.007Z</time></trkpt><trkpt lat="40.9024517" lon="14.285575"><ele>84.57142857142857</ele><time>2026-04-04T11:51:51.007Z</time></trkpt><trkpt lat="40.90238" lon="14.28559"><ele>84.85714285714286</ele><time>2026-04-04T11:51:52.008Z</time></trkpt><trkpt lat="40.9023083" lon="14.285595"><ele>85.14285714285714</ele><time>2026-04-04T11:51:53.009Z</time></trkpt><trkpt lat="40.9022333" lon="14.2856083"><ele>85.42857142857143</ele><time>2026-04-04T11:51:54.008Z</time></trkpt><trkpt lat="40.90216" lon="14.2856283"><ele>85.71428571428572</ele><time>2026-04-04T11:51:55.008Z</time></trkpt><trkpt lat="40.9020867" lon="14.285645"><ele>86.0</ele><time>2026-04-04T11:51:56.008Z</time></trkpt><trkpt lat="40.902005" lon="14.2856683"><ele>86.0</ele><time>2026-04-04T11:51:57.008Z</time></trkpt><trkpt lat="40.9019283" lon="14.2856917"><ele>86.0</ele><time>2026-04-04T11:51:58.008Z</time></trkpt><trkpt lat="40.9018517" lon="14.2857133"><ele>86.0</ele><time>2026-04-04T11:51:59.007Z</time></trkpt><trkpt lat="40.9017767" lon="14.28573"><ele>86.0</ele><time>2026-04-04T11:52:00.009Z</time></trkpt><trkpt lat="40.9017033" lon="14.2857467"><ele>86.0</ele><time>2026-04-04T11:52:01.007Z</time></trkpt><trkpt lat="40.90163" lon="14.28576"><ele>86.0</ele><time>2026-04-04T11:52:02.008Z</time></trkpt><trkpt lat="40.901555" lon="14.285775"><ele>85.83333333333334</ele><time>2026-04-04T11:52:03.007Z</time></trkpt><trkpt lat="40.9014833" lon="14.2857967"><ele>85.66666666666667</ele><time>2026-04-04T11:52:04.012Z</time></trkpt><trkpt lat="40.90141" lon="14.2858167"><ele>85.5</ele><time>2026-04-04T11:52:05.008Z</time></trkpt><trkpt lat="40.90133" lon="14.285835"><ele>85.33333333333333</ele><time>2026-04-04T11:52:06.014Z</time></trkpt><trkpt lat="40.90125" lon="14.28585"><ele>85.16666666666666</ele><time>2026-04-04T11:52:07.011Z</time></trkpt><trkpt lat="40.901175" lon="14.285865"><ele>85.0</ele><time>2026-04-04T11:52:08.007Z</time></trkpt><trkpt lat="40.9010967" lon="14.2858867"><ele>85.0</ele><time>2026-04-04T11:52:09.008Z</time></trkpt><trkpt lat="40.90102" lon="14.285885"><ele>85.0</ele><time>2026-04-04T11:52:10.008Z</time></trkpt><trkpt lat="40.9009433" lon="14.285905"><ele>85.0</ele><time>2026-04-04T11:52:11.01Z</time></trkpt><trkpt lat="40.9008717" lon="14.2859383"><ele>85.0</ele><time>2026-04-04T11:52:12.008Z</time></trkpt><trkpt lat="40.9008033" lon="14.2859683"><ele>85.0</ele><time>2026-04-04T11:52:13.007Z</time></trkpt><trkpt lat="40.9007283" lon="14.286"><ele>85.0</ele><time>2026-04-04T11:52:14.006Z</time></trkpt><trkpt lat="40.9006567" lon="14.286025"><ele>85.14285714285715</ele><time>2026-04-04T11:52:15.018Z</time></trkpt><trkpt lat="40.9005833" lon="14.2860483"><ele>85.28571428571428</ele><time>2026-04-04T11:52:16.007Z</time></trkpt><trkpt lat="40.900515" lon="14.28605"><ele>85.42857142857143</ele><time>2026-04-04T11:52:17.014Z</time></trkpt><trkpt lat="40.90045" lon="14.2860517"><ele>85.57142857142858</ele><time>2026-04-04T11:52:18.007Z</time></trkpt><trkpt lat="40.9003833" lon="14.28605"><ele>85.71428571428572</ele><time>2026-04-04T11:52:19.008Z</time></trkpt><trkpt lat="40.900315" lon="14.28604"><ele>85.85714285714286</ele><time>2026-04-04T11:52:20.008Z</time></trkpt><trkpt lat="40.900245" lon="14.2860317"><ele>86.0</ele><time>2026-04-04T11:52:21.009Z</time></trkpt><trkpt lat="40.9001683" lon="14.2859933"><ele>86.0</ele><time>2026-04-04T11:52:22.008Z</time></trkpt><trkpt lat="40.900095" lon="14.2859533"><ele>86.0</ele><time>2026-04-04T11:52:23.007Z</time></trkpt><trkpt lat="40.9000217" lon="14.28591"><ele>86.0</ele><time>2026-04-04T11:52:24.008Z</time></trkpt><trkpt lat="40.899945" lon="14.2858717"><ele>86.0</ele><time>2026-04-04T11:52:25.009Z</time></trkpt><trkpt lat="40.899865" lon="14.285825"><ele>86.0</ele><time>2026-04-04T11:52:26.009Z</time></trkpt><trkpt lat="40.899785" lon="14.2857833"><ele>86.0</ele><time>2026-04-04T11:52:27.014Z</time></trkpt><trkpt lat="40.8997017" lon="14.2857383"><ele>86.0</ele><time>2026-04-04T11:52:28.009Z</time></trkpt><trkpt lat="40.899625" lon="14.2856983"><ele>86.0</ele><time>2026-04-04T11:52:29.008Z</time></trkpt><trkpt lat="40.8995517" lon="14.285665"><ele>86.0</ele><time>2026-04-04T11:52:30.014Z</time></trkpt><trkpt lat="40.8994817" lon="14.2856317"><ele>86.0</ele><time>2026-04-04T11:52:31.007Z</time></trkpt><trkpt lat="40.89941" lon="14.2856033"><ele>86.0</ele><time>2026-04-04T11:52:32.013Z</time></trkpt><trkpt lat="40.899345" lon="14.2855617"><ele>86.0</ele><time>2026-04-04T11:52:33.009Z</time></trkpt><trkpt lat="40.8992733" lon="14.2855267"><ele>85.5</ele><time>2026-04-04T11:52:34.008Z</time></trkpt><trkpt lat="40.8992033" lon="14.2854917"><ele>85.0</ele><time>2026-04-04T11:52:35.008Z</time></trkpt><trkpt lat="40.8991267" lon="14.2854633"><ele>84.5</ele><time>2026-04-04T11:52:36.011Z</time></trkpt><trkpt lat="40.8990567" lon="14.2854233"><ele>84.0</ele><time>2026-04-04T11:52:37.01Z</time></trkpt><trkpt lat="40.89898" lon="14.2853933"><ele>83.5</ele><time>2026-04-04T11:52:38.009Z</time></trkpt><trkpt lat="40.8989117" lon="14.2853483"><ele>83.0</ele><time>2026-04-04T11:52:39.007Z</time></trkpt><trkpt lat="40.8988433" lon="14.285305"><ele>83.0</ele><time>2026-04-04T11:52:40.007Z</time></trkpt><trkpt lat="40.898775" lon="14.28527"><ele>83.0</ele><time>2026-04-04T11:52:41.007Z</time></trkpt><trkpt lat="40.8987133" lon="14.2852317"><ele>83.0</ele><time>2026-04-04T11:52:42.011Z</time></trkpt><trkpt lat="40.8986267" lon="14.285175"><ele>83.0</ele><time>2026-04-04T11:52:44.008Z</time></trkpt><trkpt lat="40.8985633" lon="14.2851183"><ele>83.0</ele><time>2026-04-04T11:52:47.008Z</time></trkpt><trkpt lat="40.89851" lon="14.2850633"><ele>83.0</ele><time>2026-04-04T11:52:49.007Z</time></trkpt><trkpt lat="40.89844" lon="14.2850067"><ele>82.4</ele><time>2026-04-04T11:52:51.007Z</time></trkpt><trkpt lat="40.8983467" lon="14.284985"><ele>81.80000000000001</ele><time>2026-04-04T11:52:53.008Z</time></trkpt><trkpt lat="40.898275" lon="14.2850333"><ele>81.2</ele><time>2026-04-04T11:52:55.007Z</time></trkpt><trkpt lat="40.8982217" lon="14.285135"><ele>80.6</ele><time>2026-04-04T11:52:57.007Z</time></trkpt><trkpt lat="40.8981783" lon="14.2852367"><ele>80.0</ele><time>2026-04-04T11:52:59.007Z</time></trkpt><trkpt lat="40.8981583" lon="14.28539"><ele>80.0</ele><time>2026-04-04T11:53:01.008Z</time></trkpt><trkpt lat="40.898155" lon="14.2854917"><ele>80.0</ele><time>2026-04-04T11:53:02.009Z</time></trkpt><trkpt lat="40.89816" lon="14.2855867"><ele>80.0</ele><time>2026-04-04T11:53:03.01Z</time></trkpt><trkpt lat="40.8981717" lon="14.2856917"><ele>80.0</ele><time>2026-04-04T11:53:04.008Z</time></trkpt><trkpt lat="40.89816" lon="14.2857933"><ele>80.0</ele><time>2026-04-04T11:53:05.008Z</time></trkpt><trkpt lat="40.89816" lon="14.2858883"><ele>80.0</ele><time>2026-04-04T11:53:06.009Z</time></trkpt><trkpt lat="40.898195" lon="14.2859667"><ele>80.0</ele><time>2026-04-04T11:53:07.009Z</time></trkpt><trkpt lat="40.8982117" lon="14.2860533"><ele>80.28571428571428</ele><time>2026-04-04T11:53:08.01Z</time></trkpt><trkpt lat="40.8982233" lon="14.2861433"><ele>80.57142857142857</ele><time>2026-04-04T11:53:09.01Z</time></trkpt><trkpt lat="40.8982167" lon="14.2862367"><ele>80.85714285714286</ele><time>2026-04-04T11:53:10.008Z</time></trkpt><trkpt lat="40.898235" lon="14.286335"><ele>81.14285714285714</ele><time>2026-04-04T11:53:11.008Z</time></trkpt><trkpt lat="40.8982567" lon="14.2864317"><ele>81.42857142857143</ele><time>2026-04-04T11:53:12.008Z</time></trkpt><trkpt lat="40.8982617" lon="14.2865217"><ele>81.71428571428571</ele><time>2026-04-04T11:53:13.007Z</time></trkpt><trkpt lat="40.8982767" lon="14.2866167"><ele>82.0</ele><time>2026-04-04T11:53:14.008Z</time></trkpt><trkpt lat="40.898285" lon="14.2867017"><ele>82.0</ele><time>2026-04-04T11:53:15.008Z</time></trkpt><trkpt lat="40.8982983" lon="14.2868483"><ele>82.0</ele><time>2026-04-04T11:53:17.007Z</time></trkpt><trkpt lat="40.8983183" lon="14.2869583"><ele>82.0</ele><time>2026-04-04T11:53:19.008Z</time></trkpt><trkpt lat="40.8983517" lon="14.2870417"><ele>82.0</ele><time>2026-04-04T11:53:21.008Z</time></trkpt><trkpt lat="40.89829" lon="14.287085"><ele>82.0</ele><time>2026-04-04T11:53:25.008Z</time></trkpt><trkpt lat="40.8982033" lon="14.2870467"><ele>82.0</ele><time>2026-04-04T11:53:27.009Z</time></trkpt><trkpt lat="40.898095" lon="14.2870133"><ele>81.99999999999999</ele><time>2026-04-04T11:53:29.007Z</time></trkpt><trkpt lat="40.8980317" lon="14.28699"><ele>82.0</ele><time>2026-04-04T11:53:30.009Z</time></trkpt><trkpt lat="40.8979683" lon="14.2869683"><ele>82.0</ele><time>2026-04-04T11:53:31.008Z</time></trkpt><trkpt lat="40.897905" lon="14.2869483"><ele>82.0</ele><time>2026-04-04T11:53:32.007Z</time></trkpt><trkpt lat="40.89784" lon="14.2869267"><ele>82.0</ele><time>2026-04-04T11:53:33.008Z</time></trkpt><trkpt lat="40.8977767" lon="14.2869017"><ele>81.99999999999999</ele><time>2026-04-04T11:53:34.008Z</time></trkpt><trkpt lat="40.897715" lon="14.28687"><ele>82.0</ele><time>2026-04-04T11:53:35.007Z</time></trkpt><trkpt lat="40.897605" lon="14.28682"><ele>81.6</ele><time>2026-04-04T11:53:37.008Z</time></trkpt><trkpt lat="40.89749" lon="14.286785"><ele>81.19999999999999</ele><time>2026-04-04T11:53:39.008Z</time></trkpt><trkpt lat="40.8973783" lon="14.2867483"><ele>80.8</ele><time>2026-04-04T11:53:41.008Z</time></trkpt><trkpt lat="40.89726" lon="14.2867033"><ele>80.4</ele><time>2026-04-04T11:53:43.007Z</time></trkpt><trkpt lat="40.89719" lon="14.2866883"><ele>80.0</ele><time>2026-04-04T11:53:44.008Z</time></trkpt><trkpt lat="40.8971233" lon="14.28667"><ele>80.0</ele><time>2026-04-04T11:53:45.009Z</time></trkpt><trkpt lat="40.897" lon="14.2866267"><ele>80.0</ele><time>2026-04-04T11:53:47.009Z</time></trkpt><trkpt lat="40.8968817" lon="14.28657"><ele>80.0</ele><time>2026-04-04T11:53:49.008Z</time></trkpt><trkpt lat="40.8968167" lon="14.2865433"><ele>80.0</ele><time>2026-04-04T11:53:50.009Z</time></trkpt><trkpt lat="40.896755" lon="14.2865117"><ele>80.0</ele><time>2026-04-04T11:53:51.008Z</time></trkpt><trkpt lat="40.896695" lon="14.28648"><ele>80.0</ele><time>2026-04-04T11:53:52.008Z</time></trkpt><trkpt lat="40.8966317" lon="14.286455"><ele>80.0</ele><time>2026-04-04T11:53:53.007Z</time></trkpt><trkpt lat="40.8965683" lon="14.2864283"><ele>80.0</ele><time>2026-04-04T11:53:54.007Z</time></trkpt><trkpt lat="40.8965017" lon="14.2864083"><ele>80.0</ele><time>2026-04-04T11:53:55.009Z</time></trkpt><trkpt lat="40.8964333" lon="14.2863767"><ele>80.0</ele><time>2026-04-04T11:53:56.009Z</time></trkpt><trkpt lat="40.8963683" lon="14.28635"><ele>80.0</ele><time>2026-04-04T11:53:57.01Z</time></trkpt><trkpt lat="40.8963" lon="14.28633"><ele>80.0</ele><time>2026-04-04T11:53:58.008Z</time></trkpt><trkpt lat="40.8962333" lon="14.286315"><ele>80.0</ele><time>2026-04-04T11:53:59.011Z</time></trkpt><trkpt lat="40.8961683" lon="14.2863033"><ele>80.0</ele><time>2026-04-04T11:54:00.01Z</time></trkpt><trkpt lat="40.8961067" lon="14.28628"><ele>80.0</ele><time>2026-04-04T11:54:01.01Z</time></trkpt><trkpt lat="40.8960433" lon="14.2862667"><ele>80.0</ele><time>2026-04-04T11:54:02.008Z</time></trkpt><trkpt lat="40.8959767" lon="14.2862533"><ele>80.0</ele><time>2026-04-04T11:54:03.008Z</time></trkpt><trkpt lat="40.8959117" lon="14.2862417"><ele>80.0</ele><time>2026-04-04T11:54:04.007Z</time></trkpt><trkpt lat="40.895795" lon="14.2862267"><ele>80.0</ele><time>2026-04-04T11:54:06.009Z</time></trkpt><trkpt lat="40.8956817" lon="14.28622"><ele>79.6</ele><time>2026-04-04T11:54:08.008Z</time></trkpt><trkpt lat="40.8955683" lon="14.286215"><ele>79.2</ele><time>2026-04-04T11:54:10.006Z</time></trkpt><trkpt lat="40.89545" lon="14.2862217"><ele>78.8</ele><time>2026-04-04T11:54:12.012Z</time></trkpt><trkpt lat="40.895345" lon="14.28622"><ele>78.4</ele><time>2026-04-04T11:54:14.009Z</time></trkpt><trkpt lat="40.8952517" lon="14.2862217"><ele>78.0</ele><time>2026-04-04T11:54:16.009Z</time></trkpt><trkpt lat="40.8951533" lon="14.28622"><ele>78.33333333333333</ele><time>2026-04-04T11:54:18.01Z</time></trkpt><trkpt lat="40.8950567" lon="14.2862217"><ele>78.66666666666667</ele><time>2026-04-04T11:54:20.011Z</time></trkpt><trkpt lat="40.8949617" lon="14.2862133"><ele>79.0</ele><time>2026-04-04T11:54:22.009Z</time></trkpt><trkpt lat="40.8948933" lon="14.2862183"><ele>79.33333333333334</ele><time>2026-04-04T11:54:24.009Z</time></trkpt><trkpt lat="40.8948083" lon="14.286175"><ele>79.66666666666667</ele><time>2026-04-04T11:54:27.008Z</time></trkpt><trkpt lat="40.8947417" lon="14.2861733"><ele>80.0</ele><time>2026-04-04T11:54:28.01Z</time></trkpt><trkpt lat="40.8946533" lon="14.28615"><ele>80.0</ele><time>2026-04-04T11:54:29.011Z</time></trkpt><trkpt lat="40.8945833" lon="14.28614"><ele>80.0</ele><time>2026-04-04T11:54:30.007Z</time></trkpt><trkpt lat="40.8945133" lon="14.2861283"><ele>80.0</ele><time>2026-04-04T11:54:31.008Z</time></trkpt><trkpt lat="40.8943983" lon="14.2861167"><ele>80.0</ele><time>2026-04-04T11:54:33.01Z</time></trkpt><trkpt lat="40.8942917" lon="14.2861033"><ele>80.0</ele><time>2026-04-04T11:54:35.007Z</time></trkpt><trkpt lat="40.894185" lon="14.2860933"><ele>80.2</ele><time>2026-04-04T11:54:37.009Z</time></trkpt><trkpt lat="40.8940783" lon="14.2860683"><ele>80.4</ele><time>2026-04-04T11:54:39.007Z</time></trkpt><trkpt lat="40.8939817" lon="14.2860533"><ele>80.6</ele><time>2026-04-04T11:54:41.009Z</time></trkpt><trkpt lat="40.8938883" lon="14.286045"><ele>80.8</ele><time>2026-04-04T11:54:43.011Z</time></trkpt><trkpt lat="40.8937983" lon="14.2860283"><ele>81.0</ele><time>2026-04-04T11:54:45.008Z</time></trkpt><trkpt lat="40.8937117" lon="14.2860167"><ele>81.0</ele><time>2026-04-04T11:54:47.01Z</time></trkpt><trkpt lat="40.8936467" lon="14.286"><ele>81.0</ele><time>2026-04-04T11:54:49.011Z</time></trkpt><trkpt lat="40.8935767" lon="14.2859683"><ele>81.0</ele><time>2026-04-04T11:54:54.007Z</time></trkpt><trkpt lat="40.8935017" lon="14.2859917"><ele>81.0</ele><time>2026-04-04T11:54:57.011Z</time></trkpt><trkpt lat="40.8934483" lon="14.2860783"><ele>81.0</ele><time>2026-04-04T11:55:00.011Z</time></trkpt><trkpt lat="40.8934467" lon="14.2861867"><ele>81.0</ele><time>2026-04-04T11:55:02.007Z</time></trkpt><trkpt lat="40.8934633" lon="14.2862983"><ele>81.0</ele><time>2026-04-04T11:55:04.011Z</time></trkpt><trkpt lat="40.8934917" lon="14.28641"><ele>81.0</ele><time>2026-04-04T11:55:06.009Z</time></trkpt><trkpt lat="40.893525" lon="14.286515"><ele>81.0</ele><time>2026-04-04T11:55:08.012Z</time></trkpt><trkpt lat="40.893565" lon="14.2866217"><ele>81.0</ele><time>2026-04-04T11:55:10.009Z</time></trkpt><trkpt lat="40.8935933" lon="14.286725"><ele>81.0</ele><time>2026-04-04T11:55:12.011Z</time></trkpt><trkpt lat="40.89362" lon="14.286835"><ele>81.0</ele><time>2026-04-04T11:55:14.009Z</time></trkpt><trkpt lat="40.8936467" lon="14.2869467"><ele>80.83333333333333</ele><time>2026-04-04T11:55:16.008Z</time></trkpt><trkpt lat="40.8936683" lon="14.2870583"><ele>80.66666666666667</ele><time>2026-04-04T11:55:18.011Z</time></trkpt><trkpt lat="40.8937033" lon="14.2871717"><ele>80.5</ele><time>2026-04-04T11:55:20.007Z</time></trkpt><trkpt lat="40.8937367" lon="14.287285"><ele>80.33333333333334</ele><time>2026-04-04T11:55:22.01Z</time></trkpt><trkpt lat="40.893765" lon="14.2873883"><ele>80.16666666666667</ele><time>2026-04-04T11:55:24.008Z</time></trkpt><trkpt lat="40.893795" lon="14.2874933"><ele>80.0</ele><time>2026-04-04T11:55:26.009Z</time></trkpt><trkpt lat="40.8938333" lon="14.2875933"><ele>80.0</ele><time>2026-04-04T11:55:28.011Z</time></trkpt><trkpt lat="40.8938633" lon="14.28769"><ele>80.0</ele><time>2026-04-04T11:55:30.011Z</time></trkpt><trkpt lat="40.8939517" lon="14.2878333"><ele>80.0</ele><time>2026-04-04T11:56:03.007Z</time></trkpt><trkpt lat="40.8940117" lon="14.2877717"><ele>80.0</ele><time>2026-04-04T11:56:09.006Z</time></trkpt><trkpt lat="40.8940733" lon="14.2877517"><ele>80.0</ele><time>2026-04-04T11:56:14.008Z</time></trkpt><trkpt lat="40.894135" lon="14.28773"><ele>80.0</ele><time>2026-04-04T11:56:17.007Z</time></trkpt><trkpt lat="40.893982" lon="14.2878931"><ele>80.0</ele><time>2026-04-04T11:56:36.392Z</time></trkpt><trkpt lat="40.8937625" lon="14.2878366"><ele>80.0</ele><time>2026-04-04T11:56:43.416Z</time></trkpt></trkseg></trk></gpx>